<?xml version="1.0" encoding="UTF-8" standalone="no" ?>
<gpx xmlns="http://www.topografix.com/GPX/1/1" xmlns:xsi="http://www.w3.org/2001/XMLSchema-instance" xsi:schemaLocation="http://www.topografix.com/GPX/1/1 http://www.topografix.com/GPX/1/1/gpx.xsd" version="1.1" creator="VisuGPX - https://www.visugpx.com">
  <metadata>
    <name>Cottenchy</name>
  </metadata>
  <trk>
    <name><![CDATA[Cottenchy_1]]></name>
    <trkseg>
      <trkpt lat="49.80883" lon="2.38469">
        <ele>37.6</ele>
        <time>2022-07-27T07:00:55Z</time>
      </trkpt>
      <trkpt lat="49.80883" lon="2.38469">
        <ele>37.6</ele>
        <time>2022-07-27T07:00:56Z</time>
      </trkpt>
      <trkpt lat="49.80883" lon="2.38469">
        <ele>37.6</ele>
        <time>2022-07-27T07:00:57Z</time>
      </trkpt>
      <trkpt lat="49.80883" lon="2.38469">
        <ele>37.6</ele>
        <time>2022-07-27T07:00:58Z</time>
      </trkpt>
      <trkpt lat="49.80883" lon="2.38469">
        <ele>37.6</ele>
        <time>2022-07-27T07:00:59Z</time>
      </trkpt>
      <trkpt lat="49.80883" lon="2.38469">
        <ele>37.6</ele>
        <time>2022-07-27T07:01:00Z</time>
      </trkpt>
      <trkpt lat="49.80883" lon="2.38469">
        <ele>37.6</ele>
        <time>2022-07-27T07:01:01Z</time>
      </trkpt>
      <trkpt lat="49.80883" lon="2.38469">
        <ele>37.6</ele>
        <time>2022-07-27T07:01:02Z</time>
      </trkpt>
      <trkpt lat="49.80883" lon="2.38469">
        <ele>37.6</ele>
        <time>2022-07-27T07:01:03Z</time>
      </trkpt>
      <trkpt lat="49.80883" lon="2.38469">
        <ele>37.6</ele>
        <time>2022-07-27T07:01:04Z</time>
      </trkpt>
      <trkpt lat="49.80883" lon="2.38469">
        <ele>37.6</ele>
        <time>2022-07-27T07:01:05Z</time>
      </trkpt>
      <trkpt lat="49.80883" lon="2.38469">
        <ele>37.6</ele>
        <time>2022-07-27T07:01:06Z</time>
      </trkpt>
      <trkpt lat="49.80883" lon="2.38469">
        <ele>37.6</ele>
        <time>2022-07-27T07:01:07Z</time>
      </trkpt>
      <trkpt lat="49.80883" lon="2.38469">
        <ele>37.6</ele>
        <time>2022-07-27T07:01:08Z</time>
      </trkpt>
      <trkpt lat="49.80883" lon="2.38469">
        <ele>37.6</ele>
        <time>2022-07-27T07:01:09Z</time>
      </trkpt>
      <trkpt lat="49.80883" lon="2.38469">
        <ele>37.6</ele>
        <time>2022-07-27T07:01:10Z</time>
      </trkpt>
      <trkpt lat="49.80883" lon="2.38469">
        <ele>37.6</ele>
        <time>2022-07-27T07:01:11Z</time>
      </trkpt>
      <trkpt lat="49.80883" lon="2.38469">
        <ele>37.6</ele>
        <time>2022-07-27T07:01:12Z</time>
      </trkpt>
      <trkpt lat="49.80883" lon="2.38469">
        <ele>37.6</ele>
        <time>2022-07-27T07:01:13Z</time>
      </trkpt>
      <trkpt lat="49.80883" lon="2.38469">
        <ele>37.6</ele>
        <time>2022-07-27T07:01:14Z</time>
      </trkpt>
      <trkpt lat="49.80883" lon="2.38469">
        <ele>37.6</ele>
        <time>2022-07-27T07:01:15Z</time>
      </trkpt>
      <trkpt lat="49.80883" lon="2.38469">
        <ele>37.6</ele>
        <time>2022-07-27T07:01:16Z</time>
      </trkpt>
      <trkpt lat="49.80883" lon="2.38469">
        <ele>37.6</ele>
        <time>2022-07-27T07:01:17Z</time>
      </trkpt>
      <trkpt lat="49.80883" lon="2.38469">
        <ele>37.6</ele>
        <time>2022-07-27T07:01:18Z</time>
      </trkpt>
      <trkpt lat="49.80883" lon="2.38469">
        <ele>37.6</ele>
        <time>2022-07-27T07:01:19Z</time>
      </trkpt>
      <trkpt lat="49.80883" lon="2.38469">
        <ele>37.6</ele>
        <time>2022-07-27T07:01:20Z</time>
      </trkpt>
      <trkpt lat="49.80883" lon="2.38469">
        <ele>37.6</ele>
        <time>2022-07-27T07:01:21Z</time>
      </trkpt>
      <trkpt lat="49.80883" lon="2.38469">
        <ele>37.6</ele>
        <time>2022-07-27T07:01:22Z</time>
      </trkpt>
      <trkpt lat="49.80883" lon="2.38469">
        <ele>37.6</ele>
        <time>2022-07-27T07:01:23Z</time>
      </trkpt>
      <trkpt lat="49.80883" lon="2.38469">
        <ele>37.6</ele>
        <time>2022-07-27T07:01:24Z</time>
      </trkpt>
      <trkpt lat="49.80883" lon="2.38469">
        <ele>37.6</ele>
        <time>2022-07-27T07:01:25Z</time>
      </trkpt>
      <trkpt lat="49.80883" lon="2.38469">
        <ele>37.6</ele>
        <time>2022-07-27T07:01:26Z</time>
      </trkpt>
      <trkpt lat="49.80883" lon="2.38469">
        <ele>37.6</ele>
        <time>2022-07-27T07:01:27Z</time>
      </trkpt>
      <trkpt lat="49.80883" lon="2.38469">
        <ele>37.6</ele>
        <time>2022-07-27T07:01:28Z</time>
      </trkpt>
      <trkpt lat="49.80883" lon="2.38469">
        <ele>37.6</ele>
        <time>2022-07-27T07:01:29Z</time>
      </trkpt>
      <trkpt lat="49.80883" lon="2.38469">
        <ele>37.6</ele>
        <time>2022-07-27T07:01:30Z</time>
      </trkpt>
      <trkpt lat="49.80883" lon="2.38469">
        <ele>37.6</ele>
        <time>2022-07-27T07:01:31Z</time>
      </trkpt>
      <trkpt lat="49.80883" lon="2.38469">
        <ele>37.6</ele>
        <time>2022-07-27T07:01:32Z</time>
      </trkpt>
      <trkpt lat="49.80883" lon="2.38469">
        <ele>37.6</ele>
        <time>2022-07-27T07:01:33Z</time>
      </trkpt>
      <trkpt lat="49.80883" lon="2.38469">
        <ele>37.6</ele>
        <time>2022-07-27T07:01:34Z</time>
      </trkpt>
      <trkpt lat="49.80883" lon="2.38469">
        <ele>37.6</ele>
        <time>2022-07-27T07:01:35Z</time>
      </trkpt>
      <trkpt lat="49.80883" lon="2.38469">
        <ele>37.6</ele>
        <time>2022-07-27T07:01:36Z</time>
      </trkpt>
      <trkpt lat="49.80883" lon="2.38469">
        <ele>37.6</ele>
        <time>2022-07-27T07:01:37Z</time>
      </trkpt>
      <trkpt lat="49.80883" lon="2.38469">
        <ele>37.6</ele>
        <time>2022-07-27T07:01:38Z</time>
      </trkpt>
      <trkpt lat="49.80883" lon="2.38469">
        <ele>37.6</ele>
        <time>2022-07-27T07:01:39Z</time>
      </trkpt>
      <trkpt lat="49.80883" lon="2.38469">
        <ele>37.6</ele>
        <time>2022-07-27T07:01:40Z</time>
      </trkpt>
      <trkpt lat="49.80883" lon="2.38469">
        <ele>37.6</ele>
        <time>2022-07-27T07:01:41Z</time>
      </trkpt>
      <trkpt lat="49.80883" lon="2.38469">
        <ele>37.6</ele>
        <time>2022-07-27T07:01:42Z</time>
      </trkpt>
      <trkpt lat="49.80883" lon="2.38469">
        <ele>37.6</ele>
        <time>2022-07-27T07:01:43Z</time>
      </trkpt>
      <trkpt lat="49.80883" lon="2.38469">
        <ele>37.6</ele>
        <time>2022-07-27T07:01:44Z</time>
      </trkpt>
      <trkpt lat="49.80883" lon="2.38469">
        <ele>37.6</ele>
        <time>2022-07-27T07:01:45Z</time>
      </trkpt>
      <trkpt lat="49.80883" lon="2.38469">
        <ele>37.6</ele>
        <time>2022-07-27T07:01:46Z</time>
      </trkpt>
      <trkpt lat="49.80883" lon="2.38469">
        <ele>37.6</ele>
        <time>2022-07-27T07:01:47Z</time>
      </trkpt>
      <trkpt lat="49.80883" lon="2.38469">
        <ele>37.6</ele>
        <time>2022-07-27T07:01:48Z</time>
      </trkpt>
      <trkpt lat="49.80883" lon="2.3847">
        <ele>37.6</ele>
        <time>2022-07-27T07:01:49Z</time>
      </trkpt>
      <trkpt lat="49.80883" lon="2.38471">
        <ele>37.6</ele>
        <time>2022-07-27T07:01:50Z</time>
      </trkpt>
      <trkpt lat="49.80883" lon="2.38471">
        <ele>37.6</ele>
        <time>2022-07-27T07:01:51Z</time>
      </trkpt>
      <trkpt lat="49.80882" lon="2.38471">
        <ele>37.6</ele>
        <time>2022-07-27T07:01:52Z</time>
      </trkpt>
      <trkpt lat="49.80881" lon="2.38473">
        <ele>37.5</ele>
        <time>2022-07-27T07:01:53Z</time>
      </trkpt>
      <trkpt lat="49.80879" lon="2.38474">
        <ele>37.5</ele>
        <time>2022-07-27T07:01:54Z</time>
      </trkpt>
      <trkpt lat="49.80879" lon="2.38475">
        <ele>37.5</ele>
        <time>2022-07-27T07:01:55Z</time>
      </trkpt>
      <trkpt lat="49.80879" lon="2.38476">
        <ele>37.4</ele>
        <time>2022-07-27T07:01:56Z</time>
      </trkpt>
      <trkpt lat="49.80878" lon="2.38478">
        <ele>37.4</ele>
        <time>2022-07-27T07:01:57Z</time>
      </trkpt>
      <trkpt lat="49.80877" lon="2.38479">
        <ele>37.4</ele>
        <time>2022-07-27T07:01:58Z</time>
      </trkpt>
      <trkpt lat="49.80877" lon="2.3848">
        <ele>37.4</ele>
        <time>2022-07-27T07:01:59Z</time>
      </trkpt>
      <trkpt lat="49.80876" lon="2.38481">
        <ele>37.4</ele>
        <time>2022-07-27T07:02:00Z</time>
      </trkpt>
      <trkpt lat="49.80875" lon="2.38482">
        <ele>37.3</ele>
        <time>2022-07-27T07:02:01Z</time>
      </trkpt>
      <trkpt lat="49.80875" lon="2.38484">
        <ele>37.3</ele>
        <time>2022-07-27T07:02:02Z</time>
      </trkpt>
      <trkpt lat="49.80874" lon="2.38485">
        <ele>37.3</ele>
        <time>2022-07-27T07:02:03Z</time>
      </trkpt>
      <trkpt lat="49.80873" lon="2.38486">
        <ele>37.2</ele>
        <time>2022-07-27T07:02:04Z</time>
      </trkpt>
      <trkpt lat="49.80872" lon="2.38487">
        <ele>37.2</ele>
        <time>2022-07-27T07:02:05Z</time>
      </trkpt>
      <trkpt lat="49.80872" lon="2.38487">
        <ele>37.2</ele>
        <time>2022-07-27T07:02:06Z</time>
      </trkpt>
      <trkpt lat="49.80872" lon="2.38488">
        <ele>37.2</ele>
        <time>2022-07-27T07:02:07Z</time>
      </trkpt>
      <trkpt lat="49.80872" lon="2.38489">
        <ele>37.2</ele>
        <time>2022-07-27T07:02:08Z</time>
      </trkpt>
      <trkpt lat="49.80871" lon="2.38489">
        <ele>37.2</ele>
        <time>2022-07-27T07:02:09Z</time>
      </trkpt>
      <trkpt lat="49.80871" lon="2.3849">
        <ele>37.2</ele>
        <time>2022-07-27T07:02:10Z</time>
      </trkpt>
      <trkpt lat="49.80871" lon="2.3849">
        <ele>37.2</ele>
        <time>2022-07-27T07:02:11Z</time>
      </trkpt>
      <trkpt lat="49.8087" lon="2.38491">
        <ele>37.2</ele>
        <time>2022-07-27T07:02:12Z</time>
      </trkpt>
      <trkpt lat="49.80869" lon="2.38493">
        <ele>37.1</ele>
        <time>2022-07-27T07:02:13Z</time>
      </trkpt>
      <trkpt lat="49.80867" lon="2.38494">
        <ele>37</ele>
        <time>2022-07-27T07:02:14Z</time>
      </trkpt>
      <trkpt lat="49.80866" lon="2.38496">
        <ele>37</ele>
        <time>2022-07-27T07:02:15Z</time>
      </trkpt>
      <trkpt lat="49.80866" lon="2.38497">
        <ele>37</ele>
        <time>2022-07-27T07:02:16Z</time>
      </trkpt>
      <trkpt lat="49.80865" lon="2.38497">
        <ele>37</ele>
        <time>2022-07-27T07:02:17Z</time>
      </trkpt>
      <trkpt lat="49.80864" lon="2.38498">
        <ele>36.9</ele>
        <time>2022-07-27T07:02:18Z</time>
      </trkpt>
      <trkpt lat="49.80864" lon="2.38498">
        <ele>36.9</ele>
        <time>2022-07-27T07:02:19Z</time>
      </trkpt>
      <trkpt lat="49.80863" lon="2.38499">
        <ele>36.9</ele>
        <time>2022-07-27T07:02:20Z</time>
      </trkpt>
      <trkpt lat="49.80862" lon="2.38499">
        <ele>36.9</ele>
        <time>2022-07-27T07:02:21Z</time>
      </trkpt>
      <trkpt lat="49.80862" lon="2.38499">
        <ele>36.9</ele>
        <time>2022-07-27T07:02:22Z</time>
      </trkpt>
      <trkpt lat="49.80861" lon="2.38498">
        <ele>36.9</ele>
        <time>2022-07-27T07:02:23Z</time>
      </trkpt>
      <trkpt lat="49.80861" lon="2.38498">
        <ele>36.9</ele>
        <time>2022-07-27T07:02:24Z</time>
      </trkpt>
      <trkpt lat="49.8086" lon="2.38498">
        <ele>36.9</ele>
        <time>2022-07-27T07:02:25Z</time>
      </trkpt>
      <trkpt lat="49.80859" lon="2.38498">
        <ele>36.8</ele>
        <time>2022-07-27T07:02:26Z</time>
      </trkpt>
      <trkpt lat="49.80857" lon="2.38497">
        <ele>36.8</ele>
        <time>2022-07-27T07:02:27Z</time>
      </trkpt>
      <trkpt lat="49.80856" lon="2.38497">
        <ele>36.8</ele>
        <time>2022-07-27T07:02:28Z</time>
      </trkpt>
      <trkpt lat="49.80856" lon="2.38497">
        <ele>36.8</ele>
        <time>2022-07-27T07:02:29Z</time>
      </trkpt>
      <trkpt lat="49.80852" lon="2.38496">
        <ele>36.7</ele>
        <time>2022-07-27T07:02:30Z</time>
      </trkpt>
      <trkpt lat="49.80851" lon="2.38495">
        <ele>36.7</ele>
        <time>2022-07-27T07:02:31Z</time>
      </trkpt>
      <trkpt lat="49.8085" lon="2.38495">
        <ele>36.7</ele>
        <time>2022-07-27T07:02:32Z</time>
      </trkpt>
      <trkpt lat="49.80849" lon="2.38495">
        <ele>36.6</ele>
        <time>2022-07-27T07:02:33Z</time>
      </trkpt>
      <trkpt lat="49.80848" lon="2.38495">
        <ele>36.6</ele>
        <time>2022-07-27T07:02:34Z</time>
      </trkpt>
      <trkpt lat="49.80847" lon="2.38495">
        <ele>36.6</ele>
        <time>2022-07-27T07:02:35Z</time>
      </trkpt>
      <trkpt lat="49.80846" lon="2.38495">
        <ele>36.6</ele>
        <time>2022-07-27T07:02:36Z</time>
      </trkpt>
      <trkpt lat="49.80845" lon="2.38494">
        <ele>36.6</ele>
        <time>2022-07-27T07:02:37Z</time>
      </trkpt>
      <trkpt lat="49.80843" lon="2.38494">
        <ele>36.6</ele>
        <time>2022-07-27T07:02:38Z</time>
      </trkpt>
      <trkpt lat="49.80842" lon="2.38493">
        <ele>36.6</ele>
        <time>2022-07-27T07:02:39Z</time>
      </trkpt>
      <trkpt lat="49.8084" lon="2.38493">
        <ele>36.6</ele>
        <time>2022-07-27T07:02:40Z</time>
      </trkpt>
      <trkpt lat="49.8084" lon="2.38493">
        <ele>36.6</ele>
        <time>2022-07-27T07:02:41Z</time>
      </trkpt>
      <trkpt lat="49.80839" lon="2.38492">
        <ele>36.6</ele>
        <time>2022-07-27T07:02:42Z</time>
      </trkpt>
      <trkpt lat="49.80838" lon="2.38492">
        <ele>36.6</ele>
        <time>2022-07-27T07:02:43Z</time>
      </trkpt>
      <trkpt lat="49.80837" lon="2.38492">
        <ele>36.6</ele>
        <time>2022-07-27T07:02:44Z</time>
      </trkpt>
      <trkpt lat="49.80836" lon="2.38491">
        <ele>36.6</ele>
        <time>2022-07-27T07:02:45Z</time>
      </trkpt>
      <trkpt lat="49.80836" lon="2.38491">
        <ele>36.6</ele>
        <time>2022-07-27T07:02:46Z</time>
      </trkpt>
      <trkpt lat="49.80835" lon="2.38491">
        <ele>36.6</ele>
        <time>2022-07-27T07:02:47Z</time>
      </trkpt>
      <trkpt lat="49.80834" lon="2.38491">
        <ele>36.6</ele>
        <time>2022-07-27T07:02:48Z</time>
      </trkpt>
      <trkpt lat="49.80833" lon="2.3849">
        <ele>36.6</ele>
        <time>2022-07-27T07:02:49Z</time>
      </trkpt>
      <trkpt lat="49.80832" lon="2.3849">
        <ele>36.6</ele>
        <time>2022-07-27T07:02:50Z</time>
      </trkpt>
      <trkpt lat="49.80831" lon="2.38489">
        <ele>36.6</ele>
        <time>2022-07-27T07:02:51Z</time>
      </trkpt>
      <trkpt lat="49.8083" lon="2.38489">
        <ele>36.6</ele>
        <time>2022-07-27T07:02:52Z</time>
      </trkpt>
      <trkpt lat="49.80829" lon="2.38489">
        <ele>36.6</ele>
        <time>2022-07-27T07:02:53Z</time>
      </trkpt>
      <trkpt lat="49.80828" lon="2.38488">
        <ele>36.7</ele>
        <time>2022-07-27T07:02:54Z</time>
      </trkpt>
      <trkpt lat="49.80827" lon="2.38488">
        <ele>36.7</ele>
        <time>2022-07-27T07:02:55Z</time>
      </trkpt>
      <trkpt lat="49.80826" lon="2.38487">
        <ele>36.7</ele>
        <time>2022-07-27T07:02:56Z</time>
      </trkpt>
      <trkpt lat="49.80825" lon="2.38487">
        <ele>36.7</ele>
        <time>2022-07-27T07:02:57Z</time>
      </trkpt>
      <trkpt lat="49.80824" lon="2.38486">
        <ele>36.7</ele>
        <time>2022-07-27T07:02:58Z</time>
      </trkpt>
      <trkpt lat="49.80823" lon="2.38486">
        <ele>36.7</ele>
        <time>2022-07-27T07:02:59Z</time>
      </trkpt>
      <trkpt lat="49.80822" lon="2.38485">
        <ele>36.8</ele>
        <time>2022-07-27T07:03:00Z</time>
      </trkpt>
      <trkpt lat="49.80821" lon="2.38484">
        <ele>36.8</ele>
        <time>2022-07-27T07:03:01Z</time>
      </trkpt>
      <trkpt lat="49.80819" lon="2.38483">
        <ele>36.8</ele>
        <time>2022-07-27T07:03:02Z</time>
      </trkpt>
      <trkpt lat="49.80818" lon="2.38483">
        <ele>36.9</ele>
        <time>2022-07-27T07:03:03Z</time>
      </trkpt>
      <trkpt lat="49.80818" lon="2.38482">
        <ele>36.9</ele>
        <time>2022-07-27T07:03:04Z</time>
      </trkpt>
      <trkpt lat="49.80815" lon="2.38481">
        <ele>36.9</ele>
        <time>2022-07-27T07:03:05Z</time>
      </trkpt>
      <trkpt lat="49.80816" lon="2.38481">
        <ele>36.9</ele>
        <time>2022-07-27T07:03:06Z</time>
      </trkpt>
      <trkpt lat="49.80815" lon="2.38481">
        <ele>36.9</ele>
        <time>2022-07-27T07:03:07Z</time>
      </trkpt>
      <trkpt lat="49.80813" lon="2.3848">
        <ele>37</ele>
        <time>2022-07-27T07:03:08Z</time>
      </trkpt>
      <trkpt lat="49.80812" lon="2.38479">
        <ele>37</ele>
        <time>2022-07-27T07:03:09Z</time>
      </trkpt>
      <trkpt lat="49.8081" lon="2.38479">
        <ele>37.1</ele>
        <time>2022-07-27T07:03:10Z</time>
      </trkpt>
      <trkpt lat="49.80809" lon="2.38479">
        <ele>37.1</ele>
        <time>2022-07-27T07:03:11Z</time>
      </trkpt>
      <trkpt lat="49.80809" lon="2.38478">
        <ele>37.1</ele>
        <time>2022-07-27T07:03:12Z</time>
      </trkpt>
      <trkpt lat="49.80808" lon="2.38478">
        <ele>37.1</ele>
        <time>2022-07-27T07:03:13Z</time>
      </trkpt>
      <trkpt lat="49.80807" lon="2.38478">
        <ele>37.1</ele>
        <time>2022-07-27T07:03:14Z</time>
      </trkpt>
      <trkpt lat="49.80806" lon="2.38478">
        <ele>37.2</ele>
        <time>2022-07-27T07:03:15Z</time>
      </trkpt>
      <trkpt lat="49.80804" lon="2.38477">
        <ele>37.2</ele>
        <time>2022-07-27T07:03:16Z</time>
      </trkpt>
      <trkpt lat="49.80803" lon="2.38477">
        <ele>37.3</ele>
        <time>2022-07-27T07:03:17Z</time>
      </trkpt>
      <trkpt lat="49.80802" lon="2.38477">
        <ele>37.3</ele>
        <time>2022-07-27T07:03:18Z</time>
      </trkpt>
      <trkpt lat="49.80801" lon="2.38477">
        <ele>37.3</ele>
        <time>2022-07-27T07:03:19Z</time>
      </trkpt>
      <trkpt lat="49.808" lon="2.38476">
        <ele>37.4</ele>
        <time>2022-07-27T07:03:20Z</time>
      </trkpt>
      <trkpt lat="49.80799" lon="2.38476">
        <ele>37.4</ele>
        <time>2022-07-27T07:03:21Z</time>
      </trkpt>
      <trkpt lat="49.80798" lon="2.38476">
        <ele>37.5</ele>
        <time>2022-07-27T07:03:22Z</time>
      </trkpt>
      <trkpt lat="49.80796" lon="2.38476">
        <ele>37.5</ele>
        <time>2022-07-27T07:03:23Z</time>
      </trkpt>
      <trkpt lat="49.80794" lon="2.38475">
        <ele>37.6</ele>
        <time>2022-07-27T07:03:24Z</time>
      </trkpt>
      <trkpt lat="49.80794" lon="2.38475">
        <ele>37.7</ele>
        <time>2022-07-27T07:03:25Z</time>
      </trkpt>
      <trkpt lat="49.80793" lon="2.38474">
        <ele>37.7</ele>
        <time>2022-07-27T07:03:26Z</time>
      </trkpt>
      <trkpt lat="49.80791" lon="2.38474">
        <ele>37.8</ele>
        <time>2022-07-27T07:03:27Z</time>
      </trkpt>
      <trkpt lat="49.8079" lon="2.38474">
        <ele>37.8</ele>
        <time>2022-07-27T07:03:28Z</time>
      </trkpt>
      <trkpt lat="49.80789" lon="2.38474">
        <ele>37.9</ele>
        <time>2022-07-27T07:03:29Z</time>
      </trkpt>
      <trkpt lat="49.80788" lon="2.38473">
        <ele>37.9</ele>
        <time>2022-07-27T07:03:30Z</time>
      </trkpt>
      <trkpt lat="49.80787" lon="2.38473">
        <ele>38</ele>
        <time>2022-07-27T07:03:31Z</time>
      </trkpt>
      <trkpt lat="49.80786" lon="2.38473">
        <ele>38</ele>
        <time>2022-07-27T07:03:32Z</time>
      </trkpt>
      <trkpt lat="49.80785" lon="2.38473">
        <ele>38.1</ele>
        <time>2022-07-27T07:03:33Z</time>
      </trkpt>
      <trkpt lat="49.80784" lon="2.38473">
        <ele>38.1</ele>
        <time>2022-07-27T07:03:34Z</time>
      </trkpt>
      <trkpt lat="49.80783" lon="2.38472">
        <ele>38.2</ele>
        <time>2022-07-27T07:03:35Z</time>
      </trkpt>
      <trkpt lat="49.80782" lon="2.38472">
        <ele>38.2</ele>
        <time>2022-07-27T07:03:36Z</time>
      </trkpt>
      <trkpt lat="49.80782" lon="2.38471">
        <ele>38.3</ele>
        <time>2022-07-27T07:03:37Z</time>
      </trkpt>
      <trkpt lat="49.80781" lon="2.38471">
        <ele>38.3</ele>
        <time>2022-07-27T07:03:38Z</time>
      </trkpt>
      <trkpt lat="49.8078" lon="2.38471">
        <ele>38.4</ele>
        <time>2022-07-27T07:03:39Z</time>
      </trkpt>
      <trkpt lat="49.80779" lon="2.38471">
        <ele>38.4</ele>
        <time>2022-07-27T07:03:40Z</time>
      </trkpt>
      <trkpt lat="49.80778" lon="2.38471">
        <ele>38.5</ele>
        <time>2022-07-27T07:03:41Z</time>
      </trkpt>
      <trkpt lat="49.80777" lon="2.3847">
        <ele>38.5</ele>
        <time>2022-07-27T07:03:42Z</time>
      </trkpt>
      <trkpt lat="49.80776" lon="2.3847">
        <ele>38.6</ele>
        <time>2022-07-27T07:03:43Z</time>
      </trkpt>
      <trkpt lat="49.80775" lon="2.3847">
        <ele>38.7</ele>
        <time>2022-07-27T07:03:44Z</time>
      </trkpt>
      <trkpt lat="49.80774" lon="2.38469">
        <ele>38.7</ele>
        <time>2022-07-27T07:03:45Z</time>
      </trkpt>
      <trkpt lat="49.80774" lon="2.38469">
        <ele>38.8</ele>
        <time>2022-07-27T07:03:46Z</time>
      </trkpt>
      <trkpt lat="49.80773" lon="2.38469">
        <ele>38.8</ele>
        <time>2022-07-27T07:03:47Z</time>
      </trkpt>
      <trkpt lat="49.80772" lon="2.38469">
        <ele>38.9</ele>
        <time>2022-07-27T07:03:48Z</time>
      </trkpt>
      <trkpt lat="49.80771" lon="2.38469">
        <ele>38.9</ele>
        <time>2022-07-27T07:03:49Z</time>
      </trkpt>
      <trkpt lat="49.8077" lon="2.38468">
        <ele>39</ele>
        <time>2022-07-27T07:03:50Z</time>
      </trkpt>
      <trkpt lat="49.80769" lon="2.38468">
        <ele>39</ele>
        <time>2022-07-27T07:03:51Z</time>
      </trkpt>
      <trkpt lat="49.80768" lon="2.38468">
        <ele>39.1</ele>
        <time>2022-07-27T07:03:52Z</time>
      </trkpt>
      <trkpt lat="49.80766" lon="2.38468">
        <ele>39.2</ele>
        <time>2022-07-27T07:03:53Z</time>
      </trkpt>
      <trkpt lat="49.80765" lon="2.38468">
        <ele>39.3</ele>
        <time>2022-07-27T07:03:54Z</time>
      </trkpt>
      <trkpt lat="49.80764" lon="2.38467">
        <ele>39.3</ele>
        <time>2022-07-27T07:03:55Z</time>
      </trkpt>
      <trkpt lat="49.80764" lon="2.38467">
        <ele>39.4</ele>
        <time>2022-07-27T07:03:56Z</time>
      </trkpt>
      <trkpt lat="49.80763" lon="2.38467">
        <ele>39.4</ele>
        <time>2022-07-27T07:03:57Z</time>
      </trkpt>
      <trkpt lat="49.80762" lon="2.38466">
        <ele>39.5</ele>
        <time>2022-07-27T07:03:58Z</time>
      </trkpt>
      <trkpt lat="49.80761" lon="2.38466">
        <ele>39.6</ele>
        <time>2022-07-27T07:03:59Z</time>
      </trkpt>
      <trkpt lat="49.8076" lon="2.38466">
        <ele>39.6</ele>
        <time>2022-07-27T07:04:00Z</time>
      </trkpt>
      <trkpt lat="49.80758" lon="2.38466">
        <ele>39.7</ele>
        <time>2022-07-27T07:04:01Z</time>
      </trkpt>
      <trkpt lat="49.80757" lon="2.38465">
        <ele>39.8</ele>
        <time>2022-07-27T07:04:02Z</time>
      </trkpt>
      <trkpt lat="49.80756" lon="2.38465">
        <ele>39.9</ele>
        <time>2022-07-27T07:04:03Z</time>
      </trkpt>
      <trkpt lat="49.80755" lon="2.38465">
        <ele>39.9</ele>
        <time>2022-07-27T07:04:04Z</time>
      </trkpt>
      <trkpt lat="49.80754" lon="2.38465">
        <ele>40</ele>
        <time>2022-07-27T07:04:05Z</time>
      </trkpt>
      <trkpt lat="49.80752" lon="2.38465">
        <ele>40.1</ele>
        <time>2022-07-27T07:04:06Z</time>
      </trkpt>
      <trkpt lat="49.80752" lon="2.38465">
        <ele>40.1</ele>
        <time>2022-07-27T07:04:07Z</time>
      </trkpt>
      <trkpt lat="49.80751" lon="2.38464">
        <ele>40.2</ele>
        <time>2022-07-27T07:04:08Z</time>
      </trkpt>
      <trkpt lat="49.8075" lon="2.38463">
        <ele>40.2</ele>
        <time>2022-07-27T07:04:09Z</time>
      </trkpt>
      <trkpt lat="49.80749" lon="2.38463">
        <ele>40.3</ele>
        <time>2022-07-27T07:04:10Z</time>
      </trkpt>
      <trkpt lat="49.80748" lon="2.38462">
        <ele>40.3</ele>
        <time>2022-07-27T07:04:11Z</time>
      </trkpt>
      <trkpt lat="49.80747" lon="2.38461">
        <ele>40.4</ele>
        <time>2022-07-27T07:04:12Z</time>
      </trkpt>
      <trkpt lat="49.80746" lon="2.38461">
        <ele>40.5</ele>
        <time>2022-07-27T07:04:13Z</time>
      </trkpt>
      <trkpt lat="49.80745" lon="2.3846">
        <ele>40.5</ele>
        <time>2022-07-27T07:04:14Z</time>
      </trkpt>
      <trkpt lat="49.80744" lon="2.38459">
        <ele>40.5</ele>
        <time>2022-07-27T07:04:15Z</time>
      </trkpt>
      <trkpt lat="49.80743" lon="2.38458">
        <ele>40.6</ele>
        <time>2022-07-27T07:04:16Z</time>
      </trkpt>
      <trkpt lat="49.80743" lon="2.38457">
        <ele>40.6</ele>
        <time>2022-07-27T07:04:17Z</time>
      </trkpt>
      <trkpt lat="49.80742" lon="2.38457">
        <ele>40.7</ele>
        <time>2022-07-27T07:04:18Z</time>
      </trkpt>
      <trkpt lat="49.80741" lon="2.38456">
        <ele>40.7</ele>
        <time>2022-07-27T07:04:19Z</time>
      </trkpt>
      <trkpt lat="49.8074" lon="2.38455">
        <ele>40.8</ele>
        <time>2022-07-27T07:04:20Z</time>
      </trkpt>
      <trkpt lat="49.80739" lon="2.38452">
        <ele>40.9</ele>
        <time>2022-07-27T07:04:21Z</time>
      </trkpt>
      <trkpt lat="49.80738" lon="2.38451">
        <ele>40.9</ele>
        <time>2022-07-27T07:04:22Z</time>
      </trkpt>
      <trkpt lat="49.80738" lon="2.3845">
        <ele>41</ele>
        <time>2022-07-27T07:04:23Z</time>
      </trkpt>
      <trkpt lat="49.80737" lon="2.38449">
        <ele>41</ele>
        <time>2022-07-27T07:04:24Z</time>
      </trkpt>
      <trkpt lat="49.80736" lon="2.38447">
        <ele>41.1</ele>
        <time>2022-07-27T07:04:25Z</time>
      </trkpt>
      <trkpt lat="49.80735" lon="2.38446">
        <ele>41.1</ele>
        <time>2022-07-27T07:04:26Z</time>
      </trkpt>
      <trkpt lat="49.80735" lon="2.38445">
        <ele>41.2</ele>
        <time>2022-07-27T07:04:27Z</time>
      </trkpt>
      <trkpt lat="49.80734" lon="2.38444">
        <ele>41.2</ele>
        <time>2022-07-27T07:04:28Z</time>
      </trkpt>
      <trkpt lat="49.80733" lon="2.38442">
        <ele>41.3</ele>
        <time>2022-07-27T07:04:29Z</time>
      </trkpt>
      <trkpt lat="49.80733" lon="2.38441">
        <ele>41.3</ele>
        <time>2022-07-27T07:04:30Z</time>
      </trkpt>
      <trkpt lat="49.80732" lon="2.38439">
        <ele>41.4</ele>
        <time>2022-07-27T07:04:31Z</time>
      </trkpt>
      <trkpt lat="49.80732" lon="2.38438">
        <ele>41.4</ele>
        <time>2022-07-27T07:04:32Z</time>
      </trkpt>
      <trkpt lat="49.80732" lon="2.38436">
        <ele>41.6</ele>
        <time>2022-07-27T07:04:33Z</time>
      </trkpt>
      <trkpt lat="49.80731" lon="2.38433">
        <ele>41.6</ele>
        <time>2022-07-27T07:04:34Z</time>
      </trkpt>
      <trkpt lat="49.80731" lon="2.38431">
        <ele>41.6</ele>
        <time>2022-07-27T07:04:35Z</time>
      </trkpt>
      <trkpt lat="49.80731" lon="2.3843">
        <ele>41.6</ele>
        <time>2022-07-27T07:04:36Z</time>
      </trkpt>
      <trkpt lat="49.80731" lon="2.38429">
        <ele>41.6</ele>
        <time>2022-07-27T07:04:37Z</time>
      </trkpt>
      <trkpt lat="49.80731" lon="2.38428">
        <ele>41.7</ele>
        <time>2022-07-27T07:04:38Z</time>
      </trkpt>
      <trkpt lat="49.8073" lon="2.38427">
        <ele>41.7</ele>
        <time>2022-07-27T07:04:39Z</time>
      </trkpt>
      <trkpt lat="49.8073" lon="2.38425">
        <ele>41.7</ele>
        <time>2022-07-27T07:04:40Z</time>
      </trkpt>
      <trkpt lat="49.8073" lon="2.38423">
        <ele>41.7</ele>
        <time>2022-07-27T07:04:41Z</time>
      </trkpt>
      <trkpt lat="49.80729" lon="2.38423">
        <ele>41.7</ele>
        <time>2022-07-27T07:04:42Z</time>
      </trkpt>
      <trkpt lat="49.80729" lon="2.38421">
        <ele>41.7</ele>
        <time>2022-07-27T07:04:43Z</time>
      </trkpt>
      <trkpt lat="49.80729" lon="2.3842">
        <ele>41.7</ele>
        <time>2022-07-27T07:04:44Z</time>
      </trkpt>
      <trkpt lat="49.80728" lon="2.38419">
        <ele>41.7</ele>
        <time>2022-07-27T07:04:45Z</time>
      </trkpt>
      <trkpt lat="49.80727" lon="2.38417">
        <ele>41.7</ele>
        <time>2022-07-27T07:04:46Z</time>
      </trkpt>
      <trkpt lat="49.80727" lon="2.38416">
        <ele>41.7</ele>
        <time>2022-07-27T07:04:47Z</time>
      </trkpt>
      <trkpt lat="49.80727" lon="2.38415">
        <ele>41.8</ele>
        <time>2022-07-27T07:04:48Z</time>
      </trkpt>
      <trkpt lat="49.80726" lon="2.38414">
        <ele>41.8</ele>
        <time>2022-07-27T07:04:49Z</time>
      </trkpt>
      <trkpt lat="49.80726" lon="2.38413">
        <ele>41.8</ele>
        <time>2022-07-27T07:04:50Z</time>
      </trkpt>
      <trkpt lat="49.80726" lon="2.38412">
        <ele>41.8</ele>
        <time>2022-07-27T07:04:51Z</time>
      </trkpt>
      <trkpt lat="49.80725" lon="2.38411">
        <ele>41.8</ele>
        <time>2022-07-27T07:04:52Z</time>
      </trkpt>
      <trkpt lat="49.80725" lon="2.38409">
        <ele>41.8</ele>
        <time>2022-07-27T07:04:53Z</time>
      </trkpt>
      <trkpt lat="49.80725" lon="2.38408">
        <ele>41.8</ele>
        <time>2022-07-27T07:04:54Z</time>
      </trkpt>
      <trkpt lat="49.80724" lon="2.38407">
        <ele>41.8</ele>
        <time>2022-07-27T07:04:55Z</time>
      </trkpt>
      <trkpt lat="49.80723" lon="2.38405">
        <ele>41.9</ele>
        <time>2022-07-27T07:04:56Z</time>
      </trkpt>
      <trkpt lat="49.80722" lon="2.38404">
        <ele>41.9</ele>
        <time>2022-07-27T07:04:57Z</time>
      </trkpt>
      <trkpt lat="49.80722" lon="2.38403">
        <ele>41.9</ele>
        <time>2022-07-27T07:04:58Z</time>
      </trkpt>
      <trkpt lat="49.80721" lon="2.38402">
        <ele>41.9</ele>
        <time>2022-07-27T07:04:59Z</time>
      </trkpt>
      <trkpt lat="49.80721" lon="2.38401">
        <ele>41.9</ele>
        <time>2022-07-27T07:05:00Z</time>
      </trkpt>
      <trkpt lat="49.80719" lon="2.38398">
        <ele>41.9</ele>
        <time>2022-07-27T07:05:01Z</time>
      </trkpt>
      <trkpt lat="49.80719" lon="2.38398">
        <ele>41.9</ele>
        <time>2022-07-27T07:05:02Z</time>
      </trkpt>
      <trkpt lat="49.80719" lon="2.38397">
        <ele>42</ele>
        <time>2022-07-27T07:05:03Z</time>
      </trkpt>
      <trkpt lat="49.80718" lon="2.38395">
        <ele>42</ele>
        <time>2022-07-27T07:05:04Z</time>
      </trkpt>
      <trkpt lat="49.80718" lon="2.38394">
        <ele>42</ele>
        <time>2022-07-27T07:05:05Z</time>
      </trkpt>
      <trkpt lat="49.80717" lon="2.38392">
        <ele>42</ele>
        <time>2022-07-27T07:05:06Z</time>
      </trkpt>
      <trkpt lat="49.80716" lon="2.3839">
        <ele>42</ele>
        <time>2022-07-27T07:05:07Z</time>
      </trkpt>
      <trkpt lat="49.80715" lon="2.38388">
        <ele>42.1</ele>
        <time>2022-07-27T07:05:08Z</time>
      </trkpt>
      <trkpt lat="49.80715" lon="2.38387">
        <ele>42.1</ele>
        <time>2022-07-27T07:05:09Z</time>
      </trkpt>
      <trkpt lat="49.80714" lon="2.38386">
        <ele>42.1</ele>
        <time>2022-07-27T07:05:10Z</time>
      </trkpt>
      <trkpt lat="49.80713" lon="2.38384">
        <ele>42.1</ele>
        <time>2022-07-27T07:05:11Z</time>
      </trkpt>
      <trkpt lat="49.80712" lon="2.38382">
        <ele>42.1</ele>
        <time>2022-07-27T07:05:12Z</time>
      </trkpt>
      <trkpt lat="49.80711" lon="2.38382">
        <ele>42.1</ele>
        <time>2022-07-27T07:05:13Z</time>
      </trkpt>
      <trkpt lat="49.80711" lon="2.38381">
        <ele>42.1</ele>
        <time>2022-07-27T07:05:14Z</time>
      </trkpt>
      <trkpt lat="49.8071" lon="2.3838">
        <ele>42.1</ele>
        <time>2022-07-27T07:05:15Z</time>
      </trkpt>
      <trkpt lat="49.80709" lon="2.3838">
        <ele>42.2</ele>
        <time>2022-07-27T07:05:16Z</time>
      </trkpt>
      <trkpt lat="49.80708" lon="2.38379">
        <ele>42.2</ele>
        <time>2022-07-27T07:05:17Z</time>
      </trkpt>
      <trkpt lat="49.80707" lon="2.38379">
        <ele>42.2</ele>
        <time>2022-07-27T07:05:18Z</time>
      </trkpt>
      <trkpt lat="49.80704" lon="2.38378">
        <ele>42.2</ele>
        <time>2022-07-27T07:05:19Z</time>
      </trkpt>
      <trkpt lat="49.80703" lon="2.38378">
        <ele>42.2</ele>
        <time>2022-07-27T07:05:20Z</time>
      </trkpt>
      <trkpt lat="49.80702" lon="2.38378">
        <ele>42.3</ele>
        <time>2022-07-27T07:05:21Z</time>
      </trkpt>
      <trkpt lat="49.80701" lon="2.38378">
        <ele>42.4</ele>
        <time>2022-07-27T07:05:22Z</time>
      </trkpt>
      <trkpt lat="49.807" lon="2.38378">
        <ele>42.4</ele>
        <time>2022-07-27T07:05:23Z</time>
      </trkpt>
      <trkpt lat="49.80699" lon="2.38378">
        <ele>42.4</ele>
        <time>2022-07-27T07:05:24Z</time>
      </trkpt>
      <trkpt lat="49.80699" lon="2.38379">
        <ele>42.5</ele>
        <time>2022-07-27T07:05:25Z</time>
      </trkpt>
      <trkpt lat="49.80697" lon="2.3838">
        <ele>42.5</ele>
        <time>2022-07-27T07:05:26Z</time>
      </trkpt>
      <trkpt lat="49.80696" lon="2.3838">
        <ele>42.6</ele>
        <time>2022-07-27T07:05:27Z</time>
      </trkpt>
      <trkpt lat="49.80695" lon="2.3838">
        <ele>42.6</ele>
        <time>2022-07-27T07:05:28Z</time>
      </trkpt>
      <trkpt lat="49.80693" lon="2.3838">
        <ele>43</ele>
        <time>2022-07-27T07:05:29Z</time>
      </trkpt>
      <trkpt lat="49.80692" lon="2.3838">
        <ele>43.1</ele>
        <time>2022-07-27T07:05:30Z</time>
      </trkpt>
      <trkpt lat="49.80691" lon="2.38379">
        <ele>43.2</ele>
        <time>2022-07-27T07:05:31Z</time>
      </trkpt>
      <trkpt lat="49.80691" lon="2.38379">
        <ele>43.2</ele>
        <time>2022-07-27T07:05:32Z</time>
      </trkpt>
      <trkpt lat="49.8069" lon="2.38378">
        <ele>43.3</ele>
        <time>2022-07-27T07:05:33Z</time>
      </trkpt>
      <trkpt lat="49.80689" lon="2.38377">
        <ele>43.4</ele>
        <time>2022-07-27T07:05:34Z</time>
      </trkpt>
      <trkpt lat="49.80688" lon="2.38377">
        <ele>43.4</ele>
        <time>2022-07-27T07:05:35Z</time>
      </trkpt>
      <trkpt lat="49.80687" lon="2.38374">
        <ele>43.6</ele>
        <time>2022-07-27T07:05:36Z</time>
      </trkpt>
      <trkpt lat="49.80686" lon="2.38374">
        <ele>43.6</ele>
        <time>2022-07-27T07:05:37Z</time>
      </trkpt>
      <trkpt lat="49.80686" lon="2.38373">
        <ele>43.6</ele>
        <time>2022-07-27T07:05:38Z</time>
      </trkpt>
      <trkpt lat="49.80684" lon="2.38372">
        <ele>43.8</ele>
        <time>2022-07-27T07:05:39Z</time>
      </trkpt>
      <trkpt lat="49.80684" lon="2.38371">
        <ele>43.9</ele>
        <time>2022-07-27T07:05:40Z</time>
      </trkpt>
      <trkpt lat="49.80683" lon="2.3837">
        <ele>43.9</ele>
        <time>2022-07-27T07:05:41Z</time>
      </trkpt>
      <trkpt lat="49.80683" lon="2.3837">
        <ele>43.9</ele>
        <time>2022-07-27T07:05:42Z</time>
      </trkpt>
      <trkpt lat="49.80682" lon="2.38369">
        <ele>44</ele>
        <time>2022-07-27T07:05:43Z</time>
      </trkpt>
      <trkpt lat="49.80682" lon="2.38368">
        <ele>44.1</ele>
        <time>2022-07-27T07:05:44Z</time>
      </trkpt>
      <trkpt lat="49.80681" lon="2.38367">
        <ele>44.2</ele>
        <time>2022-07-27T07:05:45Z</time>
      </trkpt>
      <trkpt lat="49.80678" lon="2.38364">
        <ele>44.4</ele>
        <time>2022-07-27T07:05:46Z</time>
      </trkpt>
      <trkpt lat="49.80678" lon="2.38363">
        <ele>44.5</ele>
        <time>2022-07-27T07:05:47Z</time>
      </trkpt>
      <trkpt lat="49.80677" lon="2.38362">
        <ele>44.5</ele>
        <time>2022-07-27T07:05:48Z</time>
      </trkpt>
      <trkpt lat="49.80676" lon="2.38361">
        <ele>44.6</ele>
        <time>2022-07-27T07:05:49Z</time>
      </trkpt>
      <trkpt lat="49.80675" lon="2.3836">
        <ele>44.7</ele>
        <time>2022-07-27T07:05:50Z</time>
      </trkpt>
      <trkpt lat="49.80674" lon="2.38359">
        <ele>44.8</ele>
        <time>2022-07-27T07:05:51Z</time>
      </trkpt>
      <trkpt lat="49.80674" lon="2.38359">
        <ele>44.8</ele>
        <time>2022-07-27T07:05:52Z</time>
      </trkpt>
      <trkpt lat="49.80674" lon="2.38358">
        <ele>44.9</ele>
        <time>2022-07-27T07:05:53Z</time>
      </trkpt>
      <trkpt lat="49.80673" lon="2.38357">
        <ele>45</ele>
        <time>2022-07-27T07:05:54Z</time>
      </trkpt>
      <trkpt lat="49.80672" lon="2.38356">
        <ele>45.1</ele>
        <time>2022-07-27T07:05:55Z</time>
      </trkpt>
      <trkpt lat="49.8067" lon="2.38354">
        <ele>45.2</ele>
        <time>2022-07-27T07:05:56Z</time>
      </trkpt>
      <trkpt lat="49.8067" lon="2.38354">
        <ele>45.3</ele>
        <time>2022-07-27T07:05:57Z</time>
      </trkpt>
      <trkpt lat="49.80669" lon="2.38353">
        <ele>45.3</ele>
        <time>2022-07-27T07:05:58Z</time>
      </trkpt>
      <trkpt lat="49.80668" lon="2.38351">
        <ele>45.5</ele>
        <time>2022-07-27T07:05:59Z</time>
      </trkpt>
      <trkpt lat="49.80667" lon="2.3835">
        <ele>45.6</ele>
        <time>2022-07-27T07:06:00Z</time>
      </trkpt>
      <trkpt lat="49.80666" lon="2.38349">
        <ele>45.7</ele>
        <time>2022-07-27T07:06:01Z</time>
      </trkpt>
      <trkpt lat="49.80666" lon="2.38348">
        <ele>45.7</ele>
        <time>2022-07-27T07:06:02Z</time>
      </trkpt>
      <trkpt lat="49.80665" lon="2.38347">
        <ele>45.8</ele>
        <time>2022-07-27T07:06:03Z</time>
      </trkpt>
      <trkpt lat="49.80664" lon="2.38346">
        <ele>45.9</ele>
        <time>2022-07-27T07:06:04Z</time>
      </trkpt>
      <trkpt lat="49.80663" lon="2.38344">
        <ele>46</ele>
        <time>2022-07-27T07:06:05Z</time>
      </trkpt>
      <trkpt lat="49.80662" lon="2.38343">
        <ele>46.1</ele>
        <time>2022-07-27T07:06:06Z</time>
      </trkpt>
      <trkpt lat="49.80662" lon="2.38342">
        <ele>46.2</ele>
        <time>2022-07-27T07:06:07Z</time>
      </trkpt>
      <trkpt lat="49.80661" lon="2.38341">
        <ele>46.3</ele>
        <time>2022-07-27T07:06:08Z</time>
      </trkpt>
      <trkpt lat="49.80661" lon="2.3834">
        <ele>46.3</ele>
        <time>2022-07-27T07:06:09Z</time>
      </trkpt>
      <trkpt lat="49.8066" lon="2.38339">
        <ele>46.4</ele>
        <time>2022-07-27T07:06:10Z</time>
      </trkpt>
      <trkpt lat="49.80658" lon="2.38336">
        <ele>46.6</ele>
        <time>2022-07-27T07:06:11Z</time>
      </trkpt>
      <trkpt lat="49.80658" lon="2.38335">
        <ele>46.6</ele>
        <time>2022-07-27T07:06:12Z</time>
      </trkpt>
      <trkpt lat="49.80657" lon="2.38335">
        <ele>46.7</ele>
        <time>2022-07-27T07:06:13Z</time>
      </trkpt>
      <trkpt lat="49.80657" lon="2.38334">
        <ele>46.8</ele>
        <time>2022-07-27T07:06:14Z</time>
      </trkpt>
      <trkpt lat="49.80656" lon="2.38333">
        <ele>46.9</ele>
        <time>2022-07-27T07:06:15Z</time>
      </trkpt>
      <trkpt lat="49.80656" lon="2.38332">
        <ele>46.9</ele>
        <time>2022-07-27T07:06:16Z</time>
      </trkpt>
      <trkpt lat="49.80655" lon="2.38331">
        <ele>47</ele>
        <time>2022-07-27T07:06:17Z</time>
      </trkpt>
      <trkpt lat="49.80653" lon="2.38328">
        <ele>47.2</ele>
        <time>2022-07-27T07:06:20Z</time>
      </trkpt>
      <trkpt lat="49.80652" lon="2.38327">
        <ele>47.3</ele>
        <time>2022-07-27T07:06:21Z</time>
      </trkpt>
      <trkpt lat="49.80651" lon="2.38326">
        <ele>47.3</ele>
        <time>2022-07-27T07:06:22Z</time>
      </trkpt>
      <trkpt lat="49.8065" lon="2.38325">
        <ele>47.4</ele>
        <time>2022-07-27T07:06:23Z</time>
      </trkpt>
      <trkpt lat="49.8065" lon="2.38324">
        <ele>47.5</ele>
        <time>2022-07-27T07:06:24Z</time>
      </trkpt>
      <trkpt lat="49.80649" lon="2.38323">
        <ele>47.5</ele>
        <time>2022-07-27T07:06:25Z</time>
      </trkpt>
      <trkpt lat="49.80648" lon="2.38322">
        <ele>47.6</ele>
        <time>2022-07-27T07:06:26Z</time>
      </trkpt>
      <trkpt lat="49.80647" lon="2.38321">
        <ele>47.7</ele>
        <time>2022-07-27T07:06:27Z</time>
      </trkpt>
      <trkpt lat="49.80645" lon="2.38319">
        <ele>47.8</ele>
        <time>2022-07-27T07:06:28Z</time>
      </trkpt>
      <trkpt lat="49.80645" lon="2.38318">
        <ele>47.9</ele>
        <time>2022-07-27T07:06:29Z</time>
      </trkpt>
      <trkpt lat="49.80644" lon="2.38317">
        <ele>48</ele>
        <time>2022-07-27T07:06:31Z</time>
      </trkpt>
      <trkpt lat="49.80643" lon="2.38315">
        <ele>48</ele>
        <time>2022-07-27T07:06:32Z</time>
      </trkpt>
      <trkpt lat="49.80642" lon="2.38314">
        <ele>48.1</ele>
        <time>2022-07-27T07:06:33Z</time>
      </trkpt>
      <trkpt lat="49.8064" lon="2.38313">
        <ele>48.2</ele>
        <time>2022-07-27T07:06:34Z</time>
      </trkpt>
      <trkpt lat="49.8064" lon="2.38312">
        <ele>48.2</ele>
        <time>2022-07-27T07:06:35Z</time>
      </trkpt>
      <trkpt lat="49.80639" lon="2.38311">
        <ele>48.3</ele>
        <time>2022-07-27T07:06:36Z</time>
      </trkpt>
      <trkpt lat="49.80638" lon="2.38309">
        <ele>48.4</ele>
        <time>2022-07-27T07:06:37Z</time>
      </trkpt>
      <trkpt lat="49.80637" lon="2.38308">
        <ele>48.4</ele>
        <time>2022-07-27T07:06:38Z</time>
      </trkpt>
      <trkpt lat="49.80636" lon="2.38308">
        <ele>48.5</ele>
        <time>2022-07-27T07:06:39Z</time>
      </trkpt>
      <trkpt lat="49.80636" lon="2.38307">
        <ele>48.5</ele>
        <time>2022-07-27T07:06:40Z</time>
      </trkpt>
      <trkpt lat="49.80635" lon="2.38306">
        <ele>48.6</ele>
        <time>2022-07-27T07:06:41Z</time>
      </trkpt>
      <trkpt lat="49.80634" lon="2.38304">
        <ele>48.7</ele>
        <time>2022-07-27T07:06:42Z</time>
      </trkpt>
      <trkpt lat="49.80633" lon="2.38303">
        <ele>48.7</ele>
        <time>2022-07-27T07:06:43Z</time>
      </trkpt>
      <trkpt lat="49.80631" lon="2.38301">
        <ele>48.8</ele>
        <time>2022-07-27T07:06:44Z</time>
      </trkpt>
      <trkpt lat="49.80631" lon="2.38301">
        <ele>48.9</ele>
        <time>2022-07-27T07:06:45Z</time>
      </trkpt>
      <trkpt lat="49.8063" lon="2.383">
        <ele>48.9</ele>
        <time>2022-07-27T07:06:46Z</time>
      </trkpt>
      <trkpt lat="49.80629" lon="2.38299">
        <ele>49</ele>
        <time>2022-07-27T07:06:47Z</time>
      </trkpt>
      <trkpt lat="49.80628" lon="2.38298">
        <ele>49</ele>
        <time>2022-07-27T07:06:48Z</time>
      </trkpt>
      <trkpt lat="49.80628" lon="2.38296">
        <ele>49.1</ele>
        <time>2022-07-27T07:06:49Z</time>
      </trkpt>
      <trkpt lat="49.80627" lon="2.38295">
        <ele>49.1</ele>
        <time>2022-07-27T07:06:50Z</time>
      </trkpt>
      <trkpt lat="49.80626" lon="2.38294">
        <ele>49.2</ele>
        <time>2022-07-27T07:06:51Z</time>
      </trkpt>
      <trkpt lat="49.80625" lon="2.38293">
        <ele>49.3</ele>
        <time>2022-07-27T07:06:52Z</time>
      </trkpt>
      <trkpt lat="49.80624" lon="2.38292">
        <ele>49.3</ele>
        <time>2022-07-27T07:06:53Z</time>
      </trkpt>
      <trkpt lat="49.80623" lon="2.3829">
        <ele>49.4</ele>
        <time>2022-07-27T07:06:54Z</time>
      </trkpt>
      <trkpt lat="49.80622" lon="2.38289">
        <ele>49.5</ele>
        <time>2022-07-27T07:06:55Z</time>
      </trkpt>
      <trkpt lat="49.80622" lon="2.38288">
        <ele>49.5</ele>
        <time>2022-07-27T07:06:56Z</time>
      </trkpt>
      <trkpt lat="49.8062" lon="2.38285">
        <ele>49.6</ele>
        <time>2022-07-27T07:06:57Z</time>
      </trkpt>
      <trkpt lat="49.80619" lon="2.38283">
        <ele>49.7</ele>
        <time>2022-07-27T07:06:58Z</time>
      </trkpt>
      <trkpt lat="49.80618" lon="2.38281">
        <ele>49.8</ele>
        <time>2022-07-27T07:06:59Z</time>
      </trkpt>
      <trkpt lat="49.80618" lon="2.38281">
        <ele>49.8</ele>
        <time>2022-07-27T07:07:00Z</time>
      </trkpt>
      <trkpt lat="49.80617" lon="2.3828">
        <ele>49.8</ele>
        <time>2022-07-27T07:07:01Z</time>
      </trkpt>
      <trkpt lat="49.80616" lon="2.38279">
        <ele>49.9</ele>
        <time>2022-07-27T07:07:02Z</time>
      </trkpt>
      <trkpt lat="49.80616" lon="2.38279">
        <ele>49.9</ele>
        <time>2022-07-27T07:07:03Z</time>
      </trkpt>
      <trkpt lat="49.80615" lon="2.38277">
        <ele>50</ele>
        <time>2022-07-27T07:07:04Z</time>
      </trkpt>
      <trkpt lat="49.80614" lon="2.38276">
        <ele>50</ele>
        <time>2022-07-27T07:07:05Z</time>
      </trkpt>
      <trkpt lat="49.80613" lon="2.38275">
        <ele>50.1</ele>
        <time>2022-07-27T07:07:06Z</time>
      </trkpt>
      <trkpt lat="49.80612" lon="2.38273">
        <ele>50.2</ele>
        <time>2022-07-27T07:07:07Z</time>
      </trkpt>
      <trkpt lat="49.80611" lon="2.38272">
        <ele>50.2</ele>
        <time>2022-07-27T07:07:08Z</time>
      </trkpt>
      <trkpt lat="49.80611" lon="2.38271">
        <ele>50.3</ele>
        <time>2022-07-27T07:07:09Z</time>
      </trkpt>
      <trkpt lat="49.8061" lon="2.38269">
        <ele>50.3</ele>
        <time>2022-07-27T07:07:11Z</time>
      </trkpt>
      <trkpt lat="49.80608" lon="2.38267">
        <ele>50.4</ele>
        <time>2022-07-27T07:07:12Z</time>
      </trkpt>
      <trkpt lat="49.80608" lon="2.38265">
        <ele>50.5</ele>
        <time>2022-07-27T07:07:13Z</time>
      </trkpt>
      <trkpt lat="49.80606" lon="2.38263">
        <ele>50.5</ele>
        <time>2022-07-27T07:07:14Z</time>
      </trkpt>
      <trkpt lat="49.80605" lon="2.38263">
        <ele>50.6</ele>
        <time>2022-07-27T07:07:15Z</time>
      </trkpt>
      <trkpt lat="49.80605" lon="2.38262">
        <ele>50.6</ele>
        <time>2022-07-27T07:07:16Z</time>
      </trkpt>
      <trkpt lat="49.80604" lon="2.38261">
        <ele>50.7</ele>
        <time>2022-07-27T07:07:17Z</time>
      </trkpt>
      <trkpt lat="49.80603" lon="2.3826">
        <ele>50.7</ele>
        <time>2022-07-27T07:07:18Z</time>
      </trkpt>
      <trkpt lat="49.80602" lon="2.38259">
        <ele>50.8</ele>
        <time>2022-07-27T07:07:19Z</time>
      </trkpt>
      <trkpt lat="49.80601" lon="2.38258">
        <ele>50.8</ele>
        <time>2022-07-27T07:07:20Z</time>
      </trkpt>
      <trkpt lat="49.806" lon="2.38257">
        <ele>50.8</ele>
        <time>2022-07-27T07:07:21Z</time>
      </trkpt>
      <trkpt lat="49.806" lon="2.38256">
        <ele>50.9</ele>
        <time>2022-07-27T07:07:22Z</time>
      </trkpt>
      <trkpt lat="49.80599" lon="2.38255">
        <ele>50.9</ele>
        <time>2022-07-27T07:07:23Z</time>
      </trkpt>
      <trkpt lat="49.80597" lon="2.38252">
        <ele>51</ele>
        <time>2022-07-27T07:07:24Z</time>
      </trkpt>
      <trkpt lat="49.80596" lon="2.38251">
        <ele>51</ele>
        <time>2022-07-27T07:07:25Z</time>
      </trkpt>
      <trkpt lat="49.80596" lon="2.38251">
        <ele>51.1</ele>
        <time>2022-07-27T07:07:26Z</time>
      </trkpt>
      <trkpt lat="49.80594" lon="2.38248">
        <ele>51.2</ele>
        <time>2022-07-27T07:07:27Z</time>
      </trkpt>
      <trkpt lat="49.80593" lon="2.38247">
        <ele>51.2</ele>
        <time>2022-07-27T07:07:28Z</time>
      </trkpt>
      <trkpt lat="49.80592" lon="2.38245">
        <ele>51.2</ele>
        <time>2022-07-27T07:07:29Z</time>
      </trkpt>
      <trkpt lat="49.80592" lon="2.38245">
        <ele>51.3</ele>
        <time>2022-07-27T07:07:30Z</time>
      </trkpt>
      <trkpt lat="49.80591" lon="2.38244">
        <ele>51.3</ele>
        <time>2022-07-27T07:07:31Z</time>
      </trkpt>
      <trkpt lat="49.8059" lon="2.38243">
        <ele>51.3</ele>
        <time>2022-07-27T07:07:32Z</time>
      </trkpt>
      <trkpt lat="49.80589" lon="2.38242">
        <ele>51.3</ele>
        <time>2022-07-27T07:07:33Z</time>
      </trkpt>
      <trkpt lat="49.80588" lon="2.38241">
        <ele>51.4</ele>
        <time>2022-07-27T07:07:34Z</time>
      </trkpt>
      <trkpt lat="49.80588" lon="2.3824">
        <ele>51.4</ele>
        <time>2022-07-27T07:07:35Z</time>
      </trkpt>
      <trkpt lat="49.80587" lon="2.38239">
        <ele>51.4</ele>
        <time>2022-07-27T07:07:36Z</time>
      </trkpt>
      <trkpt lat="49.80584" lon="2.38235">
        <ele>51.6</ele>
        <time>2022-07-27T07:07:38Z</time>
      </trkpt>
      <trkpt lat="49.80584" lon="2.38235">
        <ele>51.6</ele>
        <time>2022-07-27T07:07:39Z</time>
      </trkpt>
      <trkpt lat="49.80583" lon="2.38233">
        <ele>51.6</ele>
        <time>2022-07-27T07:07:41Z</time>
      </trkpt>
      <trkpt lat="49.80582" lon="2.38232">
        <ele>51.7</ele>
        <time>2022-07-27T07:07:42Z</time>
      </trkpt>
      <trkpt lat="49.80581" lon="2.38231">
        <ele>51.7</ele>
        <time>2022-07-27T07:07:43Z</time>
      </trkpt>
      <trkpt lat="49.8058" lon="2.3823">
        <ele>51.7</ele>
        <time>2022-07-27T07:07:44Z</time>
      </trkpt>
      <trkpt lat="49.80579" lon="2.38228">
        <ele>51.8</ele>
        <time>2022-07-27T07:07:45Z</time>
      </trkpt>
      <trkpt lat="49.80578" lon="2.38227">
        <ele>51.8</ele>
        <time>2022-07-27T07:07:46Z</time>
      </trkpt>
      <trkpt lat="49.80577" lon="2.38226">
        <ele>51.8</ele>
        <time>2022-07-27T07:07:47Z</time>
      </trkpt>
      <trkpt lat="49.80577" lon="2.38225">
        <ele>51.9</ele>
        <time>2022-07-27T07:07:48Z</time>
      </trkpt>
      <trkpt lat="49.80575" lon="2.38222">
        <ele>52</ele>
        <time>2022-07-27T07:07:49Z</time>
      </trkpt>
      <trkpt lat="49.80575" lon="2.38222">
        <ele>52</ele>
        <time>2022-07-27T07:07:50Z</time>
      </trkpt>
      <trkpt lat="49.80574" lon="2.38221">
        <ele>52</ele>
        <time>2022-07-27T07:07:51Z</time>
      </trkpt>
      <trkpt lat="49.80573" lon="2.38219">
        <ele>52.1</ele>
        <time>2022-07-27T07:07:52Z</time>
      </trkpt>
      <trkpt lat="49.80572" lon="2.38218">
        <ele>52.1</ele>
        <time>2022-07-27T07:07:53Z</time>
      </trkpt>
      <trkpt lat="49.80571" lon="2.38217">
        <ele>52.1</ele>
        <time>2022-07-27T07:07:54Z</time>
      </trkpt>
      <trkpt lat="49.80571" lon="2.38216">
        <ele>52.1</ele>
        <time>2022-07-27T07:07:55Z</time>
      </trkpt>
      <trkpt lat="49.8057" lon="2.38216">
        <ele>52.2</ele>
        <time>2022-07-27T07:07:56Z</time>
      </trkpt>
      <trkpt lat="49.8057" lon="2.38215">
        <ele>52.2</ele>
        <time>2022-07-27T07:07:57Z</time>
      </trkpt>
      <trkpt lat="49.80569" lon="2.38213">
        <ele>52.2</ele>
        <time>2022-07-27T07:07:58Z</time>
      </trkpt>
      <trkpt lat="49.80567" lon="2.38211">
        <ele>52.3</ele>
        <time>2022-07-27T07:07:59Z</time>
      </trkpt>
      <trkpt lat="49.80567" lon="2.3821">
        <ele>52.3</ele>
        <time>2022-07-27T07:08:00Z</time>
      </trkpt>
      <trkpt lat="49.80566" lon="2.3821">
        <ele>52.4</ele>
        <time>2022-07-27T07:08:01Z</time>
      </trkpt>
      <trkpt lat="49.80564" lon="2.38207">
        <ele>52.4</ele>
        <time>2022-07-27T07:08:02Z</time>
      </trkpt>
      <trkpt lat="49.80564" lon="2.38207">
        <ele>52.5</ele>
        <time>2022-07-27T07:08:03Z</time>
      </trkpt>
      <trkpt lat="49.80563" lon="2.38206">
        <ele>52.5</ele>
        <time>2022-07-27T07:08:04Z</time>
      </trkpt>
      <trkpt lat="49.80561" lon="2.38204">
        <ele>52.6</ele>
        <time>2022-07-27T07:08:05Z</time>
      </trkpt>
      <trkpt lat="49.80561" lon="2.38203">
        <ele>52.6</ele>
        <time>2022-07-27T07:08:06Z</time>
      </trkpt>
      <trkpt lat="49.8056" lon="2.38202">
        <ele>52.6</ele>
        <time>2022-07-27T07:08:07Z</time>
      </trkpt>
      <trkpt lat="49.80558" lon="2.382">
        <ele>52.7</ele>
        <time>2022-07-27T07:08:08Z</time>
      </trkpt>
      <trkpt lat="49.80557" lon="2.38199">
        <ele>52.7</ele>
        <time>2022-07-27T07:08:09Z</time>
      </trkpt>
      <trkpt lat="49.80557" lon="2.38198">
        <ele>52.8</ele>
        <time>2022-07-27T07:08:10Z</time>
      </trkpt>
      <trkpt lat="49.80555" lon="2.38195">
        <ele>52.9</ele>
        <time>2022-07-27T07:08:11Z</time>
      </trkpt>
      <trkpt lat="49.80553" lon="2.38194">
        <ele>52.9</ele>
        <time>2022-07-27T07:08:13Z</time>
      </trkpt>
      <trkpt lat="49.80552" lon="2.38192">
        <ele>53</ele>
        <time>2022-07-27T07:08:14Z</time>
      </trkpt>
      <trkpt lat="49.80552" lon="2.38191">
        <ele>53</ele>
        <time>2022-07-27T07:08:15Z</time>
      </trkpt>
      <trkpt lat="49.80551" lon="2.3819">
        <ele>53</ele>
        <time>2022-07-27T07:08:16Z</time>
      </trkpt>
      <trkpt lat="49.8055" lon="2.38189">
        <ele>53</ele>
        <time>2022-07-27T07:08:17Z</time>
      </trkpt>
      <trkpt lat="49.8055" lon="2.38188">
        <ele>53.1</ele>
        <time>2022-07-27T07:08:18Z</time>
      </trkpt>
      <trkpt lat="49.80549" lon="2.38187">
        <ele>53.1</ele>
        <time>2022-07-27T07:08:19Z</time>
      </trkpt>
      <trkpt lat="49.80547" lon="2.38185">
        <ele>53.2</ele>
        <time>2022-07-27T07:08:20Z</time>
      </trkpt>
      <trkpt lat="49.80547" lon="2.38184">
        <ele>53.2</ele>
        <time>2022-07-27T07:08:21Z</time>
      </trkpt>
      <trkpt lat="49.80546" lon="2.38183">
        <ele>53.2</ele>
        <time>2022-07-27T07:08:22Z</time>
      </trkpt>
      <trkpt lat="49.80544" lon="2.38181">
        <ele>53.3</ele>
        <time>2022-07-27T07:08:23Z</time>
      </trkpt>
      <trkpt lat="49.80543" lon="2.38179">
        <ele>53.4</ele>
        <time>2022-07-27T07:08:24Z</time>
      </trkpt>
      <trkpt lat="49.80543" lon="2.38178">
        <ele>53.4</ele>
        <time>2022-07-27T07:08:25Z</time>
      </trkpt>
      <trkpt lat="49.80542" lon="2.38177">
        <ele>53.4</ele>
        <time>2022-07-27T07:08:26Z</time>
      </trkpt>
      <trkpt lat="49.80541" lon="2.38176">
        <ele>53.5</ele>
        <time>2022-07-27T07:08:27Z</time>
      </trkpt>
      <trkpt lat="49.8054" lon="2.38175">
        <ele>53.5</ele>
        <time>2022-07-27T07:08:28Z</time>
      </trkpt>
      <trkpt lat="49.80539" lon="2.38172">
        <ele>53.6</ele>
        <time>2022-07-27T07:08:29Z</time>
      </trkpt>
      <trkpt lat="49.80538" lon="2.38171">
        <ele>53.6</ele>
        <time>2022-07-27T07:08:30Z</time>
      </trkpt>
      <trkpt lat="49.80538" lon="2.3817">
        <ele>53.6</ele>
        <time>2022-07-27T07:08:31Z</time>
      </trkpt>
      <trkpt lat="49.80537" lon="2.38169">
        <ele>53.7</ele>
        <time>2022-07-27T07:08:32Z</time>
      </trkpt>
      <trkpt lat="49.80536" lon="2.38167">
        <ele>53.7</ele>
        <time>2022-07-27T07:08:33Z</time>
      </trkpt>
      <trkpt lat="49.80536" lon="2.38166">
        <ele>53.7</ele>
        <time>2022-07-27T07:08:34Z</time>
      </trkpt>
      <trkpt lat="49.80535" lon="2.38165">
        <ele>53.8</ele>
        <time>2022-07-27T07:08:35Z</time>
      </trkpt>
      <trkpt lat="49.80534" lon="2.38163">
        <ele>53.8</ele>
        <time>2022-07-27T07:08:36Z</time>
      </trkpt>
      <trkpt lat="49.80534" lon="2.38162">
        <ele>53.8</ele>
        <time>2022-07-27T07:08:37Z</time>
      </trkpt>
      <trkpt lat="49.80532" lon="2.3816">
        <ele>53.9</ele>
        <time>2022-07-27T07:08:38Z</time>
      </trkpt>
      <trkpt lat="49.80532" lon="2.38159">
        <ele>53.9</ele>
        <time>2022-07-27T07:08:39Z</time>
      </trkpt>
      <trkpt lat="49.80531" lon="2.38158">
        <ele>54</ele>
        <time>2022-07-27T07:08:40Z</time>
      </trkpt>
      <trkpt lat="49.80529" lon="2.38154">
        <ele>54.1</ele>
        <time>2022-07-27T07:08:42Z</time>
      </trkpt>
      <trkpt lat="49.80529" lon="2.38154">
        <ele>54.1</ele>
        <time>2022-07-27T07:08:43Z</time>
      </trkpt>
      <trkpt lat="49.80527" lon="2.38151">
        <ele>54.1</ele>
        <time>2022-07-27T07:08:44Z</time>
      </trkpt>
      <trkpt lat="49.80526" lon="2.3815">
        <ele>54.2</ele>
        <time>2022-07-27T07:08:45Z</time>
      </trkpt>
      <trkpt lat="49.80526" lon="2.38149">
        <ele>54.2</ele>
        <time>2022-07-27T07:08:46Z</time>
      </trkpt>
      <trkpt lat="49.80525" lon="2.38148">
        <ele>54.2</ele>
        <time>2022-07-27T07:08:47Z</time>
      </trkpt>
      <trkpt lat="49.80524" lon="2.38146">
        <ele>54.3</ele>
        <time>2022-07-27T07:08:48Z</time>
      </trkpt>
      <trkpt lat="49.80522" lon="2.38143">
        <ele>54.4</ele>
        <time>2022-07-27T07:08:49Z</time>
      </trkpt>
      <trkpt lat="49.80522" lon="2.38142">
        <ele>54.4</ele>
        <time>2022-07-27T07:08:50Z</time>
      </trkpt>
      <trkpt lat="49.80521" lon="2.38142">
        <ele>54.4</ele>
        <time>2022-07-27T07:08:51Z</time>
      </trkpt>
      <trkpt lat="49.8052" lon="2.3814">
        <ele>54.5</ele>
        <time>2022-07-27T07:08:52Z</time>
      </trkpt>
      <trkpt lat="49.80519" lon="2.38139">
        <ele>54.5</ele>
        <time>2022-07-27T07:08:53Z</time>
      </trkpt>
      <trkpt lat="49.80519" lon="2.38138">
        <ele>54.6</ele>
        <time>2022-07-27T07:08:54Z</time>
      </trkpt>
      <trkpt lat="49.80517" lon="2.38136">
        <ele>54.6</ele>
        <time>2022-07-27T07:08:55Z</time>
      </trkpt>
      <trkpt lat="49.80516" lon="2.38135">
        <ele>54.7</ele>
        <time>2022-07-27T07:08:56Z</time>
      </trkpt>
      <trkpt lat="49.80516" lon="2.38134">
        <ele>54.7</ele>
        <time>2022-07-27T07:08:57Z</time>
      </trkpt>
      <trkpt lat="49.80514" lon="2.38132">
        <ele>54.8</ele>
        <time>2022-07-27T07:08:58Z</time>
      </trkpt>
      <trkpt lat="49.80514" lon="2.38131">
        <ele>54.8</ele>
        <time>2022-07-27T07:08:59Z</time>
      </trkpt>
      <trkpt lat="49.80513" lon="2.3813">
        <ele>54.8</ele>
        <time>2022-07-27T07:09:00Z</time>
      </trkpt>
      <trkpt lat="49.80512" lon="2.38129">
        <ele>54.9</ele>
        <time>2022-07-27T07:09:01Z</time>
      </trkpt>
      <trkpt lat="49.80511" lon="2.38128">
        <ele>54.9</ele>
        <time>2022-07-27T07:09:02Z</time>
      </trkpt>
      <trkpt lat="49.80511" lon="2.38127">
        <ele>54.9</ele>
        <time>2022-07-27T07:09:03Z</time>
      </trkpt>
      <trkpt lat="49.8051" lon="2.38125">
        <ele>55</ele>
        <time>2022-07-27T07:09:04Z</time>
      </trkpt>
      <trkpt lat="49.80509" lon="2.38124">
        <ele>55</ele>
        <time>2022-07-27T07:09:05Z</time>
      </trkpt>
      <trkpt lat="49.80508" lon="2.38123">
        <ele>55.1</ele>
        <time>2022-07-27T07:09:06Z</time>
      </trkpt>
      <trkpt lat="49.80508" lon="2.38122">
        <ele>55.1</ele>
        <time>2022-07-27T07:09:07Z</time>
      </trkpt>
      <trkpt lat="49.80507" lon="2.38121">
        <ele>55.1</ele>
        <time>2022-07-27T07:09:08Z</time>
      </trkpt>
      <trkpt lat="49.80506" lon="2.3812">
        <ele>55.2</ele>
        <time>2022-07-27T07:09:09Z</time>
      </trkpt>
      <trkpt lat="49.80506" lon="2.38118">
        <ele>55.2</ele>
        <time>2022-07-27T07:09:10Z</time>
      </trkpt>
      <trkpt lat="49.80505" lon="2.38117">
        <ele>55.3</ele>
        <time>2022-07-27T07:09:11Z</time>
      </trkpt>
      <trkpt lat="49.80505" lon="2.38116">
        <ele>55.3</ele>
        <time>2022-07-27T07:09:12Z</time>
      </trkpt>
      <trkpt lat="49.80503" lon="2.38114">
        <ele>55.4</ele>
        <time>2022-07-27T07:09:13Z</time>
      </trkpt>
      <trkpt lat="49.80503" lon="2.38113">
        <ele>55.4</ele>
        <time>2022-07-27T07:09:14Z</time>
      </trkpt>
      <trkpt lat="49.80502" lon="2.38112">
        <ele>55.4</ele>
        <time>2022-07-27T07:09:15Z</time>
      </trkpt>
      <trkpt lat="49.80501" lon="2.38111">
        <ele>55.5</ele>
        <time>2022-07-27T07:09:16Z</time>
      </trkpt>
      <trkpt lat="49.80501" lon="2.38109">
        <ele>55.5</ele>
        <time>2022-07-27T07:09:17Z</time>
      </trkpt>
      <trkpt lat="49.805" lon="2.38108">
        <ele>55.6</ele>
        <time>2022-07-27T07:09:18Z</time>
      </trkpt>
      <trkpt lat="49.80499" lon="2.38107">
        <ele>55.6</ele>
        <time>2022-07-27T07:09:19Z</time>
      </trkpt>
      <trkpt lat="49.80498" lon="2.38105">
        <ele>55.6</ele>
        <time>2022-07-27T07:09:20Z</time>
      </trkpt>
      <trkpt lat="49.80498" lon="2.38104">
        <ele>55.7</ele>
        <time>2022-07-27T07:09:21Z</time>
      </trkpt>
      <trkpt lat="49.80497" lon="2.38103">
        <ele>55.7</ele>
        <time>2022-07-27T07:09:22Z</time>
      </trkpt>
      <trkpt lat="49.80496" lon="2.38102">
        <ele>55.8</ele>
        <time>2022-07-27T07:09:23Z</time>
      </trkpt>
      <trkpt lat="49.80496" lon="2.38101">
        <ele>55.8</ele>
        <time>2022-07-27T07:09:24Z</time>
      </trkpt>
      <trkpt lat="49.80494" lon="2.38098">
        <ele>55.9</ele>
        <time>2022-07-27T07:09:25Z</time>
      </trkpt>
      <trkpt lat="49.80494" lon="2.38097">
        <ele>55.9</ele>
        <time>2022-07-27T07:09:26Z</time>
      </trkpt>
      <trkpt lat="49.80493" lon="2.38096">
        <ele>56</ele>
        <time>2022-07-27T07:09:27Z</time>
      </trkpt>
      <trkpt lat="49.80492" lon="2.38093">
        <ele>56.1</ele>
        <time>2022-07-27T07:09:28Z</time>
      </trkpt>
      <trkpt lat="49.80491" lon="2.38093">
        <ele>56.1</ele>
        <time>2022-07-27T07:09:29Z</time>
      </trkpt>
      <trkpt lat="49.80491" lon="2.38092">
        <ele>56.1</ele>
        <time>2022-07-27T07:09:30Z</time>
      </trkpt>
      <trkpt lat="49.8049" lon="2.3809">
        <ele>56.2</ele>
        <time>2022-07-27T07:09:31Z</time>
      </trkpt>
      <trkpt lat="49.80489" lon="2.38089">
        <ele>56.2</ele>
        <time>2022-07-27T07:09:32Z</time>
      </trkpt>
      <trkpt lat="49.80489" lon="2.38087">
        <ele>56.3</ele>
        <time>2022-07-27T07:09:33Z</time>
      </trkpt>
      <trkpt lat="49.80487" lon="2.38085">
        <ele>56.4</ele>
        <time>2022-07-27T07:09:34Z</time>
      </trkpt>
      <trkpt lat="49.80487" lon="2.38084">
        <ele>56.4</ele>
        <time>2022-07-27T07:09:35Z</time>
      </trkpt>
      <trkpt lat="49.80486" lon="2.38083">
        <ele>56.5</ele>
        <time>2022-07-27T07:09:36Z</time>
      </trkpt>
      <trkpt lat="49.80485" lon="2.3808">
        <ele>56.5</ele>
        <time>2022-07-27T07:09:37Z</time>
      </trkpt>
      <trkpt lat="49.80485" lon="2.38079">
        <ele>56.6</ele>
        <time>2022-07-27T07:09:38Z</time>
      </trkpt>
      <trkpt lat="49.80484" lon="2.38078">
        <ele>56.6</ele>
        <time>2022-07-27T07:09:39Z</time>
      </trkpt>
      <trkpt lat="49.80484" lon="2.38076">
        <ele>56.7</ele>
        <time>2022-07-27T07:09:40Z</time>
      </trkpt>
      <trkpt lat="49.80483" lon="2.38075">
        <ele>56.7</ele>
        <time>2022-07-27T07:09:41Z</time>
      </trkpt>
      <trkpt lat="49.80483" lon="2.38074">
        <ele>56.8</ele>
        <time>2022-07-27T07:09:42Z</time>
      </trkpt>
      <trkpt lat="49.80482" lon="2.38073">
        <ele>56.8</ele>
        <time>2022-07-27T07:09:43Z</time>
      </trkpt>
      <trkpt lat="49.80481" lon="2.38072">
        <ele>56.9</ele>
        <time>2022-07-27T07:09:44Z</time>
      </trkpt>
      <trkpt lat="49.8048" lon="2.3807">
        <ele>56.9</ele>
        <time>2022-07-27T07:09:45Z</time>
      </trkpt>
      <trkpt lat="49.8048" lon="2.38069">
        <ele>57</ele>
        <time>2022-07-27T07:09:46Z</time>
      </trkpt>
      <trkpt lat="49.80479" lon="2.38068">
        <ele>57</ele>
        <time>2022-07-27T07:09:47Z</time>
      </trkpt>
      <trkpt lat="49.80479" lon="2.38066">
        <ele>57.1</ele>
        <time>2022-07-27T07:09:48Z</time>
      </trkpt>
      <trkpt lat="49.80477" lon="2.38064">
        <ele>57.1</ele>
        <time>2022-07-27T07:09:49Z</time>
      </trkpt>
      <trkpt lat="49.80477" lon="2.38063">
        <ele>57.2</ele>
        <time>2022-07-27T07:09:50Z</time>
      </trkpt>
      <trkpt lat="49.80476" lon="2.38062">
        <ele>57.2</ele>
        <time>2022-07-27T07:09:51Z</time>
      </trkpt>
      <trkpt lat="49.80476" lon="2.38061">
        <ele>57.3</ele>
        <time>2022-07-27T07:09:52Z</time>
      </trkpt>
      <trkpt lat="49.80475" lon="2.38059">
        <ele>57.3</ele>
        <time>2022-07-27T07:09:53Z</time>
      </trkpt>
      <trkpt lat="49.80474" lon="2.38058">
        <ele>57.4</ele>
        <time>2022-07-27T07:09:54Z</time>
      </trkpt>
      <trkpt lat="49.80473" lon="2.38056">
        <ele>57.4</ele>
        <time>2022-07-27T07:09:55Z</time>
      </trkpt>
      <trkpt lat="49.80473" lon="2.38055">
        <ele>57.5</ele>
        <time>2022-07-27T07:09:56Z</time>
      </trkpt>
      <trkpt lat="49.80472" lon="2.38054">
        <ele>57.5</ele>
        <time>2022-07-27T07:09:57Z</time>
      </trkpt>
      <trkpt lat="49.80472" lon="2.38053">
        <ele>57.6</ele>
        <time>2022-07-27T07:09:58Z</time>
      </trkpt>
      <trkpt lat="49.80471" lon="2.38052">
        <ele>57.6</ele>
        <time>2022-07-27T07:09:59Z</time>
      </trkpt>
      <trkpt lat="49.80471" lon="2.3805">
        <ele>57.7</ele>
        <time>2022-07-27T07:10:00Z</time>
      </trkpt>
      <trkpt lat="49.8047" lon="2.38049">
        <ele>57.7</ele>
        <time>2022-07-27T07:10:01Z</time>
      </trkpt>
      <trkpt lat="49.80469" lon="2.38047">
        <ele>57.8</ele>
        <time>2022-07-27T07:10:02Z</time>
      </trkpt>
      <trkpt lat="49.80469" lon="2.38046">
        <ele>57.8</ele>
        <time>2022-07-27T07:10:03Z</time>
      </trkpt>
      <trkpt lat="49.80468" lon="2.38045">
        <ele>57.9</ele>
        <time>2022-07-27T07:10:04Z</time>
      </trkpt>
      <trkpt lat="49.80467" lon="2.38042">
        <ele>58</ele>
        <time>2022-07-27T07:10:05Z</time>
      </trkpt>
      <trkpt lat="49.80466" lon="2.38041">
        <ele>58</ele>
        <time>2022-07-27T07:10:06Z</time>
      </trkpt>
      <trkpt lat="49.80466" lon="2.3804">
        <ele>58.1</ele>
        <time>2022-07-27T07:10:07Z</time>
      </trkpt>
      <trkpt lat="49.80465" lon="2.38038">
        <ele>58.1</ele>
        <time>2022-07-27T07:10:08Z</time>
      </trkpt>
      <trkpt lat="49.80465" lon="2.38037">
        <ele>58.2</ele>
        <time>2022-07-27T07:10:09Z</time>
      </trkpt>
      <trkpt lat="49.80464" lon="2.38035">
        <ele>58.2</ele>
        <time>2022-07-27T07:10:10Z</time>
      </trkpt>
      <trkpt lat="49.80463" lon="2.38034">
        <ele>58.3</ele>
        <time>2022-07-27T07:10:11Z</time>
      </trkpt>
      <trkpt lat="49.80463" lon="2.38033">
        <ele>58.3</ele>
        <time>2022-07-27T07:10:12Z</time>
      </trkpt>
      <trkpt lat="49.80462" lon="2.38031">
        <ele>58.4</ele>
        <time>2022-07-27T07:10:13Z</time>
      </trkpt>
      <trkpt lat="49.80461" lon="2.3803">
        <ele>58.5</ele>
        <time>2022-07-27T07:10:14Z</time>
      </trkpt>
      <trkpt lat="49.8046" lon="2.38027">
        <ele>58.6</ele>
        <time>2022-07-27T07:10:15Z</time>
      </trkpt>
      <trkpt lat="49.8046" lon="2.38026">
        <ele>58.6</ele>
        <time>2022-07-27T07:10:16Z</time>
      </trkpt>
      <trkpt lat="49.80459" lon="2.38025">
        <ele>58.6</ele>
        <time>2022-07-27T07:10:17Z</time>
      </trkpt>
      <trkpt lat="49.80458" lon="2.38023">
        <ele>58.8</ele>
        <time>2022-07-27T07:10:18Z</time>
      </trkpt>
      <trkpt lat="49.80458" lon="2.38021">
        <ele>58.8</ele>
        <time>2022-07-27T07:10:19Z</time>
      </trkpt>
      <trkpt lat="49.80457" lon="2.3802">
        <ele>58.8</ele>
        <time>2022-07-27T07:10:20Z</time>
      </trkpt>
      <trkpt lat="49.80456" lon="2.38019">
        <ele>58.9</ele>
        <time>2022-07-27T07:10:21Z</time>
      </trkpt>
      <trkpt lat="49.80456" lon="2.38018">
        <ele>58.9</ele>
        <time>2022-07-27T07:10:22Z</time>
      </trkpt>
      <trkpt lat="49.80455" lon="2.38017">
        <ele>59</ele>
        <time>2022-07-27T07:10:23Z</time>
      </trkpt>
      <trkpt lat="49.80455" lon="2.38016">
        <ele>59</ele>
        <time>2022-07-27T07:10:24Z</time>
      </trkpt>
      <trkpt lat="49.80454" lon="2.38014">
        <ele>59.1</ele>
        <time>2022-07-27T07:10:25Z</time>
      </trkpt>
      <trkpt lat="49.80453" lon="2.38013">
        <ele>59.2</ele>
        <time>2022-07-27T07:10:26Z</time>
      </trkpt>
      <trkpt lat="49.80453" lon="2.38012">
        <ele>59.2</ele>
        <time>2022-07-27T07:10:27Z</time>
      </trkpt>
      <trkpt lat="49.80452" lon="2.3801">
        <ele>59.3</ele>
        <time>2022-07-27T07:10:28Z</time>
      </trkpt>
      <trkpt lat="49.80452" lon="2.38009">
        <ele>59.3</ele>
        <time>2022-07-27T07:10:29Z</time>
      </trkpt>
      <trkpt lat="49.80451" lon="2.38007">
        <ele>59.4</ele>
        <time>2022-07-27T07:10:30Z</time>
      </trkpt>
      <trkpt lat="49.8045" lon="2.38006">
        <ele>59.4</ele>
        <time>2022-07-27T07:10:31Z</time>
      </trkpt>
      <trkpt lat="49.80449" lon="2.38005">
        <ele>59.5</ele>
        <time>2022-07-27T07:10:32Z</time>
      </trkpt>
      <trkpt lat="49.80448" lon="2.38002">
        <ele>59.6</ele>
        <time>2022-07-27T07:10:33Z</time>
      </trkpt>
      <trkpt lat="49.80448" lon="2.38001">
        <ele>59.6</ele>
        <time>2022-07-27T07:10:34Z</time>
      </trkpt>
      <trkpt lat="49.80447" lon="2.38">
        <ele>59.7</ele>
        <time>2022-07-27T07:10:35Z</time>
      </trkpt>
      <trkpt lat="49.80447" lon="2.37999">
        <ele>59.7</ele>
        <time>2022-07-27T07:10:36Z</time>
      </trkpt>
      <trkpt lat="49.80446" lon="2.37998">
        <ele>59.8</ele>
        <time>2022-07-27T07:10:37Z</time>
      </trkpt>
      <trkpt lat="49.80446" lon="2.37997">
        <ele>59.8</ele>
        <time>2022-07-27T07:10:38Z</time>
      </trkpt>
      <trkpt lat="49.80445" lon="2.37996">
        <ele>59.9</ele>
        <time>2022-07-27T07:10:39Z</time>
      </trkpt>
      <trkpt lat="49.80444" lon="2.37994">
        <ele>59.9</ele>
        <time>2022-07-27T07:10:40Z</time>
      </trkpt>
      <trkpt lat="49.80444" lon="2.37993">
        <ele>60</ele>
        <time>2022-07-27T07:10:41Z</time>
      </trkpt>
      <trkpt lat="49.80443" lon="2.37992">
        <ele>60</ele>
        <time>2022-07-27T07:10:42Z</time>
      </trkpt>
      <trkpt lat="49.80442" lon="2.37989">
        <ele>60.1</ele>
        <time>2022-07-27T07:10:43Z</time>
      </trkpt>
      <trkpt lat="49.80442" lon="2.37988">
        <ele>60.2</ele>
        <time>2022-07-27T07:10:44Z</time>
      </trkpt>
      <trkpt lat="49.80441" lon="2.37987">
        <ele>60.2</ele>
        <time>2022-07-27T07:10:45Z</time>
      </trkpt>
      <trkpt lat="49.80441" lon="2.37986">
        <ele>60.3</ele>
        <time>2022-07-27T07:10:46Z</time>
      </trkpt>
      <trkpt lat="49.8044" lon="2.37984">
        <ele>60.3</ele>
        <time>2022-07-27T07:10:47Z</time>
      </trkpt>
      <trkpt lat="49.80439" lon="2.37983">
        <ele>60.4</ele>
        <time>2022-07-27T07:10:48Z</time>
      </trkpt>
      <trkpt lat="49.80439" lon="2.37982">
        <ele>60.4</ele>
        <time>2022-07-27T07:10:49Z</time>
      </trkpt>
      <trkpt lat="49.80438" lon="2.3798">
        <ele>60.5</ele>
        <time>2022-07-27T07:10:50Z</time>
      </trkpt>
      <trkpt lat="49.80437" lon="2.37979">
        <ele>60.6</ele>
        <time>2022-07-27T07:10:51Z</time>
      </trkpt>
      <trkpt lat="49.80437" lon="2.37978">
        <ele>60.6</ele>
        <time>2022-07-27T07:10:52Z</time>
      </trkpt>
      <trkpt lat="49.80436" lon="2.37976">
        <ele>60.7</ele>
        <time>2022-07-27T07:10:53Z</time>
      </trkpt>
      <trkpt lat="49.80436" lon="2.37975">
        <ele>60.7</ele>
        <time>2022-07-27T07:10:54Z</time>
      </trkpt>
      <trkpt lat="49.80435" lon="2.37973">
        <ele>60.8</ele>
        <time>2022-07-27T07:10:55Z</time>
      </trkpt>
      <trkpt lat="49.80434" lon="2.37972">
        <ele>60.9</ele>
        <time>2022-07-27T07:10:56Z</time>
      </trkpt>
      <trkpt lat="49.80433" lon="2.37971">
        <ele>60.9</ele>
        <time>2022-07-27T07:10:57Z</time>
      </trkpt>
      <trkpt lat="49.80432" lon="2.37968">
        <ele>61.1</ele>
        <time>2022-07-27T07:10:58Z</time>
      </trkpt>
      <trkpt lat="49.80431" lon="2.37967">
        <ele>61.1</ele>
        <time>2022-07-27T07:10:59Z</time>
      </trkpt>
      <trkpt lat="49.80431" lon="2.37966">
        <ele>61.2</ele>
        <time>2022-07-27T07:11:00Z</time>
      </trkpt>
      <trkpt lat="49.8043" lon="2.37965">
        <ele>61.2</ele>
        <time>2022-07-27T07:11:01Z</time>
      </trkpt>
      <trkpt lat="49.8043" lon="2.37964">
        <ele>61.3</ele>
        <time>2022-07-27T07:11:02Z</time>
      </trkpt>
      <trkpt lat="49.80429" lon="2.37963">
        <ele>61.3</ele>
        <time>2022-07-27T07:11:03Z</time>
      </trkpt>
      <trkpt lat="49.80429" lon="2.37961">
        <ele>61.4</ele>
        <time>2022-07-27T07:11:04Z</time>
      </trkpt>
      <trkpt lat="49.80428" lon="2.37959">
        <ele>61.5</ele>
        <time>2022-07-27T07:11:05Z</time>
      </trkpt>
      <trkpt lat="49.80427" lon="2.37958">
        <ele>61.5</ele>
        <time>2022-07-27T07:11:06Z</time>
      </trkpt>
      <trkpt lat="49.80427" lon="2.37957">
        <ele>61.6</ele>
        <time>2022-07-27T07:11:07Z</time>
      </trkpt>
      <trkpt lat="49.80426" lon="2.37954">
        <ele>61.7</ele>
        <time>2022-07-27T07:11:08Z</time>
      </trkpt>
      <trkpt lat="49.80425" lon="2.37953">
        <ele>61.8</ele>
        <time>2022-07-27T07:11:09Z</time>
      </trkpt>
      <trkpt lat="49.80424" lon="2.37952">
        <ele>61.8</ele>
        <time>2022-07-27T07:11:10Z</time>
      </trkpt>
      <trkpt lat="49.80424" lon="2.37951">
        <ele>61.9</ele>
        <time>2022-07-27T07:11:11Z</time>
      </trkpt>
      <trkpt lat="49.80424" lon="2.3795">
        <ele>61.9</ele>
        <time>2022-07-27T07:11:12Z</time>
      </trkpt>
      <trkpt lat="49.80423" lon="2.37949">
        <ele>62</ele>
        <time>2022-07-27T07:11:13Z</time>
      </trkpt>
      <trkpt lat="49.80422" lon="2.37948">
        <ele>62</ele>
        <time>2022-07-27T07:11:14Z</time>
      </trkpt>
      <trkpt lat="49.80421" lon="2.37945">
        <ele>62.1</ele>
        <time>2022-07-27T07:11:15Z</time>
      </trkpt>
      <trkpt lat="49.80421" lon="2.37945">
        <ele>62.2</ele>
        <time>2022-07-27T07:11:16Z</time>
      </trkpt>
      <trkpt lat="49.8042" lon="2.37943">
        <ele>62.2</ele>
        <time>2022-07-27T07:11:17Z</time>
      </trkpt>
      <trkpt lat="49.80419" lon="2.37941">
        <ele>62.4</ele>
        <time>2022-07-27T07:11:18Z</time>
      </trkpt>
      <trkpt lat="49.80418" lon="2.3794">
        <ele>62.4</ele>
        <time>2022-07-27T07:11:19Z</time>
      </trkpt>
      <trkpt lat="49.80418" lon="2.37938">
        <ele>62.5</ele>
        <time>2022-07-27T07:11:20Z</time>
      </trkpt>
      <trkpt lat="49.80417" lon="2.37937">
        <ele>62.5</ele>
        <time>2022-07-27T07:11:21Z</time>
      </trkpt>
      <trkpt lat="49.80417" lon="2.37936">
        <ele>62.6</ele>
        <time>2022-07-27T07:11:22Z</time>
      </trkpt>
      <trkpt lat="49.80416" lon="2.37935">
        <ele>62.6</ele>
        <time>2022-07-27T07:11:23Z</time>
      </trkpt>
      <trkpt lat="49.80416" lon="2.37934">
        <ele>62.7</ele>
        <time>2022-07-27T07:11:24Z</time>
      </trkpt>
      <trkpt lat="49.80415" lon="2.37932">
        <ele>62.8</ele>
        <time>2022-07-27T07:11:25Z</time>
      </trkpt>
      <trkpt lat="49.80414" lon="2.37931">
        <ele>62.8</ele>
        <time>2022-07-27T07:11:26Z</time>
      </trkpt>
      <trkpt lat="49.80414" lon="2.3793">
        <ele>62.9</ele>
        <time>2022-07-27T07:11:27Z</time>
      </trkpt>
      <trkpt lat="49.80413" lon="2.37927">
        <ele>63</ele>
        <time>2022-07-27T07:11:28Z</time>
      </trkpt>
      <trkpt lat="49.80412" lon="2.37926">
        <ele>63.1</ele>
        <time>2022-07-27T07:11:29Z</time>
      </trkpt>
      <trkpt lat="49.80412" lon="2.37925">
        <ele>63.2</ele>
        <time>2022-07-27T07:11:30Z</time>
      </trkpt>
      <trkpt lat="49.80411" lon="2.37924">
        <ele>63.2</ele>
        <time>2022-07-27T07:11:31Z</time>
      </trkpt>
      <trkpt lat="49.80411" lon="2.37923">
        <ele>63.3</ele>
        <time>2022-07-27T07:11:32Z</time>
      </trkpt>
      <trkpt lat="49.8041" lon="2.37921">
        <ele>63.3</ele>
        <time>2022-07-27T07:11:33Z</time>
      </trkpt>
      <trkpt lat="49.8041" lon="2.3792">
        <ele>63.4</ele>
        <time>2022-07-27T07:11:34Z</time>
      </trkpt>
      <trkpt lat="49.80409" lon="2.37918">
        <ele>63.5</ele>
        <time>2022-07-27T07:11:35Z</time>
      </trkpt>
      <trkpt lat="49.80409" lon="2.37917">
        <ele>63.6</ele>
        <time>2022-07-27T07:11:36Z</time>
      </trkpt>
      <trkpt lat="49.80408" lon="2.37916">
        <ele>63.6</ele>
        <time>2022-07-27T07:11:37Z</time>
      </trkpt>
      <trkpt lat="49.80408" lon="2.37915">
        <ele>63.7</ele>
        <time>2022-07-27T07:11:38Z</time>
      </trkpt>
      <trkpt lat="49.80407" lon="2.37913">
        <ele>63.7</ele>
        <time>2022-07-27T07:11:39Z</time>
      </trkpt>
      <trkpt lat="49.80407" lon="2.37911">
        <ele>63.9</ele>
        <time>2022-07-27T07:11:40Z</time>
      </trkpt>
      <trkpt lat="49.80406" lon="2.3791">
        <ele>63.9</ele>
        <time>2022-07-27T07:11:41Z</time>
      </trkpt>
      <trkpt lat="49.80406" lon="2.37909">
        <ele>64</ele>
        <time>2022-07-27T07:11:42Z</time>
      </trkpt>
      <trkpt lat="49.80405" lon="2.37908">
        <ele>64.1</ele>
        <time>2022-07-27T07:11:43Z</time>
      </trkpt>
      <trkpt lat="49.80405" lon="2.37906">
        <ele>64.1</ele>
        <time>2022-07-27T07:11:44Z</time>
      </trkpt>
      <trkpt lat="49.80404" lon="2.37904">
        <ele>64.2</ele>
        <time>2022-07-27T07:11:45Z</time>
      </trkpt>
      <trkpt lat="49.80403" lon="2.37902">
        <ele>64.3</ele>
        <time>2022-07-27T07:11:46Z</time>
      </trkpt>
      <trkpt lat="49.80403" lon="2.37901">
        <ele>64.4</ele>
        <time>2022-07-27T07:11:47Z</time>
      </trkpt>
      <trkpt lat="49.80403" lon="2.379">
        <ele>64.5</ele>
        <time>2022-07-27T07:11:48Z</time>
      </trkpt>
      <trkpt lat="49.80402" lon="2.37899">
        <ele>64.5</ele>
        <time>2022-07-27T07:11:49Z</time>
      </trkpt>
      <trkpt lat="49.80402" lon="2.37898">
        <ele>64.6</ele>
        <time>2022-07-27T07:11:50Z</time>
      </trkpt>
      <trkpt lat="49.80401" lon="2.37896">
        <ele>64.7</ele>
        <time>2022-07-27T07:11:51Z</time>
      </trkpt>
      <trkpt lat="49.80401" lon="2.37895">
        <ele>64.7</ele>
        <time>2022-07-27T07:11:52Z</time>
      </trkpt>
      <trkpt lat="49.804" lon="2.37894">
        <ele>64.8</ele>
        <time>2022-07-27T07:11:53Z</time>
      </trkpt>
      <trkpt lat="49.804" lon="2.37892">
        <ele>64.9</ele>
        <time>2022-07-27T07:11:54Z</time>
      </trkpt>
      <trkpt lat="49.80399" lon="2.37891">
        <ele>64.9</ele>
        <time>2022-07-27T07:11:55Z</time>
      </trkpt>
      <trkpt lat="49.80399" lon="2.37889">
        <ele>65</ele>
        <time>2022-07-27T07:11:56Z</time>
      </trkpt>
      <trkpt lat="49.80398" lon="2.37888">
        <ele>65.1</ele>
        <time>2022-07-27T07:11:57Z</time>
      </trkpt>
      <trkpt lat="49.80398" lon="2.37886">
        <ele>65.2</ele>
        <time>2022-07-27T07:11:58Z</time>
      </trkpt>
      <trkpt lat="49.80397" lon="2.37884">
        <ele>65.3</ele>
        <time>2022-07-27T07:11:59Z</time>
      </trkpt>
      <trkpt lat="49.80396" lon="2.37882">
        <ele>65.4</ele>
        <time>2022-07-27T07:12:00Z</time>
      </trkpt>
      <trkpt lat="49.80396" lon="2.37881">
        <ele>65.5</ele>
        <time>2022-07-27T07:12:01Z</time>
      </trkpt>
      <trkpt lat="49.80396" lon="2.3788">
        <ele>65.5</ele>
        <time>2022-07-27T07:12:02Z</time>
      </trkpt>
      <trkpt lat="49.80395" lon="2.37879">
        <ele>65.6</ele>
        <time>2022-07-27T07:12:03Z</time>
      </trkpt>
      <trkpt lat="49.80395" lon="2.37878">
        <ele>65.6</ele>
        <time>2022-07-27T07:12:04Z</time>
      </trkpt>
      <trkpt lat="49.80394" lon="2.37876">
        <ele>65.7</ele>
        <time>2022-07-27T07:12:05Z</time>
      </trkpt>
      <trkpt lat="49.80393" lon="2.37875">
        <ele>65.8</ele>
        <time>2022-07-27T07:12:06Z</time>
      </trkpt>
      <trkpt lat="49.80393" lon="2.37873">
        <ele>65.9</ele>
        <time>2022-07-27T07:12:07Z</time>
      </trkpt>
      <trkpt lat="49.80393" lon="2.37872">
        <ele>66</ele>
        <time>2022-07-27T07:12:08Z</time>
      </trkpt>
      <trkpt lat="49.80392" lon="2.37869">
        <ele>66.1</ele>
        <time>2022-07-27T07:12:09Z</time>
      </trkpt>
      <trkpt lat="49.80391" lon="2.37868">
        <ele>66.2</ele>
        <time>2022-07-27T07:12:10Z</time>
      </trkpt>
      <trkpt lat="49.80391" lon="2.37867">
        <ele>66.3</ele>
        <time>2022-07-27T07:12:11Z</time>
      </trkpt>
      <trkpt lat="49.8039" lon="2.37866">
        <ele>66.3</ele>
        <time>2022-07-27T07:12:12Z</time>
      </trkpt>
      <trkpt lat="49.8039" lon="2.37864">
        <ele>66.4</ele>
        <time>2022-07-27T07:12:13Z</time>
      </trkpt>
      <trkpt lat="49.80389" lon="2.37863">
        <ele>66.5</ele>
        <time>2022-07-27T07:12:14Z</time>
      </trkpt>
      <trkpt lat="49.80389" lon="2.37862">
        <ele>66.6</ele>
        <time>2022-07-27T07:12:15Z</time>
      </trkpt>
      <trkpt lat="49.80388" lon="2.3786">
        <ele>66.7</ele>
        <time>2022-07-27T07:12:16Z</time>
      </trkpt>
      <trkpt lat="49.80388" lon="2.37859">
        <ele>66.7</ele>
        <time>2022-07-27T07:12:17Z</time>
      </trkpt>
      <trkpt lat="49.80387" lon="2.37858">
        <ele>66.8</ele>
        <time>2022-07-27T07:12:18Z</time>
      </trkpt>
      <trkpt lat="49.80387" lon="2.37857">
        <ele>66.9</ele>
        <time>2022-07-27T07:12:19Z</time>
      </trkpt>
      <trkpt lat="49.80386" lon="2.37856">
        <ele>67</ele>
        <time>2022-07-27T07:12:20Z</time>
      </trkpt>
      <trkpt lat="49.80385" lon="2.37854">
        <ele>67.1</ele>
        <time>2022-07-27T07:12:21Z</time>
      </trkpt>
      <trkpt lat="49.80385" lon="2.37852">
        <ele>67.2</ele>
        <time>2022-07-27T07:12:22Z</time>
      </trkpt>
      <trkpt lat="49.80384" lon="2.37851">
        <ele>67.3</ele>
        <time>2022-07-27T07:12:23Z</time>
      </trkpt>
      <trkpt lat="49.80384" lon="2.3785">
        <ele>67.3</ele>
        <time>2022-07-27T07:12:24Z</time>
      </trkpt>
      <trkpt lat="49.80383" lon="2.37849">
        <ele>67.4</ele>
        <time>2022-07-27T07:12:25Z</time>
      </trkpt>
      <trkpt lat="49.80382" lon="2.37847">
        <ele>67.5</ele>
        <time>2022-07-27T07:12:26Z</time>
      </trkpt>
      <trkpt lat="49.80382" lon="2.37846">
        <ele>67.6</ele>
        <time>2022-07-27T07:12:27Z</time>
      </trkpt>
      <trkpt lat="49.80381" lon="2.37845">
        <ele>67.7</ele>
        <time>2022-07-27T07:12:28Z</time>
      </trkpt>
      <trkpt lat="49.8038" lon="2.37843">
        <ele>67.8</ele>
        <time>2022-07-27T07:12:29Z</time>
      </trkpt>
      <trkpt lat="49.8038" lon="2.37842">
        <ele>67.9</ele>
        <time>2022-07-27T07:12:30Z</time>
      </trkpt>
      <trkpt lat="49.80379" lon="2.3784">
        <ele>68</ele>
        <time>2022-07-27T07:12:31Z</time>
      </trkpt>
      <trkpt lat="49.80378" lon="2.37839">
        <ele>68.1</ele>
        <time>2022-07-27T07:12:32Z</time>
      </trkpt>
      <trkpt lat="49.80378" lon="2.37838">
        <ele>68.2</ele>
        <time>2022-07-27T07:12:33Z</time>
      </trkpt>
      <trkpt lat="49.80377" lon="2.37836">
        <ele>68.3</ele>
        <time>2022-07-27T07:12:34Z</time>
      </trkpt>
      <trkpt lat="49.80376" lon="2.37835">
        <ele>68.4</ele>
        <time>2022-07-27T07:12:35Z</time>
      </trkpt>
      <trkpt lat="49.80375" lon="2.37834">
        <ele>68.5</ele>
        <time>2022-07-27T07:12:36Z</time>
      </trkpt>
      <trkpt lat="49.80375" lon="2.37832">
        <ele>68.6</ele>
        <time>2022-07-27T07:12:37Z</time>
      </trkpt>
      <trkpt lat="49.80374" lon="2.37831">
        <ele>68.7</ele>
        <time>2022-07-27T07:12:38Z</time>
      </trkpt>
      <trkpt lat="49.80373" lon="2.3783">
        <ele>68.8</ele>
        <time>2022-07-27T07:12:39Z</time>
      </trkpt>
      <trkpt lat="49.80373" lon="2.37829">
        <ele>68.9</ele>
        <time>2022-07-27T07:12:40Z</time>
      </trkpt>
      <trkpt lat="49.80372" lon="2.37828">
        <ele>69</ele>
        <time>2022-07-27T07:12:41Z</time>
      </trkpt>
      <trkpt lat="49.80371" lon="2.37827">
        <ele>69.1</ele>
        <time>2022-07-27T07:12:42Z</time>
      </trkpt>
      <trkpt lat="49.8037" lon="2.37825">
        <ele>69.2</ele>
        <time>2022-07-27T07:12:43Z</time>
      </trkpt>
      <trkpt lat="49.80369" lon="2.37824">
        <ele>69.3</ele>
        <time>2022-07-27T07:12:44Z</time>
      </trkpt>
      <trkpt lat="49.80369" lon="2.37823">
        <ele>69.4</ele>
        <time>2022-07-27T07:12:45Z</time>
      </trkpt>
      <trkpt lat="49.80368" lon="2.37822">
        <ele>69.6</ele>
        <time>2022-07-27T07:12:46Z</time>
      </trkpt>
      <trkpt lat="49.80367" lon="2.37821">
        <ele>69.6</ele>
        <time>2022-07-27T07:12:47Z</time>
      </trkpt>
      <trkpt lat="49.80367" lon="2.3782">
        <ele>69.7</ele>
        <time>2022-07-27T07:12:48Z</time>
      </trkpt>
      <trkpt lat="49.80366" lon="2.37819">
        <ele>69.8</ele>
        <time>2022-07-27T07:12:49Z</time>
      </trkpt>
      <trkpt lat="49.80365" lon="2.37817">
        <ele>69.9</ele>
        <time>2022-07-27T07:12:50Z</time>
      </trkpt>
      <trkpt lat="49.80365" lon="2.37816">
        <ele>70.1</ele>
        <time>2022-07-27T07:12:51Z</time>
      </trkpt>
      <trkpt lat="49.80364" lon="2.37815">
        <ele>70.2</ele>
        <time>2022-07-27T07:12:52Z</time>
      </trkpt>
      <trkpt lat="49.80363" lon="2.37813">
        <ele>70.3</ele>
        <time>2022-07-27T07:12:53Z</time>
      </trkpt>
      <trkpt lat="49.80363" lon="2.37812">
        <ele>70.4</ele>
        <time>2022-07-27T07:12:54Z</time>
      </trkpt>
      <trkpt lat="49.80362" lon="2.37811">
        <ele>70.5</ele>
        <time>2022-07-27T07:12:55Z</time>
      </trkpt>
      <trkpt lat="49.80361" lon="2.37809">
        <ele>70.7</ele>
        <time>2022-07-27T07:12:56Z</time>
      </trkpt>
      <trkpt lat="49.80361" lon="2.37808">
        <ele>70.7</ele>
        <time>2022-07-27T07:12:57Z</time>
      </trkpt>
      <trkpt lat="49.8036" lon="2.37806">
        <ele>70.9</ele>
        <time>2022-07-27T07:12:58Z</time>
      </trkpt>
      <trkpt lat="49.80359" lon="2.37806">
        <ele>71</ele>
        <time>2022-07-27T07:12:59Z</time>
      </trkpt>
      <trkpt lat="49.80359" lon="2.37805">
        <ele>71.1</ele>
        <time>2022-07-27T07:13:00Z</time>
      </trkpt>
      <trkpt lat="49.80358" lon="2.37804">
        <ele>71.2</ele>
        <time>2022-07-27T07:13:01Z</time>
      </trkpt>
      <trkpt lat="49.80358" lon="2.37803">
        <ele>71.2</ele>
        <time>2022-07-27T07:13:02Z</time>
      </trkpt>
      <trkpt lat="49.80357" lon="2.37802">
        <ele>71.3</ele>
        <time>2022-07-27T07:13:03Z</time>
      </trkpt>
      <trkpt lat="49.80356" lon="2.37801">
        <ele>71.4</ele>
        <time>2022-07-27T07:13:04Z</time>
      </trkpt>
      <trkpt lat="49.80356" lon="2.378">
        <ele>71.5</ele>
        <time>2022-07-27T07:13:05Z</time>
      </trkpt>
      <trkpt lat="49.80355" lon="2.37799">
        <ele>71.6</ele>
        <time>2022-07-27T07:13:06Z</time>
      </trkpt>
      <trkpt lat="49.80355" lon="2.37799">
        <ele>71.7</ele>
        <time>2022-07-27T07:13:07Z</time>
      </trkpt>
      <trkpt lat="49.80354" lon="2.37798">
        <ele>71.8</ele>
        <time>2022-07-27T07:13:08Z</time>
      </trkpt>
      <trkpt lat="49.80353" lon="2.37797">
        <ele>71.9</ele>
        <time>2022-07-27T07:13:09Z</time>
      </trkpt>
      <trkpt lat="49.80353" lon="2.37796">
        <ele>72</ele>
        <time>2022-07-27T07:13:10Z</time>
      </trkpt>
      <trkpt lat="49.80352" lon="2.37795">
        <ele>72.1</ele>
        <time>2022-07-27T07:13:11Z</time>
      </trkpt>
      <trkpt lat="49.80351" lon="2.37795">
        <ele>72.2</ele>
        <time>2022-07-27T07:13:12Z</time>
      </trkpt>
      <trkpt lat="49.8035" lon="2.37794">
        <ele>72.3</ele>
        <time>2022-07-27T07:13:13Z</time>
      </trkpt>
      <trkpt lat="49.8035" lon="2.37793">
        <ele>72.4</ele>
        <time>2022-07-27T07:13:14Z</time>
      </trkpt>
      <trkpt lat="49.80349" lon="2.37792">
        <ele>72.5</ele>
        <time>2022-07-27T07:13:15Z</time>
      </trkpt>
      <trkpt lat="49.80348" lon="2.37791">
        <ele>72.6</ele>
        <time>2022-07-27T07:13:16Z</time>
      </trkpt>
      <trkpt lat="49.80348" lon="2.37791">
        <ele>72.7</ele>
        <time>2022-07-27T07:13:17Z</time>
      </trkpt>
      <trkpt lat="49.80347" lon="2.3779">
        <ele>72.7</ele>
        <time>2022-07-27T07:13:18Z</time>
      </trkpt>
      <trkpt lat="49.80346" lon="2.3779">
        <ele>72.8</ele>
        <time>2022-07-27T07:13:19Z</time>
      </trkpt>
      <trkpt lat="49.80346" lon="2.37789">
        <ele>72.9</ele>
        <time>2022-07-27T07:13:20Z</time>
      </trkpt>
      <trkpt lat="49.80345" lon="2.37789">
        <ele>73</ele>
        <time>2022-07-27T07:13:21Z</time>
      </trkpt>
      <trkpt lat="49.80345" lon="2.37788">
        <ele>73.1</ele>
        <time>2022-07-27T07:13:22Z</time>
      </trkpt>
      <trkpt lat="49.80344" lon="2.37788">
        <ele>73.1</ele>
        <time>2022-07-27T07:13:23Z</time>
      </trkpt>
      <trkpt lat="49.80344" lon="2.37787">
        <ele>73.2</ele>
        <time>2022-07-27T07:13:24Z</time>
      </trkpt>
      <trkpt lat="49.80343" lon="2.37787">
        <ele>73.3</ele>
        <time>2022-07-27T07:13:25Z</time>
      </trkpt>
      <trkpt lat="49.80342" lon="2.37788">
        <ele>73.3</ele>
        <time>2022-07-27T07:13:26Z</time>
      </trkpt>
      <trkpt lat="49.80342" lon="2.37788">
        <ele>73.4</ele>
        <time>2022-07-27T07:13:27Z</time>
      </trkpt>
      <trkpt lat="49.80342" lon="2.37788">
        <ele>73.4</ele>
        <time>2022-07-27T07:13:28Z</time>
      </trkpt>
      <trkpt lat="49.80342" lon="2.37788">
        <ele>73.4</ele>
        <time>2022-07-27T07:13:29Z</time>
      </trkpt>
      <trkpt lat="49.80342" lon="2.37789">
        <ele>73.4</ele>
        <time>2022-07-27T07:13:30Z</time>
      </trkpt>
      <trkpt lat="49.80342" lon="2.37789">
        <ele>73.5</ele>
        <time>2022-07-27T07:13:31Z</time>
      </trkpt>
      <trkpt lat="49.80342" lon="2.37789">
        <ele>73.5</ele>
        <time>2022-07-27T07:13:32Z</time>
      </trkpt>
      <trkpt lat="49.80342" lon="2.37789">
        <ele>73.5</ele>
        <time>2022-07-27T07:13:33Z</time>
      </trkpt>
      <trkpt lat="49.80342" lon="2.37788">
        <ele>73.5</ele>
        <time>2022-07-27T07:13:34Z</time>
      </trkpt>
      <trkpt lat="49.80341" lon="2.37788">
        <ele>73.6</ele>
        <time>2022-07-27T07:13:35Z</time>
      </trkpt>
      <trkpt lat="49.80341" lon="2.37787">
        <ele>73.7</ele>
        <time>2022-07-27T07:13:36Z</time>
      </trkpt>
      <trkpt lat="49.8034" lon="2.37787">
        <ele>73.8</ele>
        <time>2022-07-27T07:13:37Z</time>
      </trkpt>
      <trkpt lat="49.8034" lon="2.37787">
        <ele>73.8</ele>
        <time>2022-07-27T07:13:38Z</time>
      </trkpt>
      <trkpt lat="49.80339" lon="2.37787">
        <ele>73.8</ele>
        <time>2022-07-27T07:13:39Z</time>
      </trkpt>
      <trkpt lat="49.80339" lon="2.37787">
        <ele>73.9</ele>
        <time>2022-07-27T07:13:40Z</time>
      </trkpt>
      <trkpt lat="49.80339" lon="2.37787">
        <ele>73.9</ele>
        <time>2022-07-27T07:13:41Z</time>
      </trkpt>
      <trkpt lat="49.80339" lon="2.37787">
        <ele>73.9</ele>
        <time>2022-07-27T07:13:42Z</time>
      </trkpt>
      <trkpt lat="49.80339" lon="2.37787">
        <ele>73.9</ele>
        <time>2022-07-27T07:13:43Z</time>
      </trkpt>
      <trkpt lat="49.80339" lon="2.37787">
        <ele>73.9</ele>
        <time>2022-07-27T07:13:44Z</time>
      </trkpt>
      <trkpt lat="49.80339" lon="2.37787">
        <ele>73.9</ele>
        <time>2022-07-27T07:13:45Z</time>
      </trkpt>
      <trkpt lat="49.80339" lon="2.37787">
        <ele>73.9</ele>
        <time>2022-07-27T07:13:46Z</time>
      </trkpt>
      <trkpt lat="49.80339" lon="2.37787">
        <ele>73.9</ele>
        <time>2022-07-27T07:13:47Z</time>
      </trkpt>
      <trkpt lat="49.80339" lon="2.37787">
        <ele>73.9</ele>
        <time>2022-07-27T07:13:48Z</time>
      </trkpt>
      <trkpt lat="49.80339" lon="2.37787">
        <ele>73.9</ele>
        <time>2022-07-27T07:13:49Z</time>
      </trkpt>
      <trkpt lat="49.80339" lon="2.37787">
        <ele>73.9</ele>
        <time>2022-07-27T07:13:50Z</time>
      </trkpt>
      <trkpt lat="49.80339" lon="2.37787">
        <ele>73.9</ele>
        <time>2022-07-27T07:13:51Z</time>
      </trkpt>
      <trkpt lat="49.80339" lon="2.37787">
        <ele>73.9</ele>
        <time>2022-07-27T07:13:52Z</time>
      </trkpt>
      <trkpt lat="49.80339" lon="2.37787">
        <ele>73.9</ele>
        <time>2022-07-27T07:13:53Z</time>
      </trkpt>
      <trkpt lat="49.80339" lon="2.37787">
        <ele>73.9</ele>
        <time>2022-07-27T07:13:54Z</time>
      </trkpt>
      <trkpt lat="49.80339" lon="2.37787">
        <ele>73.9</ele>
        <time>2022-07-27T07:13:55Z</time>
      </trkpt>
      <trkpt lat="49.80339" lon="2.37787">
        <ele>73.9</ele>
        <time>2022-07-27T07:13:56Z</time>
      </trkpt>
      <trkpt lat="49.8034" lon="2.37787">
        <ele>73.9</ele>
        <time>2022-07-27T07:13:57Z</time>
      </trkpt>
      <trkpt lat="49.8034" lon="2.37787">
        <ele>73.9</ele>
        <time>2022-07-27T07:13:58Z</time>
      </trkpt>
      <trkpt lat="49.8034" lon="2.37787">
        <ele>73.9</ele>
        <time>2022-07-27T07:13:59Z</time>
      </trkpt>
      <trkpt lat="49.8034" lon="2.37787">
        <ele>73.9</ele>
        <time>2022-07-27T07:14:00Z</time>
      </trkpt>
      <trkpt lat="49.8034" lon="2.37787">
        <ele>73.9</ele>
        <time>2022-07-27T07:14:01Z</time>
      </trkpt>
      <trkpt lat="49.8034" lon="2.37787">
        <ele>73.9</ele>
        <time>2022-07-27T07:14:02Z</time>
      </trkpt>
      <trkpt lat="49.8034" lon="2.37787">
        <ele>73.9</ele>
        <time>2022-07-27T07:14:03Z</time>
      </trkpt>
      <trkpt lat="49.8034" lon="2.37787">
        <ele>73.9</ele>
        <time>2022-07-27T07:14:04Z</time>
      </trkpt>
      <trkpt lat="49.8034" lon="2.37787">
        <ele>73.9</ele>
        <time>2022-07-27T07:14:05Z</time>
      </trkpt>
      <trkpt lat="49.8034" lon="2.37787">
        <ele>73.9</ele>
        <time>2022-07-27T07:14:06Z</time>
      </trkpt>
      <trkpt lat="49.8034" lon="2.37787">
        <ele>73.9</ele>
        <time>2022-07-27T07:14:07Z</time>
      </trkpt>
      <trkpt lat="49.8034" lon="2.37787">
        <ele>73.9</ele>
        <time>2022-07-27T07:14:08Z</time>
      </trkpt>
      <trkpt lat="49.8034" lon="2.37787">
        <ele>73.9</ele>
        <time>2022-07-27T07:14:09Z</time>
      </trkpt>
      <trkpt lat="49.8034" lon="2.37787">
        <ele>73.9</ele>
        <time>2022-07-27T07:14:10Z</time>
      </trkpt>
      <trkpt lat="49.8034" lon="2.37787">
        <ele>73.9</ele>
        <time>2022-07-27T07:14:11Z</time>
      </trkpt>
      <trkpt lat="49.8034" lon="2.37787">
        <ele>73.9</ele>
        <time>2022-07-27T07:14:12Z</time>
      </trkpt>
      <trkpt lat="49.8034" lon="2.37787">
        <ele>73.9</ele>
        <time>2022-07-27T07:14:13Z</time>
      </trkpt>
      <trkpt lat="49.8034" lon="2.37787">
        <ele>73.9</ele>
        <time>2022-07-27T07:14:14Z</time>
      </trkpt>
      <trkpt lat="49.8034" lon="2.37787">
        <ele>73.9</ele>
        <time>2022-07-27T07:14:15Z</time>
      </trkpt>
      <trkpt lat="49.8034" lon="2.37787">
        <ele>73.9</ele>
        <time>2022-07-27T07:14:16Z</time>
      </trkpt>
      <trkpt lat="49.8034" lon="2.37787">
        <ele>73.9</ele>
        <time>2022-07-27T07:14:17Z</time>
      </trkpt>
      <trkpt lat="49.8034" lon="2.37787">
        <ele>73.9</ele>
        <time>2022-07-27T07:14:18Z</time>
      </trkpt>
      <trkpt lat="49.8034" lon="2.37787">
        <ele>73.9</ele>
        <time>2022-07-27T07:14:19Z</time>
      </trkpt>
      <trkpt lat="49.8034" lon="2.37787">
        <ele>73.9</ele>
        <time>2022-07-27T07:14:20Z</time>
      </trkpt>
      <trkpt lat="49.8034" lon="2.37787">
        <ele>73.9</ele>
        <time>2022-07-27T07:14:21Z</time>
      </trkpt>
      <trkpt lat="49.8034" lon="2.37787">
        <ele>73.9</ele>
        <time>2022-07-27T07:14:22Z</time>
      </trkpt>
      <trkpt lat="49.8034" lon="2.37787">
        <ele>73.9</ele>
        <time>2022-07-27T07:14:23Z</time>
      </trkpt>
      <trkpt lat="49.8034" lon="2.37787">
        <ele>73.9</ele>
        <time>2022-07-27T07:14:24Z</time>
      </trkpt>
      <trkpt lat="49.8034" lon="2.37787">
        <ele>73.9</ele>
        <time>2022-07-27T07:14:25Z</time>
      </trkpt>
      <trkpt lat="49.8034" lon="2.37787">
        <ele>73.9</ele>
        <time>2022-07-27T07:14:26Z</time>
      </trkpt>
      <trkpt lat="49.8034" lon="2.37787">
        <ele>73.9</ele>
        <time>2022-07-27T07:14:27Z</time>
      </trkpt>
      <trkpt lat="49.8034" lon="2.37787">
        <ele>73.9</ele>
        <time>2022-07-27T07:14:28Z</time>
      </trkpt>
      <trkpt lat="49.8034" lon="2.37787">
        <ele>73.9</ele>
        <time>2022-07-27T07:14:29Z</time>
      </trkpt>
      <trkpt lat="49.8034" lon="2.37787">
        <ele>73.9</ele>
        <time>2022-07-27T07:14:30Z</time>
      </trkpt>
      <trkpt lat="49.8034" lon="2.37787">
        <ele>73.9</ele>
        <time>2022-07-27T07:14:31Z</time>
      </trkpt>
      <trkpt lat="49.8034" lon="2.37787">
        <ele>73.9</ele>
        <time>2022-07-27T07:14:32Z</time>
      </trkpt>
      <trkpt lat="49.8034" lon="2.37787">
        <ele>73.9</ele>
        <time>2022-07-27T07:14:33Z</time>
      </trkpt>
      <trkpt lat="49.80343" lon="2.37788">
        <ele>74.1</ele>
        <time>2022-07-27T07:14:34Z</time>
      </trkpt>
      <trkpt lat="49.80344" lon="2.37788">
        <ele>74.2</ele>
        <time>2022-07-27T07:14:35Z</time>
      </trkpt>
      <trkpt lat="49.80344" lon="2.37788">
        <ele>74.2</ele>
        <time>2022-07-27T07:14:36Z</time>
      </trkpt>
      <trkpt lat="49.80343" lon="2.37788">
        <ele>74.2</ele>
        <time>2022-07-27T07:14:37Z</time>
      </trkpt>
      <trkpt lat="49.80342" lon="2.37788">
        <ele>74.3</ele>
        <time>2022-07-27T07:14:38Z</time>
      </trkpt>
      <trkpt lat="49.80342" lon="2.37788">
        <ele>74.3</ele>
        <time>2022-07-27T07:14:39Z</time>
      </trkpt>
      <trkpt lat="49.80341" lon="2.37788">
        <ele>74.4</ele>
        <time>2022-07-27T07:14:40Z</time>
      </trkpt>
      <trkpt lat="49.8034" lon="2.37787">
        <ele>74.4</ele>
        <time>2022-07-27T07:14:41Z</time>
      </trkpt>
      <trkpt lat="49.80338" lon="2.37787">
        <ele>74.6</ele>
        <time>2022-07-27T07:14:42Z</time>
      </trkpt>
      <trkpt lat="49.80337" lon="2.37787">
        <ele>74.6</ele>
        <time>2022-07-27T07:14:43Z</time>
      </trkpt>
      <trkpt lat="49.80337" lon="2.37787">
        <ele>74.6</ele>
        <time>2022-07-27T07:14:44Z</time>
      </trkpt>
      <trkpt lat="49.80336" lon="2.37787">
        <ele>74.7</ele>
        <time>2022-07-27T07:14:45Z</time>
      </trkpt>
      <trkpt lat="49.80335" lon="2.37787">
        <ele>74.8</ele>
        <time>2022-07-27T07:14:46Z</time>
      </trkpt>
      <trkpt lat="49.80334" lon="2.37787">
        <ele>74.8</ele>
        <time>2022-07-27T07:14:47Z</time>
      </trkpt>
      <trkpt lat="49.80333" lon="2.37786">
        <ele>74.9</ele>
        <time>2022-07-27T07:14:48Z</time>
      </trkpt>
      <trkpt lat="49.80332" lon="2.37786">
        <ele>75</ele>
        <time>2022-07-27T07:14:49Z</time>
      </trkpt>
      <trkpt lat="49.80331" lon="2.37785">
        <ele>75</ele>
        <time>2022-07-27T07:14:50Z</time>
      </trkpt>
      <trkpt lat="49.8033" lon="2.37784">
        <ele>75.1</ele>
        <time>2022-07-27T07:14:51Z</time>
      </trkpt>
      <trkpt lat="49.8033" lon="2.37784">
        <ele>75.1</ele>
        <time>2022-07-27T07:14:52Z</time>
      </trkpt>
      <trkpt lat="49.80329" lon="2.37783">
        <ele>75.2</ele>
        <time>2022-07-27T07:14:53Z</time>
      </trkpt>
      <trkpt lat="49.80329" lon="2.37783">
        <ele>75.3</ele>
        <time>2022-07-27T07:14:54Z</time>
      </trkpt>
      <trkpt lat="49.80328" lon="2.37783">
        <ele>75.3</ele>
        <time>2022-07-27T07:14:55Z</time>
      </trkpt>
      <trkpt lat="49.80327" lon="2.37782">
        <ele>75.4</ele>
        <time>2022-07-27T07:14:56Z</time>
      </trkpt>
      <trkpt lat="49.80327" lon="2.37782">
        <ele>75.4</ele>
        <time>2022-07-27T07:14:57Z</time>
      </trkpt>
      <trkpt lat="49.80326" lon="2.37781">
        <ele>75.5</ele>
        <time>2022-07-27T07:14:58Z</time>
      </trkpt>
      <trkpt lat="49.80325" lon="2.37781">
        <ele>75.5</ele>
        <time>2022-07-27T07:14:59Z</time>
      </trkpt>
      <trkpt lat="49.80325" lon="2.37781">
        <ele>75.6</ele>
        <time>2022-07-27T07:15:00Z</time>
      </trkpt>
      <trkpt lat="49.80323" lon="2.3778">
        <ele>75.7</ele>
        <time>2022-07-27T07:15:01Z</time>
      </trkpt>
      <trkpt lat="49.80322" lon="2.3778">
        <ele>75.8</ele>
        <time>2022-07-27T07:15:02Z</time>
      </trkpt>
      <trkpt lat="49.80322" lon="2.37779">
        <ele>75.8</ele>
        <time>2022-07-27T07:15:04Z</time>
      </trkpt>
      <trkpt lat="49.80321" lon="2.37779">
        <ele>75.9</ele>
        <time>2022-07-27T07:15:05Z</time>
      </trkpt>
      <trkpt lat="49.8032" lon="2.37778">
        <ele>76</ele>
        <time>2022-07-27T07:15:06Z</time>
      </trkpt>
      <trkpt lat="49.80319" lon="2.37778">
        <ele>76</ele>
        <time>2022-07-27T07:15:07Z</time>
      </trkpt>
      <trkpt lat="49.80318" lon="2.37778">
        <ele>76.1</ele>
        <time>2022-07-27T07:15:08Z</time>
      </trkpt>
      <trkpt lat="49.80318" lon="2.37777">
        <ele>76.1</ele>
        <time>2022-07-27T07:15:09Z</time>
      </trkpt>
      <trkpt lat="49.80317" lon="2.37777">
        <ele>76.2</ele>
        <time>2022-07-27T07:15:10Z</time>
      </trkpt>
      <trkpt lat="49.80315" lon="2.37776">
        <ele>76.3</ele>
        <time>2022-07-27T07:15:11Z</time>
      </trkpt>
      <trkpt lat="49.80315" lon="2.37776">
        <ele>76.4</ele>
        <time>2022-07-27T07:15:12Z</time>
      </trkpt>
      <trkpt lat="49.80314" lon="2.37775">
        <ele>76.4</ele>
        <time>2022-07-27T07:15:13Z</time>
      </trkpt>
      <trkpt lat="49.80313" lon="2.37775">
        <ele>76.5</ele>
        <time>2022-07-27T07:15:14Z</time>
      </trkpt>
      <trkpt lat="49.80312" lon="2.37775">
        <ele>76.6</ele>
        <time>2022-07-27T07:15:15Z</time>
      </trkpt>
      <trkpt lat="49.80311" lon="2.37774">
        <ele>76.7</ele>
        <time>2022-07-27T07:15:16Z</time>
      </trkpt>
      <trkpt lat="49.8031" lon="2.37774">
        <ele>76.7</ele>
        <time>2022-07-27T07:15:17Z</time>
      </trkpt>
      <trkpt lat="49.80309" lon="2.37774">
        <ele>76.8</ele>
        <time>2022-07-27T07:15:18Z</time>
      </trkpt>
      <trkpt lat="49.80307" lon="2.37773">
        <ele>77</ele>
        <time>2022-07-27T07:15:19Z</time>
      </trkpt>
      <trkpt lat="49.80306" lon="2.37772">
        <ele>77</ele>
        <time>2022-07-27T07:15:20Z</time>
      </trkpt>
      <trkpt lat="49.80306" lon="2.37772">
        <ele>77.1</ele>
        <time>2022-07-27T07:15:21Z</time>
      </trkpt>
      <trkpt lat="49.80305" lon="2.37771">
        <ele>77.1</ele>
        <time>2022-07-27T07:15:22Z</time>
      </trkpt>
      <trkpt lat="49.80304" lon="2.37771">
        <ele>77.2</ele>
        <time>2022-07-27T07:15:23Z</time>
      </trkpt>
      <trkpt lat="49.80303" lon="2.37771">
        <ele>77.3</ele>
        <time>2022-07-27T07:15:24Z</time>
      </trkpt>
      <trkpt lat="49.80302" lon="2.3777">
        <ele>77.4</ele>
        <time>2022-07-27T07:15:25Z</time>
      </trkpt>
      <trkpt lat="49.80301" lon="2.3777">
        <ele>77.5</ele>
        <time>2022-07-27T07:15:26Z</time>
      </trkpt>
      <trkpt lat="49.803" lon="2.37769">
        <ele>77.5</ele>
        <time>2022-07-27T07:15:27Z</time>
      </trkpt>
      <trkpt lat="49.80299" lon="2.37769">
        <ele>77.6</ele>
        <time>2022-07-27T07:15:28Z</time>
      </trkpt>
      <trkpt lat="49.80298" lon="2.37769">
        <ele>77.7</ele>
        <time>2022-07-27T07:15:29Z</time>
      </trkpt>
      <trkpt lat="49.80298" lon="2.37768">
        <ele>77.7</ele>
        <time>2022-07-27T07:15:30Z</time>
      </trkpt>
      <trkpt lat="49.80296" lon="2.37768">
        <ele>77.8</ele>
        <time>2022-07-27T07:15:31Z</time>
      </trkpt>
      <trkpt lat="49.80296" lon="2.37768">
        <ele>77.9</ele>
        <time>2022-07-27T07:15:32Z</time>
      </trkpt>
      <trkpt lat="49.80295" lon="2.37768">
        <ele>77.9</ele>
        <time>2022-07-27T07:15:33Z</time>
      </trkpt>
      <trkpt lat="49.80294" lon="2.37767">
        <ele>78</ele>
        <time>2022-07-27T07:15:34Z</time>
      </trkpt>
      <trkpt lat="49.80294" lon="2.37767">
        <ele>78</ele>
        <time>2022-07-27T07:15:35Z</time>
      </trkpt>
      <trkpt lat="49.80292" lon="2.37766">
        <ele>78.2</ele>
        <time>2022-07-27T07:15:36Z</time>
      </trkpt>
      <trkpt lat="49.80292" lon="2.37765">
        <ele>78.2</ele>
        <time>2022-07-27T07:15:37Z</time>
      </trkpt>
      <trkpt lat="49.80291" lon="2.37765">
        <ele>78.3</ele>
        <time>2022-07-27T07:15:38Z</time>
      </trkpt>
      <trkpt lat="49.80291" lon="2.37765">
        <ele>78.3</ele>
        <time>2022-07-27T07:15:39Z</time>
      </trkpt>
      <trkpt lat="49.8029" lon="2.37765">
        <ele>78.4</ele>
        <time>2022-07-27T07:15:40Z</time>
      </trkpt>
      <trkpt lat="49.80289" lon="2.37764">
        <ele>78.4</ele>
        <time>2022-07-27T07:15:41Z</time>
      </trkpt>
      <trkpt lat="49.80288" lon="2.37763">
        <ele>78.5</ele>
        <time>2022-07-27T07:15:42Z</time>
      </trkpt>
      <trkpt lat="49.80287" lon="2.37763">
        <ele>78.6</ele>
        <time>2022-07-27T07:15:43Z</time>
      </trkpt>
      <trkpt lat="49.80287" lon="2.37763">
        <ele>78.6</ele>
        <time>2022-07-27T07:15:44Z</time>
      </trkpt>
      <trkpt lat="49.80286" lon="2.37762">
        <ele>78.7</ele>
        <time>2022-07-27T07:15:45Z</time>
      </trkpt>
      <trkpt lat="49.80285" lon="2.37762">
        <ele>78.7</ele>
        <time>2022-07-27T07:15:46Z</time>
      </trkpt>
      <trkpt lat="49.80284" lon="2.37761">
        <ele>78.8</ele>
        <time>2022-07-27T07:15:48Z</time>
      </trkpt>
      <trkpt lat="49.80284" lon="2.37762">
        <ele>78.9</ele>
        <time>2022-07-27T07:15:49Z</time>
      </trkpt>
      <trkpt lat="49.80283" lon="2.37763">
        <ele>78.9</ele>
        <time>2022-07-27T07:15:50Z</time>
      </trkpt>
      <trkpt lat="49.80283" lon="2.37764">
        <ele>79</ele>
        <time>2022-07-27T07:15:51Z</time>
      </trkpt>
      <trkpt lat="49.80283" lon="2.37765">
        <ele>79.1</ele>
        <time>2022-07-27T07:15:52Z</time>
      </trkpt>
      <trkpt lat="49.80282" lon="2.37765">
        <ele>79.1</ele>
        <time>2022-07-27T07:15:53Z</time>
      </trkpt>
      <trkpt lat="49.80282" lon="2.37766">
        <ele>79.1</ele>
        <time>2022-07-27T07:15:54Z</time>
      </trkpt>
      <trkpt lat="49.80281" lon="2.37766">
        <ele>79.2</ele>
        <time>2022-07-27T07:15:55Z</time>
      </trkpt>
      <trkpt lat="49.80281" lon="2.37765">
        <ele>79.3</ele>
        <time>2022-07-27T07:15:56Z</time>
      </trkpt>
      <trkpt lat="49.80279" lon="2.37765">
        <ele>79.4</ele>
        <time>2022-07-27T07:15:58Z</time>
      </trkpt>
      <trkpt lat="49.80278" lon="2.37765">
        <ele>79.4</ele>
        <time>2022-07-27T07:15:59Z</time>
      </trkpt>
      <trkpt lat="49.80278" lon="2.37765">
        <ele>79.5</ele>
        <time>2022-07-27T07:16:00Z</time>
      </trkpt>
      <trkpt lat="49.80277" lon="2.37765">
        <ele>79.5</ele>
        <time>2022-07-27T07:16:01Z</time>
      </trkpt>
      <trkpt lat="49.80276" lon="2.37764">
        <ele>79.6</ele>
        <time>2022-07-27T07:16:02Z</time>
      </trkpt>
      <trkpt lat="49.80274" lon="2.37763">
        <ele>79.7</ele>
        <time>2022-07-27T07:16:04Z</time>
      </trkpt>
      <trkpt lat="49.80274" lon="2.37763">
        <ele>79.8</ele>
        <time>2022-07-27T07:16:05Z</time>
      </trkpt>
      <trkpt lat="49.80273" lon="2.37762">
        <ele>79.9</ele>
        <time>2022-07-27T07:16:06Z</time>
      </trkpt>
      <trkpt lat="49.80272" lon="2.37762">
        <ele>79.9</ele>
        <time>2022-07-27T07:16:07Z</time>
      </trkpt>
      <trkpt lat="49.80271" lon="2.37761">
        <ele>80</ele>
        <time>2022-07-27T07:16:08Z</time>
      </trkpt>
      <trkpt lat="49.8027" lon="2.37761">
        <ele>80.1</ele>
        <time>2022-07-27T07:16:09Z</time>
      </trkpt>
      <trkpt lat="49.80269" lon="2.3776">
        <ele>80.2</ele>
        <time>2022-07-27T07:16:11Z</time>
      </trkpt>
      <trkpt lat="49.80267" lon="2.37759">
        <ele>80.3</ele>
        <time>2022-07-27T07:16:13Z</time>
      </trkpt>
      <trkpt lat="49.80266" lon="2.37758">
        <ele>80.4</ele>
        <time>2022-07-27T07:16:14Z</time>
      </trkpt>
      <trkpt lat="49.80262" lon="2.37755">
        <ele>80.7</ele>
        <time>2022-07-27T07:16:16Z</time>
      </trkpt>
      <trkpt lat="49.80261" lon="2.37754">
        <ele>80.8</ele>
        <time>2022-07-27T07:16:17Z</time>
      </trkpt>
      <trkpt lat="49.80258" lon="2.37753">
        <ele>81</ele>
        <time>2022-07-27T07:16:20Z</time>
      </trkpt>
      <trkpt lat="49.80255" lon="2.37752">
        <ele>81.2</ele>
        <time>2022-07-27T07:16:21Z</time>
      </trkpt>
      <trkpt lat="49.80254" lon="2.37751">
        <ele>81.3</ele>
        <time>2022-07-27T07:16:22Z</time>
      </trkpt>
      <trkpt lat="49.80254" lon="2.37751">
        <ele>81.3</ele>
        <time>2022-07-27T07:16:23Z</time>
      </trkpt>
      <trkpt lat="49.80254" lon="2.37751">
        <ele>81.3</ele>
        <time>2022-07-27T07:16:24Z</time>
      </trkpt>
      <trkpt lat="49.80253" lon="2.3775">
        <ele>81.4</ele>
        <time>2022-07-27T07:16:25Z</time>
      </trkpt>
      <trkpt lat="49.80253" lon="2.3775">
        <ele>81.4</ele>
        <time>2022-07-27T07:16:26Z</time>
      </trkpt>
      <trkpt lat="49.80252" lon="2.37749">
        <ele>81.4</ele>
        <time>2022-07-27T07:16:27Z</time>
      </trkpt>
      <trkpt lat="49.80252" lon="2.37749">
        <ele>81.5</ele>
        <time>2022-07-27T07:16:28Z</time>
      </trkpt>
      <trkpt lat="49.80251" lon="2.37748">
        <ele>81.5</ele>
        <time>2022-07-27T07:16:29Z</time>
      </trkpt>
      <trkpt lat="49.80251" lon="2.37748">
        <ele>81.6</ele>
        <time>2022-07-27T07:16:30Z</time>
      </trkpt>
      <trkpt lat="49.8025" lon="2.37747">
        <ele>81.6</ele>
        <time>2022-07-27T07:16:31Z</time>
      </trkpt>
      <trkpt lat="49.80249" lon="2.37747">
        <ele>81.7</ele>
        <time>2022-07-27T07:16:32Z</time>
      </trkpt>
      <trkpt lat="49.80248" lon="2.37747">
        <ele>81.7</ele>
        <time>2022-07-27T07:16:33Z</time>
      </trkpt>
      <trkpt lat="49.80248" lon="2.37746">
        <ele>81.8</ele>
        <time>2022-07-27T07:16:34Z</time>
      </trkpt>
      <trkpt lat="49.80247" lon="2.37746">
        <ele>81.8</ele>
        <time>2022-07-27T07:16:35Z</time>
      </trkpt>
      <trkpt lat="49.80246" lon="2.37745">
        <ele>81.9</ele>
        <time>2022-07-27T07:16:36Z</time>
      </trkpt>
      <trkpt lat="49.80245" lon="2.37744">
        <ele>82</ele>
        <time>2022-07-27T07:16:37Z</time>
      </trkpt>
      <trkpt lat="49.80244" lon="2.37744">
        <ele>82</ele>
        <time>2022-07-27T07:16:38Z</time>
      </trkpt>
      <trkpt lat="49.80244" lon="2.37743">
        <ele>82.1</ele>
        <time>2022-07-27T07:16:39Z</time>
      </trkpt>
      <trkpt lat="49.80243" lon="2.37742">
        <ele>82.1</ele>
        <time>2022-07-27T07:16:40Z</time>
      </trkpt>
      <trkpt lat="49.80242" lon="2.37742">
        <ele>82.2</ele>
        <time>2022-07-27T07:16:41Z</time>
      </trkpt>
      <trkpt lat="49.80241" lon="2.37742">
        <ele>82.3</ele>
        <time>2022-07-27T07:16:42Z</time>
      </trkpt>
      <trkpt lat="49.8024" lon="2.37741">
        <ele>82.3</ele>
        <time>2022-07-27T07:16:43Z</time>
      </trkpt>
      <trkpt lat="49.80239" lon="2.37741">
        <ele>82.4</ele>
        <time>2022-07-27T07:16:44Z</time>
      </trkpt>
      <trkpt lat="49.80239" lon="2.3774">
        <ele>82.5</ele>
        <time>2022-07-27T07:16:45Z</time>
      </trkpt>
      <trkpt lat="49.80238" lon="2.3774">
        <ele>82.5</ele>
        <time>2022-07-27T07:16:46Z</time>
      </trkpt>
      <trkpt lat="49.80237" lon="2.37739">
        <ele>82.6</ele>
        <time>2022-07-27T07:16:47Z</time>
      </trkpt>
      <trkpt lat="49.80236" lon="2.37739">
        <ele>82.7</ele>
        <time>2022-07-27T07:16:48Z</time>
      </trkpt>
      <trkpt lat="49.80235" lon="2.37739">
        <ele>82.7</ele>
        <time>2022-07-27T07:16:49Z</time>
      </trkpt>
      <trkpt lat="49.80234" lon="2.37738">
        <ele>82.8</ele>
        <time>2022-07-27T07:16:50Z</time>
      </trkpt>
      <trkpt lat="49.80233" lon="2.37738">
        <ele>82.9</ele>
        <time>2022-07-27T07:16:51Z</time>
      </trkpt>
      <trkpt lat="49.80232" lon="2.37738">
        <ele>82.9</ele>
        <time>2022-07-27T07:16:52Z</time>
      </trkpt>
      <trkpt lat="49.80231" lon="2.37737">
        <ele>83</ele>
        <time>2022-07-27T07:16:53Z</time>
      </trkpt>
      <trkpt lat="49.80231" lon="2.37737">
        <ele>83.1</ele>
        <time>2022-07-27T07:16:54Z</time>
      </trkpt>
      <trkpt lat="49.8023" lon="2.37736">
        <ele>83.1</ele>
        <time>2022-07-27T07:16:55Z</time>
      </trkpt>
      <trkpt lat="49.80229" lon="2.37736">
        <ele>83.2</ele>
        <time>2022-07-27T07:16:56Z</time>
      </trkpt>
      <trkpt lat="49.80229" lon="2.37735">
        <ele>83.2</ele>
        <time>2022-07-27T07:16:57Z</time>
      </trkpt>
      <trkpt lat="49.80227" lon="2.37734">
        <ele>83.4</ele>
        <time>2022-07-27T07:16:58Z</time>
      </trkpt>
      <trkpt lat="49.80226" lon="2.37734">
        <ele>83.4</ele>
        <time>2022-07-27T07:16:59Z</time>
      </trkpt>
      <trkpt lat="49.80225" lon="2.37733">
        <ele>83.5</ele>
        <time>2022-07-27T07:17:00Z</time>
      </trkpt>
      <trkpt lat="49.80224" lon="2.37733">
        <ele>83.6</ele>
        <time>2022-07-27T07:17:01Z</time>
      </trkpt>
      <trkpt lat="49.80224" lon="2.37732">
        <ele>83.6</ele>
        <time>2022-07-27T07:17:02Z</time>
      </trkpt>
      <trkpt lat="49.80223" lon="2.37732">
        <ele>83.7</ele>
        <time>2022-07-27T07:17:03Z</time>
      </trkpt>
      <trkpt lat="49.80221" lon="2.37731">
        <ele>83.8</ele>
        <time>2022-07-27T07:17:04Z</time>
      </trkpt>
      <trkpt lat="49.8022" lon="2.37731">
        <ele>83.9</ele>
        <time>2022-07-27T07:17:05Z</time>
      </trkpt>
      <trkpt lat="49.8022" lon="2.3773">
        <ele>84</ele>
        <time>2022-07-27T07:17:06Z</time>
      </trkpt>
      <trkpt lat="49.80217" lon="2.37729">
        <ele>84.1</ele>
        <time>2022-07-27T07:17:07Z</time>
      </trkpt>
      <trkpt lat="49.80216" lon="2.37728">
        <ele>84.2</ele>
        <time>2022-07-27T07:17:08Z</time>
      </trkpt>
      <trkpt lat="49.80214" lon="2.37727">
        <ele>84.4</ele>
        <time>2022-07-27T07:17:09Z</time>
      </trkpt>
      <trkpt lat="49.80213" lon="2.37726">
        <ele>84.4</ele>
        <time>2022-07-27T07:17:10Z</time>
      </trkpt>
      <trkpt lat="49.80213" lon="2.37725">
        <ele>84.5</ele>
        <time>2022-07-27T07:17:11Z</time>
      </trkpt>
      <trkpt lat="49.80212" lon="2.37725">
        <ele>84.6</ele>
        <time>2022-07-27T07:17:12Z</time>
      </trkpt>
      <trkpt lat="49.8021" lon="2.37724">
        <ele>84.7</ele>
        <time>2022-07-27T07:17:13Z</time>
      </trkpt>
      <trkpt lat="49.80209" lon="2.37723">
        <ele>84.7</ele>
        <time>2022-07-27T07:17:14Z</time>
      </trkpt>
      <trkpt lat="49.80209" lon="2.37722">
        <ele>84.8</ele>
        <time>2022-07-27T07:17:15Z</time>
      </trkpt>
      <trkpt lat="49.80208" lon="2.37721">
        <ele>84.9</ele>
        <time>2022-07-27T07:17:16Z</time>
      </trkpt>
      <trkpt lat="49.80207" lon="2.3772">
        <ele>84.9</ele>
        <time>2022-07-27T07:17:17Z</time>
      </trkpt>
      <trkpt lat="49.80206" lon="2.37719">
        <ele>85</ele>
        <time>2022-07-27T07:17:18Z</time>
      </trkpt>
      <trkpt lat="49.80205" lon="2.37718">
        <ele>85.1</ele>
        <time>2022-07-27T07:17:19Z</time>
      </trkpt>
      <trkpt lat="49.80204" lon="2.37717">
        <ele>85.1</ele>
        <time>2022-07-27T07:17:20Z</time>
      </trkpt>
      <trkpt lat="49.80204" lon="2.37716">
        <ele>85.2</ele>
        <time>2022-07-27T07:17:21Z</time>
      </trkpt>
      <trkpt lat="49.80203" lon="2.37716">
        <ele>85.3</ele>
        <time>2022-07-27T07:17:22Z</time>
      </trkpt>
      <trkpt lat="49.80202" lon="2.37714">
        <ele>85.3</ele>
        <time>2022-07-27T07:17:23Z</time>
      </trkpt>
      <trkpt lat="49.80201" lon="2.37714">
        <ele>85.4</ele>
        <time>2022-07-27T07:17:24Z</time>
      </trkpt>
      <trkpt lat="49.80201" lon="2.37713">
        <ele>85.4</ele>
        <time>2022-07-27T07:17:25Z</time>
      </trkpt>
      <trkpt lat="49.80199" lon="2.37711">
        <ele>85.6</ele>
        <time>2022-07-27T07:17:26Z</time>
      </trkpt>
      <trkpt lat="49.80198" lon="2.37711">
        <ele>85.6</ele>
        <time>2022-07-27T07:17:27Z</time>
      </trkpt>
      <trkpt lat="49.80198" lon="2.3771">
        <ele>85.7</ele>
        <time>2022-07-27T07:17:28Z</time>
      </trkpt>
      <trkpt lat="49.80197" lon="2.37709">
        <ele>85.7</ele>
        <time>2022-07-27T07:17:29Z</time>
      </trkpt>
      <trkpt lat="49.80197" lon="2.37708">
        <ele>85.7</ele>
        <time>2022-07-27T07:17:30Z</time>
      </trkpt>
      <trkpt lat="49.80196" lon="2.37708">
        <ele>85.8</ele>
        <time>2022-07-27T07:17:31Z</time>
      </trkpt>
      <trkpt lat="49.80195" lon="2.37707">
        <ele>85.9</ele>
        <time>2022-07-27T07:17:32Z</time>
      </trkpt>
      <trkpt lat="49.80194" lon="2.37705">
        <ele>85.9</ele>
        <time>2022-07-27T07:17:33Z</time>
      </trkpt>
      <trkpt lat="49.80193" lon="2.37704">
        <ele>86</ele>
        <time>2022-07-27T07:17:34Z</time>
      </trkpt>
      <trkpt lat="49.80193" lon="2.37703">
        <ele>86.1</ele>
        <time>2022-07-27T07:17:35Z</time>
      </trkpt>
      <trkpt lat="49.80192" lon="2.37702">
        <ele>86.1</ele>
        <time>2022-07-27T07:17:36Z</time>
      </trkpt>
      <trkpt lat="49.80191" lon="2.37701">
        <ele>86.2</ele>
        <time>2022-07-27T07:17:37Z</time>
      </trkpt>
      <trkpt lat="49.8019" lon="2.377">
        <ele>86.2</ele>
        <time>2022-07-27T07:17:38Z</time>
      </trkpt>
      <trkpt lat="49.80189" lon="2.37699">
        <ele>86.3</ele>
        <time>2022-07-27T07:17:39Z</time>
      </trkpt>
      <trkpt lat="49.80189" lon="2.37698">
        <ele>86.4</ele>
        <time>2022-07-27T07:17:40Z</time>
      </trkpt>
      <trkpt lat="49.80188" lon="2.37698">
        <ele>86.4</ele>
        <time>2022-07-27T07:17:41Z</time>
      </trkpt>
      <trkpt lat="49.80187" lon="2.37697">
        <ele>86.5</ele>
        <time>2022-07-27T07:17:42Z</time>
      </trkpt>
      <trkpt lat="49.80187" lon="2.37696">
        <ele>86.5</ele>
        <time>2022-07-27T07:17:43Z</time>
      </trkpt>
      <trkpt lat="49.80185" lon="2.37695">
        <ele>86.6</ele>
        <time>2022-07-27T07:17:44Z</time>
      </trkpt>
      <trkpt lat="49.80185" lon="2.37694">
        <ele>86.7</ele>
        <time>2022-07-27T07:17:45Z</time>
      </trkpt>
      <trkpt lat="49.80184" lon="2.37693">
        <ele>86.7</ele>
        <time>2022-07-27T07:17:46Z</time>
      </trkpt>
      <trkpt lat="49.80183" lon="2.37692">
        <ele>86.8</ele>
        <time>2022-07-27T07:17:47Z</time>
      </trkpt>
      <trkpt lat="49.80182" lon="2.37692">
        <ele>86.9</ele>
        <time>2022-07-27T07:17:48Z</time>
      </trkpt>
      <trkpt lat="49.80182" lon="2.37691">
        <ele>86.9</ele>
        <time>2022-07-27T07:17:49Z</time>
      </trkpt>
      <trkpt lat="49.80181" lon="2.3769">
        <ele>87</ele>
        <time>2022-07-27T07:17:50Z</time>
      </trkpt>
      <trkpt lat="49.8018" lon="2.37689">
        <ele>87.1</ele>
        <time>2022-07-27T07:17:51Z</time>
      </trkpt>
      <trkpt lat="49.80179" lon="2.37689">
        <ele>87.1</ele>
        <time>2022-07-27T07:17:52Z</time>
      </trkpt>
      <trkpt lat="49.80178" lon="2.37688">
        <ele>87.2</ele>
        <time>2022-07-27T07:17:53Z</time>
      </trkpt>
      <trkpt lat="49.80177" lon="2.37687">
        <ele>87.3</ele>
        <time>2022-07-27T07:17:54Z</time>
      </trkpt>
      <trkpt lat="49.80176" lon="2.37686">
        <ele>87.3</ele>
        <time>2022-07-27T07:17:55Z</time>
      </trkpt>
      <trkpt lat="49.80176" lon="2.37686">
        <ele>87.4</ele>
        <time>2022-07-27T07:17:56Z</time>
      </trkpt>
      <trkpt lat="49.80175" lon="2.37685">
        <ele>87.4</ele>
        <time>2022-07-27T07:17:57Z</time>
      </trkpt>
      <trkpt lat="49.80174" lon="2.37685">
        <ele>87.5</ele>
        <time>2022-07-27T07:17:58Z</time>
      </trkpt>
      <trkpt lat="49.80173" lon="2.37684">
        <ele>87.6</ele>
        <time>2022-07-27T07:17:59Z</time>
      </trkpt>
      <trkpt lat="49.80172" lon="2.37683">
        <ele>87.7</ele>
        <time>2022-07-27T07:18:00Z</time>
      </trkpt>
      <trkpt lat="49.80172" lon="2.37682">
        <ele>87.7</ele>
        <time>2022-07-27T07:18:01Z</time>
      </trkpt>
      <trkpt lat="49.80171" lon="2.37682">
        <ele>87.8</ele>
        <time>2022-07-27T07:18:02Z</time>
      </trkpt>
      <trkpt lat="49.8017" lon="2.37681">
        <ele>87.8</ele>
        <time>2022-07-27T07:18:03Z</time>
      </trkpt>
      <trkpt lat="49.80169" lon="2.3768">
        <ele>87.9</ele>
        <time>2022-07-27T07:18:04Z</time>
      </trkpt>
      <trkpt lat="49.80169" lon="2.37679">
        <ele>87.9</ele>
        <time>2022-07-27T07:18:05Z</time>
      </trkpt>
      <trkpt lat="49.80168" lon="2.37679">
        <ele>88</ele>
        <time>2022-07-27T07:18:06Z</time>
      </trkpt>
      <trkpt lat="49.80167" lon="2.37678">
        <ele>88.1</ele>
        <time>2022-07-27T07:18:07Z</time>
      </trkpt>
      <trkpt lat="49.80166" lon="2.37678">
        <ele>88.1</ele>
        <time>2022-07-27T07:18:08Z</time>
      </trkpt>
      <trkpt lat="49.80165" lon="2.37677">
        <ele>88.2</ele>
        <time>2022-07-27T07:18:09Z</time>
      </trkpt>
      <trkpt lat="49.80165" lon="2.37676">
        <ele>88.3</ele>
        <time>2022-07-27T07:18:10Z</time>
      </trkpt>
      <trkpt lat="49.80164" lon="2.37675">
        <ele>88.3</ele>
        <time>2022-07-27T07:18:11Z</time>
      </trkpt>
      <trkpt lat="49.80163" lon="2.37674">
        <ele>88.4</ele>
        <time>2022-07-27T07:18:12Z</time>
      </trkpt>
      <trkpt lat="49.80162" lon="2.37674">
        <ele>88.5</ele>
        <time>2022-07-27T07:18:13Z</time>
      </trkpt>
      <trkpt lat="49.80161" lon="2.37673">
        <ele>88.6</ele>
        <time>2022-07-27T07:18:14Z</time>
      </trkpt>
      <trkpt lat="49.8016" lon="2.37671">
        <ele>88.7</ele>
        <time>2022-07-27T07:18:15Z</time>
      </trkpt>
      <trkpt lat="49.80159" lon="2.37671">
        <ele>88.7</ele>
        <time>2022-07-27T07:18:16Z</time>
      </trkpt>
      <trkpt lat="49.80159" lon="2.3767">
        <ele>88.8</ele>
        <time>2022-07-27T07:18:17Z</time>
      </trkpt>
      <trkpt lat="49.80158" lon="2.3767">
        <ele>88.8</ele>
        <time>2022-07-27T07:18:18Z</time>
      </trkpt>
      <trkpt lat="49.80157" lon="2.37669">
        <ele>88.9</ele>
        <time>2022-07-27T07:18:19Z</time>
      </trkpt>
      <trkpt lat="49.80156" lon="2.37668">
        <ele>89</ele>
        <time>2022-07-27T07:18:20Z</time>
      </trkpt>
      <trkpt lat="49.80155" lon="2.37668">
        <ele>89</ele>
        <time>2022-07-27T07:18:21Z</time>
      </trkpt>
      <trkpt lat="49.80154" lon="2.37666">
        <ele>89.2</ele>
        <time>2022-07-27T07:18:22Z</time>
      </trkpt>
      <trkpt lat="49.80153" lon="2.37665">
        <ele>89.2</ele>
        <time>2022-07-27T07:18:23Z</time>
      </trkpt>
      <trkpt lat="49.80152" lon="2.37665">
        <ele>89.3</ele>
        <time>2022-07-27T07:18:24Z</time>
      </trkpt>
      <trkpt lat="49.80151" lon="2.37664">
        <ele>89.3</ele>
        <time>2022-07-27T07:18:25Z</time>
      </trkpt>
      <trkpt lat="49.8015" lon="2.37664">
        <ele>89.4</ele>
        <time>2022-07-27T07:18:26Z</time>
      </trkpt>
      <trkpt lat="49.80149" lon="2.37663">
        <ele>89.5</ele>
        <time>2022-07-27T07:18:27Z</time>
      </trkpt>
      <trkpt lat="49.80149" lon="2.37662">
        <ele>89.5</ele>
        <time>2022-07-27T07:18:28Z</time>
      </trkpt>
      <trkpt lat="49.80147" lon="2.37661">
        <ele>89.6</ele>
        <time>2022-07-27T07:18:29Z</time>
      </trkpt>
      <trkpt lat="49.80146" lon="2.37661">
        <ele>89.7</ele>
        <time>2022-07-27T07:18:30Z</time>
      </trkpt>
      <trkpt lat="49.80145" lon="2.37661">
        <ele>89.7</ele>
        <time>2022-07-27T07:18:31Z</time>
      </trkpt>
      <trkpt lat="49.80145" lon="2.3766">
        <ele>89.8</ele>
        <time>2022-07-27T07:18:32Z</time>
      </trkpt>
      <trkpt lat="49.80144" lon="2.3766">
        <ele>89.8</ele>
        <time>2022-07-27T07:18:33Z</time>
      </trkpt>
      <trkpt lat="49.80142" lon="2.37659">
        <ele>89.9</ele>
        <time>2022-07-27T07:18:34Z</time>
      </trkpt>
      <trkpt lat="49.80142" lon="2.37658">
        <ele>90</ele>
        <time>2022-07-27T07:18:35Z</time>
      </trkpt>
      <trkpt lat="49.80141" lon="2.37658">
        <ele>90</ele>
        <time>2022-07-27T07:18:36Z</time>
      </trkpt>
      <trkpt lat="49.8014" lon="2.37657">
        <ele>90.1</ele>
        <time>2022-07-27T07:18:37Z</time>
      </trkpt>
      <trkpt lat="49.80139" lon="2.37656">
        <ele>90.2</ele>
        <time>2022-07-27T07:18:38Z</time>
      </trkpt>
      <trkpt lat="49.80138" lon="2.37655">
        <ele>90.2</ele>
        <time>2022-07-27T07:18:39Z</time>
      </trkpt>
      <trkpt lat="49.80137" lon="2.37655">
        <ele>90.3</ele>
        <time>2022-07-27T07:18:40Z</time>
      </trkpt>
      <trkpt lat="49.80136" lon="2.37654">
        <ele>90.3</ele>
        <time>2022-07-27T07:18:41Z</time>
      </trkpt>
      <trkpt lat="49.80135" lon="2.37653">
        <ele>90.4</ele>
        <time>2022-07-27T07:18:42Z</time>
      </trkpt>
      <trkpt lat="49.80134" lon="2.37652">
        <ele>90.5</ele>
        <time>2022-07-27T07:18:43Z</time>
      </trkpt>
      <trkpt lat="49.80133" lon="2.37651">
        <ele>90.6</ele>
        <time>2022-07-27T07:18:44Z</time>
      </trkpt>
      <trkpt lat="49.80132" lon="2.37651">
        <ele>90.6</ele>
        <time>2022-07-27T07:18:45Z</time>
      </trkpt>
      <trkpt lat="49.80132" lon="2.3765">
        <ele>90.7</ele>
        <time>2022-07-27T07:18:46Z</time>
      </trkpt>
      <trkpt lat="49.80131" lon="2.37649">
        <ele>90.7</ele>
        <time>2022-07-27T07:18:47Z</time>
      </trkpt>
      <trkpt lat="49.8013" lon="2.37649">
        <ele>90.8</ele>
        <time>2022-07-27T07:18:48Z</time>
      </trkpt>
      <trkpt lat="49.80129" lon="2.37647">
        <ele>90.9</ele>
        <time>2022-07-27T07:18:49Z</time>
      </trkpt>
      <trkpt lat="49.80128" lon="2.37647">
        <ele>90.9</ele>
        <time>2022-07-27T07:18:50Z</time>
      </trkpt>
      <trkpt lat="49.80127" lon="2.37646">
        <ele>91</ele>
        <time>2022-07-27T07:18:51Z</time>
      </trkpt>
      <trkpt lat="49.80126" lon="2.37644">
        <ele>91.1</ele>
        <time>2022-07-27T07:18:52Z</time>
      </trkpt>
      <trkpt lat="49.80125" lon="2.37643">
        <ele>91.1</ele>
        <time>2022-07-27T07:18:53Z</time>
      </trkpt>
      <trkpt lat="49.80125" lon="2.37642">
        <ele>91.2</ele>
        <time>2022-07-27T07:18:54Z</time>
      </trkpt>
      <trkpt lat="49.80124" lon="2.37642">
        <ele>91.2</ele>
        <time>2022-07-27T07:18:55Z</time>
      </trkpt>
      <trkpt lat="49.80124" lon="2.37641">
        <ele>91.3</ele>
        <time>2022-07-27T07:18:56Z</time>
      </trkpt>
      <trkpt lat="49.80123" lon="2.3764">
        <ele>91.3</ele>
        <time>2022-07-27T07:18:57Z</time>
      </trkpt>
      <trkpt lat="49.80122" lon="2.37639">
        <ele>91.4</ele>
        <time>2022-07-27T07:18:58Z</time>
      </trkpt>
      <trkpt lat="49.80121" lon="2.37638">
        <ele>91.4</ele>
        <time>2022-07-27T07:18:59Z</time>
      </trkpt>
      <trkpt lat="49.80121" lon="2.37637">
        <ele>91.5</ele>
        <time>2022-07-27T07:19:00Z</time>
      </trkpt>
      <trkpt lat="49.8012" lon="2.37636">
        <ele>91.5</ele>
        <time>2022-07-27T07:19:01Z</time>
      </trkpt>
      <trkpt lat="49.80119" lon="2.37634">
        <ele>91.6</ele>
        <time>2022-07-27T07:19:02Z</time>
      </trkpt>
      <trkpt lat="49.80119" lon="2.37633">
        <ele>91.7</ele>
        <time>2022-07-27T07:19:03Z</time>
      </trkpt>
      <trkpt lat="49.80118" lon="2.37632">
        <ele>91.7</ele>
        <time>2022-07-27T07:19:04Z</time>
      </trkpt>
      <trkpt lat="49.80118" lon="2.37631">
        <ele>91.8</ele>
        <time>2022-07-27T07:19:05Z</time>
      </trkpt>
      <trkpt lat="49.80117" lon="2.3763">
        <ele>91.8</ele>
        <time>2022-07-27T07:19:06Z</time>
      </trkpt>
      <trkpt lat="49.80116" lon="2.37629">
        <ele>91.9</ele>
        <time>2022-07-27T07:19:07Z</time>
      </trkpt>
      <trkpt lat="49.80116" lon="2.37628">
        <ele>91.9</ele>
        <time>2022-07-27T07:19:08Z</time>
      </trkpt>
      <trkpt lat="49.80115" lon="2.37627">
        <ele>92</ele>
        <time>2022-07-27T07:19:09Z</time>
      </trkpt>
      <trkpt lat="49.80115" lon="2.37626">
        <ele>92</ele>
        <time>2022-07-27T07:19:10Z</time>
      </trkpt>
      <trkpt lat="49.80114" lon="2.37625">
        <ele>92.1</ele>
        <time>2022-07-27T07:19:11Z</time>
      </trkpt>
      <trkpt lat="49.80114" lon="2.37624">
        <ele>92.1</ele>
        <time>2022-07-27T07:19:12Z</time>
      </trkpt>
      <trkpt lat="49.80113" lon="2.37623">
        <ele>92.2</ele>
        <time>2022-07-27T07:19:13Z</time>
      </trkpt>
      <trkpt lat="49.80112" lon="2.37622">
        <ele>92.3</ele>
        <time>2022-07-27T07:19:14Z</time>
      </trkpt>
      <trkpt lat="49.80112" lon="2.37621">
        <ele>92.3</ele>
        <time>2022-07-27T07:19:15Z</time>
      </trkpt>
      <trkpt lat="49.80112" lon="2.3762">
        <ele>92.3</ele>
        <time>2022-07-27T07:19:16Z</time>
      </trkpt>
      <trkpt lat="49.80111" lon="2.3762">
        <ele>92.3</ele>
        <time>2022-07-27T07:19:17Z</time>
      </trkpt>
      <trkpt lat="49.80111" lon="2.37619">
        <ele>92.4</ele>
        <time>2022-07-27T07:19:18Z</time>
      </trkpt>
      <trkpt lat="49.8011" lon="2.37618">
        <ele>92.4</ele>
        <time>2022-07-27T07:19:19Z</time>
      </trkpt>
      <trkpt lat="49.8011" lon="2.37618">
        <ele>92.4</ele>
        <time>2022-07-27T07:19:20Z</time>
      </trkpt>
      <trkpt lat="49.8011" lon="2.37617">
        <ele>92.5</ele>
        <time>2022-07-27T07:19:21Z</time>
      </trkpt>
      <trkpt lat="49.80109" lon="2.37617">
        <ele>92.5</ele>
        <time>2022-07-27T07:19:22Z</time>
      </trkpt>
      <trkpt lat="49.80109" lon="2.37616">
        <ele>92.5</ele>
        <time>2022-07-27T07:19:23Z</time>
      </trkpt>
      <trkpt lat="49.80108" lon="2.37616">
        <ele>92.6</ele>
        <time>2022-07-27T07:19:24Z</time>
      </trkpt>
      <trkpt lat="49.80107" lon="2.37616">
        <ele>92.6</ele>
        <time>2022-07-27T07:19:25Z</time>
      </trkpt>
      <trkpt lat="49.80107" lon="2.37615">
        <ele>92.6</ele>
        <time>2022-07-27T07:19:26Z</time>
      </trkpt>
      <trkpt lat="49.80106" lon="2.37615">
        <ele>92.7</ele>
        <time>2022-07-27T07:19:27Z</time>
      </trkpt>
      <trkpt lat="49.80106" lon="2.37615">
        <ele>92.7</ele>
        <time>2022-07-27T07:19:28Z</time>
      </trkpt>
      <trkpt lat="49.80105" lon="2.37616">
        <ele>92.7</ele>
        <time>2022-07-27T07:19:29Z</time>
      </trkpt>
      <trkpt lat="49.80105" lon="2.37616">
        <ele>92.8</ele>
        <time>2022-07-27T07:19:30Z</time>
      </trkpt>
      <trkpt lat="49.80105" lon="2.37617">
        <ele>92.8</ele>
        <time>2022-07-27T07:19:31Z</time>
      </trkpt>
      <trkpt lat="49.80105" lon="2.37617">
        <ele>92.8</ele>
        <time>2022-07-27T07:19:32Z</time>
      </trkpt>
      <trkpt lat="49.80105" lon="2.37618">
        <ele>92.8</ele>
        <time>2022-07-27T07:19:33Z</time>
      </trkpt>
      <trkpt lat="49.80105" lon="2.37618">
        <ele>92.8</ele>
        <time>2022-07-27T07:19:34Z</time>
      </trkpt>
      <trkpt lat="49.80105" lon="2.37618">
        <ele>92.8</ele>
        <time>2022-07-27T07:19:35Z</time>
      </trkpt>
      <trkpt lat="49.80105" lon="2.37618">
        <ele>92.8</ele>
        <time>2022-07-27T07:19:36Z</time>
      </trkpt>
      <trkpt lat="49.80105" lon="2.37618">
        <ele>92.8</ele>
        <time>2022-07-27T07:19:37Z</time>
      </trkpt>
      <trkpt lat="49.80105" lon="2.37618">
        <ele>92.8</ele>
        <time>2022-07-27T07:19:38Z</time>
      </trkpt>
      <trkpt lat="49.80105" lon="2.37618">
        <ele>92.8</ele>
        <time>2022-07-27T07:19:39Z</time>
      </trkpt>
      <trkpt lat="49.80105" lon="2.37618">
        <ele>92.8</ele>
        <time>2022-07-27T07:19:40Z</time>
      </trkpt>
      <trkpt lat="49.80105" lon="2.37618">
        <ele>92.8</ele>
        <time>2022-07-27T07:19:41Z</time>
      </trkpt>
      <trkpt lat="49.80105" lon="2.37618">
        <ele>92.8</ele>
        <time>2022-07-27T07:19:42Z</time>
      </trkpt>
      <trkpt lat="49.80105" lon="2.37618">
        <ele>92.8</ele>
        <time>2022-07-27T07:19:43Z</time>
      </trkpt>
      <trkpt lat="49.80105" lon="2.37618">
        <ele>92.8</ele>
        <time>2022-07-27T07:19:44Z</time>
      </trkpt>
      <trkpt lat="49.80105" lon="2.37618">
        <ele>92.8</ele>
        <time>2022-07-27T07:19:45Z</time>
      </trkpt>
      <trkpt lat="49.80105" lon="2.37618">
        <ele>92.8</ele>
        <time>2022-07-27T07:19:46Z</time>
      </trkpt>
      <trkpt lat="49.80105" lon="2.37618">
        <ele>92.8</ele>
        <time>2022-07-27T07:19:47Z</time>
      </trkpt>
      <trkpt lat="49.80105" lon="2.37618">
        <ele>92.8</ele>
        <time>2022-07-27T07:19:48Z</time>
      </trkpt>
      <trkpt lat="49.80105" lon="2.37618">
        <ele>92.8</ele>
        <time>2022-07-27T07:19:49Z</time>
      </trkpt>
      <trkpt lat="49.80105" lon="2.37618">
        <ele>92.8</ele>
        <time>2022-07-27T07:19:50Z</time>
      </trkpt>
      <trkpt lat="49.80105" lon="2.37618">
        <ele>92.8</ele>
        <time>2022-07-27T07:19:51Z</time>
      </trkpt>
      <trkpt lat="49.80105" lon="2.37618">
        <ele>92.8</ele>
        <time>2022-07-27T07:19:52Z</time>
      </trkpt>
      <trkpt lat="49.80105" lon="2.37618">
        <ele>92.8</ele>
        <time>2022-07-27T07:19:53Z</time>
      </trkpt>
      <trkpt lat="49.80106" lon="2.37618">
        <ele>92.9</ele>
        <time>2022-07-27T07:19:54Z</time>
      </trkpt>
      <trkpt lat="49.80108" lon="2.37617">
        <ele>92.9</ele>
        <time>2022-07-27T07:19:55Z</time>
      </trkpt>
      <trkpt lat="49.80108" lon="2.37617">
        <ele>92.9</ele>
        <time>2022-07-27T07:19:56Z</time>
      </trkpt>
      <trkpt lat="49.80107" lon="2.37617">
        <ele>92.9</ele>
        <time>2022-07-27T07:19:57Z</time>
      </trkpt>
      <trkpt lat="49.80106" lon="2.37616">
        <ele>93</ele>
        <time>2022-07-27T07:19:58Z</time>
      </trkpt>
      <trkpt lat="49.80105" lon="2.37616">
        <ele>93</ele>
        <time>2022-07-27T07:19:59Z</time>
      </trkpt>
      <trkpt lat="49.80104" lon="2.37616">
        <ele>93.1</ele>
        <time>2022-07-27T07:20:00Z</time>
      </trkpt>
      <trkpt lat="49.80103" lon="2.37615">
        <ele>93.1</ele>
        <time>2022-07-27T07:20:01Z</time>
      </trkpt>
      <trkpt lat="49.80102" lon="2.37615">
        <ele>93.1</ele>
        <time>2022-07-27T07:20:02Z</time>
      </trkpt>
      <trkpt lat="49.801" lon="2.37615">
        <ele>93.2</ele>
        <time>2022-07-27T07:20:03Z</time>
      </trkpt>
      <trkpt lat="49.80099" lon="2.37615">
        <ele>93.2</ele>
        <time>2022-07-27T07:20:04Z</time>
      </trkpt>
      <trkpt lat="49.80098" lon="2.37615">
        <ele>93.2</ele>
        <time>2022-07-27T07:20:05Z</time>
      </trkpt>
      <trkpt lat="49.80097" lon="2.37614">
        <ele>93.2</ele>
        <time>2022-07-27T07:20:06Z</time>
      </trkpt>
      <trkpt lat="49.80096" lon="2.37614">
        <ele>93.3</ele>
        <time>2022-07-27T07:20:07Z</time>
      </trkpt>
      <trkpt lat="49.80095" lon="2.37614">
        <ele>93.3</ele>
        <time>2022-07-27T07:20:08Z</time>
      </trkpt>
      <trkpt lat="49.80094" lon="2.37614">
        <ele>93.3</ele>
        <time>2022-07-27T07:20:09Z</time>
      </trkpt>
      <trkpt lat="49.80092" lon="2.37614">
        <ele>93.3</ele>
        <time>2022-07-27T07:20:10Z</time>
      </trkpt>
      <trkpt lat="49.80091" lon="2.37614">
        <ele>93.3</ele>
        <time>2022-07-27T07:20:11Z</time>
      </trkpt>
      <trkpt lat="49.8009" lon="2.37614">
        <ele>93.3</ele>
        <time>2022-07-27T07:20:12Z</time>
      </trkpt>
      <trkpt lat="49.80089" lon="2.37613">
        <ele>93.3</ele>
        <time>2022-07-27T07:20:13Z</time>
      </trkpt>
      <trkpt lat="49.80088" lon="2.37613">
        <ele>93.3</ele>
        <time>2022-07-27T07:20:14Z</time>
      </trkpt>
      <trkpt lat="49.80086" lon="2.37613">
        <ele>93.4</ele>
        <time>2022-07-27T07:20:15Z</time>
      </trkpt>
      <trkpt lat="49.80086" lon="2.37612">
        <ele>93.4</ele>
        <time>2022-07-27T07:20:16Z</time>
      </trkpt>
      <trkpt lat="49.80085" lon="2.37612">
        <ele>93.4</ele>
        <time>2022-07-27T07:20:17Z</time>
      </trkpt>
      <trkpt lat="49.80083" lon="2.37611">
        <ele>93.4</ele>
        <time>2022-07-27T07:20:18Z</time>
      </trkpt>
      <trkpt lat="49.80082" lon="2.37611">
        <ele>93.4</ele>
        <time>2022-07-27T07:20:19Z</time>
      </trkpt>
      <trkpt lat="49.80081" lon="2.37611">
        <ele>93.3</ele>
        <time>2022-07-27T07:20:20Z</time>
      </trkpt>
      <trkpt lat="49.8008" lon="2.3761">
        <ele>93.3</ele>
        <time>2022-07-27T07:20:21Z</time>
      </trkpt>
      <trkpt lat="49.80079" lon="2.3761">
        <ele>93.3</ele>
        <time>2022-07-27T07:20:22Z</time>
      </trkpt>
      <trkpt lat="49.80078" lon="2.37609">
        <ele>93.3</ele>
        <time>2022-07-27T07:20:23Z</time>
      </trkpt>
      <trkpt lat="49.80077" lon="2.37609">
        <ele>93.3</ele>
        <time>2022-07-27T07:20:24Z</time>
      </trkpt>
      <trkpt lat="49.80075" lon="2.37608">
        <ele>93.3</ele>
        <time>2022-07-27T07:20:25Z</time>
      </trkpt>
      <trkpt lat="49.80073" lon="2.37607">
        <ele>93.3</ele>
        <time>2022-07-27T07:20:26Z</time>
      </trkpt>
      <trkpt lat="49.80072" lon="2.37607">
        <ele>93.3</ele>
        <time>2022-07-27T07:20:27Z</time>
      </trkpt>
      <trkpt lat="49.80071" lon="2.37607">
        <ele>93.3</ele>
        <time>2022-07-27T07:20:28Z</time>
      </trkpt>
      <trkpt lat="49.8007" lon="2.37606">
        <ele>93.3</ele>
        <time>2022-07-27T07:20:29Z</time>
      </trkpt>
      <trkpt lat="49.80068" lon="2.37606">
        <ele>93.3</ele>
        <time>2022-07-27T07:20:30Z</time>
      </trkpt>
      <trkpt lat="49.80067" lon="2.37605">
        <ele>93.3</ele>
        <time>2022-07-27T07:20:31Z</time>
      </trkpt>
      <trkpt lat="49.80066" lon="2.37605">
        <ele>93.2</ele>
        <time>2022-07-27T07:20:32Z</time>
      </trkpt>
      <trkpt lat="49.80065" lon="2.37605">
        <ele>93.2</ele>
        <time>2022-07-27T07:20:33Z</time>
      </trkpt>
      <trkpt lat="49.80065" lon="2.37605">
        <ele>93.2</ele>
        <time>2022-07-27T07:20:34Z</time>
      </trkpt>
      <trkpt lat="49.80063" lon="2.37605">
        <ele>93.2</ele>
        <time>2022-07-27T07:20:35Z</time>
      </trkpt>
      <trkpt lat="49.80062" lon="2.37605">
        <ele>93.2</ele>
        <time>2022-07-27T07:20:36Z</time>
      </trkpt>
      <trkpt lat="49.80061" lon="2.37605">
        <ele>93.2</ele>
        <time>2022-07-27T07:20:37Z</time>
      </trkpt>
      <trkpt lat="49.8006" lon="2.37605">
        <ele>93.2</ele>
        <time>2022-07-27T07:20:38Z</time>
      </trkpt>
      <trkpt lat="49.80058" lon="2.37605">
        <ele>93.2</ele>
        <time>2022-07-27T07:20:39Z</time>
      </trkpt>
      <trkpt lat="49.80056" lon="2.37605">
        <ele>93.1</ele>
        <time>2022-07-27T07:20:40Z</time>
      </trkpt>
      <trkpt lat="49.80055" lon="2.37605">
        <ele>93.1</ele>
        <time>2022-07-27T07:20:41Z</time>
      </trkpt>
      <trkpt lat="49.80054" lon="2.37605">
        <ele>93.1</ele>
        <time>2022-07-27T07:20:42Z</time>
      </trkpt>
      <trkpt lat="49.80053" lon="2.37605">
        <ele>93.1</ele>
        <time>2022-07-27T07:20:43Z</time>
      </trkpt>
      <trkpt lat="49.80052" lon="2.37605">
        <ele>93.1</ele>
        <time>2022-07-27T07:20:44Z</time>
      </trkpt>
      <trkpt lat="49.8005" lon="2.37606">
        <ele>93.1</ele>
        <time>2022-07-27T07:20:45Z</time>
      </trkpt>
      <trkpt lat="49.80049" lon="2.37606">
        <ele>93</ele>
        <time>2022-07-27T07:20:46Z</time>
      </trkpt>
      <trkpt lat="49.80048" lon="2.37606">
        <ele>93</ele>
        <time>2022-07-27T07:20:47Z</time>
      </trkpt>
      <trkpt lat="49.80047" lon="2.37606">
        <ele>93</ele>
        <time>2022-07-27T07:20:48Z</time>
      </trkpt>
      <trkpt lat="49.80046" lon="2.37606">
        <ele>93</ele>
        <time>2022-07-27T07:20:49Z</time>
      </trkpt>
      <trkpt lat="49.80045" lon="2.37606">
        <ele>93</ele>
        <time>2022-07-27T07:20:50Z</time>
      </trkpt>
      <trkpt lat="49.80044" lon="2.37606">
        <ele>93</ele>
        <time>2022-07-27T07:20:51Z</time>
      </trkpt>
      <trkpt lat="49.80043" lon="2.37606">
        <ele>93</ele>
        <time>2022-07-27T07:20:52Z</time>
      </trkpt>
      <trkpt lat="49.80041" lon="2.37606">
        <ele>93</ele>
        <time>2022-07-27T07:20:54Z</time>
      </trkpt>
      <trkpt lat="49.80039" lon="2.37606">
        <ele>93</ele>
        <time>2022-07-27T07:20:55Z</time>
      </trkpt>
      <trkpt lat="49.80038" lon="2.37607">
        <ele>92.9</ele>
        <time>2022-07-27T07:20:56Z</time>
      </trkpt>
      <trkpt lat="49.80037" lon="2.37607">
        <ele>92.9</ele>
        <time>2022-07-27T07:20:57Z</time>
      </trkpt>
      <trkpt lat="49.80036" lon="2.37607">
        <ele>92.9</ele>
        <time>2022-07-27T07:20:58Z</time>
      </trkpt>
      <trkpt lat="49.80035" lon="2.37607">
        <ele>92.9</ele>
        <time>2022-07-27T07:20:59Z</time>
      </trkpt>
      <trkpt lat="49.80033" lon="2.37607">
        <ele>92.9</ele>
        <time>2022-07-27T07:21:00Z</time>
      </trkpt>
      <trkpt lat="49.80032" lon="2.37608">
        <ele>93</ele>
        <time>2022-07-27T07:21:01Z</time>
      </trkpt>
      <trkpt lat="49.80031" lon="2.37608">
        <ele>93</ele>
        <time>2022-07-27T07:21:02Z</time>
      </trkpt>
      <trkpt lat="49.8003" lon="2.37608">
        <ele>93</ele>
        <time>2022-07-27T07:21:03Z</time>
      </trkpt>
      <trkpt lat="49.80029" lon="2.37608">
        <ele>93</ele>
        <time>2022-07-27T07:21:04Z</time>
      </trkpt>
      <trkpt lat="49.80027" lon="2.37609">
        <ele>93</ele>
        <time>2022-07-27T07:21:05Z</time>
      </trkpt>
      <trkpt lat="49.80026" lon="2.37609">
        <ele>93</ele>
        <time>2022-07-27T07:21:06Z</time>
      </trkpt>
      <trkpt lat="49.80025" lon="2.37609">
        <ele>93</ele>
        <time>2022-07-27T07:21:07Z</time>
      </trkpt>
      <trkpt lat="49.80024" lon="2.37609">
        <ele>93</ele>
        <time>2022-07-27T07:21:08Z</time>
      </trkpt>
      <trkpt lat="49.80023" lon="2.37609">
        <ele>93</ele>
        <time>2022-07-27T07:21:09Z</time>
      </trkpt>
      <trkpt lat="49.80021" lon="2.37609">
        <ele>93</ele>
        <time>2022-07-27T07:21:10Z</time>
      </trkpt>
      <trkpt lat="49.8002" lon="2.3761">
        <ele>93.1</ele>
        <time>2022-07-27T07:21:11Z</time>
      </trkpt>
      <trkpt lat="49.80019" lon="2.3761">
        <ele>93.2</ele>
        <time>2022-07-27T07:21:12Z</time>
      </trkpt>
      <trkpt lat="49.80017" lon="2.3761">
        <ele>93.3</ele>
        <time>2022-07-27T07:21:13Z</time>
      </trkpt>
      <trkpt lat="49.80016" lon="2.3761">
        <ele>93.3</ele>
        <time>2022-07-27T07:21:14Z</time>
      </trkpt>
      <trkpt lat="49.80014" lon="2.3761">
        <ele>93.4</ele>
        <time>2022-07-27T07:21:15Z</time>
      </trkpt>
      <trkpt lat="49.80013" lon="2.37609">
        <ele>93.5</ele>
        <time>2022-07-27T07:21:16Z</time>
      </trkpt>
      <trkpt lat="49.80012" lon="2.37609">
        <ele>93.5</ele>
        <time>2022-07-27T07:21:17Z</time>
      </trkpt>
      <trkpt lat="49.80011" lon="2.37609">
        <ele>93.6</ele>
        <time>2022-07-27T07:21:18Z</time>
      </trkpt>
      <trkpt lat="49.80009" lon="2.37609">
        <ele>93.7</ele>
        <time>2022-07-27T07:21:19Z</time>
      </trkpt>
      <trkpt lat="49.80008" lon="2.37609">
        <ele>93.7</ele>
        <time>2022-07-27T07:21:20Z</time>
      </trkpt>
      <trkpt lat="49.80007" lon="2.37609">
        <ele>93.8</ele>
        <time>2022-07-27T07:21:21Z</time>
      </trkpt>
      <trkpt lat="49.80005" lon="2.37609">
        <ele>93.9</ele>
        <time>2022-07-27T07:21:22Z</time>
      </trkpt>
      <trkpt lat="49.80004" lon="2.37609">
        <ele>93.9</ele>
        <time>2022-07-27T07:21:23Z</time>
      </trkpt>
      <trkpt lat="49.80003" lon="2.37609">
        <ele>94</ele>
        <time>2022-07-27T07:21:24Z</time>
      </trkpt>
      <trkpt lat="49.80002" lon="2.37609">
        <ele>94</ele>
        <time>2022-07-27T07:21:25Z</time>
      </trkpt>
      <trkpt lat="49.80001" lon="2.37609">
        <ele>94.1</ele>
        <time>2022-07-27T07:21:26Z</time>
      </trkpt>
      <trkpt lat="49.8" lon="2.37609">
        <ele>94.1</ele>
        <time>2022-07-27T07:21:27Z</time>
      </trkpt>
      <trkpt lat="49.79999" lon="2.37609">
        <ele>94.2</ele>
        <time>2022-07-27T07:21:28Z</time>
      </trkpt>
      <trkpt lat="49.79997" lon="2.37609">
        <ele>94.3</ele>
        <time>2022-07-27T07:21:29Z</time>
      </trkpt>
      <trkpt lat="49.79996" lon="2.37609">
        <ele>94.3</ele>
        <time>2022-07-27T07:21:30Z</time>
      </trkpt>
      <trkpt lat="49.79995" lon="2.37609">
        <ele>94.4</ele>
        <time>2022-07-27T07:21:31Z</time>
      </trkpt>
      <trkpt lat="49.79994" lon="2.37609">
        <ele>94.4</ele>
        <time>2022-07-27T07:21:32Z</time>
      </trkpt>
      <trkpt lat="49.79993" lon="2.37609">
        <ele>94.5</ele>
        <time>2022-07-27T07:21:33Z</time>
      </trkpt>
      <trkpt lat="49.79991" lon="2.37609">
        <ele>94.6</ele>
        <time>2022-07-27T07:21:34Z</time>
      </trkpt>
      <trkpt lat="49.7999" lon="2.37609">
        <ele>94.6</ele>
        <time>2022-07-27T07:21:35Z</time>
      </trkpt>
      <trkpt lat="49.79989" lon="2.37609">
        <ele>94.7</ele>
        <time>2022-07-27T07:21:36Z</time>
      </trkpt>
      <trkpt lat="49.79988" lon="2.37609">
        <ele>94.7</ele>
        <time>2022-07-27T07:21:37Z</time>
      </trkpt>
      <trkpt lat="49.79987" lon="2.37609">
        <ele>94.8</ele>
        <time>2022-07-27T07:21:38Z</time>
      </trkpt>
      <trkpt lat="49.79985" lon="2.37609">
        <ele>94.8</ele>
        <time>2022-07-27T07:21:39Z</time>
      </trkpt>
      <trkpt lat="49.79984" lon="2.3761">
        <ele>94.9</ele>
        <time>2022-07-27T07:21:40Z</time>
      </trkpt>
      <trkpt lat="49.79983" lon="2.3761">
        <ele>94.9</ele>
        <time>2022-07-27T07:21:41Z</time>
      </trkpt>
      <trkpt lat="49.79982" lon="2.3761">
        <ele>95</ele>
        <time>2022-07-27T07:21:42Z</time>
      </trkpt>
      <trkpt lat="49.79981" lon="2.3761">
        <ele>95</ele>
        <time>2022-07-27T07:21:43Z</time>
      </trkpt>
      <trkpt lat="49.79979" lon="2.37611">
        <ele>95.1</ele>
        <time>2022-07-27T07:21:44Z</time>
      </trkpt>
      <trkpt lat="49.79978" lon="2.37611">
        <ele>95.1</ele>
        <time>2022-07-27T07:21:45Z</time>
      </trkpt>
      <trkpt lat="49.79976" lon="2.37611">
        <ele>95.2</ele>
        <time>2022-07-27T07:21:46Z</time>
      </trkpt>
      <trkpt lat="49.79974" lon="2.37611">
        <ele>95.3</ele>
        <time>2022-07-27T07:21:48Z</time>
      </trkpt>
      <trkpt lat="49.79971" lon="2.37611">
        <ele>95.3</ele>
        <time>2022-07-27T07:21:49Z</time>
      </trkpt>
      <trkpt lat="49.7997" lon="2.37611">
        <ele>95.3</ele>
        <time>2022-07-27T07:21:50Z</time>
      </trkpt>
      <trkpt lat="49.79969" lon="2.37612">
        <ele>95.4</ele>
        <time>2022-07-27T07:21:51Z</time>
      </trkpt>
      <trkpt lat="49.79968" lon="2.37612">
        <ele>95.4</ele>
        <time>2022-07-27T07:21:52Z</time>
      </trkpt>
      <trkpt lat="49.79967" lon="2.37612">
        <ele>95.4</ele>
        <time>2022-07-27T07:21:53Z</time>
      </trkpt>
      <trkpt lat="49.79966" lon="2.37612">
        <ele>95.5</ele>
        <time>2022-07-27T07:21:54Z</time>
      </trkpt>
      <trkpt lat="49.79965" lon="2.37612">
        <ele>95.5</ele>
        <time>2022-07-27T07:21:55Z</time>
      </trkpt>
      <trkpt lat="49.79964" lon="2.37612">
        <ele>95.5</ele>
        <time>2022-07-27T07:21:56Z</time>
      </trkpt>
      <trkpt lat="49.79962" lon="2.37612">
        <ele>95.5</ele>
        <time>2022-07-27T07:21:57Z</time>
      </trkpt>
      <trkpt lat="49.7996" lon="2.37612">
        <ele>95.5</ele>
        <time>2022-07-27T07:21:58Z</time>
      </trkpt>
      <trkpt lat="49.7996" lon="2.37612">
        <ele>95.5</ele>
        <time>2022-07-27T07:21:59Z</time>
      </trkpt>
      <trkpt lat="49.79959" lon="2.37612">
        <ele>95.6</ele>
        <time>2022-07-27T07:22:00Z</time>
      </trkpt>
      <trkpt lat="49.79958" lon="2.37612">
        <ele>95.6</ele>
        <time>2022-07-27T07:22:01Z</time>
      </trkpt>
      <trkpt lat="49.79957" lon="2.37612">
        <ele>95.6</ele>
        <time>2022-07-27T07:22:02Z</time>
      </trkpt>
      <trkpt lat="49.79955" lon="2.37612">
        <ele>95.6</ele>
        <time>2022-07-27T07:22:04Z</time>
      </trkpt>
      <trkpt lat="49.79953" lon="2.37612">
        <ele>95.6</ele>
        <time>2022-07-27T07:22:05Z</time>
      </trkpt>
      <trkpt lat="49.79953" lon="2.37612">
        <ele>95.6</ele>
        <time>2022-07-27T07:22:06Z</time>
      </trkpt>
      <trkpt lat="49.79951" lon="2.37612">
        <ele>95.6</ele>
        <time>2022-07-27T07:22:07Z</time>
      </trkpt>
      <trkpt lat="49.7995" lon="2.37612">
        <ele>95.6</ele>
        <time>2022-07-27T07:22:08Z</time>
      </trkpt>
      <trkpt lat="49.79949" lon="2.37612">
        <ele>95.6</ele>
        <time>2022-07-27T07:22:09Z</time>
      </trkpt>
      <trkpt lat="49.79949" lon="2.37612">
        <ele>95.6</ele>
        <time>2022-07-27T07:22:10Z</time>
      </trkpt>
      <trkpt lat="49.79948" lon="2.37613">
        <ele>95.6</ele>
        <time>2022-07-27T07:22:11Z</time>
      </trkpt>
      <trkpt lat="49.79947" lon="2.37613">
        <ele>95.6</ele>
        <time>2022-07-27T07:22:12Z</time>
      </trkpt>
      <trkpt lat="49.79947" lon="2.37613">
        <ele>95.6</ele>
        <time>2022-07-27T07:22:13Z</time>
      </trkpt>
      <trkpt lat="49.79946" lon="2.37613">
        <ele>95.6</ele>
        <time>2022-07-27T07:22:14Z</time>
      </trkpt>
      <trkpt lat="49.79944" lon="2.37614">
        <ele>95.6</ele>
        <time>2022-07-27T07:22:15Z</time>
      </trkpt>
      <trkpt lat="49.79944" lon="2.37614">
        <ele>95.6</ele>
        <time>2022-07-27T07:22:16Z</time>
      </trkpt>
      <trkpt lat="49.79943" lon="2.37614">
        <ele>95.6</ele>
        <time>2022-07-27T07:22:17Z</time>
      </trkpt>
      <trkpt lat="49.79942" lon="2.37614">
        <ele>95.6</ele>
        <time>2022-07-27T07:22:18Z</time>
      </trkpt>
      <trkpt lat="49.79941" lon="2.37614">
        <ele>95.6</ele>
        <time>2022-07-27T07:22:19Z</time>
      </trkpt>
      <trkpt lat="49.7994" lon="2.37615">
        <ele>95.6</ele>
        <time>2022-07-27T07:22:20Z</time>
      </trkpt>
      <trkpt lat="49.79939" lon="2.37615">
        <ele>95.6</ele>
        <time>2022-07-27T07:22:21Z</time>
      </trkpt>
      <trkpt lat="49.79938" lon="2.37615">
        <ele>95.6</ele>
        <time>2022-07-27T07:22:22Z</time>
      </trkpt>
      <trkpt lat="49.79937" lon="2.37616">
        <ele>95.6</ele>
        <time>2022-07-27T07:22:23Z</time>
      </trkpt>
      <trkpt lat="49.79936" lon="2.37616">
        <ele>95.6</ele>
        <time>2022-07-27T07:22:24Z</time>
      </trkpt>
      <trkpt lat="49.79935" lon="2.37616">
        <ele>95.6</ele>
        <time>2022-07-27T07:22:25Z</time>
      </trkpt>
      <trkpt lat="49.79933" lon="2.37617">
        <ele>95.6</ele>
        <time>2022-07-27T07:22:26Z</time>
      </trkpt>
      <trkpt lat="49.79932" lon="2.37617">
        <ele>95.6</ele>
        <time>2022-07-27T07:22:27Z</time>
      </trkpt>
      <trkpt lat="49.79931" lon="2.37617">
        <ele>95.6</ele>
        <time>2022-07-27T07:22:28Z</time>
      </trkpt>
      <trkpt lat="49.7993" lon="2.37617">
        <ele>95.6</ele>
        <time>2022-07-27T07:22:29Z</time>
      </trkpt>
      <trkpt lat="49.79928" lon="2.37618">
        <ele>95.5</ele>
        <time>2022-07-27T07:22:30Z</time>
      </trkpt>
      <trkpt lat="49.79927" lon="2.37618">
        <ele>95.5</ele>
        <time>2022-07-27T07:22:31Z</time>
      </trkpt>
      <trkpt lat="49.79926" lon="2.37618">
        <ele>95.5</ele>
        <time>2022-07-27T07:22:32Z</time>
      </trkpt>
      <trkpt lat="49.79925" lon="2.37619">
        <ele>95.5</ele>
        <time>2022-07-27T07:22:33Z</time>
      </trkpt>
      <trkpt lat="49.79924" lon="2.37619">
        <ele>95.5</ele>
        <time>2022-07-27T07:22:34Z</time>
      </trkpt>
      <trkpt lat="49.79922" lon="2.3762">
        <ele>95.5</ele>
        <time>2022-07-27T07:22:35Z</time>
      </trkpt>
      <trkpt lat="49.79921" lon="2.3762">
        <ele>95.5</ele>
        <time>2022-07-27T07:22:36Z</time>
      </trkpt>
      <trkpt lat="49.7992" lon="2.3762">
        <ele>95.5</ele>
        <time>2022-07-27T07:22:37Z</time>
      </trkpt>
      <trkpt lat="49.79918" lon="2.37621">
        <ele>95.4</ele>
        <time>2022-07-27T07:22:38Z</time>
      </trkpt>
      <trkpt lat="49.79917" lon="2.37621">
        <ele>95.4</ele>
        <time>2022-07-27T07:22:39Z</time>
      </trkpt>
      <trkpt lat="49.79916" lon="2.37621">
        <ele>95.4</ele>
        <time>2022-07-27T07:22:40Z</time>
      </trkpt>
      <trkpt lat="49.79915" lon="2.37622">
        <ele>95.4</ele>
        <time>2022-07-27T07:22:41Z</time>
      </trkpt>
      <trkpt lat="49.79914" lon="2.37622">
        <ele>95.4</ele>
        <time>2022-07-27T07:22:42Z</time>
      </trkpt>
      <trkpt lat="49.79913" lon="2.37622">
        <ele>95.4</ele>
        <time>2022-07-27T07:22:43Z</time>
      </trkpt>
      <trkpt lat="49.79912" lon="2.37623">
        <ele>95.4</ele>
        <time>2022-07-27T07:22:44Z</time>
      </trkpt>
      <trkpt lat="49.7991" lon="2.37623">
        <ele>95.3</ele>
        <time>2022-07-27T07:22:45Z</time>
      </trkpt>
      <trkpt lat="49.79909" lon="2.37623">
        <ele>95.3</ele>
        <time>2022-07-27T07:22:46Z</time>
      </trkpt>
      <trkpt lat="49.79907" lon="2.37623">
        <ele>95.3</ele>
        <time>2022-07-27T07:22:47Z</time>
      </trkpt>
      <trkpt lat="49.79906" lon="2.37624">
        <ele>95.3</ele>
        <time>2022-07-27T07:22:48Z</time>
      </trkpt>
      <trkpt lat="49.79905" lon="2.37624">
        <ele>95.3</ele>
        <time>2022-07-27T07:22:49Z</time>
      </trkpt>
      <trkpt lat="49.79903" lon="2.37624">
        <ele>95.3</ele>
        <time>2022-07-27T07:22:50Z</time>
      </trkpt>
      <trkpt lat="49.79903" lon="2.37624">
        <ele>95.3</ele>
        <time>2022-07-27T07:22:51Z</time>
      </trkpt>
      <trkpt lat="49.79902" lon="2.37625">
        <ele>95.2</ele>
        <time>2022-07-27T07:22:52Z</time>
      </trkpt>
      <trkpt lat="49.79901" lon="2.37625">
        <ele>95.2</ele>
        <time>2022-07-27T07:22:53Z</time>
      </trkpt>
      <trkpt lat="49.79899" lon="2.37625">
        <ele>95.2</ele>
        <time>2022-07-27T07:22:54Z</time>
      </trkpt>
      <trkpt lat="49.79897" lon="2.37626">
        <ele>95.2</ele>
        <time>2022-07-27T07:22:55Z</time>
      </trkpt>
      <trkpt lat="49.79897" lon="2.37626">
        <ele>95.2</ele>
        <time>2022-07-27T07:22:56Z</time>
      </trkpt>
      <trkpt lat="49.79896" lon="2.37626">
        <ele>95.1</ele>
        <time>2022-07-27T07:22:57Z</time>
      </trkpt>
      <trkpt lat="49.79895" lon="2.37626">
        <ele>95.1</ele>
        <time>2022-07-27T07:22:58Z</time>
      </trkpt>
      <trkpt lat="49.79893" lon="2.37627">
        <ele>95.1</ele>
        <time>2022-07-27T07:22:59Z</time>
      </trkpt>
      <trkpt lat="49.79892" lon="2.37627">
        <ele>95.1</ele>
        <time>2022-07-27T07:23:00Z</time>
      </trkpt>
      <trkpt lat="49.79891" lon="2.37627">
        <ele>95.1</ele>
        <time>2022-07-27T07:23:01Z</time>
      </trkpt>
      <trkpt lat="49.79889" lon="2.37627">
        <ele>95</ele>
        <time>2022-07-27T07:23:02Z</time>
      </trkpt>
      <trkpt lat="49.79888" lon="2.37627">
        <ele>95</ele>
        <time>2022-07-27T07:23:03Z</time>
      </trkpt>
      <trkpt lat="49.79887" lon="2.37627">
        <ele>95</ele>
        <time>2022-07-27T07:23:04Z</time>
      </trkpt>
      <trkpt lat="49.79885" lon="2.37627">
        <ele>94.9</ele>
        <time>2022-07-27T07:23:05Z</time>
      </trkpt>
      <trkpt lat="49.79884" lon="2.37627">
        <ele>94.9</ele>
        <time>2022-07-27T07:23:06Z</time>
      </trkpt>
      <trkpt lat="49.79883" lon="2.37627">
        <ele>94.9</ele>
        <time>2022-07-27T07:23:07Z</time>
      </trkpt>
      <trkpt lat="49.79881" lon="2.37627">
        <ele>94.8</ele>
        <time>2022-07-27T07:23:08Z</time>
      </trkpt>
      <trkpt lat="49.7988" lon="2.37627">
        <ele>94.8</ele>
        <time>2022-07-27T07:23:09Z</time>
      </trkpt>
      <trkpt lat="49.79879" lon="2.37627">
        <ele>94.8</ele>
        <time>2022-07-27T07:23:10Z</time>
      </trkpt>
      <trkpt lat="49.79878" lon="2.37627">
        <ele>94.7</ele>
        <time>2022-07-27T07:23:11Z</time>
      </trkpt>
      <trkpt lat="49.79877" lon="2.37628">
        <ele>94.7</ele>
        <time>2022-07-27T07:23:12Z</time>
      </trkpt>
      <trkpt lat="49.79876" lon="2.37628">
        <ele>94.7</ele>
        <time>2022-07-27T07:23:13Z</time>
      </trkpt>
      <trkpt lat="49.79874" lon="2.37628">
        <ele>94.6</ele>
        <time>2022-07-27T07:23:14Z</time>
      </trkpt>
      <trkpt lat="49.79873" lon="2.37629">
        <ele>94.6</ele>
        <time>2022-07-27T07:23:15Z</time>
      </trkpt>
      <trkpt lat="49.79872" lon="2.37629">
        <ele>94.5</ele>
        <time>2022-07-27T07:23:16Z</time>
      </trkpt>
      <trkpt lat="49.79871" lon="2.37629">
        <ele>94.5</ele>
        <time>2022-07-27T07:23:17Z</time>
      </trkpt>
      <trkpt lat="49.7987" lon="2.37629">
        <ele>94.5</ele>
        <time>2022-07-27T07:23:18Z</time>
      </trkpt>
      <trkpt lat="49.79869" lon="2.3763">
        <ele>94.4</ele>
        <time>2022-07-27T07:23:19Z</time>
      </trkpt>
      <trkpt lat="49.79868" lon="2.3763">
        <ele>94.4</ele>
        <time>2022-07-27T07:23:20Z</time>
      </trkpt>
      <trkpt lat="49.79866" lon="2.3763">
        <ele>94.3</ele>
        <time>2022-07-27T07:23:21Z</time>
      </trkpt>
      <trkpt lat="49.79865" lon="2.3763">
        <ele>94.3</ele>
        <time>2022-07-27T07:23:22Z</time>
      </trkpt>
      <trkpt lat="49.79864" lon="2.37631">
        <ele>94.3</ele>
        <time>2022-07-27T07:23:23Z</time>
      </trkpt>
      <trkpt lat="49.79863" lon="2.37631">
        <ele>94.2</ele>
        <time>2022-07-27T07:23:24Z</time>
      </trkpt>
      <trkpt lat="49.79863" lon="2.37631">
        <ele>94.2</ele>
        <time>2022-07-27T07:23:25Z</time>
      </trkpt>
      <trkpt lat="49.79861" lon="2.37631">
        <ele>94.2</ele>
        <time>2022-07-27T07:23:26Z</time>
      </trkpt>
      <trkpt lat="49.7986" lon="2.37631">
        <ele>94.1</ele>
        <time>2022-07-27T07:23:27Z</time>
      </trkpt>
      <trkpt lat="49.79859" lon="2.37632">
        <ele>94.1</ele>
        <time>2022-07-27T07:23:28Z</time>
      </trkpt>
      <trkpt lat="49.79857" lon="2.37632">
        <ele>94</ele>
        <time>2022-07-27T07:23:29Z</time>
      </trkpt>
      <trkpt lat="49.79856" lon="2.37632">
        <ele>94</ele>
        <time>2022-07-27T07:23:30Z</time>
      </trkpt>
      <trkpt lat="49.79855" lon="2.37632">
        <ele>93.9</ele>
        <time>2022-07-27T07:23:31Z</time>
      </trkpt>
      <trkpt lat="49.79854" lon="2.37632">
        <ele>93.9</ele>
        <time>2022-07-27T07:23:32Z</time>
      </trkpt>
      <trkpt lat="49.79853" lon="2.37632">
        <ele>93.9</ele>
        <time>2022-07-27T07:23:33Z</time>
      </trkpt>
      <trkpt lat="49.79852" lon="2.37633">
        <ele>93.8</ele>
        <time>2022-07-27T07:23:34Z</time>
      </trkpt>
      <trkpt lat="49.79851" lon="2.37633">
        <ele>93.8</ele>
        <time>2022-07-27T07:23:35Z</time>
      </trkpt>
      <trkpt lat="49.79849" lon="2.37634">
        <ele>93.7</ele>
        <time>2022-07-27T07:23:36Z</time>
      </trkpt>
      <trkpt lat="49.79848" lon="2.37634">
        <ele>93.7</ele>
        <time>2022-07-27T07:23:37Z</time>
      </trkpt>
      <trkpt lat="49.79847" lon="2.37634">
        <ele>93.6</ele>
        <time>2022-07-27T07:23:38Z</time>
      </trkpt>
      <trkpt lat="49.79845" lon="2.37635">
        <ele>93.6</ele>
        <time>2022-07-27T07:23:39Z</time>
      </trkpt>
      <trkpt lat="49.79844" lon="2.37635">
        <ele>93.5</ele>
        <time>2022-07-27T07:23:40Z</time>
      </trkpt>
      <trkpt lat="49.79842" lon="2.37635">
        <ele>93.4</ele>
        <time>2022-07-27T07:23:41Z</time>
      </trkpt>
      <trkpt lat="49.79841" lon="2.37635">
        <ele>93.4</ele>
        <time>2022-07-27T07:23:42Z</time>
      </trkpt>
      <trkpt lat="49.7984" lon="2.37636">
        <ele>93.4</ele>
        <time>2022-07-27T07:23:43Z</time>
      </trkpt>
      <trkpt lat="49.79839" lon="2.37636">
        <ele>93.3</ele>
        <time>2022-07-27T07:23:44Z</time>
      </trkpt>
      <trkpt lat="49.79838" lon="2.37636">
        <ele>93.3</ele>
        <time>2022-07-27T07:23:45Z</time>
      </trkpt>
      <trkpt lat="49.79837" lon="2.37636">
        <ele>93.2</ele>
        <time>2022-07-27T07:23:46Z</time>
      </trkpt>
      <trkpt lat="49.79836" lon="2.37637">
        <ele>93.2</ele>
        <time>2022-07-27T07:23:47Z</time>
      </trkpt>
      <trkpt lat="49.79835" lon="2.37637">
        <ele>93.2</ele>
        <time>2022-07-27T07:23:48Z</time>
      </trkpt>
      <trkpt lat="49.79834" lon="2.37637">
        <ele>93.1</ele>
        <time>2022-07-27T07:23:49Z</time>
      </trkpt>
      <trkpt lat="49.79833" lon="2.37638">
        <ele>93.1</ele>
        <time>2022-07-27T07:23:50Z</time>
      </trkpt>
      <trkpt lat="49.79831" lon="2.37638">
        <ele>93</ele>
        <time>2022-07-27T07:23:51Z</time>
      </trkpt>
      <trkpt lat="49.79831" lon="2.37638">
        <ele>93</ele>
        <time>2022-07-27T07:23:52Z</time>
      </trkpt>
      <trkpt lat="49.7983" lon="2.37639">
        <ele>93</ele>
        <time>2022-07-27T07:23:53Z</time>
      </trkpt>
      <trkpt lat="49.79828" lon="2.37639">
        <ele>92.9</ele>
        <time>2022-07-27T07:23:54Z</time>
      </trkpt>
      <trkpt lat="49.79826" lon="2.3764">
        <ele>92.8</ele>
        <time>2022-07-27T07:23:56Z</time>
      </trkpt>
      <trkpt lat="49.79825" lon="2.3764">
        <ele>92.8</ele>
        <time>2022-07-27T07:23:57Z</time>
      </trkpt>
      <trkpt lat="49.79824" lon="2.3764">
        <ele>92.8</ele>
        <time>2022-07-27T07:23:58Z</time>
      </trkpt>
      <trkpt lat="49.79823" lon="2.3764">
        <ele>92.7</ele>
        <time>2022-07-27T07:23:59Z</time>
      </trkpt>
      <trkpt lat="49.79822" lon="2.3764">
        <ele>92.7</ele>
        <time>2022-07-27T07:24:00Z</time>
      </trkpt>
      <trkpt lat="49.7982" lon="2.3764">
        <ele>92.6</ele>
        <time>2022-07-27T07:24:01Z</time>
      </trkpt>
      <trkpt lat="49.79819" lon="2.3764">
        <ele>92.6</ele>
        <time>2022-07-27T07:24:02Z</time>
      </trkpt>
      <trkpt lat="49.79818" lon="2.3764">
        <ele>92.6</ele>
        <time>2022-07-27T07:24:03Z</time>
      </trkpt>
      <trkpt lat="49.79817" lon="2.3764">
        <ele>92.5</ele>
        <time>2022-07-27T07:24:04Z</time>
      </trkpt>
      <trkpt lat="49.79816" lon="2.3764">
        <ele>92.5</ele>
        <time>2022-07-27T07:24:05Z</time>
      </trkpt>
      <trkpt lat="49.79814" lon="2.3764">
        <ele>92.4</ele>
        <time>2022-07-27T07:24:06Z</time>
      </trkpt>
      <trkpt lat="49.79813" lon="2.3764">
        <ele>92.4</ele>
        <time>2022-07-27T07:24:07Z</time>
      </trkpt>
      <trkpt lat="49.79812" lon="2.37639">
        <ele>92.4</ele>
        <time>2022-07-27T07:24:08Z</time>
      </trkpt>
      <trkpt lat="49.7981" lon="2.37639">
        <ele>92.3</ele>
        <time>2022-07-27T07:24:09Z</time>
      </trkpt>
      <trkpt lat="49.79809" lon="2.37639">
        <ele>92.3</ele>
        <time>2022-07-27T07:24:10Z</time>
      </trkpt>
      <trkpt lat="49.79808" lon="2.37638">
        <ele>92.3</ele>
        <time>2022-07-27T07:24:11Z</time>
      </trkpt>
      <trkpt lat="49.79807" lon="2.37638">
        <ele>92.2</ele>
        <time>2022-07-27T07:24:12Z</time>
      </trkpt>
      <trkpt lat="49.79806" lon="2.37637">
        <ele>92.2</ele>
        <time>2022-07-27T07:24:13Z</time>
      </trkpt>
      <trkpt lat="49.79805" lon="2.37637">
        <ele>92.2</ele>
        <time>2022-07-27T07:24:14Z</time>
      </trkpt>
      <trkpt lat="49.79804" lon="2.37636">
        <ele>92.2</ele>
        <time>2022-07-27T07:24:15Z</time>
      </trkpt>
      <trkpt lat="49.79801" lon="2.37635">
        <ele>92.1</ele>
        <time>2022-07-27T07:24:16Z</time>
      </trkpt>
      <trkpt lat="49.798" lon="2.37635">
        <ele>92.1</ele>
        <time>2022-07-27T07:24:17Z</time>
      </trkpt>
      <trkpt lat="49.79799" lon="2.37634">
        <ele>92.1</ele>
        <time>2022-07-27T07:24:18Z</time>
      </trkpt>
      <trkpt lat="49.79798" lon="2.37634">
        <ele>92.1</ele>
        <time>2022-07-27T07:24:19Z</time>
      </trkpt>
      <trkpt lat="49.79797" lon="2.37633">
        <ele>92.1</ele>
        <time>2022-07-27T07:24:20Z</time>
      </trkpt>
      <trkpt lat="49.79796" lon="2.37633">
        <ele>92</ele>
        <time>2022-07-27T07:24:21Z</time>
      </trkpt>
      <trkpt lat="49.79795" lon="2.37633">
        <ele>92</ele>
        <time>2022-07-27T07:24:22Z</time>
      </trkpt>
      <trkpt lat="49.79794" lon="2.37632">
        <ele>92</ele>
        <time>2022-07-27T07:24:23Z</time>
      </trkpt>
      <trkpt lat="49.79793" lon="2.37632">
        <ele>92</ele>
        <time>2022-07-27T07:24:24Z</time>
      </trkpt>
      <trkpt lat="49.79792" lon="2.37631">
        <ele>92</ele>
        <time>2022-07-27T07:24:25Z</time>
      </trkpt>
      <trkpt lat="49.7979" lon="2.37631">
        <ele>92</ele>
        <time>2022-07-27T07:24:26Z</time>
      </trkpt>
      <trkpt lat="49.79789" lon="2.3763">
        <ele>92</ele>
        <time>2022-07-27T07:24:27Z</time>
      </trkpt>
      <trkpt lat="49.79788" lon="2.3763">
        <ele>91.9</ele>
        <time>2022-07-27T07:24:28Z</time>
      </trkpt>
      <trkpt lat="49.79786" lon="2.3763">
        <ele>91.9</ele>
        <time>2022-07-27T07:24:29Z</time>
      </trkpt>
      <trkpt lat="49.79785" lon="2.37629">
        <ele>91.9</ele>
        <time>2022-07-27T07:24:30Z</time>
      </trkpt>
      <trkpt lat="49.79783" lon="2.37629">
        <ele>91.9</ele>
        <time>2022-07-27T07:24:31Z</time>
      </trkpt>
      <trkpt lat="49.79782" lon="2.37629">
        <ele>91.9</ele>
        <time>2022-07-27T07:24:32Z</time>
      </trkpt>
      <trkpt lat="49.79782" lon="2.37629">
        <ele>91.9</ele>
        <time>2022-07-27T07:24:33Z</time>
      </trkpt>
      <trkpt lat="49.7978" lon="2.37629">
        <ele>91.9</ele>
        <time>2022-07-27T07:24:34Z</time>
      </trkpt>
      <trkpt lat="49.79779" lon="2.37628">
        <ele>91.9</ele>
        <time>2022-07-27T07:24:35Z</time>
      </trkpt>
      <trkpt lat="49.79778" lon="2.37628">
        <ele>91.9</ele>
        <time>2022-07-27T07:24:36Z</time>
      </trkpt>
      <trkpt lat="49.79777" lon="2.37628">
        <ele>91.9</ele>
        <time>2022-07-27T07:24:37Z</time>
      </trkpt>
      <trkpt lat="49.79776" lon="2.37627">
        <ele>91.9</ele>
        <time>2022-07-27T07:24:38Z</time>
      </trkpt>
      <trkpt lat="49.79775" lon="2.37627">
        <ele>91.9</ele>
        <time>2022-07-27T07:24:39Z</time>
      </trkpt>
      <trkpt lat="49.79774" lon="2.37626">
        <ele>91.9</ele>
        <time>2022-07-27T07:24:40Z</time>
      </trkpt>
      <trkpt lat="49.79772" lon="2.37625">
        <ele>91.9</ele>
        <time>2022-07-27T07:24:41Z</time>
      </trkpt>
      <trkpt lat="49.79771" lon="2.37625">
        <ele>91.9</ele>
        <time>2022-07-27T07:24:42Z</time>
      </trkpt>
      <trkpt lat="49.7977" lon="2.37624">
        <ele>91.9</ele>
        <time>2022-07-27T07:24:43Z</time>
      </trkpt>
      <trkpt lat="49.79769" lon="2.37623">
        <ele>91.9</ele>
        <time>2022-07-27T07:24:44Z</time>
      </trkpt>
      <trkpt lat="49.79768" lon="2.37622">
        <ele>91.9</ele>
        <time>2022-07-27T07:24:45Z</time>
      </trkpt>
      <trkpt lat="49.79766" lon="2.37621">
        <ele>91.9</ele>
        <time>2022-07-27T07:24:46Z</time>
      </trkpt>
      <trkpt lat="49.79766" lon="2.37621">
        <ele>91.9</ele>
        <time>2022-07-27T07:24:47Z</time>
      </trkpt>
      <trkpt lat="49.79765" lon="2.3762">
        <ele>91.9</ele>
        <time>2022-07-27T07:24:48Z</time>
      </trkpt>
      <trkpt lat="49.79764" lon="2.37619">
        <ele>91.9</ele>
        <time>2022-07-27T07:24:49Z</time>
      </trkpt>
      <trkpt lat="49.79763" lon="2.37618">
        <ele>91.9</ele>
        <time>2022-07-27T07:24:50Z</time>
      </trkpt>
      <trkpt lat="49.79762" lon="2.37617">
        <ele>91.9</ele>
        <time>2022-07-27T07:24:51Z</time>
      </trkpt>
      <trkpt lat="49.79761" lon="2.37616">
        <ele>91.9</ele>
        <time>2022-07-27T07:24:52Z</time>
      </trkpt>
      <trkpt lat="49.79761" lon="2.37616">
        <ele>91.9</ele>
        <time>2022-07-27T07:24:53Z</time>
      </trkpt>
      <trkpt lat="49.7976" lon="2.37615">
        <ele>92</ele>
        <time>2022-07-27T07:24:54Z</time>
      </trkpt>
      <trkpt lat="49.79759" lon="2.37614">
        <ele>92</ele>
        <time>2022-07-27T07:24:55Z</time>
      </trkpt>
      <trkpt lat="49.79758" lon="2.37613">
        <ele>92</ele>
        <time>2022-07-27T07:24:56Z</time>
      </trkpt>
      <trkpt lat="49.79757" lon="2.37612">
        <ele>92</ele>
        <time>2022-07-27T07:24:57Z</time>
      </trkpt>
      <trkpt lat="49.79756" lon="2.37611">
        <ele>92</ele>
        <time>2022-07-27T07:24:58Z</time>
      </trkpt>
      <trkpt lat="49.79755" lon="2.3761">
        <ele>92</ele>
        <time>2022-07-27T07:24:59Z</time>
      </trkpt>
      <trkpt lat="49.79754" lon="2.37608">
        <ele>92.1</ele>
        <time>2022-07-27T07:25:00Z</time>
      </trkpt>
      <trkpt lat="49.79753" lon="2.37606">
        <ele>92.1</ele>
        <time>2022-07-27T07:25:01Z</time>
      </trkpt>
      <trkpt lat="49.79752" lon="2.37604">
        <ele>92.1</ele>
        <time>2022-07-27T07:25:02Z</time>
      </trkpt>
      <trkpt lat="49.79751" lon="2.37604">
        <ele>92.1</ele>
        <time>2022-07-27T07:25:03Z</time>
      </trkpt>
      <trkpt lat="49.79751" lon="2.37603">
        <ele>92.1</ele>
        <time>2022-07-27T07:25:04Z</time>
      </trkpt>
      <trkpt lat="49.7975" lon="2.37602">
        <ele>92.2</ele>
        <time>2022-07-27T07:25:05Z</time>
      </trkpt>
      <trkpt lat="49.79749" lon="2.37599">
        <ele>92.2</ele>
        <time>2022-07-27T07:25:06Z</time>
      </trkpt>
      <trkpt lat="49.79748" lon="2.37598">
        <ele>92.2</ele>
        <time>2022-07-27T07:25:07Z</time>
      </trkpt>
      <trkpt lat="49.79748" lon="2.37598">
        <ele>92.3</ele>
        <time>2022-07-27T07:25:08Z</time>
      </trkpt>
      <trkpt lat="49.79746" lon="2.37595">
        <ele>92.3</ele>
        <time>2022-07-27T07:25:09Z</time>
      </trkpt>
      <trkpt lat="49.79746" lon="2.37594">
        <ele>92.3</ele>
        <time>2022-07-27T07:25:10Z</time>
      </trkpt>
      <trkpt lat="49.79745" lon="2.37592">
        <ele>92.4</ele>
        <time>2022-07-27T07:25:11Z</time>
      </trkpt>
      <trkpt lat="49.79745" lon="2.37591">
        <ele>92.4</ele>
        <time>2022-07-27T07:25:12Z</time>
      </trkpt>
      <trkpt lat="49.79744" lon="2.3759">
        <ele>92.4</ele>
        <time>2022-07-27T07:25:13Z</time>
      </trkpt>
      <trkpt lat="49.79743" lon="2.37589">
        <ele>92.4</ele>
        <time>2022-07-27T07:25:14Z</time>
      </trkpt>
      <trkpt lat="49.79742" lon="2.37586">
        <ele>92.5</ele>
        <time>2022-07-27T07:25:15Z</time>
      </trkpt>
      <trkpt lat="49.79741" lon="2.37585">
        <ele>92.5</ele>
        <time>2022-07-27T07:25:16Z</time>
      </trkpt>
      <trkpt lat="49.79741" lon="2.37584">
        <ele>92.6</ele>
        <time>2022-07-27T07:25:17Z</time>
      </trkpt>
      <trkpt lat="49.7974" lon="2.37583">
        <ele>92.6</ele>
        <time>2022-07-27T07:25:18Z</time>
      </trkpt>
      <trkpt lat="49.7974" lon="2.37582">
        <ele>92.6</ele>
        <time>2022-07-27T07:25:19Z</time>
      </trkpt>
      <trkpt lat="49.79739" lon="2.37581">
        <ele>92.7</ele>
        <time>2022-07-27T07:25:20Z</time>
      </trkpt>
      <trkpt lat="49.79739" lon="2.3758">
        <ele>92.7</ele>
        <time>2022-07-27T07:25:21Z</time>
      </trkpt>
      <trkpt lat="49.79737" lon="2.37578">
        <ele>92.8</ele>
        <time>2022-07-27T07:25:22Z</time>
      </trkpt>
      <trkpt lat="49.79737" lon="2.37577">
        <ele>92.8</ele>
        <time>2022-07-27T07:25:23Z</time>
      </trkpt>
      <trkpt lat="49.79737" lon="2.37576">
        <ele>92.8</ele>
        <time>2022-07-27T07:25:24Z</time>
      </trkpt>
      <trkpt lat="49.79736" lon="2.37575">
        <ele>92.8</ele>
        <time>2022-07-27T07:25:25Z</time>
      </trkpt>
      <trkpt lat="49.79736" lon="2.37574">
        <ele>92.9</ele>
        <time>2022-07-27T07:25:26Z</time>
      </trkpt>
      <trkpt lat="49.79735" lon="2.37572">
        <ele>93</ele>
        <time>2022-07-27T07:25:27Z</time>
      </trkpt>
      <trkpt lat="49.79734" lon="2.37571">
        <ele>93</ele>
        <time>2022-07-27T07:25:28Z</time>
      </trkpt>
      <trkpt lat="49.79734" lon="2.3757">
        <ele>93</ele>
        <time>2022-07-27T07:25:29Z</time>
      </trkpt>
      <trkpt lat="49.79733" lon="2.37569">
        <ele>93.1</ele>
        <time>2022-07-27T07:25:30Z</time>
      </trkpt>
      <trkpt lat="49.79733" lon="2.37568">
        <ele>93.1</ele>
        <time>2022-07-27T07:25:31Z</time>
      </trkpt>
      <trkpt lat="49.79732" lon="2.37566">
        <ele>93.2</ele>
        <time>2022-07-27T07:25:32Z</time>
      </trkpt>
      <trkpt lat="49.79732" lon="2.37566">
        <ele>93.2</ele>
        <time>2022-07-27T07:25:33Z</time>
      </trkpt>
      <trkpt lat="49.79731" lon="2.37565">
        <ele>93.2</ele>
        <time>2022-07-27T07:25:34Z</time>
      </trkpt>
      <trkpt lat="49.7973" lon="2.37564">
        <ele>93.3</ele>
        <time>2022-07-27T07:25:35Z</time>
      </trkpt>
      <trkpt lat="49.7973" lon="2.37563">
        <ele>93.3</ele>
        <time>2022-07-27T07:25:36Z</time>
      </trkpt>
      <trkpt lat="49.79729" lon="2.37561">
        <ele>93.4</ele>
        <time>2022-07-27T07:25:37Z</time>
      </trkpt>
      <trkpt lat="49.79728" lon="2.3756">
        <ele>93.4</ele>
        <time>2022-07-27T07:25:38Z</time>
      </trkpt>
      <trkpt lat="49.79727" lon="2.37559">
        <ele>93.5</ele>
        <time>2022-07-27T07:25:39Z</time>
      </trkpt>
      <trkpt lat="49.79727" lon="2.37557">
        <ele>93.5</ele>
        <time>2022-07-27T07:25:40Z</time>
      </trkpt>
      <trkpt lat="49.79726" lon="2.37556">
        <ele>93.5</ele>
        <time>2022-07-27T07:25:41Z</time>
      </trkpt>
      <trkpt lat="49.79725" lon="2.37554">
        <ele>93.6</ele>
        <time>2022-07-27T07:25:42Z</time>
      </trkpt>
      <trkpt lat="49.79724" lon="2.37553">
        <ele>93.7</ele>
        <time>2022-07-27T07:25:43Z</time>
      </trkpt>
      <trkpt lat="49.79724" lon="2.37553">
        <ele>93.7</ele>
        <time>2022-07-27T07:25:44Z</time>
      </trkpt>
      <trkpt lat="49.79723" lon="2.37552">
        <ele>93.7</ele>
        <time>2022-07-27T07:25:45Z</time>
      </trkpt>
      <trkpt lat="49.79723" lon="2.37551">
        <ele>93.8</ele>
        <time>2022-07-27T07:25:46Z</time>
      </trkpt>
      <trkpt lat="49.79721" lon="2.37549">
        <ele>93.9</ele>
        <time>2022-07-27T07:25:47Z</time>
      </trkpt>
      <trkpt lat="49.79721" lon="2.37548">
        <ele>93.9</ele>
        <time>2022-07-27T07:25:49Z</time>
      </trkpt>
      <trkpt lat="49.7972" lon="2.37547">
        <ele>93.9</ele>
        <time>2022-07-27T07:25:50Z</time>
      </trkpt>
      <trkpt lat="49.79719" lon="2.37546">
        <ele>94</ele>
        <time>2022-07-27T07:25:51Z</time>
      </trkpt>
      <trkpt lat="49.79718" lon="2.37544">
        <ele>94.1</ele>
        <time>2022-07-27T07:25:52Z</time>
      </trkpt>
      <trkpt lat="49.79717" lon="2.37543">
        <ele>94.1</ele>
        <time>2022-07-27T07:25:53Z</time>
      </trkpt>
      <trkpt lat="49.79716" lon="2.37542">
        <ele>94.1</ele>
        <time>2022-07-27T07:25:54Z</time>
      </trkpt>
      <trkpt lat="49.79715" lon="2.37541">
        <ele>94.2</ele>
        <time>2022-07-27T07:25:55Z</time>
      </trkpt>
      <trkpt lat="49.79715" lon="2.3754">
        <ele>94.2</ele>
        <time>2022-07-27T07:25:56Z</time>
      </trkpt>
      <trkpt lat="49.79713" lon="2.37538">
        <ele>94.3</ele>
        <time>2022-07-27T07:25:57Z</time>
      </trkpt>
      <trkpt lat="49.79713" lon="2.37537">
        <ele>94.3</ele>
        <time>2022-07-27T07:25:58Z</time>
      </trkpt>
      <trkpt lat="49.79712" lon="2.37536">
        <ele>94.4</ele>
        <time>2022-07-27T07:25:59Z</time>
      </trkpt>
      <trkpt lat="49.79712" lon="2.37535">
        <ele>94.4</ele>
        <time>2022-07-27T07:26:00Z</time>
      </trkpt>
      <trkpt lat="49.79711" lon="2.37534">
        <ele>94.4</ele>
        <time>2022-07-27T07:26:01Z</time>
      </trkpt>
      <trkpt lat="49.7971" lon="2.37533">
        <ele>94.5</ele>
        <time>2022-07-27T07:26:02Z</time>
      </trkpt>
      <trkpt lat="49.79709" lon="2.37532">
        <ele>94.5</ele>
        <time>2022-07-27T07:26:03Z</time>
      </trkpt>
      <trkpt lat="49.79708" lon="2.37531">
        <ele>94.6</ele>
        <time>2022-07-27T07:26:04Z</time>
      </trkpt>
      <trkpt lat="49.79707" lon="2.37529">
        <ele>94.6</ele>
        <time>2022-07-27T07:26:05Z</time>
      </trkpt>
      <trkpt lat="49.79706" lon="2.37528">
        <ele>94.7</ele>
        <time>2022-07-27T07:26:06Z</time>
      </trkpt>
      <trkpt lat="49.79705" lon="2.37526">
        <ele>94.7</ele>
        <time>2022-07-27T07:26:07Z</time>
      </trkpt>
      <trkpt lat="49.79704" lon="2.37526">
        <ele>94.7</ele>
        <time>2022-07-27T07:26:08Z</time>
      </trkpt>
      <trkpt lat="49.79704" lon="2.37525">
        <ele>94.8</ele>
        <time>2022-07-27T07:26:09Z</time>
      </trkpt>
      <trkpt lat="49.79703" lon="2.37524">
        <ele>94.8</ele>
        <time>2022-07-27T07:26:10Z</time>
      </trkpt>
      <trkpt lat="49.79702" lon="2.37523">
        <ele>94.8</ele>
        <time>2022-07-27T07:26:11Z</time>
      </trkpt>
      <trkpt lat="49.797" lon="2.37521">
        <ele>94.9</ele>
        <time>2022-07-27T07:26:12Z</time>
      </trkpt>
      <trkpt lat="49.79699" lon="2.3752">
        <ele>94.9</ele>
        <time>2022-07-27T07:26:13Z</time>
      </trkpt>
      <trkpt lat="49.79698" lon="2.37519">
        <ele>95</ele>
        <time>2022-07-27T07:26:14Z</time>
      </trkpt>
      <trkpt lat="49.79698" lon="2.37519">
        <ele>95</ele>
        <time>2022-07-27T07:26:15Z</time>
      </trkpt>
      <trkpt lat="49.79696" lon="2.37517">
        <ele>95</ele>
        <time>2022-07-27T07:26:16Z</time>
      </trkpt>
      <trkpt lat="49.79695" lon="2.37516">
        <ele>95.1</ele>
        <time>2022-07-27T07:26:17Z</time>
      </trkpt>
      <trkpt lat="49.79694" lon="2.37516">
        <ele>95.1</ele>
        <time>2022-07-27T07:26:18Z</time>
      </trkpt>
      <trkpt lat="49.79693" lon="2.37515">
        <ele>95.1</ele>
        <time>2022-07-27T07:26:19Z</time>
      </trkpt>
      <trkpt lat="49.79692" lon="2.37514">
        <ele>95.1</ele>
        <time>2022-07-27T07:26:20Z</time>
      </trkpt>
      <trkpt lat="49.79691" lon="2.37513">
        <ele>95.2</ele>
        <time>2022-07-27T07:26:21Z</time>
      </trkpt>
      <trkpt lat="49.7969" lon="2.37511">
        <ele>95.2</ele>
        <time>2022-07-27T07:26:22Z</time>
      </trkpt>
      <trkpt lat="49.79689" lon="2.3751">
        <ele>95.2</ele>
        <time>2022-07-27T07:26:23Z</time>
      </trkpt>
      <trkpt lat="49.79688" lon="2.37509">
        <ele>95.3</ele>
        <time>2022-07-27T07:26:24Z</time>
      </trkpt>
      <trkpt lat="49.79687" lon="2.37508">
        <ele>95.3</ele>
        <time>2022-07-27T07:26:25Z</time>
      </trkpt>
      <trkpt lat="49.79686" lon="2.37506">
        <ele>95.3</ele>
        <time>2022-07-27T07:26:26Z</time>
      </trkpt>
      <trkpt lat="49.79685" lon="2.37505">
        <ele>95.4</ele>
        <time>2022-07-27T07:26:27Z</time>
      </trkpt>
      <trkpt lat="49.79684" lon="2.37504">
        <ele>95.4</ele>
        <time>2022-07-27T07:26:28Z</time>
      </trkpt>
      <trkpt lat="49.79683" lon="2.37503">
        <ele>95.4</ele>
        <time>2022-07-27T07:26:29Z</time>
      </trkpt>
      <trkpt lat="49.79682" lon="2.37502">
        <ele>95.5</ele>
        <time>2022-07-27T07:26:30Z</time>
      </trkpt>
      <trkpt lat="49.79682" lon="2.37501">
        <ele>95.5</ele>
        <time>2022-07-27T07:26:31Z</time>
      </trkpt>
      <trkpt lat="49.7968" lon="2.37499">
        <ele>95.6</ele>
        <time>2022-07-27T07:26:32Z</time>
      </trkpt>
      <trkpt lat="49.79679" lon="2.37499">
        <ele>95.6</ele>
        <time>2022-07-27T07:26:33Z</time>
      </trkpt>
      <trkpt lat="49.79678" lon="2.37498">
        <ele>95.6</ele>
        <time>2022-07-27T07:26:34Z</time>
      </trkpt>
      <trkpt lat="49.79678" lon="2.37497">
        <ele>95.6</ele>
        <time>2022-07-27T07:26:35Z</time>
      </trkpt>
      <trkpt lat="49.79677" lon="2.37496">
        <ele>95.7</ele>
        <time>2022-07-27T07:26:36Z</time>
      </trkpt>
      <trkpt lat="49.79675" lon="2.37495">
        <ele>95.7</ele>
        <time>2022-07-27T07:26:37Z</time>
      </trkpt>
      <trkpt lat="49.79674" lon="2.37494">
        <ele>95.7</ele>
        <time>2022-07-27T07:26:38Z</time>
      </trkpt>
      <trkpt lat="49.79674" lon="2.37494">
        <ele>95.7</ele>
        <time>2022-07-27T07:26:39Z</time>
      </trkpt>
      <trkpt lat="49.79672" lon="2.37493">
        <ele>95.8</ele>
        <time>2022-07-27T07:26:40Z</time>
      </trkpt>
      <trkpt lat="49.79671" lon="2.37492">
        <ele>95.8</ele>
        <time>2022-07-27T07:26:41Z</time>
      </trkpt>
      <trkpt lat="49.7967" lon="2.37491">
        <ele>95.9</ele>
        <time>2022-07-27T07:26:42Z</time>
      </trkpt>
      <trkpt lat="49.79669" lon="2.37491">
        <ele>95.9</ele>
        <time>2022-07-27T07:26:43Z</time>
      </trkpt>
      <trkpt lat="49.79669" lon="2.3749">
        <ele>95.9</ele>
        <time>2022-07-27T07:26:44Z</time>
      </trkpt>
      <trkpt lat="49.79668" lon="2.37489">
        <ele>95.9</ele>
        <time>2022-07-27T07:26:45Z</time>
      </trkpt>
      <trkpt lat="49.79667" lon="2.37489">
        <ele>95.9</ele>
        <time>2022-07-27T07:26:46Z</time>
      </trkpt>
      <trkpt lat="49.79665" lon="2.37487">
        <ele>96</ele>
        <time>2022-07-27T07:26:47Z</time>
      </trkpt>
      <trkpt lat="49.79665" lon="2.37486">
        <ele>96</ele>
        <time>2022-07-27T07:26:48Z</time>
      </trkpt>
      <trkpt lat="49.79664" lon="2.37486">
        <ele>96</ele>
        <time>2022-07-27T07:26:49Z</time>
      </trkpt>
      <trkpt lat="49.79663" lon="2.37485">
        <ele>96.1</ele>
        <time>2022-07-27T07:26:50Z</time>
      </trkpt>
      <trkpt lat="49.79662" lon="2.37484">
        <ele>96.1</ele>
        <time>2022-07-27T07:26:51Z</time>
      </trkpt>
      <trkpt lat="49.7966" lon="2.37482">
        <ele>96.1</ele>
        <time>2022-07-27T07:26:52Z</time>
      </trkpt>
      <trkpt lat="49.79659" lon="2.37481">
        <ele>96.1</ele>
        <time>2022-07-27T07:26:53Z</time>
      </trkpt>
      <trkpt lat="49.79657" lon="2.3748">
        <ele>96.2</ele>
        <time>2022-07-27T07:26:54Z</time>
      </trkpt>
      <trkpt lat="49.79657" lon="2.37479">
        <ele>96.2</ele>
        <time>2022-07-27T07:26:55Z</time>
      </trkpt>
      <trkpt lat="49.79656" lon="2.37478">
        <ele>96.2</ele>
        <time>2022-07-27T07:26:56Z</time>
      </trkpt>
      <trkpt lat="49.79654" lon="2.37476">
        <ele>96.2</ele>
        <time>2022-07-27T07:26:57Z</time>
      </trkpt>
      <trkpt lat="49.79653" lon="2.37475">
        <ele>96.3</ele>
        <time>2022-07-27T07:26:58Z</time>
      </trkpt>
      <trkpt lat="49.79652" lon="2.37474">
        <ele>96.3</ele>
        <time>2022-07-27T07:26:59Z</time>
      </trkpt>
      <trkpt lat="49.79651" lon="2.37473">
        <ele>96.3</ele>
        <time>2022-07-27T07:27:00Z</time>
      </trkpt>
      <trkpt lat="49.7965" lon="2.37472">
        <ele>96.3</ele>
        <time>2022-07-27T07:27:01Z</time>
      </trkpt>
      <trkpt lat="49.79649" lon="2.37471">
        <ele>96.3</ele>
        <time>2022-07-27T07:27:02Z</time>
      </trkpt>
      <trkpt lat="49.79648" lon="2.3747">
        <ele>96.3</ele>
        <time>2022-07-27T07:27:03Z</time>
      </trkpt>
      <trkpt lat="49.79646" lon="2.37468">
        <ele>96.4</ele>
        <time>2022-07-27T07:27:04Z</time>
      </trkpt>
      <trkpt lat="49.79645" lon="2.37467">
        <ele>96.4</ele>
        <time>2022-07-27T07:27:05Z</time>
      </trkpt>
      <trkpt lat="49.79645" lon="2.37466">
        <ele>96.4</ele>
        <time>2022-07-27T07:27:06Z</time>
      </trkpt>
      <trkpt lat="49.79643" lon="2.37464">
        <ele>96.4</ele>
        <time>2022-07-27T07:27:07Z</time>
      </trkpt>
      <trkpt lat="49.79642" lon="2.37464">
        <ele>96.4</ele>
        <time>2022-07-27T07:27:08Z</time>
      </trkpt>
      <trkpt lat="49.79641" lon="2.37463">
        <ele>96.4</ele>
        <time>2022-07-27T07:27:09Z</time>
      </trkpt>
      <trkpt lat="49.7964" lon="2.37462">
        <ele>96.4</ele>
        <time>2022-07-27T07:27:10Z</time>
      </trkpt>
      <trkpt lat="49.79639" lon="2.37461">
        <ele>96.4</ele>
        <time>2022-07-27T07:27:11Z</time>
      </trkpt>
      <trkpt lat="49.79637" lon="2.37459">
        <ele>96.5</ele>
        <time>2022-07-27T07:27:12Z</time>
      </trkpt>
      <trkpt lat="49.79636" lon="2.37458">
        <ele>96.5</ele>
        <time>2022-07-27T07:27:13Z</time>
      </trkpt>
      <trkpt lat="49.79635" lon="2.37457">
        <ele>96.5</ele>
        <time>2022-07-27T07:27:14Z</time>
      </trkpt>
      <trkpt lat="49.79634" lon="2.37457">
        <ele>96.5</ele>
        <time>2022-07-27T07:27:15Z</time>
      </trkpt>
      <trkpt lat="49.79633" lon="2.37456">
        <ele>96.5</ele>
        <time>2022-07-27T07:27:16Z</time>
      </trkpt>
      <trkpt lat="49.79632" lon="2.37455">
        <ele>96.5</ele>
        <time>2022-07-27T07:27:17Z</time>
      </trkpt>
      <trkpt lat="49.79631" lon="2.37454">
        <ele>96.5</ele>
        <time>2022-07-27T07:27:18Z</time>
      </trkpt>
      <trkpt lat="49.7963" lon="2.37453">
        <ele>96.5</ele>
        <time>2022-07-27T07:27:19Z</time>
      </trkpt>
      <trkpt lat="49.79628" lon="2.37452">
        <ele>96.5</ele>
        <time>2022-07-27T07:27:20Z</time>
      </trkpt>
      <trkpt lat="49.79627" lon="2.37451">
        <ele>96.6</ele>
        <time>2022-07-27T07:27:21Z</time>
      </trkpt>
      <trkpt lat="49.79627" lon="2.3745">
        <ele>96.6</ele>
        <time>2022-07-27T07:27:22Z</time>
      </trkpt>
      <trkpt lat="49.79626" lon="2.3745">
        <ele>96.6</ele>
        <time>2022-07-27T07:27:23Z</time>
      </trkpt>
      <trkpt lat="49.79625" lon="2.37449">
        <ele>96.6</ele>
        <time>2022-07-27T07:27:24Z</time>
      </trkpt>
      <trkpt lat="49.79624" lon="2.37448">
        <ele>96.6</ele>
        <time>2022-07-27T07:27:25Z</time>
      </trkpt>
      <trkpt lat="49.79623" lon="2.37447">
        <ele>96.6</ele>
        <time>2022-07-27T07:27:26Z</time>
      </trkpt>
      <trkpt lat="49.79621" lon="2.37445">
        <ele>96.6</ele>
        <time>2022-07-27T07:27:27Z</time>
      </trkpt>
      <trkpt lat="49.79621" lon="2.37445">
        <ele>96.6</ele>
        <time>2022-07-27T07:27:28Z</time>
      </trkpt>
      <trkpt lat="49.7962" lon="2.37444">
        <ele>96.6</ele>
        <time>2022-07-27T07:27:29Z</time>
      </trkpt>
      <trkpt lat="49.79619" lon="2.37443">
        <ele>96.6</ele>
        <time>2022-07-27T07:27:30Z</time>
      </trkpt>
      <trkpt lat="49.79617" lon="2.37441">
        <ele>96.7</ele>
        <time>2022-07-27T07:27:31Z</time>
      </trkpt>
      <trkpt lat="49.79617" lon="2.3744">
        <ele>96.7</ele>
        <time>2022-07-27T07:27:32Z</time>
      </trkpt>
      <trkpt lat="49.79616" lon="2.37439">
        <ele>96.7</ele>
        <time>2022-07-27T07:27:33Z</time>
      </trkpt>
      <trkpt lat="49.79615" lon="2.37438">
        <ele>96.7</ele>
        <time>2022-07-27T07:27:34Z</time>
      </trkpt>
      <trkpt lat="49.79614" lon="2.37438">
        <ele>96.7</ele>
        <time>2022-07-27T07:27:35Z</time>
      </trkpt>
      <trkpt lat="49.79614" lon="2.37437">
        <ele>96.7</ele>
        <time>2022-07-27T07:27:36Z</time>
      </trkpt>
      <trkpt lat="49.79613" lon="2.37436">
        <ele>96.7</ele>
        <time>2022-07-27T07:27:37Z</time>
      </trkpt>
      <trkpt lat="49.79611" lon="2.37434">
        <ele>96.7</ele>
        <time>2022-07-27T07:27:38Z</time>
      </trkpt>
      <trkpt lat="49.7961" lon="2.37433">
        <ele>96.8</ele>
        <time>2022-07-27T07:27:39Z</time>
      </trkpt>
      <trkpt lat="49.7961" lon="2.37432">
        <ele>96.8</ele>
        <time>2022-07-27T07:27:40Z</time>
      </trkpt>
      <trkpt lat="49.79609" lon="2.37431">
        <ele>96.8</ele>
        <time>2022-07-27T07:27:41Z</time>
      </trkpt>
      <trkpt lat="49.79608" lon="2.3743">
        <ele>96.8</ele>
        <time>2022-07-27T07:27:42Z</time>
      </trkpt>
      <trkpt lat="49.79606" lon="2.37427">
        <ele>96.8</ele>
        <time>2022-07-27T07:27:43Z</time>
      </trkpt>
      <trkpt lat="49.79605" lon="2.37426">
        <ele>96.8</ele>
        <time>2022-07-27T07:27:44Z</time>
      </trkpt>
      <trkpt lat="49.79605" lon="2.37425">
        <ele>96.8</ele>
        <time>2022-07-27T07:27:45Z</time>
      </trkpt>
      <trkpt lat="49.79604" lon="2.37424">
        <ele>96.8</ele>
        <time>2022-07-27T07:27:46Z</time>
      </trkpt>
      <trkpt lat="49.79603" lon="2.37423">
        <ele>96.8</ele>
        <time>2022-07-27T07:27:47Z</time>
      </trkpt>
      <trkpt lat="49.79602" lon="2.37421">
        <ele>96.8</ele>
        <time>2022-07-27T07:27:48Z</time>
      </trkpt>
      <trkpt lat="49.79601" lon="2.3742">
        <ele>96.9</ele>
        <time>2022-07-27T07:27:49Z</time>
      </trkpt>
      <trkpt lat="49.796" lon="2.37419">
        <ele>96.9</ele>
        <time>2022-07-27T07:27:50Z</time>
      </trkpt>
      <trkpt lat="49.796" lon="2.37418">
        <ele>96.9</ele>
        <time>2022-07-27T07:27:51Z</time>
      </trkpt>
      <trkpt lat="49.79599" lon="2.37417">
        <ele>96.9</ele>
        <time>2022-07-27T07:27:52Z</time>
      </trkpt>
      <trkpt lat="49.79598" lon="2.37415">
        <ele>96.9</ele>
        <time>2022-07-27T07:27:53Z</time>
      </trkpt>
      <trkpt lat="49.79597" lon="2.37413">
        <ele>96.9</ele>
        <time>2022-07-27T07:27:54Z</time>
      </trkpt>
      <trkpt lat="49.79596" lon="2.37412">
        <ele>96.9</ele>
        <time>2022-07-27T07:27:55Z</time>
      </trkpt>
      <trkpt lat="49.79596" lon="2.37411">
        <ele>96.9</ele>
        <time>2022-07-27T07:27:56Z</time>
      </trkpt>
      <trkpt lat="49.79595" lon="2.3741">
        <ele>96.9</ele>
        <time>2022-07-27T07:27:57Z</time>
      </trkpt>
      <trkpt lat="49.79594" lon="2.37407">
        <ele>96.9</ele>
        <time>2022-07-27T07:27:58Z</time>
      </trkpt>
      <trkpt lat="49.79593" lon="2.37406">
        <ele>96.9</ele>
        <time>2022-07-27T07:27:59Z</time>
      </trkpt>
      <trkpt lat="49.79592" lon="2.37405">
        <ele>97</ele>
        <time>2022-07-27T07:28:00Z</time>
      </trkpt>
      <trkpt lat="49.79592" lon="2.37404">
        <ele>97</ele>
        <time>2022-07-27T07:28:01Z</time>
      </trkpt>
      <trkpt lat="49.79591" lon="2.37403">
        <ele>97</ele>
        <time>2022-07-27T07:28:02Z</time>
      </trkpt>
      <trkpt lat="49.7959" lon="2.37402">
        <ele>97</ele>
        <time>2022-07-27T07:28:03Z</time>
      </trkpt>
      <trkpt lat="49.7959" lon="2.37401">
        <ele>97</ele>
        <time>2022-07-27T07:28:04Z</time>
      </trkpt>
      <trkpt lat="49.79589" lon="2.374">
        <ele>97</ele>
        <time>2022-07-27T07:28:05Z</time>
      </trkpt>
      <trkpt lat="49.79589" lon="2.37399">
        <ele>97</ele>
        <time>2022-07-27T07:28:06Z</time>
      </trkpt>
      <trkpt lat="49.79588" lon="2.37398">
        <ele>97</ele>
        <time>2022-07-27T07:28:07Z</time>
      </trkpt>
      <trkpt lat="49.79586" lon="2.37395">
        <ele>97</ele>
        <time>2022-07-27T07:28:08Z</time>
      </trkpt>
      <trkpt lat="49.79586" lon="2.37394">
        <ele>97</ele>
        <time>2022-07-27T07:28:09Z</time>
      </trkpt>
      <trkpt lat="49.79585" lon="2.37393">
        <ele>97</ele>
        <time>2022-07-27T07:28:10Z</time>
      </trkpt>
      <trkpt lat="49.79584" lon="2.37391">
        <ele>97.1</ele>
        <time>2022-07-27T07:28:11Z</time>
      </trkpt>
      <trkpt lat="49.79583" lon="2.3739">
        <ele>97.1</ele>
        <time>2022-07-27T07:28:12Z</time>
      </trkpt>
      <trkpt lat="49.79582" lon="2.37389">
        <ele>97.1</ele>
        <time>2022-07-27T07:28:13Z</time>
      </trkpt>
      <trkpt lat="49.79582" lon="2.37388">
        <ele>97.1</ele>
        <time>2022-07-27T07:28:14Z</time>
      </trkpt>
      <trkpt lat="49.79581" lon="2.37386">
        <ele>97.1</ele>
        <time>2022-07-27T07:28:15Z</time>
      </trkpt>
      <trkpt lat="49.7958" lon="2.37385">
        <ele>97.1</ele>
        <time>2022-07-27T07:28:16Z</time>
      </trkpt>
      <trkpt lat="49.79579" lon="2.37384">
        <ele>97.1</ele>
        <time>2022-07-27T07:28:17Z</time>
      </trkpt>
      <trkpt lat="49.79578" lon="2.37382">
        <ele>97.1</ele>
        <time>2022-07-27T07:28:18Z</time>
      </trkpt>
      <trkpt lat="49.79577" lon="2.37381">
        <ele>97.2</ele>
        <time>2022-07-27T07:28:19Z</time>
      </trkpt>
      <trkpt lat="49.79576" lon="2.3738">
        <ele>97.2</ele>
        <time>2022-07-27T07:28:20Z</time>
      </trkpt>
      <trkpt lat="49.79575" lon="2.37379">
        <ele>97.2</ele>
        <time>2022-07-27T07:28:21Z</time>
      </trkpt>
      <trkpt lat="49.79574" lon="2.37378">
        <ele>97.2</ele>
        <time>2022-07-27T07:28:22Z</time>
      </trkpt>
      <trkpt lat="49.79572" lon="2.37377">
        <ele>97.2</ele>
        <time>2022-07-27T07:28:23Z</time>
      </trkpt>
      <trkpt lat="49.79571" lon="2.37376">
        <ele>97.2</ele>
        <time>2022-07-27T07:28:24Z</time>
      </trkpt>
      <trkpt lat="49.7957" lon="2.37375">
        <ele>97.2</ele>
        <time>2022-07-27T07:28:25Z</time>
      </trkpt>
      <trkpt lat="49.79569" lon="2.37374">
        <ele>97.2</ele>
        <time>2022-07-27T07:28:26Z</time>
      </trkpt>
      <trkpt lat="49.79568" lon="2.37373">
        <ele>97.2</ele>
        <time>2022-07-27T07:28:27Z</time>
      </trkpt>
      <trkpt lat="49.79566" lon="2.37371">
        <ele>97.2</ele>
        <time>2022-07-27T07:28:28Z</time>
      </trkpt>
      <trkpt lat="49.79565" lon="2.3737">
        <ele>97.2</ele>
        <time>2022-07-27T07:28:29Z</time>
      </trkpt>
      <trkpt lat="49.79564" lon="2.3737">
        <ele>97.3</ele>
        <time>2022-07-27T07:28:30Z</time>
      </trkpt>
      <trkpt lat="49.79563" lon="2.37369">
        <ele>97.3</ele>
        <time>2022-07-27T07:28:31Z</time>
      </trkpt>
      <trkpt lat="49.79562" lon="2.37368">
        <ele>97.3</ele>
        <time>2022-07-27T07:28:32Z</time>
      </trkpt>
      <trkpt lat="49.79561" lon="2.37367">
        <ele>97.3</ele>
        <time>2022-07-27T07:28:33Z</time>
      </trkpt>
      <trkpt lat="49.7956" lon="2.37366">
        <ele>97.3</ele>
        <time>2022-07-27T07:28:34Z</time>
      </trkpt>
      <trkpt lat="49.79559" lon="2.37365">
        <ele>97.3</ele>
        <time>2022-07-27T07:28:35Z</time>
      </trkpt>
      <trkpt lat="49.79558" lon="2.37364">
        <ele>97.3</ele>
        <time>2022-07-27T07:28:36Z</time>
      </trkpt>
      <trkpt lat="49.79557" lon="2.37363">
        <ele>97.3</ele>
        <time>2022-07-27T07:28:37Z</time>
      </trkpt>
      <trkpt lat="49.79556" lon="2.37361">
        <ele>97.3</ele>
        <time>2022-07-27T07:28:38Z</time>
      </trkpt>
      <trkpt lat="49.79555" lon="2.37361">
        <ele>97.3</ele>
        <time>2022-07-27T07:28:39Z</time>
      </trkpt>
      <trkpt lat="49.79554" lon="2.3736">
        <ele>97.3</ele>
        <time>2022-07-27T07:28:40Z</time>
      </trkpt>
      <trkpt lat="49.79553" lon="2.37359">
        <ele>97.3</ele>
        <time>2022-07-27T07:28:41Z</time>
      </trkpt>
      <trkpt lat="49.79552" lon="2.37358">
        <ele>97.3</ele>
        <time>2022-07-27T07:28:42Z</time>
      </trkpt>
      <trkpt lat="49.79551" lon="2.37356">
        <ele>97.3</ele>
        <time>2022-07-27T07:28:43Z</time>
      </trkpt>
      <trkpt lat="49.7955" lon="2.37355">
        <ele>97.3</ele>
        <time>2022-07-27T07:28:44Z</time>
      </trkpt>
      <trkpt lat="49.79548" lon="2.37353">
        <ele>97.3</ele>
        <time>2022-07-27T07:28:45Z</time>
      </trkpt>
      <trkpt lat="49.79548" lon="2.37352">
        <ele>97.3</ele>
        <time>2022-07-27T07:28:46Z</time>
      </trkpt>
      <trkpt lat="49.79547" lon="2.37352">
        <ele>97.3</ele>
        <time>2022-07-27T07:28:47Z</time>
      </trkpt>
      <trkpt lat="49.79545" lon="2.3735">
        <ele>97.3</ele>
        <time>2022-07-27T07:28:48Z</time>
      </trkpt>
      <trkpt lat="49.79544" lon="2.37349">
        <ele>97.3</ele>
        <time>2022-07-27T07:28:49Z</time>
      </trkpt>
      <trkpt lat="49.79543" lon="2.37347">
        <ele>97.3</ele>
        <time>2022-07-27T07:28:50Z</time>
      </trkpt>
      <trkpt lat="49.79542" lon="2.37346">
        <ele>97.3</ele>
        <time>2022-07-27T07:28:51Z</time>
      </trkpt>
      <trkpt lat="49.79542" lon="2.37345">
        <ele>97.3</ele>
        <time>2022-07-27T07:28:52Z</time>
      </trkpt>
      <trkpt lat="49.79541" lon="2.37344">
        <ele>97.3</ele>
        <time>2022-07-27T07:28:53Z</time>
      </trkpt>
      <trkpt lat="49.7954" lon="2.37343">
        <ele>97.3</ele>
        <time>2022-07-27T07:28:54Z</time>
      </trkpt>
      <trkpt lat="49.7954" lon="2.37342">
        <ele>97.3</ele>
        <time>2022-07-27T07:28:55Z</time>
      </trkpt>
      <trkpt lat="49.79539" lon="2.37341">
        <ele>97.3</ele>
        <time>2022-07-27T07:28:56Z</time>
      </trkpt>
      <trkpt lat="49.79538" lon="2.3734">
        <ele>97.3</ele>
        <time>2022-07-27T07:28:57Z</time>
      </trkpt>
      <trkpt lat="49.79537" lon="2.37338">
        <ele>97.3</ele>
        <time>2022-07-27T07:28:58Z</time>
      </trkpt>
      <trkpt lat="49.79536" lon="2.37337">
        <ele>97.3</ele>
        <time>2022-07-27T07:28:59Z</time>
      </trkpt>
      <trkpt lat="49.79536" lon="2.37336">
        <ele>97.3</ele>
        <time>2022-07-27T07:29:00Z</time>
      </trkpt>
      <trkpt lat="49.79535" lon="2.37334">
        <ele>97.3</ele>
        <time>2022-07-27T07:29:01Z</time>
      </trkpt>
      <trkpt lat="49.79534" lon="2.37333">
        <ele>97.3</ele>
        <time>2022-07-27T07:29:02Z</time>
      </trkpt>
      <trkpt lat="49.79533" lon="2.37331">
        <ele>97.3</ele>
        <time>2022-07-27T07:29:03Z</time>
      </trkpt>
      <trkpt lat="49.79533" lon="2.3733">
        <ele>97.3</ele>
        <time>2022-07-27T07:29:04Z</time>
      </trkpt>
      <trkpt lat="49.79532" lon="2.37329">
        <ele>97.3</ele>
        <time>2022-07-27T07:29:05Z</time>
      </trkpt>
      <trkpt lat="49.79531" lon="2.37327">
        <ele>97.3</ele>
        <time>2022-07-27T07:29:06Z</time>
      </trkpt>
      <trkpt lat="49.79531" lon="2.37326">
        <ele>97.3</ele>
        <time>2022-07-27T07:29:07Z</time>
      </trkpt>
      <trkpt lat="49.7953" lon="2.37324">
        <ele>97.3</ele>
        <time>2022-07-27T07:29:08Z</time>
      </trkpt>
      <trkpt lat="49.79529" lon="2.37323">
        <ele>97.3</ele>
        <time>2022-07-27T07:29:09Z</time>
      </trkpt>
      <trkpt lat="49.79528" lon="2.37322">
        <ele>97.3</ele>
        <time>2022-07-27T07:29:10Z</time>
      </trkpt>
      <trkpt lat="49.79528" lon="2.37321">
        <ele>97.3</ele>
        <time>2022-07-27T07:29:11Z</time>
      </trkpt>
      <trkpt lat="49.79527" lon="2.3732">
        <ele>97.4</ele>
        <time>2022-07-27T07:29:12Z</time>
      </trkpt>
      <trkpt lat="49.79526" lon="2.37318">
        <ele>97.4</ele>
        <time>2022-07-27T07:29:13Z</time>
      </trkpt>
      <trkpt lat="49.79525" lon="2.37317">
        <ele>97.4</ele>
        <time>2022-07-27T07:29:14Z</time>
      </trkpt>
      <trkpt lat="49.79524" lon="2.37316">
        <ele>97.4</ele>
        <time>2022-07-27T07:29:15Z</time>
      </trkpt>
      <trkpt lat="49.79523" lon="2.37314">
        <ele>97.4</ele>
        <time>2022-07-27T07:29:16Z</time>
      </trkpt>
      <trkpt lat="49.79522" lon="2.37313">
        <ele>97.4</ele>
        <time>2022-07-27T07:29:17Z</time>
      </trkpt>
      <trkpt lat="49.79521" lon="2.37312">
        <ele>97.4</ele>
        <time>2022-07-27T07:29:18Z</time>
      </trkpt>
      <trkpt lat="49.7952" lon="2.37311">
        <ele>97.4</ele>
        <time>2022-07-27T07:29:19Z</time>
      </trkpt>
      <trkpt lat="49.79519" lon="2.3731">
        <ele>97.4</ele>
        <time>2022-07-27T07:29:20Z</time>
      </trkpt>
      <trkpt lat="49.79518" lon="2.37309">
        <ele>97.4</ele>
        <time>2022-07-27T07:29:21Z</time>
      </trkpt>
      <trkpt lat="49.79517" lon="2.37308">
        <ele>97.4</ele>
        <time>2022-07-27T07:29:22Z</time>
      </trkpt>
      <trkpt lat="49.79515" lon="2.37307">
        <ele>97.5</ele>
        <time>2022-07-27T07:29:23Z</time>
      </trkpt>
      <trkpt lat="49.79514" lon="2.37306">
        <ele>97.5</ele>
        <time>2022-07-27T07:29:24Z</time>
      </trkpt>
      <trkpt lat="49.79513" lon="2.37305">
        <ele>97.5</ele>
        <time>2022-07-27T07:29:25Z</time>
      </trkpt>
      <trkpt lat="49.79512" lon="2.37304">
        <ele>97.5</ele>
        <time>2022-07-27T07:29:26Z</time>
      </trkpt>
      <trkpt lat="49.79511" lon="2.37303">
        <ele>97.5</ele>
        <time>2022-07-27T07:29:27Z</time>
      </trkpt>
      <trkpt lat="49.7951" lon="2.37302">
        <ele>97.5</ele>
        <time>2022-07-27T07:29:28Z</time>
      </trkpt>
      <trkpt lat="49.79509" lon="2.37301">
        <ele>97.5</ele>
        <time>2022-07-27T07:29:29Z</time>
      </trkpt>
      <trkpt lat="49.79508" lon="2.373">
        <ele>97.5</ele>
        <time>2022-07-27T07:29:30Z</time>
      </trkpt>
      <trkpt lat="49.79507" lon="2.37299">
        <ele>97.5</ele>
        <time>2022-07-27T07:29:31Z</time>
      </trkpt>
      <trkpt lat="49.79506" lon="2.37299">
        <ele>97.5</ele>
        <time>2022-07-27T07:29:32Z</time>
      </trkpt>
      <trkpt lat="49.79505" lon="2.37297">
        <ele>97.5</ele>
        <time>2022-07-27T07:29:33Z</time>
      </trkpt>
      <trkpt lat="49.79504" lon="2.37296">
        <ele>97.5</ele>
        <time>2022-07-27T07:29:34Z</time>
      </trkpt>
      <trkpt lat="49.79503" lon="2.37296">
        <ele>97.5</ele>
        <time>2022-07-27T07:29:35Z</time>
      </trkpt>
      <trkpt lat="49.79502" lon="2.37295">
        <ele>97.5</ele>
        <time>2022-07-27T07:29:36Z</time>
      </trkpt>
      <trkpt lat="49.79501" lon="2.37294">
        <ele>97.5</ele>
        <time>2022-07-27T07:29:37Z</time>
      </trkpt>
      <trkpt lat="49.795" lon="2.37293">
        <ele>97.5</ele>
        <time>2022-07-27T07:29:38Z</time>
      </trkpt>
      <trkpt lat="49.79499" lon="2.37292">
        <ele>97.5</ele>
        <time>2022-07-27T07:29:39Z</time>
      </trkpt>
      <trkpt lat="49.79498" lon="2.37291">
        <ele>97.5</ele>
        <time>2022-07-27T07:29:40Z</time>
      </trkpt>
      <trkpt lat="49.79497" lon="2.37291">
        <ele>97.5</ele>
        <time>2022-07-27T07:29:41Z</time>
      </trkpt>
      <trkpt lat="49.79496" lon="2.3729">
        <ele>97.5</ele>
        <time>2022-07-27T07:29:42Z</time>
      </trkpt>
      <trkpt lat="49.79494" lon="2.37289">
        <ele>97.5</ele>
        <time>2022-07-27T07:29:43Z</time>
      </trkpt>
      <trkpt lat="49.79494" lon="2.37288">
        <ele>97.5</ele>
        <time>2022-07-27T07:29:44Z</time>
      </trkpt>
      <trkpt lat="49.79493" lon="2.37288">
        <ele>97.5</ele>
        <time>2022-07-27T07:29:45Z</time>
      </trkpt>
      <trkpt lat="49.79491" lon="2.37287">
        <ele>97.5</ele>
        <time>2022-07-27T07:29:46Z</time>
      </trkpt>
      <trkpt lat="49.7949" lon="2.37286">
        <ele>97.5</ele>
        <time>2022-07-27T07:29:47Z</time>
      </trkpt>
      <trkpt lat="49.79489" lon="2.37286">
        <ele>97.5</ele>
        <time>2022-07-27T07:29:48Z</time>
      </trkpt>
      <trkpt lat="49.79488" lon="2.37285">
        <ele>97.5</ele>
        <time>2022-07-27T07:29:49Z</time>
      </trkpt>
      <trkpt lat="49.79487" lon="2.37284">
        <ele>97.4</ele>
        <time>2022-07-27T07:29:50Z</time>
      </trkpt>
      <trkpt lat="49.79486" lon="2.37284">
        <ele>97.4</ele>
        <time>2022-07-27T07:29:51Z</time>
      </trkpt>
      <trkpt lat="49.79485" lon="2.37283">
        <ele>97.4</ele>
        <time>2022-07-27T07:29:52Z</time>
      </trkpt>
      <trkpt lat="49.79484" lon="2.37282">
        <ele>97.4</ele>
        <time>2022-07-27T07:29:53Z</time>
      </trkpt>
      <trkpt lat="49.79483" lon="2.37282">
        <ele>97.4</ele>
        <time>2022-07-27T07:29:54Z</time>
      </trkpt>
      <trkpt lat="49.79482" lon="2.37281">
        <ele>97.4</ele>
        <time>2022-07-27T07:29:55Z</time>
      </trkpt>
      <trkpt lat="49.79481" lon="2.3728">
        <ele>97.4</ele>
        <time>2022-07-27T07:29:56Z</time>
      </trkpt>
      <trkpt lat="49.7948" lon="2.3728">
        <ele>97.4</ele>
        <time>2022-07-27T07:29:57Z</time>
      </trkpt>
      <trkpt lat="49.79479" lon="2.37279">
        <ele>97.4</ele>
        <time>2022-07-27T07:29:58Z</time>
      </trkpt>
      <trkpt lat="49.79479" lon="2.37279">
        <ele>97.4</ele>
        <time>2022-07-27T07:29:59Z</time>
      </trkpt>
      <trkpt lat="49.79478" lon="2.37278">
        <ele>97.4</ele>
        <time>2022-07-27T07:30:00Z</time>
      </trkpt>
      <trkpt lat="49.79478" lon="2.37278">
        <ele>97.3</ele>
        <time>2022-07-27T07:30:01Z</time>
      </trkpt>
      <trkpt lat="49.79477" lon="2.37277">
        <ele>97.3</ele>
        <time>2022-07-27T07:30:02Z</time>
      </trkpt>
      <trkpt lat="49.79476" lon="2.37277">
        <ele>97.3</ele>
        <time>2022-07-27T07:30:03Z</time>
      </trkpt>
      <trkpt lat="49.79476" lon="2.37276">
        <ele>97.3</ele>
        <time>2022-07-27T07:30:04Z</time>
      </trkpt>
      <trkpt lat="49.79476" lon="2.37276">
        <ele>97.3</ele>
        <time>2022-07-27T07:30:05Z</time>
      </trkpt>
      <trkpt lat="49.79475" lon="2.37276">
        <ele>97.3</ele>
        <time>2022-07-27T07:30:06Z</time>
      </trkpt>
      <trkpt lat="49.79475" lon="2.37276">
        <ele>97.3</ele>
        <time>2022-07-27T07:30:07Z</time>
      </trkpt>
      <trkpt lat="49.79474" lon="2.37277">
        <ele>97.4</ele>
        <time>2022-07-27T07:30:08Z</time>
      </trkpt>
      <trkpt lat="49.79474" lon="2.37277">
        <ele>97.4</ele>
        <time>2022-07-27T07:30:09Z</time>
      </trkpt>
      <trkpt lat="49.79474" lon="2.37277">
        <ele>97.4</ele>
        <time>2022-07-27T07:30:10Z</time>
      </trkpt>
      <trkpt lat="49.79474" lon="2.37276">
        <ele>97.4</ele>
        <time>2022-07-27T07:30:11Z</time>
      </trkpt>
      <trkpt lat="49.79474" lon="2.37276">
        <ele>97.4</ele>
        <time>2022-07-27T07:30:12Z</time>
      </trkpt>
      <trkpt lat="49.79474" lon="2.37276">
        <ele>97.4</ele>
        <time>2022-07-27T07:30:13Z</time>
      </trkpt>
      <trkpt lat="49.79474" lon="2.37276">
        <ele>97.5</ele>
        <time>2022-07-27T07:30:14Z</time>
      </trkpt>
      <trkpt lat="49.79473" lon="2.37276">
        <ele>97.5</ele>
        <time>2022-07-27T07:30:15Z</time>
      </trkpt>
      <trkpt lat="49.79473" lon="2.37276">
        <ele>97.5</ele>
        <time>2022-07-27T07:30:16Z</time>
      </trkpt>
      <trkpt lat="49.79473" lon="2.37276">
        <ele>97.5</ele>
        <time>2022-07-27T07:30:17Z</time>
      </trkpt>
      <trkpt lat="49.79473" lon="2.37276">
        <ele>97.5</ele>
        <time>2022-07-27T07:30:18Z</time>
      </trkpt>
      <trkpt lat="49.79473" lon="2.37276">
        <ele>97.5</ele>
        <time>2022-07-27T07:30:19Z</time>
      </trkpt>
      <trkpt lat="49.79473" lon="2.37276">
        <ele>97.5</ele>
        <time>2022-07-27T07:30:20Z</time>
      </trkpt>
      <trkpt lat="49.79473" lon="2.37276">
        <ele>97.5</ele>
        <time>2022-07-27T07:30:21Z</time>
      </trkpt>
      <trkpt lat="49.79473" lon="2.37276">
        <ele>97.5</ele>
        <time>2022-07-27T07:30:22Z</time>
      </trkpt>
      <trkpt lat="49.79473" lon="2.37276">
        <ele>97.5</ele>
        <time>2022-07-27T07:30:23Z</time>
      </trkpt>
      <trkpt lat="49.79473" lon="2.37276">
        <ele>97.5</ele>
        <time>2022-07-27T07:30:25Z</time>
      </trkpt>
      <trkpt lat="49.79473" lon="2.37276">
        <ele>97.5</ele>
        <time>2022-07-27T07:30:26Z</time>
      </trkpt>
      <trkpt lat="49.79473" lon="2.37275">
        <ele>97.5</ele>
        <time>2022-07-27T07:30:27Z</time>
      </trkpt>
      <trkpt lat="49.79473" lon="2.37275">
        <ele>97.6</ele>
        <time>2022-07-27T07:30:29Z</time>
      </trkpt>
      <trkpt lat="49.79473" lon="2.37275">
        <ele>97.6</ele>
        <time>2022-07-27T07:30:31Z</time>
      </trkpt>
      <trkpt lat="49.79473" lon="2.37275">
        <ele>97.6</ele>
        <time>2022-07-27T07:30:33Z</time>
      </trkpt>
      <trkpt lat="49.79473" lon="2.37275">
        <ele>97.6</ele>
        <time>2022-07-27T07:30:34Z</time>
      </trkpt>
      <trkpt lat="49.79473" lon="2.37275">
        <ele>97.6</ele>
        <time>2022-07-27T07:30:36Z</time>
      </trkpt>
      <trkpt lat="49.79473" lon="2.37275">
        <ele>97.6</ele>
        <time>2022-07-27T07:30:37Z</time>
      </trkpt>
      <trkpt lat="49.79473" lon="2.37275">
        <ele>97.6</ele>
        <time>2022-07-27T07:30:38Z</time>
      </trkpt>
      <trkpt lat="49.79473" lon="2.37275">
        <ele>97.6</ele>
        <time>2022-07-27T07:30:39Z</time>
      </trkpt>
      <trkpt lat="49.79473" lon="2.37275">
        <ele>97.6</ele>
        <time>2022-07-27T07:30:40Z</time>
      </trkpt>
      <trkpt lat="49.79472" lon="2.37275">
        <ele>97.6</ele>
        <time>2022-07-27T07:30:41Z</time>
      </trkpt>
      <trkpt lat="49.79472" lon="2.37275">
        <ele>97.6</ele>
        <time>2022-07-27T07:30:42Z</time>
      </trkpt>
      <trkpt lat="49.79472" lon="2.37275">
        <ele>97.6</ele>
        <time>2022-07-27T07:30:43Z</time>
      </trkpt>
      <trkpt lat="49.79472" lon="2.37275">
        <ele>97.6</ele>
        <time>2022-07-27T07:30:44Z</time>
      </trkpt>
      <trkpt lat="49.79472" lon="2.37274">
        <ele>97.6</ele>
        <time>2022-07-27T07:30:46Z</time>
      </trkpt>
      <trkpt lat="49.79472" lon="2.37274">
        <ele>97.6</ele>
        <time>2022-07-27T07:30:48Z</time>
      </trkpt>
      <trkpt lat="49.79472" lon="2.37274">
        <ele>97.7</ele>
        <time>2022-07-27T07:30:50Z</time>
      </trkpt>
      <trkpt lat="49.79472" lon="2.37274">
        <ele>97.7</ele>
        <time>2022-07-27T07:30:51Z</time>
      </trkpt>
      <trkpt lat="49.79472" lon="2.37274">
        <ele>97.7</ele>
        <time>2022-07-27T07:30:52Z</time>
      </trkpt>
      <trkpt lat="49.79472" lon="2.37274">
        <ele>97.7</ele>
        <time>2022-07-27T07:30:54Z</time>
      </trkpt>
      <trkpt lat="49.79472" lon="2.37274">
        <ele>97.7</ele>
        <time>2022-07-27T07:30:55Z</time>
      </trkpt>
      <trkpt lat="49.79472" lon="2.37274">
        <ele>97.7</ele>
        <time>2022-07-27T07:30:56Z</time>
      </trkpt>
      <trkpt lat="49.79472" lon="2.37274">
        <ele>97.7</ele>
        <time>2022-07-27T07:30:59Z</time>
      </trkpt>
      <trkpt lat="49.79472" lon="2.37274">
        <ele>97.7</ele>
        <time>2022-07-27T07:31:00Z</time>
      </trkpt>
      <trkpt lat="49.79472" lon="2.37274">
        <ele>97.7</ele>
        <time>2022-07-27T07:31:02Z</time>
      </trkpt>
      <trkpt lat="49.79472" lon="2.37274">
        <ele>97.7</ele>
        <time>2022-07-27T07:31:03Z</time>
      </trkpt>
      <trkpt lat="49.79472" lon="2.37274">
        <ele>97.7</ele>
        <time>2022-07-27T07:31:04Z</time>
      </trkpt>
      <trkpt lat="49.79472" lon="2.37274">
        <ele>97.7</ele>
        <time>2022-07-27T07:31:05Z</time>
      </trkpt>
      <trkpt lat="49.79472" lon="2.37274">
        <ele>97.7</ele>
        <time>2022-07-27T07:31:06Z</time>
      </trkpt>
      <trkpt lat="49.79472" lon="2.37273">
        <ele>97.7</ele>
        <time>2022-07-27T07:31:07Z</time>
      </trkpt>
      <trkpt lat="49.79472" lon="2.37273">
        <ele>97.8</ele>
        <time>2022-07-27T07:31:08Z</time>
      </trkpt>
      <trkpt lat="49.79472" lon="2.37273">
        <ele>97.8</ele>
        <time>2022-07-27T07:31:09Z</time>
      </trkpt>
      <trkpt lat="49.79471" lon="2.37273">
        <ele>97.8</ele>
        <time>2022-07-27T07:31:10Z</time>
      </trkpt>
      <trkpt lat="49.79471" lon="2.37273">
        <ele>97.8</ele>
        <time>2022-07-27T07:31:11Z</time>
      </trkpt>
      <trkpt lat="49.79471" lon="2.37273">
        <ele>97.8</ele>
        <time>2022-07-27T07:31:12Z</time>
      </trkpt>
      <trkpt lat="49.79471" lon="2.37273">
        <ele>97.8</ele>
        <time>2022-07-27T07:31:13Z</time>
      </trkpt>
      <trkpt lat="49.79471" lon="2.37273">
        <ele>97.8</ele>
        <time>2022-07-27T07:31:14Z</time>
      </trkpt>
      <trkpt lat="49.79471" lon="2.37273">
        <ele>97.8</ele>
        <time>2022-07-27T07:31:15Z</time>
      </trkpt>
      <trkpt lat="49.79471" lon="2.37273">
        <ele>97.8</ele>
        <time>2022-07-27T07:31:16Z</time>
      </trkpt>
      <trkpt lat="49.79471" lon="2.37273">
        <ele>97.8</ele>
        <time>2022-07-27T07:31:17Z</time>
      </trkpt>
      <trkpt lat="49.79471" lon="2.37273">
        <ele>97.8</ele>
        <time>2022-07-27T07:31:18Z</time>
      </trkpt>
      <trkpt lat="49.79471" lon="2.37273">
        <ele>97.8</ele>
        <time>2022-07-27T07:31:19Z</time>
      </trkpt>
      <trkpt lat="49.79471" lon="2.37273">
        <ele>97.8</ele>
        <time>2022-07-27T07:31:20Z</time>
      </trkpt>
      <trkpt lat="49.79471" lon="2.37273">
        <ele>97.9</ele>
        <time>2022-07-27T07:31:22Z</time>
      </trkpt>
      <trkpt lat="49.79471" lon="2.37272">
        <ele>97.9</ele>
        <time>2022-07-27T07:31:23Z</time>
      </trkpt>
      <trkpt lat="49.79471" lon="2.37272">
        <ele>97.9</ele>
        <time>2022-07-27T07:31:24Z</time>
      </trkpt>
      <trkpt lat="49.7947" lon="2.37272">
        <ele>97.9</ele>
        <time>2022-07-27T07:31:25Z</time>
      </trkpt>
      <trkpt lat="49.7947" lon="2.37272">
        <ele>98</ele>
        <time>2022-07-27T07:31:26Z</time>
      </trkpt>
      <trkpt lat="49.7947" lon="2.37271">
        <ele>98</ele>
        <time>2022-07-27T07:31:27Z</time>
      </trkpt>
      <trkpt lat="49.7947" lon="2.37271">
        <ele>98</ele>
        <time>2022-07-27T07:31:28Z</time>
      </trkpt>
      <trkpt lat="49.7947" lon="2.37271">
        <ele>98</ele>
        <time>2022-07-27T07:31:29Z</time>
      </trkpt>
      <trkpt lat="49.79469" lon="2.37271">
        <ele>98.1</ele>
        <time>2022-07-27T07:31:30Z</time>
      </trkpt>
      <trkpt lat="49.79468" lon="2.37271">
        <ele>98.1</ele>
        <time>2022-07-27T07:31:31Z</time>
      </trkpt>
      <trkpt lat="49.79468" lon="2.3727">
        <ele>98.2</ele>
        <time>2022-07-27T07:31:32Z</time>
      </trkpt>
      <trkpt lat="49.79467" lon="2.3727">
        <ele>98.3</ele>
        <time>2022-07-27T07:31:34Z</time>
      </trkpt>
      <trkpt lat="49.79466" lon="2.37269">
        <ele>98.4</ele>
        <time>2022-07-27T07:31:35Z</time>
      </trkpt>
      <trkpt lat="49.79465" lon="2.37269">
        <ele>98.5</ele>
        <time>2022-07-27T07:31:36Z</time>
      </trkpt>
      <trkpt lat="49.79464" lon="2.37269">
        <ele>98.6</ele>
        <time>2022-07-27T07:31:37Z</time>
      </trkpt>
      <trkpt lat="49.79463" lon="2.37269">
        <ele>98.7</ele>
        <time>2022-07-27T07:31:38Z</time>
      </trkpt>
      <trkpt lat="49.79463" lon="2.37269">
        <ele>98.7</ele>
        <time>2022-07-27T07:31:39Z</time>
      </trkpt>
      <trkpt lat="49.79462" lon="2.37269">
        <ele>98.8</ele>
        <time>2022-07-27T07:31:40Z</time>
      </trkpt>
      <trkpt lat="49.79461" lon="2.37268">
        <ele>98.9</ele>
        <time>2022-07-27T07:31:41Z</time>
      </trkpt>
      <trkpt lat="49.7946" lon="2.37268">
        <ele>98.9</ele>
        <time>2022-07-27T07:31:42Z</time>
      </trkpt>
      <trkpt lat="49.7946" lon="2.37267">
        <ele>99</ele>
        <time>2022-07-27T07:31:43Z</time>
      </trkpt>
      <trkpt lat="49.79458" lon="2.37267">
        <ele>99.1</ele>
        <time>2022-07-27T07:31:44Z</time>
      </trkpt>
      <trkpt lat="49.79456" lon="2.37265">
        <ele>99.4</ele>
        <time>2022-07-27T07:31:46Z</time>
      </trkpt>
      <trkpt lat="49.79455" lon="2.37264">
        <ele>99.5</ele>
        <time>2022-07-27T07:31:47Z</time>
      </trkpt>
      <trkpt lat="49.79454" lon="2.37263">
        <ele>99.6</ele>
        <time>2022-07-27T07:31:48Z</time>
      </trkpt>
      <trkpt lat="49.79453" lon="2.37262">
        <ele>99.7</ele>
        <time>2022-07-27T07:31:49Z</time>
      </trkpt>
      <trkpt lat="49.79451" lon="2.37261">
        <ele>99.9</ele>
        <time>2022-07-27T07:31:50Z</time>
      </trkpt>
      <trkpt lat="49.79451" lon="2.3726">
        <ele>100</ele>
        <time>2022-07-27T07:31:51Z</time>
      </trkpt>
      <trkpt lat="49.7945" lon="2.37259">
        <ele>100.1</ele>
        <time>2022-07-27T07:31:52Z</time>
      </trkpt>
      <trkpt lat="49.79449" lon="2.37258">
        <ele>100.2</ele>
        <time>2022-07-27T07:31:53Z</time>
      </trkpt>
      <trkpt lat="49.79449" lon="2.37257">
        <ele>100.2</ele>
        <time>2022-07-27T07:31:54Z</time>
      </trkpt>
      <trkpt lat="49.79448" lon="2.37257">
        <ele>100.3</ele>
        <time>2022-07-27T07:31:55Z</time>
      </trkpt>
      <trkpt lat="49.79447" lon="2.37256">
        <ele>100.4</ele>
        <time>2022-07-27T07:31:56Z</time>
      </trkpt>
      <trkpt lat="49.79447" lon="2.37255">
        <ele>100.5</ele>
        <time>2022-07-27T07:31:57Z</time>
      </trkpt>
      <trkpt lat="49.79446" lon="2.37254">
        <ele>100.6</ele>
        <time>2022-07-27T07:31:58Z</time>
      </trkpt>
      <trkpt lat="49.79446" lon="2.37254">
        <ele>100.6</ele>
        <time>2022-07-27T07:31:59Z</time>
      </trkpt>
      <trkpt lat="49.79445" lon="2.37252">
        <ele>100.7</ele>
        <time>2022-07-27T07:32:00Z</time>
      </trkpt>
      <trkpt lat="49.79443" lon="2.3725">
        <ele>101</ele>
        <time>2022-07-27T07:32:01Z</time>
      </trkpt>
      <trkpt lat="49.79442" lon="2.3725">
        <ele>101</ele>
        <time>2022-07-27T07:32:02Z</time>
      </trkpt>
      <trkpt lat="49.79441" lon="2.37249">
        <ele>101.1</ele>
        <time>2022-07-27T07:32:03Z</time>
      </trkpt>
      <trkpt lat="49.7944" lon="2.37248">
        <ele>101.3</ele>
        <time>2022-07-27T07:32:04Z</time>
      </trkpt>
      <trkpt lat="49.79439" lon="2.37246">
        <ele>101.4</ele>
        <time>2022-07-27T07:32:05Z</time>
      </trkpt>
      <trkpt lat="49.79438" lon="2.37245">
        <ele>101.5</ele>
        <time>2022-07-27T07:32:06Z</time>
      </trkpt>
      <trkpt lat="49.79437" lon="2.37245">
        <ele>101.6</ele>
        <time>2022-07-27T07:32:07Z</time>
      </trkpt>
      <trkpt lat="49.79437" lon="2.37244">
        <ele>101.7</ele>
        <time>2022-07-27T07:32:08Z</time>
      </trkpt>
      <trkpt lat="49.79436" lon="2.37243">
        <ele>101.8</ele>
        <time>2022-07-27T07:32:09Z</time>
      </trkpt>
      <trkpt lat="49.79435" lon="2.37242">
        <ele>101.9</ele>
        <time>2022-07-27T07:32:10Z</time>
      </trkpt>
      <trkpt lat="49.79434" lon="2.37241">
        <ele>102</ele>
        <time>2022-07-27T07:32:11Z</time>
      </trkpt>
      <trkpt lat="49.79433" lon="2.37241">
        <ele>102</ele>
        <time>2022-07-27T07:32:12Z</time>
      </trkpt>
      <trkpt lat="49.79433" lon="2.3724">
        <ele>102.1</ele>
        <time>2022-07-27T07:32:13Z</time>
      </trkpt>
      <trkpt lat="49.79432" lon="2.37239">
        <ele>102.2</ele>
        <time>2022-07-27T07:32:14Z</time>
      </trkpt>
      <trkpt lat="49.79431" lon="2.37238">
        <ele>102.4</ele>
        <time>2022-07-27T07:32:15Z</time>
      </trkpt>
      <trkpt lat="49.79431" lon="2.37237">
        <ele>102.4</ele>
        <time>2022-07-27T07:32:16Z</time>
      </trkpt>
      <trkpt lat="49.79431" lon="2.37237">
        <ele>102.4</ele>
        <time>2022-07-27T07:32:17Z</time>
      </trkpt>
      <trkpt lat="49.7943" lon="2.37236">
        <ele>102.5</ele>
        <time>2022-07-27T07:32:18Z</time>
      </trkpt>
      <trkpt lat="49.7943" lon="2.37236">
        <ele>102.5</ele>
        <time>2022-07-27T07:32:19Z</time>
      </trkpt>
      <trkpt lat="49.79429" lon="2.37235">
        <ele>102.6</ele>
        <time>2022-07-27T07:32:20Z</time>
      </trkpt>
      <trkpt lat="49.79429" lon="2.37235">
        <ele>102.6</ele>
        <time>2022-07-27T07:32:21Z</time>
      </trkpt>
      <trkpt lat="49.79429" lon="2.37234">
        <ele>102.7</ele>
        <time>2022-07-27T07:32:22Z</time>
      </trkpt>
      <trkpt lat="49.79428" lon="2.37233">
        <ele>102.8</ele>
        <time>2022-07-27T07:32:23Z</time>
      </trkpt>
      <trkpt lat="49.79428" lon="2.37232">
        <ele>102.8</ele>
        <time>2022-07-27T07:32:24Z</time>
      </trkpt>
      <trkpt lat="49.79427" lon="2.37231">
        <ele>103</ele>
        <time>2022-07-27T07:32:25Z</time>
      </trkpt>
      <trkpt lat="49.79428" lon="2.37231">
        <ele>103.1</ele>
        <time>2022-07-27T07:32:26Z</time>
      </trkpt>
      <trkpt lat="49.79428" lon="2.3723">
        <ele>103.1</ele>
        <time>2022-07-27T07:32:27Z</time>
      </trkpt>
      <trkpt lat="49.79427" lon="2.37229">
        <ele>103.2</ele>
        <time>2022-07-27T07:32:28Z</time>
      </trkpt>
      <trkpt lat="49.79427" lon="2.37228">
        <ele>103.3</ele>
        <time>2022-07-27T07:32:29Z</time>
      </trkpt>
      <trkpt lat="49.79426" lon="2.37226">
        <ele>103.4</ele>
        <time>2022-07-27T07:32:30Z</time>
      </trkpt>
      <trkpt lat="49.79425" lon="2.37225">
        <ele>103.5</ele>
        <time>2022-07-27T07:32:31Z</time>
      </trkpt>
      <trkpt lat="49.79424" lon="2.37224">
        <ele>103.6</ele>
        <time>2022-07-27T07:32:32Z</time>
      </trkpt>
      <trkpt lat="49.79423" lon="2.37223">
        <ele>103.7</ele>
        <time>2022-07-27T07:32:33Z</time>
      </trkpt>
      <trkpt lat="49.79423" lon="2.37222">
        <ele>103.8</ele>
        <time>2022-07-27T07:32:34Z</time>
      </trkpt>
      <trkpt lat="49.79421" lon="2.3722">
        <ele>104</ele>
        <time>2022-07-27T07:32:35Z</time>
      </trkpt>
      <trkpt lat="49.79421" lon="2.37219">
        <ele>104.1</ele>
        <time>2022-07-27T07:32:36Z</time>
      </trkpt>
      <trkpt lat="49.7942" lon="2.37218">
        <ele>104.2</ele>
        <time>2022-07-27T07:32:37Z</time>
      </trkpt>
      <trkpt lat="49.79419" lon="2.37217">
        <ele>104.3</ele>
        <time>2022-07-27T07:32:38Z</time>
      </trkpt>
      <trkpt lat="49.79419" lon="2.37216">
        <ele>104.4</ele>
        <time>2022-07-27T07:32:39Z</time>
      </trkpt>
      <trkpt lat="49.79417" lon="2.37213">
        <ele>104.6</ele>
        <time>2022-07-27T07:32:40Z</time>
      </trkpt>
      <trkpt lat="49.79416" lon="2.37212">
        <ele>104.7</ele>
        <time>2022-07-27T07:32:41Z</time>
      </trkpt>
      <trkpt lat="49.79416" lon="2.37211">
        <ele>104.8</ele>
        <time>2022-07-27T07:32:42Z</time>
      </trkpt>
      <trkpt lat="49.79415" lon="2.3721">
        <ele>104.9</ele>
        <time>2022-07-27T07:32:43Z</time>
      </trkpt>
      <trkpt lat="49.79414" lon="2.37208">
        <ele>105</ele>
        <time>2022-07-27T07:32:44Z</time>
      </trkpt>
      <trkpt lat="49.79413" lon="2.37207">
        <ele>105.2</ele>
        <time>2022-07-27T07:32:45Z</time>
      </trkpt>
      <trkpt lat="49.79411" lon="2.37204">
        <ele>105.4</ele>
        <time>2022-07-27T07:32:46Z</time>
      </trkpt>
      <trkpt lat="49.79411" lon="2.37204">
        <ele>105.4</ele>
        <time>2022-07-27T07:32:47Z</time>
      </trkpt>
      <trkpt lat="49.7941" lon="2.37203">
        <ele>105.5</ele>
        <time>2022-07-27T07:32:48Z</time>
      </trkpt>
      <trkpt lat="49.79408" lon="2.37201">
        <ele>105.7</ele>
        <time>2022-07-27T07:32:49Z</time>
      </trkpt>
      <trkpt lat="49.79407" lon="2.372">
        <ele>105.8</ele>
        <time>2022-07-27T07:32:50Z</time>
      </trkpt>
      <trkpt lat="49.79406" lon="2.37199">
        <ele>105.9</ele>
        <time>2022-07-27T07:32:51Z</time>
      </trkpt>
      <trkpt lat="49.79404" lon="2.37197">
        <ele>106.1</ele>
        <time>2022-07-27T07:32:52Z</time>
      </trkpt>
      <trkpt lat="49.79404" lon="2.37196">
        <ele>106.2</ele>
        <time>2022-07-27T07:32:53Z</time>
      </trkpt>
      <trkpt lat="49.79403" lon="2.37196">
        <ele>106.3</ele>
        <time>2022-07-27T07:32:54Z</time>
      </trkpt>
      <trkpt lat="49.79402" lon="2.37195">
        <ele>106.4</ele>
        <time>2022-07-27T07:32:55Z</time>
      </trkpt>
      <trkpt lat="49.79401" lon="2.37194">
        <ele>106.5</ele>
        <time>2022-07-27T07:32:56Z</time>
      </trkpt>
      <trkpt lat="49.794" lon="2.37193">
        <ele>106.6</ele>
        <time>2022-07-27T07:32:57Z</time>
      </trkpt>
      <trkpt lat="49.79399" lon="2.37192">
        <ele>106.7</ele>
        <time>2022-07-27T07:32:58Z</time>
      </trkpt>
      <trkpt lat="49.79398" lon="2.37191">
        <ele>106.8</ele>
        <time>2022-07-27T07:32:59Z</time>
      </trkpt>
      <trkpt lat="49.79397" lon="2.3719">
        <ele>106.9</ele>
        <time>2022-07-27T07:33:00Z</time>
      </trkpt>
      <trkpt lat="49.79396" lon="2.37189">
        <ele>107.1</ele>
        <time>2022-07-27T07:33:01Z</time>
      </trkpt>
      <trkpt lat="49.79395" lon="2.37188">
        <ele>107.1</ele>
        <time>2022-07-27T07:33:02Z</time>
      </trkpt>
      <trkpt lat="49.79395" lon="2.37187">
        <ele>107.2</ele>
        <time>2022-07-27T07:33:03Z</time>
      </trkpt>
      <trkpt lat="49.79393" lon="2.37186">
        <ele>107.4</ele>
        <time>2022-07-27T07:33:04Z</time>
      </trkpt>
      <trkpt lat="49.79392" lon="2.37185">
        <ele>107.5</ele>
        <time>2022-07-27T07:33:05Z</time>
      </trkpt>
      <trkpt lat="49.79391" lon="2.37184">
        <ele>107.6</ele>
        <time>2022-07-27T07:33:06Z</time>
      </trkpt>
      <trkpt lat="49.7939" lon="2.37183">
        <ele>107.8</ele>
        <time>2022-07-27T07:33:07Z</time>
      </trkpt>
      <trkpt lat="49.79389" lon="2.37183">
        <ele>107.8</ele>
        <time>2022-07-27T07:33:08Z</time>
      </trkpt>
      <trkpt lat="49.79388" lon="2.37182">
        <ele>107.9</ele>
        <time>2022-07-27T07:33:09Z</time>
      </trkpt>
      <trkpt lat="49.79388" lon="2.37182">
        <ele>108</ele>
        <time>2022-07-27T07:33:10Z</time>
      </trkpt>
      <trkpt lat="49.79386" lon="2.37181">
        <ele>108.1</ele>
        <time>2022-07-27T07:33:11Z</time>
      </trkpt>
      <trkpt lat="49.79385" lon="2.37181">
        <ele>108.2</ele>
        <time>2022-07-27T07:33:12Z</time>
      </trkpt>
      <trkpt lat="49.79385" lon="2.3718">
        <ele>108.3</ele>
        <time>2022-07-27T07:33:13Z</time>
      </trkpt>
      <trkpt lat="49.79384" lon="2.3718">
        <ele>108.3</ele>
        <time>2022-07-27T07:33:14Z</time>
      </trkpt>
      <trkpt lat="49.79384" lon="2.3718">
        <ele>108.4</ele>
        <time>2022-07-27T07:33:15Z</time>
      </trkpt>
      <trkpt lat="49.79383" lon="2.37179">
        <ele>108.5</ele>
        <time>2022-07-27T07:33:16Z</time>
      </trkpt>
      <trkpt lat="49.79382" lon="2.37179">
        <ele>108.5</ele>
        <time>2022-07-27T07:33:17Z</time>
      </trkpt>
      <trkpt lat="49.79382" lon="2.37179">
        <ele>108.6</ele>
        <time>2022-07-27T07:33:18Z</time>
      </trkpt>
      <trkpt lat="49.79381" lon="2.37178">
        <ele>108.6</ele>
        <time>2022-07-27T07:33:19Z</time>
      </trkpt>
      <trkpt lat="49.7938" lon="2.37178">
        <ele>108.7</ele>
        <time>2022-07-27T07:33:20Z</time>
      </trkpt>
      <trkpt lat="49.79379" lon="2.37177">
        <ele>108.8</ele>
        <time>2022-07-27T07:33:21Z</time>
      </trkpt>
      <trkpt lat="49.79379" lon="2.37176">
        <ele>108.9</ele>
        <time>2022-07-27T07:33:22Z</time>
      </trkpt>
      <trkpt lat="49.79378" lon="2.37176">
        <ele>108.9</ele>
        <time>2022-07-27T07:33:23Z</time>
      </trkpt>
      <trkpt lat="49.79378" lon="2.37175">
        <ele>109</ele>
        <time>2022-07-27T07:33:24Z</time>
      </trkpt>
      <trkpt lat="49.79377" lon="2.37175">
        <ele>109</ele>
        <time>2022-07-27T07:33:25Z</time>
      </trkpt>
      <trkpt lat="49.79377" lon="2.37173">
        <ele>109.1</ele>
        <time>2022-07-27T07:33:26Z</time>
      </trkpt>
      <trkpt lat="49.79377" lon="2.37173">
        <ele>109.2</ele>
        <time>2022-07-27T07:33:27Z</time>
      </trkpt>
      <trkpt lat="49.79377" lon="2.37172">
        <ele>109.2</ele>
        <time>2022-07-27T07:33:28Z</time>
      </trkpt>
      <trkpt lat="49.79376" lon="2.37172">
        <ele>109.3</ele>
        <time>2022-07-27T07:33:29Z</time>
      </trkpt>
      <trkpt lat="49.79376" lon="2.37171">
        <ele>109.3</ele>
        <time>2022-07-27T07:33:30Z</time>
      </trkpt>
      <trkpt lat="49.79375" lon="2.37171">
        <ele>109.4</ele>
        <time>2022-07-27T07:33:31Z</time>
      </trkpt>
      <trkpt lat="49.79375" lon="2.3717">
        <ele>109.4</ele>
        <time>2022-07-27T07:33:32Z</time>
      </trkpt>
      <trkpt lat="49.79375" lon="2.3717">
        <ele>109.4</ele>
        <time>2022-07-27T07:33:33Z</time>
      </trkpt>
      <trkpt lat="49.79375" lon="2.3717">
        <ele>109.5</ele>
        <time>2022-07-27T07:33:34Z</time>
      </trkpt>
      <trkpt lat="49.79375" lon="2.37169">
        <ele>109.5</ele>
        <time>2022-07-27T07:33:35Z</time>
      </trkpt>
      <trkpt lat="49.79375" lon="2.37169">
        <ele>109.5</ele>
        <time>2022-07-27T07:33:36Z</time>
      </trkpt>
      <trkpt lat="49.79375" lon="2.37169">
        <ele>109.5</ele>
        <time>2022-07-27T07:33:37Z</time>
      </trkpt>
      <trkpt lat="49.79375" lon="2.37169">
        <ele>109.5</ele>
        <time>2022-07-27T07:33:38Z</time>
      </trkpt>
      <trkpt lat="49.79375" lon="2.37168">
        <ele>109.5</ele>
        <time>2022-07-27T07:33:39Z</time>
      </trkpt>
      <trkpt lat="49.79375" lon="2.37168">
        <ele>109.6</ele>
        <time>2022-07-27T07:33:40Z</time>
      </trkpt>
      <trkpt lat="49.79375" lon="2.37168">
        <ele>109.6</ele>
        <time>2022-07-27T07:33:41Z</time>
      </trkpt>
      <trkpt lat="49.79374" lon="2.37168">
        <ele>109.6</ele>
        <time>2022-07-27T07:33:42Z</time>
      </trkpt>
      <trkpt lat="49.79374" lon="2.37168">
        <ele>109.6</ele>
        <time>2022-07-27T07:33:43Z</time>
      </trkpt>
      <trkpt lat="49.79374" lon="2.37168">
        <ele>109.6</ele>
        <time>2022-07-27T07:33:44Z</time>
      </trkpt>
      <trkpt lat="49.79374" lon="2.37168">
        <ele>109.6</ele>
        <time>2022-07-27T07:33:45Z</time>
      </trkpt>
      <trkpt lat="49.79374" lon="2.37168">
        <ele>109.6</ele>
        <time>2022-07-27T07:33:46Z</time>
      </trkpt>
      <trkpt lat="49.79374" lon="2.37168">
        <ele>109.6</ele>
        <time>2022-07-27T07:33:47Z</time>
      </trkpt>
      <trkpt lat="49.79374" lon="2.37168">
        <ele>109.6</ele>
        <time>2022-07-27T07:33:48Z</time>
      </trkpt>
      <trkpt lat="49.79374" lon="2.37168">
        <ele>109.6</ele>
        <time>2022-07-27T07:33:49Z</time>
      </trkpt>
      <trkpt lat="49.79374" lon="2.37168">
        <ele>109.6</ele>
        <time>2022-07-27T07:33:50Z</time>
      </trkpt>
      <trkpt lat="49.79374" lon="2.37168">
        <ele>109.7</ele>
        <time>2022-07-27T07:33:51Z</time>
      </trkpt>
      <trkpt lat="49.79374" lon="2.37168">
        <ele>109.7</ele>
        <time>2022-07-27T07:33:52Z</time>
      </trkpt>
      <trkpt lat="49.79374" lon="2.37168">
        <ele>109.7</ele>
        <time>2022-07-27T07:33:53Z</time>
      </trkpt>
      <trkpt lat="49.79374" lon="2.37168">
        <ele>109.7</ele>
        <time>2022-07-27T07:33:54Z</time>
      </trkpt>
      <trkpt lat="49.79374" lon="2.37168">
        <ele>109.7</ele>
        <time>2022-07-27T07:33:55Z</time>
      </trkpt>
      <trkpt lat="49.79374" lon="2.37168">
        <ele>109.7</ele>
        <time>2022-07-27T07:33:56Z</time>
      </trkpt>
      <trkpt lat="49.79374" lon="2.37168">
        <ele>109.7</ele>
        <time>2022-07-27T07:33:57Z</time>
      </trkpt>
      <trkpt lat="49.79374" lon="2.37168">
        <ele>109.7</ele>
        <time>2022-07-27T07:33:58Z</time>
      </trkpt>
      <trkpt lat="49.79374" lon="2.37168">
        <ele>109.7</ele>
        <time>2022-07-27T07:33:59Z</time>
      </trkpt>
      <trkpt lat="49.79374" lon="2.37168">
        <ele>109.7</ele>
        <time>2022-07-27T07:34:00Z</time>
      </trkpt>
      <trkpt lat="49.79374" lon="2.37168">
        <ele>109.7</ele>
        <time>2022-07-27T07:34:01Z</time>
      </trkpt>
      <trkpt lat="49.79374" lon="2.37168">
        <ele>109.7</ele>
        <time>2022-07-27T07:34:02Z</time>
      </trkpt>
      <trkpt lat="49.79374" lon="2.37168">
        <ele>109.7</ele>
        <time>2022-07-27T07:34:03Z</time>
      </trkpt>
      <trkpt lat="49.79374" lon="2.37168">
        <ele>109.7</ele>
        <time>2022-07-27T07:34:04Z</time>
      </trkpt>
      <trkpt lat="49.79374" lon="2.37168">
        <ele>109.7</ele>
        <time>2022-07-27T07:34:05Z</time>
      </trkpt>
      <trkpt lat="49.79374" lon="2.37168">
        <ele>109.7</ele>
        <time>2022-07-27T07:34:06Z</time>
      </trkpt>
      <trkpt lat="49.79374" lon="2.37168">
        <ele>109.7</ele>
        <time>2022-07-27T07:34:07Z</time>
      </trkpt>
      <trkpt lat="49.79374" lon="2.37168">
        <ele>109.7</ele>
        <time>2022-07-27T07:34:08Z</time>
      </trkpt>
      <trkpt lat="49.79374" lon="2.37168">
        <ele>109.7</ele>
        <time>2022-07-27T07:34:09Z</time>
      </trkpt>
      <trkpt lat="49.79374" lon="2.37168">
        <ele>109.7</ele>
        <time>2022-07-27T07:34:10Z</time>
      </trkpt>
      <trkpt lat="49.79374" lon="2.37168">
        <ele>109.7</ele>
        <time>2022-07-27T07:34:11Z</time>
      </trkpt>
      <trkpt lat="49.79374" lon="2.37168">
        <ele>109.7</ele>
        <time>2022-07-27T07:34:12Z</time>
      </trkpt>
      <trkpt lat="49.79374" lon="2.37168">
        <ele>109.7</ele>
        <time>2022-07-27T07:34:13Z</time>
      </trkpt>
      <trkpt lat="49.79374" lon="2.37168">
        <ele>109.7</ele>
        <time>2022-07-27T07:34:14Z</time>
      </trkpt>
      <trkpt lat="49.79374" lon="2.37168">
        <ele>109.7</ele>
        <time>2022-07-27T07:34:15Z</time>
      </trkpt>
      <trkpt lat="49.79374" lon="2.37168">
        <ele>109.7</ele>
        <time>2022-07-27T07:34:16Z</time>
      </trkpt>
      <trkpt lat="49.79374" lon="2.37168">
        <ele>109.7</ele>
        <time>2022-07-27T07:34:17Z</time>
      </trkpt>
      <trkpt lat="49.79374" lon="2.37168">
        <ele>109.7</ele>
        <time>2022-07-27T07:34:18Z</time>
      </trkpt>
      <trkpt lat="49.79374" lon="2.37168">
        <ele>109.7</ele>
        <time>2022-07-27T07:34:19Z</time>
      </trkpt>
      <trkpt lat="49.79374" lon="2.37168">
        <ele>109.7</ele>
        <time>2022-07-27T07:34:20Z</time>
      </trkpt>
      <trkpt lat="49.79374" lon="2.37168">
        <ele>109.7</ele>
        <time>2022-07-27T07:34:21Z</time>
      </trkpt>
      <trkpt lat="49.79374" lon="2.37168">
        <ele>109.7</ele>
        <time>2022-07-27T07:34:22Z</time>
      </trkpt>
      <trkpt lat="49.79374" lon="2.37168">
        <ele>109.7</ele>
        <time>2022-07-27T07:34:23Z</time>
      </trkpt>
      <trkpt lat="49.79374" lon="2.37168">
        <ele>109.7</ele>
        <time>2022-07-27T07:34:24Z</time>
      </trkpt>
      <trkpt lat="49.79374" lon="2.37168">
        <ele>109.7</ele>
        <time>2022-07-27T07:34:25Z</time>
      </trkpt>
      <trkpt lat="49.79374" lon="2.37168">
        <ele>109.7</ele>
        <time>2022-07-27T07:34:26Z</time>
      </trkpt>
      <trkpt lat="49.79374" lon="2.37168">
        <ele>109.7</ele>
        <time>2022-07-27T07:34:27Z</time>
      </trkpt>
      <trkpt lat="49.79374" lon="2.37168">
        <ele>109.7</ele>
        <time>2022-07-27T07:34:28Z</time>
      </trkpt>
      <trkpt lat="49.79374" lon="2.37168">
        <ele>109.7</ele>
        <time>2022-07-27T07:34:29Z</time>
      </trkpt>
      <trkpt lat="49.79374" lon="2.37168">
        <ele>109.7</ele>
        <time>2022-07-27T07:34:30Z</time>
      </trkpt>
      <trkpt lat="49.79374" lon="2.37168">
        <ele>109.7</ele>
        <time>2022-07-27T07:34:31Z</time>
      </trkpt>
      <trkpt lat="49.79374" lon="2.37168">
        <ele>109.7</ele>
        <time>2022-07-27T07:34:32Z</time>
      </trkpt>
      <trkpt lat="49.79374" lon="2.37168">
        <ele>109.7</ele>
        <time>2022-07-27T07:34:33Z</time>
      </trkpt>
      <trkpt lat="49.79374" lon="2.37168">
        <ele>109.7</ele>
        <time>2022-07-27T07:34:34Z</time>
      </trkpt>
      <trkpt lat="49.79374" lon="2.37168">
        <ele>109.7</ele>
        <time>2022-07-27T07:34:35Z</time>
      </trkpt>
      <trkpt lat="49.79374" lon="2.37168">
        <ele>109.7</ele>
        <time>2022-07-27T07:34:36Z</time>
      </trkpt>
      <trkpt lat="49.79374" lon="2.37168">
        <ele>109.7</ele>
        <time>2022-07-27T07:34:37Z</time>
      </trkpt>
      <trkpt lat="49.79374" lon="2.37168">
        <ele>109.7</ele>
        <time>2022-07-27T07:34:38Z</time>
      </trkpt>
      <trkpt lat="49.79374" lon="2.37168">
        <ele>109.7</ele>
        <time>2022-07-27T07:34:39Z</time>
      </trkpt>
      <trkpt lat="49.79374" lon="2.37168">
        <ele>109.7</ele>
        <time>2022-07-27T07:34:40Z</time>
      </trkpt>
      <trkpt lat="49.79374" lon="2.37168">
        <ele>109.7</ele>
        <time>2022-07-27T07:34:41Z</time>
      </trkpt>
      <trkpt lat="49.79374" lon="2.37168">
        <ele>109.7</ele>
        <time>2022-07-27T07:34:42Z</time>
      </trkpt>
      <trkpt lat="49.79374" lon="2.37168">
        <ele>109.7</ele>
        <time>2022-07-27T07:34:43Z</time>
      </trkpt>
      <trkpt lat="49.79374" lon="2.37168">
        <ele>109.7</ele>
        <time>2022-07-27T07:34:44Z</time>
      </trkpt>
      <trkpt lat="49.79374" lon="2.37168">
        <ele>109.7</ele>
        <time>2022-07-27T07:34:45Z</time>
      </trkpt>
      <trkpt lat="49.79374" lon="2.37168">
        <ele>109.7</ele>
        <time>2022-07-27T07:34:46Z</time>
      </trkpt>
      <trkpt lat="49.79374" lon="2.37168">
        <ele>109.7</ele>
        <time>2022-07-27T07:34:47Z</time>
      </trkpt>
      <trkpt lat="49.79374" lon="2.37168">
        <ele>109.7</ele>
        <time>2022-07-27T07:34:48Z</time>
      </trkpt>
      <trkpt lat="49.79374" lon="2.37168">
        <ele>109.7</ele>
        <time>2022-07-27T07:34:49Z</time>
      </trkpt>
      <trkpt lat="49.79374" lon="2.37168">
        <ele>109.7</ele>
        <time>2022-07-27T07:34:50Z</time>
      </trkpt>
      <trkpt lat="49.79374" lon="2.37168">
        <ele>109.7</ele>
        <time>2022-07-27T07:34:52Z</time>
      </trkpt>
      <trkpt lat="49.79374" lon="2.37168">
        <ele>109.7</ele>
        <time>2022-07-27T07:34:53Z</time>
      </trkpt>
      <trkpt lat="49.79374" lon="2.37168">
        <ele>109.7</ele>
        <time>2022-07-27T07:34:54Z</time>
      </trkpt>
      <trkpt lat="49.79374" lon="2.37168">
        <ele>109.7</ele>
        <time>2022-07-27T07:34:55Z</time>
      </trkpt>
      <trkpt lat="49.79374" lon="2.37168">
        <ele>109.7</ele>
        <time>2022-07-27T07:34:56Z</time>
      </trkpt>
      <trkpt lat="49.79374" lon="2.37168">
        <ele>109.7</ele>
        <time>2022-07-27T07:34:57Z</time>
      </trkpt>
      <trkpt lat="49.79374" lon="2.37168">
        <ele>109.7</ele>
        <time>2022-07-27T07:34:58Z</time>
      </trkpt>
      <trkpt lat="49.79374" lon="2.37168">
        <ele>109.7</ele>
        <time>2022-07-27T07:34:59Z</time>
      </trkpt>
      <trkpt lat="49.79374" lon="2.37168">
        <ele>109.7</ele>
        <time>2022-07-27T07:35:00Z</time>
      </trkpt>
      <trkpt lat="49.79374" lon="2.37168">
        <ele>109.7</ele>
        <time>2022-07-27T07:35:01Z</time>
      </trkpt>
      <trkpt lat="49.79374" lon="2.37168">
        <ele>109.7</ele>
        <time>2022-07-27T07:35:02Z</time>
      </trkpt>
      <trkpt lat="49.79374" lon="2.37168">
        <ele>109.7</ele>
        <time>2022-07-27T07:35:03Z</time>
      </trkpt>
      <trkpt lat="49.79374" lon="2.37168">
        <ele>109.7</ele>
        <time>2022-07-27T07:35:04Z</time>
      </trkpt>
      <trkpt lat="49.79374" lon="2.37168">
        <ele>109.7</ele>
        <time>2022-07-27T07:35:05Z</time>
      </trkpt>
      <trkpt lat="49.79374" lon="2.37168">
        <ele>109.7</ele>
        <time>2022-07-27T07:35:06Z</time>
      </trkpt>
      <trkpt lat="49.79374" lon="2.37168">
        <ele>109.7</ele>
        <time>2022-07-27T07:35:07Z</time>
      </trkpt>
      <trkpt lat="49.79374" lon="2.37168">
        <ele>109.7</ele>
        <time>2022-07-27T07:35:08Z</time>
      </trkpt>
      <trkpt lat="49.79374" lon="2.37168">
        <ele>109.7</ele>
        <time>2022-07-27T07:35:09Z</time>
      </trkpt>
      <trkpt lat="49.79374" lon="2.37168">
        <ele>109.7</ele>
        <time>2022-07-27T07:35:10Z</time>
      </trkpt>
      <trkpt lat="49.79374" lon="2.37168">
        <ele>109.7</ele>
        <time>2022-07-27T07:35:11Z</time>
      </trkpt>
      <trkpt lat="49.79374" lon="2.37168">
        <ele>109.7</ele>
        <time>2022-07-27T07:35:12Z</time>
      </trkpt>
      <trkpt lat="49.79374" lon="2.37168">
        <ele>109.7</ele>
        <time>2022-07-27T07:35:13Z</time>
      </trkpt>
      <trkpt lat="49.79374" lon="2.37168">
        <ele>109.7</ele>
        <time>2022-07-27T07:35:14Z</time>
      </trkpt>
      <trkpt lat="49.79374" lon="2.37168">
        <ele>109.7</ele>
        <time>2022-07-27T07:35:15Z</time>
      </trkpt>
      <trkpt lat="49.79374" lon="2.37168">
        <ele>109.7</ele>
        <time>2022-07-27T07:35:16Z</time>
      </trkpt>
      <trkpt lat="49.79374" lon="2.37168">
        <ele>109.7</ele>
        <time>2022-07-27T07:35:18Z</time>
      </trkpt>
      <trkpt lat="49.79374" lon="2.37168">
        <ele>109.7</ele>
        <time>2022-07-27T07:35:19Z</time>
      </trkpt>
      <trkpt lat="49.79374" lon="2.37168">
        <ele>109.7</ele>
        <time>2022-07-27T07:35:20Z</time>
      </trkpt>
      <trkpt lat="49.79374" lon="2.37168">
        <ele>109.7</ele>
        <time>2022-07-27T07:35:21Z</time>
      </trkpt>
      <trkpt lat="49.79374" lon="2.37168">
        <ele>109.7</ele>
        <time>2022-07-27T07:35:22Z</time>
      </trkpt>
      <trkpt lat="49.79374" lon="2.37168">
        <ele>109.7</ele>
        <time>2022-07-27T07:35:23Z</time>
      </trkpt>
      <trkpt lat="49.79374" lon="2.37168">
        <ele>109.7</ele>
        <time>2022-07-27T07:35:24Z</time>
      </trkpt>
      <trkpt lat="49.79374" lon="2.37168">
        <ele>109.7</ele>
        <time>2022-07-27T07:35:25Z</time>
      </trkpt>
      <trkpt lat="49.79374" lon="2.37168">
        <ele>109.7</ele>
        <time>2022-07-27T07:35:26Z</time>
      </trkpt>
      <trkpt lat="49.79374" lon="2.37168">
        <ele>109.7</ele>
        <time>2022-07-27T07:35:27Z</time>
      </trkpt>
      <trkpt lat="49.79374" lon="2.37168">
        <ele>109.7</ele>
        <time>2022-07-27T07:35:28Z</time>
      </trkpt>
      <trkpt lat="49.79374" lon="2.37168">
        <ele>109.7</ele>
        <time>2022-07-27T07:35:29Z</time>
      </trkpt>
      <trkpt lat="49.79374" lon="2.37168">
        <ele>109.7</ele>
        <time>2022-07-27T07:35:30Z</time>
      </trkpt>
      <trkpt lat="49.79374" lon="2.37168">
        <ele>109.7</ele>
        <time>2022-07-27T07:35:31Z</time>
      </trkpt>
      <trkpt lat="49.79374" lon="2.37168">
        <ele>109.7</ele>
        <time>2022-07-27T07:35:32Z</time>
      </trkpt>
      <trkpt lat="49.79374" lon="2.37168">
        <ele>109.7</ele>
        <time>2022-07-27T07:35:33Z</time>
      </trkpt>
      <trkpt lat="49.79374" lon="2.37168">
        <ele>109.7</ele>
        <time>2022-07-27T07:35:34Z</time>
      </trkpt>
      <trkpt lat="49.79374" lon="2.37168">
        <ele>109.7</ele>
        <time>2022-07-27T07:35:35Z</time>
      </trkpt>
      <trkpt lat="49.79374" lon="2.37168">
        <ele>109.7</ele>
        <time>2022-07-27T07:35:36Z</time>
      </trkpt>
      <trkpt lat="49.79374" lon="2.37168">
        <ele>109.7</ele>
        <time>2022-07-27T07:35:37Z</time>
      </trkpt>
      <trkpt lat="49.79374" lon="2.37168">
        <ele>109.7</ele>
        <time>2022-07-27T07:35:38Z</time>
      </trkpt>
      <trkpt lat="49.79374" lon="2.37168">
        <ele>109.7</ele>
        <time>2022-07-27T07:35:39Z</time>
      </trkpt>
      <trkpt lat="49.79374" lon="2.37168">
        <ele>109.7</ele>
        <time>2022-07-27T07:35:40Z</time>
      </trkpt>
      <trkpt lat="49.79374" lon="2.37168">
        <ele>109.7</ele>
        <time>2022-07-27T07:35:41Z</time>
      </trkpt>
      <trkpt lat="49.79374" lon="2.37168">
        <ele>109.7</ele>
        <time>2022-07-27T07:35:42Z</time>
      </trkpt>
      <trkpt lat="49.79374" lon="2.37168">
        <ele>109.7</ele>
        <time>2022-07-27T07:35:43Z</time>
      </trkpt>
      <trkpt lat="49.79374" lon="2.37168">
        <ele>109.7</ele>
        <time>2022-07-27T07:35:44Z</time>
      </trkpt>
      <trkpt lat="49.79374" lon="2.37168">
        <ele>109.7</ele>
        <time>2022-07-27T07:35:45Z</time>
      </trkpt>
      <trkpt lat="49.79374" lon="2.37168">
        <ele>109.7</ele>
        <time>2022-07-27T07:35:46Z</time>
      </trkpt>
      <trkpt lat="49.79374" lon="2.37168">
        <ele>109.7</ele>
        <time>2022-07-27T07:35:47Z</time>
      </trkpt>
      <trkpt lat="49.79374" lon="2.37168">
        <ele>109.7</ele>
        <time>2022-07-27T07:35:48Z</time>
      </trkpt>
      <trkpt lat="49.79374" lon="2.37168">
        <ele>109.7</ele>
        <time>2022-07-27T07:35:49Z</time>
      </trkpt>
      <trkpt lat="49.79374" lon="2.37168">
        <ele>109.7</ele>
        <time>2022-07-27T07:35:50Z</time>
      </trkpt>
      <trkpt lat="49.79374" lon="2.37168">
        <ele>109.7</ele>
        <time>2022-07-27T07:35:51Z</time>
      </trkpt>
      <trkpt lat="49.79374" lon="2.37168">
        <ele>109.7</ele>
        <time>2022-07-27T07:35:52Z</time>
      </trkpt>
      <trkpt lat="49.79374" lon="2.37168">
        <ele>109.7</ele>
        <time>2022-07-27T07:35:53Z</time>
      </trkpt>
      <trkpt lat="49.79374" lon="2.37168">
        <ele>109.7</ele>
        <time>2022-07-27T07:35:54Z</time>
      </trkpt>
      <trkpt lat="49.79374" lon="2.37168">
        <ele>109.7</ele>
        <time>2022-07-27T07:35:55Z</time>
      </trkpt>
      <trkpt lat="49.79374" lon="2.37168">
        <ele>109.7</ele>
        <time>2022-07-27T07:35:56Z</time>
      </trkpt>
      <trkpt lat="49.79374" lon="2.37168">
        <ele>109.7</ele>
        <time>2022-07-27T07:35:57Z</time>
      </trkpt>
      <trkpt lat="49.79374" lon="2.37168">
        <ele>109.7</ele>
        <time>2022-07-27T07:35:58Z</time>
      </trkpt>
      <trkpt lat="49.79374" lon="2.37168">
        <ele>109.7</ele>
        <time>2022-07-27T07:35:59Z</time>
      </trkpt>
      <trkpt lat="49.79374" lon="2.37168">
        <ele>109.7</ele>
        <time>2022-07-27T07:36:00Z</time>
      </trkpt>
      <trkpt lat="49.79374" lon="2.37168">
        <ele>109.7</ele>
        <time>2022-07-27T07:36:01Z</time>
      </trkpt>
      <trkpt lat="49.79374" lon="2.37168">
        <ele>109.7</ele>
        <time>2022-07-27T07:36:02Z</time>
      </trkpt>
      <trkpt lat="49.79374" lon="2.37168">
        <ele>109.7</ele>
        <time>2022-07-27T07:36:03Z</time>
      </trkpt>
      <trkpt lat="49.79374" lon="2.37168">
        <ele>109.7</ele>
        <time>2022-07-27T07:36:04Z</time>
      </trkpt>
      <trkpt lat="49.79374" lon="2.37168">
        <ele>109.7</ele>
        <time>2022-07-27T07:36:05Z</time>
      </trkpt>
      <trkpt lat="49.79374" lon="2.37168">
        <ele>109.7</ele>
        <time>2022-07-27T07:36:06Z</time>
      </trkpt>
      <trkpt lat="49.79374" lon="2.37168">
        <ele>109.7</ele>
        <time>2022-07-27T07:36:07Z</time>
      </trkpt>
      <trkpt lat="49.79374" lon="2.37168">
        <ele>109.7</ele>
        <time>2022-07-27T07:36:08Z</time>
      </trkpt>
      <trkpt lat="49.79374" lon="2.37168">
        <ele>109.7</ele>
        <time>2022-07-27T07:36:09Z</time>
      </trkpt>
      <trkpt lat="49.79374" lon="2.37168">
        <ele>109.7</ele>
        <time>2022-07-27T07:36:10Z</time>
      </trkpt>
      <trkpt lat="49.79374" lon="2.37168">
        <ele>109.7</ele>
        <time>2022-07-27T07:36:12Z</time>
      </trkpt>
      <trkpt lat="49.79374" lon="2.37168">
        <ele>109.7</ele>
        <time>2022-07-27T07:36:13Z</time>
      </trkpt>
      <trkpt lat="49.79374" lon="2.37168">
        <ele>109.7</ele>
        <time>2022-07-27T07:36:14Z</time>
      </trkpt>
      <trkpt lat="49.79374" lon="2.37168">
        <ele>109.7</ele>
        <time>2022-07-27T07:36:15Z</time>
      </trkpt>
      <trkpt lat="49.79374" lon="2.37168">
        <ele>109.7</ele>
        <time>2022-07-27T07:36:16Z</time>
      </trkpt>
      <trkpt lat="49.79374" lon="2.37168">
        <ele>109.7</ele>
        <time>2022-07-27T07:36:17Z</time>
      </trkpt>
      <trkpt lat="49.79374" lon="2.37168">
        <ele>109.7</ele>
        <time>2022-07-27T07:36:18Z</time>
      </trkpt>
      <trkpt lat="49.79374" lon="2.37168">
        <ele>109.7</ele>
        <time>2022-07-27T07:36:19Z</time>
      </trkpt>
      <trkpt lat="49.79374" lon="2.37168">
        <ele>109.7</ele>
        <time>2022-07-27T07:36:20Z</time>
      </trkpt>
      <trkpt lat="49.79374" lon="2.37168">
        <ele>109.7</ele>
        <time>2022-07-27T07:36:21Z</time>
      </trkpt>
      <trkpt lat="49.79374" lon="2.37168">
        <ele>109.7</ele>
        <time>2022-07-27T07:36:22Z</time>
      </trkpt>
      <trkpt lat="49.79374" lon="2.37168">
        <ele>109.7</ele>
        <time>2022-07-27T07:36:23Z</time>
      </trkpt>
      <trkpt lat="49.79374" lon="2.37168">
        <ele>109.7</ele>
        <time>2022-07-27T07:36:24Z</time>
      </trkpt>
      <trkpt lat="49.79374" lon="2.37168">
        <ele>109.7</ele>
        <time>2022-07-27T07:36:25Z</time>
      </trkpt>
      <trkpt lat="49.79374" lon="2.37168">
        <ele>109.7</ele>
        <time>2022-07-27T07:36:26Z</time>
      </trkpt>
      <trkpt lat="49.79374" lon="2.37168">
        <ele>109.7</ele>
        <time>2022-07-27T07:36:27Z</time>
      </trkpt>
      <trkpt lat="49.79374" lon="2.37168">
        <ele>109.7</ele>
        <time>2022-07-27T07:36:28Z</time>
      </trkpt>
      <trkpt lat="49.79374" lon="2.37168">
        <ele>109.7</ele>
        <time>2022-07-27T07:36:29Z</time>
      </trkpt>
      <trkpt lat="49.79374" lon="2.37168">
        <ele>109.7</ele>
        <time>2022-07-27T07:36:31Z</time>
      </trkpt>
      <trkpt lat="49.79374" lon="2.37168">
        <ele>109.7</ele>
        <time>2022-07-27T07:36:32Z</time>
      </trkpt>
      <trkpt lat="49.79374" lon="2.37168">
        <ele>109.7</ele>
        <time>2022-07-27T07:36:33Z</time>
      </trkpt>
      <trkpt lat="49.79374" lon="2.37168">
        <ele>109.7</ele>
        <time>2022-07-27T07:36:34Z</time>
      </trkpt>
      <trkpt lat="49.79374" lon="2.37168">
        <ele>109.7</ele>
        <time>2022-07-27T07:36:35Z</time>
      </trkpt>
      <trkpt lat="49.79374" lon="2.37168">
        <ele>109.7</ele>
        <time>2022-07-27T07:36:36Z</time>
      </trkpt>
      <trkpt lat="49.79374" lon="2.37168">
        <ele>109.7</ele>
        <time>2022-07-27T07:36:38Z</time>
      </trkpt>
      <trkpt lat="49.79374" lon="2.37168">
        <ele>109.7</ele>
        <time>2022-07-27T07:36:39Z</time>
      </trkpt>
      <trkpt lat="49.79374" lon="2.37168">
        <ele>109.7</ele>
        <time>2022-07-27T07:36:40Z</time>
      </trkpt>
      <trkpt lat="49.79374" lon="2.37168">
        <ele>109.7</ele>
        <time>2022-07-27T07:36:41Z</time>
      </trkpt>
      <trkpt lat="49.79374" lon="2.37168">
        <ele>109.7</ele>
        <time>2022-07-27T07:36:42Z</time>
      </trkpt>
      <trkpt lat="49.79374" lon="2.37168">
        <ele>109.7</ele>
        <time>2022-07-27T07:36:43Z</time>
      </trkpt>
      <trkpt lat="49.79374" lon="2.37168">
        <ele>109.7</ele>
        <time>2022-07-27T07:36:44Z</time>
      </trkpt>
      <trkpt lat="49.79374" lon="2.37168">
        <ele>109.7</ele>
        <time>2022-07-27T07:36:45Z</time>
      </trkpt>
      <trkpt lat="49.79374" lon="2.37168">
        <ele>109.7</ele>
        <time>2022-07-27T07:36:46Z</time>
      </trkpt>
      <trkpt lat="49.79374" lon="2.37168">
        <ele>109.7</ele>
        <time>2022-07-27T07:36:47Z</time>
      </trkpt>
      <trkpt lat="49.79374" lon="2.37168">
        <ele>109.7</ele>
        <time>2022-07-27T07:36:48Z</time>
      </trkpt>
      <trkpt lat="49.79374" lon="2.37168">
        <ele>109.7</ele>
        <time>2022-07-27T07:36:49Z</time>
      </trkpt>
      <trkpt lat="49.79374" lon="2.37168">
        <ele>109.7</ele>
        <time>2022-07-27T07:36:50Z</time>
      </trkpt>
      <trkpt lat="49.79374" lon="2.37168">
        <ele>109.7</ele>
        <time>2022-07-27T07:36:51Z</time>
      </trkpt>
      <trkpt lat="49.79374" lon="2.37168">
        <ele>109.7</ele>
        <time>2022-07-27T07:36:52Z</time>
      </trkpt>
      <trkpt lat="49.79374" lon="2.37168">
        <ele>109.7</ele>
        <time>2022-07-27T07:36:53Z</time>
      </trkpt>
      <trkpt lat="49.79374" lon="2.37168">
        <ele>109.7</ele>
        <time>2022-07-27T07:36:54Z</time>
      </trkpt>
      <trkpt lat="49.79375" lon="2.37167">
        <ele>109.8</ele>
        <time>2022-07-27T07:36:55Z</time>
      </trkpt>
      <trkpt lat="49.79375" lon="2.37166">
        <ele>109.8</ele>
        <time>2022-07-27T07:36:56Z</time>
      </trkpt>
      <trkpt lat="49.79374" lon="2.37166">
        <ele>109.8</ele>
        <time>2022-07-27T07:36:57Z</time>
      </trkpt>
      <trkpt lat="49.79373" lon="2.37166">
        <ele>109.9</ele>
        <time>2022-07-27T07:36:58Z</time>
      </trkpt>
      <trkpt lat="49.79373" lon="2.37165">
        <ele>110</ele>
        <time>2022-07-27T07:36:59Z</time>
      </trkpt>
      <trkpt lat="49.79372" lon="2.37163">
        <ele>110.1</ele>
        <time>2022-07-27T07:37:00Z</time>
      </trkpt>
      <trkpt lat="49.79371" lon="2.37162">
        <ele>110.3</ele>
        <time>2022-07-27T07:37:01Z</time>
      </trkpt>
      <trkpt lat="49.7937" lon="2.37159">
        <ele>110.5</ele>
        <time>2022-07-27T07:37:02Z</time>
      </trkpt>
      <trkpt lat="49.79368" lon="2.37156">
        <ele>110.7</ele>
        <time>2022-07-27T07:37:03Z</time>
      </trkpt>
      <trkpt lat="49.79367" lon="2.37155">
        <ele>110.8</ele>
        <time>2022-07-27T07:37:04Z</time>
      </trkpt>
      <trkpt lat="49.79366" lon="2.37153">
        <ele>111.1</ele>
        <time>2022-07-27T07:37:05Z</time>
      </trkpt>
      <trkpt lat="49.79365" lon="2.37152">
        <ele>111.1</ele>
        <time>2022-07-27T07:37:06Z</time>
      </trkpt>
      <trkpt lat="49.79365" lon="2.37151">
        <ele>110.6</ele>
        <time>2022-07-27T07:37:07Z</time>
      </trkpt>
      <trkpt lat="49.79363" lon="2.37149">
        <ele>111</ele>
        <time>2022-07-27T07:37:08Z</time>
      </trkpt>
      <trkpt lat="49.79362" lon="2.37149">
        <ele>110.5</ele>
        <time>2022-07-27T07:37:09Z</time>
      </trkpt>
      <trkpt lat="49.79362" lon="2.37148">
        <ele>110.5</ele>
        <time>2022-07-27T07:37:10Z</time>
      </trkpt>
      <trkpt lat="49.7936" lon="2.37147">
        <ele>110.5</ele>
        <time>2022-07-27T07:37:11Z</time>
      </trkpt>
      <trkpt lat="49.79359" lon="2.37147">
        <ele>109.9</ele>
        <time>2022-07-27T07:37:12Z</time>
      </trkpt>
      <trkpt lat="49.79358" lon="2.37147">
        <ele>109.9</ele>
        <time>2022-07-27T07:37:13Z</time>
      </trkpt>
      <trkpt lat="49.79357" lon="2.37146">
        <ele>109.9</ele>
        <time>2022-07-27T07:37:14Z</time>
      </trkpt>
      <trkpt lat="49.79356" lon="2.37145">
        <ele>109.8</ele>
        <time>2022-07-27T07:37:15Z</time>
      </trkpt>
      <trkpt lat="49.79355" lon="2.37144">
        <ele>109.8</ele>
        <time>2022-07-27T07:37:16Z</time>
      </trkpt>
      <trkpt lat="49.79354" lon="2.37143">
        <ele>109.8</ele>
        <time>2022-07-27T07:37:17Z</time>
      </trkpt>
      <trkpt lat="49.79353" lon="2.37141">
        <ele>109.7</ele>
        <time>2022-07-27T07:37:18Z</time>
      </trkpt>
      <trkpt lat="49.79352" lon="2.3714">
        <ele>109.7</ele>
        <time>2022-07-27T07:37:19Z</time>
      </trkpt>
      <trkpt lat="49.79351" lon="2.37139">
        <ele>109.3</ele>
        <time>2022-07-27T07:37:20Z</time>
      </trkpt>
      <trkpt lat="49.79349" lon="2.37137">
        <ele>109.3</ele>
        <time>2022-07-27T07:37:22Z</time>
      </trkpt>
      <trkpt lat="49.79348" lon="2.37136">
        <ele>109.4</ele>
        <time>2022-07-27T07:37:23Z</time>
      </trkpt>
      <trkpt lat="49.79347" lon="2.37135">
        <ele>109.4</ele>
        <time>2022-07-27T07:37:24Z</time>
      </trkpt>
      <trkpt lat="49.79346" lon="2.37134">
        <ele>109.4</ele>
        <time>2022-07-27T07:37:25Z</time>
      </trkpt>
      <trkpt lat="49.79346" lon="2.37133">
        <ele>109.4</ele>
        <time>2022-07-27T07:37:26Z</time>
      </trkpt>
      <trkpt lat="49.79345" lon="2.37132">
        <ele>109.6</ele>
        <time>2022-07-27T07:37:27Z</time>
      </trkpt>
      <trkpt lat="49.79343" lon="2.37131">
        <ele>109.6</ele>
        <time>2022-07-27T07:37:28Z</time>
      </trkpt>
      <trkpt lat="49.79343" lon="2.3713">
        <ele>109.2</ele>
        <time>2022-07-27T07:37:29Z</time>
      </trkpt>
      <trkpt lat="49.79342" lon="2.3713">
        <ele>109.2</ele>
        <time>2022-07-27T07:37:30Z</time>
      </trkpt>
      <trkpt lat="49.79341" lon="2.37129">
        <ele>109.2</ele>
        <time>2022-07-27T07:37:31Z</time>
      </trkpt>
      <trkpt lat="49.79341" lon="2.37128">
        <ele>109.8</ele>
        <time>2022-07-27T07:37:32Z</time>
      </trkpt>
      <trkpt lat="49.7934" lon="2.37127">
        <ele>109.5</ele>
        <time>2022-07-27T07:37:33Z</time>
      </trkpt>
      <trkpt lat="49.79339" lon="2.37126">
        <ele>109.5</ele>
        <time>2022-07-27T07:37:34Z</time>
      </trkpt>
      <trkpt lat="49.79338" lon="2.37125">
        <ele>109.5</ele>
        <time>2022-07-27T07:37:35Z</time>
      </trkpt>
      <trkpt lat="49.79337" lon="2.37123">
        <ele>109.8</ele>
        <time>2022-07-27T07:37:36Z</time>
      </trkpt>
      <trkpt lat="49.79336" lon="2.37122">
        <ele>109.8</ele>
        <time>2022-07-27T07:37:37Z</time>
      </trkpt>
      <trkpt lat="49.79335" lon="2.37121">
        <ele>109.8</ele>
        <time>2022-07-27T07:37:38Z</time>
      </trkpt>
      <trkpt lat="49.79335" lon="2.37121">
        <ele>109.8</ele>
        <time>2022-07-27T07:37:39Z</time>
      </trkpt>
      <trkpt lat="49.79334" lon="2.3712">
        <ele>110.1</ele>
        <time>2022-07-27T07:37:40Z</time>
      </trkpt>
      <trkpt lat="49.79333" lon="2.37119">
        <ele>110.1</ele>
        <time>2022-07-27T07:37:41Z</time>
      </trkpt>
      <trkpt lat="49.79333" lon="2.37118">
        <ele>110.1</ele>
        <time>2022-07-27T07:37:42Z</time>
      </trkpt>
      <trkpt lat="49.79331" lon="2.37115">
        <ele>110.4</ele>
        <time>2022-07-27T07:37:43Z</time>
      </trkpt>
      <trkpt lat="49.79331" lon="2.37114">
        <ele>110.4</ele>
        <time>2022-07-27T07:37:44Z</time>
      </trkpt>
      <trkpt lat="49.7933" lon="2.37114">
        <ele>110.4</ele>
        <time>2022-07-27T07:37:45Z</time>
      </trkpt>
      <trkpt lat="49.79329" lon="2.37111">
        <ele>110.7</ele>
        <time>2022-07-27T07:37:46Z</time>
      </trkpt>
      <trkpt lat="49.79328" lon="2.3711">
        <ele>110.7</ele>
        <time>2022-07-27T07:37:47Z</time>
      </trkpt>
      <trkpt lat="49.79327" lon="2.37108">
        <ele>110.7</ele>
        <time>2022-07-27T07:37:48Z</time>
      </trkpt>
      <trkpt lat="49.79327" lon="2.37107">
        <ele>111.2</ele>
        <time>2022-07-27T07:37:49Z</time>
      </trkpt>
      <trkpt lat="49.79326" lon="2.37106">
        <ele>111.2</ele>
        <time>2022-07-27T07:37:50Z</time>
      </trkpt>
      <trkpt lat="49.79326" lon="2.37104">
        <ele>111.1</ele>
        <time>2022-07-27T07:37:51Z</time>
      </trkpt>
      <trkpt lat="49.79324" lon="2.37101">
        <ele>111.6</ele>
        <time>2022-07-27T07:37:52Z</time>
      </trkpt>
      <trkpt lat="49.79324" lon="2.37099">
        <ele>111.6</ele>
        <time>2022-07-27T07:37:53Z</time>
      </trkpt>
      <trkpt lat="49.79323" lon="2.37098">
        <ele>112</ele>
        <time>2022-07-27T07:37:54Z</time>
      </trkpt>
      <trkpt lat="49.79323" lon="2.37097">
        <ele>112</ele>
        <time>2022-07-27T07:37:55Z</time>
      </trkpt>
      <trkpt lat="49.79322" lon="2.37095">
        <ele>112</ele>
        <time>2022-07-27T07:37:56Z</time>
      </trkpt>
      <trkpt lat="49.79322" lon="2.37094">
        <ele>112.6</ele>
        <time>2022-07-27T07:37:57Z</time>
      </trkpt>
      <trkpt lat="49.7932" lon="2.37092">
        <ele>112.5</ele>
        <time>2022-07-27T07:37:58Z</time>
      </trkpt>
      <trkpt lat="49.7932" lon="2.37091">
        <ele>112.5</ele>
        <time>2022-07-27T07:37:59Z</time>
      </trkpt>
      <trkpt lat="49.79319" lon="2.3709">
        <ele>113.1</ele>
        <time>2022-07-27T07:38:00Z</time>
      </trkpt>
      <trkpt lat="49.7932" lon="2.37091">
        <ele>112.5</ele>
        <time>2022-07-27T07:38:01Z</time>
      </trkpt>
      <trkpt lat="49.79319" lon="2.3709">
        <ele>113.1</ele>
        <time>2022-07-27T07:38:02Z</time>
      </trkpt>
      <trkpt lat="49.79319" lon="2.37089">
        <ele>113.1</ele>
        <time>2022-07-27T07:38:03Z</time>
      </trkpt>
      <trkpt lat="49.79318" lon="2.37088">
        <ele>113.1</ele>
        <time>2022-07-27T07:38:04Z</time>
      </trkpt>
      <trkpt lat="49.79318" lon="2.37088">
        <ele>113.1</ele>
        <time>2022-07-27T07:38:05Z</time>
      </trkpt>
      <trkpt lat="49.79318" lon="2.37088">
        <ele>113</ele>
        <time>2022-07-27T07:38:06Z</time>
      </trkpt>
      <trkpt lat="49.79317" lon="2.37087">
        <ele>113</ele>
        <time>2022-07-27T07:38:07Z</time>
      </trkpt>
      <trkpt lat="49.79317" lon="2.37086">
        <ele>113.6</ele>
        <time>2022-07-27T07:38:08Z</time>
      </trkpt>
      <trkpt lat="49.79317" lon="2.37086">
        <ele>113.6</ele>
        <time>2022-07-27T07:38:09Z</time>
      </trkpt>
      <trkpt lat="49.79317" lon="2.37086">
        <ele>113.6</ele>
        <time>2022-07-27T07:38:10Z</time>
      </trkpt>
      <trkpt lat="49.79317" lon="2.37085">
        <ele>113.6</ele>
        <time>2022-07-27T07:38:11Z</time>
      </trkpt>
      <trkpt lat="49.79317" lon="2.37085">
        <ele>113.6</ele>
        <time>2022-07-27T07:38:12Z</time>
      </trkpt>
      <trkpt lat="49.79316" lon="2.37084">
        <ele>113.6</ele>
        <time>2022-07-27T07:38:13Z</time>
      </trkpt>
      <trkpt lat="49.79316" lon="2.37084">
        <ele>113.6</ele>
        <time>2022-07-27T07:38:14Z</time>
      </trkpt>
      <trkpt lat="49.79315" lon="2.37082">
        <ele>113.5</ele>
        <time>2022-07-27T07:38:15Z</time>
      </trkpt>
      <trkpt lat="49.79314" lon="2.37081">
        <ele>114.1</ele>
        <time>2022-07-27T07:38:16Z</time>
      </trkpt>
      <trkpt lat="49.79314" lon="2.37079">
        <ele>114.1</ele>
        <time>2022-07-27T07:38:17Z</time>
      </trkpt>
      <trkpt lat="49.79313" lon="2.37077">
        <ele>114.6</ele>
        <time>2022-07-27T07:38:18Z</time>
      </trkpt>
      <trkpt lat="49.79311" lon="2.37075">
        <ele>114.5</ele>
        <time>2022-07-27T07:38:19Z</time>
      </trkpt>
      <trkpt lat="49.79311" lon="2.37074">
        <ele>114.5</ele>
        <time>2022-07-27T07:38:20Z</time>
      </trkpt>
      <trkpt lat="49.7931" lon="2.37073">
        <ele>114.5</ele>
        <time>2022-07-27T07:38:21Z</time>
      </trkpt>
      <trkpt lat="49.79308" lon="2.3707">
        <ele>114.9</ele>
        <time>2022-07-27T07:38:22Z</time>
      </trkpt>
      <trkpt lat="49.79308" lon="2.37069">
        <ele>114.9</ele>
        <time>2022-07-27T07:38:23Z</time>
      </trkpt>
      <trkpt lat="49.79307" lon="2.37068">
        <ele>115.3</ele>
        <time>2022-07-27T07:38:24Z</time>
      </trkpt>
      <trkpt lat="49.79306" lon="2.37066">
        <ele>115.2</ele>
        <time>2022-07-27T07:38:25Z</time>
      </trkpt>
      <trkpt lat="49.79305" lon="2.37065">
        <ele>115.2</ele>
        <time>2022-07-27T07:38:26Z</time>
      </trkpt>
      <trkpt lat="49.79305" lon="2.37064">
        <ele>115.6</ele>
        <time>2022-07-27T07:38:27Z</time>
      </trkpt>
      <trkpt lat="49.79303" lon="2.37061">
        <ele>115.5</ele>
        <time>2022-07-27T07:38:28Z</time>
      </trkpt>
      <trkpt lat="49.79303" lon="2.3706">
        <ele>115.5</ele>
        <time>2022-07-27T07:38:29Z</time>
      </trkpt>
      <trkpt lat="49.79302" lon="2.3706">
        <ele>115.9</ele>
        <time>2022-07-27T07:38:30Z</time>
      </trkpt>
      <trkpt lat="49.79302" lon="2.37059">
        <ele>115.9</ele>
        <time>2022-07-27T07:38:31Z</time>
      </trkpt>
      <trkpt lat="49.79301" lon="2.37058">
        <ele>115.8</ele>
        <time>2022-07-27T07:38:32Z</time>
      </trkpt>
      <trkpt lat="49.793" lon="2.37056">
        <ele>116.2</ele>
        <time>2022-07-27T07:38:33Z</time>
      </trkpt>
      <trkpt lat="49.79299" lon="2.37054">
        <ele>116.2</ele>
        <time>2022-07-27T07:38:34Z</time>
      </trkpt>
      <trkpt lat="49.79298" lon="2.37053">
        <ele>116.1</ele>
        <time>2022-07-27T07:38:35Z</time>
      </trkpt>
      <trkpt lat="49.79297" lon="2.37053">
        <ele>116.1</ele>
        <time>2022-07-27T07:38:36Z</time>
      </trkpt>
      <trkpt lat="49.79296" lon="2.37052">
        <ele>116.1</ele>
        <time>2022-07-27T07:38:37Z</time>
      </trkpt>
      <trkpt lat="49.79295" lon="2.37049">
        <ele>116.5</ele>
        <time>2022-07-27T07:38:38Z</time>
      </trkpt>
      <trkpt lat="49.79294" lon="2.37048">
        <ele>116.5</ele>
        <time>2022-07-27T07:38:39Z</time>
      </trkpt>
      <trkpt lat="49.79293" lon="2.37047">
        <ele>116.9</ele>
        <time>2022-07-27T07:38:40Z</time>
      </trkpt>
      <trkpt lat="49.79292" lon="2.37046">
        <ele>116.9</ele>
        <time>2022-07-27T07:38:41Z</time>
      </trkpt>
      <trkpt lat="49.79291" lon="2.37045">
        <ele>116.9</ele>
        <time>2022-07-27T07:38:42Z</time>
      </trkpt>
      <trkpt lat="49.79289" lon="2.37042">
        <ele>117.2</ele>
        <time>2022-07-27T07:38:43Z</time>
      </trkpt>
      <trkpt lat="49.79288" lon="2.3704">
        <ele>117.2</ele>
        <time>2022-07-27T07:38:44Z</time>
      </trkpt>
      <trkpt lat="49.79288" lon="2.3704">
        <ele>117.2</ele>
        <time>2022-07-27T07:38:45Z</time>
      </trkpt>
      <trkpt lat="49.79287" lon="2.37039">
        <ele>117.5</ele>
        <time>2022-07-27T07:38:46Z</time>
      </trkpt>
      <trkpt lat="49.79286" lon="2.37038">
        <ele>117.5</ele>
        <time>2022-07-27T07:38:47Z</time>
      </trkpt>
      <trkpt lat="49.79285" lon="2.37036">
        <ele>117.5</ele>
        <time>2022-07-27T07:38:48Z</time>
      </trkpt>
      <trkpt lat="49.79284" lon="2.37034">
        <ele>117.7</ele>
        <time>2022-07-27T07:38:49Z</time>
      </trkpt>
      <trkpt lat="49.79283" lon="2.37033">
        <ele>117.7</ele>
        <time>2022-07-27T07:38:50Z</time>
      </trkpt>
      <trkpt lat="49.79282" lon="2.37031">
        <ele>117.7</ele>
        <time>2022-07-27T07:38:51Z</time>
      </trkpt>
      <trkpt lat="49.79282" lon="2.3703">
        <ele>117.8</ele>
        <time>2022-07-27T07:38:52Z</time>
      </trkpt>
      <trkpt lat="49.79281" lon="2.37029">
        <ele>117.8</ele>
        <time>2022-07-27T07:38:53Z</time>
      </trkpt>
      <trkpt lat="49.7928" lon="2.37026">
        <ele>117.8</ele>
        <time>2022-07-27T07:38:54Z</time>
      </trkpt>
      <trkpt lat="49.79279" lon="2.37025">
        <ele>117.8</ele>
        <time>2022-07-27T07:38:55Z</time>
      </trkpt>
      <trkpt lat="49.79278" lon="2.37024">
        <ele>117.8</ele>
        <time>2022-07-27T07:38:56Z</time>
      </trkpt>
      <trkpt lat="49.79278" lon="2.37022">
        <ele>117.8</ele>
        <time>2022-07-27T07:38:57Z</time>
      </trkpt>
      <trkpt lat="49.79278" lon="2.37021">
        <ele>118.1</ele>
        <time>2022-07-27T07:38:58Z</time>
      </trkpt>
      <trkpt lat="49.79277" lon="2.37019">
        <ele>118.1</ele>
        <time>2022-07-27T07:38:59Z</time>
      </trkpt>
      <trkpt lat="49.79277" lon="2.37019">
        <ele>118.1</ele>
        <time>2022-07-27T07:39:00Z</time>
      </trkpt>
      <trkpt lat="49.79277" lon="2.37018">
        <ele>118.1</ele>
        <time>2022-07-27T07:39:01Z</time>
      </trkpt>
      <trkpt lat="49.79276" lon="2.37017">
        <ele>118.4</ele>
        <time>2022-07-27T07:39:02Z</time>
      </trkpt>
      <trkpt lat="49.79276" lon="2.37015">
        <ele>118.1</ele>
        <time>2022-07-27T07:39:03Z</time>
      </trkpt>
      <trkpt lat="49.79276" lon="2.37014">
        <ele>118</ele>
        <time>2022-07-27T07:39:04Z</time>
      </trkpt>
      <trkpt lat="49.79276" lon="2.37014">
        <ele>117.9</ele>
        <time>2022-07-27T07:39:05Z</time>
      </trkpt>
      <trkpt lat="49.79276" lon="2.37013">
        <ele>118.1</ele>
        <time>2022-07-27T07:39:06Z</time>
      </trkpt>
      <trkpt lat="49.79276" lon="2.37012">
        <ele>118</ele>
        <time>2022-07-27T07:39:07Z</time>
      </trkpt>
      <trkpt lat="49.79276" lon="2.37011">
        <ele>118</ele>
        <time>2022-07-27T07:39:08Z</time>
      </trkpt>
      <trkpt lat="49.79276" lon="2.3701">
        <ele>117.9</ele>
        <time>2022-07-27T07:39:09Z</time>
      </trkpt>
      <trkpt lat="49.79276" lon="2.37009">
        <ele>117.8</ele>
        <time>2022-07-27T07:39:10Z</time>
      </trkpt>
      <trkpt lat="49.79275" lon="2.37008">
        <ele>118</ele>
        <time>2022-07-27T07:39:11Z</time>
      </trkpt>
      <trkpt lat="49.79274" lon="2.37006">
        <ele>117.9</ele>
        <time>2022-07-27T07:39:12Z</time>
      </trkpt>
      <trkpt lat="49.79274" lon="2.37006">
        <ele>117.8</ele>
        <time>2022-07-27T07:39:13Z</time>
      </trkpt>
      <trkpt lat="49.79274" lon="2.37005">
        <ele>117.7</ele>
        <time>2022-07-27T07:39:14Z</time>
      </trkpt>
      <trkpt lat="49.79274" lon="2.37003">
        <ele>118</ele>
        <time>2022-07-27T07:39:15Z</time>
      </trkpt>
      <trkpt lat="49.79273" lon="2.37001">
        <ele>117.7</ele>
        <time>2022-07-27T07:39:16Z</time>
      </trkpt>
      <trkpt lat="49.79272" lon="2.36999">
        <ele>118</ele>
        <time>2022-07-27T07:39:17Z</time>
      </trkpt>
      <trkpt lat="49.79272" lon="2.36998">
        <ele>117.9</ele>
        <time>2022-07-27T07:39:18Z</time>
      </trkpt>
      <trkpt lat="49.79271" lon="2.36996">
        <ele>117.9</ele>
        <time>2022-07-27T07:39:19Z</time>
      </trkpt>
      <trkpt lat="49.79271" lon="2.36995">
        <ele>118</ele>
        <time>2022-07-27T07:39:20Z</time>
      </trkpt>
      <trkpt lat="49.7927" lon="2.36994">
        <ele>117.9</ele>
        <time>2022-07-27T07:39:21Z</time>
      </trkpt>
      <trkpt lat="49.7927" lon="2.36993">
        <ele>117.8</ele>
        <time>2022-07-27T07:39:22Z</time>
      </trkpt>
      <trkpt lat="49.79269" lon="2.36992">
        <ele>117.7</ele>
        <time>2022-07-27T07:39:23Z</time>
      </trkpt>
      <trkpt lat="49.79268" lon="2.36989">
        <ele>117.8</ele>
        <time>2022-07-27T07:39:24Z</time>
      </trkpt>
      <trkpt lat="49.79267" lon="2.36988">
        <ele>117.7</ele>
        <time>2022-07-27T07:39:25Z</time>
      </trkpt>
      <trkpt lat="49.79266" lon="2.36987">
        <ele>118</ele>
        <time>2022-07-27T07:39:26Z</time>
      </trkpt>
      <trkpt lat="49.79266" lon="2.36986">
        <ele>117.9</ele>
        <time>2022-07-27T07:39:27Z</time>
      </trkpt>
      <trkpt lat="49.79265" lon="2.36984">
        <ele>117.6</ele>
        <time>2022-07-27T07:39:28Z</time>
      </trkpt>
      <trkpt lat="49.79264" lon="2.36983">
        <ele>117.9</ele>
        <time>2022-07-27T07:39:29Z</time>
      </trkpt>
      <trkpt lat="49.79264" lon="2.36982">
        <ele>117.8</ele>
        <time>2022-07-27T07:39:30Z</time>
      </trkpt>
      <trkpt lat="49.79263" lon="2.36981">
        <ele>117.7</ele>
        <time>2022-07-27T07:39:31Z</time>
      </trkpt>
      <trkpt lat="49.79263" lon="2.3698">
        <ele>117.6</ele>
        <time>2022-07-27T07:39:32Z</time>
      </trkpt>
      <trkpt lat="49.79262" lon="2.36978">
        <ele>117.6</ele>
        <time>2022-07-27T07:39:33Z</time>
      </trkpt>
      <trkpt lat="49.79261" lon="2.36976">
        <ele>117.5</ele>
        <time>2022-07-27T07:39:34Z</time>
      </trkpt>
      <trkpt lat="49.7926" lon="2.36975">
        <ele>117.4</ele>
        <time>2022-07-27T07:39:35Z</time>
      </trkpt>
      <trkpt lat="49.7926" lon="2.36973">
        <ele>117.6</ele>
        <time>2022-07-27T07:39:36Z</time>
      </trkpt>
      <trkpt lat="49.79259" lon="2.36972">
        <ele>117.3</ele>
        <time>2022-07-27T07:39:37Z</time>
      </trkpt>
      <trkpt lat="49.79259" lon="2.36971">
        <ele>117.2</ele>
        <time>2022-07-27T07:39:38Z</time>
      </trkpt>
      <trkpt lat="49.79258" lon="2.36968">
        <ele>117.4</ele>
        <time>2022-07-27T07:39:39Z</time>
      </trkpt>
      <trkpt lat="49.79257" lon="2.36967">
        <ele>117.3</ele>
        <time>2022-07-27T07:39:40Z</time>
      </trkpt>
      <trkpt lat="49.79256" lon="2.36965">
        <ele>117.2</ele>
        <time>2022-07-27T07:39:41Z</time>
      </trkpt>
      <trkpt lat="49.79256" lon="2.36963">
        <ele>117.1</ele>
        <time>2022-07-27T07:39:42Z</time>
      </trkpt>
      <trkpt lat="49.79256" lon="2.36962">
        <ele>117</ele>
        <time>2022-07-27T07:39:43Z</time>
      </trkpt>
      <trkpt lat="49.79255" lon="2.36961">
        <ele>117.2</ele>
        <time>2022-07-27T07:39:44Z</time>
      </trkpt>
      <trkpt lat="49.79255" lon="2.3696">
        <ele>117.1</ele>
        <time>2022-07-27T07:39:45Z</time>
      </trkpt>
      <trkpt lat="49.79255" lon="2.36961">
        <ele>117</ele>
        <time>2022-07-27T07:39:46Z</time>
      </trkpt>
      <trkpt lat="49.79255" lon="2.36961">
        <ele>116.9</ele>
        <time>2022-07-27T07:39:47Z</time>
      </trkpt>
      <trkpt lat="49.79255" lon="2.3696">
        <ele>116.8</ele>
        <time>2022-07-27T07:39:48Z</time>
      </trkpt>
      <trkpt lat="49.79254" lon="2.36959">
        <ele>116.7</ele>
        <time>2022-07-27T07:39:49Z</time>
      </trkpt>
      <trkpt lat="49.79254" lon="2.36957">
        <ele>116.4</ele>
        <time>2022-07-27T07:39:50Z</time>
      </trkpt>
      <trkpt lat="49.79254" lon="2.36956">
        <ele>116.5</ele>
        <time>2022-07-27T07:39:51Z</time>
      </trkpt>
      <trkpt lat="49.79253" lon="2.36955">
        <ele>116.4</ele>
        <time>2022-07-27T07:39:52Z</time>
      </trkpt>
      <trkpt lat="49.79253" lon="2.36954">
        <ele>116.3</ele>
        <time>2022-07-27T07:39:53Z</time>
      </trkpt>
      <trkpt lat="49.79253" lon="2.36953">
        <ele>116.4</ele>
        <time>2022-07-27T07:39:54Z</time>
      </trkpt>
      <trkpt lat="49.79252" lon="2.36951">
        <ele>116.3</ele>
        <time>2022-07-27T07:39:55Z</time>
      </trkpt>
      <trkpt lat="49.79252" lon="2.36949">
        <ele>116.2</ele>
        <time>2022-07-27T07:39:56Z</time>
      </trkpt>
      <trkpt lat="49.79252" lon="2.36948">
        <ele>116.3</ele>
        <time>2022-07-27T07:39:57Z</time>
      </trkpt>
      <trkpt lat="49.79251" lon="2.36947">
        <ele>115.9</ele>
        <time>2022-07-27T07:39:58Z</time>
      </trkpt>
      <trkpt lat="49.7925" lon="2.36944">
        <ele>115.9</ele>
        <time>2022-07-27T07:39:59Z</time>
      </trkpt>
      <trkpt lat="49.7925" lon="2.36944">
        <ele>115.8</ele>
        <time>2022-07-27T07:40:00Z</time>
      </trkpt>
      <trkpt lat="49.7925" lon="2.36943">
        <ele>115.7</ele>
        <time>2022-07-27T07:40:01Z</time>
      </trkpt>
      <trkpt lat="49.79249" lon="2.36942">
        <ele>115.6</ele>
        <time>2022-07-27T07:40:02Z</time>
      </trkpt>
      <trkpt lat="49.79249" lon="2.3694">
        <ele>115.5</ele>
        <time>2022-07-27T07:40:03Z</time>
      </trkpt>
      <trkpt lat="49.79248" lon="2.36938">
        <ele>115.1</ele>
        <time>2022-07-27T07:40:04Z</time>
      </trkpt>
      <trkpt lat="49.79248" lon="2.36937">
        <ele>115</ele>
        <time>2022-07-27T07:40:05Z</time>
      </trkpt>
      <trkpt lat="49.79248" lon="2.36937">
        <ele>114.9</ele>
        <time>2022-07-27T07:40:06Z</time>
      </trkpt>
      <trkpt lat="49.79247" lon="2.36936">
        <ele>114.9</ele>
        <time>2022-07-27T07:40:07Z</time>
      </trkpt>
      <trkpt lat="49.79247" lon="2.36935">
        <ele>114.7</ele>
        <time>2022-07-27T07:40:08Z</time>
      </trkpt>
      <trkpt lat="49.79247" lon="2.36933">
        <ele>114.6</ele>
        <time>2022-07-27T07:40:09Z</time>
      </trkpt>
      <trkpt lat="49.79246" lon="2.36932">
        <ele>114.5</ele>
        <time>2022-07-27T07:40:10Z</time>
      </trkpt>
      <trkpt lat="49.79247" lon="2.3693">
        <ele>114.4</ele>
        <time>2022-07-27T07:40:11Z</time>
      </trkpt>
      <trkpt lat="49.79246" lon="2.36929">
        <ele>114.3</ele>
        <time>2022-07-27T07:40:12Z</time>
      </trkpt>
      <trkpt lat="49.79246" lon="2.36927">
        <ele>114.2</ele>
        <time>2022-07-27T07:40:13Z</time>
      </trkpt>
      <trkpt lat="49.79246" lon="2.36926">
        <ele>113.9</ele>
        <time>2022-07-27T07:40:14Z</time>
      </trkpt>
      <trkpt lat="49.79246" lon="2.36925">
        <ele>113.9</ele>
        <time>2022-07-27T07:40:15Z</time>
      </trkpt>
      <trkpt lat="49.79246" lon="2.36923">
        <ele>113.8</ele>
        <time>2022-07-27T07:40:16Z</time>
      </trkpt>
      <trkpt lat="49.79246" lon="2.36922">
        <ele>113.1</ele>
        <time>2022-07-27T07:40:17Z</time>
      </trkpt>
      <trkpt lat="49.79246" lon="2.3692">
        <ele>113</ele>
        <time>2022-07-27T07:40:18Z</time>
      </trkpt>
      <trkpt lat="49.79245" lon="2.36917">
        <ele>112.7</ele>
        <time>2022-07-27T07:40:19Z</time>
      </trkpt>
      <trkpt lat="49.79245" lon="2.36916">
        <ele>112.6</ele>
        <time>2022-07-27T07:40:20Z</time>
      </trkpt>
      <trkpt lat="49.79245" lon="2.36914">
        <ele>112.5</ele>
        <time>2022-07-27T07:40:21Z</time>
      </trkpt>
      <trkpt lat="49.79245" lon="2.36913">
        <ele>112.2</ele>
        <time>2022-07-27T07:40:22Z</time>
      </trkpt>
      <trkpt lat="49.79246" lon="2.36911">
        <ele>112.6</ele>
        <time>2022-07-27T07:40:23Z</time>
      </trkpt>
      <trkpt lat="49.79246" lon="2.36909">
        <ele>112.3</ele>
        <time>2022-07-27T07:40:24Z</time>
      </trkpt>
      <trkpt lat="49.79246" lon="2.36908">
        <ele>112.2</ele>
        <time>2022-07-27T07:40:25Z</time>
      </trkpt>
      <trkpt lat="49.79247" lon="2.36906">
        <ele>112.1</ele>
        <time>2022-07-27T07:40:26Z</time>
      </trkpt>
      <trkpt lat="49.79247" lon="2.36905">
        <ele>111.9</ele>
        <time>2022-07-27T07:40:27Z</time>
      </trkpt>
      <trkpt lat="49.79247" lon="2.36903">
        <ele>111.8</ele>
        <time>2022-07-27T07:40:28Z</time>
      </trkpt>
      <trkpt lat="49.79247" lon="2.36901">
        <ele>111.5</ele>
        <time>2022-07-27T07:40:29Z</time>
      </trkpt>
      <trkpt lat="49.79247" lon="2.36899">
        <ele>111.4</ele>
        <time>2022-07-27T07:40:30Z</time>
      </trkpt>
      <trkpt lat="49.79247" lon="2.36896">
        <ele>111.2</ele>
        <time>2022-07-27T07:40:31Z</time>
      </trkpt>
      <trkpt lat="49.79247" lon="2.36895">
        <ele>111.1</ele>
        <time>2022-07-27T07:40:32Z</time>
      </trkpt>
      <trkpt lat="49.79248" lon="2.36894">
        <ele>111</ele>
        <time>2022-07-27T07:40:33Z</time>
      </trkpt>
      <trkpt lat="49.79248" lon="2.3689">
        <ele>110.8</ele>
        <time>2022-07-27T07:40:34Z</time>
      </trkpt>
      <trkpt lat="49.79248" lon="2.36889">
        <ele>110.7</ele>
        <time>2022-07-27T07:40:35Z</time>
      </trkpt>
      <trkpt lat="49.79248" lon="2.36887">
        <ele>110.5</ele>
        <time>2022-07-27T07:40:36Z</time>
      </trkpt>
      <trkpt lat="49.79248" lon="2.36885">
        <ele>110.5</ele>
        <time>2022-07-27T07:40:37Z</time>
      </trkpt>
      <trkpt lat="49.79248" lon="2.36883">
        <ele>110.4</ele>
        <time>2022-07-27T07:40:38Z</time>
      </trkpt>
      <trkpt lat="49.79248" lon="2.36882">
        <ele>110.3</ele>
        <time>2022-07-27T07:40:39Z</time>
      </trkpt>
      <trkpt lat="49.79248" lon="2.36879">
        <ele>110.2</ele>
        <time>2022-07-27T07:40:40Z</time>
      </trkpt>
      <trkpt lat="49.79248" lon="2.36877">
        <ele>110.1</ele>
        <time>2022-07-27T07:40:41Z</time>
      </trkpt>
      <trkpt lat="49.79248" lon="2.36876">
        <ele>110</ele>
        <time>2022-07-27T07:40:42Z</time>
      </trkpt>
      <trkpt lat="49.79247" lon="2.36877">
        <ele>110</ele>
        <time>2022-07-27T07:40:43Z</time>
      </trkpt>
      <trkpt lat="49.79247" lon="2.36876">
        <ele>110</ele>
        <time>2022-07-27T07:40:44Z</time>
      </trkpt>
      <trkpt lat="49.79247" lon="2.36875">
        <ele>110</ele>
        <time>2022-07-27T07:40:45Z</time>
      </trkpt>
      <trkpt lat="49.79247" lon="2.36874">
        <ele>110</ele>
        <time>2022-07-27T07:40:46Z</time>
      </trkpt>
      <trkpt lat="49.79247" lon="2.36872">
        <ele>110</ele>
        <time>2022-07-27T07:40:47Z</time>
      </trkpt>
      <trkpt lat="49.79247" lon="2.36871">
        <ele>110.1</ele>
        <time>2022-07-27T07:40:48Z</time>
      </trkpt>
      <trkpt lat="49.79247" lon="2.36869">
        <ele>110.1</ele>
        <time>2022-07-27T07:40:49Z</time>
      </trkpt>
      <trkpt lat="49.79247" lon="2.36868">
        <ele>110.1</ele>
        <time>2022-07-27T07:40:50Z</time>
      </trkpt>
      <trkpt lat="49.79247" lon="2.36867">
        <ele>110.2</ele>
        <time>2022-07-27T07:40:51Z</time>
      </trkpt>
      <trkpt lat="49.79247" lon="2.36865">
        <ele>110.2</ele>
        <time>2022-07-27T07:40:52Z</time>
      </trkpt>
      <trkpt lat="49.79246" lon="2.36863">
        <ele>110.2</ele>
        <time>2022-07-27T07:40:53Z</time>
      </trkpt>
      <trkpt lat="49.79246" lon="2.3686">
        <ele>110.4</ele>
        <time>2022-07-27T07:40:54Z</time>
      </trkpt>
      <trkpt lat="49.79246" lon="2.36858">
        <ele>110.5</ele>
        <time>2022-07-27T07:40:55Z</time>
      </trkpt>
      <trkpt lat="49.79246" lon="2.36856">
        <ele>110.2</ele>
        <time>2022-07-27T07:40:56Z</time>
      </trkpt>
      <trkpt lat="49.79246" lon="2.36854">
        <ele>110.4</ele>
        <time>2022-07-27T07:40:57Z</time>
      </trkpt>
      <trkpt lat="49.79245" lon="2.3685">
        <ele>110.4</ele>
        <time>2022-07-27T07:40:58Z</time>
      </trkpt>
      <trkpt lat="49.79245" lon="2.36848">
        <ele>110.6</ele>
        <time>2022-07-27T07:40:59Z</time>
      </trkpt>
      <trkpt lat="49.79245" lon="2.36847">
        <ele>110.6</ele>
        <time>2022-07-27T07:41:00Z</time>
      </trkpt>
      <trkpt lat="49.79245" lon="2.36845">
        <ele>110.8</ele>
        <time>2022-07-27T07:41:01Z</time>
      </trkpt>
      <trkpt lat="49.79244" lon="2.36844">
        <ele>110.8</ele>
        <time>2022-07-27T07:41:02Z</time>
      </trkpt>
      <trkpt lat="49.79244" lon="2.36842">
        <ele>110.8</ele>
        <time>2022-07-27T07:41:03Z</time>
      </trkpt>
      <trkpt lat="49.79244" lon="2.36841">
        <ele>111</ele>
        <time>2022-07-27T07:41:04Z</time>
      </trkpt>
      <trkpt lat="49.79244" lon="2.36838">
        <ele>111</ele>
        <time>2022-07-27T07:41:05Z</time>
      </trkpt>
      <trkpt lat="49.79244" lon="2.36837">
        <ele>111.2</ele>
        <time>2022-07-27T07:41:06Z</time>
      </trkpt>
      <trkpt lat="49.79243" lon="2.36836">
        <ele>111.2</ele>
        <time>2022-07-27T07:41:07Z</time>
      </trkpt>
      <trkpt lat="49.79243" lon="2.36834">
        <ele>111.2</ele>
        <time>2022-07-27T07:41:08Z</time>
      </trkpt>
      <trkpt lat="49.79243" lon="2.36831">
        <ele>111.1</ele>
        <time>2022-07-27T07:41:09Z</time>
      </trkpt>
      <trkpt lat="49.79241" lon="2.36833">
        <ele>110.9</ele>
        <time>2022-07-27T07:41:10Z</time>
      </trkpt>
      <trkpt lat="49.79241" lon="2.36833">
        <ele>110.9</ele>
        <time>2022-07-27T07:41:11Z</time>
      </trkpt>
      <trkpt lat="49.79241" lon="2.36832">
        <ele>111.1</ele>
        <time>2022-07-27T07:41:12Z</time>
      </trkpt>
      <trkpt lat="49.7924" lon="2.36832">
        <ele>110.8</ele>
        <time>2022-07-27T07:41:13Z</time>
      </trkpt>
      <trkpt lat="49.7924" lon="2.36831">
        <ele>110.8</ele>
        <time>2022-07-27T07:41:14Z</time>
      </trkpt>
      <trkpt lat="49.7924" lon="2.3683">
        <ele>110.8</ele>
        <time>2022-07-27T07:41:15Z</time>
      </trkpt>
      <trkpt lat="49.79239" lon="2.3683">
        <ele>110.8</ele>
        <time>2022-07-27T07:41:16Z</time>
      </trkpt>
      <trkpt lat="49.79239" lon="2.3683">
        <ele>110.8</ele>
        <time>2022-07-27T07:41:17Z</time>
      </trkpt>
      <trkpt lat="49.7924" lon="2.36829">
        <ele>110.8</ele>
        <time>2022-07-27T07:41:18Z</time>
      </trkpt>
      <trkpt lat="49.7924" lon="2.36828">
        <ele>111.1</ele>
        <time>2022-07-27T07:41:19Z</time>
      </trkpt>
      <trkpt lat="49.7924" lon="2.36827">
        <ele>111.4</ele>
        <time>2022-07-27T07:41:20Z</time>
      </trkpt>
      <trkpt lat="49.79241" lon="2.36826">
        <ele>111.4</ele>
        <time>2022-07-27T07:41:21Z</time>
      </trkpt>
      <trkpt lat="49.79241" lon="2.36826">
        <ele>111.4</ele>
        <time>2022-07-27T07:41:22Z</time>
      </trkpt>
      <trkpt lat="49.79241" lon="2.36826">
        <ele>111.4</ele>
        <time>2022-07-27T07:41:23Z</time>
      </trkpt>
      <trkpt lat="49.7924" lon="2.36825">
        <ele>111.1</ele>
        <time>2022-07-27T07:41:24Z</time>
      </trkpt>
      <trkpt lat="49.7924" lon="2.36825">
        <ele>111.1</ele>
        <time>2022-07-27T07:41:25Z</time>
      </trkpt>
      <trkpt lat="49.7924" lon="2.36824">
        <ele>111.1</ele>
        <time>2022-07-27T07:41:26Z</time>
      </trkpt>
      <trkpt lat="49.79239" lon="2.36824">
        <ele>111.3</ele>
        <time>2022-07-27T07:41:27Z</time>
      </trkpt>
      <trkpt lat="49.79239" lon="2.36823">
        <ele>111.3</ele>
        <time>2022-07-27T07:41:28Z</time>
      </trkpt>
      <trkpt lat="49.79238" lon="2.36822">
        <ele>111.3</ele>
        <time>2022-07-27T07:41:29Z</time>
      </trkpt>
      <trkpt lat="49.79238" lon="2.36821">
        <ele>111.3</ele>
        <time>2022-07-27T07:41:30Z</time>
      </trkpt>
      <trkpt lat="49.79238" lon="2.3682">
        <ele>111.6</ele>
        <time>2022-07-27T07:41:31Z</time>
      </trkpt>
      <trkpt lat="49.79238" lon="2.36819">
        <ele>111.6</ele>
        <time>2022-07-27T07:41:32Z</time>
      </trkpt>
      <trkpt lat="49.79238" lon="2.36818">
        <ele>111.6</ele>
        <time>2022-07-27T07:41:33Z</time>
      </trkpt>
      <trkpt lat="49.79238" lon="2.36815">
        <ele>111.9</ele>
        <time>2022-07-27T07:41:34Z</time>
      </trkpt>
      <trkpt lat="49.79238" lon="2.36813">
        <ele>111.9</ele>
        <time>2022-07-27T07:41:35Z</time>
      </trkpt>
      <trkpt lat="49.79238" lon="2.36812">
        <ele>111.9</ele>
        <time>2022-07-27T07:41:36Z</time>
      </trkpt>
      <trkpt lat="49.79239" lon="2.36807">
        <ele>112.2</ele>
        <time>2022-07-27T07:41:37Z</time>
      </trkpt>
      <trkpt lat="49.79239" lon="2.36806">
        <ele>112.5</ele>
        <time>2022-07-27T07:41:38Z</time>
      </trkpt>
      <trkpt lat="49.79239" lon="2.36804">
        <ele>112.5</ele>
        <time>2022-07-27T07:41:39Z</time>
      </trkpt>
      <trkpt lat="49.79239" lon="2.36802">
        <ele>112.7</ele>
        <time>2022-07-27T07:41:40Z</time>
      </trkpt>
      <trkpt lat="49.7924" lon="2.36798">
        <ele>112.9</ele>
        <time>2022-07-27T07:41:41Z</time>
      </trkpt>
      <trkpt lat="49.7924" lon="2.36797">
        <ele>112.9</ele>
        <time>2022-07-27T07:41:42Z</time>
      </trkpt>
      <trkpt lat="49.7924" lon="2.36795">
        <ele>113.1</ele>
        <time>2022-07-27T07:41:43Z</time>
      </trkpt>
      <trkpt lat="49.79241" lon="2.36794">
        <ele>113.3</ele>
        <time>2022-07-27T07:41:44Z</time>
      </trkpt>
      <trkpt lat="49.79241" lon="2.36792">
        <ele>113.3</ele>
        <time>2022-07-27T07:41:45Z</time>
      </trkpt>
      <trkpt lat="49.79242" lon="2.3679">
        <ele>113.3</ele>
        <time>2022-07-27T07:41:46Z</time>
      </trkpt>
      <trkpt lat="49.79242" lon="2.36789">
        <ele>113.4</ele>
        <time>2022-07-27T07:41:47Z</time>
      </trkpt>
      <trkpt lat="49.79241" lon="2.36786">
        <ele>113.4</ele>
        <time>2022-07-27T07:41:48Z</time>
      </trkpt>
      <trkpt lat="49.79241" lon="2.36785">
        <ele>113.6</ele>
        <time>2022-07-27T07:41:49Z</time>
      </trkpt>
      <trkpt lat="49.79241" lon="2.36783">
        <ele>113.6</ele>
        <time>2022-07-27T07:41:50Z</time>
      </trkpt>
      <trkpt lat="49.79241" lon="2.36782">
        <ele>113.6</ele>
        <time>2022-07-27T07:41:51Z</time>
      </trkpt>
      <trkpt lat="49.79241" lon="2.3678">
        <ele>113.7</ele>
        <time>2022-07-27T07:41:52Z</time>
      </trkpt>
      <trkpt lat="49.79242" lon="2.36777">
        <ele>113.7</ele>
        <time>2022-07-27T07:41:53Z</time>
      </trkpt>
      <trkpt lat="49.79242" lon="2.36776">
        <ele>113.8</ele>
        <time>2022-07-27T07:41:54Z</time>
      </trkpt>
      <trkpt lat="49.79241" lon="2.36772">
        <ele>113.9</ele>
        <time>2022-07-27T07:41:55Z</time>
      </trkpt>
      <trkpt lat="49.79241" lon="2.36771">
        <ele>113.9</ele>
        <time>2022-07-27T07:41:56Z</time>
      </trkpt>
      <trkpt lat="49.79241" lon="2.3677">
        <ele>113.9</ele>
        <time>2022-07-27T07:41:57Z</time>
      </trkpt>
      <trkpt lat="49.79241" lon="2.36769">
        <ele>113.9</ele>
        <time>2022-07-27T07:41:58Z</time>
      </trkpt>
      <trkpt lat="49.7924" lon="2.36768">
        <ele>114</ele>
        <time>2022-07-27T07:41:59Z</time>
      </trkpt>
      <trkpt lat="49.7924" lon="2.36768">
        <ele>114</ele>
        <time>2022-07-27T07:42:00Z</time>
      </trkpt>
      <trkpt lat="49.7924" lon="2.36767">
        <ele>113.8</ele>
        <time>2022-07-27T07:42:01Z</time>
      </trkpt>
      <trkpt lat="49.7924" lon="2.36767">
        <ele>113.8</ele>
        <time>2022-07-27T07:42:02Z</time>
      </trkpt>
      <trkpt lat="49.7924" lon="2.36766">
        <ele>113.8</ele>
        <time>2022-07-27T07:42:03Z</time>
      </trkpt>
      <trkpt lat="49.7924" lon="2.36766">
        <ele>113.8</ele>
        <time>2022-07-27T07:42:04Z</time>
      </trkpt>
      <trkpt lat="49.7924" lon="2.36764">
        <ele>113.8</ele>
        <time>2022-07-27T07:42:05Z</time>
      </trkpt>
      <trkpt lat="49.7924" lon="2.36763">
        <ele>113.9</ele>
        <time>2022-07-27T07:42:06Z</time>
      </trkpt>
      <trkpt lat="49.7924" lon="2.36762">
        <ele>113.9</ele>
        <time>2022-07-27T07:42:07Z</time>
      </trkpt>
      <trkpt lat="49.7924" lon="2.36761">
        <ele>113.9</ele>
        <time>2022-07-27T07:42:08Z</time>
      </trkpt>
      <trkpt lat="49.7924" lon="2.36759">
        <ele>114</ele>
        <time>2022-07-27T07:42:09Z</time>
      </trkpt>
      <trkpt lat="49.7924" lon="2.36759">
        <ele>114</ele>
        <time>2022-07-27T07:42:10Z</time>
      </trkpt>
      <trkpt lat="49.7924" lon="2.36757">
        <ele>114</ele>
        <time>2022-07-27T07:42:11Z</time>
      </trkpt>
      <trkpt lat="49.7924" lon="2.36756">
        <ele>114</ele>
        <time>2022-07-27T07:42:12Z</time>
      </trkpt>
      <trkpt lat="49.7924" lon="2.36753">
        <ele>114.2</ele>
        <time>2022-07-27T07:42:13Z</time>
      </trkpt>
      <trkpt lat="49.7924" lon="2.3675">
        <ele>114.3</ele>
        <time>2022-07-27T07:42:14Z</time>
      </trkpt>
      <trkpt lat="49.7924" lon="2.36743">
        <ele>114.4</ele>
        <time>2022-07-27T07:42:15Z</time>
      </trkpt>
      <trkpt lat="49.7924" lon="2.36741">
        <ele>114.5</ele>
        <time>2022-07-27T07:42:16Z</time>
      </trkpt>
      <trkpt lat="49.79241" lon="2.36739">
        <ele>114.5</ele>
        <time>2022-07-27T07:42:17Z</time>
      </trkpt>
      <trkpt lat="49.79241" lon="2.36735">
        <ele>114.6</ele>
        <time>2022-07-27T07:42:18Z</time>
      </trkpt>
      <trkpt lat="49.79241" lon="2.36734">
        <ele>114.6</ele>
        <time>2022-07-27T07:42:19Z</time>
      </trkpt>
      <trkpt lat="49.79241" lon="2.36733">
        <ele>114.6</ele>
        <time>2022-07-27T07:42:20Z</time>
      </trkpt>
      <trkpt lat="49.79241" lon="2.36732">
        <ele>114.6</ele>
        <time>2022-07-27T07:42:21Z</time>
      </trkpt>
      <trkpt lat="49.79241" lon="2.36731">
        <ele>114.6</ele>
        <time>2022-07-27T07:42:22Z</time>
      </trkpt>
      <trkpt lat="49.79242" lon="2.36729">
        <ele>114.7</ele>
        <time>2022-07-27T07:42:23Z</time>
      </trkpt>
      <trkpt lat="49.79242" lon="2.36729">
        <ele>114.7</ele>
        <time>2022-07-27T07:42:24Z</time>
      </trkpt>
      <trkpt lat="49.79242" lon="2.36727">
        <ele>114.7</ele>
        <time>2022-07-27T07:42:25Z</time>
      </trkpt>
      <trkpt lat="49.79242" lon="2.36725">
        <ele>114.7</ele>
        <time>2022-07-27T07:42:26Z</time>
      </trkpt>
      <trkpt lat="49.79242" lon="2.36724">
        <ele>114.7</ele>
        <time>2022-07-27T07:42:27Z</time>
      </trkpt>
      <trkpt lat="49.79243" lon="2.3672">
        <ele>114.7</ele>
        <time>2022-07-27T07:42:28Z</time>
      </trkpt>
      <trkpt lat="49.79243" lon="2.36719">
        <ele>114.7</ele>
        <time>2022-07-27T07:42:29Z</time>
      </trkpt>
      <trkpt lat="49.79243" lon="2.36717">
        <ele>114.7</ele>
        <time>2022-07-27T07:42:30Z</time>
      </trkpt>
      <trkpt lat="49.79243" lon="2.36716">
        <ele>114.7</ele>
        <time>2022-07-27T07:42:31Z</time>
      </trkpt>
      <trkpt lat="49.79243" lon="2.36714">
        <ele>114.7</ele>
        <time>2022-07-27T07:42:32Z</time>
      </trkpt>
      <trkpt lat="49.79243" lon="2.36713">
        <ele>114.8</ele>
        <time>2022-07-27T07:42:33Z</time>
      </trkpt>
      <trkpt lat="49.79244" lon="2.3671">
        <ele>114.8</ele>
        <time>2022-07-27T07:42:34Z</time>
      </trkpt>
      <trkpt lat="49.79244" lon="2.36707">
        <ele>114.8</ele>
        <time>2022-07-27T07:42:35Z</time>
      </trkpt>
      <trkpt lat="49.79244" lon="2.36706">
        <ele>114.8</ele>
        <time>2022-07-27T07:42:36Z</time>
      </trkpt>
      <trkpt lat="49.79244" lon="2.36705">
        <ele>114.8</ele>
        <time>2022-07-27T07:42:37Z</time>
      </trkpt>
      <trkpt lat="49.79245" lon="2.36703">
        <ele>114.8</ele>
        <time>2022-07-27T07:42:38Z</time>
      </trkpt>
      <trkpt lat="49.79245" lon="2.367">
        <ele>114.8</ele>
        <time>2022-07-27T07:42:39Z</time>
      </trkpt>
      <trkpt lat="49.79245" lon="2.36699">
        <ele>114.8</ele>
        <time>2022-07-27T07:42:40Z</time>
      </trkpt>
      <trkpt lat="49.79245" lon="2.36697">
        <ele>114.8</ele>
        <time>2022-07-27T07:42:41Z</time>
      </trkpt>
      <trkpt lat="49.79245" lon="2.36696">
        <ele>114.8</ele>
        <time>2022-07-27T07:42:42Z</time>
      </trkpt>
      <trkpt lat="49.79245" lon="2.36692">
        <ele>114.8</ele>
        <time>2022-07-27T07:42:43Z</time>
      </trkpt>
      <trkpt lat="49.79245" lon="2.36692">
        <ele>114.8</ele>
        <time>2022-07-27T07:42:44Z</time>
      </trkpt>
      <trkpt lat="49.79245" lon="2.3669">
        <ele>114.8</ele>
        <time>2022-07-27T07:42:45Z</time>
      </trkpt>
      <trkpt lat="49.79245" lon="2.36689">
        <ele>114.8</ele>
        <time>2022-07-27T07:42:46Z</time>
      </trkpt>
      <trkpt lat="49.79245" lon="2.36687">
        <ele>114.8</ele>
        <time>2022-07-27T07:42:47Z</time>
      </trkpt>
      <trkpt lat="49.79245" lon="2.36685">
        <ele>114.8</ele>
        <time>2022-07-27T07:42:48Z</time>
      </trkpt>
      <trkpt lat="49.79245" lon="2.36684">
        <ele>114.8</ele>
        <time>2022-07-27T07:42:49Z</time>
      </trkpt>
      <trkpt lat="49.79245" lon="2.36683">
        <ele>114.8</ele>
        <time>2022-07-27T07:42:50Z</time>
      </trkpt>
      <trkpt lat="49.79244" lon="2.3668">
        <ele>114.8</ele>
        <time>2022-07-27T07:42:51Z</time>
      </trkpt>
      <trkpt lat="49.79244" lon="2.36678">
        <ele>114.8</ele>
        <time>2022-07-27T07:42:52Z</time>
      </trkpt>
      <trkpt lat="49.79244" lon="2.36677">
        <ele>114.7</ele>
        <time>2022-07-27T07:42:53Z</time>
      </trkpt>
      <trkpt lat="49.79243" lon="2.36676">
        <ele>114.7</ele>
        <time>2022-07-27T07:42:54Z</time>
      </trkpt>
      <trkpt lat="49.79243" lon="2.36675">
        <ele>114.7</ele>
        <time>2022-07-27T07:42:55Z</time>
      </trkpt>
      <trkpt lat="49.79243" lon="2.36674">
        <ele>114.7</ele>
        <time>2022-07-27T07:42:56Z</time>
      </trkpt>
      <trkpt lat="49.79242" lon="2.36673">
        <ele>114.7</ele>
        <time>2022-07-27T07:42:57Z</time>
      </trkpt>
      <trkpt lat="49.79241" lon="2.36671">
        <ele>114.7</ele>
        <time>2022-07-27T07:42:58Z</time>
      </trkpt>
      <trkpt lat="49.79241" lon="2.3667">
        <ele>114.7</ele>
        <time>2022-07-27T07:42:59Z</time>
      </trkpt>
      <trkpt lat="49.79241" lon="2.36669">
        <ele>114.7</ele>
        <time>2022-07-27T07:43:00Z</time>
      </trkpt>
      <trkpt lat="49.79241" lon="2.36668">
        <ele>114.7</ele>
        <time>2022-07-27T07:43:01Z</time>
      </trkpt>
      <trkpt lat="49.7924" lon="2.36666">
        <ele>114.7</ele>
        <time>2022-07-27T07:43:02Z</time>
      </trkpt>
      <trkpt lat="49.7924" lon="2.36663">
        <ele>114.6</ele>
        <time>2022-07-27T07:43:03Z</time>
      </trkpt>
      <trkpt lat="49.7924" lon="2.36662">
        <ele>114.6</ele>
        <time>2022-07-27T07:43:04Z</time>
      </trkpt>
      <trkpt lat="49.7924" lon="2.3666">
        <ele>114.5</ele>
        <time>2022-07-27T07:43:05Z</time>
      </trkpt>
      <trkpt lat="49.7924" lon="2.36659">
        <ele>114.5</ele>
        <time>2022-07-27T07:43:06Z</time>
      </trkpt>
      <trkpt lat="49.7924" lon="2.36657">
        <ele>114.5</ele>
        <time>2022-07-27T07:43:07Z</time>
      </trkpt>
      <trkpt lat="49.7924" lon="2.36656">
        <ele>114.5</ele>
        <time>2022-07-27T07:43:08Z</time>
      </trkpt>
      <trkpt lat="49.79239" lon="2.36654">
        <ele>114.5</ele>
        <time>2022-07-27T07:43:09Z</time>
      </trkpt>
      <trkpt lat="49.79239" lon="2.36652">
        <ele>114.5</ele>
        <time>2022-07-27T07:43:10Z</time>
      </trkpt>
      <trkpt lat="49.79239" lon="2.36651">
        <ele>114.5</ele>
        <time>2022-07-27T07:43:11Z</time>
      </trkpt>
      <trkpt lat="49.79239" lon="2.3665">
        <ele>114.5</ele>
        <time>2022-07-27T07:43:12Z</time>
      </trkpt>
      <trkpt lat="49.79239" lon="2.36648">
        <ele>114.4</ele>
        <time>2022-07-27T07:43:13Z</time>
      </trkpt>
      <trkpt lat="49.79239" lon="2.36645">
        <ele>114.4</ele>
        <time>2022-07-27T07:43:14Z</time>
      </trkpt>
      <trkpt lat="49.79239" lon="2.36644">
        <ele>114.4</ele>
        <time>2022-07-27T07:43:15Z</time>
      </trkpt>
      <trkpt lat="49.79239" lon="2.36643">
        <ele>114.3</ele>
        <time>2022-07-27T07:43:16Z</time>
      </trkpt>
      <trkpt lat="49.79239" lon="2.36642">
        <ele>114.3</ele>
        <time>2022-07-27T07:43:17Z</time>
      </trkpt>
      <trkpt lat="49.79238" lon="2.3664">
        <ele>114.3</ele>
        <time>2022-07-27T07:43:18Z</time>
      </trkpt>
      <trkpt lat="49.79238" lon="2.36637">
        <ele>114.3</ele>
        <time>2022-07-27T07:43:19Z</time>
      </trkpt>
      <trkpt lat="49.79238" lon="2.36636">
        <ele>114.3</ele>
        <time>2022-07-27T07:43:20Z</time>
      </trkpt>
      <trkpt lat="49.79238" lon="2.36635">
        <ele>114.2</ele>
        <time>2022-07-27T07:43:21Z</time>
      </trkpt>
      <trkpt lat="49.79238" lon="2.36635">
        <ele>114.2</ele>
        <time>2022-07-27T07:43:22Z</time>
      </trkpt>
      <trkpt lat="49.79238" lon="2.36634">
        <ele>114.2</ele>
        <time>2022-07-27T07:43:23Z</time>
      </trkpt>
      <trkpt lat="49.79238" lon="2.36632">
        <ele>114.2</ele>
        <time>2022-07-27T07:43:24Z</time>
      </trkpt>
      <trkpt lat="49.79238" lon="2.36631">
        <ele>114.1</ele>
        <time>2022-07-27T07:43:25Z</time>
      </trkpt>
      <trkpt lat="49.79237" lon="2.3663">
        <ele>114</ele>
        <time>2022-07-27T07:43:26Z</time>
      </trkpt>
      <trkpt lat="49.79237" lon="2.36628">
        <ele>114</ele>
        <time>2022-07-27T07:43:27Z</time>
      </trkpt>
      <trkpt lat="49.79237" lon="2.36626">
        <ele>113.9</ele>
        <time>2022-07-27T07:43:28Z</time>
      </trkpt>
      <trkpt lat="49.79236" lon="2.36624">
        <ele>113.9</ele>
        <time>2022-07-27T07:43:29Z</time>
      </trkpt>
      <trkpt lat="49.79236" lon="2.36623">
        <ele>113.9</ele>
        <time>2022-07-27T07:43:30Z</time>
      </trkpt>
      <trkpt lat="49.79236" lon="2.36621">
        <ele>113.8</ele>
        <time>2022-07-27T07:43:31Z</time>
      </trkpt>
      <trkpt lat="49.79235" lon="2.3662">
        <ele>113.8</ele>
        <time>2022-07-27T07:43:32Z</time>
      </trkpt>
      <trkpt lat="49.79235" lon="2.36619">
        <ele>113.8</ele>
        <time>2022-07-27T07:43:33Z</time>
      </trkpt>
      <trkpt lat="49.79235" lon="2.36617">
        <ele>113.7</ele>
        <time>2022-07-27T07:43:34Z</time>
      </trkpt>
      <trkpt lat="49.79234" lon="2.36616">
        <ele>113.7</ele>
        <time>2022-07-27T07:43:35Z</time>
      </trkpt>
      <trkpt lat="49.79234" lon="2.36615">
        <ele>113.7</ele>
        <time>2022-07-27T07:43:36Z</time>
      </trkpt>
      <trkpt lat="49.79234" lon="2.36614">
        <ele>113.6</ele>
        <time>2022-07-27T07:43:37Z</time>
      </trkpt>
      <trkpt lat="49.79234" lon="2.36612">
        <ele>113.6</ele>
        <time>2022-07-27T07:43:38Z</time>
      </trkpt>
      <trkpt lat="49.79233" lon="2.3661">
        <ele>113.6</ele>
        <time>2022-07-27T07:43:39Z</time>
      </trkpt>
      <trkpt lat="49.79233" lon="2.36609">
        <ele>113.5</ele>
        <time>2022-07-27T07:43:40Z</time>
      </trkpt>
      <trkpt lat="49.79233" lon="2.36608">
        <ele>113.5</ele>
        <time>2022-07-27T07:43:41Z</time>
      </trkpt>
      <trkpt lat="49.79233" lon="2.36606">
        <ele>113.5</ele>
        <time>2022-07-27T07:43:42Z</time>
      </trkpt>
      <trkpt lat="49.79233" lon="2.36605">
        <ele>113.4</ele>
        <time>2022-07-27T07:43:43Z</time>
      </trkpt>
      <trkpt lat="49.79233" lon="2.36603">
        <ele>113.4</ele>
        <time>2022-07-27T07:43:44Z</time>
      </trkpt>
      <trkpt lat="49.79233" lon="2.36603">
        <ele>113.4</ele>
        <time>2022-07-27T07:43:45Z</time>
      </trkpt>
      <trkpt lat="49.79233" lon="2.36603">
        <ele>113.4</ele>
        <time>2022-07-27T07:43:46Z</time>
      </trkpt>
      <trkpt lat="49.79233" lon="2.366">
        <ele>113.3</ele>
        <time>2022-07-27T07:43:47Z</time>
      </trkpt>
      <trkpt lat="49.79233" lon="2.36598">
        <ele>113.3</ele>
        <time>2022-07-27T07:43:48Z</time>
      </trkpt>
      <trkpt lat="49.79233" lon="2.36596">
        <ele>113.3</ele>
        <time>2022-07-27T07:43:49Z</time>
      </trkpt>
      <trkpt lat="49.79233" lon="2.36594">
        <ele>113.3</ele>
        <time>2022-07-27T07:43:50Z</time>
      </trkpt>
      <trkpt lat="49.79234" lon="2.36592">
        <ele>113.3</ele>
        <time>2022-07-27T07:43:51Z</time>
      </trkpt>
      <trkpt lat="49.79234" lon="2.36591">
        <ele>113.2</ele>
        <time>2022-07-27T07:43:52Z</time>
      </trkpt>
      <trkpt lat="49.79234" lon="2.3659">
        <ele>113.2</ele>
        <time>2022-07-27T07:43:53Z</time>
      </trkpt>
      <trkpt lat="49.79234" lon="2.36588">
        <ele>113.2</ele>
        <time>2022-07-27T07:43:54Z</time>
      </trkpt>
      <trkpt lat="49.79234" lon="2.36587">
        <ele>113.1</ele>
        <time>2022-07-27T07:43:55Z</time>
      </trkpt>
      <trkpt lat="49.79235" lon="2.36586">
        <ele>113.2</ele>
        <time>2022-07-27T07:43:56Z</time>
      </trkpt>
      <trkpt lat="49.79235" lon="2.36584">
        <ele>113.2</ele>
        <time>2022-07-27T07:43:57Z</time>
      </trkpt>
      <trkpt lat="49.79236" lon="2.36583">
        <ele>113.1</ele>
        <time>2022-07-27T07:43:58Z</time>
      </trkpt>
      <trkpt lat="49.79236" lon="2.3658">
        <ele>113.1</ele>
        <time>2022-07-27T07:43:59Z</time>
      </trkpt>
      <trkpt lat="49.79236" lon="2.36579">
        <ele>113</ele>
        <time>2022-07-27T07:44:00Z</time>
      </trkpt>
      <trkpt lat="49.79237" lon="2.36578">
        <ele>113</ele>
        <time>2022-07-27T07:44:01Z</time>
      </trkpt>
      <trkpt lat="49.79237" lon="2.36577">
        <ele>113</ele>
        <time>2022-07-27T07:44:02Z</time>
      </trkpt>
      <trkpt lat="49.79237" lon="2.36576">
        <ele>113</ele>
        <time>2022-07-27T07:44:03Z</time>
      </trkpt>
      <trkpt lat="49.79238" lon="2.36574">
        <ele>113</ele>
        <time>2022-07-27T07:44:04Z</time>
      </trkpt>
      <trkpt lat="49.79239" lon="2.36572">
        <ele>113</ele>
        <time>2022-07-27T07:44:05Z</time>
      </trkpt>
      <trkpt lat="49.79239" lon="2.36571">
        <ele>113</ele>
        <time>2022-07-27T07:44:06Z</time>
      </trkpt>
      <trkpt lat="49.79241" lon="2.3657">
        <ele>113.1</ele>
        <time>2022-07-27T07:44:07Z</time>
      </trkpt>
      <trkpt lat="49.79241" lon="2.36569">
        <ele>113.1</ele>
        <time>2022-07-27T07:44:08Z</time>
      </trkpt>
      <trkpt lat="49.79242" lon="2.36566">
        <ele>113</ele>
        <time>2022-07-27T07:44:09Z</time>
      </trkpt>
      <trkpt lat="49.79242" lon="2.36565">
        <ele>113</ele>
        <time>2022-07-27T07:44:10Z</time>
      </trkpt>
      <trkpt lat="49.79242" lon="2.36564">
        <ele>113</ele>
        <time>2022-07-27T07:44:11Z</time>
      </trkpt>
      <trkpt lat="49.79243" lon="2.36563">
        <ele>113</ele>
        <time>2022-07-27T07:44:12Z</time>
      </trkpt>
      <trkpt lat="49.79243" lon="2.36562">
        <ele>112.9</ele>
        <time>2022-07-27T07:44:13Z</time>
      </trkpt>
      <trkpt lat="49.79244" lon="2.36559">
        <ele>113.1</ele>
        <time>2022-07-27T07:44:14Z</time>
      </trkpt>
      <trkpt lat="49.79244" lon="2.36558">
        <ele>113</ele>
        <time>2022-07-27T07:44:15Z</time>
      </trkpt>
      <trkpt lat="49.79244" lon="2.36557">
        <ele>113</ele>
        <time>2022-07-27T07:44:16Z</time>
      </trkpt>
      <trkpt lat="49.79244" lon="2.36556">
        <ele>113</ele>
        <time>2022-07-27T07:44:17Z</time>
      </trkpt>
      <trkpt lat="49.79244" lon="2.36555">
        <ele>113</ele>
        <time>2022-07-27T07:44:18Z</time>
      </trkpt>
      <trkpt lat="49.79245" lon="2.36554">
        <ele>112.9</ele>
        <time>2022-07-27T07:44:19Z</time>
      </trkpt>
      <trkpt lat="49.79245" lon="2.36552">
        <ele>112.9</ele>
        <time>2022-07-27T07:44:20Z</time>
      </trkpt>
      <trkpt lat="49.79246" lon="2.3655">
        <ele>112.9</ele>
        <time>2022-07-27T07:44:21Z</time>
      </trkpt>
      <trkpt lat="49.79246" lon="2.36548">
        <ele>113</ele>
        <time>2022-07-27T07:44:22Z</time>
      </trkpt>
      <trkpt lat="49.79246" lon="2.36547">
        <ele>113</ele>
        <time>2022-07-27T07:44:23Z</time>
      </trkpt>
      <trkpt lat="49.79246" lon="2.36546">
        <ele>113</ele>
        <time>2022-07-27T07:44:24Z</time>
      </trkpt>
      <trkpt lat="49.79247" lon="2.36544">
        <ele>112.9</ele>
        <time>2022-07-27T07:44:25Z</time>
      </trkpt>
      <trkpt lat="49.79247" lon="2.36543">
        <ele>112.9</ele>
        <time>2022-07-27T07:44:26Z</time>
      </trkpt>
      <trkpt lat="49.79247" lon="2.36541">
        <ele>112.9</ele>
        <time>2022-07-27T07:44:27Z</time>
      </trkpt>
      <trkpt lat="49.79247" lon="2.3654">
        <ele>112.9</ele>
        <time>2022-07-27T07:44:28Z</time>
      </trkpt>
      <trkpt lat="49.79247" lon="2.36536">
        <ele>112.8</ele>
        <time>2022-07-27T07:44:29Z</time>
      </trkpt>
      <trkpt lat="49.79247" lon="2.36535">
        <ele>112.8</ele>
        <time>2022-07-27T07:44:30Z</time>
      </trkpt>
      <trkpt lat="49.79247" lon="2.36533">
        <ele>112.8</ele>
        <time>2022-07-27T07:44:31Z</time>
      </trkpt>
      <trkpt lat="49.79247" lon="2.36531">
        <ele>112.7</ele>
        <time>2022-07-27T07:44:32Z</time>
      </trkpt>
      <trkpt lat="49.79247" lon="2.3653">
        <ele>112.7</ele>
        <time>2022-07-27T07:44:33Z</time>
      </trkpt>
      <trkpt lat="49.79248" lon="2.36527">
        <ele>112.6</ele>
        <time>2022-07-27T07:44:34Z</time>
      </trkpt>
      <trkpt lat="49.79248" lon="2.36526">
        <ele>112.6</ele>
        <time>2022-07-27T07:44:35Z</time>
      </trkpt>
      <trkpt lat="49.79248" lon="2.36524">
        <ele>112.6</ele>
        <time>2022-07-27T07:44:36Z</time>
      </trkpt>
      <trkpt lat="49.79249" lon="2.36522">
        <ele>112.6</ele>
        <time>2022-07-27T07:44:37Z</time>
      </trkpt>
      <trkpt lat="49.79249" lon="2.36521">
        <ele>112.7</ele>
        <time>2022-07-27T07:44:38Z</time>
      </trkpt>
      <trkpt lat="49.79249" lon="2.36518">
        <ele>112.6</ele>
        <time>2022-07-27T07:44:39Z</time>
      </trkpt>
      <trkpt lat="49.79249" lon="2.36516">
        <ele>112.6</ele>
        <time>2022-07-27T07:44:40Z</time>
      </trkpt>
      <trkpt lat="49.79249" lon="2.36515">
        <ele>112.5</ele>
        <time>2022-07-27T07:44:41Z</time>
      </trkpt>
      <trkpt lat="49.79249" lon="2.36513">
        <ele>112.5</ele>
        <time>2022-07-27T07:44:42Z</time>
      </trkpt>
      <trkpt lat="49.79249" lon="2.36511">
        <ele>112.5</ele>
        <time>2022-07-27T07:44:43Z</time>
      </trkpt>
      <trkpt lat="49.79249" lon="2.36509">
        <ele>112.4</ele>
        <time>2022-07-27T07:44:44Z</time>
      </trkpt>
      <trkpt lat="49.7925" lon="2.36507">
        <ele>112.4</ele>
        <time>2022-07-27T07:44:45Z</time>
      </trkpt>
      <trkpt lat="49.7925" lon="2.36506">
        <ele>112.2</ele>
        <time>2022-07-27T07:44:46Z</time>
      </trkpt>
      <trkpt lat="49.7925" lon="2.36505">
        <ele>112.2</ele>
        <time>2022-07-27T07:44:47Z</time>
      </trkpt>
      <trkpt lat="49.7925" lon="2.36503">
        <ele>112.2</ele>
        <time>2022-07-27T07:44:48Z</time>
      </trkpt>
      <trkpt lat="49.79251" lon="2.36501">
        <ele>112.1</ele>
        <time>2022-07-27T07:44:49Z</time>
      </trkpt>
      <trkpt lat="49.79251" lon="2.36501">
        <ele>112.1</ele>
        <time>2022-07-27T07:44:50Z</time>
      </trkpt>
      <trkpt lat="49.79252" lon="2.365">
        <ele>112.1</ele>
        <time>2022-07-27T07:44:51Z</time>
      </trkpt>
      <trkpt lat="49.79253" lon="2.36497">
        <ele>111.9</ele>
        <time>2022-07-27T07:44:52Z</time>
      </trkpt>
      <trkpt lat="49.79253" lon="2.36495">
        <ele>111.9</ele>
        <time>2022-07-27T07:44:53Z</time>
      </trkpt>
      <trkpt lat="49.79254" lon="2.36493">
        <ele>111.7</ele>
        <time>2022-07-27T07:44:54Z</time>
      </trkpt>
      <trkpt lat="49.79255" lon="2.36491">
        <ele>111.8</ele>
        <time>2022-07-27T07:44:55Z</time>
      </trkpt>
      <trkpt lat="49.79256" lon="2.3649">
        <ele>111.8</ele>
        <time>2022-07-27T07:44:56Z</time>
      </trkpt>
      <trkpt lat="49.79256" lon="2.36489">
        <ele>111.5</ele>
        <time>2022-07-27T07:44:57Z</time>
      </trkpt>
      <trkpt lat="49.79257" lon="2.36488">
        <ele>111.6</ele>
        <time>2022-07-27T07:44:58Z</time>
      </trkpt>
      <trkpt lat="49.79258" lon="2.36486">
        <ele>111.6</ele>
        <time>2022-07-27T07:44:59Z</time>
      </trkpt>
      <trkpt lat="49.79259" lon="2.36485">
        <ele>111.3</ele>
        <time>2022-07-27T07:45:00Z</time>
      </trkpt>
      <trkpt lat="49.7926" lon="2.36484">
        <ele>111.3</ele>
        <time>2022-07-27T07:45:01Z</time>
      </trkpt>
      <trkpt lat="49.7926" lon="2.36483">
        <ele>111.3</ele>
        <time>2022-07-27T07:45:02Z</time>
      </trkpt>
      <trkpt lat="49.79261" lon="2.36483">
        <ele>111.3</ele>
        <time>2022-07-27T07:45:03Z</time>
      </trkpt>
      <trkpt lat="49.79262" lon="2.36482">
        <ele>111.3</ele>
        <time>2022-07-27T07:45:04Z</time>
      </trkpt>
      <trkpt lat="49.79262" lon="2.36481">
        <ele>111.3</ele>
        <time>2022-07-27T07:45:05Z</time>
      </trkpt>
      <trkpt lat="49.79263" lon="2.36481">
        <ele>111.1</ele>
        <time>2022-07-27T07:45:06Z</time>
      </trkpt>
      <trkpt lat="49.79263" lon="2.3648">
        <ele>111.1</ele>
        <time>2022-07-27T07:45:07Z</time>
      </trkpt>
      <trkpt lat="49.79264" lon="2.3648">
        <ele>111.1</ele>
        <time>2022-07-27T07:45:08Z</time>
      </trkpt>
      <trkpt lat="49.79264" lon="2.36479">
        <ele>111.1</ele>
        <time>2022-07-27T07:45:09Z</time>
      </trkpt>
      <trkpt lat="49.79265" lon="2.36479">
        <ele>111.1</ele>
        <time>2022-07-27T07:45:10Z</time>
      </trkpt>
      <trkpt lat="49.79266" lon="2.36478">
        <ele>111.1</ele>
        <time>2022-07-27T07:45:11Z</time>
      </trkpt>
      <trkpt lat="49.79267" lon="2.36477">
        <ele>111.1</ele>
        <time>2022-07-27T07:45:12Z</time>
      </trkpt>
      <trkpt lat="49.79269" lon="2.36477">
        <ele>111.1</ele>
        <time>2022-07-27T07:45:13Z</time>
      </trkpt>
      <trkpt lat="49.7927" lon="2.36476">
        <ele>110.8</ele>
        <time>2022-07-27T07:45:14Z</time>
      </trkpt>
      <trkpt lat="49.79271" lon="2.36475">
        <ele>110.8</ele>
        <time>2022-07-27T07:45:15Z</time>
      </trkpt>
      <trkpt lat="49.79272" lon="2.36474">
        <ele>110.8</ele>
        <time>2022-07-27T07:45:16Z</time>
      </trkpt>
      <trkpt lat="49.79272" lon="2.36473">
        <ele>110.8</ele>
        <time>2022-07-27T07:45:17Z</time>
      </trkpt>
      <trkpt lat="49.79273" lon="2.36472">
        <ele>110.8</ele>
        <time>2022-07-27T07:45:18Z</time>
      </trkpt>
      <trkpt lat="49.79274" lon="2.36471">
        <ele>110.5</ele>
        <time>2022-07-27T07:45:19Z</time>
      </trkpt>
      <trkpt lat="49.79274" lon="2.3647">
        <ele>110.5</ele>
        <time>2022-07-27T07:45:20Z</time>
      </trkpt>
      <trkpt lat="49.79275" lon="2.36469">
        <ele>110.5</ele>
        <time>2022-07-27T07:45:21Z</time>
      </trkpt>
      <trkpt lat="49.79275" lon="2.36468">
        <ele>110.5</ele>
        <time>2022-07-27T07:45:22Z</time>
      </trkpt>
      <trkpt lat="49.79276" lon="2.36468">
        <ele>110.2</ele>
        <time>2022-07-27T07:45:23Z</time>
      </trkpt>
      <trkpt lat="49.79277" lon="2.36466">
        <ele>110.2</ele>
        <time>2022-07-27T07:45:24Z</time>
      </trkpt>
      <trkpt lat="49.79278" lon="2.36464">
        <ele>110.2</ele>
        <time>2022-07-27T07:45:25Z</time>
      </trkpt>
      <trkpt lat="49.79279" lon="2.36463">
        <ele>109.9</ele>
        <time>2022-07-27T07:45:26Z</time>
      </trkpt>
      <trkpt lat="49.79281" lon="2.3646">
        <ele>109.9</ele>
        <time>2022-07-27T07:45:27Z</time>
      </trkpt>
      <trkpt lat="49.79282" lon="2.36459">
        <ele>109.7</ele>
        <time>2022-07-27T07:45:28Z</time>
      </trkpt>
      <trkpt lat="49.79284" lon="2.36455">
        <ele>109.7</ele>
        <time>2022-07-27T07:45:29Z</time>
      </trkpt>
      <trkpt lat="49.79285" lon="2.36454">
        <ele>109.5</ele>
        <time>2022-07-27T07:45:30Z</time>
      </trkpt>
      <trkpt lat="49.79286" lon="2.36453">
        <ele>109.5</ele>
        <time>2022-07-27T07:45:31Z</time>
      </trkpt>
      <trkpt lat="49.79287" lon="2.36451">
        <ele>109.5</ele>
        <time>2022-07-27T07:45:32Z</time>
      </trkpt>
      <trkpt lat="49.79288" lon="2.3645">
        <ele>109.3</ele>
        <time>2022-07-27T07:45:33Z</time>
      </trkpt>
      <trkpt lat="49.79288" lon="2.36449">
        <ele>109.3</ele>
        <time>2022-07-27T07:45:34Z</time>
      </trkpt>
      <trkpt lat="49.79289" lon="2.36448">
        <ele>109.3</ele>
        <time>2022-07-27T07:45:35Z</time>
      </trkpt>
      <trkpt lat="49.7929" lon="2.36447">
        <ele>109.3</ele>
        <time>2022-07-27T07:45:36Z</time>
      </trkpt>
      <trkpt lat="49.79291" lon="2.36446">
        <ele>109.2</ele>
        <time>2022-07-27T07:45:37Z</time>
      </trkpt>
      <trkpt lat="49.79292" lon="2.36445">
        <ele>109.2</ele>
        <time>2022-07-27T07:45:38Z</time>
      </trkpt>
      <trkpt lat="49.79293" lon="2.36444">
        <ele>109.2</ele>
        <time>2022-07-27T07:45:39Z</time>
      </trkpt>
      <trkpt lat="49.79294" lon="2.36443">
        <ele>109.3</ele>
        <time>2022-07-27T07:45:40Z</time>
      </trkpt>
      <trkpt lat="49.79294" lon="2.36442">
        <ele>109.3</ele>
        <time>2022-07-27T07:45:41Z</time>
      </trkpt>
      <trkpt lat="49.79295" lon="2.36441">
        <ele>109.2</ele>
        <time>2022-07-27T07:45:42Z</time>
      </trkpt>
      <trkpt lat="49.79296" lon="2.3644">
        <ele>109.3</ele>
        <time>2022-07-27T07:45:43Z</time>
      </trkpt>
      <trkpt lat="49.79297" lon="2.3644">
        <ele>109.3</ele>
        <time>2022-07-27T07:45:44Z</time>
      </trkpt>
      <trkpt lat="49.79298" lon="2.36438">
        <ele>109.3</ele>
        <time>2022-07-27T07:45:45Z</time>
      </trkpt>
      <trkpt lat="49.79299" lon="2.36438">
        <ele>109.3</ele>
        <time>2022-07-27T07:45:46Z</time>
      </trkpt>
      <trkpt lat="49.79299" lon="2.36437">
        <ele>109.3</ele>
        <time>2022-07-27T07:45:47Z</time>
      </trkpt>
      <trkpt lat="49.793" lon="2.36437">
        <ele>109.3</ele>
        <time>2022-07-27T07:45:48Z</time>
      </trkpt>
      <trkpt lat="49.79301" lon="2.36436">
        <ele>109.3</ele>
        <time>2022-07-27T07:45:49Z</time>
      </trkpt>
      <trkpt lat="49.79301" lon="2.36435">
        <ele>109.4</ele>
        <time>2022-07-27T07:45:50Z</time>
      </trkpt>
      <trkpt lat="49.79302" lon="2.36434">
        <ele>109.4</ele>
        <time>2022-07-27T07:45:51Z</time>
      </trkpt>
      <trkpt lat="49.79303" lon="2.36433">
        <ele>109.3</ele>
        <time>2022-07-27T07:45:52Z</time>
      </trkpt>
      <trkpt lat="49.79304" lon="2.36432">
        <ele>109.3</ele>
        <time>2022-07-27T07:45:53Z</time>
      </trkpt>
      <trkpt lat="49.79304" lon="2.36431">
        <ele>109.4</ele>
        <time>2022-07-27T07:45:54Z</time>
      </trkpt>
      <trkpt lat="49.79305" lon="2.36431">
        <ele>109.4</ele>
        <time>2022-07-27T07:45:55Z</time>
      </trkpt>
      <trkpt lat="49.79305" lon="2.3643">
        <ele>109.4</ele>
        <time>2022-07-27T07:45:56Z</time>
      </trkpt>
      <trkpt lat="49.79305" lon="2.36429">
        <ele>109.3</ele>
        <time>2022-07-27T07:45:57Z</time>
      </trkpt>
      <trkpt lat="49.79305" lon="2.36428">
        <ele>109.3</ele>
        <time>2022-07-27T07:45:58Z</time>
      </trkpt>
      <trkpt lat="49.79305" lon="2.36427">
        <ele>109.3</ele>
        <time>2022-07-27T07:45:59Z</time>
      </trkpt>
      <trkpt lat="49.79305" lon="2.36425">
        <ele>109.2</ele>
        <time>2022-07-27T07:46:00Z</time>
      </trkpt>
      <trkpt lat="49.79305" lon="2.36423">
        <ele>109.2</ele>
        <time>2022-07-27T07:46:01Z</time>
      </trkpt>
      <trkpt lat="49.79305" lon="2.36421">
        <ele>109.2</ele>
        <time>2022-07-27T07:46:02Z</time>
      </trkpt>
      <trkpt lat="49.79305" lon="2.36419">
        <ele>109.1</ele>
        <time>2022-07-27T07:46:03Z</time>
      </trkpt>
      <trkpt lat="49.79305" lon="2.36417">
        <ele>109.1</ele>
        <time>2022-07-27T07:46:04Z</time>
      </trkpt>
      <trkpt lat="49.79304" lon="2.36414">
        <ele>109</ele>
        <time>2022-07-27T07:46:05Z</time>
      </trkpt>
      <trkpt lat="49.79304" lon="2.36412">
        <ele>109</ele>
        <time>2022-07-27T07:46:06Z</time>
      </trkpt>
      <trkpt lat="49.79304" lon="2.3641">
        <ele>109</ele>
        <time>2022-07-27T07:46:07Z</time>
      </trkpt>
      <trkpt lat="49.79304" lon="2.3641">
        <ele>109.1</ele>
        <time>2022-07-27T07:46:08Z</time>
      </trkpt>
      <trkpt lat="49.79303" lon="2.36409">
        <ele>109.1</ele>
        <time>2022-07-27T07:46:09Z</time>
      </trkpt>
      <trkpt lat="49.79303" lon="2.36408">
        <ele>109.1</ele>
        <time>2022-07-27T07:46:10Z</time>
      </trkpt>
      <trkpt lat="49.79302" lon="2.36406">
        <ele>109.1</ele>
        <time>2022-07-27T07:46:11Z</time>
      </trkpt>
      <trkpt lat="49.79302" lon="2.36405">
        <ele>109.1</ele>
        <time>2022-07-27T07:46:12Z</time>
      </trkpt>
      <trkpt lat="49.79302" lon="2.36404">
        <ele>109.1</ele>
        <time>2022-07-27T07:46:13Z</time>
      </trkpt>
      <trkpt lat="49.79301" lon="2.36403">
        <ele>109.1</ele>
        <time>2022-07-27T07:46:14Z</time>
      </trkpt>
      <trkpt lat="49.79301" lon="2.36402">
        <ele>109.1</ele>
        <time>2022-07-27T07:46:15Z</time>
      </trkpt>
      <trkpt lat="49.793" lon="2.36401">
        <ele>109.1</ele>
        <time>2022-07-27T07:46:16Z</time>
      </trkpt>
      <trkpt lat="49.793" lon="2.364">
        <ele>109.2</ele>
        <time>2022-07-27T07:46:17Z</time>
      </trkpt>
      <trkpt lat="49.79299" lon="2.36399">
        <ele>109.2</ele>
        <time>2022-07-27T07:46:18Z</time>
      </trkpt>
      <trkpt lat="49.79299" lon="2.36399">
        <ele>109.2</ele>
        <time>2022-07-27T07:46:19Z</time>
      </trkpt>
      <trkpt lat="49.79299" lon="2.36398">
        <ele>109.2</ele>
        <time>2022-07-27T07:46:20Z</time>
      </trkpt>
      <trkpt lat="49.79298" lon="2.36397">
        <ele>109.2</ele>
        <time>2022-07-27T07:46:21Z</time>
      </trkpt>
      <trkpt lat="49.79298" lon="2.36396">
        <ele>109.2</ele>
        <time>2022-07-27T07:46:22Z</time>
      </trkpt>
      <trkpt lat="49.79297" lon="2.36395">
        <ele>109.2</ele>
        <time>2022-07-27T07:46:23Z</time>
      </trkpt>
      <trkpt lat="49.79297" lon="2.36394">
        <ele>109.2</ele>
        <time>2022-07-27T07:46:24Z</time>
      </trkpt>
      <trkpt lat="49.79296" lon="2.36393">
        <ele>109.2</ele>
        <time>2022-07-27T07:46:25Z</time>
      </trkpt>
      <trkpt lat="49.79295" lon="2.36392">
        <ele>109.2</ele>
        <time>2022-07-27T07:46:26Z</time>
      </trkpt>
      <trkpt lat="49.79295" lon="2.36391">
        <ele>109.2</ele>
        <time>2022-07-27T07:46:27Z</time>
      </trkpt>
      <trkpt lat="49.79294" lon="2.3639">
        <ele>109.2</ele>
        <time>2022-07-27T07:46:28Z</time>
      </trkpt>
      <trkpt lat="49.79293" lon="2.36389">
        <ele>109.2</ele>
        <time>2022-07-27T07:46:29Z</time>
      </trkpt>
      <trkpt lat="49.79292" lon="2.36387">
        <ele>109.2</ele>
        <time>2022-07-27T07:46:30Z</time>
      </trkpt>
      <trkpt lat="49.79291" lon="2.36386">
        <ele>109.2</ele>
        <time>2022-07-27T07:46:31Z</time>
      </trkpt>
      <trkpt lat="49.79291" lon="2.36385">
        <ele>109.2</ele>
        <time>2022-07-27T07:46:32Z</time>
      </trkpt>
      <trkpt lat="49.79289" lon="2.36383">
        <ele>109.2</ele>
        <time>2022-07-27T07:46:33Z</time>
      </trkpt>
      <trkpt lat="49.79289" lon="2.36382">
        <ele>109.2</ele>
        <time>2022-07-27T07:46:34Z</time>
      </trkpt>
      <trkpt lat="49.79288" lon="2.36381">
        <ele>109.2</ele>
        <time>2022-07-27T07:46:35Z</time>
      </trkpt>
      <trkpt lat="49.79287" lon="2.3638">
        <ele>109.2</ele>
        <time>2022-07-27T07:46:36Z</time>
      </trkpt>
      <trkpt lat="49.79286" lon="2.36378">
        <ele>109.2</ele>
        <time>2022-07-27T07:46:37Z</time>
      </trkpt>
      <trkpt lat="49.79285" lon="2.36377">
        <ele>109.2</ele>
        <time>2022-07-27T07:46:38Z</time>
      </trkpt>
      <trkpt lat="49.79285" lon="2.36376">
        <ele>109.2</ele>
        <time>2022-07-27T07:46:39Z</time>
      </trkpt>
      <trkpt lat="49.79284" lon="2.36375">
        <ele>109.2</ele>
        <time>2022-07-27T07:46:40Z</time>
      </trkpt>
      <trkpt lat="49.79283" lon="2.36374">
        <ele>109.2</ele>
        <time>2022-07-27T07:46:41Z</time>
      </trkpt>
      <trkpt lat="49.79283" lon="2.36373">
        <ele>109.2</ele>
        <time>2022-07-27T07:46:42Z</time>
      </trkpt>
      <trkpt lat="49.79282" lon="2.36371">
        <ele>109.3</ele>
        <time>2022-07-27T07:46:43Z</time>
      </trkpt>
      <trkpt lat="49.79281" lon="2.36368">
        <ele>109.3</ele>
        <time>2022-07-27T07:46:44Z</time>
      </trkpt>
      <trkpt lat="49.79281" lon="2.36367">
        <ele>109.3</ele>
        <time>2022-07-27T07:46:45Z</time>
      </trkpt>
      <trkpt lat="49.79281" lon="2.36366">
        <ele>109.3</ele>
        <time>2022-07-27T07:46:46Z</time>
      </trkpt>
      <trkpt lat="49.7928" lon="2.36365">
        <ele>109.3</ele>
        <time>2022-07-27T07:46:47Z</time>
      </trkpt>
      <trkpt lat="49.7928" lon="2.36364">
        <ele>109.3</ele>
        <time>2022-07-27T07:46:48Z</time>
      </trkpt>
      <trkpt lat="49.7928" lon="2.36363">
        <ele>109.3</ele>
        <time>2022-07-27T07:46:49Z</time>
      </trkpt>
      <trkpt lat="49.79279" lon="2.36362">
        <ele>109.3</ele>
        <time>2022-07-27T07:46:50Z</time>
      </trkpt>
      <trkpt lat="49.79279" lon="2.36361">
        <ele>109.3</ele>
        <time>2022-07-27T07:46:51Z</time>
      </trkpt>
      <trkpt lat="49.79278" lon="2.3636">
        <ele>109.3</ele>
        <time>2022-07-27T07:46:52Z</time>
      </trkpt>
      <trkpt lat="49.79278" lon="2.36358">
        <ele>109.3</ele>
        <time>2022-07-27T07:46:53Z</time>
      </trkpt>
      <trkpt lat="49.79278" lon="2.36357">
        <ele>109.3</ele>
        <time>2022-07-27T07:46:54Z</time>
      </trkpt>
      <trkpt lat="49.79277" lon="2.36356">
        <ele>109.3</ele>
        <time>2022-07-27T07:46:55Z</time>
      </trkpt>
      <trkpt lat="49.79277" lon="2.36354">
        <ele>109.3</ele>
        <time>2022-07-27T07:46:56Z</time>
      </trkpt>
      <trkpt lat="49.79276" lon="2.36353">
        <ele>109.3</ele>
        <time>2022-07-27T07:46:57Z</time>
      </trkpt>
      <trkpt lat="49.79275" lon="2.36351">
        <ele>109.3</ele>
        <time>2022-07-27T07:46:58Z</time>
      </trkpt>
      <trkpt lat="49.79275" lon="2.3635">
        <ele>109.3</ele>
        <time>2022-07-27T07:46:59Z</time>
      </trkpt>
      <trkpt lat="49.79274" lon="2.36349">
        <ele>109.3</ele>
        <time>2022-07-27T07:47:00Z</time>
      </trkpt>
      <trkpt lat="49.79273" lon="2.36348">
        <ele>109.3</ele>
        <time>2022-07-27T07:47:01Z</time>
      </trkpt>
      <trkpt lat="49.79273" lon="2.36347">
        <ele>109.3</ele>
        <time>2022-07-27T07:47:02Z</time>
      </trkpt>
      <trkpt lat="49.79272" lon="2.36345">
        <ele>109.3</ele>
        <time>2022-07-27T07:47:03Z</time>
      </trkpt>
      <trkpt lat="49.79271" lon="2.36344">
        <ele>109.4</ele>
        <time>2022-07-27T07:47:04Z</time>
      </trkpt>
      <trkpt lat="49.79271" lon="2.36342">
        <ele>109.4</ele>
        <time>2022-07-27T07:47:05Z</time>
      </trkpt>
      <trkpt lat="49.7927" lon="2.36341">
        <ele>109.4</ele>
        <time>2022-07-27T07:47:06Z</time>
      </trkpt>
      <trkpt lat="49.7927" lon="2.3634">
        <ele>109.4</ele>
        <time>2022-07-27T07:47:07Z</time>
      </trkpt>
      <trkpt lat="49.79269" lon="2.36339">
        <ele>109.4</ele>
        <time>2022-07-27T07:47:08Z</time>
      </trkpt>
      <trkpt lat="49.79268" lon="2.36338">
        <ele>109.4</ele>
        <time>2022-07-27T07:47:09Z</time>
      </trkpt>
      <trkpt lat="49.79267" lon="2.36337">
        <ele>109.4</ele>
        <time>2022-07-27T07:47:10Z</time>
      </trkpt>
      <trkpt lat="49.79266" lon="2.36336">
        <ele>109.4</ele>
        <time>2022-07-27T07:47:11Z</time>
      </trkpt>
      <trkpt lat="49.79265" lon="2.36335">
        <ele>109.4</ele>
        <time>2022-07-27T07:47:12Z</time>
      </trkpt>
      <trkpt lat="49.79264" lon="2.36335">
        <ele>109.4</ele>
        <time>2022-07-27T07:47:13Z</time>
      </trkpt>
      <trkpt lat="49.79263" lon="2.36334">
        <ele>109.4</ele>
        <time>2022-07-27T07:47:14Z</time>
      </trkpt>
      <trkpt lat="49.79262" lon="2.36334">
        <ele>109.4</ele>
        <time>2022-07-27T07:47:15Z</time>
      </trkpt>
      <trkpt lat="49.79261" lon="2.36333">
        <ele>109.4</ele>
        <time>2022-07-27T07:47:16Z</time>
      </trkpt>
      <trkpt lat="49.7926" lon="2.36333">
        <ele>109.4</ele>
        <time>2022-07-27T07:47:17Z</time>
      </trkpt>
      <trkpt lat="49.79259" lon="2.36332">
        <ele>109.4</ele>
        <time>2022-07-27T07:47:18Z</time>
      </trkpt>
      <trkpt lat="49.79259" lon="2.36332">
        <ele>109.4</ele>
        <time>2022-07-27T07:47:19Z</time>
      </trkpt>
      <trkpt lat="49.79258" lon="2.36331">
        <ele>109.4</ele>
        <time>2022-07-27T07:47:20Z</time>
      </trkpt>
      <trkpt lat="49.79257" lon="2.36331">
        <ele>109.4</ele>
        <time>2022-07-27T07:47:21Z</time>
      </trkpt>
      <trkpt lat="49.79256" lon="2.36331">
        <ele>109.4</ele>
        <time>2022-07-27T07:47:22Z</time>
      </trkpt>
      <trkpt lat="49.79254" lon="2.36329">
        <ele>109.4</ele>
        <time>2022-07-27T07:47:23Z</time>
      </trkpt>
      <trkpt lat="49.79253" lon="2.36328">
        <ele>109.4</ele>
        <time>2022-07-27T07:47:24Z</time>
      </trkpt>
      <trkpt lat="49.79253" lon="2.36328">
        <ele>109.4</ele>
        <time>2022-07-27T07:47:25Z</time>
      </trkpt>
      <trkpt lat="49.79251" lon="2.36326">
        <ele>109.4</ele>
        <time>2022-07-27T07:47:26Z</time>
      </trkpt>
      <trkpt lat="49.7925" lon="2.36324">
        <ele>109.4</ele>
        <time>2022-07-27T07:47:27Z</time>
      </trkpt>
      <trkpt lat="49.79249" lon="2.36323">
        <ele>109.4</ele>
        <time>2022-07-27T07:47:28Z</time>
      </trkpt>
      <trkpt lat="49.79248" lon="2.36321">
        <ele>109.4</ele>
        <time>2022-07-27T07:47:29Z</time>
      </trkpt>
      <trkpt lat="49.79247" lon="2.3632">
        <ele>109.4</ele>
        <time>2022-07-27T07:47:30Z</time>
      </trkpt>
      <trkpt lat="49.79246" lon="2.36319">
        <ele>109.5</ele>
        <time>2022-07-27T07:47:31Z</time>
      </trkpt>
      <trkpt lat="49.79246" lon="2.36318">
        <ele>109.5</ele>
        <time>2022-07-27T07:47:32Z</time>
      </trkpt>
      <trkpt lat="49.79245" lon="2.36317">
        <ele>109.5</ele>
        <time>2022-07-27T07:47:33Z</time>
      </trkpt>
      <trkpt lat="49.79245" lon="2.36316">
        <ele>109.5</ele>
        <time>2022-07-27T07:47:34Z</time>
      </trkpt>
      <trkpt lat="49.79244" lon="2.36314">
        <ele>109.5</ele>
        <time>2022-07-27T07:47:35Z</time>
      </trkpt>
      <trkpt lat="49.79243" lon="2.36313">
        <ele>109.5</ele>
        <time>2022-07-27T07:47:36Z</time>
      </trkpt>
      <trkpt lat="49.79242" lon="2.36311">
        <ele>109.5</ele>
        <time>2022-07-27T07:47:37Z</time>
      </trkpt>
      <trkpt lat="49.79242" lon="2.3631">
        <ele>109.5</ele>
        <time>2022-07-27T07:47:38Z</time>
      </trkpt>
      <trkpt lat="49.79242" lon="2.36309">
        <ele>109.5</ele>
        <time>2022-07-27T07:47:39Z</time>
      </trkpt>
      <trkpt lat="49.79241" lon="2.36308">
        <ele>109.5</ele>
        <time>2022-07-27T07:47:40Z</time>
      </trkpt>
      <trkpt lat="49.7924" lon="2.36307">
        <ele>109.5</ele>
        <time>2022-07-27T07:47:41Z</time>
      </trkpt>
      <trkpt lat="49.7924" lon="2.36307">
        <ele>109.5</ele>
        <time>2022-07-27T07:47:42Z</time>
      </trkpt>
      <trkpt lat="49.7924" lon="2.36306">
        <ele>109.5</ele>
        <time>2022-07-27T07:47:43Z</time>
      </trkpt>
      <trkpt lat="49.79239" lon="2.36305">
        <ele>109.5</ele>
        <time>2022-07-27T07:47:44Z</time>
      </trkpt>
      <trkpt lat="49.79239" lon="2.36305">
        <ele>109.5</ele>
        <time>2022-07-27T07:47:45Z</time>
      </trkpt>
      <trkpt lat="49.79239" lon="2.36304">
        <ele>109.5</ele>
        <time>2022-07-27T07:47:46Z</time>
      </trkpt>
      <trkpt lat="49.79239" lon="2.36304">
        <ele>109.5</ele>
        <time>2022-07-27T07:47:47Z</time>
      </trkpt>
      <trkpt lat="49.79238" lon="2.36303">
        <ele>109.5</ele>
        <time>2022-07-27T07:47:48Z</time>
      </trkpt>
      <trkpt lat="49.79238" lon="2.36303">
        <ele>109.5</ele>
        <time>2022-07-27T07:47:49Z</time>
      </trkpt>
      <trkpt lat="49.79238" lon="2.36302">
        <ele>109.5</ele>
        <time>2022-07-27T07:47:50Z</time>
      </trkpt>
      <trkpt lat="49.79237" lon="2.36302">
        <ele>109.5</ele>
        <time>2022-07-27T07:47:51Z</time>
      </trkpt>
      <trkpt lat="49.79237" lon="2.36301">
        <ele>109.5</ele>
        <time>2022-07-27T07:47:52Z</time>
      </trkpt>
      <trkpt lat="49.79237" lon="2.36301">
        <ele>109.5</ele>
        <time>2022-07-27T07:47:53Z</time>
      </trkpt>
      <trkpt lat="49.79236" lon="2.363">
        <ele>109.5</ele>
        <time>2022-07-27T07:47:54Z</time>
      </trkpt>
      <trkpt lat="49.79236" lon="2.36299">
        <ele>109.5</ele>
        <time>2022-07-27T07:47:55Z</time>
      </trkpt>
      <trkpt lat="49.79235" lon="2.36298">
        <ele>109.5</ele>
        <time>2022-07-27T07:47:56Z</time>
      </trkpt>
      <trkpt lat="49.79235" lon="2.36298">
        <ele>109.5</ele>
        <time>2022-07-27T07:47:57Z</time>
      </trkpt>
      <trkpt lat="49.79235" lon="2.36297">
        <ele>109.5</ele>
        <time>2022-07-27T07:47:58Z</time>
      </trkpt>
      <trkpt lat="49.79235" lon="2.36296">
        <ele>109.5</ele>
        <time>2022-07-27T07:47:59Z</time>
      </trkpt>
      <trkpt lat="49.79234" lon="2.36296">
        <ele>109.5</ele>
        <time>2022-07-27T07:48:00Z</time>
      </trkpt>
      <trkpt lat="49.79234" lon="2.36295">
        <ele>109.6</ele>
        <time>2022-07-27T07:48:01Z</time>
      </trkpt>
      <trkpt lat="49.79233" lon="2.36294">
        <ele>109.6</ele>
        <time>2022-07-27T07:48:02Z</time>
      </trkpt>
      <trkpt lat="49.79233" lon="2.36293">
        <ele>109.6</ele>
        <time>2022-07-27T07:48:03Z</time>
      </trkpt>
      <trkpt lat="49.79233" lon="2.36292">
        <ele>109.6</ele>
        <time>2022-07-27T07:48:04Z</time>
      </trkpt>
      <trkpt lat="49.79233" lon="2.36292">
        <ele>109.6</ele>
        <time>2022-07-27T07:48:05Z</time>
      </trkpt>
      <trkpt lat="49.79233" lon="2.36292">
        <ele>109.6</ele>
        <time>2022-07-27T07:48:06Z</time>
      </trkpt>
      <trkpt lat="49.79233" lon="2.36292">
        <ele>109.6</ele>
        <time>2022-07-27T07:48:07Z</time>
      </trkpt>
      <trkpt lat="49.79233" lon="2.36291">
        <ele>109.6</ele>
        <time>2022-07-27T07:48:08Z</time>
      </trkpt>
      <trkpt lat="49.79232" lon="2.3629">
        <ele>109.6</ele>
        <time>2022-07-27T07:48:09Z</time>
      </trkpt>
      <trkpt lat="49.79232" lon="2.36289">
        <ele>109.6</ele>
        <time>2022-07-27T07:48:10Z</time>
      </trkpt>
      <trkpt lat="49.79232" lon="2.36289">
        <ele>109.6</ele>
        <time>2022-07-27T07:48:11Z</time>
      </trkpt>
      <trkpt lat="49.79232" lon="2.36288">
        <ele>109.6</ele>
        <time>2022-07-27T07:48:12Z</time>
      </trkpt>
      <trkpt lat="49.79231" lon="2.36288">
        <ele>109.6</ele>
        <time>2022-07-27T07:48:13Z</time>
      </trkpt>
      <trkpt lat="49.79231" lon="2.36287">
        <ele>109.6</ele>
        <time>2022-07-27T07:48:14Z</time>
      </trkpt>
      <trkpt lat="49.79231" lon="2.36287">
        <ele>109.6</ele>
        <time>2022-07-27T07:48:15Z</time>
      </trkpt>
      <trkpt lat="49.7923" lon="2.36286">
        <ele>109.6</ele>
        <time>2022-07-27T07:48:16Z</time>
      </trkpt>
      <trkpt lat="49.7923" lon="2.36285">
        <ele>109.6</ele>
        <time>2022-07-27T07:48:17Z</time>
      </trkpt>
      <trkpt lat="49.79229" lon="2.36284">
        <ele>109.6</ele>
        <time>2022-07-27T07:48:18Z</time>
      </trkpt>
      <trkpt lat="49.79228" lon="2.36282">
        <ele>109.6</ele>
        <time>2022-07-27T07:48:19Z</time>
      </trkpt>
      <trkpt lat="49.79227" lon="2.36281">
        <ele>109.6</ele>
        <time>2022-07-27T07:48:20Z</time>
      </trkpt>
      <trkpt lat="49.79227" lon="2.3628">
        <ele>109.6</ele>
        <time>2022-07-27T07:48:21Z</time>
      </trkpt>
      <trkpt lat="49.79226" lon="2.3628">
        <ele>109.6</ele>
        <time>2022-07-27T07:48:22Z</time>
      </trkpt>
      <trkpt lat="49.79226" lon="2.36279">
        <ele>109.6</ele>
        <time>2022-07-27T07:48:23Z</time>
      </trkpt>
      <trkpt lat="49.79226" lon="2.36279">
        <ele>109.6</ele>
        <time>2022-07-27T07:48:24Z</time>
      </trkpt>
      <trkpt lat="49.79226" lon="2.36277">
        <ele>109.6</ele>
        <time>2022-07-27T07:48:25Z</time>
      </trkpt>
      <trkpt lat="49.79226" lon="2.36275">
        <ele>109.7</ele>
        <time>2022-07-27T07:48:26Z</time>
      </trkpt>
      <trkpt lat="49.79226" lon="2.36274">
        <ele>109.7</ele>
        <time>2022-07-27T07:48:27Z</time>
      </trkpt>
      <trkpt lat="49.79226" lon="2.36272">
        <ele>109.7</ele>
        <time>2022-07-27T07:48:28Z</time>
      </trkpt>
      <trkpt lat="49.79226" lon="2.36271">
        <ele>109.7</ele>
        <time>2022-07-27T07:48:29Z</time>
      </trkpt>
      <trkpt lat="49.79227" lon="2.36268">
        <ele>109.7</ele>
        <time>2022-07-27T07:48:30Z</time>
      </trkpt>
      <trkpt lat="49.79227" lon="2.36267">
        <ele>109.7</ele>
        <time>2022-07-27T07:48:31Z</time>
      </trkpt>
      <trkpt lat="49.79227" lon="2.36265">
        <ele>109.7</ele>
        <time>2022-07-27T07:48:32Z</time>
      </trkpt>
      <trkpt lat="49.79227" lon="2.36264">
        <ele>109.7</ele>
        <time>2022-07-27T07:48:33Z</time>
      </trkpt>
      <trkpt lat="49.79228" lon="2.36262">
        <ele>109.7</ele>
        <time>2022-07-27T07:48:34Z</time>
      </trkpt>
      <trkpt lat="49.79228" lon="2.3626">
        <ele>109.7</ele>
        <time>2022-07-27T07:48:35Z</time>
      </trkpt>
      <trkpt lat="49.79229" lon="2.36259">
        <ele>109.7</ele>
        <time>2022-07-27T07:48:36Z</time>
      </trkpt>
      <trkpt lat="49.79229" lon="2.36257">
        <ele>109.7</ele>
        <time>2022-07-27T07:48:37Z</time>
      </trkpt>
      <trkpt lat="49.7923" lon="2.36255">
        <ele>109.7</ele>
        <time>2022-07-27T07:48:38Z</time>
      </trkpt>
      <trkpt lat="49.7923" lon="2.36252">
        <ele>109.7</ele>
        <time>2022-07-27T07:48:39Z</time>
      </trkpt>
      <trkpt lat="49.79231" lon="2.36251">
        <ele>109.7</ele>
        <time>2022-07-27T07:48:40Z</time>
      </trkpt>
      <trkpt lat="49.79231" lon="2.3625">
        <ele>109.7</ele>
        <time>2022-07-27T07:48:41Z</time>
      </trkpt>
      <trkpt lat="49.79231" lon="2.36248">
        <ele>109.7</ele>
        <time>2022-07-27T07:48:42Z</time>
      </trkpt>
      <trkpt lat="49.79231" lon="2.36247">
        <ele>109.7</ele>
        <time>2022-07-27T07:48:43Z</time>
      </trkpt>
      <trkpt lat="49.79231" lon="2.36246">
        <ele>109.7</ele>
        <time>2022-07-27T07:48:44Z</time>
      </trkpt>
      <trkpt lat="49.79231" lon="2.36245">
        <ele>109.7</ele>
        <time>2022-07-27T07:48:45Z</time>
      </trkpt>
      <trkpt lat="49.79231" lon="2.36242">
        <ele>109.7</ele>
        <time>2022-07-27T07:48:46Z</time>
      </trkpt>
      <trkpt lat="49.79231" lon="2.36241">
        <ele>109.7</ele>
        <time>2022-07-27T07:48:47Z</time>
      </trkpt>
      <trkpt lat="49.79231" lon="2.3624">
        <ele>109.7</ele>
        <time>2022-07-27T07:48:48Z</time>
      </trkpt>
      <trkpt lat="49.79231" lon="2.36239">
        <ele>109.7</ele>
        <time>2022-07-27T07:48:49Z</time>
      </trkpt>
      <trkpt lat="49.79231" lon="2.36236">
        <ele>109.7</ele>
        <time>2022-07-27T07:48:50Z</time>
      </trkpt>
      <trkpt lat="49.79231" lon="2.36234">
        <ele>109.7</ele>
        <time>2022-07-27T07:48:51Z</time>
      </trkpt>
      <trkpt lat="49.79231" lon="2.36232">
        <ele>109.7</ele>
        <time>2022-07-27T07:48:52Z</time>
      </trkpt>
      <trkpt lat="49.79231" lon="2.3623">
        <ele>109.7</ele>
        <time>2022-07-27T07:48:53Z</time>
      </trkpt>
      <trkpt lat="49.79232" lon="2.36226">
        <ele>109.7</ele>
        <time>2022-07-27T07:48:54Z</time>
      </trkpt>
      <trkpt lat="49.79232" lon="2.36225">
        <ele>109.6</ele>
        <time>2022-07-27T07:48:55Z</time>
      </trkpt>
      <trkpt lat="49.79232" lon="2.36223">
        <ele>109.6</ele>
        <time>2022-07-27T07:48:56Z</time>
      </trkpt>
      <trkpt lat="49.79232" lon="2.3622">
        <ele>109.6</ele>
        <time>2022-07-27T07:48:57Z</time>
      </trkpt>
      <trkpt lat="49.79233" lon="2.36218">
        <ele>109.6</ele>
        <time>2022-07-27T07:48:58Z</time>
      </trkpt>
      <trkpt lat="49.79233" lon="2.36215">
        <ele>109.6</ele>
        <time>2022-07-27T07:48:59Z</time>
      </trkpt>
      <trkpt lat="49.79234" lon="2.36213">
        <ele>109.6</ele>
        <time>2022-07-27T07:49:00Z</time>
      </trkpt>
      <trkpt lat="49.79234" lon="2.36211">
        <ele>109.6</ele>
        <time>2022-07-27T07:49:01Z</time>
      </trkpt>
      <trkpt lat="49.79235" lon="2.36207">
        <ele>109.6</ele>
        <time>2022-07-27T07:49:02Z</time>
      </trkpt>
      <trkpt lat="49.79236" lon="2.36205">
        <ele>109.6</ele>
        <time>2022-07-27T07:49:03Z</time>
      </trkpt>
      <trkpt lat="49.79236" lon="2.36204">
        <ele>109.6</ele>
        <time>2022-07-27T07:49:04Z</time>
      </trkpt>
      <trkpt lat="49.79237" lon="2.36202">
        <ele>109.6</ele>
        <time>2022-07-27T07:49:05Z</time>
      </trkpt>
      <trkpt lat="49.79237" lon="2.36201">
        <ele>109.6</ele>
        <time>2022-07-27T07:49:06Z</time>
      </trkpt>
      <trkpt lat="49.79238" lon="2.36199">
        <ele>109.6</ele>
        <time>2022-07-27T07:49:07Z</time>
      </trkpt>
      <trkpt lat="49.79238" lon="2.36198">
        <ele>109.6</ele>
        <time>2022-07-27T07:49:08Z</time>
      </trkpt>
      <trkpt lat="49.79239" lon="2.36196">
        <ele>109.6</ele>
        <time>2022-07-27T07:49:09Z</time>
      </trkpt>
      <trkpt lat="49.79239" lon="2.36195">
        <ele>109.6</ele>
        <time>2022-07-27T07:49:10Z</time>
      </trkpt>
      <trkpt lat="49.7924" lon="2.36193">
        <ele>109.6</ele>
        <time>2022-07-27T07:49:11Z</time>
      </trkpt>
      <trkpt lat="49.7924" lon="2.36191">
        <ele>109.6</ele>
        <time>2022-07-27T07:49:12Z</time>
      </trkpt>
      <trkpt lat="49.79241" lon="2.36188">
        <ele>109.6</ele>
        <time>2022-07-27T07:49:13Z</time>
      </trkpt>
      <trkpt lat="49.79241" lon="2.36187">
        <ele>109.6</ele>
        <time>2022-07-27T07:49:14Z</time>
      </trkpt>
      <trkpt lat="49.79242" lon="2.36186">
        <ele>109.6</ele>
        <time>2022-07-27T07:49:15Z</time>
      </trkpt>
      <trkpt lat="49.79242" lon="2.36184">
        <ele>109.6</ele>
        <time>2022-07-27T07:49:16Z</time>
      </trkpt>
      <trkpt lat="49.79243" lon="2.36183">
        <ele>109.6</ele>
        <time>2022-07-27T07:49:17Z</time>
      </trkpt>
      <trkpt lat="49.79243" lon="2.36181">
        <ele>109.6</ele>
        <time>2022-07-27T07:49:18Z</time>
      </trkpt>
      <trkpt lat="49.79243" lon="2.3618">
        <ele>109.6</ele>
        <time>2022-07-27T07:49:19Z</time>
      </trkpt>
      <trkpt lat="49.79243" lon="2.36178">
        <ele>109.6</ele>
        <time>2022-07-27T07:49:20Z</time>
      </trkpt>
      <trkpt lat="49.79243" lon="2.36177">
        <ele>109.6</ele>
        <time>2022-07-27T07:49:21Z</time>
      </trkpt>
      <trkpt lat="49.79244" lon="2.36174">
        <ele>109.6</ele>
        <time>2022-07-27T07:49:22Z</time>
      </trkpt>
      <trkpt lat="49.79244" lon="2.36172">
        <ele>109.6</ele>
        <time>2022-07-27T07:49:23Z</time>
      </trkpt>
      <trkpt lat="49.79244" lon="2.36171">
        <ele>109.6</ele>
        <time>2022-07-27T07:49:24Z</time>
      </trkpt>
      <trkpt lat="49.79244" lon="2.36168">
        <ele>109.6</ele>
        <time>2022-07-27T07:49:25Z</time>
      </trkpt>
      <trkpt lat="49.79244" lon="2.36167">
        <ele>109.6</ele>
        <time>2022-07-27T07:49:26Z</time>
      </trkpt>
      <trkpt lat="49.79244" lon="2.36165">
        <ele>109.6</ele>
        <time>2022-07-27T07:49:27Z</time>
      </trkpt>
      <trkpt lat="49.79245" lon="2.36164">
        <ele>109.6</ele>
        <time>2022-07-27T07:49:28Z</time>
      </trkpt>
      <trkpt lat="49.79245" lon="2.36162">
        <ele>109.6</ele>
        <time>2022-07-27T07:49:29Z</time>
      </trkpt>
      <trkpt lat="49.79245" lon="2.3616">
        <ele>109.6</ele>
        <time>2022-07-27T07:49:30Z</time>
      </trkpt>
      <trkpt lat="49.79245" lon="2.36158">
        <ele>109.6</ele>
        <time>2022-07-27T07:49:31Z</time>
      </trkpt>
      <trkpt lat="49.79246" lon="2.36157">
        <ele>109.6</ele>
        <time>2022-07-27T07:49:32Z</time>
      </trkpt>
      <trkpt lat="49.79246" lon="2.36155">
        <ele>109.6</ele>
        <time>2022-07-27T07:49:33Z</time>
      </trkpt>
      <trkpt lat="49.79246" lon="2.36151">
        <ele>109.6</ele>
        <time>2022-07-27T07:49:34Z</time>
      </trkpt>
      <trkpt lat="49.79247" lon="2.3615">
        <ele>109.6</ele>
        <time>2022-07-27T07:49:35Z</time>
      </trkpt>
      <trkpt lat="49.79247" lon="2.36149">
        <ele>109.6</ele>
        <time>2022-07-27T07:49:36Z</time>
      </trkpt>
      <trkpt lat="49.79247" lon="2.36146">
        <ele>109.6</ele>
        <time>2022-07-27T07:49:37Z</time>
      </trkpt>
      <trkpt lat="49.79247" lon="2.36145">
        <ele>109.6</ele>
        <time>2022-07-27T07:49:38Z</time>
      </trkpt>
      <trkpt lat="49.79248" lon="2.36143">
        <ele>109.6</ele>
        <time>2022-07-27T07:49:39Z</time>
      </trkpt>
      <trkpt lat="49.79248" lon="2.36142">
        <ele>109.6</ele>
        <time>2022-07-27T07:49:40Z</time>
      </trkpt>
      <trkpt lat="49.79248" lon="2.3614">
        <ele>109.6</ele>
        <time>2022-07-27T07:49:41Z</time>
      </trkpt>
      <trkpt lat="49.79248" lon="2.36138">
        <ele>109.6</ele>
        <time>2022-07-27T07:49:42Z</time>
      </trkpt>
      <trkpt lat="49.79249" lon="2.36135">
        <ele>109.6</ele>
        <time>2022-07-27T07:49:43Z</time>
      </trkpt>
      <trkpt lat="49.79249" lon="2.36133">
        <ele>109.6</ele>
        <time>2022-07-27T07:49:44Z</time>
      </trkpt>
      <trkpt lat="49.79249" lon="2.36132">
        <ele>109.6</ele>
        <time>2022-07-27T07:49:45Z</time>
      </trkpt>
      <trkpt lat="49.7925" lon="2.36129">
        <ele>109.6</ele>
        <time>2022-07-27T07:49:46Z</time>
      </trkpt>
      <trkpt lat="49.7925" lon="2.36127">
        <ele>109.6</ele>
        <time>2022-07-27T07:49:47Z</time>
      </trkpt>
      <trkpt lat="49.7925" lon="2.36126">
        <ele>109.6</ele>
        <time>2022-07-27T07:49:48Z</time>
      </trkpt>
      <trkpt lat="49.7925" lon="2.36124">
        <ele>109.6</ele>
        <time>2022-07-27T07:49:49Z</time>
      </trkpt>
      <trkpt lat="49.79251" lon="2.36123">
        <ele>109.6</ele>
        <time>2022-07-27T07:49:50Z</time>
      </trkpt>
      <trkpt lat="49.79251" lon="2.36121">
        <ele>109.6</ele>
        <time>2022-07-27T07:49:51Z</time>
      </trkpt>
      <trkpt lat="49.79251" lon="2.36118">
        <ele>109.6</ele>
        <time>2022-07-27T07:49:52Z</time>
      </trkpt>
      <trkpt lat="49.79251" lon="2.36117">
        <ele>109.6</ele>
        <time>2022-07-27T07:49:53Z</time>
      </trkpt>
      <trkpt lat="49.79252" lon="2.36115">
        <ele>109.6</ele>
        <time>2022-07-27T07:49:54Z</time>
      </trkpt>
      <trkpt lat="49.79252" lon="2.36112">
        <ele>109.6</ele>
        <time>2022-07-27T07:49:55Z</time>
      </trkpt>
      <trkpt lat="49.79252" lon="2.36111">
        <ele>109.6</ele>
        <time>2022-07-27T07:49:56Z</time>
      </trkpt>
      <trkpt lat="49.79253" lon="2.3611">
        <ele>109.6</ele>
        <time>2022-07-27T07:49:57Z</time>
      </trkpt>
      <trkpt lat="49.79253" lon="2.36108">
        <ele>109.6</ele>
        <time>2022-07-27T07:49:58Z</time>
      </trkpt>
      <trkpt lat="49.79253" lon="2.36106">
        <ele>109.6</ele>
        <time>2022-07-27T07:49:59Z</time>
      </trkpt>
      <trkpt lat="49.79254" lon="2.36104">
        <ele>109.6</ele>
        <time>2022-07-27T07:50:00Z</time>
      </trkpt>
      <trkpt lat="49.79254" lon="2.36102">
        <ele>109.6</ele>
        <time>2022-07-27T07:50:01Z</time>
      </trkpt>
      <trkpt lat="49.79254" lon="2.36101">
        <ele>109.6</ele>
        <time>2022-07-27T07:50:02Z</time>
      </trkpt>
      <trkpt lat="49.79254" lon="2.36099">
        <ele>109.6</ele>
        <time>2022-07-27T07:50:03Z</time>
      </trkpt>
      <trkpt lat="49.79255" lon="2.36098">
        <ele>109.6</ele>
        <time>2022-07-27T07:50:04Z</time>
      </trkpt>
      <trkpt lat="49.79255" lon="2.36096">
        <ele>109.6</ele>
        <time>2022-07-27T07:50:05Z</time>
      </trkpt>
      <trkpt lat="49.79255" lon="2.36094">
        <ele>109.5</ele>
        <time>2022-07-27T07:50:06Z</time>
      </trkpt>
      <trkpt lat="49.79255" lon="2.36093">
        <ele>109.5</ele>
        <time>2022-07-27T07:50:07Z</time>
      </trkpt>
      <trkpt lat="49.79256" lon="2.36091">
        <ele>109.5</ele>
        <time>2022-07-27T07:50:08Z</time>
      </trkpt>
      <trkpt lat="49.79256" lon="2.36088">
        <ele>109.5</ele>
        <time>2022-07-27T07:50:09Z</time>
      </trkpt>
      <trkpt lat="49.79256" lon="2.36086">
        <ele>109.5</ele>
        <time>2022-07-27T07:50:10Z</time>
      </trkpt>
      <trkpt lat="49.79257" lon="2.36084">
        <ele>109.5</ele>
        <time>2022-07-27T07:50:11Z</time>
      </trkpt>
      <trkpt lat="49.79257" lon="2.36084">
        <ele>109.5</ele>
        <time>2022-07-27T07:50:12Z</time>
      </trkpt>
      <trkpt lat="49.79257" lon="2.36083">
        <ele>109.5</ele>
        <time>2022-07-27T07:50:13Z</time>
      </trkpt>
      <trkpt lat="49.79257" lon="2.36081">
        <ele>109.5</ele>
        <time>2022-07-27T07:50:14Z</time>
      </trkpt>
      <trkpt lat="49.79258" lon="2.3608">
        <ele>109.5</ele>
        <time>2022-07-27T07:50:15Z</time>
      </trkpt>
      <trkpt lat="49.79258" lon="2.36078">
        <ele>109.5</ele>
        <time>2022-07-27T07:50:16Z</time>
      </trkpt>
      <trkpt lat="49.79258" lon="2.36076">
        <ele>109.5</ele>
        <time>2022-07-27T07:50:17Z</time>
      </trkpt>
      <trkpt lat="49.79259" lon="2.36075">
        <ele>109.5</ele>
        <time>2022-07-27T07:50:18Z</time>
      </trkpt>
      <trkpt lat="49.79259" lon="2.36073">
        <ele>109.5</ele>
        <time>2022-07-27T07:50:19Z</time>
      </trkpt>
      <trkpt lat="49.79259" lon="2.3607">
        <ele>109.5</ele>
        <time>2022-07-27T07:50:20Z</time>
      </trkpt>
      <trkpt lat="49.7926" lon="2.36069">
        <ele>109.4</ele>
        <time>2022-07-27T07:50:21Z</time>
      </trkpt>
      <trkpt lat="49.7926" lon="2.36068">
        <ele>109.4</ele>
        <time>2022-07-27T07:50:22Z</time>
      </trkpt>
      <trkpt lat="49.7926" lon="2.36067">
        <ele>109.4</ele>
        <time>2022-07-27T07:50:23Z</time>
      </trkpt>
      <trkpt lat="49.7926" lon="2.36065">
        <ele>109.4</ele>
        <time>2022-07-27T07:50:24Z</time>
      </trkpt>
      <trkpt lat="49.79261" lon="2.36064">
        <ele>109.4</ele>
        <time>2022-07-27T07:50:25Z</time>
      </trkpt>
      <trkpt lat="49.79261" lon="2.36062">
        <ele>109.4</ele>
        <time>2022-07-27T07:50:26Z</time>
      </trkpt>
      <trkpt lat="49.79261" lon="2.36061">
        <ele>109.4</ele>
        <time>2022-07-27T07:50:27Z</time>
      </trkpt>
      <trkpt lat="49.79261" lon="2.36059">
        <ele>109.4</ele>
        <time>2022-07-27T07:50:28Z</time>
      </trkpt>
      <trkpt lat="49.79261" lon="2.36057">
        <ele>109.4</ele>
        <time>2022-07-27T07:50:29Z</time>
      </trkpt>
      <trkpt lat="49.79262" lon="2.36056">
        <ele>109.4</ele>
        <time>2022-07-27T07:50:30Z</time>
      </trkpt>
      <trkpt lat="49.79262" lon="2.36054">
        <ele>109.4</ele>
        <time>2022-07-27T07:50:31Z</time>
      </trkpt>
      <trkpt lat="49.79262" lon="2.36052">
        <ele>109.4</ele>
        <time>2022-07-27T07:50:32Z</time>
      </trkpt>
      <trkpt lat="49.79262" lon="2.36051">
        <ele>109.4</ele>
        <time>2022-07-27T07:50:33Z</time>
      </trkpt>
      <trkpt lat="49.79263" lon="2.36049">
        <ele>109.4</ele>
        <time>2022-07-27T07:50:34Z</time>
      </trkpt>
      <trkpt lat="49.79263" lon="2.36048">
        <ele>109.4</ele>
        <time>2022-07-27T07:50:35Z</time>
      </trkpt>
      <trkpt lat="49.79263" lon="2.36046">
        <ele>109.4</ele>
        <time>2022-07-27T07:50:36Z</time>
      </trkpt>
      <trkpt lat="49.79264" lon="2.36044">
        <ele>109.4</ele>
        <time>2022-07-27T07:50:37Z</time>
      </trkpt>
      <trkpt lat="49.79264" lon="2.36043">
        <ele>109.4</ele>
        <time>2022-07-27T07:50:38Z</time>
      </trkpt>
      <trkpt lat="49.79264" lon="2.36041">
        <ele>109.4</ele>
        <time>2022-07-27T07:50:39Z</time>
      </trkpt>
      <trkpt lat="49.79265" lon="2.3604">
        <ele>109.3</ele>
        <time>2022-07-27T07:50:40Z</time>
      </trkpt>
      <trkpt lat="49.79265" lon="2.36038">
        <ele>109.3</ele>
        <time>2022-07-27T07:50:41Z</time>
      </trkpt>
      <trkpt lat="49.79266" lon="2.36036">
        <ele>109.3</ele>
        <time>2022-07-27T07:50:42Z</time>
      </trkpt>
      <trkpt lat="49.79266" lon="2.36033">
        <ele>109.3</ele>
        <time>2022-07-27T07:50:43Z</time>
      </trkpt>
      <trkpt lat="49.79266" lon="2.36032">
        <ele>109.3</ele>
        <time>2022-07-27T07:50:44Z</time>
      </trkpt>
      <trkpt lat="49.79266" lon="2.3603">
        <ele>109.3</ele>
        <time>2022-07-27T07:50:45Z</time>
      </trkpt>
      <trkpt lat="49.79267" lon="2.36029">
        <ele>109.3</ele>
        <time>2022-07-27T07:50:46Z</time>
      </trkpt>
      <trkpt lat="49.79267" lon="2.36027">
        <ele>109.3</ele>
        <time>2022-07-27T07:50:47Z</time>
      </trkpt>
      <trkpt lat="49.79267" lon="2.36026">
        <ele>109.3</ele>
        <time>2022-07-27T07:50:48Z</time>
      </trkpt>
      <trkpt lat="49.79267" lon="2.36023">
        <ele>109.3</ele>
        <time>2022-07-27T07:50:49Z</time>
      </trkpt>
      <trkpt lat="49.79267" lon="2.36022">
        <ele>109.3</ele>
        <time>2022-07-27T07:50:50Z</time>
      </trkpt>
      <trkpt lat="49.79267" lon="2.3602">
        <ele>109.3</ele>
        <time>2022-07-27T07:50:51Z</time>
      </trkpt>
      <trkpt lat="49.79268" lon="2.36018">
        <ele>109.3</ele>
        <time>2022-07-27T07:50:52Z</time>
      </trkpt>
      <trkpt lat="49.79268" lon="2.36017">
        <ele>109.3</ele>
        <time>2022-07-27T07:50:53Z</time>
      </trkpt>
      <trkpt lat="49.79268" lon="2.36015">
        <ele>109.3</ele>
        <time>2022-07-27T07:50:54Z</time>
      </trkpt>
      <trkpt lat="49.79268" lon="2.36012">
        <ele>109.2</ele>
        <time>2022-07-27T07:50:55Z</time>
      </trkpt>
      <trkpt lat="49.79269" lon="2.3601">
        <ele>109.2</ele>
        <time>2022-07-27T07:50:56Z</time>
      </trkpt>
      <trkpt lat="49.79269" lon="2.36009">
        <ele>109.2</ele>
        <time>2022-07-27T07:50:57Z</time>
      </trkpt>
      <trkpt lat="49.79269" lon="2.36007">
        <ele>109.2</ele>
        <time>2022-07-27T07:50:58Z</time>
      </trkpt>
      <trkpt lat="49.79269" lon="2.36006">
        <ele>109.2</ele>
        <time>2022-07-27T07:50:59Z</time>
      </trkpt>
      <trkpt lat="49.7927" lon="2.36004">
        <ele>109.2</ele>
        <time>2022-07-27T07:51:00Z</time>
      </trkpt>
      <trkpt lat="49.7927" lon="2.36002">
        <ele>109.2</ele>
        <time>2022-07-27T07:51:01Z</time>
      </trkpt>
      <trkpt lat="49.7927" lon="2.36001">
        <ele>109.2</ele>
        <time>2022-07-27T07:51:02Z</time>
      </trkpt>
      <trkpt lat="49.79271" lon="2.35999">
        <ele>109.2</ele>
        <time>2022-07-27T07:51:03Z</time>
      </trkpt>
      <trkpt lat="49.79271" lon="2.35996">
        <ele>109.2</ele>
        <time>2022-07-27T07:51:04Z</time>
      </trkpt>
      <trkpt lat="49.79271" lon="2.35995">
        <ele>109.2</ele>
        <time>2022-07-27T07:51:05Z</time>
      </trkpt>
      <trkpt lat="49.79272" lon="2.35994">
        <ele>109.2</ele>
        <time>2022-07-27T07:51:06Z</time>
      </trkpt>
      <trkpt lat="49.79272" lon="2.35992">
        <ele>109.1</ele>
        <time>2022-07-27T07:51:07Z</time>
      </trkpt>
      <trkpt lat="49.79272" lon="2.3599">
        <ele>109.1</ele>
        <time>2022-07-27T07:51:08Z</time>
      </trkpt>
      <trkpt lat="49.79273" lon="2.35989">
        <ele>109.1</ele>
        <time>2022-07-27T07:51:09Z</time>
      </trkpt>
      <trkpt lat="49.79273" lon="2.35987">
        <ele>109.1</ele>
        <time>2022-07-27T07:51:10Z</time>
      </trkpt>
      <trkpt lat="49.79273" lon="2.35985">
        <ele>109.1</ele>
        <time>2022-07-27T07:51:11Z</time>
      </trkpt>
      <trkpt lat="49.79274" lon="2.35983">
        <ele>109.1</ele>
        <time>2022-07-27T07:51:12Z</time>
      </trkpt>
      <trkpt lat="49.79274" lon="2.3598">
        <ele>109.1</ele>
        <time>2022-07-27T07:51:13Z</time>
      </trkpt>
      <trkpt lat="49.79275" lon="2.35979">
        <ele>109.1</ele>
        <time>2022-07-27T07:51:14Z</time>
      </trkpt>
      <trkpt lat="49.79275" lon="2.35978">
        <ele>109.1</ele>
        <time>2022-07-27T07:51:15Z</time>
      </trkpt>
      <trkpt lat="49.79276" lon="2.35975">
        <ele>109.1</ele>
        <time>2022-07-27T07:51:16Z</time>
      </trkpt>
      <trkpt lat="49.79276" lon="2.35973">
        <ele>109.1</ele>
        <time>2022-07-27T07:51:17Z</time>
      </trkpt>
      <trkpt lat="49.79277" lon="2.35972">
        <ele>109.1</ele>
        <time>2022-07-27T07:51:18Z</time>
      </trkpt>
      <trkpt lat="49.79277" lon="2.35971">
        <ele>109.1</ele>
        <time>2022-07-27T07:51:19Z</time>
      </trkpt>
      <trkpt lat="49.79277" lon="2.35969">
        <ele>109.1</ele>
        <time>2022-07-27T07:51:20Z</time>
      </trkpt>
      <trkpt lat="49.79278" lon="2.35968">
        <ele>109.1</ele>
        <time>2022-07-27T07:51:21Z</time>
      </trkpt>
      <trkpt lat="49.79278" lon="2.35966">
        <ele>109.1</ele>
        <time>2022-07-27T07:51:22Z</time>
      </trkpt>
      <trkpt lat="49.79279" lon="2.35964">
        <ele>109</ele>
        <time>2022-07-27T07:51:23Z</time>
      </trkpt>
      <trkpt lat="49.79279" lon="2.35963">
        <ele>109</ele>
        <time>2022-07-27T07:51:24Z</time>
      </trkpt>
      <trkpt lat="49.7928" lon="2.3596">
        <ele>109</ele>
        <time>2022-07-27T07:51:25Z</time>
      </trkpt>
      <trkpt lat="49.79281" lon="2.35959">
        <ele>109</ele>
        <time>2022-07-27T07:51:26Z</time>
      </trkpt>
      <trkpt lat="49.79281" lon="2.35958">
        <ele>109</ele>
        <time>2022-07-27T07:51:27Z</time>
      </trkpt>
      <trkpt lat="49.79282" lon="2.35956">
        <ele>109</ele>
        <time>2022-07-27T07:51:28Z</time>
      </trkpt>
      <trkpt lat="49.79282" lon="2.35955">
        <ele>109</ele>
        <time>2022-07-27T07:51:29Z</time>
      </trkpt>
      <trkpt lat="49.79282" lon="2.35954">
        <ele>109</ele>
        <time>2022-07-27T07:51:30Z</time>
      </trkpt>
      <trkpt lat="49.79283" lon="2.35952">
        <ele>109</ele>
        <time>2022-07-27T07:51:31Z</time>
      </trkpt>
      <trkpt lat="49.79283" lon="2.35951">
        <ele>109</ele>
        <time>2022-07-27T07:51:32Z</time>
      </trkpt>
      <trkpt lat="49.79284" lon="2.3595">
        <ele>109</ele>
        <time>2022-07-27T07:51:33Z</time>
      </trkpt>
      <trkpt lat="49.79285" lon="2.35947">
        <ele>108.9</ele>
        <time>2022-07-27T07:51:34Z</time>
      </trkpt>
      <trkpt lat="49.79285" lon="2.35946">
        <ele>108.9</ele>
        <time>2022-07-27T07:51:35Z</time>
      </trkpt>
      <trkpt lat="49.79286" lon="2.35944">
        <ele>108.9</ele>
        <time>2022-07-27T07:51:36Z</time>
      </trkpt>
      <trkpt lat="49.79286" lon="2.35943">
        <ele>108.9</ele>
        <time>2022-07-27T07:51:37Z</time>
      </trkpt>
      <trkpt lat="49.79287" lon="2.35941">
        <ele>108.9</ele>
        <time>2022-07-27T07:51:38Z</time>
      </trkpt>
      <trkpt lat="49.79287" lon="2.3594">
        <ele>108.9</ele>
        <time>2022-07-27T07:51:39Z</time>
      </trkpt>
      <trkpt lat="49.79288" lon="2.35938">
        <ele>108.9</ele>
        <time>2022-07-27T07:51:40Z</time>
      </trkpt>
      <trkpt lat="49.79288" lon="2.35937">
        <ele>108.9</ele>
        <time>2022-07-27T07:51:41Z</time>
      </trkpt>
      <trkpt lat="49.79288" lon="2.35936">
        <ele>108.9</ele>
        <time>2022-07-27T07:51:42Z</time>
      </trkpt>
      <trkpt lat="49.79288" lon="2.35935">
        <ele>108.9</ele>
        <time>2022-07-27T07:51:43Z</time>
      </trkpt>
      <trkpt lat="49.79289" lon="2.35933">
        <ele>108.8</ele>
        <time>2022-07-27T07:51:44Z</time>
      </trkpt>
      <trkpt lat="49.79289" lon="2.35931">
        <ele>108.8</ele>
        <time>2022-07-27T07:51:45Z</time>
      </trkpt>
      <trkpt lat="49.7929" lon="2.3593">
        <ele>108.8</ele>
        <time>2022-07-27T07:51:46Z</time>
      </trkpt>
      <trkpt lat="49.7929" lon="2.35928">
        <ele>108.8</ele>
        <time>2022-07-27T07:51:47Z</time>
      </trkpt>
      <trkpt lat="49.7929" lon="2.35926">
        <ele>108.8</ele>
        <time>2022-07-27T07:51:48Z</time>
      </trkpt>
      <trkpt lat="49.79291" lon="2.35925">
        <ele>108.8</ele>
        <time>2022-07-27T07:51:49Z</time>
      </trkpt>
      <trkpt lat="49.79292" lon="2.35922">
        <ele>108.8</ele>
        <time>2022-07-27T07:51:50Z</time>
      </trkpt>
      <trkpt lat="49.79292" lon="2.3592">
        <ele>108.8</ele>
        <time>2022-07-27T07:51:51Z</time>
      </trkpt>
      <trkpt lat="49.79292" lon="2.35919">
        <ele>108.8</ele>
        <time>2022-07-27T07:51:52Z</time>
      </trkpt>
      <trkpt lat="49.79292" lon="2.35918">
        <ele>108.8</ele>
        <time>2022-07-27T07:51:53Z</time>
      </trkpt>
      <trkpt lat="49.79293" lon="2.35916">
        <ele>108.7</ele>
        <time>2022-07-27T07:51:54Z</time>
      </trkpt>
      <trkpt lat="49.79293" lon="2.35915">
        <ele>108.7</ele>
        <time>2022-07-27T07:51:55Z</time>
      </trkpt>
      <trkpt lat="49.79293" lon="2.35913">
        <ele>108.7</ele>
        <time>2022-07-27T07:51:56Z</time>
      </trkpt>
      <trkpt lat="49.79294" lon="2.35911">
        <ele>108.7</ele>
        <time>2022-07-27T07:51:57Z</time>
      </trkpt>
      <trkpt lat="49.79294" lon="2.35909">
        <ele>108.7</ele>
        <time>2022-07-27T07:51:58Z</time>
      </trkpt>
      <trkpt lat="49.79295" lon="2.35906">
        <ele>108.7</ele>
        <time>2022-07-27T07:51:59Z</time>
      </trkpt>
      <trkpt lat="49.79295" lon="2.35905">
        <ele>108.7</ele>
        <time>2022-07-27T07:52:00Z</time>
      </trkpt>
      <trkpt lat="49.79296" lon="2.35904">
        <ele>108.6</ele>
        <time>2022-07-27T07:52:01Z</time>
      </trkpt>
      <trkpt lat="49.79296" lon="2.35902">
        <ele>108.6</ele>
        <time>2022-07-27T07:52:02Z</time>
      </trkpt>
      <trkpt lat="49.79297" lon="2.359">
        <ele>108.6</ele>
        <time>2022-07-27T07:52:03Z</time>
      </trkpt>
      <trkpt lat="49.79297" lon="2.35898">
        <ele>108.6</ele>
        <time>2022-07-27T07:52:04Z</time>
      </trkpt>
      <trkpt lat="49.79297" lon="2.35896">
        <ele>108.6</ele>
        <time>2022-07-27T07:52:05Z</time>
      </trkpt>
      <trkpt lat="49.79298" lon="2.35895">
        <ele>108.6</ele>
        <time>2022-07-27T07:52:06Z</time>
      </trkpt>
      <trkpt lat="49.79298" lon="2.35893">
        <ele>108.6</ele>
        <time>2022-07-27T07:52:07Z</time>
      </trkpt>
      <trkpt lat="49.79298" lon="2.35891">
        <ele>108.5</ele>
        <time>2022-07-27T07:52:08Z</time>
      </trkpt>
      <trkpt lat="49.79299" lon="2.3589">
        <ele>108.5</ele>
        <time>2022-07-27T07:52:09Z</time>
      </trkpt>
      <trkpt lat="49.79299" lon="2.35888">
        <ele>108.5</ele>
        <time>2022-07-27T07:52:10Z</time>
      </trkpt>
      <trkpt lat="49.79299" lon="2.35887">
        <ele>108.5</ele>
        <time>2022-07-27T07:52:11Z</time>
      </trkpt>
      <trkpt lat="49.793" lon="2.35885">
        <ele>108.5</ele>
        <time>2022-07-27T07:52:12Z</time>
      </trkpt>
      <trkpt lat="49.79301" lon="2.35882">
        <ele>108.5</ele>
        <time>2022-07-27T07:52:13Z</time>
      </trkpt>
      <trkpt lat="49.79301" lon="2.35881">
        <ele>108.5</ele>
        <time>2022-07-27T07:52:14Z</time>
      </trkpt>
      <trkpt lat="49.79301" lon="2.35879">
        <ele>108.4</ele>
        <time>2022-07-27T07:52:15Z</time>
      </trkpt>
      <trkpt lat="49.79302" lon="2.35877">
        <ele>108.4</ele>
        <time>2022-07-27T07:52:16Z</time>
      </trkpt>
      <trkpt lat="49.79302" lon="2.35876">
        <ele>108.4</ele>
        <time>2022-07-27T07:52:17Z</time>
      </trkpt>
      <trkpt lat="49.79302" lon="2.35874">
        <ele>108.4</ele>
        <time>2022-07-27T07:52:18Z</time>
      </trkpt>
      <trkpt lat="49.79302" lon="2.35873">
        <ele>108.4</ele>
        <time>2022-07-27T07:52:19Z</time>
      </trkpt>
      <trkpt lat="49.79303" lon="2.35871">
        <ele>108.4</ele>
        <time>2022-07-27T07:52:20Z</time>
      </trkpt>
      <trkpt lat="49.79303" lon="2.35869">
        <ele>108.4</ele>
        <time>2022-07-27T07:52:21Z</time>
      </trkpt>
      <trkpt lat="49.79303" lon="2.35868">
        <ele>108.4</ele>
        <time>2022-07-27T07:52:22Z</time>
      </trkpt>
      <trkpt lat="49.79303" lon="2.35866">
        <ele>108.4</ele>
        <time>2022-07-27T07:52:23Z</time>
      </trkpt>
      <trkpt lat="49.79304" lon="2.35864">
        <ele>108.3</ele>
        <time>2022-07-27T07:52:24Z</time>
      </trkpt>
      <trkpt lat="49.79304" lon="2.35862">
        <ele>108.3</ele>
        <time>2022-07-27T07:52:25Z</time>
      </trkpt>
      <trkpt lat="49.79305" lon="2.3586">
        <ele>108.3</ele>
        <time>2022-07-27T07:52:26Z</time>
      </trkpt>
      <trkpt lat="49.79305" lon="2.35859">
        <ele>108.3</ele>
        <time>2022-07-27T07:52:27Z</time>
      </trkpt>
      <trkpt lat="49.79305" lon="2.35858">
        <ele>108.3</ele>
        <time>2022-07-27T07:52:28Z</time>
      </trkpt>
      <trkpt lat="49.79305" lon="2.35856">
        <ele>108.3</ele>
        <time>2022-07-27T07:52:29Z</time>
      </trkpt>
      <trkpt lat="49.79306" lon="2.35855">
        <ele>108.3</ele>
        <time>2022-07-27T07:52:30Z</time>
      </trkpt>
      <trkpt lat="49.79306" lon="2.35853">
        <ele>108.3</ele>
        <time>2022-07-27T07:52:31Z</time>
      </trkpt>
      <trkpt lat="49.79306" lon="2.35852">
        <ele>108.3</ele>
        <time>2022-07-27T07:52:32Z</time>
      </trkpt>
      <trkpt lat="49.79307" lon="2.35851">
        <ele>108.2</ele>
        <time>2022-07-27T07:52:33Z</time>
      </trkpt>
      <trkpt lat="49.79308" lon="2.35849">
        <ele>108.2</ele>
        <time>2022-07-27T07:52:34Z</time>
      </trkpt>
      <trkpt lat="49.79308" lon="2.35848">
        <ele>108.2</ele>
        <time>2022-07-27T07:52:35Z</time>
      </trkpt>
      <trkpt lat="49.79309" lon="2.35846">
        <ele>108.2</ele>
        <time>2022-07-27T07:52:36Z</time>
      </trkpt>
      <trkpt lat="49.79309" lon="2.35844">
        <ele>108.2</ele>
        <time>2022-07-27T07:52:37Z</time>
      </trkpt>
      <trkpt lat="49.79309" lon="2.35843">
        <ele>108.1</ele>
        <time>2022-07-27T07:52:38Z</time>
      </trkpt>
      <trkpt lat="49.7931" lon="2.35841">
        <ele>108.1</ele>
        <time>2022-07-27T07:52:39Z</time>
      </trkpt>
      <trkpt lat="49.7931" lon="2.3584">
        <ele>108.1</ele>
        <time>2022-07-27T07:52:40Z</time>
      </trkpt>
      <trkpt lat="49.79311" lon="2.35838">
        <ele>108.1</ele>
        <time>2022-07-27T07:52:41Z</time>
      </trkpt>
      <trkpt lat="49.79311" lon="2.35837">
        <ele>108.1</ele>
        <time>2022-07-27T07:52:42Z</time>
      </trkpt>
      <trkpt lat="49.79312" lon="2.35835">
        <ele>108.1</ele>
        <time>2022-07-27T07:52:43Z</time>
      </trkpt>
      <trkpt lat="49.79312" lon="2.35833">
        <ele>108</ele>
        <time>2022-07-27T07:52:44Z</time>
      </trkpt>
      <trkpt lat="49.79313" lon="2.35831">
        <ele>108</ele>
        <time>2022-07-27T07:52:45Z</time>
      </trkpt>
      <trkpt lat="49.79313" lon="2.3583">
        <ele>108</ele>
        <time>2022-07-27T07:52:46Z</time>
      </trkpt>
      <trkpt lat="49.79314" lon="2.35829">
        <ele>108</ele>
        <time>2022-07-27T07:52:47Z</time>
      </trkpt>
      <trkpt lat="49.79314" lon="2.35827">
        <ele>108</ele>
        <time>2022-07-27T07:52:48Z</time>
      </trkpt>
      <trkpt lat="49.79314" lon="2.35826">
        <ele>108</ele>
        <time>2022-07-27T07:52:49Z</time>
      </trkpt>
      <trkpt lat="49.79315" lon="2.35824">
        <ele>108</ele>
        <time>2022-07-27T07:52:50Z</time>
      </trkpt>
      <trkpt lat="49.79315" lon="2.35823">
        <ele>107.9</ele>
        <time>2022-07-27T07:52:51Z</time>
      </trkpt>
      <trkpt lat="49.79316" lon="2.35821">
        <ele>107.9</ele>
        <time>2022-07-27T07:52:52Z</time>
      </trkpt>
      <trkpt lat="49.79316" lon="2.3582">
        <ele>107.9</ele>
        <time>2022-07-27T07:52:53Z</time>
      </trkpt>
      <trkpt lat="49.79317" lon="2.35818">
        <ele>107.9</ele>
        <time>2022-07-27T07:52:54Z</time>
      </trkpt>
      <trkpt lat="49.79318" lon="2.35817">
        <ele>107.9</ele>
        <time>2022-07-27T07:52:55Z</time>
      </trkpt>
      <trkpt lat="49.79318" lon="2.35817">
        <ele>107.9</ele>
        <time>2022-07-27T07:52:56Z</time>
      </trkpt>
      <trkpt lat="49.79319" lon="2.35815">
        <ele>107.8</ele>
        <time>2022-07-27T07:52:57Z</time>
      </trkpt>
      <trkpt lat="49.79319" lon="2.35814">
        <ele>107.8</ele>
        <time>2022-07-27T07:52:58Z</time>
      </trkpt>
      <trkpt lat="49.7932" lon="2.35813">
        <ele>107.8</ele>
        <time>2022-07-27T07:52:59Z</time>
      </trkpt>
      <trkpt lat="49.7932" lon="2.35813">
        <ele>107.8</ele>
        <time>2022-07-27T07:53:00Z</time>
      </trkpt>
      <trkpt lat="49.79321" lon="2.35812">
        <ele>107.8</ele>
        <time>2022-07-27T07:53:01Z</time>
      </trkpt>
      <trkpt lat="49.79321" lon="2.35812">
        <ele>107.8</ele>
        <time>2022-07-27T07:53:02Z</time>
      </trkpt>
      <trkpt lat="49.79322" lon="2.35811">
        <ele>107.7</ele>
        <time>2022-07-27T07:53:03Z</time>
      </trkpt>
      <trkpt lat="49.79322" lon="2.3581">
        <ele>107.7</ele>
        <time>2022-07-27T07:53:04Z</time>
      </trkpt>
      <trkpt lat="49.79323" lon="2.35809">
        <ele>107.2</ele>
        <time>2022-07-27T07:53:05Z</time>
      </trkpt>
      <trkpt lat="49.79323" lon="2.35808">
        <ele>107.1</ele>
        <time>2022-07-27T07:53:06Z</time>
      </trkpt>
      <trkpt lat="49.79322" lon="2.35807">
        <ele>107.1</ele>
        <time>2022-07-27T07:53:07Z</time>
      </trkpt>
      <trkpt lat="49.79322" lon="2.35807">
        <ele>107.1</ele>
        <time>2022-07-27T07:53:08Z</time>
      </trkpt>
      <trkpt lat="49.79321" lon="2.35806">
        <ele>107.1</ele>
        <time>2022-07-27T07:53:09Z</time>
      </trkpt>
      <trkpt lat="49.79321" lon="2.35806">
        <ele>107.1</ele>
        <time>2022-07-27T07:53:10Z</time>
      </trkpt>
      <trkpt lat="49.79321" lon="2.35806">
        <ele>107.1</ele>
        <time>2022-07-27T07:53:11Z</time>
      </trkpt>
      <trkpt lat="49.79321" lon="2.35806">
        <ele>107.1</ele>
        <time>2022-07-27T07:53:12Z</time>
      </trkpt>
      <trkpt lat="49.79321" lon="2.35806">
        <ele>107.1</ele>
        <time>2022-07-27T07:53:13Z</time>
      </trkpt>
      <trkpt lat="49.79321" lon="2.35806">
        <ele>107.1</ele>
        <time>2022-07-27T07:53:14Z</time>
      </trkpt>
      <trkpt lat="49.79321" lon="2.35807">
        <ele>107.1</ele>
        <time>2022-07-27T07:53:15Z</time>
      </trkpt>
      <trkpt lat="49.79321" lon="2.35807">
        <ele>107.1</ele>
        <time>2022-07-27T07:53:16Z</time>
      </trkpt>
      <trkpt lat="49.79321" lon="2.35807">
        <ele>107.1</ele>
        <time>2022-07-27T07:53:17Z</time>
      </trkpt>
      <trkpt lat="49.79321" lon="2.35807">
        <ele>107.1</ele>
        <time>2022-07-27T07:53:18Z</time>
      </trkpt>
      <trkpt lat="49.79321" lon="2.35807">
        <ele>107.1</ele>
        <time>2022-07-27T07:53:19Z</time>
      </trkpt>
      <trkpt lat="49.79321" lon="2.35807">
        <ele>107</ele>
        <time>2022-07-27T07:53:20Z</time>
      </trkpt>
      <trkpt lat="49.7932" lon="2.35807">
        <ele>107</ele>
        <time>2022-07-27T07:53:21Z</time>
      </trkpt>
      <trkpt lat="49.7932" lon="2.35807">
        <ele>107</ele>
        <time>2022-07-27T07:53:22Z</time>
      </trkpt>
      <trkpt lat="49.7932" lon="2.35807">
        <ele>107</ele>
        <time>2022-07-27T07:53:23Z</time>
      </trkpt>
      <trkpt lat="49.7932" lon="2.35807">
        <ele>107</ele>
        <time>2022-07-27T07:53:24Z</time>
      </trkpt>
      <trkpt lat="49.7932" lon="2.35807">
        <ele>107</ele>
        <time>2022-07-27T07:53:25Z</time>
      </trkpt>
      <trkpt lat="49.7932" lon="2.35807">
        <ele>107</ele>
        <time>2022-07-27T07:53:26Z</time>
      </trkpt>
      <trkpt lat="49.7932" lon="2.35808">
        <ele>107</ele>
        <time>2022-07-27T07:53:27Z</time>
      </trkpt>
      <trkpt lat="49.7932" lon="2.35808">
        <ele>107</ele>
        <time>2022-07-27T07:53:28Z</time>
      </trkpt>
      <trkpt lat="49.7932" lon="2.35808">
        <ele>107</ele>
        <time>2022-07-27T07:53:29Z</time>
      </trkpt>
      <trkpt lat="49.7932" lon="2.35808">
        <ele>107</ele>
        <time>2022-07-27T07:53:30Z</time>
      </trkpt>
      <trkpt lat="49.7932" lon="2.35808">
        <ele>107</ele>
        <time>2022-07-27T07:53:31Z</time>
      </trkpt>
      <trkpt lat="49.7932" lon="2.35808">
        <ele>107</ele>
        <time>2022-07-27T07:53:32Z</time>
      </trkpt>
      <trkpt lat="49.7932" lon="2.35808">
        <ele>107</ele>
        <time>2022-07-27T07:53:33Z</time>
      </trkpt>
      <trkpt lat="49.7932" lon="2.35808">
        <ele>107</ele>
        <time>2022-07-27T07:53:34Z</time>
      </trkpt>
      <trkpt lat="49.7932" lon="2.35808">
        <ele>107</ele>
        <time>2022-07-27T07:53:35Z</time>
      </trkpt>
      <trkpt lat="49.7932" lon="2.35808">
        <ele>107</ele>
        <time>2022-07-27T07:53:36Z</time>
      </trkpt>
      <trkpt lat="49.7932" lon="2.35808">
        <ele>107</ele>
        <time>2022-07-27T07:53:37Z</time>
      </trkpt>
      <trkpt lat="49.7932" lon="2.35808">
        <ele>107</ele>
        <time>2022-07-27T07:53:38Z</time>
      </trkpt>
      <trkpt lat="49.7932" lon="2.35809">
        <ele>107</ele>
        <time>2022-07-27T07:53:39Z</time>
      </trkpt>
      <trkpt lat="49.7932" lon="2.35809">
        <ele>107</ele>
        <time>2022-07-27T07:53:40Z</time>
      </trkpt>
      <trkpt lat="49.7932" lon="2.35809">
        <ele>107</ele>
        <time>2022-07-27T07:53:41Z</time>
      </trkpt>
      <trkpt lat="49.7932" lon="2.35809">
        <ele>107</ele>
        <time>2022-07-27T07:53:42Z</time>
      </trkpt>
      <trkpt lat="49.7932" lon="2.35809">
        <ele>107</ele>
        <time>2022-07-27T07:53:43Z</time>
      </trkpt>
      <trkpt lat="49.7932" lon="2.35809">
        <ele>107</ele>
        <time>2022-07-27T07:53:44Z</time>
      </trkpt>
      <trkpt lat="49.7932" lon="2.35809">
        <ele>107</ele>
        <time>2022-07-27T07:53:45Z</time>
      </trkpt>
      <trkpt lat="49.7932" lon="2.35809">
        <ele>107</ele>
        <time>2022-07-27T07:53:46Z</time>
      </trkpt>
      <trkpt lat="49.7932" lon="2.35809">
        <ele>107</ele>
        <time>2022-07-27T07:53:47Z</time>
      </trkpt>
      <trkpt lat="49.7932" lon="2.35809">
        <ele>107</ele>
        <time>2022-07-27T07:53:48Z</time>
      </trkpt>
      <trkpt lat="49.7932" lon="2.35809">
        <ele>107</ele>
        <time>2022-07-27T07:53:49Z</time>
      </trkpt>
      <trkpt lat="49.7932" lon="2.35809">
        <ele>107</ele>
        <time>2022-07-27T07:53:50Z</time>
      </trkpt>
      <trkpt lat="49.7932" lon="2.3581">
        <ele>107</ele>
        <time>2022-07-27T07:53:51Z</time>
      </trkpt>
      <trkpt lat="49.7932" lon="2.3581">
        <ele>107</ele>
        <time>2022-07-27T07:53:52Z</time>
      </trkpt>
      <trkpt lat="49.7932" lon="2.3581">
        <ele>107</ele>
        <time>2022-07-27T07:53:53Z</time>
      </trkpt>
      <trkpt lat="49.7932" lon="2.3581">
        <ele>107</ele>
        <time>2022-07-27T07:53:54Z</time>
      </trkpt>
      <trkpt lat="49.7932" lon="2.3581">
        <ele>107</ele>
        <time>2022-07-27T07:53:55Z</time>
      </trkpt>
      <trkpt lat="49.7932" lon="2.3581">
        <ele>107</ele>
        <time>2022-07-27T07:53:56Z</time>
      </trkpt>
      <trkpt lat="49.7932" lon="2.3581">
        <ele>107</ele>
        <time>2022-07-27T07:53:57Z</time>
      </trkpt>
      <trkpt lat="49.79319" lon="2.3581">
        <ele>107</ele>
        <time>2022-07-27T07:53:58Z</time>
      </trkpt>
      <trkpt lat="49.79319" lon="2.3581">
        <ele>107</ele>
        <time>2022-07-27T07:53:59Z</time>
      </trkpt>
      <trkpt lat="49.79319" lon="2.3581">
        <ele>106.9</ele>
        <time>2022-07-27T07:54:00Z</time>
      </trkpt>
      <trkpt lat="49.79319" lon="2.3581">
        <ele>106.9</ele>
        <time>2022-07-27T07:54:01Z</time>
      </trkpt>
      <trkpt lat="49.79319" lon="2.3581">
        <ele>106.9</ele>
        <time>2022-07-27T07:54:02Z</time>
      </trkpt>
      <trkpt lat="49.79319" lon="2.35811">
        <ele>106.9</ele>
        <time>2022-07-27T07:54:03Z</time>
      </trkpt>
      <trkpt lat="49.79319" lon="2.35811">
        <ele>106.9</ele>
        <time>2022-07-27T07:54:04Z</time>
      </trkpt>
      <trkpt lat="49.79319" lon="2.35811">
        <ele>106.9</ele>
        <time>2022-07-27T07:54:05Z</time>
      </trkpt>
      <trkpt lat="49.79319" lon="2.35811">
        <ele>106.9</ele>
        <time>2022-07-27T07:54:06Z</time>
      </trkpt>
      <trkpt lat="49.79319" lon="2.35811">
        <ele>106.9</ele>
        <time>2022-07-27T07:54:07Z</time>
      </trkpt>
      <trkpt lat="49.79319" lon="2.35811">
        <ele>106.9</ele>
        <time>2022-07-27T07:54:08Z</time>
      </trkpt>
      <trkpt lat="49.79319" lon="2.35811">
        <ele>106.9</ele>
        <time>2022-07-27T07:54:09Z</time>
      </trkpt>
      <trkpt lat="49.79319" lon="2.35811">
        <ele>106.9</ele>
        <time>2022-07-27T07:54:10Z</time>
      </trkpt>
      <trkpt lat="49.79319" lon="2.35811">
        <ele>106.9</ele>
        <time>2022-07-27T07:54:11Z</time>
      </trkpt>
      <trkpt lat="49.79319" lon="2.35811">
        <ele>106.9</ele>
        <time>2022-07-27T07:54:12Z</time>
      </trkpt>
      <trkpt lat="49.79319" lon="2.35811">
        <ele>106.9</ele>
        <time>2022-07-27T07:54:13Z</time>
      </trkpt>
      <trkpt lat="49.79319" lon="2.35811">
        <ele>106.9</ele>
        <time>2022-07-27T07:54:14Z</time>
      </trkpt>
      <trkpt lat="49.79319" lon="2.35812">
        <ele>106.9</ele>
        <time>2022-07-27T07:54:15Z</time>
      </trkpt>
      <trkpt lat="49.79319" lon="2.35812">
        <ele>106.9</ele>
        <time>2022-07-27T07:54:16Z</time>
      </trkpt>
      <trkpt lat="49.79319" lon="2.35812">
        <ele>106.9</ele>
        <time>2022-07-27T07:54:17Z</time>
      </trkpt>
      <trkpt lat="49.79319" lon="2.35812">
        <ele>106.9</ele>
        <time>2022-07-27T07:54:18Z</time>
      </trkpt>
      <trkpt lat="49.79319" lon="2.35812">
        <ele>106.9</ele>
        <time>2022-07-27T07:54:19Z</time>
      </trkpt>
      <trkpt lat="49.79319" lon="2.35812">
        <ele>106.9</ele>
        <time>2022-07-27T07:54:20Z</time>
      </trkpt>
      <trkpt lat="49.79319" lon="2.35812">
        <ele>106.9</ele>
        <time>2022-07-27T07:54:21Z</time>
      </trkpt>
      <trkpt lat="49.79319" lon="2.35812">
        <ele>106.9</ele>
        <time>2022-07-27T07:54:22Z</time>
      </trkpt>
      <trkpt lat="49.79319" lon="2.35812">
        <ele>106.9</ele>
        <time>2022-07-27T07:54:23Z</time>
      </trkpt>
      <trkpt lat="49.79319" lon="2.35812">
        <ele>106.9</ele>
        <time>2022-07-27T07:54:24Z</time>
      </trkpt>
      <trkpt lat="49.79319" lon="2.35812">
        <ele>106.9</ele>
        <time>2022-07-27T07:54:25Z</time>
      </trkpt>
      <trkpt lat="49.79319" lon="2.35812">
        <ele>106.9</ele>
        <time>2022-07-27T07:54:26Z</time>
      </trkpt>
      <trkpt lat="49.79319" lon="2.35812">
        <ele>106.9</ele>
        <time>2022-07-27T07:54:27Z</time>
      </trkpt>
      <trkpt lat="49.79319" lon="2.35813">
        <ele>106.9</ele>
        <time>2022-07-27T07:54:28Z</time>
      </trkpt>
      <trkpt lat="49.79318" lon="2.35813">
        <ele>106.8</ele>
        <time>2022-07-27T07:54:29Z</time>
      </trkpt>
      <trkpt lat="49.79317" lon="2.35812">
        <ele>106.8</ele>
        <time>2022-07-27T07:54:30Z</time>
      </trkpt>
      <trkpt lat="49.79317" lon="2.35811">
        <ele>106.8</ele>
        <time>2022-07-27T07:54:31Z</time>
      </trkpt>
      <trkpt lat="49.79317" lon="2.3581">
        <ele>106.8</ele>
        <time>2022-07-27T07:54:32Z</time>
      </trkpt>
      <trkpt lat="49.79318" lon="2.3581">
        <ele>106.7</ele>
        <time>2022-07-27T07:54:33Z</time>
      </trkpt>
      <trkpt lat="49.79319" lon="2.35811">
        <ele>106.7</ele>
        <time>2022-07-27T07:54:34Z</time>
      </trkpt>
      <trkpt lat="49.7932" lon="2.35812">
        <ele>106.7</ele>
        <time>2022-07-27T07:54:35Z</time>
      </trkpt>
      <trkpt lat="49.7932" lon="2.35813">
        <ele>106.6</ele>
        <time>2022-07-27T07:54:36Z</time>
      </trkpt>
      <trkpt lat="49.79319" lon="2.35813">
        <ele>106.6</ele>
        <time>2022-07-27T07:54:37Z</time>
      </trkpt>
      <trkpt lat="49.79319" lon="2.35814">
        <ele>106.6</ele>
        <time>2022-07-27T07:54:38Z</time>
      </trkpt>
      <trkpt lat="49.79319" lon="2.35814">
        <ele>106.6</ele>
        <time>2022-07-27T07:54:39Z</time>
      </trkpt>
      <trkpt lat="49.79319" lon="2.35815">
        <ele>106.6</ele>
        <time>2022-07-27T07:54:40Z</time>
      </trkpt>
      <trkpt lat="49.79319" lon="2.35815">
        <ele>106.6</ele>
        <time>2022-07-27T07:54:41Z</time>
      </trkpt>
      <trkpt lat="49.79319" lon="2.35814">
        <ele>106.6</ele>
        <time>2022-07-27T07:54:42Z</time>
      </trkpt>
      <trkpt lat="49.79319" lon="2.35814">
        <ele>106.6</ele>
        <time>2022-07-27T07:54:43Z</time>
      </trkpt>
      <trkpt lat="49.79319" lon="2.35814">
        <ele>106.6</ele>
        <time>2022-07-27T07:54:44Z</time>
      </trkpt>
      <trkpt lat="49.79319" lon="2.35814">
        <ele>106.6</ele>
        <time>2022-07-27T07:54:45Z</time>
      </trkpt>
      <trkpt lat="49.79319" lon="2.35814">
        <ele>106.6</ele>
        <time>2022-07-27T07:54:46Z</time>
      </trkpt>
      <trkpt lat="49.79319" lon="2.35814">
        <ele>106.6</ele>
        <time>2022-07-27T07:54:47Z</time>
      </trkpt>
      <trkpt lat="49.79319" lon="2.35814">
        <ele>106.6</ele>
        <time>2022-07-27T07:54:48Z</time>
      </trkpt>
      <trkpt lat="49.79319" lon="2.35814">
        <ele>106.6</ele>
        <time>2022-07-27T07:54:49Z</time>
      </trkpt>
      <trkpt lat="49.79319" lon="2.35814">
        <ele>106.6</ele>
        <time>2022-07-27T07:54:50Z</time>
      </trkpt>
      <trkpt lat="49.79319" lon="2.35814">
        <ele>106.6</ele>
        <time>2022-07-27T07:54:51Z</time>
      </trkpt>
      <trkpt lat="49.79319" lon="2.35814">
        <ele>106.6</ele>
        <time>2022-07-27T07:54:52Z</time>
      </trkpt>
      <trkpt lat="49.79319" lon="2.35814">
        <ele>106.6</ele>
        <time>2022-07-27T07:54:53Z</time>
      </trkpt>
      <trkpt lat="49.79319" lon="2.35814">
        <ele>106.6</ele>
        <time>2022-07-27T07:54:54Z</time>
      </trkpt>
      <trkpt lat="49.79319" lon="2.35814">
        <ele>106.6</ele>
        <time>2022-07-27T07:54:55Z</time>
      </trkpt>
      <trkpt lat="49.79319" lon="2.35814">
        <ele>106.6</ele>
        <time>2022-07-27T07:54:56Z</time>
      </trkpt>
      <trkpt lat="49.79319" lon="2.35814">
        <ele>106.6</ele>
        <time>2022-07-27T07:54:57Z</time>
      </trkpt>
      <trkpt lat="49.79319" lon="2.35814">
        <ele>106.6</ele>
        <time>2022-07-27T07:54:58Z</time>
      </trkpt>
      <trkpt lat="49.79319" lon="2.35814">
        <ele>106.6</ele>
        <time>2022-07-27T07:54:59Z</time>
      </trkpt>
      <trkpt lat="49.79319" lon="2.35813">
        <ele>106.5</ele>
        <time>2022-07-27T07:55:00Z</time>
      </trkpt>
      <trkpt lat="49.79319" lon="2.35813">
        <ele>106.5</ele>
        <time>2022-07-27T07:55:01Z</time>
      </trkpt>
      <trkpt lat="49.7932" lon="2.35812">
        <ele>106.5</ele>
        <time>2022-07-27T07:55:02Z</time>
      </trkpt>
      <trkpt lat="49.7932" lon="2.35811">
        <ele>106.5</ele>
        <time>2022-07-27T07:55:03Z</time>
      </trkpt>
      <trkpt lat="49.7932" lon="2.3581">
        <ele>106.4</ele>
        <time>2022-07-27T07:55:04Z</time>
      </trkpt>
      <trkpt lat="49.7932" lon="2.35808">
        <ele>106.4</ele>
        <time>2022-07-27T07:55:05Z</time>
      </trkpt>
      <trkpt lat="49.79321" lon="2.35807">
        <ele>106.3</ele>
        <time>2022-07-27T07:55:06Z</time>
      </trkpt>
      <trkpt lat="49.79321" lon="2.35805">
        <ele>106.3</ele>
        <time>2022-07-27T07:55:07Z</time>
      </trkpt>
      <trkpt lat="49.79321" lon="2.35804">
        <ele>106.2</ele>
        <time>2022-07-27T07:55:08Z</time>
      </trkpt>
      <trkpt lat="49.79322" lon="2.35803">
        <ele>106.2</ele>
        <time>2022-07-27T07:55:09Z</time>
      </trkpt>
      <trkpt lat="49.79322" lon="2.35802">
        <ele>106.1</ele>
        <time>2022-07-27T07:55:10Z</time>
      </trkpt>
      <trkpt lat="49.79323" lon="2.358">
        <ele>106</ele>
        <time>2022-07-27T07:55:11Z</time>
      </trkpt>
      <trkpt lat="49.79323" lon="2.35798">
        <ele>106</ele>
        <time>2022-07-27T07:55:12Z</time>
      </trkpt>
      <trkpt lat="49.79323" lon="2.35797">
        <ele>105.9</ele>
        <time>2022-07-27T07:55:13Z</time>
      </trkpt>
      <trkpt lat="49.79323" lon="2.35795">
        <ele>105.9</ele>
        <time>2022-07-27T07:55:14Z</time>
      </trkpt>
      <trkpt lat="49.79323" lon="2.35793">
        <ele>105.8</ele>
        <time>2022-07-27T07:55:15Z</time>
      </trkpt>
      <trkpt lat="49.79324" lon="2.35792">
        <ele>105.8</ele>
        <time>2022-07-27T07:55:16Z</time>
      </trkpt>
      <trkpt lat="49.79324" lon="2.3579">
        <ele>105.7</ele>
        <time>2022-07-27T07:55:17Z</time>
      </trkpt>
      <trkpt lat="49.79324" lon="2.35789">
        <ele>105.6</ele>
        <time>2022-07-27T07:55:18Z</time>
      </trkpt>
      <trkpt lat="49.79324" lon="2.35787">
        <ele>105.5</ele>
        <time>2022-07-27T07:55:19Z</time>
      </trkpt>
      <trkpt lat="49.79325" lon="2.35786">
        <ele>105.5</ele>
        <time>2022-07-27T07:55:20Z</time>
      </trkpt>
      <trkpt lat="49.79325" lon="2.35784">
        <ele>105.4</ele>
        <time>2022-07-27T07:55:21Z</time>
      </trkpt>
      <trkpt lat="49.79326" lon="2.35783">
        <ele>105.4</ele>
        <time>2022-07-27T07:55:22Z</time>
      </trkpt>
      <trkpt lat="49.79326" lon="2.35781">
        <ele>105.3</ele>
        <time>2022-07-27T07:55:23Z</time>
      </trkpt>
      <trkpt lat="49.79327" lon="2.35778">
        <ele>105.2</ele>
        <time>2022-07-27T07:55:24Z</time>
      </trkpt>
      <trkpt lat="49.79327" lon="2.35777">
        <ele>105.1</ele>
        <time>2022-07-27T07:55:25Z</time>
      </trkpt>
      <trkpt lat="49.79327" lon="2.35776">
        <ele>105</ele>
        <time>2022-07-27T07:55:26Z</time>
      </trkpt>
      <trkpt lat="49.79327" lon="2.35774">
        <ele>105</ele>
        <time>2022-07-27T07:55:27Z</time>
      </trkpt>
      <trkpt lat="49.79327" lon="2.35772">
        <ele>104.9</ele>
        <time>2022-07-27T07:55:28Z</time>
      </trkpt>
      <trkpt lat="49.79327" lon="2.35769">
        <ele>104.8</ele>
        <time>2022-07-27T07:55:29Z</time>
      </trkpt>
      <trkpt lat="49.79327" lon="2.35766">
        <ele>104.7</ele>
        <time>2022-07-27T07:55:30Z</time>
      </trkpt>
      <trkpt lat="49.79327" lon="2.35763">
        <ele>104.5</ele>
        <time>2022-07-27T07:55:31Z</time>
      </trkpt>
      <trkpt lat="49.79326" lon="2.35762">
        <ele>104.5</ele>
        <time>2022-07-27T07:55:32Z</time>
      </trkpt>
      <trkpt lat="49.79326" lon="2.35761">
        <ele>104.4</ele>
        <time>2022-07-27T07:55:33Z</time>
      </trkpt>
      <trkpt lat="49.79326" lon="2.35759">
        <ele>104.4</ele>
        <time>2022-07-27T07:55:34Z</time>
      </trkpt>
      <trkpt lat="49.79326" lon="2.35757">
        <ele>104.3</ele>
        <time>2022-07-27T07:55:35Z</time>
      </trkpt>
      <trkpt lat="49.79326" lon="2.35756">
        <ele>104.3</ele>
        <time>2022-07-27T07:55:36Z</time>
      </trkpt>
      <trkpt lat="49.79326" lon="2.35754">
        <ele>104.2</ele>
        <time>2022-07-27T07:55:37Z</time>
      </trkpt>
      <trkpt lat="49.79326" lon="2.35752">
        <ele>104.1</ele>
        <time>2022-07-27T07:55:38Z</time>
      </trkpt>
      <trkpt lat="49.79326" lon="2.35749">
        <ele>104</ele>
        <time>2022-07-27T07:55:39Z</time>
      </trkpt>
      <trkpt lat="49.79326" lon="2.35748">
        <ele>104</ele>
        <time>2022-07-27T07:55:40Z</time>
      </trkpt>
      <trkpt lat="49.79326" lon="2.35746">
        <ele>103.9</ele>
        <time>2022-07-27T07:55:41Z</time>
      </trkpt>
      <trkpt lat="49.79326" lon="2.35745">
        <ele>103.9</ele>
        <time>2022-07-27T07:55:42Z</time>
      </trkpt>
      <trkpt lat="49.79326" lon="2.35743">
        <ele>103.8</ele>
        <time>2022-07-27T07:55:43Z</time>
      </trkpt>
      <trkpt lat="49.79326" lon="2.35741">
        <ele>103.7</ele>
        <time>2022-07-27T07:55:44Z</time>
      </trkpt>
      <trkpt lat="49.79326" lon="2.3574">
        <ele>103.7</ele>
        <time>2022-07-27T07:55:45Z</time>
      </trkpt>
      <trkpt lat="49.79326" lon="2.35739">
        <ele>103.6</ele>
        <time>2022-07-27T07:55:46Z</time>
      </trkpt>
      <trkpt lat="49.79326" lon="2.35738">
        <ele>103.6</ele>
        <time>2022-07-27T07:55:47Z</time>
      </trkpt>
      <trkpt lat="49.79326" lon="2.35736">
        <ele>103.6</ele>
        <time>2022-07-27T07:55:48Z</time>
      </trkpt>
      <trkpt lat="49.79325" lon="2.35735">
        <ele>103.5</ele>
        <time>2022-07-27T07:55:49Z</time>
      </trkpt>
      <trkpt lat="49.79325" lon="2.35733">
        <ele>103.5</ele>
        <time>2022-07-27T07:55:50Z</time>
      </trkpt>
      <trkpt lat="49.79325" lon="2.35732">
        <ele>103.4</ele>
        <time>2022-07-27T07:55:51Z</time>
      </trkpt>
      <trkpt lat="49.79325" lon="2.3573">
        <ele>103.4</ele>
        <time>2022-07-27T07:55:52Z</time>
      </trkpt>
      <trkpt lat="49.79324" lon="2.35729">
        <ele>103.3</ele>
        <time>2022-07-27T07:55:53Z</time>
      </trkpt>
      <trkpt lat="49.79324" lon="2.35727">
        <ele>103.3</ele>
        <time>2022-07-27T07:55:54Z</time>
      </trkpt>
      <trkpt lat="49.79324" lon="2.35726">
        <ele>103.2</ele>
        <time>2022-07-27T07:55:55Z</time>
      </trkpt>
      <trkpt lat="49.79323" lon="2.35724">
        <ele>103.2</ele>
        <time>2022-07-27T07:55:56Z</time>
      </trkpt>
      <trkpt lat="49.79323" lon="2.35722">
        <ele>103.1</ele>
        <time>2022-07-27T07:55:57Z</time>
      </trkpt>
      <trkpt lat="49.79322" lon="2.35721">
        <ele>103.1</ele>
        <time>2022-07-27T07:55:58Z</time>
      </trkpt>
      <trkpt lat="49.79321" lon="2.35719">
        <ele>103</ele>
        <time>2022-07-27T07:55:59Z</time>
      </trkpt>
      <trkpt lat="49.79321" lon="2.35716">
        <ele>102.9</ele>
        <time>2022-07-27T07:56:00Z</time>
      </trkpt>
      <trkpt lat="49.7932" lon="2.35715">
        <ele>102.9</ele>
        <time>2022-07-27T07:56:01Z</time>
      </trkpt>
      <trkpt lat="49.7932" lon="2.35714">
        <ele>102.9</ele>
        <time>2022-07-27T07:56:02Z</time>
      </trkpt>
      <trkpt lat="49.79319" lon="2.35713">
        <ele>102.8</ele>
        <time>2022-07-27T07:56:03Z</time>
      </trkpt>
      <trkpt lat="49.79319" lon="2.35711">
        <ele>102.8</ele>
        <time>2022-07-27T07:56:04Z</time>
      </trkpt>
      <trkpt lat="49.79318" lon="2.3571">
        <ele>102.7</ele>
        <time>2022-07-27T07:56:05Z</time>
      </trkpt>
      <trkpt lat="49.79318" lon="2.35709">
        <ele>102.7</ele>
        <time>2022-07-27T07:56:06Z</time>
      </trkpt>
      <trkpt lat="49.79317" lon="2.35707">
        <ele>102.7</ele>
        <time>2022-07-27T07:56:07Z</time>
      </trkpt>
      <trkpt lat="49.79317" lon="2.35705">
        <ele>102.6</ele>
        <time>2022-07-27T07:56:08Z</time>
      </trkpt>
      <trkpt lat="49.79315" lon="2.35703">
        <ele>102.5</ele>
        <time>2022-07-27T07:56:09Z</time>
      </trkpt>
      <trkpt lat="49.79315" lon="2.35702">
        <ele>102.5</ele>
        <time>2022-07-27T07:56:10Z</time>
      </trkpt>
      <trkpt lat="49.79314" lon="2.357">
        <ele>102.4</ele>
        <time>2022-07-27T07:56:11Z</time>
      </trkpt>
      <trkpt lat="49.79314" lon="2.35698">
        <ele>102.4</ele>
        <time>2022-07-27T07:56:12Z</time>
      </trkpt>
      <trkpt lat="49.79313" lon="2.35696">
        <ele>102.3</ele>
        <time>2022-07-27T07:56:13Z</time>
      </trkpt>
      <trkpt lat="49.79312" lon="2.35694">
        <ele>102.2</ele>
        <time>2022-07-27T07:56:14Z</time>
      </trkpt>
      <trkpt lat="49.79311" lon="2.35692">
        <ele>102.2</ele>
        <time>2022-07-27T07:56:15Z</time>
      </trkpt>
      <trkpt lat="49.79311" lon="2.35691">
        <ele>102.2</ele>
        <time>2022-07-27T07:56:16Z</time>
      </trkpt>
      <trkpt lat="49.7931" lon="2.3569">
        <ele>102.1</ele>
        <time>2022-07-27T07:56:17Z</time>
      </trkpt>
      <trkpt lat="49.79309" lon="2.35687">
        <ele>102</ele>
        <time>2022-07-27T07:56:18Z</time>
      </trkpt>
      <trkpt lat="49.79308" lon="2.35685">
        <ele>102</ele>
        <time>2022-07-27T07:56:19Z</time>
      </trkpt>
      <trkpt lat="49.79307" lon="2.35684">
        <ele>101.9</ele>
        <time>2022-07-27T07:56:20Z</time>
      </trkpt>
      <trkpt lat="49.79307" lon="2.35683">
        <ele>101.9</ele>
        <time>2022-07-27T07:56:21Z</time>
      </trkpt>
      <trkpt lat="49.79306" lon="2.3568">
        <ele>101.8</ele>
        <time>2022-07-27T07:56:22Z</time>
      </trkpt>
      <trkpt lat="49.79305" lon="2.35678">
        <ele>101.7</ele>
        <time>2022-07-27T07:56:23Z</time>
      </trkpt>
      <trkpt lat="49.79304" lon="2.35676">
        <ele>101.6</ele>
        <time>2022-07-27T07:56:24Z</time>
      </trkpt>
      <trkpt lat="49.79304" lon="2.35675">
        <ele>101.6</ele>
        <time>2022-07-27T07:56:25Z</time>
      </trkpt>
      <trkpt lat="49.79303" lon="2.35674">
        <ele>101.6</ele>
        <time>2022-07-27T07:56:26Z</time>
      </trkpt>
      <trkpt lat="49.79302" lon="2.35672">
        <ele>101.5</ele>
        <time>2022-07-27T07:56:27Z</time>
      </trkpt>
      <trkpt lat="49.79302" lon="2.3567">
        <ele>101.4</ele>
        <time>2022-07-27T07:56:28Z</time>
      </trkpt>
      <trkpt lat="49.79301" lon="2.35668">
        <ele>101.4</ele>
        <time>2022-07-27T07:56:29Z</time>
      </trkpt>
      <trkpt lat="49.793" lon="2.35666">
        <ele>101.3</ele>
        <time>2022-07-27T07:56:30Z</time>
      </trkpt>
      <trkpt lat="49.79299" lon="2.35664">
        <ele>101.2</ele>
        <time>2022-07-27T07:56:31Z</time>
      </trkpt>
      <trkpt lat="49.79299" lon="2.35663">
        <ele>101.1</ele>
        <time>2022-07-27T07:56:32Z</time>
      </trkpt>
      <trkpt lat="49.79298" lon="2.35662">
        <ele>101.1</ele>
        <time>2022-07-27T07:56:33Z</time>
      </trkpt>
      <trkpt lat="49.79297" lon="2.35659">
        <ele>101</ele>
        <time>2022-07-27T07:56:34Z</time>
      </trkpt>
      <trkpt lat="49.79297" lon="2.35658">
        <ele>100.9</ele>
        <time>2022-07-27T07:56:35Z</time>
      </trkpt>
      <trkpt lat="49.79296" lon="2.35656">
        <ele>100.9</ele>
        <time>2022-07-27T07:56:36Z</time>
      </trkpt>
      <trkpt lat="49.79295" lon="2.35653">
        <ele>100.7</ele>
        <time>2022-07-27T07:56:37Z</time>
      </trkpt>
      <trkpt lat="49.79295" lon="2.35652">
        <ele>100.7</ele>
        <time>2022-07-27T07:56:38Z</time>
      </trkpt>
      <trkpt lat="49.79295" lon="2.35651">
        <ele>100.6</ele>
        <time>2022-07-27T07:56:39Z</time>
      </trkpt>
      <trkpt lat="49.79294" lon="2.35648">
        <ele>100.5</ele>
        <time>2022-07-27T07:56:40Z</time>
      </trkpt>
      <trkpt lat="49.79293" lon="2.35647">
        <ele>100.5</ele>
        <time>2022-07-27T07:56:41Z</time>
      </trkpt>
      <trkpt lat="49.79293" lon="2.35646">
        <ele>100.4</ele>
        <time>2022-07-27T07:56:42Z</time>
      </trkpt>
      <trkpt lat="49.79292" lon="2.35644">
        <ele>100.3</ele>
        <time>2022-07-27T07:56:43Z</time>
      </trkpt>
      <trkpt lat="49.79291" lon="2.35642">
        <ele>100.2</ele>
        <time>2022-07-27T07:56:44Z</time>
      </trkpt>
      <trkpt lat="49.79291" lon="2.3564">
        <ele>100.2</ele>
        <time>2022-07-27T07:56:45Z</time>
      </trkpt>
      <trkpt lat="49.7929" lon="2.35638">
        <ele>100.1</ele>
        <time>2022-07-27T07:56:46Z</time>
      </trkpt>
      <trkpt lat="49.7929" lon="2.35637">
        <ele>100</ele>
        <time>2022-07-27T07:56:47Z</time>
      </trkpt>
      <trkpt lat="49.79289" lon="2.35635">
        <ele>100</ele>
        <time>2022-07-27T07:56:48Z</time>
      </trkpt>
      <trkpt lat="49.79289" lon="2.35634">
        <ele>99.9</ele>
        <time>2022-07-27T07:56:49Z</time>
      </trkpt>
      <trkpt lat="49.79289" lon="2.35632">
        <ele>99.8</ele>
        <time>2022-07-27T07:56:50Z</time>
      </trkpt>
      <trkpt lat="49.79288" lon="2.35631">
        <ele>99.8</ele>
        <time>2022-07-27T07:56:51Z</time>
      </trkpt>
      <trkpt lat="49.79288" lon="2.35629">
        <ele>99.7</ele>
        <time>2022-07-27T07:56:52Z</time>
      </trkpt>
      <trkpt lat="49.79287" lon="2.35628">
        <ele>99.6</ele>
        <time>2022-07-27T07:56:53Z</time>
      </trkpt>
      <trkpt lat="49.79287" lon="2.35626">
        <ele>99.6</ele>
        <time>2022-07-27T07:56:54Z</time>
      </trkpt>
      <trkpt lat="49.79287" lon="2.35624">
        <ele>99.5</ele>
        <time>2022-07-27T07:56:55Z</time>
      </trkpt>
      <trkpt lat="49.79286" lon="2.35623">
        <ele>99.4</ele>
        <time>2022-07-27T07:56:56Z</time>
      </trkpt>
      <trkpt lat="49.79285" lon="2.3562">
        <ele>99.3</ele>
        <time>2022-07-27T07:56:57Z</time>
      </trkpt>
      <trkpt lat="49.79285" lon="2.35618">
        <ele>99.3</ele>
        <time>2022-07-27T07:56:58Z</time>
      </trkpt>
      <trkpt lat="49.79285" lon="2.35617">
        <ele>99.2</ele>
        <time>2022-07-27T07:56:59Z</time>
      </trkpt>
      <trkpt lat="49.79284" lon="2.35615">
        <ele>99.1</ele>
        <time>2022-07-27T07:57:00Z</time>
      </trkpt>
      <trkpt lat="49.79284" lon="2.35614">
        <ele>99.1</ele>
        <time>2022-07-27T07:57:01Z</time>
      </trkpt>
      <trkpt lat="49.79283" lon="2.35612">
        <ele>99</ele>
        <time>2022-07-27T07:57:02Z</time>
      </trkpt>
      <trkpt lat="49.79283" lon="2.35611">
        <ele>99</ele>
        <time>2022-07-27T07:57:03Z</time>
      </trkpt>
      <trkpt lat="49.79283" lon="2.35609">
        <ele>98.9</ele>
        <time>2022-07-27T07:57:04Z</time>
      </trkpt>
      <trkpt lat="49.79282" lon="2.35607">
        <ele>98.8</ele>
        <time>2022-07-27T07:57:05Z</time>
      </trkpt>
      <trkpt lat="49.79281" lon="2.35604">
        <ele>98.7</ele>
        <time>2022-07-27T07:57:06Z</time>
      </trkpt>
      <trkpt lat="49.79281" lon="2.35603">
        <ele>98.7</ele>
        <time>2022-07-27T07:57:07Z</time>
      </trkpt>
      <trkpt lat="49.79281" lon="2.35602">
        <ele>98.6</ele>
        <time>2022-07-27T07:57:08Z</time>
      </trkpt>
      <trkpt lat="49.7928" lon="2.35599">
        <ele>98.5</ele>
        <time>2022-07-27T07:57:09Z</time>
      </trkpt>
      <trkpt lat="49.7928" lon="2.35598">
        <ele>98.4</ele>
        <time>2022-07-27T07:57:10Z</time>
      </trkpt>
      <trkpt lat="49.79279" lon="2.35597">
        <ele>98.4</ele>
        <time>2022-07-27T07:57:11Z</time>
      </trkpt>
      <trkpt lat="49.79278" lon="2.35594">
        <ele>98.3</ele>
        <time>2022-07-27T07:57:12Z</time>
      </trkpt>
      <trkpt lat="49.79278" lon="2.35592">
        <ele>98.2</ele>
        <time>2022-07-27T07:57:13Z</time>
      </trkpt>
      <trkpt lat="49.79278" lon="2.35591">
        <ele>98.2</ele>
        <time>2022-07-27T07:57:14Z</time>
      </trkpt>
      <trkpt lat="49.79277" lon="2.35588">
        <ele>98</ele>
        <time>2022-07-27T07:57:15Z</time>
      </trkpt>
      <trkpt lat="49.79276" lon="2.35587">
        <ele>98</ele>
        <time>2022-07-27T07:57:16Z</time>
      </trkpt>
      <trkpt lat="49.79276" lon="2.35586">
        <ele>97.9</ele>
        <time>2022-07-27T07:57:17Z</time>
      </trkpt>
      <trkpt lat="49.79276" lon="2.35584">
        <ele>97.9</ele>
        <time>2022-07-27T07:57:18Z</time>
      </trkpt>
      <trkpt lat="49.79275" lon="2.35582">
        <ele>97.8</ele>
        <time>2022-07-27T07:57:19Z</time>
      </trkpt>
      <trkpt lat="49.79274" lon="2.35581">
        <ele>97.7</ele>
        <time>2022-07-27T07:57:20Z</time>
      </trkpt>
      <trkpt lat="49.79274" lon="2.35579">
        <ele>97.7</ele>
        <time>2022-07-27T07:57:21Z</time>
      </trkpt>
      <trkpt lat="49.79274" lon="2.35578">
        <ele>97.6</ele>
        <time>2022-07-27T07:57:22Z</time>
      </trkpt>
      <trkpt lat="49.79273" lon="2.35576">
        <ele>97.5</ele>
        <time>2022-07-27T07:57:23Z</time>
      </trkpt>
      <trkpt lat="49.79273" lon="2.35574">
        <ele>97.4</ele>
        <time>2022-07-27T07:57:24Z</time>
      </trkpt>
      <trkpt lat="49.79273" lon="2.35572">
        <ele>97.4</ele>
        <time>2022-07-27T07:57:25Z</time>
      </trkpt>
      <trkpt lat="49.79272" lon="2.35571">
        <ele>97.3</ele>
        <time>2022-07-27T07:57:26Z</time>
      </trkpt>
      <trkpt lat="49.79272" lon="2.35569">
        <ele>97.2</ele>
        <time>2022-07-27T07:57:27Z</time>
      </trkpt>
      <trkpt lat="49.79272" lon="2.35567">
        <ele>97.2</ele>
        <time>2022-07-27T07:57:28Z</time>
      </trkpt>
      <trkpt lat="49.79271" lon="2.35565">
        <ele>97.1</ele>
        <time>2022-07-27T07:57:29Z</time>
      </trkpt>
      <trkpt lat="49.79271" lon="2.35563">
        <ele>97</ele>
        <time>2022-07-27T07:57:30Z</time>
      </trkpt>
      <trkpt lat="49.79271" lon="2.35562">
        <ele>97</ele>
        <time>2022-07-27T07:57:31Z</time>
      </trkpt>
      <trkpt lat="49.7927" lon="2.35558">
        <ele>96.8</ele>
        <time>2022-07-27T07:57:32Z</time>
      </trkpt>
      <trkpt lat="49.7927" lon="2.35557">
        <ele>96.8</ele>
        <time>2022-07-27T07:57:33Z</time>
      </trkpt>
      <trkpt lat="49.7927" lon="2.35556">
        <ele>96.8</ele>
        <time>2022-07-27T07:57:34Z</time>
      </trkpt>
      <trkpt lat="49.7927" lon="2.35553">
        <ele>96.7</ele>
        <time>2022-07-27T07:57:35Z</time>
      </trkpt>
      <trkpt lat="49.7927" lon="2.35551">
        <ele>96.6</ele>
        <time>2022-07-27T07:57:36Z</time>
      </trkpt>
      <trkpt lat="49.79269" lon="2.35548">
        <ele>96.5</ele>
        <time>2022-07-27T07:57:37Z</time>
      </trkpt>
      <trkpt lat="49.79269" lon="2.35547">
        <ele>96.4</ele>
        <time>2022-07-27T07:57:38Z</time>
      </trkpt>
      <trkpt lat="49.79269" lon="2.35545">
        <ele>96.4</ele>
        <time>2022-07-27T07:57:39Z</time>
      </trkpt>
      <trkpt lat="49.79268" lon="2.35543">
        <ele>96.3</ele>
        <time>2022-07-27T07:57:40Z</time>
      </trkpt>
      <trkpt lat="49.79268" lon="2.35542">
        <ele>96.3</ele>
        <time>2022-07-27T07:57:41Z</time>
      </trkpt>
      <trkpt lat="49.79268" lon="2.3554">
        <ele>96.2</ele>
        <time>2022-07-27T07:57:42Z</time>
      </trkpt>
      <trkpt lat="49.79268" lon="2.35539">
        <ele>96.2</ele>
        <time>2022-07-27T07:57:43Z</time>
      </trkpt>
      <trkpt lat="49.79268" lon="2.35538">
        <ele>96.2</ele>
        <time>2022-07-27T07:57:44Z</time>
      </trkpt>
      <trkpt lat="49.79268" lon="2.35536">
        <ele>96.1</ele>
        <time>2022-07-27T07:57:45Z</time>
      </trkpt>
      <trkpt lat="49.79268" lon="2.35534">
        <ele>96</ele>
        <time>2022-07-27T07:57:46Z</time>
      </trkpt>
      <trkpt lat="49.79267" lon="2.35532">
        <ele>96</ele>
        <time>2022-07-27T07:57:47Z</time>
      </trkpt>
      <trkpt lat="49.79267" lon="2.3553">
        <ele>95.9</ele>
        <time>2022-07-27T07:57:48Z</time>
      </trkpt>
      <trkpt lat="49.79267" lon="2.35528">
        <ele>95.9</ele>
        <time>2022-07-27T07:57:49Z</time>
      </trkpt>
      <trkpt lat="49.79267" lon="2.35526">
        <ele>95.8</ele>
        <time>2022-07-27T07:57:50Z</time>
      </trkpt>
      <trkpt lat="49.79266" lon="2.35523">
        <ele>95.7</ele>
        <time>2022-07-27T07:57:51Z</time>
      </trkpt>
      <trkpt lat="49.79266" lon="2.35522">
        <ele>95.7</ele>
        <time>2022-07-27T07:57:52Z</time>
      </trkpt>
      <trkpt lat="49.79266" lon="2.35521">
        <ele>95.6</ele>
        <time>2022-07-27T07:57:53Z</time>
      </trkpt>
      <trkpt lat="49.79265" lon="2.35517">
        <ele>95.5</ele>
        <time>2022-07-27T07:57:54Z</time>
      </trkpt>
      <trkpt lat="49.79265" lon="2.35516">
        <ele>95.5</ele>
        <time>2022-07-27T07:57:55Z</time>
      </trkpt>
      <trkpt lat="49.79265" lon="2.35515">
        <ele>95.5</ele>
        <time>2022-07-27T07:57:56Z</time>
      </trkpt>
      <trkpt lat="49.79265" lon="2.35512">
        <ele>95.4</ele>
        <time>2022-07-27T07:57:57Z</time>
      </trkpt>
      <trkpt lat="49.79264" lon="2.3551">
        <ele>95.3</ele>
        <time>2022-07-27T07:57:58Z</time>
      </trkpt>
      <trkpt lat="49.79264" lon="2.35509">
        <ele>95.3</ele>
        <time>2022-07-27T07:57:59Z</time>
      </trkpt>
      <trkpt lat="49.79264" lon="2.35507">
        <ele>95.2</ele>
        <time>2022-07-27T07:58:00Z</time>
      </trkpt>
      <trkpt lat="49.79264" lon="2.35506">
        <ele>95.2</ele>
        <time>2022-07-27T07:58:01Z</time>
      </trkpt>
      <trkpt lat="49.79263" lon="2.35504">
        <ele>95.1</ele>
        <time>2022-07-27T07:58:02Z</time>
      </trkpt>
      <trkpt lat="49.79263" lon="2.35501">
        <ele>95</ele>
        <time>2022-07-27T07:58:03Z</time>
      </trkpt>
      <trkpt lat="49.79262" lon="2.355">
        <ele>95</ele>
        <time>2022-07-27T07:58:04Z</time>
      </trkpt>
      <trkpt lat="49.79262" lon="2.35498">
        <ele>94.9</ele>
        <time>2022-07-27T07:58:05Z</time>
      </trkpt>
      <trkpt lat="49.79262" lon="2.35495">
        <ele>94.8</ele>
        <time>2022-07-27T07:58:06Z</time>
      </trkpt>
      <trkpt lat="49.79261" lon="2.35494">
        <ele>94.8</ele>
        <time>2022-07-27T07:58:07Z</time>
      </trkpt>
      <trkpt lat="49.79261" lon="2.35493">
        <ele>94.8</ele>
        <time>2022-07-27T07:58:08Z</time>
      </trkpt>
      <trkpt lat="49.7926" lon="2.3549">
        <ele>94.7</ele>
        <time>2022-07-27T07:58:09Z</time>
      </trkpt>
      <trkpt lat="49.7926" lon="2.35488">
        <ele>94.6</ele>
        <time>2022-07-27T07:58:10Z</time>
      </trkpt>
      <trkpt lat="49.7926" lon="2.35487">
        <ele>94.6</ele>
        <time>2022-07-27T07:58:11Z</time>
      </trkpt>
      <trkpt lat="49.79259" lon="2.35485">
        <ele>94.5</ele>
        <time>2022-07-27T07:58:12Z</time>
      </trkpt>
      <trkpt lat="49.79259" lon="2.35483">
        <ele>94.4</ele>
        <time>2022-07-27T07:58:13Z</time>
      </trkpt>
      <trkpt lat="49.79259" lon="2.3548">
        <ele>94.3</ele>
        <time>2022-07-27T07:58:14Z</time>
      </trkpt>
      <trkpt lat="49.79259" lon="2.35478">
        <ele>94.3</ele>
        <time>2022-07-27T07:58:15Z</time>
      </trkpt>
      <trkpt lat="49.79258" lon="2.35477">
        <ele>94.2</ele>
        <time>2022-07-27T07:58:16Z</time>
      </trkpt>
      <trkpt lat="49.79258" lon="2.35475">
        <ele>94.1</ele>
        <time>2022-07-27T07:58:17Z</time>
      </trkpt>
      <trkpt lat="49.79258" lon="2.35474">
        <ele>94.1</ele>
        <time>2022-07-27T07:58:18Z</time>
      </trkpt>
      <trkpt lat="49.79258" lon="2.35472">
        <ele>94</ele>
        <time>2022-07-27T07:58:19Z</time>
      </trkpt>
      <trkpt lat="49.79258" lon="2.35471">
        <ele>94</ele>
        <time>2022-07-27T07:58:20Z</time>
      </trkpt>
      <trkpt lat="49.79258" lon="2.35469">
        <ele>93.9</ele>
        <time>2022-07-27T07:58:21Z</time>
      </trkpt>
      <trkpt lat="49.79258" lon="2.35468">
        <ele>93.9</ele>
        <time>2022-07-27T07:58:22Z</time>
      </trkpt>
      <trkpt lat="49.79257" lon="2.35466">
        <ele>93.8</ele>
        <time>2022-07-27T07:58:23Z</time>
      </trkpt>
      <trkpt lat="49.79257" lon="2.35465">
        <ele>93.8</ele>
        <time>2022-07-27T07:58:24Z</time>
      </trkpt>
      <trkpt lat="49.79257" lon="2.35463">
        <ele>93.7</ele>
        <time>2022-07-27T07:58:25Z</time>
      </trkpt>
      <trkpt lat="49.79257" lon="2.35461">
        <ele>93.6</ele>
        <time>2022-07-27T07:58:26Z</time>
      </trkpt>
      <trkpt lat="49.79257" lon="2.3546">
        <ele>93.6</ele>
        <time>2022-07-27T07:58:27Z</time>
      </trkpt>
      <trkpt lat="49.79257" lon="2.35458">
        <ele>93.5</ele>
        <time>2022-07-27T07:58:28Z</time>
      </trkpt>
      <trkpt lat="49.79257" lon="2.35455">
        <ele>93.4</ele>
        <time>2022-07-27T07:58:29Z</time>
      </trkpt>
      <trkpt lat="49.79257" lon="2.35453">
        <ele>93.3</ele>
        <time>2022-07-27T07:58:30Z</time>
      </trkpt>
      <trkpt lat="49.79257" lon="2.35452">
        <ele>93.3</ele>
        <time>2022-07-27T07:58:31Z</time>
      </trkpt>
      <trkpt lat="49.79257" lon="2.3545">
        <ele>93.2</ele>
        <time>2022-07-27T07:58:32Z</time>
      </trkpt>
      <trkpt lat="49.79257" lon="2.35448">
        <ele>93.1</ele>
        <time>2022-07-27T07:58:33Z</time>
      </trkpt>
      <trkpt lat="49.79257" lon="2.35446">
        <ele>93.1</ele>
        <time>2022-07-27T07:58:34Z</time>
      </trkpt>
      <trkpt lat="49.79257" lon="2.35445">
        <ele>93</ele>
        <time>2022-07-27T07:58:35Z</time>
      </trkpt>
      <trkpt lat="49.79258" lon="2.35443">
        <ele>92.9</ele>
        <time>2022-07-27T07:58:36Z</time>
      </trkpt>
      <trkpt lat="49.79258" lon="2.35441">
        <ele>92.8</ele>
        <time>2022-07-27T07:58:37Z</time>
      </trkpt>
      <trkpt lat="49.79258" lon="2.35439">
        <ele>92.7</ele>
        <time>2022-07-27T07:58:38Z</time>
      </trkpt>
      <trkpt lat="49.79259" lon="2.35436">
        <ele>92.6</ele>
        <time>2022-07-27T07:58:39Z</time>
      </trkpt>
      <trkpt lat="49.79259" lon="2.35434">
        <ele>92.5</ele>
        <time>2022-07-27T07:58:40Z</time>
      </trkpt>
      <trkpt lat="49.7926" lon="2.35433">
        <ele>92.4</ele>
        <time>2022-07-27T07:58:41Z</time>
      </trkpt>
      <trkpt lat="49.7926" lon="2.35431">
        <ele>92.3</ele>
        <time>2022-07-27T07:58:42Z</time>
      </trkpt>
      <trkpt lat="49.79261" lon="2.35428">
        <ele>92.2</ele>
        <time>2022-07-27T07:58:43Z</time>
      </trkpt>
      <trkpt lat="49.79261" lon="2.35426">
        <ele>92.1</ele>
        <time>2022-07-27T07:58:44Z</time>
      </trkpt>
      <trkpt lat="49.79261" lon="2.35425">
        <ele>92</ele>
        <time>2022-07-27T07:58:45Z</time>
      </trkpt>
      <trkpt lat="49.79262" lon="2.35423">
        <ele>91.9</ele>
        <time>2022-07-27T07:58:46Z</time>
      </trkpt>
      <trkpt lat="49.79262" lon="2.3542">
        <ele>91.8</ele>
        <time>2022-07-27T07:58:47Z</time>
      </trkpt>
      <trkpt lat="49.79263" lon="2.35418">
        <ele>91.7</ele>
        <time>2022-07-27T07:58:48Z</time>
      </trkpt>
      <trkpt lat="49.79263" lon="2.35416">
        <ele>91.6</ele>
        <time>2022-07-27T07:58:49Z</time>
      </trkpt>
      <trkpt lat="49.79263" lon="2.35414">
        <ele>91.5</ele>
        <time>2022-07-27T07:58:50Z</time>
      </trkpt>
      <trkpt lat="49.79264" lon="2.35412">
        <ele>91.5</ele>
        <time>2022-07-27T07:58:51Z</time>
      </trkpt>
      <trkpt lat="49.79264" lon="2.3541">
        <ele>91.4</ele>
        <time>2022-07-27T07:58:52Z</time>
      </trkpt>
      <trkpt lat="49.79265" lon="2.35408">
        <ele>91.3</ele>
        <time>2022-07-27T07:58:53Z</time>
      </trkpt>
      <trkpt lat="49.79265" lon="2.35405">
        <ele>91.2</ele>
        <time>2022-07-27T07:58:54Z</time>
      </trkpt>
      <trkpt lat="49.79265" lon="2.35403">
        <ele>91.1</ele>
        <time>2022-07-27T07:58:55Z</time>
      </trkpt>
      <trkpt lat="49.79266" lon="2.354">
        <ele>91</ele>
        <time>2022-07-27T07:58:56Z</time>
      </trkpt>
      <trkpt lat="49.79266" lon="2.35399">
        <ele>91</ele>
        <time>2022-07-27T07:58:57Z</time>
      </trkpt>
      <trkpt lat="49.79267" lon="2.35398">
        <ele>90.9</ele>
        <time>2022-07-27T07:58:58Z</time>
      </trkpt>
      <trkpt lat="49.79267" lon="2.35396">
        <ele>90.9</ele>
        <time>2022-07-27T07:58:59Z</time>
      </trkpt>
      <trkpt lat="49.79267" lon="2.35394">
        <ele>90.9</ele>
        <time>2022-07-27T07:59:00Z</time>
      </trkpt>
      <trkpt lat="49.79268" lon="2.35393">
        <ele>90.8</ele>
        <time>2022-07-27T07:59:01Z</time>
      </trkpt>
      <trkpt lat="49.79268" lon="2.35391">
        <ele>90.8</ele>
        <time>2022-07-27T07:59:02Z</time>
      </trkpt>
      <trkpt lat="49.79268" lon="2.35389">
        <ele>90.7</ele>
        <time>2022-07-27T07:59:03Z</time>
      </trkpt>
      <trkpt lat="49.79268" lon="2.35388">
        <ele>90.7</ele>
        <time>2022-07-27T07:59:04Z</time>
      </trkpt>
      <trkpt lat="49.79269" lon="2.35386">
        <ele>90.7</ele>
        <time>2022-07-27T07:59:05Z</time>
      </trkpt>
      <trkpt lat="49.79269" lon="2.35384">
        <ele>90.7</ele>
        <time>2022-07-27T07:59:06Z</time>
      </trkpt>
      <trkpt lat="49.79269" lon="2.35383">
        <ele>90.6</ele>
        <time>2022-07-27T07:59:07Z</time>
      </trkpt>
      <trkpt lat="49.79269" lon="2.35381">
        <ele>90.6</ele>
        <time>2022-07-27T07:59:08Z</time>
      </trkpt>
      <trkpt lat="49.79269" lon="2.3538">
        <ele>90.6</ele>
        <time>2022-07-27T07:59:09Z</time>
      </trkpt>
      <trkpt lat="49.79269" lon="2.35378">
        <ele>90.6</ele>
        <time>2022-07-27T07:59:10Z</time>
      </trkpt>
      <trkpt lat="49.79269" lon="2.35377">
        <ele>90.6</ele>
        <time>2022-07-27T07:59:11Z</time>
      </trkpt>
      <trkpt lat="49.79269" lon="2.35375">
        <ele>90.6</ele>
        <time>2022-07-27T07:59:12Z</time>
      </trkpt>
      <trkpt lat="49.79269" lon="2.35374">
        <ele>90.5</ele>
        <time>2022-07-27T07:59:13Z</time>
      </trkpt>
      <trkpt lat="49.7927" lon="2.35372">
        <ele>90.5</ele>
        <time>2022-07-27T07:59:14Z</time>
      </trkpt>
      <trkpt lat="49.7927" lon="2.3537">
        <ele>90.5</ele>
        <time>2022-07-27T07:59:15Z</time>
      </trkpt>
      <trkpt lat="49.7927" lon="2.35368">
        <ele>90.5</ele>
        <time>2022-07-27T07:59:16Z</time>
      </trkpt>
      <trkpt lat="49.7927" lon="2.35365">
        <ele>90.5</ele>
        <time>2022-07-27T07:59:17Z</time>
      </trkpt>
      <trkpt lat="49.7927" lon="2.35364">
        <ele>90.5</ele>
        <time>2022-07-27T07:59:18Z</time>
      </trkpt>
      <trkpt lat="49.7927" lon="2.35363">
        <ele>90.5</ele>
        <time>2022-07-27T07:59:19Z</time>
      </trkpt>
      <trkpt lat="49.7927" lon="2.35361">
        <ele>90.5</ele>
        <time>2022-07-27T07:59:20Z</time>
      </trkpt>
      <trkpt lat="49.7927" lon="2.35358">
        <ele>90.5</ele>
        <time>2022-07-27T07:59:21Z</time>
      </trkpt>
      <trkpt lat="49.7927" lon="2.35356">
        <ele>90.5</ele>
        <time>2022-07-27T07:59:22Z</time>
      </trkpt>
      <trkpt lat="49.7927" lon="2.35354">
        <ele>90.5</ele>
        <time>2022-07-27T07:59:23Z</time>
      </trkpt>
      <trkpt lat="49.7927" lon="2.35351">
        <ele>90.5</ele>
        <time>2022-07-27T07:59:24Z</time>
      </trkpt>
      <trkpt lat="49.7927" lon="2.3535">
        <ele>90.6</ele>
        <time>2022-07-27T07:59:25Z</time>
      </trkpt>
      <trkpt lat="49.7927" lon="2.35348">
        <ele>90.6</ele>
        <time>2022-07-27T07:59:26Z</time>
      </trkpt>
      <trkpt lat="49.7927" lon="2.35346">
        <ele>90.6</ele>
        <time>2022-07-27T07:59:27Z</time>
      </trkpt>
      <trkpt lat="49.7927" lon="2.35344">
        <ele>90.6</ele>
        <time>2022-07-27T07:59:28Z</time>
      </trkpt>
      <trkpt lat="49.79269" lon="2.35342">
        <ele>90.6</ele>
        <time>2022-07-27T07:59:29Z</time>
      </trkpt>
      <trkpt lat="49.79269" lon="2.3534">
        <ele>90.7</ele>
        <time>2022-07-27T07:59:30Z</time>
      </trkpt>
      <trkpt lat="49.79269" lon="2.35338">
        <ele>90.7</ele>
        <time>2022-07-27T07:59:31Z</time>
      </trkpt>
      <trkpt lat="49.79269" lon="2.35335">
        <ele>90.7</ele>
        <time>2022-07-27T07:59:32Z</time>
      </trkpt>
      <trkpt lat="49.79269" lon="2.35333">
        <ele>90.8</ele>
        <time>2022-07-27T07:59:33Z</time>
      </trkpt>
      <trkpt lat="49.79269" lon="2.35331">
        <ele>90.8</ele>
        <time>2022-07-27T07:59:34Z</time>
      </trkpt>
      <trkpt lat="49.79269" lon="2.35329">
        <ele>90.9</ele>
        <time>2022-07-27T07:59:35Z</time>
      </trkpt>
      <trkpt lat="49.79269" lon="2.35326">
        <ele>90.9</ele>
        <time>2022-07-27T07:59:36Z</time>
      </trkpt>
      <trkpt lat="49.79269" lon="2.35324">
        <ele>91</ele>
        <time>2022-07-27T07:59:37Z</time>
      </trkpt>
      <trkpt lat="49.79268" lon="2.35322">
        <ele>91</ele>
        <time>2022-07-27T07:59:38Z</time>
      </trkpt>
      <trkpt lat="49.79268" lon="2.35319">
        <ele>91.1</ele>
        <time>2022-07-27T07:59:39Z</time>
      </trkpt>
      <trkpt lat="49.79268" lon="2.35317">
        <ele>91.1</ele>
        <time>2022-07-27T07:59:40Z</time>
      </trkpt>
      <trkpt lat="49.79268" lon="2.35314">
        <ele>91.2</ele>
        <time>2022-07-27T07:59:41Z</time>
      </trkpt>
      <trkpt lat="49.79268" lon="2.35313">
        <ele>91.3</ele>
        <time>2022-07-27T07:59:42Z</time>
      </trkpt>
      <trkpt lat="49.79268" lon="2.35312">
        <ele>91.3</ele>
        <time>2022-07-27T07:59:43Z</time>
      </trkpt>
      <trkpt lat="49.79269" lon="2.35308">
        <ele>91.4</ele>
        <time>2022-07-27T07:59:44Z</time>
      </trkpt>
      <trkpt lat="49.79269" lon="2.35307">
        <ele>91.4</ele>
        <time>2022-07-27T07:59:45Z</time>
      </trkpt>
      <trkpt lat="49.79269" lon="2.35306">
        <ele>91.5</ele>
        <time>2022-07-27T07:59:46Z</time>
      </trkpt>
      <trkpt lat="49.79269" lon="2.35302">
        <ele>91.6</ele>
        <time>2022-07-27T07:59:47Z</time>
      </trkpt>
      <trkpt lat="49.79269" lon="2.35301">
        <ele>91.6</ele>
        <time>2022-07-27T07:59:48Z</time>
      </trkpt>
      <trkpt lat="49.7927" lon="2.35299">
        <ele>91.7</ele>
        <time>2022-07-27T07:59:49Z</time>
      </trkpt>
      <trkpt lat="49.7927" lon="2.35297">
        <ele>91.7</ele>
        <time>2022-07-27T07:59:50Z</time>
      </trkpt>
      <trkpt lat="49.7927" lon="2.35295">
        <ele>91.8</ele>
        <time>2022-07-27T07:59:51Z</time>
      </trkpt>
      <trkpt lat="49.7927" lon="2.35293">
        <ele>91.9</ele>
        <time>2022-07-27T07:59:52Z</time>
      </trkpt>
      <trkpt lat="49.79271" lon="2.35292">
        <ele>91.9</ele>
        <time>2022-07-27T07:59:53Z</time>
      </trkpt>
      <trkpt lat="49.79271" lon="2.3529">
        <ele>92</ele>
        <time>2022-07-27T07:59:54Z</time>
      </trkpt>
      <trkpt lat="49.79271" lon="2.35288">
        <ele>92</ele>
        <time>2022-07-27T07:59:55Z</time>
      </trkpt>
      <trkpt lat="49.79272" lon="2.35287">
        <ele>92.1</ele>
        <time>2022-07-27T07:59:56Z</time>
      </trkpt>
      <trkpt lat="49.79272" lon="2.35285">
        <ele>92.1</ele>
        <time>2022-07-27T07:59:57Z</time>
      </trkpt>
      <trkpt lat="49.79272" lon="2.35283">
        <ele>92.2</ele>
        <time>2022-07-27T07:59:58Z</time>
      </trkpt>
      <trkpt lat="49.79272" lon="2.35281">
        <ele>92.3</ele>
        <time>2022-07-27T07:59:59Z</time>
      </trkpt>
      <trkpt lat="49.79273" lon="2.3528">
        <ele>92.3</ele>
        <time>2022-07-27T08:00:00Z</time>
      </trkpt>
      <trkpt lat="49.79273" lon="2.35276">
        <ele>92.4</ele>
        <time>2022-07-27T08:00:01Z</time>
      </trkpt>
      <trkpt lat="49.79273" lon="2.35275">
        <ele>92.4</ele>
        <time>2022-07-27T08:00:02Z</time>
      </trkpt>
      <trkpt lat="49.79273" lon="2.35274">
        <ele>92.5</ele>
        <time>2022-07-27T08:00:03Z</time>
      </trkpt>
      <trkpt lat="49.79274" lon="2.35272">
        <ele>92.5</ele>
        <time>2022-07-27T08:00:04Z</time>
      </trkpt>
      <trkpt lat="49.79274" lon="2.3527">
        <ele>92.6</ele>
        <time>2022-07-27T08:00:05Z</time>
      </trkpt>
      <trkpt lat="49.79274" lon="2.35269">
        <ele>92.6</ele>
        <time>2022-07-27T08:00:06Z</time>
      </trkpt>
      <trkpt lat="49.79274" lon="2.35267">
        <ele>92.7</ele>
        <time>2022-07-27T08:00:07Z</time>
      </trkpt>
      <trkpt lat="49.79275" lon="2.35265">
        <ele>92.7</ele>
        <time>2022-07-27T08:00:08Z</time>
      </trkpt>
      <trkpt lat="49.79275" lon="2.35264">
        <ele>92.8</ele>
        <time>2022-07-27T08:00:09Z</time>
      </trkpt>
      <trkpt lat="49.79275" lon="2.35262">
        <ele>92.8</ele>
        <time>2022-07-27T08:00:10Z</time>
      </trkpt>
      <trkpt lat="49.79275" lon="2.3526">
        <ele>92.8</ele>
        <time>2022-07-27T08:00:11Z</time>
      </trkpt>
      <trkpt lat="49.79275" lon="2.35258">
        <ele>92.9</ele>
        <time>2022-07-27T08:00:12Z</time>
      </trkpt>
      <trkpt lat="49.79274" lon="2.35255">
        <ele>92.9</ele>
        <time>2022-07-27T08:00:13Z</time>
      </trkpt>
      <trkpt lat="49.79274" lon="2.35254">
        <ele>93</ele>
        <time>2022-07-27T08:00:14Z</time>
      </trkpt>
      <trkpt lat="49.79274" lon="2.35253">
        <ele>93</ele>
        <time>2022-07-27T08:00:15Z</time>
      </trkpt>
      <trkpt lat="49.79273" lon="2.3525">
        <ele>93.1</ele>
        <time>2022-07-27T08:00:16Z</time>
      </trkpt>
      <trkpt lat="49.79273" lon="2.35248">
        <ele>93.1</ele>
        <time>2022-07-27T08:00:17Z</time>
      </trkpt>
      <trkpt lat="49.79273" lon="2.35247">
        <ele>93.1</ele>
        <time>2022-07-27T08:00:18Z</time>
      </trkpt>
      <trkpt lat="49.79272" lon="2.35246">
        <ele>93.1</ele>
        <time>2022-07-27T08:00:19Z</time>
      </trkpt>
      <trkpt lat="49.79272" lon="2.35244">
        <ele>93.2</ele>
        <time>2022-07-27T08:00:20Z</time>
      </trkpt>
      <trkpt lat="49.79272" lon="2.35242">
        <ele>93.2</ele>
        <time>2022-07-27T08:00:21Z</time>
      </trkpt>
      <trkpt lat="49.79271" lon="2.35241">
        <ele>93.2</ele>
        <time>2022-07-27T08:00:22Z</time>
      </trkpt>
      <trkpt lat="49.79271" lon="2.35239">
        <ele>93.3</ele>
        <time>2022-07-27T08:00:23Z</time>
      </trkpt>
      <trkpt lat="49.79271" lon="2.35237">
        <ele>93.3</ele>
        <time>2022-07-27T08:00:24Z</time>
      </trkpt>
      <trkpt lat="49.7927" lon="2.35234">
        <ele>93.3</ele>
        <time>2022-07-27T08:00:25Z</time>
      </trkpt>
      <trkpt lat="49.7927" lon="2.35233">
        <ele>93.3</ele>
        <time>2022-07-27T08:00:26Z</time>
      </trkpt>
      <trkpt lat="49.79269" lon="2.35232">
        <ele>93.4</ele>
        <time>2022-07-27T08:00:27Z</time>
      </trkpt>
      <trkpt lat="49.79269" lon="2.3523">
        <ele>93.4</ele>
        <time>2022-07-27T08:00:28Z</time>
      </trkpt>
      <trkpt lat="49.79269" lon="2.35228">
        <ele>93.4</ele>
        <time>2022-07-27T08:00:29Z</time>
      </trkpt>
      <trkpt lat="49.79268" lon="2.35227">
        <ele>93.4</ele>
        <time>2022-07-27T08:00:30Z</time>
      </trkpt>
      <trkpt lat="49.79268" lon="2.35225">
        <ele>93.4</ele>
        <time>2022-07-27T08:00:31Z</time>
      </trkpt>
      <trkpt lat="49.79268" lon="2.35223">
        <ele>93.4</ele>
        <time>2022-07-27T08:00:32Z</time>
      </trkpt>
      <trkpt lat="49.79268" lon="2.35222">
        <ele>93.4</ele>
        <time>2022-07-27T08:00:33Z</time>
      </trkpt>
      <trkpt lat="49.79268" lon="2.35219">
        <ele>93.4</ele>
        <time>2022-07-27T08:00:34Z</time>
      </trkpt>
      <trkpt lat="49.79269" lon="2.35218">
        <ele>93.5</ele>
        <time>2022-07-27T08:00:35Z</time>
      </trkpt>
      <trkpt lat="49.79269" lon="2.35216">
        <ele>93.5</ele>
        <time>2022-07-27T08:00:36Z</time>
      </trkpt>
      <trkpt lat="49.79269" lon="2.35215">
        <ele>93.5</ele>
        <time>2022-07-27T08:00:37Z</time>
      </trkpt>
      <trkpt lat="49.7927" lon="2.35213">
        <ele>93.5</ele>
        <time>2022-07-27T08:00:38Z</time>
      </trkpt>
      <trkpt lat="49.7927" lon="2.35211">
        <ele>93.4</ele>
        <time>2022-07-27T08:00:39Z</time>
      </trkpt>
      <trkpt lat="49.79271" lon="2.35208">
        <ele>93.4</ele>
        <time>2022-07-27T08:00:40Z</time>
      </trkpt>
      <trkpt lat="49.79271" lon="2.35207">
        <ele>93.4</ele>
        <time>2022-07-27T08:00:41Z</time>
      </trkpt>
      <trkpt lat="49.79272" lon="2.35206">
        <ele>93.4</ele>
        <time>2022-07-27T08:00:42Z</time>
      </trkpt>
      <trkpt lat="49.79272" lon="2.35205">
        <ele>93.4</ele>
        <time>2022-07-27T08:00:43Z</time>
      </trkpt>
      <trkpt lat="49.79273" lon="2.35203">
        <ele>93.4</ele>
        <time>2022-07-27T08:00:44Z</time>
      </trkpt>
      <trkpt lat="49.79273" lon="2.35201">
        <ele>93.4</ele>
        <time>2022-07-27T08:00:45Z</time>
      </trkpt>
      <trkpt lat="49.79274" lon="2.35199">
        <ele>93.4</ele>
        <time>2022-07-27T08:00:46Z</time>
      </trkpt>
      <trkpt lat="49.79274" lon="2.35198">
        <ele>93.4</ele>
        <time>2022-07-27T08:00:47Z</time>
      </trkpt>
      <trkpt lat="49.79275" lon="2.35197">
        <ele>93.3</ele>
        <time>2022-07-27T08:00:48Z</time>
      </trkpt>
      <trkpt lat="49.79275" lon="2.35196">
        <ele>93.3</ele>
        <time>2022-07-27T08:00:49Z</time>
      </trkpt>
      <trkpt lat="49.79276" lon="2.35194">
        <ele>93.3</ele>
        <time>2022-07-27T08:00:50Z</time>
      </trkpt>
      <trkpt lat="49.79276" lon="2.35193">
        <ele>93.3</ele>
        <time>2022-07-27T08:00:51Z</time>
      </trkpt>
      <trkpt lat="49.79277" lon="2.35191">
        <ele>93.3</ele>
        <time>2022-07-27T08:00:52Z</time>
      </trkpt>
      <trkpt lat="49.79278" lon="2.3519">
        <ele>93.3</ele>
        <time>2022-07-27T08:00:53Z</time>
      </trkpt>
      <trkpt lat="49.79278" lon="2.35188">
        <ele>93.2</ele>
        <time>2022-07-27T08:00:54Z</time>
      </trkpt>
      <trkpt lat="49.79279" lon="2.35185">
        <ele>93.2</ele>
        <time>2022-07-27T08:00:55Z</time>
      </trkpt>
      <trkpt lat="49.7928" lon="2.35184">
        <ele>93.2</ele>
        <time>2022-07-27T08:00:56Z</time>
      </trkpt>
      <trkpt lat="49.7928" lon="2.35182">
        <ele>93.2</ele>
        <time>2022-07-27T08:00:57Z</time>
      </trkpt>
      <trkpt lat="49.7928" lon="2.35181">
        <ele>93.2</ele>
        <time>2022-07-27T08:00:58Z</time>
      </trkpt>
      <trkpt lat="49.79281" lon="2.35179">
        <ele>93.1</ele>
        <time>2022-07-27T08:00:59Z</time>
      </trkpt>
      <trkpt lat="49.79281" lon="2.35178">
        <ele>93.1</ele>
        <time>2022-07-27T08:01:00Z</time>
      </trkpt>
      <trkpt lat="49.79282" lon="2.35176">
        <ele>93.1</ele>
        <time>2022-07-27T08:01:01Z</time>
      </trkpt>
      <trkpt lat="49.79282" lon="2.35173">
        <ele>93</ele>
        <time>2022-07-27T08:01:02Z</time>
      </trkpt>
      <trkpt lat="49.79283" lon="2.35173">
        <ele>93</ele>
        <time>2022-07-27T08:01:03Z</time>
      </trkpt>
      <trkpt lat="49.79283" lon="2.35171">
        <ele>93</ele>
        <time>2022-07-27T08:01:04Z</time>
      </trkpt>
      <trkpt lat="49.79283" lon="2.3517">
        <ele>93</ele>
        <time>2022-07-27T08:01:05Z</time>
      </trkpt>
      <trkpt lat="49.79284" lon="2.35169">
        <ele>93</ele>
        <time>2022-07-27T08:01:06Z</time>
      </trkpt>
      <trkpt lat="49.79284" lon="2.35166">
        <ele>92.9</ele>
        <time>2022-07-27T08:01:07Z</time>
      </trkpt>
      <trkpt lat="49.79284" lon="2.35165">
        <ele>92.9</ele>
        <time>2022-07-27T08:01:08Z</time>
      </trkpt>
      <trkpt lat="49.79285" lon="2.35164">
        <ele>92.9</ele>
        <time>2022-07-27T08:01:09Z</time>
      </trkpt>
      <trkpt lat="49.79285" lon="2.35161">
        <ele>92.8</ele>
        <time>2022-07-27T08:01:10Z</time>
      </trkpt>
      <trkpt lat="49.79286" lon="2.35159">
        <ele>92.8</ele>
        <time>2022-07-27T08:01:11Z</time>
      </trkpt>
      <trkpt lat="49.79286" lon="2.35158">
        <ele>92.8</ele>
        <time>2022-07-27T08:01:12Z</time>
      </trkpt>
      <trkpt lat="49.79286" lon="2.35157">
        <ele>92.8</ele>
        <time>2022-07-27T08:01:13Z</time>
      </trkpt>
      <trkpt lat="49.79286" lon="2.35155">
        <ele>92.7</ele>
        <time>2022-07-27T08:01:14Z</time>
      </trkpt>
      <trkpt lat="49.79287" lon="2.35153">
        <ele>92.7</ele>
        <time>2022-07-27T08:01:15Z</time>
      </trkpt>
      <trkpt lat="49.79287" lon="2.35152">
        <ele>92.7</ele>
        <time>2022-07-27T08:01:16Z</time>
      </trkpt>
      <trkpt lat="49.79288" lon="2.35149">
        <ele>92.6</ele>
        <time>2022-07-27T08:01:17Z</time>
      </trkpt>
      <trkpt lat="49.79288" lon="2.35147">
        <ele>92.6</ele>
        <time>2022-07-27T08:01:18Z</time>
      </trkpt>
      <trkpt lat="49.79289" lon="2.35146">
        <ele>92.5</ele>
        <time>2022-07-27T08:01:19Z</time>
      </trkpt>
      <trkpt lat="49.79289" lon="2.35144">
        <ele>92.5</ele>
        <time>2022-07-27T08:01:20Z</time>
      </trkpt>
      <trkpt lat="49.79289" lon="2.35143">
        <ele>92.5</ele>
        <time>2022-07-27T08:01:21Z</time>
      </trkpt>
      <trkpt lat="49.7929" lon="2.3514">
        <ele>92.4</ele>
        <time>2022-07-27T08:01:22Z</time>
      </trkpt>
      <trkpt lat="49.7929" lon="2.35139">
        <ele>92.4</ele>
        <time>2022-07-27T08:01:23Z</time>
      </trkpt>
      <trkpt lat="49.7929" lon="2.35138">
        <ele>92.3</ele>
        <time>2022-07-27T08:01:24Z</time>
      </trkpt>
      <trkpt lat="49.79291" lon="2.35136">
        <ele>92.3</ele>
        <time>2022-07-27T08:01:25Z</time>
      </trkpt>
      <trkpt lat="49.79291" lon="2.35134">
        <ele>92.2</ele>
        <time>2022-07-27T08:01:26Z</time>
      </trkpt>
      <trkpt lat="49.79292" lon="2.35132">
        <ele>92.2</ele>
        <time>2022-07-27T08:01:27Z</time>
      </trkpt>
      <trkpt lat="49.79292" lon="2.35131">
        <ele>92.1</ele>
        <time>2022-07-27T08:01:28Z</time>
      </trkpt>
      <trkpt lat="49.79293" lon="2.35129">
        <ele>92.1</ele>
        <time>2022-07-27T08:01:29Z</time>
      </trkpt>
      <trkpt lat="49.79293" lon="2.35127">
        <ele>92</ele>
        <time>2022-07-27T08:01:30Z</time>
      </trkpt>
      <trkpt lat="49.79294" lon="2.35126">
        <ele>92</ele>
        <time>2022-07-27T08:01:31Z</time>
      </trkpt>
      <trkpt lat="49.79294" lon="2.35123">
        <ele>91.9</ele>
        <time>2022-07-27T08:01:32Z</time>
      </trkpt>
      <trkpt lat="49.79295" lon="2.35122">
        <ele>91.8</ele>
        <time>2022-07-27T08:01:33Z</time>
      </trkpt>
      <trkpt lat="49.79295" lon="2.3512">
        <ele>91.8</ele>
        <time>2022-07-27T08:01:34Z</time>
      </trkpt>
      <trkpt lat="49.79296" lon="2.35119">
        <ele>91.7</ele>
        <time>2022-07-27T08:01:35Z</time>
      </trkpt>
      <trkpt lat="49.79296" lon="2.35118">
        <ele>91.7</ele>
        <time>2022-07-27T08:01:36Z</time>
      </trkpt>
      <trkpt lat="49.79297" lon="2.35116">
        <ele>91.6</ele>
        <time>2022-07-27T08:01:37Z</time>
      </trkpt>
      <trkpt lat="49.79297" lon="2.35115">
        <ele>91.6</ele>
        <time>2022-07-27T08:01:38Z</time>
      </trkpt>
      <trkpt lat="49.79298" lon="2.35114">
        <ele>91.5</ele>
        <time>2022-07-27T08:01:39Z</time>
      </trkpt>
      <trkpt lat="49.79298" lon="2.35112">
        <ele>91.5</ele>
        <time>2022-07-27T08:01:40Z</time>
      </trkpt>
      <trkpt lat="49.79299" lon="2.35111">
        <ele>91.4</ele>
        <time>2022-07-27T08:01:41Z</time>
      </trkpt>
      <trkpt lat="49.793" lon="2.35109">
        <ele>91.3</ele>
        <time>2022-07-27T08:01:42Z</time>
      </trkpt>
      <trkpt lat="49.793" lon="2.35108">
        <ele>91.3</ele>
        <time>2022-07-27T08:01:43Z</time>
      </trkpt>
      <trkpt lat="49.79301" lon="2.35107">
        <ele>91.2</ele>
        <time>2022-07-27T08:01:44Z</time>
      </trkpt>
      <trkpt lat="49.79302" lon="2.35104">
        <ele>91.1</ele>
        <time>2022-07-27T08:01:45Z</time>
      </trkpt>
      <trkpt lat="49.79303" lon="2.35103">
        <ele>91</ele>
        <time>2022-07-27T08:01:46Z</time>
      </trkpt>
      <trkpt lat="49.79303" lon="2.35102">
        <ele>91</ele>
        <time>2022-07-27T08:01:47Z</time>
      </trkpt>
      <trkpt lat="49.79304" lon="2.35101">
        <ele>91</ele>
        <time>2022-07-27T08:01:48Z</time>
      </trkpt>
      <trkpt lat="49.79304" lon="2.35099">
        <ele>90.9</ele>
        <time>2022-07-27T08:01:49Z</time>
      </trkpt>
      <trkpt lat="49.79304" lon="2.35098">
        <ele>90.9</ele>
        <time>2022-07-27T08:01:50Z</time>
      </trkpt>
      <trkpt lat="49.79305" lon="2.35097">
        <ele>90.8</ele>
        <time>2022-07-27T08:01:51Z</time>
      </trkpt>
      <trkpt lat="49.79306" lon="2.35095">
        <ele>90.7</ele>
        <time>2022-07-27T08:01:52Z</time>
      </trkpt>
      <trkpt lat="49.79306" lon="2.35094">
        <ele>90.7</ele>
        <time>2022-07-27T08:01:53Z</time>
      </trkpt>
      <trkpt lat="49.79307" lon="2.35093">
        <ele>90.6</ele>
        <time>2022-07-27T08:01:54Z</time>
      </trkpt>
      <trkpt lat="49.79307" lon="2.35092">
        <ele>90.5</ele>
        <time>2022-07-27T08:01:55Z</time>
      </trkpt>
      <trkpt lat="49.79308" lon="2.3509">
        <ele>90.5</ele>
        <time>2022-07-27T08:01:56Z</time>
      </trkpt>
      <trkpt lat="49.79308" lon="2.35088">
        <ele>90.4</ele>
        <time>2022-07-27T08:01:57Z</time>
      </trkpt>
      <trkpt lat="49.79309" lon="2.35087">
        <ele>90.3</ele>
        <time>2022-07-27T08:01:58Z</time>
      </trkpt>
      <trkpt lat="49.79309" lon="2.35086">
        <ele>90.2</ele>
        <time>2022-07-27T08:01:59Z</time>
      </trkpt>
      <trkpt lat="49.7931" lon="2.35084">
        <ele>90.2</ele>
        <time>2022-07-27T08:02:00Z</time>
      </trkpt>
      <trkpt lat="49.7931" lon="2.35083">
        <ele>90.1</ele>
        <time>2022-07-27T08:02:01Z</time>
      </trkpt>
      <trkpt lat="49.79311" lon="2.3508">
        <ele>90</ele>
        <time>2022-07-27T08:02:02Z</time>
      </trkpt>
      <trkpt lat="49.79311" lon="2.35079">
        <ele>89.9</ele>
        <time>2022-07-27T08:02:03Z</time>
      </trkpt>
      <trkpt lat="49.79312" lon="2.35078">
        <ele>89.9</ele>
        <time>2022-07-27T08:02:04Z</time>
      </trkpt>
      <trkpt lat="49.79312" lon="2.35077">
        <ele>89.8</ele>
        <time>2022-07-27T08:02:05Z</time>
      </trkpt>
      <trkpt lat="49.79312" lon="2.35075">
        <ele>89.7</ele>
        <time>2022-07-27T08:02:06Z</time>
      </trkpt>
      <trkpt lat="49.79313" lon="2.35072">
        <ele>89.6</ele>
        <time>2022-07-27T08:02:07Z</time>
      </trkpt>
      <trkpt lat="49.79313" lon="2.35071">
        <ele>89.5</ele>
        <time>2022-07-27T08:02:08Z</time>
      </trkpt>
      <trkpt lat="49.79314" lon="2.3507">
        <ele>89.5</ele>
        <time>2022-07-27T08:02:09Z</time>
      </trkpt>
      <trkpt lat="49.79314" lon="2.35067">
        <ele>89.3</ele>
        <time>2022-07-27T08:02:10Z</time>
      </trkpt>
      <trkpt lat="49.79315" lon="2.35065">
        <ele>89.3</ele>
        <time>2022-07-27T08:02:11Z</time>
      </trkpt>
      <trkpt lat="49.79315" lon="2.35064">
        <ele>89.2</ele>
        <time>2022-07-27T08:02:12Z</time>
      </trkpt>
      <trkpt lat="49.79315" lon="2.35063">
        <ele>89.1</ele>
        <time>2022-07-27T08:02:13Z</time>
      </trkpt>
      <trkpt lat="49.79316" lon="2.35061">
        <ele>89.1</ele>
        <time>2022-07-27T08:02:14Z</time>
      </trkpt>
      <trkpt lat="49.79316" lon="2.3506">
        <ele>89</ele>
        <time>2022-07-27T08:02:15Z</time>
      </trkpt>
      <trkpt lat="49.79317" lon="2.35058">
        <ele>88.9</ele>
        <time>2022-07-27T08:02:16Z</time>
      </trkpt>
      <trkpt lat="49.79317" lon="2.35056">
        <ele>88.8</ele>
        <time>2022-07-27T08:02:17Z</time>
      </trkpt>
      <trkpt lat="49.79317" lon="2.35054">
        <ele>88.7</ele>
        <time>2022-07-27T08:02:18Z</time>
      </trkpt>
      <trkpt lat="49.79318" lon="2.35053">
        <ele>88.6</ele>
        <time>2022-07-27T08:02:19Z</time>
      </trkpt>
      <trkpt lat="49.79318" lon="2.35051">
        <ele>88.5</ele>
        <time>2022-07-27T08:02:20Z</time>
      </trkpt>
      <trkpt lat="49.79318" lon="2.35049">
        <ele>88.4</ele>
        <time>2022-07-27T08:02:21Z</time>
      </trkpt>
      <trkpt lat="49.79318" lon="2.35046">
        <ele>88.3</ele>
        <time>2022-07-27T08:02:22Z</time>
      </trkpt>
      <trkpt lat="49.79319" lon="2.35045">
        <ele>88.2</ele>
        <time>2022-07-27T08:02:23Z</time>
      </trkpt>
      <trkpt lat="49.79319" lon="2.35044">
        <ele>88.1</ele>
        <time>2022-07-27T08:02:24Z</time>
      </trkpt>
      <trkpt lat="49.7932" lon="2.35042">
        <ele>88</ele>
        <time>2022-07-27T08:02:25Z</time>
      </trkpt>
      <trkpt lat="49.79321" lon="2.3504">
        <ele>87.9</ele>
        <time>2022-07-27T08:02:26Z</time>
      </trkpt>
      <trkpt lat="49.79322" lon="2.35038">
        <ele>87.7</ele>
        <time>2022-07-27T08:02:27Z</time>
      </trkpt>
      <trkpt lat="49.79322" lon="2.35038">
        <ele>87.7</ele>
        <time>2022-07-27T08:02:28Z</time>
      </trkpt>
      <trkpt lat="49.79323" lon="2.35037">
        <ele>87.6</ele>
        <time>2022-07-27T08:02:29Z</time>
      </trkpt>
      <trkpt lat="49.79323" lon="2.35036">
        <ele>87.5</ele>
        <time>2022-07-27T08:02:30Z</time>
      </trkpt>
      <trkpt lat="49.79324" lon="2.35035">
        <ele>87.4</ele>
        <time>2022-07-27T08:02:31Z</time>
      </trkpt>
      <trkpt lat="49.79325" lon="2.35033">
        <ele>87.3</ele>
        <time>2022-07-27T08:02:32Z</time>
      </trkpt>
      <trkpt lat="49.79325" lon="2.35032">
        <ele>87.2</ele>
        <time>2022-07-27T08:02:33Z</time>
      </trkpt>
      <trkpt lat="49.79325" lon="2.3503">
        <ele>87.2</ele>
        <time>2022-07-27T08:02:34Z</time>
      </trkpt>
      <trkpt lat="49.79326" lon="2.35029">
        <ele>87.1</ele>
        <time>2022-07-27T08:02:35Z</time>
      </trkpt>
      <trkpt lat="49.79326" lon="2.35028">
        <ele>87</ele>
        <time>2022-07-27T08:02:36Z</time>
      </trkpt>
      <trkpt lat="49.79327" lon="2.35026">
        <ele>86.9</ele>
        <time>2022-07-27T08:02:37Z</time>
      </trkpt>
      <trkpt lat="49.79327" lon="2.35024">
        <ele>86.7</ele>
        <time>2022-07-27T08:02:38Z</time>
      </trkpt>
      <trkpt lat="49.79328" lon="2.35023">
        <ele>86.7</ele>
        <time>2022-07-27T08:02:39Z</time>
      </trkpt>
      <trkpt lat="49.79328" lon="2.35021">
        <ele>86.6</ele>
        <time>2022-07-27T08:02:40Z</time>
      </trkpt>
      <trkpt lat="49.79329" lon="2.3502">
        <ele>86.5</ele>
        <time>2022-07-27T08:02:41Z</time>
      </trkpt>
      <trkpt lat="49.79329" lon="2.35019">
        <ele>86.4</ele>
        <time>2022-07-27T08:02:42Z</time>
      </trkpt>
      <trkpt lat="49.7933" lon="2.35018">
        <ele>86.3</ele>
        <time>2022-07-27T08:02:43Z</time>
      </trkpt>
      <trkpt lat="49.79331" lon="2.35016">
        <ele>86.2</ele>
        <time>2022-07-27T08:02:44Z</time>
      </trkpt>
      <trkpt lat="49.79331" lon="2.35015">
        <ele>86.1</ele>
        <time>2022-07-27T08:02:45Z</time>
      </trkpt>
      <trkpt lat="49.79331" lon="2.35014">
        <ele>86</ele>
        <time>2022-07-27T08:02:46Z</time>
      </trkpt>
      <trkpt lat="49.79332" lon="2.35013">
        <ele>86</ele>
        <time>2022-07-27T08:02:47Z</time>
      </trkpt>
      <trkpt lat="49.79332" lon="2.35011">
        <ele>85.8</ele>
        <time>2022-07-27T08:02:48Z</time>
      </trkpt>
      <trkpt lat="49.79333" lon="2.3501">
        <ele>85.7</ele>
        <time>2022-07-27T08:02:49Z</time>
      </trkpt>
      <trkpt lat="49.79333" lon="2.35009">
        <ele>85.7</ele>
        <time>2022-07-27T08:02:50Z</time>
      </trkpt>
      <trkpt lat="49.79333" lon="2.35008">
        <ele>85.6</ele>
        <time>2022-07-27T08:02:51Z</time>
      </trkpt>
      <trkpt lat="49.79335" lon="2.35004">
        <ele>85.4</ele>
        <time>2022-07-27T08:02:52Z</time>
      </trkpt>
      <trkpt lat="49.79335" lon="2.35004">
        <ele>85.3</ele>
        <time>2022-07-27T08:02:53Z</time>
      </trkpt>
      <trkpt lat="49.79335" lon="2.35003">
        <ele>85.2</ele>
        <time>2022-07-27T08:02:54Z</time>
      </trkpt>
      <trkpt lat="49.79336" lon="2.35001">
        <ele>85.1</ele>
        <time>2022-07-27T08:02:55Z</time>
      </trkpt>
      <trkpt lat="49.79337" lon="2.35">
        <ele>85</ele>
        <time>2022-07-27T08:02:56Z</time>
      </trkpt>
      <trkpt lat="49.79338" lon="2.34998">
        <ele>84.9</ele>
        <time>2022-07-27T08:02:57Z</time>
      </trkpt>
      <trkpt lat="49.79338" lon="2.34998">
        <ele>84.8</ele>
        <time>2022-07-27T08:02:58Z</time>
      </trkpt>
      <trkpt lat="49.79338" lon="2.34996">
        <ele>84.7</ele>
        <time>2022-07-27T08:02:59Z</time>
      </trkpt>
      <trkpt lat="49.79339" lon="2.34995">
        <ele>84.6</ele>
        <time>2022-07-27T08:03:00Z</time>
      </trkpt>
      <trkpt lat="49.7934" lon="2.34992">
        <ele>84.5</ele>
        <time>2022-07-27T08:03:01Z</time>
      </trkpt>
      <trkpt lat="49.79341" lon="2.34991">
        <ele>84.4</ele>
        <time>2022-07-27T08:03:02Z</time>
      </trkpt>
      <trkpt lat="49.79341" lon="2.3499">
        <ele>84.3</ele>
        <time>2022-07-27T08:03:03Z</time>
      </trkpt>
      <trkpt lat="49.79342" lon="2.34989">
        <ele>84.2</ele>
        <time>2022-07-27T08:03:04Z</time>
      </trkpt>
      <trkpt lat="49.79342" lon="2.34987">
        <ele>84.1</ele>
        <time>2022-07-27T08:03:05Z</time>
      </trkpt>
      <trkpt lat="49.79343" lon="2.34986">
        <ele>84</ele>
        <time>2022-07-27T08:03:06Z</time>
      </trkpt>
      <trkpt lat="49.79343" lon="2.34984">
        <ele>83.9</ele>
        <time>2022-07-27T08:03:07Z</time>
      </trkpt>
      <trkpt lat="49.79344" lon="2.34982">
        <ele>83.7</ele>
        <time>2022-07-27T08:03:08Z</time>
      </trkpt>
      <trkpt lat="49.79345" lon="2.34981">
        <ele>83.6</ele>
        <time>2022-07-27T08:03:09Z</time>
      </trkpt>
      <trkpt lat="49.79346" lon="2.3498">
        <ele>83.5</ele>
        <time>2022-07-27T08:03:10Z</time>
      </trkpt>
      <trkpt lat="49.79346" lon="2.34979">
        <ele>83.5</ele>
        <time>2022-07-27T08:03:11Z</time>
      </trkpt>
      <trkpt lat="49.79347" lon="2.34978">
        <ele>83.4</ele>
        <time>2022-07-27T08:03:12Z</time>
      </trkpt>
      <trkpt lat="49.79348" lon="2.34975">
        <ele>83.2</ele>
        <time>2022-07-27T08:03:13Z</time>
      </trkpt>
      <trkpt lat="49.79348" lon="2.34975">
        <ele>83.2</ele>
        <time>2022-07-27T08:03:14Z</time>
      </trkpt>
      <trkpt lat="49.79348" lon="2.34973">
        <ele>83.1</ele>
        <time>2022-07-27T08:03:15Z</time>
      </trkpt>
      <trkpt lat="49.79349" lon="2.34972">
        <ele>83</ele>
        <time>2022-07-27T08:03:16Z</time>
      </trkpt>
      <trkpt lat="49.79349" lon="2.3497">
        <ele>82.9</ele>
        <time>2022-07-27T08:03:17Z</time>
      </trkpt>
      <trkpt lat="49.7935" lon="2.34968">
        <ele>82.8</ele>
        <time>2022-07-27T08:03:18Z</time>
      </trkpt>
      <trkpt lat="49.7935" lon="2.34967">
        <ele>82.7</ele>
        <time>2022-07-27T08:03:19Z</time>
      </trkpt>
      <trkpt lat="49.79351" lon="2.34965">
        <ele>82.6</ele>
        <time>2022-07-27T08:03:20Z</time>
      </trkpt>
      <trkpt lat="49.79351" lon="2.34964">
        <ele>82.5</ele>
        <time>2022-07-27T08:03:21Z</time>
      </trkpt>
      <trkpt lat="49.79351" lon="2.34963">
        <ele>82.5</ele>
        <time>2022-07-27T08:03:22Z</time>
      </trkpt>
      <trkpt lat="49.79352" lon="2.34961">
        <ele>82.3</ele>
        <time>2022-07-27T08:03:23Z</time>
      </trkpt>
      <trkpt lat="49.79352" lon="2.3496">
        <ele>82.3</ele>
        <time>2022-07-27T08:03:24Z</time>
      </trkpt>
      <trkpt lat="49.79352" lon="2.34959">
        <ele>82.3</ele>
        <time>2022-07-27T08:03:25Z</time>
      </trkpt>
      <trkpt lat="49.79352" lon="2.34958">
        <ele>82.2</ele>
        <time>2022-07-27T08:03:26Z</time>
      </trkpt>
      <trkpt lat="49.79352" lon="2.34957">
        <ele>82.1</ele>
        <time>2022-07-27T08:03:27Z</time>
      </trkpt>
      <trkpt lat="49.79353" lon="2.34954">
        <ele>82</ele>
        <time>2022-07-27T08:03:28Z</time>
      </trkpt>
      <trkpt lat="49.79353" lon="2.34953">
        <ele>81.9</ele>
        <time>2022-07-27T08:03:29Z</time>
      </trkpt>
      <trkpt lat="49.79354" lon="2.34952">
        <ele>81.9</ele>
        <time>2022-07-27T08:03:30Z</time>
      </trkpt>
      <trkpt lat="49.79354" lon="2.34951">
        <ele>81.8</ele>
        <time>2022-07-27T08:03:31Z</time>
      </trkpt>
      <trkpt lat="49.79354" lon="2.3495">
        <ele>81.7</ele>
        <time>2022-07-27T08:03:32Z</time>
      </trkpt>
      <trkpt lat="49.79355" lon="2.34947">
        <ele>81.6</ele>
        <time>2022-07-27T08:03:33Z</time>
      </trkpt>
      <trkpt lat="49.79355" lon="2.34946">
        <ele>81.6</ele>
        <time>2022-07-27T08:03:34Z</time>
      </trkpt>
      <trkpt lat="49.79356" lon="2.34945">
        <ele>81.5</ele>
        <time>2022-07-27T08:03:35Z</time>
      </trkpt>
      <trkpt lat="49.79356" lon="2.34944">
        <ele>81.4</ele>
        <time>2022-07-27T08:03:36Z</time>
      </trkpt>
      <trkpt lat="49.79356" lon="2.34943">
        <ele>81.4</ele>
        <time>2022-07-27T08:03:37Z</time>
      </trkpt>
      <trkpt lat="49.79357" lon="2.34941">
        <ele>81.3</ele>
        <time>2022-07-27T08:03:38Z</time>
      </trkpt>
      <trkpt lat="49.79357" lon="2.3494">
        <ele>81.3</ele>
        <time>2022-07-27T08:03:39Z</time>
      </trkpt>
      <trkpt lat="49.79357" lon="2.34939">
        <ele>81.3</ele>
        <time>2022-07-27T08:03:40Z</time>
      </trkpt>
      <trkpt lat="49.79358" lon="2.34938">
        <ele>81.3</ele>
        <time>2022-07-27T08:03:41Z</time>
      </trkpt>
      <trkpt lat="49.79358" lon="2.34937">
        <ele>81.3</ele>
        <time>2022-07-27T08:03:42Z</time>
      </trkpt>
      <trkpt lat="49.79357" lon="2.34935">
        <ele>81.2</ele>
        <time>2022-07-27T08:03:43Z</time>
      </trkpt>
      <trkpt lat="49.79357" lon="2.34935">
        <ele>81.2</ele>
        <time>2022-07-27T08:03:44Z</time>
      </trkpt>
      <trkpt lat="49.79358" lon="2.34934">
        <ele>81.2</ele>
        <time>2022-07-27T08:03:45Z</time>
      </trkpt>
      <trkpt lat="49.79358" lon="2.34933">
        <ele>81.2</ele>
        <time>2022-07-27T08:03:46Z</time>
      </trkpt>
      <trkpt lat="49.79358" lon="2.34932">
        <ele>81.2</ele>
        <time>2022-07-27T08:03:47Z</time>
      </trkpt>
      <trkpt lat="49.79359" lon="2.34932">
        <ele>81.2</ele>
        <time>2022-07-27T08:03:48Z</time>
      </trkpt>
      <trkpt lat="49.79359" lon="2.34932">
        <ele>81.2</ele>
        <time>2022-07-27T08:03:49Z</time>
      </trkpt>
      <trkpt lat="49.7936" lon="2.34932">
        <ele>81.2</ele>
        <time>2022-07-27T08:03:50Z</time>
      </trkpt>
      <trkpt lat="49.7936" lon="2.34932">
        <ele>81.2</ele>
        <time>2022-07-27T08:03:51Z</time>
      </trkpt>
      <trkpt lat="49.79361" lon="2.34932">
        <ele>81.1</ele>
        <time>2022-07-27T08:03:52Z</time>
      </trkpt>
      <trkpt lat="49.79361" lon="2.34933">
        <ele>81.1</ele>
        <time>2022-07-27T08:03:53Z</time>
      </trkpt>
      <trkpt lat="49.79361" lon="2.34933">
        <ele>81.1</ele>
        <time>2022-07-27T08:03:54Z</time>
      </trkpt>
      <trkpt lat="49.79361" lon="2.34933">
        <ele>81.1</ele>
        <time>2022-07-27T08:03:55Z</time>
      </trkpt>
      <trkpt lat="49.79361" lon="2.34933">
        <ele>81.1</ele>
        <time>2022-07-27T08:03:56Z</time>
      </trkpt>
      <trkpt lat="49.79361" lon="2.34933">
        <ele>81.1</ele>
        <time>2022-07-27T08:03:57Z</time>
      </trkpt>
      <trkpt lat="49.79361" lon="2.34933">
        <ele>81.1</ele>
        <time>2022-07-27T08:03:58Z</time>
      </trkpt>
      <trkpt lat="49.79361" lon="2.34933">
        <ele>81.1</ele>
        <time>2022-07-27T08:03:59Z</time>
      </trkpt>
      <trkpt lat="49.79361" lon="2.34933">
        <ele>81.1</ele>
        <time>2022-07-27T08:04:00Z</time>
      </trkpt>
      <trkpt lat="49.79361" lon="2.34933">
        <ele>81.1</ele>
        <time>2022-07-27T08:04:01Z</time>
      </trkpt>
      <trkpt lat="49.79361" lon="2.34933">
        <ele>81.1</ele>
        <time>2022-07-27T08:04:02Z</time>
      </trkpt>
      <trkpt lat="49.79361" lon="2.34933">
        <ele>81.1</ele>
        <time>2022-07-27T08:04:03Z</time>
      </trkpt>
      <trkpt lat="49.7936" lon="2.34933">
        <ele>81.1</ele>
        <time>2022-07-27T08:04:04Z</time>
      </trkpt>
      <trkpt lat="49.7936" lon="2.34933">
        <ele>81.1</ele>
        <time>2022-07-27T08:04:05Z</time>
      </trkpt>
      <trkpt lat="49.7936" lon="2.34933">
        <ele>81.1</ele>
        <time>2022-07-27T08:04:06Z</time>
      </trkpt>
      <trkpt lat="49.7936" lon="2.34933">
        <ele>81.1</ele>
        <time>2022-07-27T08:04:07Z</time>
      </trkpt>
      <trkpt lat="49.7936" lon="2.34933">
        <ele>81.1</ele>
        <time>2022-07-27T08:04:08Z</time>
      </trkpt>
      <trkpt lat="49.7936" lon="2.34933">
        <ele>81.1</ele>
        <time>2022-07-27T08:04:09Z</time>
      </trkpt>
      <trkpt lat="49.7936" lon="2.34933">
        <ele>81.1</ele>
        <time>2022-07-27T08:04:10Z</time>
      </trkpt>
      <trkpt lat="49.7936" lon="2.34933">
        <ele>81.1</ele>
        <time>2022-07-27T08:04:11Z</time>
      </trkpt>
      <trkpt lat="49.7936" lon="2.34933">
        <ele>81.1</ele>
        <time>2022-07-27T08:04:12Z</time>
      </trkpt>
      <trkpt lat="49.7936" lon="2.34934">
        <ele>81.1</ele>
        <time>2022-07-27T08:04:13Z</time>
      </trkpt>
      <trkpt lat="49.79359" lon="2.34935">
        <ele>81.1</ele>
        <time>2022-07-27T08:04:14Z</time>
      </trkpt>
      <trkpt lat="49.79359" lon="2.34935">
        <ele>81.1</ele>
        <time>2022-07-27T08:04:15Z</time>
      </trkpt>
      <trkpt lat="49.79359" lon="2.34935">
        <ele>81.1</ele>
        <time>2022-07-27T08:04:16Z</time>
      </trkpt>
      <trkpt lat="49.79359" lon="2.34935">
        <ele>81.1</ele>
        <time>2022-07-27T08:04:17Z</time>
      </trkpt>
      <trkpt lat="49.79359" lon="2.34935">
        <ele>81.1</ele>
        <time>2022-07-27T08:04:18Z</time>
      </trkpt>
      <trkpt lat="49.79359" lon="2.34935">
        <ele>81.1</ele>
        <time>2022-07-27T08:04:19Z</time>
      </trkpt>
      <trkpt lat="49.79359" lon="2.34936">
        <ele>81.1</ele>
        <time>2022-07-27T08:04:20Z</time>
      </trkpt>
      <trkpt lat="49.79359" lon="2.34936">
        <ele>81.1</ele>
        <time>2022-07-27T08:04:21Z</time>
      </trkpt>
      <trkpt lat="49.79359" lon="2.34936">
        <ele>81.1</ele>
        <time>2022-07-27T08:04:22Z</time>
      </trkpt>
      <trkpt lat="49.79359" lon="2.34936">
        <ele>81.1</ele>
        <time>2022-07-27T08:04:23Z</time>
      </trkpt>
      <trkpt lat="49.79359" lon="2.34936">
        <ele>81.1</ele>
        <time>2022-07-27T08:04:24Z</time>
      </trkpt>
      <trkpt lat="49.79359" lon="2.34936">
        <ele>81.1</ele>
        <time>2022-07-27T08:04:25Z</time>
      </trkpt>
      <trkpt lat="49.79359" lon="2.34936">
        <ele>81.1</ele>
        <time>2022-07-27T08:04:26Z</time>
      </trkpt>
      <trkpt lat="49.79359" lon="2.34936">
        <ele>81.1</ele>
        <time>2022-07-27T08:04:27Z</time>
      </trkpt>
      <trkpt lat="49.79359" lon="2.34936">
        <ele>81.1</ele>
        <time>2022-07-27T08:04:28Z</time>
      </trkpt>
      <trkpt lat="49.79359" lon="2.34936">
        <ele>81.1</ele>
        <time>2022-07-27T08:04:29Z</time>
      </trkpt>
      <trkpt lat="49.79359" lon="2.34936">
        <ele>81.1</ele>
        <time>2022-07-27T08:04:30Z</time>
      </trkpt>
      <trkpt lat="49.79359" lon="2.34936">
        <ele>81.1</ele>
        <time>2022-07-27T08:04:31Z</time>
      </trkpt>
      <trkpt lat="49.79359" lon="2.34936">
        <ele>81.1</ele>
        <time>2022-07-27T08:04:32Z</time>
      </trkpt>
      <trkpt lat="49.79359" lon="2.34936">
        <ele>81.1</ele>
        <time>2022-07-27T08:04:33Z</time>
      </trkpt>
      <trkpt lat="49.79359" lon="2.34936">
        <ele>81.1</ele>
        <time>2022-07-27T08:04:34Z</time>
      </trkpt>
      <trkpt lat="49.79359" lon="2.34936">
        <ele>81.1</ele>
        <time>2022-07-27T08:04:35Z</time>
      </trkpt>
      <trkpt lat="49.79359" lon="2.34936">
        <ele>81.1</ele>
        <time>2022-07-27T08:04:36Z</time>
      </trkpt>
      <trkpt lat="49.79359" lon="2.34936">
        <ele>81.1</ele>
        <time>2022-07-27T08:04:37Z</time>
      </trkpt>
      <trkpt lat="49.79359" lon="2.34936">
        <ele>81.1</ele>
        <time>2022-07-27T08:04:38Z</time>
      </trkpt>
      <trkpt lat="49.79359" lon="2.34936">
        <ele>81.1</ele>
        <time>2022-07-27T08:04:39Z</time>
      </trkpt>
      <trkpt lat="49.79359" lon="2.34936">
        <ele>81.1</ele>
        <time>2022-07-27T08:04:40Z</time>
      </trkpt>
      <trkpt lat="49.79359" lon="2.34936">
        <ele>81.1</ele>
        <time>2022-07-27T08:04:41Z</time>
      </trkpt>
      <trkpt lat="49.79359" lon="2.34936">
        <ele>81.1</ele>
        <time>2022-07-27T08:04:42Z</time>
      </trkpt>
      <trkpt lat="49.79359" lon="2.34936">
        <ele>81.1</ele>
        <time>2022-07-27T08:04:43Z</time>
      </trkpt>
      <trkpt lat="49.79359" lon="2.34936">
        <ele>81.1</ele>
        <time>2022-07-27T08:04:44Z</time>
      </trkpt>
      <trkpt lat="49.79359" lon="2.34936">
        <ele>81.1</ele>
        <time>2022-07-27T08:04:45Z</time>
      </trkpt>
      <trkpt lat="49.79359" lon="2.34936">
        <ele>81.1</ele>
        <time>2022-07-27T08:04:46Z</time>
      </trkpt>
      <trkpt lat="49.79359" lon="2.34936">
        <ele>81.1</ele>
        <time>2022-07-27T08:04:47Z</time>
      </trkpt>
      <trkpt lat="49.79359" lon="2.34936">
        <ele>81.1</ele>
        <time>2022-07-27T08:04:48Z</time>
      </trkpt>
      <trkpt lat="49.79359" lon="2.34936">
        <ele>81.1</ele>
        <time>2022-07-27T08:04:49Z</time>
      </trkpt>
      <trkpt lat="49.79359" lon="2.34936">
        <ele>81.1</ele>
        <time>2022-07-27T08:04:50Z</time>
      </trkpt>
      <trkpt lat="49.79359" lon="2.34936">
        <ele>81.1</ele>
        <time>2022-07-27T08:04:51Z</time>
      </trkpt>
      <trkpt lat="49.79359" lon="2.34936">
        <ele>81.1</ele>
        <time>2022-07-27T08:04:52Z</time>
      </trkpt>
      <trkpt lat="49.79359" lon="2.34936">
        <ele>81.1</ele>
        <time>2022-07-27T08:04:53Z</time>
      </trkpt>
      <trkpt lat="49.79359" lon="2.34936">
        <ele>81.1</ele>
        <time>2022-07-27T08:04:54Z</time>
      </trkpt>
      <trkpt lat="49.79359" lon="2.34936">
        <ele>81.1</ele>
        <time>2022-07-27T08:04:55Z</time>
      </trkpt>
      <trkpt lat="49.79359" lon="2.34936">
        <ele>81.1</ele>
        <time>2022-07-27T08:04:56Z</time>
      </trkpt>
      <trkpt lat="49.79359" lon="2.34936">
        <ele>81.1</ele>
        <time>2022-07-27T08:04:57Z</time>
      </trkpt>
      <trkpt lat="49.79359" lon="2.34936">
        <ele>81.1</ele>
        <time>2022-07-27T08:04:58Z</time>
      </trkpt>
      <trkpt lat="49.79359" lon="2.34936">
        <ele>81.1</ele>
        <time>2022-07-27T08:04:59Z</time>
      </trkpt>
      <trkpt lat="49.79359" lon="2.34935">
        <ele>81.1</ele>
        <time>2022-07-27T08:05:00Z</time>
      </trkpt>
      <trkpt lat="49.79359" lon="2.34934">
        <ele>81.1</ele>
        <time>2022-07-27T08:05:01Z</time>
      </trkpt>
      <trkpt lat="49.79359" lon="2.34934">
        <ele>81.1</ele>
        <time>2022-07-27T08:05:02Z</time>
      </trkpt>
      <trkpt lat="49.79359" lon="2.34933">
        <ele>81.1</ele>
        <time>2022-07-27T08:05:03Z</time>
      </trkpt>
      <trkpt lat="49.79359" lon="2.34932">
        <ele>81</ele>
        <time>2022-07-27T08:05:04Z</time>
      </trkpt>
      <trkpt lat="49.79359" lon="2.34932">
        <ele>81</ele>
        <time>2022-07-27T08:05:05Z</time>
      </trkpt>
      <trkpt lat="49.79359" lon="2.34932">
        <ele>81</ele>
        <time>2022-07-27T08:05:06Z</time>
      </trkpt>
      <trkpt lat="49.7936" lon="2.34932">
        <ele>81</ele>
        <time>2022-07-27T08:05:07Z</time>
      </trkpt>
      <trkpt lat="49.7936" lon="2.34932">
        <ele>81</ele>
        <time>2022-07-27T08:05:08Z</time>
      </trkpt>
      <trkpt lat="49.79361" lon="2.34931">
        <ele>81</ele>
        <time>2022-07-27T08:05:09Z</time>
      </trkpt>
      <trkpt lat="49.79362" lon="2.34931">
        <ele>81</ele>
        <time>2022-07-27T08:05:10Z</time>
      </trkpt>
      <trkpt lat="49.79362" lon="2.3493">
        <ele>81</ele>
        <time>2022-07-27T08:05:11Z</time>
      </trkpt>
      <trkpt lat="49.79363" lon="2.3493">
        <ele>81</ele>
        <time>2022-07-27T08:05:12Z</time>
      </trkpt>
      <trkpt lat="49.79364" lon="2.34929">
        <ele>80.9</ele>
        <time>2022-07-27T08:05:13Z</time>
      </trkpt>
      <trkpt lat="49.79364" lon="2.34928">
        <ele>80.9</ele>
        <time>2022-07-27T08:05:14Z</time>
      </trkpt>
      <trkpt lat="49.79365" lon="2.34926">
        <ele>80.9</ele>
        <time>2022-07-27T08:05:15Z</time>
      </trkpt>
      <trkpt lat="49.79365" lon="2.34926">
        <ele>80.9</ele>
        <time>2022-07-27T08:05:16Z</time>
      </trkpt>
      <trkpt lat="49.79366" lon="2.34925">
        <ele>80.9</ele>
        <time>2022-07-27T08:05:17Z</time>
      </trkpt>
      <trkpt lat="49.79366" lon="2.34924">
        <ele>80.9</ele>
        <time>2022-07-27T08:05:18Z</time>
      </trkpt>
      <trkpt lat="49.79367" lon="2.34923">
        <ele>80.9</ele>
        <time>2022-07-27T08:05:19Z</time>
      </trkpt>
      <trkpt lat="49.79367" lon="2.34922">
        <ele>80.8</ele>
        <time>2022-07-27T08:05:20Z</time>
      </trkpt>
      <trkpt lat="49.79368" lon="2.34922">
        <ele>80.8</ele>
        <time>2022-07-27T08:05:21Z</time>
      </trkpt>
      <trkpt lat="49.79368" lon="2.34921">
        <ele>80.8</ele>
        <time>2022-07-27T08:05:22Z</time>
      </trkpt>
      <trkpt lat="49.79369" lon="2.3492">
        <ele>80.8</ele>
        <time>2022-07-27T08:05:23Z</time>
      </trkpt>
      <trkpt lat="49.79369" lon="2.34919">
        <ele>80.7</ele>
        <time>2022-07-27T08:05:24Z</time>
      </trkpt>
      <trkpt lat="49.7937" lon="2.34919">
        <ele>80.7</ele>
        <time>2022-07-27T08:05:25Z</time>
      </trkpt>
      <trkpt lat="49.7937" lon="2.3492">
        <ele>80.7</ele>
        <time>2022-07-27T08:05:26Z</time>
      </trkpt>
      <trkpt lat="49.7937" lon="2.34919">
        <ele>80.7</ele>
        <time>2022-07-27T08:05:27Z</time>
      </trkpt>
      <trkpt lat="49.79371" lon="2.34918">
        <ele>80.7</ele>
        <time>2022-07-27T08:05:28Z</time>
      </trkpt>
      <trkpt lat="49.79372" lon="2.34917">
        <ele>80.7</ele>
        <time>2022-07-27T08:05:29Z</time>
      </trkpt>
      <trkpt lat="49.79373" lon="2.34916">
        <ele>80.7</ele>
        <time>2022-07-27T08:05:30Z</time>
      </trkpt>
      <trkpt lat="49.79373" lon="2.34915">
        <ele>80.6</ele>
        <time>2022-07-27T08:05:31Z</time>
      </trkpt>
      <trkpt lat="49.79374" lon="2.34915">
        <ele>80.6</ele>
        <time>2022-07-27T08:05:32Z</time>
      </trkpt>
      <trkpt lat="49.79375" lon="2.34914">
        <ele>80.6</ele>
        <time>2022-07-27T08:05:33Z</time>
      </trkpt>
      <trkpt lat="49.79376" lon="2.34913">
        <ele>80.6</ele>
        <time>2022-07-27T08:05:34Z</time>
      </trkpt>
      <trkpt lat="49.79376" lon="2.34912">
        <ele>80.6</ele>
        <time>2022-07-27T08:05:35Z</time>
      </trkpt>
      <trkpt lat="49.79377" lon="2.34912">
        <ele>80.6</ele>
        <time>2022-07-27T08:05:36Z</time>
      </trkpt>
      <trkpt lat="49.79377" lon="2.34912">
        <ele>80.6</ele>
        <time>2022-07-27T08:05:37Z</time>
      </trkpt>
      <trkpt lat="49.79378" lon="2.34911">
        <ele>80.6</ele>
        <time>2022-07-27T08:05:38Z</time>
      </trkpt>
      <trkpt lat="49.79379" lon="2.34909">
        <ele>80.6</ele>
        <time>2022-07-27T08:05:39Z</time>
      </trkpt>
      <trkpt lat="49.79379" lon="2.34909">
        <ele>80.6</ele>
        <time>2022-07-27T08:05:40Z</time>
      </trkpt>
      <trkpt lat="49.79381" lon="2.34907">
        <ele>80.6</ele>
        <time>2022-07-27T08:05:41Z</time>
      </trkpt>
      <trkpt lat="49.79381" lon="2.34906">
        <ele>80.6</ele>
        <time>2022-07-27T08:05:42Z</time>
      </trkpt>
      <trkpt lat="49.79382" lon="2.34905">
        <ele>80.6</ele>
        <time>2022-07-27T08:05:43Z</time>
      </trkpt>
      <trkpt lat="49.79382" lon="2.34905">
        <ele>80.6</ele>
        <time>2022-07-27T08:05:44Z</time>
      </trkpt>
      <trkpt lat="49.79383" lon="2.34904">
        <ele>80.6</ele>
        <time>2022-07-27T08:05:45Z</time>
      </trkpt>
      <trkpt lat="49.79383" lon="2.34903">
        <ele>80.6</ele>
        <time>2022-07-27T08:05:46Z</time>
      </trkpt>
      <trkpt lat="49.79384" lon="2.34902">
        <ele>80.6</ele>
        <time>2022-07-27T08:05:47Z</time>
      </trkpt>
      <trkpt lat="49.79385" lon="2.349">
        <ele>80.6</ele>
        <time>2022-07-27T08:05:48Z</time>
      </trkpt>
      <trkpt lat="49.79387" lon="2.34898">
        <ele>80.7</ele>
        <time>2022-07-27T08:05:49Z</time>
      </trkpt>
      <trkpt lat="49.79387" lon="2.34897">
        <ele>80.7</ele>
        <time>2022-07-27T08:05:50Z</time>
      </trkpt>
      <trkpt lat="49.79388" lon="2.34896">
        <ele>80.7</ele>
        <time>2022-07-27T08:05:51Z</time>
      </trkpt>
      <trkpt lat="49.79389" lon="2.34895">
        <ele>80.7</ele>
        <time>2022-07-27T08:05:52Z</time>
      </trkpt>
      <trkpt lat="49.79391" lon="2.34892">
        <ele>80.8</ele>
        <time>2022-07-27T08:05:53Z</time>
      </trkpt>
      <trkpt lat="49.79392" lon="2.34891">
        <ele>80.8</ele>
        <time>2022-07-27T08:05:54Z</time>
      </trkpt>
      <trkpt lat="49.79392" lon="2.3489">
        <ele>80.9</ele>
        <time>2022-07-27T08:05:55Z</time>
      </trkpt>
      <trkpt lat="49.79393" lon="2.34889">
        <ele>80.9</ele>
        <time>2022-07-27T08:05:56Z</time>
      </trkpt>
      <trkpt lat="49.79394" lon="2.34888">
        <ele>81</ele>
        <time>2022-07-27T08:05:57Z</time>
      </trkpt>
      <trkpt lat="49.79395" lon="2.34886">
        <ele>81</ele>
        <time>2022-07-27T08:05:58Z</time>
      </trkpt>
      <trkpt lat="49.79396" lon="2.34884">
        <ele>81.1</ele>
        <time>2022-07-27T08:05:59Z</time>
      </trkpt>
      <trkpt lat="49.79396" lon="2.34884">
        <ele>81.1</ele>
        <time>2022-07-27T08:06:00Z</time>
      </trkpt>
      <trkpt lat="49.79397" lon="2.34883">
        <ele>81.2</ele>
        <time>2022-07-27T08:06:01Z</time>
      </trkpt>
      <trkpt lat="49.79397" lon="2.34883">
        <ele>81.2</ele>
        <time>2022-07-27T08:06:02Z</time>
      </trkpt>
      <trkpt lat="49.79397" lon="2.34882">
        <ele>81.2</ele>
        <time>2022-07-27T08:06:03Z</time>
      </trkpt>
      <trkpt lat="49.79398" lon="2.34881">
        <ele>81.3</ele>
        <time>2022-07-27T08:06:04Z</time>
      </trkpt>
      <trkpt lat="49.79399" lon="2.3488">
        <ele>81.4</ele>
        <time>2022-07-27T08:06:05Z</time>
      </trkpt>
      <trkpt lat="49.79399" lon="2.34879">
        <ele>81.4</ele>
        <time>2022-07-27T08:06:06Z</time>
      </trkpt>
      <trkpt lat="49.794" lon="2.34878">
        <ele>81.5</ele>
        <time>2022-07-27T08:06:07Z</time>
      </trkpt>
      <trkpt lat="49.794" lon="2.34878">
        <ele>81.5</ele>
        <time>2022-07-27T08:06:08Z</time>
      </trkpt>
      <trkpt lat="49.79401" lon="2.34876">
        <ele>81.7</ele>
        <time>2022-07-27T08:06:09Z</time>
      </trkpt>
      <trkpt lat="49.79402" lon="2.34875">
        <ele>81.7</ele>
        <time>2022-07-27T08:06:10Z</time>
      </trkpt>
      <trkpt lat="49.79402" lon="2.34875">
        <ele>81.8</ele>
        <time>2022-07-27T08:06:11Z</time>
      </trkpt>
      <trkpt lat="49.79404" lon="2.34873">
        <ele>82</ele>
        <time>2022-07-27T08:06:12Z</time>
      </trkpt>
      <trkpt lat="49.79404" lon="2.34872">
        <ele>82.1</ele>
        <time>2022-07-27T08:06:13Z</time>
      </trkpt>
      <trkpt lat="49.79405" lon="2.3487">
        <ele>82.2</ele>
        <time>2022-07-27T08:06:14Z</time>
      </trkpt>
      <trkpt lat="49.79406" lon="2.34868">
        <ele>82.4</ele>
        <time>2022-07-27T08:06:15Z</time>
      </trkpt>
      <trkpt lat="49.79407" lon="2.34867">
        <ele>82.5</ele>
        <time>2022-07-27T08:06:16Z</time>
      </trkpt>
      <trkpt lat="49.79408" lon="2.34866">
        <ele>82.7</ele>
        <time>2022-07-27T08:06:17Z</time>
      </trkpt>
      <trkpt lat="49.79409" lon="2.34864">
        <ele>82.8</ele>
        <time>2022-07-27T08:06:18Z</time>
      </trkpt>
      <trkpt lat="49.7941" lon="2.34862">
        <ele>83</ele>
        <time>2022-07-27T08:06:19Z</time>
      </trkpt>
      <trkpt lat="49.7941" lon="2.34861">
        <ele>83.2</ele>
        <time>2022-07-27T08:06:20Z</time>
      </trkpt>
      <trkpt lat="49.79411" lon="2.3486">
        <ele>83.3</ele>
        <time>2022-07-27T08:06:21Z</time>
      </trkpt>
      <trkpt lat="49.79412" lon="2.34859">
        <ele>83.4</ele>
        <time>2022-07-27T08:06:22Z</time>
      </trkpt>
      <trkpt lat="49.79412" lon="2.34858">
        <ele>83.6</ele>
        <time>2022-07-27T08:06:23Z</time>
      </trkpt>
      <trkpt lat="49.79414" lon="2.34856">
        <ele>83.8</ele>
        <time>2022-07-27T08:06:24Z</time>
      </trkpt>
      <trkpt lat="49.79415" lon="2.34855">
        <ele>84</ele>
        <time>2022-07-27T08:06:25Z</time>
      </trkpt>
      <trkpt lat="49.79415" lon="2.34854">
        <ele>84</ele>
        <time>2022-07-27T08:06:26Z</time>
      </trkpt>
      <trkpt lat="49.79416" lon="2.34853">
        <ele>84.1</ele>
        <time>2022-07-27T08:06:27Z</time>
      </trkpt>
      <trkpt lat="49.79416" lon="2.34853">
        <ele>84.2</ele>
        <time>2022-07-27T08:06:28Z</time>
      </trkpt>
      <trkpt lat="49.79417" lon="2.34852">
        <ele>84.3</ele>
        <time>2022-07-27T08:06:29Z</time>
      </trkpt>
      <trkpt lat="49.79417" lon="2.34851">
        <ele>84.4</ele>
        <time>2022-07-27T08:06:30Z</time>
      </trkpt>
      <trkpt lat="49.79418" lon="2.34851">
        <ele>84.6</ele>
        <time>2022-07-27T08:06:31Z</time>
      </trkpt>
      <trkpt lat="49.79419" lon="2.3485">
        <ele>84.7</ele>
        <time>2022-07-27T08:06:32Z</time>
      </trkpt>
      <trkpt lat="49.7942" lon="2.3485">
        <ele>84.8</ele>
        <time>2022-07-27T08:06:33Z</time>
      </trkpt>
      <trkpt lat="49.79421" lon="2.34848">
        <ele>85</ele>
        <time>2022-07-27T08:06:34Z</time>
      </trkpt>
      <trkpt lat="49.79421" lon="2.34849">
        <ele>85</ele>
        <time>2022-07-27T08:06:35Z</time>
      </trkpt>
      <trkpt lat="49.79421" lon="2.34849">
        <ele>85.1</ele>
        <time>2022-07-27T08:06:36Z</time>
      </trkpt>
      <trkpt lat="49.79422" lon="2.34848">
        <ele>85.1</ele>
        <time>2022-07-27T08:06:37Z</time>
      </trkpt>
      <trkpt lat="49.79422" lon="2.34848">
        <ele>85.2</ele>
        <time>2022-07-27T08:06:38Z</time>
      </trkpt>
      <trkpt lat="49.79422" lon="2.34847">
        <ele>85.2</ele>
        <time>2022-07-27T08:06:39Z</time>
      </trkpt>
      <trkpt lat="49.79422" lon="2.34847">
        <ele>85.3</ele>
        <time>2022-07-27T08:06:40Z</time>
      </trkpt>
      <trkpt lat="49.79423" lon="2.34846">
        <ele>85.3</ele>
        <time>2022-07-27T08:06:41Z</time>
      </trkpt>
      <trkpt lat="49.79423" lon="2.34846">
        <ele>85.4</ele>
        <time>2022-07-27T08:06:42Z</time>
      </trkpt>
      <trkpt lat="49.79423" lon="2.34846">
        <ele>85.4</ele>
        <time>2022-07-27T08:06:43Z</time>
      </trkpt>
      <trkpt lat="49.79424" lon="2.34845">
        <ele>85.5</ele>
        <time>2022-07-27T08:06:44Z</time>
      </trkpt>
      <trkpt lat="49.79424" lon="2.34845">
        <ele>85.6</ele>
        <time>2022-07-27T08:06:45Z</time>
      </trkpt>
      <trkpt lat="49.79424" lon="2.34844">
        <ele>85.6</ele>
        <time>2022-07-27T08:06:46Z</time>
      </trkpt>
      <trkpt lat="49.79425" lon="2.34843">
        <ele>85.7</ele>
        <time>2022-07-27T08:06:47Z</time>
      </trkpt>
      <trkpt lat="49.79425" lon="2.34843">
        <ele>85.8</ele>
        <time>2022-07-27T08:06:48Z</time>
      </trkpt>
      <trkpt lat="49.79426" lon="2.34842">
        <ele>85.9</ele>
        <time>2022-07-27T08:06:49Z</time>
      </trkpt>
      <trkpt lat="49.79427" lon="2.34841">
        <ele>86</ele>
        <time>2022-07-27T08:06:50Z</time>
      </trkpt>
      <trkpt lat="49.79428" lon="2.34841">
        <ele>86.1</ele>
        <time>2022-07-27T08:06:51Z</time>
      </trkpt>
      <trkpt lat="49.79429" lon="2.3484">
        <ele>86.2</ele>
        <time>2022-07-27T08:06:52Z</time>
      </trkpt>
      <trkpt lat="49.79429" lon="2.34839">
        <ele>86.3</ele>
        <time>2022-07-27T08:06:53Z</time>
      </trkpt>
      <trkpt lat="49.7943" lon="2.34838">
        <ele>86.5</ele>
        <time>2022-07-27T08:06:54Z</time>
      </trkpt>
      <trkpt lat="49.79431" lon="2.34837">
        <ele>86.6</ele>
        <time>2022-07-27T08:06:55Z</time>
      </trkpt>
      <trkpt lat="49.79432" lon="2.34836">
        <ele>86.8</ele>
        <time>2022-07-27T08:06:56Z</time>
      </trkpt>
      <trkpt lat="49.79434" lon="2.34834">
        <ele>87</ele>
        <time>2022-07-27T08:06:57Z</time>
      </trkpt>
      <trkpt lat="49.79435" lon="2.34833">
        <ele>87.2</ele>
        <time>2022-07-27T08:06:58Z</time>
      </trkpt>
      <trkpt lat="49.79435" lon="2.34832">
        <ele>87.3</ele>
        <time>2022-07-27T08:06:59Z</time>
      </trkpt>
      <trkpt lat="49.79436" lon="2.34832">
        <ele>87.3</ele>
        <time>2022-07-27T08:07:00Z</time>
      </trkpt>
      <trkpt lat="49.79436" lon="2.34831">
        <ele>87.4</ele>
        <time>2022-07-27T08:07:01Z</time>
      </trkpt>
      <trkpt lat="49.79437" lon="2.3483">
        <ele>87.5</ele>
        <time>2022-07-27T08:07:02Z</time>
      </trkpt>
      <trkpt lat="49.79437" lon="2.3483">
        <ele>87.5</ele>
        <time>2022-07-27T08:07:03Z</time>
      </trkpt>
      <trkpt lat="49.79437" lon="2.3483">
        <ele>87.5</ele>
        <time>2022-07-27T08:07:04Z</time>
      </trkpt>
      <trkpt lat="49.79437" lon="2.3483">
        <ele>87.6</ele>
        <time>2022-07-27T08:07:05Z</time>
      </trkpt>
      <trkpt lat="49.79438" lon="2.34829">
        <ele>87.7</ele>
        <time>2022-07-27T08:07:06Z</time>
      </trkpt>
      <trkpt lat="49.79439" lon="2.34828">
        <ele>87.8</ele>
        <time>2022-07-27T08:07:07Z</time>
      </trkpt>
      <trkpt lat="49.79439" lon="2.34827">
        <ele>87.9</ele>
        <time>2022-07-27T08:07:08Z</time>
      </trkpt>
      <trkpt lat="49.7944" lon="2.34826">
        <ele>88</ele>
        <time>2022-07-27T08:07:09Z</time>
      </trkpt>
      <trkpt lat="49.7944" lon="2.34825">
        <ele>88.1</ele>
        <time>2022-07-27T08:07:10Z</time>
      </trkpt>
      <trkpt lat="49.79441" lon="2.34824">
        <ele>88.2</ele>
        <time>2022-07-27T08:07:11Z</time>
      </trkpt>
      <trkpt lat="49.79441" lon="2.34823">
        <ele>88.3</ele>
        <time>2022-07-27T08:07:12Z</time>
      </trkpt>
      <trkpt lat="49.79442" lon="2.34823">
        <ele>88.4</ele>
        <time>2022-07-27T08:07:13Z</time>
      </trkpt>
      <trkpt lat="49.79443" lon="2.34822">
        <ele>88.6</ele>
        <time>2022-07-27T08:07:14Z</time>
      </trkpt>
      <trkpt lat="49.79443" lon="2.34821">
        <ele>88.7</ele>
        <time>2022-07-27T08:07:15Z</time>
      </trkpt>
      <trkpt lat="49.79444" lon="2.3482">
        <ele>88.8</ele>
        <time>2022-07-27T08:07:16Z</time>
      </trkpt>
      <trkpt lat="49.79445" lon="2.34819">
        <ele>88.9</ele>
        <time>2022-07-27T08:07:17Z</time>
      </trkpt>
      <trkpt lat="49.79446" lon="2.34818">
        <ele>89</ele>
        <time>2022-07-27T08:07:18Z</time>
      </trkpt>
      <trkpt lat="49.79446" lon="2.34816">
        <ele>89.1</ele>
        <time>2022-07-27T08:07:19Z</time>
      </trkpt>
      <trkpt lat="49.79447" lon="2.34815">
        <ele>89.2</ele>
        <time>2022-07-27T08:07:20Z</time>
      </trkpt>
      <trkpt lat="49.79448" lon="2.34814">
        <ele>89.4</ele>
        <time>2022-07-27T08:07:21Z</time>
      </trkpt>
      <trkpt lat="49.79449" lon="2.34812">
        <ele>89.6</ele>
        <time>2022-07-27T08:07:22Z</time>
      </trkpt>
      <trkpt lat="49.7945" lon="2.34811">
        <ele>89.6</ele>
        <time>2022-07-27T08:07:23Z</time>
      </trkpt>
      <trkpt lat="49.79451" lon="2.34811">
        <ele>89.7</ele>
        <time>2022-07-27T08:07:24Z</time>
      </trkpt>
      <trkpt lat="49.79451" lon="2.3481">
        <ele>89.8</ele>
        <time>2022-07-27T08:07:25Z</time>
      </trkpt>
      <trkpt lat="49.79451" lon="2.3481">
        <ele>89.8</ele>
        <time>2022-07-27T08:07:26Z</time>
      </trkpt>
      <trkpt lat="49.79451" lon="2.3481">
        <ele>89.8</ele>
        <time>2022-07-27T08:07:27Z</time>
      </trkpt>
      <trkpt lat="49.79452" lon="2.34809">
        <ele>89.9</ele>
        <time>2022-07-27T08:07:28Z</time>
      </trkpt>
      <trkpt lat="49.79454" lon="2.34809">
        <ele>90</ele>
        <time>2022-07-27T08:07:29Z</time>
      </trkpt>
      <trkpt lat="49.79455" lon="2.34809">
        <ele>90.1</ele>
        <time>2022-07-27T08:07:30Z</time>
      </trkpt>
      <trkpt lat="49.79455" lon="2.34809">
        <ele>90.1</ele>
        <time>2022-07-27T08:07:31Z</time>
      </trkpt>
      <trkpt lat="49.79456" lon="2.34809">
        <ele>90.2</ele>
        <time>2022-07-27T08:07:32Z</time>
      </trkpt>
      <trkpt lat="49.79457" lon="2.34809">
        <ele>90.2</ele>
        <time>2022-07-27T08:07:33Z</time>
      </trkpt>
      <trkpt lat="49.79457" lon="2.34809">
        <ele>90.3</ele>
        <time>2022-07-27T08:07:34Z</time>
      </trkpt>
      <trkpt lat="49.79458" lon="2.34809">
        <ele>90.3</ele>
        <time>2022-07-27T08:07:35Z</time>
      </trkpt>
      <trkpt lat="49.79459" lon="2.34809">
        <ele>90.4</ele>
        <time>2022-07-27T08:07:36Z</time>
      </trkpt>
      <trkpt lat="49.7946" lon="2.34808">
        <ele>90.4</ele>
        <time>2022-07-27T08:07:37Z</time>
      </trkpt>
      <trkpt lat="49.7946" lon="2.34808">
        <ele>90.4</ele>
        <time>2022-07-27T08:07:38Z</time>
      </trkpt>
      <trkpt lat="49.79461" lon="2.34808">
        <ele>90.5</ele>
        <time>2022-07-27T08:07:39Z</time>
      </trkpt>
      <trkpt lat="49.79461" lon="2.34808">
        <ele>90.5</ele>
        <time>2022-07-27T08:07:40Z</time>
      </trkpt>
      <trkpt lat="49.79462" lon="2.34808">
        <ele>90.5</ele>
        <time>2022-07-27T08:07:41Z</time>
      </trkpt>
      <trkpt lat="49.79462" lon="2.34808">
        <ele>90.5</ele>
        <time>2022-07-27T08:07:42Z</time>
      </trkpt>
      <trkpt lat="49.79463" lon="2.34808">
        <ele>90.6</ele>
        <time>2022-07-27T08:07:43Z</time>
      </trkpt>
      <trkpt lat="49.79463" lon="2.34808">
        <ele>90.6</ele>
        <time>2022-07-27T08:07:44Z</time>
      </trkpt>
      <trkpt lat="49.79463" lon="2.34808">
        <ele>90.6</ele>
        <time>2022-07-27T08:07:45Z</time>
      </trkpt>
      <trkpt lat="49.79463" lon="2.34808">
        <ele>90.6</ele>
        <time>2022-07-27T08:07:46Z</time>
      </trkpt>
      <trkpt lat="49.79463" lon="2.34808">
        <ele>90.6</ele>
        <time>2022-07-27T08:07:47Z</time>
      </trkpt>
      <trkpt lat="49.79463" lon="2.34808">
        <ele>90.6</ele>
        <time>2022-07-27T08:07:48Z</time>
      </trkpt>
      <trkpt lat="49.79463" lon="2.34808">
        <ele>90.6</ele>
        <time>2022-07-27T08:07:49Z</time>
      </trkpt>
      <trkpt lat="49.79463" lon="2.34808">
        <ele>90.6</ele>
        <time>2022-07-27T08:07:50Z</time>
      </trkpt>
      <trkpt lat="49.79463" lon="2.34808">
        <ele>90.6</ele>
        <time>2022-07-27T08:07:51Z</time>
      </trkpt>
      <trkpt lat="49.79463" lon="2.34808">
        <ele>90.6</ele>
        <time>2022-07-27T08:07:52Z</time>
      </trkpt>
      <trkpt lat="49.79463" lon="2.34808">
        <ele>90.6</ele>
        <time>2022-07-27T08:07:53Z</time>
      </trkpt>
      <trkpt lat="49.79463" lon="2.34808">
        <ele>90.6</ele>
        <time>2022-07-27T08:07:54Z</time>
      </trkpt>
      <trkpt lat="49.79463" lon="2.34808">
        <ele>90.6</ele>
        <time>2022-07-27T08:07:55Z</time>
      </trkpt>
      <trkpt lat="49.79463" lon="2.34808">
        <ele>90.6</ele>
        <time>2022-07-27T08:07:56Z</time>
      </trkpt>
      <trkpt lat="49.79463" lon="2.34808">
        <ele>90.6</ele>
        <time>2022-07-27T08:07:57Z</time>
      </trkpt>
      <trkpt lat="49.79462" lon="2.34808">
        <ele>90.6</ele>
        <time>2022-07-27T08:07:58Z</time>
      </trkpt>
      <trkpt lat="49.79462" lon="2.34808">
        <ele>90.6</ele>
        <time>2022-07-27T08:07:59Z</time>
      </trkpt>
      <trkpt lat="49.79462" lon="2.34808">
        <ele>90.6</ele>
        <time>2022-07-27T08:08:00Z</time>
      </trkpt>
      <trkpt lat="49.79462" lon="2.34808">
        <ele>90.6</ele>
        <time>2022-07-27T08:08:01Z</time>
      </trkpt>
      <trkpt lat="49.79462" lon="2.34808">
        <ele>90.6</ele>
        <time>2022-07-27T08:08:02Z</time>
      </trkpt>
      <trkpt lat="49.79462" lon="2.34808">
        <ele>90.6</ele>
        <time>2022-07-27T08:08:03Z</time>
      </trkpt>
      <trkpt lat="49.79462" lon="2.34808">
        <ele>90.6</ele>
        <time>2022-07-27T08:08:04Z</time>
      </trkpt>
      <trkpt lat="49.79462" lon="2.34808">
        <ele>90.6</ele>
        <time>2022-07-27T08:08:05Z</time>
      </trkpt>
      <trkpt lat="49.79462" lon="2.34808">
        <ele>90.6</ele>
        <time>2022-07-27T08:08:06Z</time>
      </trkpt>
      <trkpt lat="49.79462" lon="2.34808">
        <ele>90.6</ele>
        <time>2022-07-27T08:08:07Z</time>
      </trkpt>
      <trkpt lat="49.79462" lon="2.34808">
        <ele>90.6</ele>
        <time>2022-07-27T08:08:08Z</time>
      </trkpt>
      <trkpt lat="49.79462" lon="2.34808">
        <ele>90.6</ele>
        <time>2022-07-27T08:08:09Z</time>
      </trkpt>
      <trkpt lat="49.79462" lon="2.34808">
        <ele>90.6</ele>
        <time>2022-07-27T08:08:10Z</time>
      </trkpt>
      <trkpt lat="49.79462" lon="2.34808">
        <ele>90.6</ele>
        <time>2022-07-27T08:08:11Z</time>
      </trkpt>
      <trkpt lat="49.79462" lon="2.34808">
        <ele>90.6</ele>
        <time>2022-07-27T08:08:12Z</time>
      </trkpt>
      <trkpt lat="49.79462" lon="2.34808">
        <ele>90.6</ele>
        <time>2022-07-27T08:08:13Z</time>
      </trkpt>
      <trkpt lat="49.79462" lon="2.34808">
        <ele>90.6</ele>
        <time>2022-07-27T08:08:14Z</time>
      </trkpt>
      <trkpt lat="49.79462" lon="2.34808">
        <ele>90.6</ele>
        <time>2022-07-27T08:08:15Z</time>
      </trkpt>
      <trkpt lat="49.79462" lon="2.34808">
        <ele>90.6</ele>
        <time>2022-07-27T08:08:16Z</time>
      </trkpt>
      <trkpt lat="49.79462" lon="2.34808">
        <ele>90.6</ele>
        <time>2022-07-27T08:08:17Z</time>
      </trkpt>
      <trkpt lat="49.79462" lon="2.34808">
        <ele>90.6</ele>
        <time>2022-07-27T08:08:18Z</time>
      </trkpt>
      <trkpt lat="49.79462" lon="2.34808">
        <ele>90.6</ele>
        <time>2022-07-27T08:08:19Z</time>
      </trkpt>
      <trkpt lat="49.79462" lon="2.34808">
        <ele>90.6</ele>
        <time>2022-07-27T08:08:20Z</time>
      </trkpt>
      <trkpt lat="49.79462" lon="2.34808">
        <ele>90.6</ele>
        <time>2022-07-27T08:08:21Z</time>
      </trkpt>
      <trkpt lat="49.79462" lon="2.34808">
        <ele>90.6</ele>
        <time>2022-07-27T08:08:22Z</time>
      </trkpt>
      <trkpt lat="49.79462" lon="2.34808">
        <ele>90.6</ele>
        <time>2022-07-27T08:08:23Z</time>
      </trkpt>
      <trkpt lat="49.79462" lon="2.34808">
        <ele>90.6</ele>
        <time>2022-07-27T08:08:24Z</time>
      </trkpt>
      <trkpt lat="49.79462" lon="2.34808">
        <ele>90.6</ele>
        <time>2022-07-27T08:08:25Z</time>
      </trkpt>
      <trkpt lat="49.79462" lon="2.34808">
        <ele>90.6</ele>
        <time>2022-07-27T08:08:26Z</time>
      </trkpt>
      <trkpt lat="49.79462" lon="2.34808">
        <ele>90.6</ele>
        <time>2022-07-27T08:08:27Z</time>
      </trkpt>
      <trkpt lat="49.79462" lon="2.34808">
        <ele>90.6</ele>
        <time>2022-07-27T08:08:28Z</time>
      </trkpt>
      <trkpt lat="49.79462" lon="2.34808">
        <ele>90.6</ele>
        <time>2022-07-27T08:08:29Z</time>
      </trkpt>
      <trkpt lat="49.79462" lon="2.34808">
        <ele>90.6</ele>
        <time>2022-07-27T08:08:30Z</time>
      </trkpt>
      <trkpt lat="49.79462" lon="2.34808">
        <ele>90.6</ele>
        <time>2022-07-27T08:08:31Z</time>
      </trkpt>
      <trkpt lat="49.79462" lon="2.34808">
        <ele>90.6</ele>
        <time>2022-07-27T08:08:32Z</time>
      </trkpt>
      <trkpt lat="49.79462" lon="2.34808">
        <ele>90.6</ele>
        <time>2022-07-27T08:08:33Z</time>
      </trkpt>
      <trkpt lat="49.79462" lon="2.34808">
        <ele>90.6</ele>
        <time>2022-07-27T08:08:34Z</time>
      </trkpt>
      <trkpt lat="49.79462" lon="2.34808">
        <ele>90.6</ele>
        <time>2022-07-27T08:08:35Z</time>
      </trkpt>
      <trkpt lat="49.79462" lon="2.34808">
        <ele>90.6</ele>
        <time>2022-07-27T08:08:36Z</time>
      </trkpt>
      <trkpt lat="49.79462" lon="2.34808">
        <ele>90.6</ele>
        <time>2022-07-27T08:08:37Z</time>
      </trkpt>
      <trkpt lat="49.79462" lon="2.34808">
        <ele>90.6</ele>
        <time>2022-07-27T08:08:38Z</time>
      </trkpt>
      <trkpt lat="49.79462" lon="2.34808">
        <ele>90.6</ele>
        <time>2022-07-27T08:08:39Z</time>
      </trkpt>
      <trkpt lat="49.79462" lon="2.34808">
        <ele>90.6</ele>
        <time>2022-07-27T08:08:40Z</time>
      </trkpt>
      <trkpt lat="49.79462" lon="2.34808">
        <ele>90.6</ele>
        <time>2022-07-27T08:08:41Z</time>
      </trkpt>
      <trkpt lat="49.79462" lon="2.34808">
        <ele>90.6</ele>
        <time>2022-07-27T08:08:42Z</time>
      </trkpt>
      <trkpt lat="49.79462" lon="2.34808">
        <ele>90.6</ele>
        <time>2022-07-27T08:08:43Z</time>
      </trkpt>
      <trkpt lat="49.79462" lon="2.34808">
        <ele>90.6</ele>
        <time>2022-07-27T08:08:44Z</time>
      </trkpt>
      <trkpt lat="49.79462" lon="2.34808">
        <ele>90.6</ele>
        <time>2022-07-27T08:08:45Z</time>
      </trkpt>
      <trkpt lat="49.79462" lon="2.34808">
        <ele>90.6</ele>
        <time>2022-07-27T08:08:46Z</time>
      </trkpt>
      <trkpt lat="49.79462" lon="2.34808">
        <ele>90.6</ele>
        <time>2022-07-27T08:08:47Z</time>
      </trkpt>
      <trkpt lat="49.79462" lon="2.34808">
        <ele>90.6</ele>
        <time>2022-07-27T08:08:48Z</time>
      </trkpt>
      <trkpt lat="49.79462" lon="2.34808">
        <ele>90.6</ele>
        <time>2022-07-27T08:08:49Z</time>
      </trkpt>
      <trkpt lat="49.79462" lon="2.34808">
        <ele>90.6</ele>
        <time>2022-07-27T08:08:50Z</time>
      </trkpt>
      <trkpt lat="49.79462" lon="2.34808">
        <ele>90.6</ele>
        <time>2022-07-27T08:08:51Z</time>
      </trkpt>
      <trkpt lat="49.79462" lon="2.34808">
        <ele>90.6</ele>
        <time>2022-07-27T08:08:52Z</time>
      </trkpt>
      <trkpt lat="49.79462" lon="2.34808">
        <ele>90.6</ele>
        <time>2022-07-27T08:08:53Z</time>
      </trkpt>
      <trkpt lat="49.79462" lon="2.34808">
        <ele>90.6</ele>
        <time>2022-07-27T08:08:54Z</time>
      </trkpt>
      <trkpt lat="49.79462" lon="2.34808">
        <ele>90.6</ele>
        <time>2022-07-27T08:08:55Z</time>
      </trkpt>
      <trkpt lat="49.79462" lon="2.34808">
        <ele>90.6</ele>
        <time>2022-07-27T08:08:56Z</time>
      </trkpt>
      <trkpt lat="49.79462" lon="2.34808">
        <ele>90.6</ele>
        <time>2022-07-27T08:08:57Z</time>
      </trkpt>
      <trkpt lat="49.79462" lon="2.34808">
        <ele>90.6</ele>
        <time>2022-07-27T08:08:58Z</time>
      </trkpt>
      <trkpt lat="49.79462" lon="2.34808">
        <ele>90.6</ele>
        <time>2022-07-27T08:08:59Z</time>
      </trkpt>
      <trkpt lat="49.79462" lon="2.34808">
        <ele>90.6</ele>
        <time>2022-07-27T08:09:00Z</time>
      </trkpt>
      <trkpt lat="49.79462" lon="2.34808">
        <ele>90.6</ele>
        <time>2022-07-27T08:09:01Z</time>
      </trkpt>
      <trkpt lat="49.79462" lon="2.34808">
        <ele>90.6</ele>
        <time>2022-07-27T08:09:02Z</time>
      </trkpt>
      <trkpt lat="49.79462" lon="2.34808">
        <ele>90.6</ele>
        <time>2022-07-27T08:09:03Z</time>
      </trkpt>
      <trkpt lat="49.79462" lon="2.34808">
        <ele>90.6</ele>
        <time>2022-07-27T08:09:04Z</time>
      </trkpt>
      <trkpt lat="49.79462" lon="2.34808">
        <ele>90.6</ele>
        <time>2022-07-27T08:09:05Z</time>
      </trkpt>
      <trkpt lat="49.79462" lon="2.34808">
        <ele>90.6</ele>
        <time>2022-07-27T08:09:06Z</time>
      </trkpt>
      <trkpt lat="49.79462" lon="2.34808">
        <ele>90.6</ele>
        <time>2022-07-27T08:09:07Z</time>
      </trkpt>
      <trkpt lat="49.79465" lon="2.34805">
        <ele>90.7</ele>
        <time>2022-07-27T08:09:08Z</time>
      </trkpt>
      <trkpt lat="49.79465" lon="2.34804">
        <ele>90.8</ele>
        <time>2022-07-27T08:09:09Z</time>
      </trkpt>
      <trkpt lat="49.79466" lon="2.34804">
        <ele>90.8</ele>
        <time>2022-07-27T08:09:10Z</time>
      </trkpt>
      <trkpt lat="49.79466" lon="2.34804">
        <ele>90.8</ele>
        <time>2022-07-27T08:09:11Z</time>
      </trkpt>
      <trkpt lat="49.79466" lon="2.34804">
        <ele>90.8</ele>
        <time>2022-07-27T08:09:12Z</time>
      </trkpt>
      <trkpt lat="49.79466" lon="2.34804">
        <ele>90.8</ele>
        <time>2022-07-27T08:09:13Z</time>
      </trkpt>
      <trkpt lat="49.79466" lon="2.34804">
        <ele>90.8</ele>
        <time>2022-07-27T08:09:14Z</time>
      </trkpt>
      <trkpt lat="49.79466" lon="2.34804">
        <ele>90.8</ele>
        <time>2022-07-27T08:09:15Z</time>
      </trkpt>
      <trkpt lat="49.79466" lon="2.34804">
        <ele>90.8</ele>
        <time>2022-07-27T08:09:16Z</time>
      </trkpt>
      <trkpt lat="49.79466" lon="2.34804">
        <ele>90.8</ele>
        <time>2022-07-27T08:09:17Z</time>
      </trkpt>
      <trkpt lat="49.79466" lon="2.34803">
        <ele>90.8</ele>
        <time>2022-07-27T08:09:18Z</time>
      </trkpt>
      <trkpt lat="49.79466" lon="2.34803">
        <ele>90.8</ele>
        <time>2022-07-27T08:09:19Z</time>
      </trkpt>
      <trkpt lat="49.79466" lon="2.34803">
        <ele>90.8</ele>
        <time>2022-07-27T08:09:20Z</time>
      </trkpt>
      <trkpt lat="49.79466" lon="2.34803">
        <ele>90.8</ele>
        <time>2022-07-27T08:09:21Z</time>
      </trkpt>
      <trkpt lat="49.79467" lon="2.34803">
        <ele>90.8</ele>
        <time>2022-07-27T08:09:22Z</time>
      </trkpt>
      <trkpt lat="49.79467" lon="2.34803">
        <ele>90.8</ele>
        <time>2022-07-27T08:09:23Z</time>
      </trkpt>
      <trkpt lat="49.79467" lon="2.34803">
        <ele>90.8</ele>
        <time>2022-07-27T08:09:24Z</time>
      </trkpt>
      <trkpt lat="49.79467" lon="2.34803">
        <ele>90.8</ele>
        <time>2022-07-27T08:09:25Z</time>
      </trkpt>
      <trkpt lat="49.79467" lon="2.34803">
        <ele>90.8</ele>
        <time>2022-07-27T08:09:26Z</time>
      </trkpt>
      <trkpt lat="49.79467" lon="2.34803">
        <ele>90.8</ele>
        <time>2022-07-27T08:09:27Z</time>
      </trkpt>
      <trkpt lat="49.79467" lon="2.34803">
        <ele>90.8</ele>
        <time>2022-07-27T08:09:28Z</time>
      </trkpt>
      <trkpt lat="49.79467" lon="2.34803">
        <ele>90.8</ele>
        <time>2022-07-27T08:09:29Z</time>
      </trkpt>
      <trkpt lat="49.79467" lon="2.34803">
        <ele>90.8</ele>
        <time>2022-07-27T08:09:30Z</time>
      </trkpt>
      <trkpt lat="49.79467" lon="2.34803">
        <ele>90.9</ele>
        <time>2022-07-27T08:09:31Z</time>
      </trkpt>
      <trkpt lat="49.79467" lon="2.34802">
        <ele>90.9</ele>
        <time>2022-07-27T08:09:32Z</time>
      </trkpt>
      <trkpt lat="49.79467" lon="2.34802">
        <ele>90.9</ele>
        <time>2022-07-27T08:09:33Z</time>
      </trkpt>
      <trkpt lat="49.79467" lon="2.34802">
        <ele>90.9</ele>
        <time>2022-07-27T08:09:34Z</time>
      </trkpt>
      <trkpt lat="49.79468" lon="2.34802">
        <ele>90.9</ele>
        <time>2022-07-27T08:09:35Z</time>
      </trkpt>
      <trkpt lat="49.79468" lon="2.34802">
        <ele>90.9</ele>
        <time>2022-07-27T08:09:36Z</time>
      </trkpt>
      <trkpt lat="49.79468" lon="2.34802">
        <ele>90.9</ele>
        <time>2022-07-27T08:09:37Z</time>
      </trkpt>
      <trkpt lat="49.79468" lon="2.34802">
        <ele>90.9</ele>
        <time>2022-07-27T08:09:38Z</time>
      </trkpt>
      <trkpt lat="49.79468" lon="2.34802">
        <ele>90.9</ele>
        <time>2022-07-27T08:09:39Z</time>
      </trkpt>
      <trkpt lat="49.79468" lon="2.34802">
        <ele>90.9</ele>
        <time>2022-07-27T08:09:40Z</time>
      </trkpt>
      <trkpt lat="49.79468" lon="2.34802">
        <ele>90.9</ele>
        <time>2022-07-27T08:09:41Z</time>
      </trkpt>
      <trkpt lat="49.79468" lon="2.34802">
        <ele>90.9</ele>
        <time>2022-07-27T08:09:42Z</time>
      </trkpt>
      <trkpt lat="49.79468" lon="2.34802">
        <ele>90.9</ele>
        <time>2022-07-27T08:09:43Z</time>
      </trkpt>
      <trkpt lat="49.79468" lon="2.34802">
        <ele>90.9</ele>
        <time>2022-07-27T08:09:44Z</time>
      </trkpt>
      <trkpt lat="49.79468" lon="2.34802">
        <ele>90.9</ele>
        <time>2022-07-27T08:09:45Z</time>
      </trkpt>
      <trkpt lat="49.79468" lon="2.34801">
        <ele>90.9</ele>
        <time>2022-07-27T08:09:46Z</time>
      </trkpt>
      <trkpt lat="49.79468" lon="2.34801">
        <ele>90.9</ele>
        <time>2022-07-27T08:09:47Z</time>
      </trkpt>
      <trkpt lat="49.79469" lon="2.34801">
        <ele>90.9</ele>
        <time>2022-07-27T08:09:48Z</time>
      </trkpt>
      <trkpt lat="49.7947" lon="2.34801">
        <ele>91</ele>
        <time>2022-07-27T08:09:49Z</time>
      </trkpt>
      <trkpt lat="49.79471" lon="2.348">
        <ele>91</ele>
        <time>2022-07-27T08:09:50Z</time>
      </trkpt>
      <trkpt lat="49.79471" lon="2.348">
        <ele>91</ele>
        <time>2022-07-27T08:09:51Z</time>
      </trkpt>
      <trkpt lat="49.79472" lon="2.34799">
        <ele>91</ele>
        <time>2022-07-27T08:09:52Z</time>
      </trkpt>
      <trkpt lat="49.79474" lon="2.34798">
        <ele>91.1</ele>
        <time>2022-07-27T08:09:53Z</time>
      </trkpt>
      <trkpt lat="49.79474" lon="2.34798">
        <ele>91.1</ele>
        <time>2022-07-27T08:09:54Z</time>
      </trkpt>
      <trkpt lat="49.79476" lon="2.34797">
        <ele>91.1</ele>
        <time>2022-07-27T08:09:55Z</time>
      </trkpt>
      <trkpt lat="49.79477" lon="2.34796">
        <ele>91.1</ele>
        <time>2022-07-27T08:09:56Z</time>
      </trkpt>
      <trkpt lat="49.79477" lon="2.34796">
        <ele>91.2</ele>
        <time>2022-07-27T08:09:57Z</time>
      </trkpt>
      <trkpt lat="49.79478" lon="2.34795">
        <ele>91.2</ele>
        <time>2022-07-27T08:09:58Z</time>
      </trkpt>
      <trkpt lat="49.79479" lon="2.34794">
        <ele>91.2</ele>
        <time>2022-07-27T08:09:59Z</time>
      </trkpt>
      <trkpt lat="49.7948" lon="2.34794">
        <ele>91.2</ele>
        <time>2022-07-27T08:10:00Z</time>
      </trkpt>
      <trkpt lat="49.79481" lon="2.34793">
        <ele>91.2</ele>
        <time>2022-07-27T08:10:01Z</time>
      </trkpt>
      <trkpt lat="49.79483" lon="2.34791">
        <ele>91.3</ele>
        <time>2022-07-27T08:10:02Z</time>
      </trkpt>
      <trkpt lat="49.79484" lon="2.3479">
        <ele>91.3</ele>
        <time>2022-07-27T08:10:03Z</time>
      </trkpt>
      <trkpt lat="49.79485" lon="2.34789">
        <ele>91.3</ele>
        <time>2022-07-27T08:10:04Z</time>
      </trkpt>
      <trkpt lat="49.79486" lon="2.34788">
        <ele>91.3</ele>
        <time>2022-07-27T08:10:05Z</time>
      </trkpt>
      <trkpt lat="49.79487" lon="2.34788">
        <ele>91.3</ele>
        <time>2022-07-27T08:10:06Z</time>
      </trkpt>
      <trkpt lat="49.79488" lon="2.34787">
        <ele>91.3</ele>
        <time>2022-07-27T08:10:07Z</time>
      </trkpt>
      <trkpt lat="49.79489" lon="2.34787">
        <ele>91.4</ele>
        <time>2022-07-27T08:10:08Z</time>
      </trkpt>
      <trkpt lat="49.7949" lon="2.34786">
        <ele>91.4</ele>
        <time>2022-07-27T08:10:09Z</time>
      </trkpt>
      <trkpt lat="49.79491" lon="2.34785">
        <ele>91.4</ele>
        <time>2022-07-27T08:10:10Z</time>
      </trkpt>
      <trkpt lat="49.79492" lon="2.34784">
        <ele>91.4</ele>
        <time>2022-07-27T08:10:11Z</time>
      </trkpt>
      <trkpt lat="49.79492" lon="2.34783">
        <ele>91.4</ele>
        <time>2022-07-27T08:10:12Z</time>
      </trkpt>
      <trkpt lat="49.79494" lon="2.34781">
        <ele>91.4</ele>
        <time>2022-07-27T08:10:13Z</time>
      </trkpt>
      <trkpt lat="49.79495" lon="2.3478">
        <ele>91.4</ele>
        <time>2022-07-27T08:10:14Z</time>
      </trkpt>
      <trkpt lat="49.79496" lon="2.34779">
        <ele>91.5</ele>
        <time>2022-07-27T08:10:15Z</time>
      </trkpt>
      <trkpt lat="49.79497" lon="2.34779">
        <ele>91.5</ele>
        <time>2022-07-27T08:10:16Z</time>
      </trkpt>
      <trkpt lat="49.79498" lon="2.34777">
        <ele>91.5</ele>
        <time>2022-07-27T08:10:17Z</time>
      </trkpt>
      <trkpt lat="49.79499" lon="2.34776">
        <ele>91.5</ele>
        <time>2022-07-27T08:10:18Z</time>
      </trkpt>
      <trkpt lat="49.79499" lon="2.34775">
        <ele>91.5</ele>
        <time>2022-07-27T08:10:19Z</time>
      </trkpt>
      <trkpt lat="49.795" lon="2.34774">
        <ele>91.5</ele>
        <time>2022-07-27T08:10:20Z</time>
      </trkpt>
      <trkpt lat="49.79502" lon="2.34772">
        <ele>91.6</ele>
        <time>2022-07-27T08:10:21Z</time>
      </trkpt>
      <trkpt lat="49.79504" lon="2.34769">
        <ele>91.6</ele>
        <time>2022-07-27T08:10:22Z</time>
      </trkpt>
      <trkpt lat="49.79505" lon="2.34767">
        <ele>91.6</ele>
        <time>2022-07-27T08:10:23Z</time>
      </trkpt>
      <trkpt lat="49.79508" lon="2.34764">
        <ele>91.6</ele>
        <time>2022-07-27T08:10:24Z</time>
      </trkpt>
      <trkpt lat="49.79508" lon="2.34763">
        <ele>91.7</ele>
        <time>2022-07-27T08:10:25Z</time>
      </trkpt>
      <trkpt lat="49.79511" lon="2.3476">
        <ele>91.7</ele>
        <time>2022-07-27T08:10:26Z</time>
      </trkpt>
      <trkpt lat="49.79512" lon="2.34759">
        <ele>91.7</ele>
        <time>2022-07-27T08:10:27Z</time>
      </trkpt>
      <trkpt lat="49.79514" lon="2.34756">
        <ele>91.7</ele>
        <time>2022-07-27T08:10:28Z</time>
      </trkpt>
      <trkpt lat="49.79515" lon="2.34755">
        <ele>91.7</ele>
        <time>2022-07-27T08:10:29Z</time>
      </trkpt>
      <trkpt lat="49.79516" lon="2.34753">
        <ele>91.7</ele>
        <time>2022-07-27T08:10:30Z</time>
      </trkpt>
      <trkpt lat="49.79518" lon="2.34752">
        <ele>91.8</ele>
        <time>2022-07-27T08:10:31Z</time>
      </trkpt>
      <trkpt lat="49.79519" lon="2.34751">
        <ele>91.8</ele>
        <time>2022-07-27T08:10:32Z</time>
      </trkpt>
      <trkpt lat="49.79521" lon="2.34748">
        <ele>91.8</ele>
        <time>2022-07-27T08:10:33Z</time>
      </trkpt>
      <trkpt lat="49.79521" lon="2.34747">
        <ele>91.8</ele>
        <time>2022-07-27T08:10:34Z</time>
      </trkpt>
      <trkpt lat="49.79523" lon="2.34745">
        <ele>91.8</ele>
        <time>2022-07-27T08:10:35Z</time>
      </trkpt>
      <trkpt lat="49.79524" lon="2.34744">
        <ele>91.8</ele>
        <time>2022-07-27T08:10:36Z</time>
      </trkpt>
      <trkpt lat="49.79524" lon="2.34743">
        <ele>91.8</ele>
        <time>2022-07-27T08:10:37Z</time>
      </trkpt>
      <trkpt lat="49.79526" lon="2.34741">
        <ele>91.8</ele>
        <time>2022-07-27T08:10:38Z</time>
      </trkpt>
      <trkpt lat="49.79527" lon="2.3474">
        <ele>91.8</ele>
        <time>2022-07-27T08:10:39Z</time>
      </trkpt>
      <trkpt lat="49.79527" lon="2.34739">
        <ele>91.8</ele>
        <time>2022-07-27T08:10:40Z</time>
      </trkpt>
      <trkpt lat="49.79528" lon="2.34738">
        <ele>91.8</ele>
        <time>2022-07-27T08:10:41Z</time>
      </trkpt>
      <trkpt lat="49.79529" lon="2.34737">
        <ele>91.8</ele>
        <time>2022-07-27T08:10:42Z</time>
      </trkpt>
      <trkpt lat="49.79531" lon="2.34735">
        <ele>91.7</ele>
        <time>2022-07-27T08:10:43Z</time>
      </trkpt>
      <trkpt lat="49.79531" lon="2.34734">
        <ele>91.7</ele>
        <time>2022-07-27T08:10:44Z</time>
      </trkpt>
      <trkpt lat="49.79532" lon="2.34733">
        <ele>91.7</ele>
        <time>2022-07-27T08:10:45Z</time>
      </trkpt>
      <trkpt lat="49.79534" lon="2.34731">
        <ele>91.7</ele>
        <time>2022-07-27T08:10:46Z</time>
      </trkpt>
      <trkpt lat="49.79534" lon="2.3473">
        <ele>91.7</ele>
        <time>2022-07-27T08:10:47Z</time>
      </trkpt>
      <trkpt lat="49.79535" lon="2.34729">
        <ele>91.7</ele>
        <time>2022-07-27T08:10:48Z</time>
      </trkpt>
      <trkpt lat="49.79536" lon="2.34728">
        <ele>91.7</ele>
        <time>2022-07-27T08:10:49Z</time>
      </trkpt>
      <trkpt lat="49.79537" lon="2.34727">
        <ele>91.7</ele>
        <time>2022-07-27T08:10:50Z</time>
      </trkpt>
      <trkpt lat="49.79538" lon="2.34726">
        <ele>91.7</ele>
        <time>2022-07-27T08:10:51Z</time>
      </trkpt>
      <trkpt lat="49.79538" lon="2.34725">
        <ele>91.7</ele>
        <time>2022-07-27T08:10:52Z</time>
      </trkpt>
      <trkpt lat="49.7954" lon="2.34723">
        <ele>91.7</ele>
        <time>2022-07-27T08:10:53Z</time>
      </trkpt>
      <trkpt lat="49.79541" lon="2.34722">
        <ele>91.7</ele>
        <time>2022-07-27T08:10:54Z</time>
      </trkpt>
      <trkpt lat="49.79541" lon="2.34721">
        <ele>91.7</ele>
        <time>2022-07-27T08:10:55Z</time>
      </trkpt>
      <trkpt lat="49.79542" lon="2.34719">
        <ele>91.7</ele>
        <time>2022-07-27T08:10:56Z</time>
      </trkpt>
      <trkpt lat="49.79543" lon="2.34718">
        <ele>91.7</ele>
        <time>2022-07-27T08:10:57Z</time>
      </trkpt>
      <trkpt lat="49.79545" lon="2.34716">
        <ele>91.6</ele>
        <time>2022-07-27T08:10:58Z</time>
      </trkpt>
      <trkpt lat="49.79545" lon="2.34715">
        <ele>91.6</ele>
        <time>2022-07-27T08:10:59Z</time>
      </trkpt>
      <trkpt lat="49.79546" lon="2.34714">
        <ele>91.6</ele>
        <time>2022-07-27T08:11:00Z</time>
      </trkpt>
      <trkpt lat="49.79547" lon="2.34712">
        <ele>91.6</ele>
        <time>2022-07-27T08:11:01Z</time>
      </trkpt>
      <trkpt lat="49.79549" lon="2.3471">
        <ele>91.6</ele>
        <time>2022-07-27T08:11:02Z</time>
      </trkpt>
      <trkpt lat="49.7955" lon="2.34709">
        <ele>91.6</ele>
        <time>2022-07-27T08:11:03Z</time>
      </trkpt>
      <trkpt lat="49.7955" lon="2.34708">
        <ele>91.6</ele>
        <time>2022-07-27T08:11:04Z</time>
      </trkpt>
      <trkpt lat="49.79551" lon="2.34706">
        <ele>91.6</ele>
        <time>2022-07-27T08:11:05Z</time>
      </trkpt>
      <trkpt lat="49.79552" lon="2.34705">
        <ele>91.6</ele>
        <time>2022-07-27T08:11:06Z</time>
      </trkpt>
      <trkpt lat="49.79553" lon="2.34704">
        <ele>91.5</ele>
        <time>2022-07-27T08:11:07Z</time>
      </trkpt>
      <trkpt lat="49.79554" lon="2.34702">
        <ele>91.5</ele>
        <time>2022-07-27T08:11:08Z</time>
      </trkpt>
      <trkpt lat="49.79555" lon="2.347">
        <ele>91.5</ele>
        <time>2022-07-27T08:11:09Z</time>
      </trkpt>
      <trkpt lat="49.79555" lon="2.34699">
        <ele>91.5</ele>
        <time>2022-07-27T08:11:10Z</time>
      </trkpt>
      <trkpt lat="49.79556" lon="2.34699">
        <ele>91.5</ele>
        <time>2022-07-27T08:11:11Z</time>
      </trkpt>
      <trkpt lat="49.79556" lon="2.34698">
        <ele>91.5</ele>
        <time>2022-07-27T08:11:12Z</time>
      </trkpt>
      <trkpt lat="49.79557" lon="2.34696">
        <ele>91.4</ele>
        <time>2022-07-27T08:11:13Z</time>
      </trkpt>
      <trkpt lat="49.79558" lon="2.34695">
        <ele>91.4</ele>
        <time>2022-07-27T08:11:14Z</time>
      </trkpt>
      <trkpt lat="49.79559" lon="2.34694">
        <ele>91.4</ele>
        <time>2022-07-27T08:11:15Z</time>
      </trkpt>
      <trkpt lat="49.7956" lon="2.34691">
        <ele>91.4</ele>
        <time>2022-07-27T08:11:16Z</time>
      </trkpt>
      <trkpt lat="49.79561" lon="2.3469">
        <ele>91.3</ele>
        <time>2022-07-27T08:11:17Z</time>
      </trkpt>
      <trkpt lat="49.79562" lon="2.34689">
        <ele>91.3</ele>
        <time>2022-07-27T08:11:18Z</time>
      </trkpt>
      <trkpt lat="49.79562" lon="2.34688">
        <ele>91.3</ele>
        <time>2022-07-27T08:11:19Z</time>
      </trkpt>
      <trkpt lat="49.79563" lon="2.34687">
        <ele>91.3</ele>
        <time>2022-07-27T08:11:20Z</time>
      </trkpt>
      <trkpt lat="49.79564" lon="2.34686">
        <ele>91.2</ele>
        <time>2022-07-27T08:11:21Z</time>
      </trkpt>
      <trkpt lat="49.79564" lon="2.34685">
        <ele>91.2</ele>
        <time>2022-07-27T08:11:22Z</time>
      </trkpt>
      <trkpt lat="49.79565" lon="2.34683">
        <ele>91.2</ele>
        <time>2022-07-27T08:11:23Z</time>
      </trkpt>
      <trkpt lat="49.79566" lon="2.34682">
        <ele>91.2</ele>
        <time>2022-07-27T08:11:24Z</time>
      </trkpt>
      <trkpt lat="49.79567" lon="2.3468">
        <ele>91.2</ele>
        <time>2022-07-27T08:11:25Z</time>
      </trkpt>
      <trkpt lat="49.79567" lon="2.34679">
        <ele>91.1</ele>
        <time>2022-07-27T08:11:26Z</time>
      </trkpt>
      <trkpt lat="49.79568" lon="2.34678">
        <ele>91.1</ele>
        <time>2022-07-27T08:11:27Z</time>
      </trkpt>
      <trkpt lat="49.79569" lon="2.34675">
        <ele>91</ele>
        <time>2022-07-27T08:11:28Z</time>
      </trkpt>
      <trkpt lat="49.7957" lon="2.34674">
        <ele>91</ele>
        <time>2022-07-27T08:11:29Z</time>
      </trkpt>
      <trkpt lat="49.7957" lon="2.34673">
        <ele>91</ele>
        <time>2022-07-27T08:11:30Z</time>
      </trkpt>
      <trkpt lat="49.79571" lon="2.34671">
        <ele>90.9</ele>
        <time>2022-07-27T08:11:31Z</time>
      </trkpt>
      <trkpt lat="49.79572" lon="2.34669">
        <ele>90.9</ele>
        <time>2022-07-27T08:11:32Z</time>
      </trkpt>
      <trkpt lat="49.79572" lon="2.34668">
        <ele>90.9</ele>
        <time>2022-07-27T08:11:33Z</time>
      </trkpt>
      <trkpt lat="49.79573" lon="2.34667">
        <ele>90.9</ele>
        <time>2022-07-27T08:11:34Z</time>
      </trkpt>
      <trkpt lat="49.79573" lon="2.34665">
        <ele>90.8</ele>
        <time>2022-07-27T08:11:35Z</time>
      </trkpt>
      <trkpt lat="49.79574" lon="2.34664">
        <ele>90.8</ele>
        <time>2022-07-27T08:11:36Z</time>
      </trkpt>
      <trkpt lat="49.79574" lon="2.34663">
        <ele>90.8</ele>
        <time>2022-07-27T08:11:37Z</time>
      </trkpt>
      <trkpt lat="49.79575" lon="2.34661">
        <ele>90.7</ele>
        <time>2022-07-27T08:11:38Z</time>
      </trkpt>
      <trkpt lat="49.79575" lon="2.34659">
        <ele>90.7</ele>
        <time>2022-07-27T08:11:39Z</time>
      </trkpt>
      <trkpt lat="49.79576" lon="2.34658">
        <ele>90.7</ele>
        <time>2022-07-27T08:11:40Z</time>
      </trkpt>
      <trkpt lat="49.79577" lon="2.34657">
        <ele>90.6</ele>
        <time>2022-07-27T08:11:41Z</time>
      </trkpt>
      <trkpt lat="49.79577" lon="2.34655">
        <ele>90.6</ele>
        <time>2022-07-27T08:11:42Z</time>
      </trkpt>
      <trkpt lat="49.79579" lon="2.34652">
        <ele>90.5</ele>
        <time>2022-07-27T08:11:43Z</time>
      </trkpt>
      <trkpt lat="49.79579" lon="2.34651">
        <ele>90.5</ele>
        <time>2022-07-27T08:11:44Z</time>
      </trkpt>
      <trkpt lat="49.7958" lon="2.34651">
        <ele>90.5</ele>
        <time>2022-07-27T08:11:45Z</time>
      </trkpt>
      <trkpt lat="49.7958" lon="2.34649">
        <ele>90.5</ele>
        <time>2022-07-27T08:11:46Z</time>
      </trkpt>
      <trkpt lat="49.79581" lon="2.34648">
        <ele>90.4</ele>
        <time>2022-07-27T08:11:47Z</time>
      </trkpt>
      <trkpt lat="49.79582" lon="2.34646">
        <ele>90.4</ele>
        <time>2022-07-27T08:11:48Z</time>
      </trkpt>
      <trkpt lat="49.79582" lon="2.34645">
        <ele>90.4</ele>
        <time>2022-07-27T08:11:49Z</time>
      </trkpt>
      <trkpt lat="49.79583" lon="2.34644">
        <ele>90.4</ele>
        <time>2022-07-27T08:11:50Z</time>
      </trkpt>
      <trkpt lat="49.79583" lon="2.34643">
        <ele>90.3</ele>
        <time>2022-07-27T08:11:51Z</time>
      </trkpt>
      <trkpt lat="49.79584" lon="2.34641">
        <ele>90.3</ele>
        <time>2022-07-27T08:11:52Z</time>
      </trkpt>
      <trkpt lat="49.79586" lon="2.34639">
        <ele>90.3</ele>
        <time>2022-07-27T08:11:53Z</time>
      </trkpt>
      <trkpt lat="49.79586" lon="2.34638">
        <ele>90.2</ele>
        <time>2022-07-27T08:11:54Z</time>
      </trkpt>
      <trkpt lat="49.79587" lon="2.34637">
        <ele>90.2</ele>
        <time>2022-07-27T08:11:55Z</time>
      </trkpt>
      <trkpt lat="49.79588" lon="2.34635">
        <ele>90.2</ele>
        <time>2022-07-27T08:11:56Z</time>
      </trkpt>
      <trkpt lat="49.79589" lon="2.34634">
        <ele>90.1</ele>
        <time>2022-07-27T08:11:57Z</time>
      </trkpt>
      <trkpt lat="49.7959" lon="2.34631">
        <ele>90.1</ele>
        <time>2022-07-27T08:11:58Z</time>
      </trkpt>
      <trkpt lat="49.79591" lon="2.3463">
        <ele>90</ele>
        <time>2022-07-27T08:11:59Z</time>
      </trkpt>
      <trkpt lat="49.79591" lon="2.34629">
        <ele>90</ele>
        <time>2022-07-27T08:12:00Z</time>
      </trkpt>
      <trkpt lat="49.79592" lon="2.34627">
        <ele>90</ele>
        <time>2022-07-27T08:12:01Z</time>
      </trkpt>
      <trkpt lat="49.79592" lon="2.34626">
        <ele>89.9</ele>
        <time>2022-07-27T08:12:02Z</time>
      </trkpt>
      <trkpt lat="49.79593" lon="2.34624">
        <ele>89.9</ele>
        <time>2022-07-27T08:12:03Z</time>
      </trkpt>
      <trkpt lat="49.79594" lon="2.34623">
        <ele>89.9</ele>
        <time>2022-07-27T08:12:04Z</time>
      </trkpt>
      <trkpt lat="49.79594" lon="2.34622">
        <ele>89.8</ele>
        <time>2022-07-27T08:12:05Z</time>
      </trkpt>
      <trkpt lat="49.79595" lon="2.3462">
        <ele>89.8</ele>
        <time>2022-07-27T08:12:06Z</time>
      </trkpt>
      <trkpt lat="49.79595" lon="2.34619">
        <ele>89.8</ele>
        <time>2022-07-27T08:12:07Z</time>
      </trkpt>
      <trkpt lat="49.79596" lon="2.34616">
        <ele>89.7</ele>
        <time>2022-07-27T08:12:08Z</time>
      </trkpt>
      <trkpt lat="49.79597" lon="2.34615">
        <ele>89.7</ele>
        <time>2022-07-27T08:12:09Z</time>
      </trkpt>
      <trkpt lat="49.79597" lon="2.34613">
        <ele>89.7</ele>
        <time>2022-07-27T08:12:10Z</time>
      </trkpt>
      <trkpt lat="49.79598" lon="2.34612">
        <ele>89.6</ele>
        <time>2022-07-27T08:12:11Z</time>
      </trkpt>
      <trkpt lat="49.79599" lon="2.3461">
        <ele>89.6</ele>
        <time>2022-07-27T08:12:12Z</time>
      </trkpt>
      <trkpt lat="49.79599" lon="2.34608">
        <ele>89.5</ele>
        <time>2022-07-27T08:12:13Z</time>
      </trkpt>
      <trkpt lat="49.796" lon="2.34607">
        <ele>89.5</ele>
        <time>2022-07-27T08:12:14Z</time>
      </trkpt>
      <trkpt lat="49.796" lon="2.34606">
        <ele>89.5</ele>
        <time>2022-07-27T08:12:15Z</time>
      </trkpt>
      <trkpt lat="49.79601" lon="2.34605">
        <ele>89.4</ele>
        <time>2022-07-27T08:12:16Z</time>
      </trkpt>
      <trkpt lat="49.79601" lon="2.34603">
        <ele>89.4</ele>
        <time>2022-07-27T08:12:17Z</time>
      </trkpt>
      <trkpt lat="49.79602" lon="2.34601">
        <ele>89.4</ele>
        <time>2022-07-27T08:12:18Z</time>
      </trkpt>
      <trkpt lat="49.79602" lon="2.346">
        <ele>89.3</ele>
        <time>2022-07-27T08:12:19Z</time>
      </trkpt>
      <trkpt lat="49.79603" lon="2.34599">
        <ele>89.3</ele>
        <time>2022-07-27T08:12:20Z</time>
      </trkpt>
      <trkpt lat="49.79603" lon="2.34597">
        <ele>89.3</ele>
        <time>2022-07-27T08:12:21Z</time>
      </trkpt>
      <trkpt lat="49.79604" lon="2.34594">
        <ele>89.2</ele>
        <time>2022-07-27T08:12:22Z</time>
      </trkpt>
      <trkpt lat="49.79605" lon="2.34593">
        <ele>89.1</ele>
        <time>2022-07-27T08:12:23Z</time>
      </trkpt>
      <trkpt lat="49.79605" lon="2.34591">
        <ele>89.1</ele>
        <time>2022-07-27T08:12:24Z</time>
      </trkpt>
      <trkpt lat="49.79606" lon="2.3459">
        <ele>89.1</ele>
        <time>2022-07-27T08:12:25Z</time>
      </trkpt>
      <trkpt lat="49.79606" lon="2.34589">
        <ele>89</ele>
        <time>2022-07-27T08:12:26Z</time>
      </trkpt>
      <trkpt lat="49.79607" lon="2.34588">
        <ele>89</ele>
        <time>2022-07-27T08:12:27Z</time>
      </trkpt>
      <trkpt lat="49.79607" lon="2.34586">
        <ele>89</ele>
        <time>2022-07-27T08:12:28Z</time>
      </trkpt>
      <trkpt lat="49.79608" lon="2.34584">
        <ele>88.9</ele>
        <time>2022-07-27T08:12:29Z</time>
      </trkpt>
      <trkpt lat="49.79608" lon="2.34583">
        <ele>88.9</ele>
        <time>2022-07-27T08:12:30Z</time>
      </trkpt>
      <trkpt lat="49.79609" lon="2.34582">
        <ele>88.8</ele>
        <time>2022-07-27T08:12:31Z</time>
      </trkpt>
      <trkpt lat="49.79609" lon="2.3458">
        <ele>88.8</ele>
        <time>2022-07-27T08:12:32Z</time>
      </trkpt>
      <trkpt lat="49.7961" lon="2.34579">
        <ele>88.7</ele>
        <time>2022-07-27T08:12:33Z</time>
      </trkpt>
      <trkpt lat="49.79611" lon="2.34576">
        <ele>88.6</ele>
        <time>2022-07-27T08:12:34Z</time>
      </trkpt>
      <trkpt lat="49.79612" lon="2.34575">
        <ele>88.6</ele>
        <time>2022-07-27T08:12:35Z</time>
      </trkpt>
      <trkpt lat="49.79612" lon="2.34574">
        <ele>88.5</ele>
        <time>2022-07-27T08:12:36Z</time>
      </trkpt>
      <trkpt lat="49.79613" lon="2.34572">
        <ele>88.5</ele>
        <time>2022-07-27T08:12:37Z</time>
      </trkpt>
      <trkpt lat="49.79613" lon="2.34571">
        <ele>88.4</ele>
        <time>2022-07-27T08:12:38Z</time>
      </trkpt>
      <trkpt lat="49.79614" lon="2.3457">
        <ele>88.4</ele>
        <time>2022-07-27T08:12:39Z</time>
      </trkpt>
      <trkpt lat="49.79614" lon="2.34568">
        <ele>88.3</ele>
        <time>2022-07-27T08:12:40Z</time>
      </trkpt>
      <trkpt lat="49.79614" lon="2.34567">
        <ele>88.3</ele>
        <time>2022-07-27T08:12:41Z</time>
      </trkpt>
      <trkpt lat="49.79615" lon="2.34566">
        <ele>88.2</ele>
        <time>2022-07-27T08:12:42Z</time>
      </trkpt>
      <trkpt lat="49.79615" lon="2.34564">
        <ele>88.2</ele>
        <time>2022-07-27T08:12:43Z</time>
      </trkpt>
      <trkpt lat="49.79616" lon="2.34562">
        <ele>88.1</ele>
        <time>2022-07-27T08:12:44Z</time>
      </trkpt>
      <trkpt lat="49.79616" lon="2.34561">
        <ele>88</ele>
        <time>2022-07-27T08:12:45Z</time>
      </trkpt>
      <trkpt lat="49.79617" lon="2.34559">
        <ele>88</ele>
        <time>2022-07-27T08:12:46Z</time>
      </trkpt>
      <trkpt lat="49.79617" lon="2.34558">
        <ele>87.9</ele>
        <time>2022-07-27T08:12:47Z</time>
      </trkpt>
      <trkpt lat="49.79618" lon="2.34556">
        <ele>87.8</ele>
        <time>2022-07-27T08:12:48Z</time>
      </trkpt>
      <trkpt lat="49.79619" lon="2.34554">
        <ele>87.7</ele>
        <time>2022-07-27T08:12:49Z</time>
      </trkpt>
      <trkpt lat="49.79619" lon="2.34553">
        <ele>87.7</ele>
        <time>2022-07-27T08:12:50Z</time>
      </trkpt>
      <trkpt lat="49.7962" lon="2.34551">
        <ele>87.6</ele>
        <time>2022-07-27T08:12:51Z</time>
      </trkpt>
      <trkpt lat="49.7962" lon="2.3455">
        <ele>87.6</ele>
        <time>2022-07-27T08:12:52Z</time>
      </trkpt>
      <trkpt lat="49.7962" lon="2.34549">
        <ele>87.5</ele>
        <time>2022-07-27T08:12:53Z</time>
      </trkpt>
      <trkpt lat="49.79621" lon="2.34547">
        <ele>87.4</ele>
        <time>2022-07-27T08:12:54Z</time>
      </trkpt>
      <trkpt lat="49.79621" lon="2.34545">
        <ele>87.4</ele>
        <time>2022-07-27T08:12:55Z</time>
      </trkpt>
      <trkpt lat="49.79622" lon="2.34544">
        <ele>87.3</ele>
        <time>2022-07-27T08:12:56Z</time>
      </trkpt>
      <trkpt lat="49.79623" lon="2.34543">
        <ele>87.2</ele>
        <time>2022-07-27T08:12:57Z</time>
      </trkpt>
      <trkpt lat="49.79623" lon="2.34541">
        <ele>87.1</ele>
        <time>2022-07-27T08:12:58Z</time>
      </trkpt>
      <trkpt lat="49.79624" lon="2.34539">
        <ele>87</ele>
        <time>2022-07-27T08:12:59Z</time>
      </trkpt>
      <trkpt lat="49.79625" lon="2.34538">
        <ele>87</ele>
        <time>2022-07-27T08:13:00Z</time>
      </trkpt>
      <trkpt lat="49.79625" lon="2.34536">
        <ele>86.9</ele>
        <time>2022-07-27T08:13:01Z</time>
      </trkpt>
      <trkpt lat="49.79626" lon="2.34535">
        <ele>86.8</ele>
        <time>2022-07-27T08:13:02Z</time>
      </trkpt>
      <trkpt lat="49.79626" lon="2.34534">
        <ele>86.8</ele>
        <time>2022-07-27T08:13:03Z</time>
      </trkpt>
      <trkpt lat="49.79627" lon="2.34532">
        <ele>86.7</ele>
        <time>2022-07-27T08:13:04Z</time>
      </trkpt>
      <trkpt lat="49.79627" lon="2.3453">
        <ele>86.6</ele>
        <time>2022-07-27T08:13:05Z</time>
      </trkpt>
      <trkpt lat="49.79627" lon="2.34529">
        <ele>86.6</ele>
        <time>2022-07-27T08:13:06Z</time>
      </trkpt>
      <trkpt lat="49.79628" lon="2.34527">
        <ele>86.5</ele>
        <time>2022-07-27T08:13:07Z</time>
      </trkpt>
      <trkpt lat="49.79628" lon="2.34525">
        <ele>86.4</ele>
        <time>2022-07-27T08:13:08Z</time>
      </trkpt>
      <trkpt lat="49.79629" lon="2.34522">
        <ele>86.3</ele>
        <time>2022-07-27T08:13:09Z</time>
      </trkpt>
      <trkpt lat="49.79629" lon="2.34521">
        <ele>86.3</ele>
        <time>2022-07-27T08:13:10Z</time>
      </trkpt>
      <trkpt lat="49.7963" lon="2.3452">
        <ele>86.2</ele>
        <time>2022-07-27T08:13:11Z</time>
      </trkpt>
      <trkpt lat="49.7963" lon="2.34518">
        <ele>86.1</ele>
        <time>2022-07-27T08:13:12Z</time>
      </trkpt>
      <trkpt lat="49.79631" lon="2.34516">
        <ele>86.1</ele>
        <time>2022-07-27T08:13:13Z</time>
      </trkpt>
      <trkpt lat="49.79632" lon="2.34514">
        <ele>86</ele>
        <time>2022-07-27T08:13:14Z</time>
      </trkpt>
      <trkpt lat="49.79632" lon="2.34513">
        <ele>86</ele>
        <time>2022-07-27T08:13:15Z</time>
      </trkpt>
      <trkpt lat="49.79633" lon="2.34512">
        <ele>85.9</ele>
        <time>2022-07-27T08:13:16Z</time>
      </trkpt>
      <trkpt lat="49.79633" lon="2.3451">
        <ele>85.9</ele>
        <time>2022-07-27T08:13:17Z</time>
      </trkpt>
      <trkpt lat="49.79634" lon="2.34509">
        <ele>85.8</ele>
        <time>2022-07-27T08:13:18Z</time>
      </trkpt>
      <trkpt lat="49.79634" lon="2.34507">
        <ele>85.8</ele>
        <time>2022-07-27T08:13:19Z</time>
      </trkpt>
      <trkpt lat="49.79635" lon="2.34506">
        <ele>85.7</ele>
        <time>2022-07-27T08:13:20Z</time>
      </trkpt>
      <trkpt lat="49.79635" lon="2.34504">
        <ele>85.7</ele>
        <time>2022-07-27T08:13:21Z</time>
      </trkpt>
      <trkpt lat="49.79636" lon="2.34503">
        <ele>85.6</ele>
        <time>2022-07-27T08:13:22Z</time>
      </trkpt>
      <trkpt lat="49.79637" lon="2.34501">
        <ele>85.6</ele>
        <time>2022-07-27T08:13:23Z</time>
      </trkpt>
      <trkpt lat="49.79638" lon="2.34499">
        <ele>85.5</ele>
        <time>2022-07-27T08:13:24Z</time>
      </trkpt>
      <trkpt lat="49.79638" lon="2.34498">
        <ele>85.5</ele>
        <time>2022-07-27T08:13:25Z</time>
      </trkpt>
      <trkpt lat="49.79639" lon="2.34497">
        <ele>85.5</ele>
        <time>2022-07-27T08:13:26Z</time>
      </trkpt>
      <trkpt lat="49.79639" lon="2.34496">
        <ele>85.5</ele>
        <time>2022-07-27T08:13:27Z</time>
      </trkpt>
      <trkpt lat="49.7964" lon="2.34494">
        <ele>85.4</ele>
        <time>2022-07-27T08:13:28Z</time>
      </trkpt>
      <trkpt lat="49.7964" lon="2.34492">
        <ele>85.4</ele>
        <time>2022-07-27T08:13:29Z</time>
      </trkpt>
      <trkpt lat="49.79641" lon="2.34491">
        <ele>85.4</ele>
        <time>2022-07-27T08:13:30Z</time>
      </trkpt>
      <trkpt lat="49.79641" lon="2.3449">
        <ele>85.3</ele>
        <time>2022-07-27T08:13:31Z</time>
      </trkpt>
      <trkpt lat="49.79643" lon="2.34487">
        <ele>85.3</ele>
        <time>2022-07-27T08:13:32Z</time>
      </trkpt>
      <trkpt lat="49.79643" lon="2.34486">
        <ele>85.3</ele>
        <time>2022-07-27T08:13:33Z</time>
      </trkpt>
      <trkpt lat="49.79644" lon="2.34485">
        <ele>85.3</ele>
        <time>2022-07-27T08:13:34Z</time>
      </trkpt>
      <trkpt lat="49.79644" lon="2.34484">
        <ele>85.3</ele>
        <time>2022-07-27T08:13:35Z</time>
      </trkpt>
      <trkpt lat="49.79645" lon="2.34483">
        <ele>85.3</ele>
        <time>2022-07-27T08:13:36Z</time>
      </trkpt>
      <trkpt lat="49.79645" lon="2.34482">
        <ele>85.2</ele>
        <time>2022-07-27T08:13:37Z</time>
      </trkpt>
      <trkpt lat="49.79646" lon="2.34481">
        <ele>85.2</ele>
        <time>2022-07-27T08:13:38Z</time>
      </trkpt>
      <trkpt lat="49.79646" lon="2.34479">
        <ele>85.2</ele>
        <time>2022-07-27T08:13:39Z</time>
      </trkpt>
      <trkpt lat="49.79647" lon="2.34478">
        <ele>85.2</ele>
        <time>2022-07-27T08:13:40Z</time>
      </trkpt>
      <trkpt lat="49.79647" lon="2.34477">
        <ele>85.2</ele>
        <time>2022-07-27T08:13:41Z</time>
      </trkpt>
      <trkpt lat="49.79648" lon="2.34475">
        <ele>85.2</ele>
        <time>2022-07-27T08:13:42Z</time>
      </trkpt>
      <trkpt lat="49.79648" lon="2.34474">
        <ele>85.2</ele>
        <time>2022-07-27T08:13:43Z</time>
      </trkpt>
      <trkpt lat="49.79649" lon="2.34473">
        <ele>85.2</ele>
        <time>2022-07-27T08:13:44Z</time>
      </trkpt>
      <trkpt lat="49.79649" lon="2.34471">
        <ele>85.2</ele>
        <time>2022-07-27T08:13:45Z</time>
      </trkpt>
      <trkpt lat="49.7965" lon="2.3447">
        <ele>85.3</ele>
        <time>2022-07-27T08:13:46Z</time>
      </trkpt>
      <trkpt lat="49.7965" lon="2.34469">
        <ele>85.3</ele>
        <time>2022-07-27T08:13:47Z</time>
      </trkpt>
      <trkpt lat="49.79651" lon="2.34467">
        <ele>85.3</ele>
        <time>2022-07-27T08:13:48Z</time>
      </trkpt>
      <trkpt lat="49.79652" lon="2.34466">
        <ele>85.3</ele>
        <time>2022-07-27T08:13:49Z</time>
      </trkpt>
      <trkpt lat="49.79652" lon="2.34464">
        <ele>85.3</ele>
        <time>2022-07-27T08:13:50Z</time>
      </trkpt>
      <trkpt lat="49.79653" lon="2.34463">
        <ele>85.3</ele>
        <time>2022-07-27T08:13:51Z</time>
      </trkpt>
      <trkpt lat="49.79653" lon="2.34462">
        <ele>85.4</ele>
        <time>2022-07-27T08:13:52Z</time>
      </trkpt>
      <trkpt lat="49.79654" lon="2.3446">
        <ele>85.4</ele>
        <time>2022-07-27T08:13:53Z</time>
      </trkpt>
      <trkpt lat="49.79654" lon="2.34459">
        <ele>85.4</ele>
        <time>2022-07-27T08:13:54Z</time>
      </trkpt>
      <trkpt lat="49.79655" lon="2.34458">
        <ele>85.4</ele>
        <time>2022-07-27T08:13:55Z</time>
      </trkpt>
      <trkpt lat="49.79656" lon="2.34456">
        <ele>85.5</ele>
        <time>2022-07-27T08:13:56Z</time>
      </trkpt>
      <trkpt lat="49.79657" lon="2.34454">
        <ele>85.5</ele>
        <time>2022-07-27T08:13:57Z</time>
      </trkpt>
      <trkpt lat="49.79658" lon="2.34453">
        <ele>85.5</ele>
        <time>2022-07-27T08:13:58Z</time>
      </trkpt>
      <trkpt lat="49.79658" lon="2.34452">
        <ele>85.5</ele>
        <time>2022-07-27T08:13:59Z</time>
      </trkpt>
      <trkpt lat="49.79659" lon="2.3445">
        <ele>85.6</ele>
        <time>2022-07-27T08:14:00Z</time>
      </trkpt>
      <trkpt lat="49.7966" lon="2.34449">
        <ele>85.6</ele>
        <time>2022-07-27T08:14:01Z</time>
      </trkpt>
      <trkpt lat="49.7966" lon="2.34448">
        <ele>85.6</ele>
        <time>2022-07-27T08:14:02Z</time>
      </trkpt>
      <trkpt lat="49.79661" lon="2.34447">
        <ele>85.7</ele>
        <time>2022-07-27T08:14:03Z</time>
      </trkpt>
      <trkpt lat="49.79662" lon="2.34445">
        <ele>85.7</ele>
        <time>2022-07-27T08:14:04Z</time>
      </trkpt>
      <trkpt lat="49.79662" lon="2.34444">
        <ele>85.7</ele>
        <time>2022-07-27T08:14:05Z</time>
      </trkpt>
      <trkpt lat="49.79662" lon="2.34442">
        <ele>85.8</ele>
        <time>2022-07-27T08:14:06Z</time>
      </trkpt>
      <trkpt lat="49.79663" lon="2.34441">
        <ele>85.8</ele>
        <time>2022-07-27T08:14:07Z</time>
      </trkpt>
      <trkpt lat="49.79664" lon="2.34439">
        <ele>85.8</ele>
        <time>2022-07-27T08:14:08Z</time>
      </trkpt>
      <trkpt lat="49.79664" lon="2.34437">
        <ele>85.9</ele>
        <time>2022-07-27T08:14:09Z</time>
      </trkpt>
      <trkpt lat="49.79664" lon="2.34436">
        <ele>85.9</ele>
        <time>2022-07-27T08:14:10Z</time>
      </trkpt>
      <trkpt lat="49.79665" lon="2.34435">
        <ele>85.9</ele>
        <time>2022-07-27T08:14:11Z</time>
      </trkpt>
      <trkpt lat="49.79665" lon="2.34433">
        <ele>86</ele>
        <time>2022-07-27T08:14:12Z</time>
      </trkpt>
      <trkpt lat="49.79666" lon="2.34432">
        <ele>86</ele>
        <time>2022-07-27T08:14:13Z</time>
      </trkpt>
      <trkpt lat="49.79667" lon="2.3443">
        <ele>86</ele>
        <time>2022-07-27T08:14:14Z</time>
      </trkpt>
      <trkpt lat="49.79667" lon="2.34428">
        <ele>86.1</ele>
        <time>2022-07-27T08:14:15Z</time>
      </trkpt>
      <trkpt lat="49.79668" lon="2.34427">
        <ele>86.1</ele>
        <time>2022-07-27T08:14:16Z</time>
      </trkpt>
      <trkpt lat="49.79669" lon="2.34425">
        <ele>86.1</ele>
        <time>2022-07-27T08:14:17Z</time>
      </trkpt>
      <trkpt lat="49.79669" lon="2.34424">
        <ele>86.1</ele>
        <time>2022-07-27T08:14:18Z</time>
      </trkpt>
      <trkpt lat="49.7967" lon="2.34422">
        <ele>86.2</ele>
        <time>2022-07-27T08:14:19Z</time>
      </trkpt>
      <trkpt lat="49.7967" lon="2.34421">
        <ele>86.2</ele>
        <time>2022-07-27T08:14:20Z</time>
      </trkpt>
      <trkpt lat="49.79671" lon="2.34419">
        <ele>86.2</ele>
        <time>2022-07-27T08:14:21Z</time>
      </trkpt>
      <trkpt lat="49.79671" lon="2.34418">
        <ele>86.2</ele>
        <time>2022-07-27T08:14:22Z</time>
      </trkpt>
      <trkpt lat="49.79672" lon="2.34416">
        <ele>86.2</ele>
        <time>2022-07-27T08:14:23Z</time>
      </trkpt>
      <trkpt lat="49.79673" lon="2.34413">
        <ele>86.3</ele>
        <time>2022-07-27T08:14:24Z</time>
      </trkpt>
      <trkpt lat="49.79674" lon="2.34412">
        <ele>86.3</ele>
        <time>2022-07-27T08:14:25Z</time>
      </trkpt>
      <trkpt lat="49.79674" lon="2.34411">
        <ele>86.3</ele>
        <time>2022-07-27T08:14:26Z</time>
      </trkpt>
      <trkpt lat="49.79675" lon="2.3441">
        <ele>86.3</ele>
        <time>2022-07-27T08:14:27Z</time>
      </trkpt>
      <trkpt lat="49.79675" lon="2.34408">
        <ele>86.3</ele>
        <time>2022-07-27T08:14:28Z</time>
      </trkpt>
      <trkpt lat="49.79676" lon="2.34407">
        <ele>86.3</ele>
        <time>2022-07-27T08:14:29Z</time>
      </trkpt>
      <trkpt lat="49.79676" lon="2.34406">
        <ele>86.3</ele>
        <time>2022-07-27T08:14:30Z</time>
      </trkpt>
      <trkpt lat="49.79677" lon="2.34404">
        <ele>86.3</ele>
        <time>2022-07-27T08:14:31Z</time>
      </trkpt>
      <trkpt lat="49.79677" lon="2.34403">
        <ele>86.3</ele>
        <time>2022-07-27T08:14:32Z</time>
      </trkpt>
      <trkpt lat="49.79678" lon="2.34402">
        <ele>86.3</ele>
        <time>2022-07-27T08:14:33Z</time>
      </trkpt>
      <trkpt lat="49.79678" lon="2.344">
        <ele>86.3</ele>
        <time>2022-07-27T08:14:34Z</time>
      </trkpt>
      <trkpt lat="49.79679" lon="2.34398">
        <ele>86.3</ele>
        <time>2022-07-27T08:14:35Z</time>
      </trkpt>
      <trkpt lat="49.7968" lon="2.34396">
        <ele>86.2</ele>
        <time>2022-07-27T08:14:36Z</time>
      </trkpt>
      <trkpt lat="49.7968" lon="2.34395">
        <ele>86.2</ele>
        <time>2022-07-27T08:14:37Z</time>
      </trkpt>
      <trkpt lat="49.79681" lon="2.34394">
        <ele>86.2</ele>
        <time>2022-07-27T08:14:38Z</time>
      </trkpt>
      <trkpt lat="49.79682" lon="2.34392">
        <ele>86.2</ele>
        <time>2022-07-27T08:14:39Z</time>
      </trkpt>
      <trkpt lat="49.79682" lon="2.34391">
        <ele>86.2</ele>
        <time>2022-07-27T08:14:40Z</time>
      </trkpt>
      <trkpt lat="49.79683" lon="2.34389">
        <ele>86.2</ele>
        <time>2022-07-27T08:14:41Z</time>
      </trkpt>
      <trkpt lat="49.79684" lon="2.34387">
        <ele>86.1</ele>
        <time>2022-07-27T08:14:42Z</time>
      </trkpt>
      <trkpt lat="49.79684" lon="2.34385">
        <ele>86.1</ele>
        <time>2022-07-27T08:14:43Z</time>
      </trkpt>
      <trkpt lat="49.79685" lon="2.34384">
        <ele>86.1</ele>
        <time>2022-07-27T08:14:44Z</time>
      </trkpt>
      <trkpt lat="49.79685" lon="2.34383">
        <ele>86.1</ele>
        <time>2022-07-27T08:14:45Z</time>
      </trkpt>
      <trkpt lat="49.79686" lon="2.34382">
        <ele>86</ele>
        <time>2022-07-27T08:14:46Z</time>
      </trkpt>
      <trkpt lat="49.79687" lon="2.34381">
        <ele>86</ele>
        <time>2022-07-27T08:14:47Z</time>
      </trkpt>
      <trkpt lat="49.79687" lon="2.34379">
        <ele>85.9</ele>
        <time>2022-07-27T08:14:48Z</time>
      </trkpt>
      <trkpt lat="49.79688" lon="2.34377">
        <ele>85.9</ele>
        <time>2022-07-27T08:14:49Z</time>
      </trkpt>
      <trkpt lat="49.79689" lon="2.34376">
        <ele>85.9</ele>
        <time>2022-07-27T08:14:50Z</time>
      </trkpt>
      <trkpt lat="49.7969" lon="2.34375">
        <ele>85.8</ele>
        <time>2022-07-27T08:14:51Z</time>
      </trkpt>
      <trkpt lat="49.7969" lon="2.34373">
        <ele>85.8</ele>
        <time>2022-07-27T08:14:52Z</time>
      </trkpt>
      <trkpt lat="49.79691" lon="2.34372">
        <ele>85.8</ele>
        <time>2022-07-27T08:14:53Z</time>
      </trkpt>
      <trkpt lat="49.79691" lon="2.3437">
        <ele>85.7</ele>
        <time>2022-07-27T08:14:54Z</time>
      </trkpt>
      <trkpt lat="49.79692" lon="2.3437">
        <ele>85.7</ele>
        <time>2022-07-27T08:14:55Z</time>
      </trkpt>
      <trkpt lat="49.79692" lon="2.34368">
        <ele>85.7</ele>
        <time>2022-07-27T08:14:56Z</time>
      </trkpt>
      <trkpt lat="49.79693" lon="2.34367">
        <ele>85.6</ele>
        <time>2022-07-27T08:14:57Z</time>
      </trkpt>
      <trkpt lat="49.79693" lon="2.34365">
        <ele>85.6</ele>
        <time>2022-07-27T08:14:58Z</time>
      </trkpt>
      <trkpt lat="49.79694" lon="2.34363">
        <ele>85.5</ele>
        <time>2022-07-27T08:14:59Z</time>
      </trkpt>
      <trkpt lat="49.79695" lon="2.34362">
        <ele>85.5</ele>
        <time>2022-07-27T08:15:00Z</time>
      </trkpt>
      <trkpt lat="49.79696" lon="2.34361">
        <ele>85.4</ele>
        <time>2022-07-27T08:15:01Z</time>
      </trkpt>
      <trkpt lat="49.79696" lon="2.3436">
        <ele>85.4</ele>
        <time>2022-07-27T08:15:02Z</time>
      </trkpt>
      <trkpt lat="49.79697" lon="2.34359">
        <ele>85.3</ele>
        <time>2022-07-27T08:15:03Z</time>
      </trkpt>
      <trkpt lat="49.79698" lon="2.34358">
        <ele>85.3</ele>
        <time>2022-07-27T08:15:04Z</time>
      </trkpt>
      <trkpt lat="49.79698" lon="2.34357">
        <ele>85.2</ele>
        <time>2022-07-27T08:15:05Z</time>
      </trkpt>
      <trkpt lat="49.79699" lon="2.34355">
        <ele>85.2</ele>
        <time>2022-07-27T08:15:06Z</time>
      </trkpt>
      <trkpt lat="49.797" lon="2.34354">
        <ele>85.1</ele>
        <time>2022-07-27T08:15:07Z</time>
      </trkpt>
      <trkpt lat="49.797" lon="2.34353">
        <ele>85.1</ele>
        <time>2022-07-27T08:15:08Z</time>
      </trkpt>
      <trkpt lat="49.79701" lon="2.34352">
        <ele>85</ele>
        <time>2022-07-27T08:15:09Z</time>
      </trkpt>
      <trkpt lat="49.79701" lon="2.34351">
        <ele>85</ele>
        <time>2022-07-27T08:15:10Z</time>
      </trkpt>
      <trkpt lat="49.79702" lon="2.3435">
        <ele>84.9</ele>
        <time>2022-07-27T08:15:11Z</time>
      </trkpt>
      <trkpt lat="49.79703" lon="2.34349">
        <ele>84.9</ele>
        <time>2022-07-27T08:15:12Z</time>
      </trkpt>
      <trkpt lat="49.79703" lon="2.34348">
        <ele>84.8</ele>
        <time>2022-07-27T08:15:13Z</time>
      </trkpt>
      <trkpt lat="49.79704" lon="2.34346">
        <ele>84.7</ele>
        <time>2022-07-27T08:15:14Z</time>
      </trkpt>
      <trkpt lat="49.79705" lon="2.34346">
        <ele>84.7</ele>
        <time>2022-07-27T08:15:15Z</time>
      </trkpt>
      <trkpt lat="49.79706" lon="2.34344">
        <ele>84.6</ele>
        <time>2022-07-27T08:15:16Z</time>
      </trkpt>
      <trkpt lat="49.79707" lon="2.34343">
        <ele>84.5</ele>
        <time>2022-07-27T08:15:17Z</time>
      </trkpt>
      <trkpt lat="49.79707" lon="2.34342">
        <ele>84.5</ele>
        <time>2022-07-27T08:15:18Z</time>
      </trkpt>
      <trkpt lat="49.79708" lon="2.34341">
        <ele>84.4</ele>
        <time>2022-07-27T08:15:19Z</time>
      </trkpt>
      <trkpt lat="49.79709" lon="2.3434">
        <ele>84.4</ele>
        <time>2022-07-27T08:15:20Z</time>
      </trkpt>
      <trkpt lat="49.79709" lon="2.34339">
        <ele>84.3</ele>
        <time>2022-07-27T08:15:21Z</time>
      </trkpt>
      <trkpt lat="49.7971" lon="2.34338">
        <ele>84.2</ele>
        <time>2022-07-27T08:15:22Z</time>
      </trkpt>
      <trkpt lat="49.79711" lon="2.34336">
        <ele>84.2</ele>
        <time>2022-07-27T08:15:23Z</time>
      </trkpt>
      <trkpt lat="49.79712" lon="2.34335">
        <ele>84.1</ele>
        <time>2022-07-27T08:15:24Z</time>
      </trkpt>
      <trkpt lat="49.79713" lon="2.34334">
        <ele>84</ele>
        <time>2022-07-27T08:15:25Z</time>
      </trkpt>
      <trkpt lat="49.79714" lon="2.34333">
        <ele>83.9</ele>
        <time>2022-07-27T08:15:26Z</time>
      </trkpt>
      <trkpt lat="49.79715" lon="2.34332">
        <ele>83.9</ele>
        <time>2022-07-27T08:15:27Z</time>
      </trkpt>
      <trkpt lat="49.79716" lon="2.34332">
        <ele>83.8</ele>
        <time>2022-07-27T08:15:28Z</time>
      </trkpt>
      <trkpt lat="49.79717" lon="2.34331">
        <ele>83.7</ele>
        <time>2022-07-27T08:15:29Z</time>
      </trkpt>
      <trkpt lat="49.79717" lon="2.3433">
        <ele>83.7</ele>
        <time>2022-07-27T08:15:30Z</time>
      </trkpt>
      <trkpt lat="49.79718" lon="2.34329">
        <ele>83.6</ele>
        <time>2022-07-27T08:15:31Z</time>
      </trkpt>
      <trkpt lat="49.79719" lon="2.34328">
        <ele>83.6</ele>
        <time>2022-07-27T08:15:32Z</time>
      </trkpt>
      <trkpt lat="49.7972" lon="2.34327">
        <ele>83.5</ele>
        <time>2022-07-27T08:15:33Z</time>
      </trkpt>
      <trkpt lat="49.79722" lon="2.34325">
        <ele>83.3</ele>
        <time>2022-07-27T08:15:34Z</time>
      </trkpt>
      <trkpt lat="49.79722" lon="2.34324">
        <ele>83.3</ele>
        <time>2022-07-27T08:15:35Z</time>
      </trkpt>
      <trkpt lat="49.79723" lon="2.34323">
        <ele>83.2</ele>
        <time>2022-07-27T08:15:36Z</time>
      </trkpt>
      <trkpt lat="49.79724" lon="2.3432">
        <ele>83.1</ele>
        <time>2022-07-27T08:15:37Z</time>
      </trkpt>
      <trkpt lat="49.79725" lon="2.34319">
        <ele>83</ele>
        <time>2022-07-27T08:15:38Z</time>
      </trkpt>
      <trkpt lat="49.79726" lon="2.34318">
        <ele>82.9</ele>
        <time>2022-07-27T08:15:39Z</time>
      </trkpt>
      <trkpt lat="49.79727" lon="2.34317">
        <ele>82.8</ele>
        <time>2022-07-27T08:15:40Z</time>
      </trkpt>
      <trkpt lat="49.79727" lon="2.34316">
        <ele>82.8</ele>
        <time>2022-07-27T08:15:41Z</time>
      </trkpt>
      <trkpt lat="49.79728" lon="2.34315">
        <ele>82.7</ele>
        <time>2022-07-27T08:15:42Z</time>
      </trkpt>
      <trkpt lat="49.79728" lon="2.34314">
        <ele>82.6</ele>
        <time>2022-07-27T08:15:43Z</time>
      </trkpt>
      <trkpt lat="49.7973" lon="2.34312">
        <ele>82.5</ele>
        <time>2022-07-27T08:15:44Z</time>
      </trkpt>
      <trkpt lat="49.79731" lon="2.34311">
        <ele>82.4</ele>
        <time>2022-07-27T08:15:45Z</time>
      </trkpt>
      <trkpt lat="49.79731" lon="2.34311">
        <ele>82.4</ele>
        <time>2022-07-27T08:15:46Z</time>
      </trkpt>
      <trkpt lat="49.79732" lon="2.3431">
        <ele>82.3</ele>
        <time>2022-07-27T08:15:47Z</time>
      </trkpt>
      <trkpt lat="49.79733" lon="2.34309">
        <ele>82.2</ele>
        <time>2022-07-27T08:15:48Z</time>
      </trkpt>
      <trkpt lat="49.79734" lon="2.34308">
        <ele>82.1</ele>
        <time>2022-07-27T08:15:49Z</time>
      </trkpt>
      <trkpt lat="49.79735" lon="2.34307">
        <ele>82</ele>
        <time>2022-07-27T08:15:50Z</time>
      </trkpt>
      <trkpt lat="49.79737" lon="2.34305">
        <ele>81.8</ele>
        <time>2022-07-27T08:15:51Z</time>
      </trkpt>
      <trkpt lat="49.79739" lon="2.34304">
        <ele>81.6</ele>
        <time>2022-07-27T08:15:52Z</time>
      </trkpt>
      <trkpt lat="49.79739" lon="2.34303">
        <ele>81.6</ele>
        <time>2022-07-27T08:15:53Z</time>
      </trkpt>
      <trkpt lat="49.7974" lon="2.34302">
        <ele>81.5</ele>
        <time>2022-07-27T08:15:54Z</time>
      </trkpt>
      <trkpt lat="49.79741" lon="2.34302">
        <ele>81.4</ele>
        <time>2022-07-27T08:15:55Z</time>
      </trkpt>
      <trkpt lat="49.79742" lon="2.34301">
        <ele>81.4</ele>
        <time>2022-07-27T08:15:56Z</time>
      </trkpt>
      <trkpt lat="49.79742" lon="2.343">
        <ele>81.3</ele>
        <time>2022-07-27T08:15:57Z</time>
      </trkpt>
      <trkpt lat="49.79743" lon="2.34299">
        <ele>81.2</ele>
        <time>2022-07-27T08:15:58Z</time>
      </trkpt>
      <trkpt lat="49.79744" lon="2.34298">
        <ele>81.1</ele>
        <time>2022-07-27T08:15:59Z</time>
      </trkpt>
      <trkpt lat="49.79745" lon="2.34297">
        <ele>81</ele>
        <time>2022-07-27T08:16:00Z</time>
      </trkpt>
      <trkpt lat="49.79747" lon="2.34295">
        <ele>80.8</ele>
        <time>2022-07-27T08:16:01Z</time>
      </trkpt>
      <trkpt lat="49.79747" lon="2.34294">
        <ele>80.8</ele>
        <time>2022-07-27T08:16:02Z</time>
      </trkpt>
      <trkpt lat="49.79748" lon="2.34293">
        <ele>80.7</ele>
        <time>2022-07-27T08:16:03Z</time>
      </trkpt>
      <trkpt lat="49.7975" lon="2.34292">
        <ele>80.6</ele>
        <time>2022-07-27T08:16:04Z</time>
      </trkpt>
      <trkpt lat="49.7975" lon="2.34291">
        <ele>80.5</ele>
        <time>2022-07-27T08:16:05Z</time>
      </trkpt>
      <trkpt lat="49.79751" lon="2.3429">
        <ele>80.4</ele>
        <time>2022-07-27T08:16:06Z</time>
      </trkpt>
      <trkpt lat="49.79752" lon="2.34289">
        <ele>80.4</ele>
        <time>2022-07-27T08:16:07Z</time>
      </trkpt>
      <trkpt lat="49.79753" lon="2.34288">
        <ele>80.3</ele>
        <time>2022-07-27T08:16:08Z</time>
      </trkpt>
      <trkpt lat="49.79754" lon="2.34287">
        <ele>80.2</ele>
        <time>2022-07-27T08:16:09Z</time>
      </trkpt>
      <trkpt lat="49.79754" lon="2.34286">
        <ele>80.1</ele>
        <time>2022-07-27T08:16:10Z</time>
      </trkpt>
      <trkpt lat="49.79756" lon="2.34285">
        <ele>80</ele>
        <time>2022-07-27T08:16:11Z</time>
      </trkpt>
      <trkpt lat="49.79757" lon="2.34284">
        <ele>79.9</ele>
        <time>2022-07-27T08:16:12Z</time>
      </trkpt>
      <trkpt lat="49.79757" lon="2.34283">
        <ele>79.9</ele>
        <time>2022-07-27T08:16:13Z</time>
      </trkpt>
      <trkpt lat="49.79758" lon="2.34282">
        <ele>79.8</ele>
        <time>2022-07-27T08:16:14Z</time>
      </trkpt>
      <trkpt lat="49.79759" lon="2.34281">
        <ele>79.8</ele>
        <time>2022-07-27T08:16:15Z</time>
      </trkpt>
      <trkpt lat="49.7976" lon="2.3428">
        <ele>79.7</ele>
        <time>2022-07-27T08:16:16Z</time>
      </trkpt>
      <trkpt lat="49.7976" lon="2.3428">
        <ele>79.6</ele>
        <time>2022-07-27T08:16:17Z</time>
      </trkpt>
      <trkpt lat="49.79761" lon="2.34279">
        <ele>79.6</ele>
        <time>2022-07-27T08:16:18Z</time>
      </trkpt>
      <trkpt lat="49.79762" lon="2.34278">
        <ele>79.5</ele>
        <time>2022-07-27T08:16:19Z</time>
      </trkpt>
      <trkpt lat="49.79763" lon="2.34277">
        <ele>79.5</ele>
        <time>2022-07-27T08:16:20Z</time>
      </trkpt>
      <trkpt lat="49.79764" lon="2.34276">
        <ele>79.4</ele>
        <time>2022-07-27T08:16:21Z</time>
      </trkpt>
      <trkpt lat="49.79765" lon="2.34275">
        <ele>79.3</ele>
        <time>2022-07-27T08:16:22Z</time>
      </trkpt>
      <trkpt lat="49.79765" lon="2.34274">
        <ele>79.2</ele>
        <time>2022-07-27T08:16:23Z</time>
      </trkpt>
      <trkpt lat="49.79766" lon="2.34273">
        <ele>79.2</ele>
        <time>2022-07-27T08:16:24Z</time>
      </trkpt>
      <trkpt lat="49.79767" lon="2.34272">
        <ele>79.1</ele>
        <time>2022-07-27T08:16:25Z</time>
      </trkpt>
      <trkpt lat="49.79769" lon="2.34271">
        <ele>79</ele>
        <time>2022-07-27T08:16:26Z</time>
      </trkpt>
      <trkpt lat="49.79769" lon="2.3427">
        <ele>79</ele>
        <time>2022-07-27T08:16:27Z</time>
      </trkpt>
      <trkpt lat="49.7977" lon="2.34269">
        <ele>78.9</ele>
        <time>2022-07-27T08:16:28Z</time>
      </trkpt>
      <trkpt lat="49.79771" lon="2.34268">
        <ele>78.9</ele>
        <time>2022-07-27T08:16:29Z</time>
      </trkpt>
      <trkpt lat="49.79772" lon="2.34266">
        <ele>78.7</ele>
        <time>2022-07-27T08:16:30Z</time>
      </trkpt>
      <trkpt lat="49.79773" lon="2.34265">
        <ele>78.7</ele>
        <time>2022-07-27T08:16:31Z</time>
      </trkpt>
      <trkpt lat="49.79774" lon="2.34264">
        <ele>78.7</ele>
        <time>2022-07-27T08:16:32Z</time>
      </trkpt>
      <trkpt lat="49.79774" lon="2.34263">
        <ele>78.6</ele>
        <time>2022-07-27T08:16:33Z</time>
      </trkpt>
      <trkpt lat="49.79775" lon="2.34262">
        <ele>78.5</ele>
        <time>2022-07-27T08:16:34Z</time>
      </trkpt>
      <trkpt lat="49.79776" lon="2.34261">
        <ele>78.5</ele>
        <time>2022-07-27T08:16:35Z</time>
      </trkpt>
      <trkpt lat="49.79777" lon="2.34259">
        <ele>78.4</ele>
        <time>2022-07-27T08:16:36Z</time>
      </trkpt>
      <trkpt lat="49.79778" lon="2.34258">
        <ele>78.4</ele>
        <time>2022-07-27T08:16:37Z</time>
      </trkpt>
      <trkpt lat="49.79778" lon="2.34257">
        <ele>78.3</ele>
        <time>2022-07-27T08:16:38Z</time>
      </trkpt>
      <trkpt lat="49.7978" lon="2.34254">
        <ele>78.2</ele>
        <time>2022-07-27T08:16:39Z</time>
      </trkpt>
      <trkpt lat="49.79781" lon="2.34253">
        <ele>78.2</ele>
        <time>2022-07-27T08:16:40Z</time>
      </trkpt>
      <trkpt lat="49.79781" lon="2.34252">
        <ele>78.1</ele>
        <time>2022-07-27T08:16:41Z</time>
      </trkpt>
      <trkpt lat="49.79782" lon="2.34251">
        <ele>78.1</ele>
        <time>2022-07-27T08:16:42Z</time>
      </trkpt>
      <trkpt lat="49.79783" lon="2.3425">
        <ele>78</ele>
        <time>2022-07-27T08:16:43Z</time>
      </trkpt>
      <trkpt lat="49.79784" lon="2.34249">
        <ele>77.9</ele>
        <time>2022-07-27T08:16:44Z</time>
      </trkpt>
      <trkpt lat="49.79785" lon="2.34248">
        <ele>77.9</ele>
        <time>2022-07-27T08:16:45Z</time>
      </trkpt>
      <trkpt lat="49.79786" lon="2.34247">
        <ele>77.8</ele>
        <time>2022-07-27T08:16:46Z</time>
      </trkpt>
      <trkpt lat="49.79786" lon="2.34246">
        <ele>77.8</ele>
        <time>2022-07-27T08:16:47Z</time>
      </trkpt>
      <trkpt lat="49.79787" lon="2.34245">
        <ele>77.7</ele>
        <time>2022-07-27T08:16:48Z</time>
      </trkpt>
      <trkpt lat="49.79788" lon="2.34243">
        <ele>77.7</ele>
        <time>2022-07-27T08:16:49Z</time>
      </trkpt>
      <trkpt lat="49.79789" lon="2.34242">
        <ele>77.6</ele>
        <time>2022-07-27T08:16:50Z</time>
      </trkpt>
      <trkpt lat="49.7979" lon="2.3424">
        <ele>77.6</ele>
        <time>2022-07-27T08:16:51Z</time>
      </trkpt>
      <trkpt lat="49.79791" lon="2.34239">
        <ele>77.5</ele>
        <time>2022-07-27T08:16:52Z</time>
      </trkpt>
      <trkpt lat="49.79791" lon="2.34238">
        <ele>77.5</ele>
        <time>2022-07-27T08:16:53Z</time>
      </trkpt>
      <trkpt lat="49.79792" lon="2.34236">
        <ele>77.4</ele>
        <time>2022-07-27T08:16:54Z</time>
      </trkpt>
      <trkpt lat="49.79793" lon="2.34235">
        <ele>77.4</ele>
        <time>2022-07-27T08:16:55Z</time>
      </trkpt>
      <trkpt lat="49.79794" lon="2.34233">
        <ele>77.3</ele>
        <time>2022-07-27T08:16:56Z</time>
      </trkpt>
      <trkpt lat="49.79795" lon="2.34232">
        <ele>77.3</ele>
        <time>2022-07-27T08:16:57Z</time>
      </trkpt>
      <trkpt lat="49.79796" lon="2.34231">
        <ele>77.2</ele>
        <time>2022-07-27T08:16:58Z</time>
      </trkpt>
      <trkpt lat="49.79796" lon="2.3423">
        <ele>77.1</ele>
        <time>2022-07-27T08:16:59Z</time>
      </trkpt>
      <trkpt lat="49.79797" lon="2.34229">
        <ele>77.1</ele>
        <time>2022-07-27T08:17:00Z</time>
      </trkpt>
      <trkpt lat="49.79798" lon="2.34227">
        <ele>77</ele>
        <time>2022-07-27T08:17:01Z</time>
      </trkpt>
      <trkpt lat="49.79799" lon="2.34226">
        <ele>77</ele>
        <time>2022-07-27T08:17:02Z</time>
      </trkpt>
      <trkpt lat="49.798" lon="2.34225">
        <ele>76.9</ele>
        <time>2022-07-27T08:17:03Z</time>
      </trkpt>
      <trkpt lat="49.798" lon="2.34225">
        <ele>76.9</ele>
        <time>2022-07-27T08:17:04Z</time>
      </trkpt>
      <trkpt lat="49.79801" lon="2.34224">
        <ele>76.8</ele>
        <time>2022-07-27T08:17:05Z</time>
      </trkpt>
      <trkpt lat="49.79802" lon="2.34222">
        <ele>76.7</ele>
        <time>2022-07-27T08:17:06Z</time>
      </trkpt>
      <trkpt lat="49.79803" lon="2.34221">
        <ele>76.7</ele>
        <time>2022-07-27T08:17:07Z</time>
      </trkpt>
      <trkpt lat="49.79804" lon="2.3422">
        <ele>76.6</ele>
        <time>2022-07-27T08:17:08Z</time>
      </trkpt>
      <trkpt lat="49.79804" lon="2.34218">
        <ele>76.6</ele>
        <time>2022-07-27T08:17:09Z</time>
      </trkpt>
      <trkpt lat="49.79805" lon="2.34217">
        <ele>76.5</ele>
        <time>2022-07-27T08:17:10Z</time>
      </trkpt>
      <trkpt lat="49.79807" lon="2.34215">
        <ele>76.5</ele>
        <time>2022-07-27T08:17:11Z</time>
      </trkpt>
      <trkpt lat="49.79808" lon="2.34213">
        <ele>76.4</ele>
        <time>2022-07-27T08:17:12Z</time>
      </trkpt>
      <trkpt lat="49.79809" lon="2.34213">
        <ele>76.3</ele>
        <time>2022-07-27T08:17:13Z</time>
      </trkpt>
      <trkpt lat="49.7981" lon="2.34212">
        <ele>76.3</ele>
        <time>2022-07-27T08:17:14Z</time>
      </trkpt>
      <trkpt lat="49.79811" lon="2.3421">
        <ele>76.2</ele>
        <time>2022-07-27T08:17:15Z</time>
      </trkpt>
      <trkpt lat="49.79812" lon="2.34209">
        <ele>76.2</ele>
        <time>2022-07-27T08:17:16Z</time>
      </trkpt>
      <trkpt lat="49.79813" lon="2.34208">
        <ele>76.2</ele>
        <time>2022-07-27T08:17:17Z</time>
      </trkpt>
      <trkpt lat="49.79814" lon="2.34207">
        <ele>76.1</ele>
        <time>2022-07-27T08:17:18Z</time>
      </trkpt>
      <trkpt lat="49.79814" lon="2.34206">
        <ele>76.1</ele>
        <time>2022-07-27T08:17:19Z</time>
      </trkpt>
      <trkpt lat="49.79815" lon="2.34205">
        <ele>76.1</ele>
        <time>2022-07-27T08:17:20Z</time>
      </trkpt>
      <trkpt lat="49.79817" lon="2.34203">
        <ele>76</ele>
        <time>2022-07-27T08:17:21Z</time>
      </trkpt>
      <trkpt lat="49.79817" lon="2.34202">
        <ele>76</ele>
        <time>2022-07-27T08:17:22Z</time>
      </trkpt>
      <trkpt lat="49.79818" lon="2.34201">
        <ele>75.9</ele>
        <time>2022-07-27T08:17:23Z</time>
      </trkpt>
      <trkpt lat="49.79819" lon="2.342">
        <ele>75.9</ele>
        <time>2022-07-27T08:17:24Z</time>
      </trkpt>
      <trkpt lat="49.7982" lon="2.34199">
        <ele>75.8</ele>
        <time>2022-07-27T08:17:25Z</time>
      </trkpt>
      <trkpt lat="49.79821" lon="2.34198">
        <ele>75.8</ele>
        <time>2022-07-27T08:17:26Z</time>
      </trkpt>
      <trkpt lat="49.79822" lon="2.34196">
        <ele>75.7</ele>
        <time>2022-07-27T08:17:27Z</time>
      </trkpt>
      <trkpt lat="49.79823" lon="2.34195">
        <ele>75.7</ele>
        <time>2022-07-27T08:17:28Z</time>
      </trkpt>
      <trkpt lat="49.79824" lon="2.34194">
        <ele>75.7</ele>
        <time>2022-07-27T08:17:29Z</time>
      </trkpt>
      <trkpt lat="49.79824" lon="2.34193">
        <ele>75.6</ele>
        <time>2022-07-27T08:17:30Z</time>
      </trkpt>
      <trkpt lat="49.79826" lon="2.34191">
        <ele>75.6</ele>
        <time>2022-07-27T08:17:31Z</time>
      </trkpt>
      <trkpt lat="49.79826" lon="2.34191">
        <ele>75.6</ele>
        <time>2022-07-27T08:17:32Z</time>
      </trkpt>
      <trkpt lat="49.79827" lon="2.3419">
        <ele>75.5</ele>
        <time>2022-07-27T08:17:33Z</time>
      </trkpt>
      <trkpt lat="49.79828" lon="2.34189">
        <ele>75.5</ele>
        <time>2022-07-27T08:17:34Z</time>
      </trkpt>
      <trkpt lat="49.79828" lon="2.34188">
        <ele>75.5</ele>
        <time>2022-07-27T08:17:35Z</time>
      </trkpt>
      <trkpt lat="49.7983" lon="2.34186">
        <ele>75.4</ele>
        <time>2022-07-27T08:17:36Z</time>
      </trkpt>
      <trkpt lat="49.79831" lon="2.34185">
        <ele>75.4</ele>
        <time>2022-07-27T08:17:37Z</time>
      </trkpt>
      <trkpt lat="49.79831" lon="2.34184">
        <ele>75.4</ele>
        <time>2022-07-27T08:17:38Z</time>
      </trkpt>
      <trkpt lat="49.79833" lon="2.34182">
        <ele>75.3</ele>
        <time>2022-07-27T08:17:39Z</time>
      </trkpt>
      <trkpt lat="49.79834" lon="2.34181">
        <ele>75.3</ele>
        <time>2022-07-27T08:17:40Z</time>
      </trkpt>
      <trkpt lat="49.79834" lon="2.3418">
        <ele>75.3</ele>
        <time>2022-07-27T08:17:41Z</time>
      </trkpt>
      <trkpt lat="49.79835" lon="2.34179">
        <ele>75.3</ele>
        <time>2022-07-27T08:17:42Z</time>
      </trkpt>
      <trkpt lat="49.79836" lon="2.34178">
        <ele>75.2</ele>
        <time>2022-07-27T08:17:43Z</time>
      </trkpt>
      <trkpt lat="49.79837" lon="2.34176">
        <ele>75.2</ele>
        <time>2022-07-27T08:17:44Z</time>
      </trkpt>
      <trkpt lat="49.79837" lon="2.34175">
        <ele>75.2</ele>
        <time>2022-07-27T08:17:45Z</time>
      </trkpt>
      <trkpt lat="49.79838" lon="2.34174">
        <ele>75.2</ele>
        <time>2022-07-27T08:17:46Z</time>
      </trkpt>
      <trkpt lat="49.79839" lon="2.34173">
        <ele>75.2</ele>
        <time>2022-07-27T08:17:47Z</time>
      </trkpt>
      <trkpt lat="49.7984" lon="2.34172">
        <ele>75.1</ele>
        <time>2022-07-27T08:17:48Z</time>
      </trkpt>
      <trkpt lat="49.7984" lon="2.34171">
        <ele>75.1</ele>
        <time>2022-07-27T08:17:49Z</time>
      </trkpt>
      <trkpt lat="49.79841" lon="2.3417">
        <ele>75.1</ele>
        <time>2022-07-27T08:17:50Z</time>
      </trkpt>
      <trkpt lat="49.79842" lon="2.34169">
        <ele>75.1</ele>
        <time>2022-07-27T08:17:51Z</time>
      </trkpt>
      <trkpt lat="49.79843" lon="2.34168">
        <ele>75.1</ele>
        <time>2022-07-27T08:17:52Z</time>
      </trkpt>
      <trkpt lat="49.79844" lon="2.34167">
        <ele>75.1</ele>
        <time>2022-07-27T08:17:53Z</time>
      </trkpt>
      <trkpt lat="49.79845" lon="2.34166">
        <ele>75.1</ele>
        <time>2022-07-27T08:17:54Z</time>
      </trkpt>
      <trkpt lat="49.79846" lon="2.34164">
        <ele>75</ele>
        <time>2022-07-27T08:17:55Z</time>
      </trkpt>
      <trkpt lat="49.79847" lon="2.34163">
        <ele>75</ele>
        <time>2022-07-27T08:17:56Z</time>
      </trkpt>
      <trkpt lat="49.79847" lon="2.34162">
        <ele>75</ele>
        <time>2022-07-27T08:17:57Z</time>
      </trkpt>
      <trkpt lat="49.79848" lon="2.34161">
        <ele>75</ele>
        <time>2022-07-27T08:17:58Z</time>
      </trkpt>
      <trkpt lat="49.79849" lon="2.3416">
        <ele>75</ele>
        <time>2022-07-27T08:17:59Z</time>
      </trkpt>
      <trkpt lat="49.7985" lon="2.34158">
        <ele>75</ele>
        <time>2022-07-27T08:18:00Z</time>
      </trkpt>
      <trkpt lat="49.79851" lon="2.34157">
        <ele>75</ele>
        <time>2022-07-27T08:18:01Z</time>
      </trkpt>
      <trkpt lat="49.79852" lon="2.34156">
        <ele>75</ele>
        <time>2022-07-27T08:18:02Z</time>
      </trkpt>
      <trkpt lat="49.79852" lon="2.34155">
        <ele>75</ele>
        <time>2022-07-27T08:18:03Z</time>
      </trkpt>
      <trkpt lat="49.79853" lon="2.34154">
        <ele>75</ele>
        <time>2022-07-27T08:18:04Z</time>
      </trkpt>
      <trkpt lat="49.79854" lon="2.34153">
        <ele>75</ele>
        <time>2022-07-27T08:18:05Z</time>
      </trkpt>
      <trkpt lat="49.79855" lon="2.34152">
        <ele>75</ele>
        <time>2022-07-27T08:18:06Z</time>
      </trkpt>
      <trkpt lat="49.79856" lon="2.34151">
        <ele>75</ele>
        <time>2022-07-27T08:18:07Z</time>
      </trkpt>
      <trkpt lat="49.79857" lon="2.3415">
        <ele>75</ele>
        <time>2022-07-27T08:18:08Z</time>
      </trkpt>
      <trkpt lat="49.79857" lon="2.34149">
        <ele>75</ele>
        <time>2022-07-27T08:18:09Z</time>
      </trkpt>
      <trkpt lat="49.79858" lon="2.34148">
        <ele>75</ele>
        <time>2022-07-27T08:18:10Z</time>
      </trkpt>
      <trkpt lat="49.79859" lon="2.34147">
        <ele>75</ele>
        <time>2022-07-27T08:18:11Z</time>
      </trkpt>
      <trkpt lat="49.7986" lon="2.34145">
        <ele>75</ele>
        <time>2022-07-27T08:18:12Z</time>
      </trkpt>
      <trkpt lat="49.79861" lon="2.34144">
        <ele>75</ele>
        <time>2022-07-27T08:18:13Z</time>
      </trkpt>
      <trkpt lat="49.79862" lon="2.34143">
        <ele>75</ele>
        <time>2022-07-27T08:18:14Z</time>
      </trkpt>
      <trkpt lat="49.79863" lon="2.3414">
        <ele>75.1</ele>
        <time>2022-07-27T08:18:15Z</time>
      </trkpt>
      <trkpt lat="49.79864" lon="2.34139">
        <ele>75.1</ele>
        <time>2022-07-27T08:18:16Z</time>
      </trkpt>
      <trkpt lat="49.79864" lon="2.34138">
        <ele>75.1</ele>
        <time>2022-07-27T08:18:17Z</time>
      </trkpt>
      <trkpt lat="49.79865" lon="2.34136">
        <ele>75.1</ele>
        <time>2022-07-27T08:18:18Z</time>
      </trkpt>
      <trkpt lat="49.79866" lon="2.34135">
        <ele>75.1</ele>
        <time>2022-07-27T08:18:19Z</time>
      </trkpt>
      <trkpt lat="49.79866" lon="2.34135">
        <ele>75.2</ele>
        <time>2022-07-27T08:18:20Z</time>
      </trkpt>
      <trkpt lat="49.79867" lon="2.34134">
        <ele>75.2</ele>
        <time>2022-07-27T08:18:21Z</time>
      </trkpt>
      <trkpt lat="49.79868" lon="2.34132">
        <ele>75.2</ele>
        <time>2022-07-27T08:18:22Z</time>
      </trkpt>
      <trkpt lat="49.79869" lon="2.34131">
        <ele>75.2</ele>
        <time>2022-07-27T08:18:23Z</time>
      </trkpt>
      <trkpt lat="49.79869" lon="2.3413">
        <ele>75.3</ele>
        <time>2022-07-27T08:18:24Z</time>
      </trkpt>
      <trkpt lat="49.79871" lon="2.34127">
        <ele>75.3</ele>
        <time>2022-07-27T08:18:25Z</time>
      </trkpt>
      <trkpt lat="49.79871" lon="2.34126">
        <ele>75.3</ele>
        <time>2022-07-27T08:18:26Z</time>
      </trkpt>
      <trkpt lat="49.79872" lon="2.34125">
        <ele>75.4</ele>
        <time>2022-07-27T08:18:27Z</time>
      </trkpt>
      <trkpt lat="49.79873" lon="2.34123">
        <ele>75.4</ele>
        <time>2022-07-27T08:18:28Z</time>
      </trkpt>
      <trkpt lat="49.79873" lon="2.34123">
        <ele>75.4</ele>
        <time>2022-07-27T08:18:29Z</time>
      </trkpt>
      <trkpt lat="49.79874" lon="2.34122">
        <ele>75.5</ele>
        <time>2022-07-27T08:18:30Z</time>
      </trkpt>
      <trkpt lat="49.79874" lon="2.34121">
        <ele>75.5</ele>
        <time>2022-07-27T08:18:31Z</time>
      </trkpt>
      <trkpt lat="49.79875" lon="2.34119">
        <ele>75.5</ele>
        <time>2022-07-27T08:18:32Z</time>
      </trkpt>
      <trkpt lat="49.79876" lon="2.34118">
        <ele>75.6</ele>
        <time>2022-07-27T08:18:33Z</time>
      </trkpt>
      <trkpt lat="49.79877" lon="2.34116">
        <ele>75.6</ele>
        <time>2022-07-27T08:18:34Z</time>
      </trkpt>
      <trkpt lat="49.79878" lon="2.34115">
        <ele>75.7</ele>
        <time>2022-07-27T08:18:35Z</time>
      </trkpt>
      <trkpt lat="49.79879" lon="2.34114">
        <ele>75.7</ele>
        <time>2022-07-27T08:18:36Z</time>
      </trkpt>
      <trkpt lat="49.7988" lon="2.34112">
        <ele>75.8</ele>
        <time>2022-07-27T08:18:37Z</time>
      </trkpt>
      <trkpt lat="49.7988" lon="2.34111">
        <ele>75.8</ele>
        <time>2022-07-27T08:18:38Z</time>
      </trkpt>
      <trkpt lat="49.79881" lon="2.3411">
        <ele>75.8</ele>
        <time>2022-07-27T08:18:39Z</time>
      </trkpt>
      <trkpt lat="49.79882" lon="2.34109">
        <ele>75.9</ele>
        <time>2022-07-27T08:18:40Z</time>
      </trkpt>
      <trkpt lat="49.79882" lon="2.34108">
        <ele>75.9</ele>
        <time>2022-07-27T08:18:41Z</time>
      </trkpt>
      <trkpt lat="49.79883" lon="2.34106">
        <ele>76</ele>
        <time>2022-07-27T08:18:42Z</time>
      </trkpt>
      <trkpt lat="49.79884" lon="2.34105">
        <ele>76</ele>
        <time>2022-07-27T08:18:43Z</time>
      </trkpt>
      <trkpt lat="49.79885" lon="2.34104">
        <ele>76.1</ele>
        <time>2022-07-27T08:18:44Z</time>
      </trkpt>
      <trkpt lat="49.79885" lon="2.34102">
        <ele>76.1</ele>
        <time>2022-07-27T08:18:45Z</time>
      </trkpt>
      <trkpt lat="49.79886" lon="2.341">
        <ele>76.2</ele>
        <time>2022-07-27T08:18:46Z</time>
      </trkpt>
      <trkpt lat="49.79887" lon="2.34099">
        <ele>76.2</ele>
        <time>2022-07-27T08:18:47Z</time>
      </trkpt>
      <trkpt lat="49.79887" lon="2.34098">
        <ele>76.3</ele>
        <time>2022-07-27T08:18:48Z</time>
      </trkpt>
      <trkpt lat="49.79888" lon="2.34097">
        <ele>76.3</ele>
        <time>2022-07-27T08:18:49Z</time>
      </trkpt>
      <trkpt lat="49.79889" lon="2.34096">
        <ele>76.3</ele>
        <time>2022-07-27T08:18:50Z</time>
      </trkpt>
      <trkpt lat="49.79889" lon="2.34094">
        <ele>76.4</ele>
        <time>2022-07-27T08:18:51Z</time>
      </trkpt>
      <trkpt lat="49.7989" lon="2.34093">
        <ele>76.4</ele>
        <time>2022-07-27T08:18:52Z</time>
      </trkpt>
      <trkpt lat="49.7989" lon="2.34092">
        <ele>76.5</ele>
        <time>2022-07-27T08:18:53Z</time>
      </trkpt>
      <trkpt lat="49.79891" lon="2.3409">
        <ele>76.5</ele>
        <time>2022-07-27T08:18:54Z</time>
      </trkpt>
      <trkpt lat="49.79892" lon="2.34089">
        <ele>76.6</ele>
        <time>2022-07-27T08:18:55Z</time>
      </trkpt>
      <trkpt lat="49.79892" lon="2.34087">
        <ele>76.6</ele>
        <time>2022-07-27T08:18:56Z</time>
      </trkpt>
      <trkpt lat="49.79893" lon="2.34086">
        <ele>76.7</ele>
        <time>2022-07-27T08:18:57Z</time>
      </trkpt>
      <trkpt lat="49.79893" lon="2.34085">
        <ele>76.7</ele>
        <time>2022-07-27T08:18:58Z</time>
      </trkpt>
      <trkpt lat="49.79894" lon="2.34083">
        <ele>76.7</ele>
        <time>2022-07-27T08:18:59Z</time>
      </trkpt>
      <trkpt lat="49.79894" lon="2.34082">
        <ele>76.8</ele>
        <time>2022-07-27T08:19:00Z</time>
      </trkpt>
      <trkpt lat="49.79895" lon="2.34079">
        <ele>76.9</ele>
        <time>2022-07-27T08:19:01Z</time>
      </trkpt>
      <trkpt lat="49.79896" lon="2.34078">
        <ele>76.9</ele>
        <time>2022-07-27T08:19:02Z</time>
      </trkpt>
      <trkpt lat="49.79896" lon="2.34077">
        <ele>76.9</ele>
        <time>2022-07-27T08:19:03Z</time>
      </trkpt>
      <trkpt lat="49.79897" lon="2.34075">
        <ele>77</ele>
        <time>2022-07-27T08:19:04Z</time>
      </trkpt>
      <trkpt lat="49.79897" lon="2.34074">
        <ele>77</ele>
        <time>2022-07-27T08:19:05Z</time>
      </trkpt>
      <trkpt lat="49.79898" lon="2.34072">
        <ele>77.1</ele>
        <time>2022-07-27T08:19:06Z</time>
      </trkpt>
      <trkpt lat="49.79898" lon="2.3407">
        <ele>77.1</ele>
        <time>2022-07-27T08:19:07Z</time>
      </trkpt>
      <trkpt lat="49.79899" lon="2.34069">
        <ele>77.2</ele>
        <time>2022-07-27T08:19:08Z</time>
      </trkpt>
      <trkpt lat="49.799" lon="2.34067">
        <ele>77.2</ele>
        <time>2022-07-27T08:19:09Z</time>
      </trkpt>
      <trkpt lat="49.79901" lon="2.34064">
        <ele>77.3</ele>
        <time>2022-07-27T08:19:10Z</time>
      </trkpt>
      <trkpt lat="49.79901" lon="2.34063">
        <ele>77.4</ele>
        <time>2022-07-27T08:19:11Z</time>
      </trkpt>
      <trkpt lat="49.79901" lon="2.34062">
        <ele>77.4</ele>
        <time>2022-07-27T08:19:12Z</time>
      </trkpt>
      <trkpt lat="49.79902" lon="2.3406">
        <ele>77.4</ele>
        <time>2022-07-27T08:19:13Z</time>
      </trkpt>
      <trkpt lat="49.79903" lon="2.34059">
        <ele>77.5</ele>
        <time>2022-07-27T08:19:14Z</time>
      </trkpt>
      <trkpt lat="49.79903" lon="2.34057">
        <ele>77.6</ele>
        <time>2022-07-27T08:19:15Z</time>
      </trkpt>
      <trkpt lat="49.79904" lon="2.34055">
        <ele>77.6</ele>
        <time>2022-07-27T08:19:16Z</time>
      </trkpt>
      <trkpt lat="49.79904" lon="2.34054">
        <ele>77.6</ele>
        <time>2022-07-27T08:19:17Z</time>
      </trkpt>
      <trkpt lat="49.79904" lon="2.34053">
        <ele>77.7</ele>
        <time>2022-07-27T08:19:18Z</time>
      </trkpt>
      <trkpt lat="49.79905" lon="2.34052">
        <ele>77.7</ele>
        <time>2022-07-27T08:19:19Z</time>
      </trkpt>
      <trkpt lat="49.79905" lon="2.3405">
        <ele>77.8</ele>
        <time>2022-07-27T08:19:20Z</time>
      </trkpt>
      <trkpt lat="49.79906" lon="2.34049">
        <ele>77.8</ele>
        <time>2022-07-27T08:19:21Z</time>
      </trkpt>
      <trkpt lat="49.79906" lon="2.34047">
        <ele>77.9</ele>
        <time>2022-07-27T08:19:22Z</time>
      </trkpt>
      <trkpt lat="49.79906" lon="2.34046">
        <ele>77.9</ele>
        <time>2022-07-27T08:19:23Z</time>
      </trkpt>
      <trkpt lat="49.79907" lon="2.34044">
        <ele>78</ele>
        <time>2022-07-27T08:19:24Z</time>
      </trkpt>
      <trkpt lat="49.79907" lon="2.34042">
        <ele>78</ele>
        <time>2022-07-27T08:19:25Z</time>
      </trkpt>
      <trkpt lat="49.79908" lon="2.34041">
        <ele>78</ele>
        <time>2022-07-27T08:19:26Z</time>
      </trkpt>
      <trkpt lat="49.79908" lon="2.3404">
        <ele>78.1</ele>
        <time>2022-07-27T08:19:27Z</time>
      </trkpt>
      <trkpt lat="49.79908" lon="2.34039">
        <ele>78.1</ele>
        <time>2022-07-27T08:19:28Z</time>
      </trkpt>
      <trkpt lat="49.79908" lon="2.34037">
        <ele>78.2</ele>
        <time>2022-07-27T08:19:29Z</time>
      </trkpt>
      <trkpt lat="49.79909" lon="2.34036">
        <ele>78.2</ele>
        <time>2022-07-27T08:19:30Z</time>
      </trkpt>
      <trkpt lat="49.79909" lon="2.34034">
        <ele>78.3</ele>
        <time>2022-07-27T08:19:31Z</time>
      </trkpt>
      <trkpt lat="49.7991" lon="2.34032">
        <ele>78.4</ele>
        <time>2022-07-27T08:19:32Z</time>
      </trkpt>
      <trkpt lat="49.7991" lon="2.34031">
        <ele>78.4</ele>
        <time>2022-07-27T08:19:33Z</time>
      </trkpt>
      <trkpt lat="49.79911" lon="2.3403">
        <ele>78.4</ele>
        <time>2022-07-27T08:19:34Z</time>
      </trkpt>
      <trkpt lat="49.79911" lon="2.34028">
        <ele>78.5</ele>
        <time>2022-07-27T08:19:35Z</time>
      </trkpt>
      <trkpt lat="49.79912" lon="2.34027">
        <ele>78.6</ele>
        <time>2022-07-27T08:19:36Z</time>
      </trkpt>
      <trkpt lat="49.79913" lon="2.34025">
        <ele>78.7</ele>
        <time>2022-07-27T08:19:37Z</time>
      </trkpt>
      <trkpt lat="49.79913" lon="2.34024">
        <ele>78.7</ele>
        <time>2022-07-27T08:19:38Z</time>
      </trkpt>
      <trkpt lat="49.79914" lon="2.34023">
        <ele>78.8</ele>
        <time>2022-07-27T08:19:39Z</time>
      </trkpt>
      <trkpt lat="49.79914" lon="2.34022">
        <ele>78.8</ele>
        <time>2022-07-27T08:19:40Z</time>
      </trkpt>
      <trkpt lat="49.79915" lon="2.3402">
        <ele>78.9</ele>
        <time>2022-07-27T08:19:41Z</time>
      </trkpt>
      <trkpt lat="49.79915" lon="2.34019">
        <ele>79</ele>
        <time>2022-07-27T08:19:42Z</time>
      </trkpt>
      <trkpt lat="49.79916" lon="2.34017">
        <ele>79</ele>
        <time>2022-07-27T08:19:43Z</time>
      </trkpt>
      <trkpt lat="49.79916" lon="2.34016">
        <ele>79.1</ele>
        <time>2022-07-27T08:19:44Z</time>
      </trkpt>
      <trkpt lat="49.79918" lon="2.34013">
        <ele>79.2</ele>
        <time>2022-07-27T08:19:45Z</time>
      </trkpt>
      <trkpt lat="49.79918" lon="2.34012">
        <ele>79.3</ele>
        <time>2022-07-27T08:19:46Z</time>
      </trkpt>
      <trkpt lat="49.79918" lon="2.34011">
        <ele>79.4</ele>
        <time>2022-07-27T08:19:47Z</time>
      </trkpt>
      <trkpt lat="49.79919" lon="2.34009">
        <ele>79.4</ele>
        <time>2022-07-27T08:19:48Z</time>
      </trkpt>
      <trkpt lat="49.7992" lon="2.34008">
        <ele>79.5</ele>
        <time>2022-07-27T08:19:49Z</time>
      </trkpt>
      <trkpt lat="49.7992" lon="2.34007">
        <ele>79.5</ele>
        <time>2022-07-27T08:19:50Z</time>
      </trkpt>
      <trkpt lat="49.7992" lon="2.34006">
        <ele>79.6</ele>
        <time>2022-07-27T08:19:51Z</time>
      </trkpt>
      <trkpt lat="49.79921" lon="2.34004">
        <ele>79.7</ele>
        <time>2022-07-27T08:19:52Z</time>
      </trkpt>
      <trkpt lat="49.79922" lon="2.34003">
        <ele>79.8</ele>
        <time>2022-07-27T08:19:53Z</time>
      </trkpt>
      <trkpt lat="49.79922" lon="2.34002">
        <ele>79.8</ele>
        <time>2022-07-27T08:19:54Z</time>
      </trkpt>
      <trkpt lat="49.79923" lon="2.34001">
        <ele>79.9</ele>
        <time>2022-07-27T08:19:55Z</time>
      </trkpt>
      <trkpt lat="49.79923" lon="2.33999">
        <ele>79.9</ele>
        <time>2022-07-27T08:19:56Z</time>
      </trkpt>
      <trkpt lat="49.79924" lon="2.33997">
        <ele>80.1</ele>
        <time>2022-07-27T08:19:57Z</time>
      </trkpt>
      <trkpt lat="49.79924" lon="2.33997">
        <ele>80.1</ele>
        <time>2022-07-27T08:19:58Z</time>
      </trkpt>
      <trkpt lat="49.79925" lon="2.33995">
        <ele>80.2</ele>
        <time>2022-07-27T08:19:59Z</time>
      </trkpt>
      <trkpt lat="49.79925" lon="2.33994">
        <ele>80.2</ele>
        <time>2022-07-27T08:20:00Z</time>
      </trkpt>
      <trkpt lat="49.79925" lon="2.33992">
        <ele>80.3</ele>
        <time>2022-07-27T08:20:01Z</time>
      </trkpt>
      <trkpt lat="49.79926" lon="2.3399">
        <ele>80.4</ele>
        <time>2022-07-27T08:20:02Z</time>
      </trkpt>
      <trkpt lat="49.79926" lon="2.33989">
        <ele>80.4</ele>
        <time>2022-07-27T08:20:03Z</time>
      </trkpt>
      <trkpt lat="49.79926" lon="2.33988">
        <ele>80.5</ele>
        <time>2022-07-27T08:20:04Z</time>
      </trkpt>
      <trkpt lat="49.79927" lon="2.33986">
        <ele>80.6</ele>
        <time>2022-07-27T08:20:05Z</time>
      </trkpt>
      <trkpt lat="49.79927" lon="2.33985">
        <ele>80.7</ele>
        <time>2022-07-27T08:20:06Z</time>
      </trkpt>
      <trkpt lat="49.79928" lon="2.33983">
        <ele>80.8</ele>
        <time>2022-07-27T08:20:07Z</time>
      </trkpt>
      <trkpt lat="49.79928" lon="2.33982">
        <ele>80.8</ele>
        <time>2022-07-27T08:20:08Z</time>
      </trkpt>
      <trkpt lat="49.79928" lon="2.33981">
        <ele>80.8</ele>
        <time>2022-07-27T08:20:09Z</time>
      </trkpt>
      <trkpt lat="49.79929" lon="2.3398">
        <ele>80.9</ele>
        <time>2022-07-27T08:20:10Z</time>
      </trkpt>
      <trkpt lat="49.79929" lon="2.33978">
        <ele>81</ele>
        <time>2022-07-27T08:20:11Z</time>
      </trkpt>
      <trkpt lat="49.7993" lon="2.33976">
        <ele>81.1</ele>
        <time>2022-07-27T08:20:12Z</time>
      </trkpt>
      <trkpt lat="49.7993" lon="2.33975">
        <ele>81.1</ele>
        <time>2022-07-27T08:20:13Z</time>
      </trkpt>
      <trkpt lat="49.79931" lon="2.33973">
        <ele>81.2</ele>
        <time>2022-07-27T08:20:14Z</time>
      </trkpt>
      <trkpt lat="49.79931" lon="2.33972">
        <ele>81.3</ele>
        <time>2022-07-27T08:20:15Z</time>
      </trkpt>
      <trkpt lat="49.79931" lon="2.33971">
        <ele>81.3</ele>
        <time>2022-07-27T08:20:16Z</time>
      </trkpt>
      <trkpt lat="49.79932" lon="2.33969">
        <ele>81.4</ele>
        <time>2022-07-27T08:20:17Z</time>
      </trkpt>
      <trkpt lat="49.79932" lon="2.33968">
        <ele>81.5</ele>
        <time>2022-07-27T08:20:18Z</time>
      </trkpt>
      <trkpt lat="49.79932" lon="2.33967">
        <ele>81.5</ele>
        <time>2022-07-27T08:20:19Z</time>
      </trkpt>
      <trkpt lat="49.79932" lon="2.33966">
        <ele>81.6</ele>
        <time>2022-07-27T08:20:20Z</time>
      </trkpt>
      <trkpt lat="49.79933" lon="2.33965">
        <ele>81.6</ele>
        <time>2022-07-27T08:20:21Z</time>
      </trkpt>
      <trkpt lat="49.79933" lon="2.33963">
        <ele>81.7</ele>
        <time>2022-07-27T08:20:22Z</time>
      </trkpt>
      <trkpt lat="49.79933" lon="2.33962">
        <ele>81.8</ele>
        <time>2022-07-27T08:20:23Z</time>
      </trkpt>
      <trkpt lat="49.79933" lon="2.33961">
        <ele>81.8</ele>
        <time>2022-07-27T08:20:24Z</time>
      </trkpt>
      <trkpt lat="49.79934" lon="2.3396">
        <ele>81.9</ele>
        <time>2022-07-27T08:20:25Z</time>
      </trkpt>
      <trkpt lat="49.79934" lon="2.33958">
        <ele>82</ele>
        <time>2022-07-27T08:20:26Z</time>
      </trkpt>
      <trkpt lat="49.79934" lon="2.33957">
        <ele>82</ele>
        <time>2022-07-27T08:20:27Z</time>
      </trkpt>
      <trkpt lat="49.79935" lon="2.33955">
        <ele>82.1</ele>
        <time>2022-07-27T08:20:28Z</time>
      </trkpt>
      <trkpt lat="49.79935" lon="2.33954">
        <ele>82.2</ele>
        <time>2022-07-27T08:20:29Z</time>
      </trkpt>
      <trkpt lat="49.79936" lon="2.33953">
        <ele>82.2</ele>
        <time>2022-07-27T08:20:30Z</time>
      </trkpt>
      <trkpt lat="49.79936" lon="2.33952">
        <ele>82.3</ele>
        <time>2022-07-27T08:20:31Z</time>
      </trkpt>
      <trkpt lat="49.79936" lon="2.33951">
        <ele>82.3</ele>
        <time>2022-07-27T08:20:32Z</time>
      </trkpt>
      <trkpt lat="49.79937" lon="2.33949">
        <ele>82.4</ele>
        <time>2022-07-27T08:20:33Z</time>
      </trkpt>
      <trkpt lat="49.79937" lon="2.33949">
        <ele>82.5</ele>
        <time>2022-07-27T08:20:34Z</time>
      </trkpt>
      <trkpt lat="49.79937" lon="2.33948">
        <ele>82.5</ele>
        <time>2022-07-27T08:20:35Z</time>
      </trkpt>
      <trkpt lat="49.79938" lon="2.33946">
        <ele>82.6</ele>
        <time>2022-07-27T08:20:36Z</time>
      </trkpt>
      <trkpt lat="49.79938" lon="2.33945">
        <ele>82.7</ele>
        <time>2022-07-27T08:20:37Z</time>
      </trkpt>
      <trkpt lat="49.79939" lon="2.33943">
        <ele>82.8</ele>
        <time>2022-07-27T08:20:38Z</time>
      </trkpt>
      <trkpt lat="49.7994" lon="2.33942">
        <ele>82.8</ele>
        <time>2022-07-27T08:20:39Z</time>
      </trkpt>
      <trkpt lat="49.7994" lon="2.3394">
        <ele>82.9</ele>
        <time>2022-07-27T08:20:40Z</time>
      </trkpt>
      <trkpt lat="49.79941" lon="2.33939">
        <ele>83</ele>
        <time>2022-07-27T08:20:41Z</time>
      </trkpt>
      <trkpt lat="49.79941" lon="2.33938">
        <ele>83.1</ele>
        <time>2022-07-27T08:20:42Z</time>
      </trkpt>
      <trkpt lat="49.79942" lon="2.33936">
        <ele>83.2</ele>
        <time>2022-07-27T08:20:43Z</time>
      </trkpt>
      <trkpt lat="49.79942" lon="2.33935">
        <ele>83.2</ele>
        <time>2022-07-27T08:20:44Z</time>
      </trkpt>
      <trkpt lat="49.79943" lon="2.33934">
        <ele>83.3</ele>
        <time>2022-07-27T08:20:45Z</time>
      </trkpt>
      <trkpt lat="49.79943" lon="2.33933">
        <ele>83.4</ele>
        <time>2022-07-27T08:20:46Z</time>
      </trkpt>
      <trkpt lat="49.79944" lon="2.33932">
        <ele>83.4</ele>
        <time>2022-07-27T08:20:47Z</time>
      </trkpt>
      <trkpt lat="49.79944" lon="2.33931">
        <ele>83.5</ele>
        <time>2022-07-27T08:20:48Z</time>
      </trkpt>
      <trkpt lat="49.79945" lon="2.3393">
        <ele>83.5</ele>
        <time>2022-07-27T08:20:49Z</time>
      </trkpt>
      <trkpt lat="49.79945" lon="2.33929">
        <ele>83.6</ele>
        <time>2022-07-27T08:20:50Z</time>
      </trkpt>
      <trkpt lat="49.79946" lon="2.33929">
        <ele>83.7</ele>
        <time>2022-07-27T08:20:51Z</time>
      </trkpt>
      <trkpt lat="49.79946" lon="2.33928">
        <ele>83.7</ele>
        <time>2022-07-27T08:20:52Z</time>
      </trkpt>
      <trkpt lat="49.79947" lon="2.33927">
        <ele>83.8</ele>
        <time>2022-07-27T08:20:53Z</time>
      </trkpt>
      <trkpt lat="49.79947" lon="2.33926">
        <ele>83.8</ele>
        <time>2022-07-27T08:20:54Z</time>
      </trkpt>
      <trkpt lat="49.79947" lon="2.33925">
        <ele>83.9</ele>
        <time>2022-07-27T08:20:55Z</time>
      </trkpt>
      <trkpt lat="49.79948" lon="2.33925">
        <ele>83.9</ele>
        <time>2022-07-27T08:20:56Z</time>
      </trkpt>
      <trkpt lat="49.79948" lon="2.33924">
        <ele>84</ele>
        <time>2022-07-27T08:20:57Z</time>
      </trkpt>
      <trkpt lat="49.79949" lon="2.33923">
        <ele>84</ele>
        <time>2022-07-27T08:20:58Z</time>
      </trkpt>
      <trkpt lat="49.7995" lon="2.33923">
        <ele>84.1</ele>
        <time>2022-07-27T08:20:59Z</time>
      </trkpt>
      <trkpt lat="49.7995" lon="2.33923">
        <ele>84.1</ele>
        <time>2022-07-27T08:21:00Z</time>
      </trkpt>
      <trkpt lat="49.79951" lon="2.33923">
        <ele>84.2</ele>
        <time>2022-07-27T08:21:01Z</time>
      </trkpt>
      <trkpt lat="49.79952" lon="2.33923">
        <ele>84.3</ele>
        <time>2022-07-27T08:21:02Z</time>
      </trkpt>
      <trkpt lat="49.79953" lon="2.33923">
        <ele>84.4</ele>
        <time>2022-07-27T08:21:03Z</time>
      </trkpt>
      <trkpt lat="49.79954" lon="2.33923">
        <ele>84.4</ele>
        <time>2022-07-27T08:21:04Z</time>
      </trkpt>
      <trkpt lat="49.79955" lon="2.33922">
        <ele>84.5</ele>
        <time>2022-07-27T08:21:05Z</time>
      </trkpt>
      <trkpt lat="49.79955" lon="2.33922">
        <ele>84.5</ele>
        <time>2022-07-27T08:21:06Z</time>
      </trkpt>
      <trkpt lat="49.79956" lon="2.33921">
        <ele>84.6</ele>
        <time>2022-07-27T08:21:07Z</time>
      </trkpt>
      <trkpt lat="49.79956" lon="2.33921">
        <ele>84.6</ele>
        <time>2022-07-27T08:21:08Z</time>
      </trkpt>
      <trkpt lat="49.79956" lon="2.33921">
        <ele>84.6</ele>
        <time>2022-07-27T08:21:09Z</time>
      </trkpt>
      <trkpt lat="49.79956" lon="2.33921">
        <ele>84.6</ele>
        <time>2022-07-27T08:21:10Z</time>
      </trkpt>
      <trkpt lat="49.79956" lon="2.33921">
        <ele>84.6</ele>
        <time>2022-07-27T08:21:11Z</time>
      </trkpt>
      <trkpt lat="49.79955" lon="2.33921">
        <ele>84.6</ele>
        <time>2022-07-27T08:21:12Z</time>
      </trkpt>
      <trkpt lat="49.79955" lon="2.33921">
        <ele>84.6</ele>
        <time>2022-07-27T08:21:13Z</time>
      </trkpt>
      <trkpt lat="49.79955" lon="2.33921">
        <ele>84.6</ele>
        <time>2022-07-27T08:21:14Z</time>
      </trkpt>
      <trkpt lat="49.79955" lon="2.33921">
        <ele>84.6</ele>
        <time>2022-07-27T08:21:15Z</time>
      </trkpt>
      <trkpt lat="49.79955" lon="2.33921">
        <ele>84.6</ele>
        <time>2022-07-27T08:21:16Z</time>
      </trkpt>
      <trkpt lat="49.79955" lon="2.33921">
        <ele>84.6</ele>
        <time>2022-07-27T08:21:17Z</time>
      </trkpt>
      <trkpt lat="49.79955" lon="2.33921">
        <ele>84.6</ele>
        <time>2022-07-27T08:21:18Z</time>
      </trkpt>
      <trkpt lat="49.79955" lon="2.33922">
        <ele>84.6</ele>
        <time>2022-07-27T08:21:19Z</time>
      </trkpt>
      <trkpt lat="49.79954" lon="2.33922">
        <ele>84.6</ele>
        <time>2022-07-27T08:21:20Z</time>
      </trkpt>
      <trkpt lat="49.79954" lon="2.33922">
        <ele>84.6</ele>
        <time>2022-07-27T08:21:21Z</time>
      </trkpt>
      <trkpt lat="49.79954" lon="2.33922">
        <ele>84.6</ele>
        <time>2022-07-27T08:21:22Z</time>
      </trkpt>
      <trkpt lat="49.79954" lon="2.33922">
        <ele>84.6</ele>
        <time>2022-07-27T08:21:23Z</time>
      </trkpt>
      <trkpt lat="49.79954" lon="2.33922">
        <ele>84.6</ele>
        <time>2022-07-27T08:21:24Z</time>
      </trkpt>
      <trkpt lat="49.79954" lon="2.33922">
        <ele>84.6</ele>
        <time>2022-07-27T08:21:25Z</time>
      </trkpt>
      <trkpt lat="49.79954" lon="2.33922">
        <ele>84.6</ele>
        <time>2022-07-27T08:21:26Z</time>
      </trkpt>
      <trkpt lat="49.79954" lon="2.33922">
        <ele>84.6</ele>
        <time>2022-07-27T08:21:27Z</time>
      </trkpt>
      <trkpt lat="49.79953" lon="2.33922">
        <ele>84.6</ele>
        <time>2022-07-27T08:21:28Z</time>
      </trkpt>
      <trkpt lat="49.79953" lon="2.33923">
        <ele>84.6</ele>
        <time>2022-07-27T08:21:29Z</time>
      </trkpt>
      <trkpt lat="49.79953" lon="2.33923">
        <ele>84.6</ele>
        <time>2022-07-27T08:21:30Z</time>
      </trkpt>
      <trkpt lat="49.79953" lon="2.33923">
        <ele>84.6</ele>
        <time>2022-07-27T08:21:31Z</time>
      </trkpt>
      <trkpt lat="49.79953" lon="2.33923">
        <ele>84.6</ele>
        <time>2022-07-27T08:21:32Z</time>
      </trkpt>
      <trkpt lat="49.79953" lon="2.33923">
        <ele>84.6</ele>
        <time>2022-07-27T08:21:33Z</time>
      </trkpt>
      <trkpt lat="49.79953" lon="2.33923">
        <ele>84.6</ele>
        <time>2022-07-27T08:21:34Z</time>
      </trkpt>
      <trkpt lat="49.79953" lon="2.33923">
        <ele>84.6</ele>
        <time>2022-07-27T08:21:35Z</time>
      </trkpt>
      <trkpt lat="49.79953" lon="2.33923">
        <ele>84.6</ele>
        <time>2022-07-27T08:21:36Z</time>
      </trkpt>
      <trkpt lat="49.79952" lon="2.33923">
        <ele>84.6</ele>
        <time>2022-07-27T08:21:37Z</time>
      </trkpt>
      <trkpt lat="49.79952" lon="2.33923">
        <ele>84.6</ele>
        <time>2022-07-27T08:21:38Z</time>
      </trkpt>
      <trkpt lat="49.79952" lon="2.33923">
        <ele>84.6</ele>
        <time>2022-07-27T08:21:39Z</time>
      </trkpt>
      <trkpt lat="49.79952" lon="2.33924">
        <ele>84.6</ele>
        <time>2022-07-27T08:21:40Z</time>
      </trkpt>
      <trkpt lat="49.79952" lon="2.33924">
        <ele>84.6</ele>
        <time>2022-07-27T08:21:41Z</time>
      </trkpt>
      <trkpt lat="49.79952" lon="2.33924">
        <ele>84.6</ele>
        <time>2022-07-27T08:21:42Z</time>
      </trkpt>
      <trkpt lat="49.7995" lon="2.33926">
        <ele>84.6</ele>
        <time>2022-07-27T08:21:43Z</time>
      </trkpt>
      <trkpt lat="49.7995" lon="2.33926">
        <ele>84.6</ele>
        <time>2022-07-27T08:21:44Z</time>
      </trkpt>
      <trkpt lat="49.7995" lon="2.33926">
        <ele>84.6</ele>
        <time>2022-07-27T08:21:45Z</time>
      </trkpt>
      <trkpt lat="49.7995" lon="2.33927">
        <ele>84.5</ele>
        <time>2022-07-27T08:21:46Z</time>
      </trkpt>
      <trkpt lat="49.7995" lon="2.33927">
        <ele>84.5</ele>
        <time>2022-07-27T08:21:47Z</time>
      </trkpt>
      <trkpt lat="49.7995" lon="2.33927">
        <ele>84.5</ele>
        <time>2022-07-27T08:21:48Z</time>
      </trkpt>
      <trkpt lat="49.7995" lon="2.33927">
        <ele>84.5</ele>
        <time>2022-07-27T08:21:49Z</time>
      </trkpt>
      <trkpt lat="49.7995" lon="2.33927">
        <ele>84.5</ele>
        <time>2022-07-27T08:21:50Z</time>
      </trkpt>
      <trkpt lat="49.7995" lon="2.33927">
        <ele>84.5</ele>
        <time>2022-07-27T08:21:51Z</time>
      </trkpt>
      <trkpt lat="49.7995" lon="2.33927">
        <ele>84.5</ele>
        <time>2022-07-27T08:21:52Z</time>
      </trkpt>
      <trkpt lat="49.7995" lon="2.33927">
        <ele>84.5</ele>
        <time>2022-07-27T08:21:53Z</time>
      </trkpt>
      <trkpt lat="49.7995" lon="2.33928">
        <ele>84.5</ele>
        <time>2022-07-27T08:21:54Z</time>
      </trkpt>
      <trkpt lat="49.7995" lon="2.33928">
        <ele>84.5</ele>
        <time>2022-07-27T08:21:55Z</time>
      </trkpt>
      <trkpt lat="49.7995" lon="2.33928">
        <ele>84.5</ele>
        <time>2022-07-27T08:21:56Z</time>
      </trkpt>
      <trkpt lat="49.7995" lon="2.33928">
        <ele>84.5</ele>
        <time>2022-07-27T08:21:57Z</time>
      </trkpt>
      <trkpt lat="49.7995" lon="2.33928">
        <ele>84.5</ele>
        <time>2022-07-27T08:21:58Z</time>
      </trkpt>
      <trkpt lat="49.7995" lon="2.33928">
        <ele>84.5</ele>
        <time>2022-07-27T08:21:59Z</time>
      </trkpt>
      <trkpt lat="49.7995" lon="2.33928">
        <ele>84.5</ele>
        <time>2022-07-27T08:22:00Z</time>
      </trkpt>
      <trkpt lat="49.7995" lon="2.33928">
        <ele>84.5</ele>
        <time>2022-07-27T08:22:01Z</time>
      </trkpt>
      <trkpt lat="49.7995" lon="2.33928">
        <ele>84.5</ele>
        <time>2022-07-27T08:22:02Z</time>
      </trkpt>
      <trkpt lat="49.7995" lon="2.33928">
        <ele>84.5</ele>
        <time>2022-07-27T08:22:03Z</time>
      </trkpt>
      <trkpt lat="49.7995" lon="2.33928">
        <ele>84.5</ele>
        <time>2022-07-27T08:22:04Z</time>
      </trkpt>
      <trkpt lat="49.7995" lon="2.33928">
        <ele>84.5</ele>
        <time>2022-07-27T08:22:05Z</time>
      </trkpt>
      <trkpt lat="49.7995" lon="2.33928">
        <ele>84.5</ele>
        <time>2022-07-27T08:22:06Z</time>
      </trkpt>
      <trkpt lat="49.7995" lon="2.33928">
        <ele>84.5</ele>
        <time>2022-07-27T08:22:07Z</time>
      </trkpt>
      <trkpt lat="49.7995" lon="2.33928">
        <ele>84.5</ele>
        <time>2022-07-27T08:22:08Z</time>
      </trkpt>
      <trkpt lat="49.7995" lon="2.33928">
        <ele>84.5</ele>
        <time>2022-07-27T08:22:09Z</time>
      </trkpt>
      <trkpt lat="49.7995" lon="2.33928">
        <ele>84.5</ele>
        <time>2022-07-27T08:22:10Z</time>
      </trkpt>
      <trkpt lat="49.7995" lon="2.33928">
        <ele>84.5</ele>
        <time>2022-07-27T08:22:11Z</time>
      </trkpt>
      <trkpt lat="49.7995" lon="2.33928">
        <ele>84.5</ele>
        <time>2022-07-27T08:22:12Z</time>
      </trkpt>
      <trkpt lat="49.7995" lon="2.33928">
        <ele>84.5</ele>
        <time>2022-07-27T08:22:13Z</time>
      </trkpt>
      <trkpt lat="49.7995" lon="2.33928">
        <ele>84.5</ele>
        <time>2022-07-27T08:22:14Z</time>
      </trkpt>
      <trkpt lat="49.7995" lon="2.33928">
        <ele>84.5</ele>
        <time>2022-07-27T08:22:15Z</time>
      </trkpt>
      <trkpt lat="49.7995" lon="2.33928">
        <ele>84.5</ele>
        <time>2022-07-27T08:22:16Z</time>
      </trkpt>
      <trkpt lat="49.7995" lon="2.33928">
        <ele>84.5</ele>
        <time>2022-07-27T08:22:17Z</time>
      </trkpt>
      <trkpt lat="49.7995" lon="2.33928">
        <ele>84.5</ele>
        <time>2022-07-27T08:22:18Z</time>
      </trkpt>
      <trkpt lat="49.7995" lon="2.33928">
        <ele>84.5</ele>
        <time>2022-07-27T08:22:19Z</time>
      </trkpt>
      <trkpt lat="49.7995" lon="2.33928">
        <ele>84.5</ele>
        <time>2022-07-27T08:22:20Z</time>
      </trkpt>
      <trkpt lat="49.7995" lon="2.33928">
        <ele>84.5</ele>
        <time>2022-07-27T08:22:21Z</time>
      </trkpt>
      <trkpt lat="49.7995" lon="2.33928">
        <ele>84.5</ele>
        <time>2022-07-27T08:22:22Z</time>
      </trkpt>
      <trkpt lat="49.7995" lon="2.33928">
        <ele>84.5</ele>
        <time>2022-07-27T08:22:23Z</time>
      </trkpt>
      <trkpt lat="49.7995" lon="2.33928">
        <ele>84.5</ele>
        <time>2022-07-27T08:22:24Z</time>
      </trkpt>
      <trkpt lat="49.7995" lon="2.33928">
        <ele>84.5</ele>
        <time>2022-07-27T08:22:25Z</time>
      </trkpt>
      <trkpt lat="49.7995" lon="2.33928">
        <ele>84.5</ele>
        <time>2022-07-27T08:22:26Z</time>
      </trkpt>
      <trkpt lat="49.7995" lon="2.33928">
        <ele>84.5</ele>
        <time>2022-07-27T08:22:27Z</time>
      </trkpt>
      <trkpt lat="49.7995" lon="2.33928">
        <ele>84.5</ele>
        <time>2022-07-27T08:22:28Z</time>
      </trkpt>
      <trkpt lat="49.7995" lon="2.33928">
        <ele>84.5</ele>
        <time>2022-07-27T08:22:29Z</time>
      </trkpt>
      <trkpt lat="49.7995" lon="2.33928">
        <ele>84.5</ele>
        <time>2022-07-27T08:22:30Z</time>
      </trkpt>
      <trkpt lat="49.7995" lon="2.33928">
        <ele>84.5</ele>
        <time>2022-07-27T08:22:31Z</time>
      </trkpt>
      <trkpt lat="49.7995" lon="2.33928">
        <ele>84.5</ele>
        <time>2022-07-27T08:22:32Z</time>
      </trkpt>
      <trkpt lat="49.7995" lon="2.33928">
        <ele>84.5</ele>
        <time>2022-07-27T08:22:33Z</time>
      </trkpt>
      <trkpt lat="49.7995" lon="2.33928">
        <ele>84.5</ele>
        <time>2022-07-27T08:22:34Z</time>
      </trkpt>
      <trkpt lat="49.7995" lon="2.33928">
        <ele>84.5</ele>
        <time>2022-07-27T08:22:35Z</time>
      </trkpt>
      <trkpt lat="49.7995" lon="2.33928">
        <ele>84.5</ele>
        <time>2022-07-27T08:22:36Z</time>
      </trkpt>
      <trkpt lat="49.7995" lon="2.33928">
        <ele>84.5</ele>
        <time>2022-07-27T08:22:37Z</time>
      </trkpt>
      <trkpt lat="49.7995" lon="2.33928">
        <ele>84.5</ele>
        <time>2022-07-27T08:22:38Z</time>
      </trkpt>
      <trkpt lat="49.7995" lon="2.33928">
        <ele>84.5</ele>
        <time>2022-07-27T08:22:39Z</time>
      </trkpt>
      <trkpt lat="49.7995" lon="2.33928">
        <ele>84.5</ele>
        <time>2022-07-27T08:22:40Z</time>
      </trkpt>
      <trkpt lat="49.7995" lon="2.33928">
        <ele>84.5</ele>
        <time>2022-07-27T08:22:41Z</time>
      </trkpt>
      <trkpt lat="49.7995" lon="2.33928">
        <ele>84.5</ele>
        <time>2022-07-27T08:22:42Z</time>
      </trkpt>
      <trkpt lat="49.7995" lon="2.33928">
        <ele>84.5</ele>
        <time>2022-07-27T08:22:43Z</time>
      </trkpt>
      <trkpt lat="49.7995" lon="2.33928">
        <ele>84.5</ele>
        <time>2022-07-27T08:22:44Z</time>
      </trkpt>
      <trkpt lat="49.7995" lon="2.33928">
        <ele>84.5</ele>
        <time>2022-07-27T08:22:45Z</time>
      </trkpt>
      <trkpt lat="49.7995" lon="2.33928">
        <ele>84.5</ele>
        <time>2022-07-27T08:22:46Z</time>
      </trkpt>
      <trkpt lat="49.7995" lon="2.33928">
        <ele>84.5</ele>
        <time>2022-07-27T08:22:47Z</time>
      </trkpt>
      <trkpt lat="49.7995" lon="2.33928">
        <ele>84.5</ele>
        <time>2022-07-27T08:22:48Z</time>
      </trkpt>
      <trkpt lat="49.7995" lon="2.33928">
        <ele>84.5</ele>
        <time>2022-07-27T08:22:49Z</time>
      </trkpt>
      <trkpt lat="49.7995" lon="2.33928">
        <ele>84.5</ele>
        <time>2022-07-27T08:22:50Z</time>
      </trkpt>
      <trkpt lat="49.7995" lon="2.33928">
        <ele>84.5</ele>
        <time>2022-07-27T08:22:51Z</time>
      </trkpt>
      <trkpt lat="49.7995" lon="2.33928">
        <ele>84.5</ele>
        <time>2022-07-27T08:22:52Z</time>
      </trkpt>
      <trkpt lat="49.7995" lon="2.33928">
        <ele>84.5</ele>
        <time>2022-07-27T08:22:53Z</time>
      </trkpt>
      <trkpt lat="49.7995" lon="2.33928">
        <ele>84.5</ele>
        <time>2022-07-27T08:22:54Z</time>
      </trkpt>
      <trkpt lat="49.7995" lon="2.33928">
        <ele>84.5</ele>
        <time>2022-07-27T08:22:55Z</time>
      </trkpt>
      <trkpt lat="49.7995" lon="2.33928">
        <ele>84.5</ele>
        <time>2022-07-27T08:22:56Z</time>
      </trkpt>
      <trkpt lat="49.7995" lon="2.33928">
        <ele>84.5</ele>
        <time>2022-07-27T08:22:57Z</time>
      </trkpt>
      <trkpt lat="49.7995" lon="2.33928">
        <ele>84.5</ele>
        <time>2022-07-27T08:22:58Z</time>
      </trkpt>
      <trkpt lat="49.7995" lon="2.33928">
        <ele>84.5</ele>
        <time>2022-07-27T08:22:59Z</time>
      </trkpt>
      <trkpt lat="49.7995" lon="2.33928">
        <ele>84.5</ele>
        <time>2022-07-27T08:23:00Z</time>
      </trkpt>
      <trkpt lat="49.7995" lon="2.33928">
        <ele>84.5</ele>
        <time>2022-07-27T08:23:01Z</time>
      </trkpt>
      <trkpt lat="49.7995" lon="2.33928">
        <ele>84.5</ele>
        <time>2022-07-27T08:23:02Z</time>
      </trkpt>
      <trkpt lat="49.7995" lon="2.33928">
        <ele>84.5</ele>
        <time>2022-07-27T08:23:03Z</time>
      </trkpt>
      <trkpt lat="49.7995" lon="2.33928">
        <ele>84.5</ele>
        <time>2022-07-27T08:23:04Z</time>
      </trkpt>
      <trkpt lat="49.7995" lon="2.33928">
        <ele>84.5</ele>
        <time>2022-07-27T08:23:05Z</time>
      </trkpt>
      <trkpt lat="49.7995" lon="2.33928">
        <ele>84.5</ele>
        <time>2022-07-27T08:23:06Z</time>
      </trkpt>
      <trkpt lat="49.7995" lon="2.33928">
        <ele>84.5</ele>
        <time>2022-07-27T08:23:07Z</time>
      </trkpt>
      <trkpt lat="49.7995" lon="2.33928">
        <ele>84.5</ele>
        <time>2022-07-27T08:23:08Z</time>
      </trkpt>
      <trkpt lat="49.7995" lon="2.33928">
        <ele>84.5</ele>
        <time>2022-07-27T08:23:09Z</time>
      </trkpt>
      <trkpt lat="49.7995" lon="2.33928">
        <ele>84.5</ele>
        <time>2022-07-27T08:23:10Z</time>
      </trkpt>
      <trkpt lat="49.7995" lon="2.33928">
        <ele>84.5</ele>
        <time>2022-07-27T08:23:11Z</time>
      </trkpt>
      <trkpt lat="49.7995" lon="2.33928">
        <ele>84.5</ele>
        <time>2022-07-27T08:23:12Z</time>
      </trkpt>
      <trkpt lat="49.7995" lon="2.33928">
        <ele>84.5</ele>
        <time>2022-07-27T08:23:13Z</time>
      </trkpt>
      <trkpt lat="49.7995" lon="2.33928">
        <ele>84.5</ele>
        <time>2022-07-27T08:23:14Z</time>
      </trkpt>
      <trkpt lat="49.7995" lon="2.33928">
        <ele>84.5</ele>
        <time>2022-07-27T08:23:15Z</time>
      </trkpt>
      <trkpt lat="49.7995" lon="2.33928">
        <ele>84.5</ele>
        <time>2022-07-27T08:23:16Z</time>
      </trkpt>
      <trkpt lat="49.7995" lon="2.33928">
        <ele>84.5</ele>
        <time>2022-07-27T08:23:17Z</time>
      </trkpt>
      <trkpt lat="49.7995" lon="2.33928">
        <ele>84.5</ele>
        <time>2022-07-27T08:23:18Z</time>
      </trkpt>
      <trkpt lat="49.7995" lon="2.33928">
        <ele>84.5</ele>
        <time>2022-07-27T08:23:19Z</time>
      </trkpt>
      <trkpt lat="49.7995" lon="2.33928">
        <ele>84.5</ele>
        <time>2022-07-27T08:23:20Z</time>
      </trkpt>
      <trkpt lat="49.7995" lon="2.33928">
        <ele>84.5</ele>
        <time>2022-07-27T08:23:21Z</time>
      </trkpt>
      <trkpt lat="49.7995" lon="2.33928">
        <ele>84.5</ele>
        <time>2022-07-27T08:23:22Z</time>
      </trkpt>
      <trkpt lat="49.7995" lon="2.33928">
        <ele>84.5</ele>
        <time>2022-07-27T08:23:23Z</time>
      </trkpt>
      <trkpt lat="49.7995" lon="2.33928">
        <ele>84.5</ele>
        <time>2022-07-27T08:23:24Z</time>
      </trkpt>
      <trkpt lat="49.7995" lon="2.33928">
        <ele>84.5</ele>
        <time>2022-07-27T08:23:25Z</time>
      </trkpt>
      <trkpt lat="49.7995" lon="2.33928">
        <ele>84.5</ele>
        <time>2022-07-27T08:23:26Z</time>
      </trkpt>
      <trkpt lat="49.7995" lon="2.33928">
        <ele>84.5</ele>
        <time>2022-07-27T08:23:27Z</time>
      </trkpt>
      <trkpt lat="49.7995" lon="2.33928">
        <ele>84.5</ele>
        <time>2022-07-27T08:23:28Z</time>
      </trkpt>
      <trkpt lat="49.7995" lon="2.33928">
        <ele>84.5</ele>
        <time>2022-07-27T08:23:29Z</time>
      </trkpt>
      <trkpt lat="49.7995" lon="2.33928">
        <ele>84.5</ele>
        <time>2022-07-27T08:23:30Z</time>
      </trkpt>
      <trkpt lat="49.7995" lon="2.33928">
        <ele>84.5</ele>
        <time>2022-07-27T08:23:31Z</time>
      </trkpt>
      <trkpt lat="49.7995" lon="2.33928">
        <ele>84.5</ele>
        <time>2022-07-27T08:23:32Z</time>
      </trkpt>
      <trkpt lat="49.7995" lon="2.33928">
        <ele>84.5</ele>
        <time>2022-07-27T08:23:33Z</time>
      </trkpt>
      <trkpt lat="49.7995" lon="2.33928">
        <ele>84.5</ele>
        <time>2022-07-27T08:23:34Z</time>
      </trkpt>
      <trkpt lat="49.7995" lon="2.33928">
        <ele>84.5</ele>
        <time>2022-07-27T08:23:35Z</time>
      </trkpt>
      <trkpt lat="49.7995" lon="2.33928">
        <ele>84.5</ele>
        <time>2022-07-27T08:23:36Z</time>
      </trkpt>
      <trkpt lat="49.7995" lon="2.33928">
        <ele>84.5</ele>
        <time>2022-07-27T08:23:37Z</time>
      </trkpt>
      <trkpt lat="49.7995" lon="2.33928">
        <ele>84.5</ele>
        <time>2022-07-27T08:23:38Z</time>
      </trkpt>
      <trkpt lat="49.79949" lon="2.33927">
        <ele>84.5</ele>
        <time>2022-07-27T08:23:39Z</time>
      </trkpt>
      <trkpt lat="49.79948" lon="2.33928">
        <ele>84.5</ele>
        <time>2022-07-27T08:23:40Z</time>
      </trkpt>
      <trkpt lat="49.79948" lon="2.33929">
        <ele>84.5</ele>
        <time>2022-07-27T08:23:41Z</time>
      </trkpt>
      <trkpt lat="49.79948" lon="2.33929">
        <ele>84.5</ele>
        <time>2022-07-27T08:23:42Z</time>
      </trkpt>
      <trkpt lat="49.79948" lon="2.33929">
        <ele>84.5</ele>
        <time>2022-07-27T08:23:43Z</time>
      </trkpt>
      <trkpt lat="49.79948" lon="2.3393">
        <ele>84.5</ele>
        <time>2022-07-27T08:23:44Z</time>
      </trkpt>
      <trkpt lat="49.79948" lon="2.3393">
        <ele>84.5</ele>
        <time>2022-07-27T08:23:45Z</time>
      </trkpt>
      <trkpt lat="49.79948" lon="2.3393">
        <ele>84.5</ele>
        <time>2022-07-27T08:23:46Z</time>
      </trkpt>
      <trkpt lat="49.79948" lon="2.3393">
        <ele>84.5</ele>
        <time>2022-07-27T08:23:47Z</time>
      </trkpt>
      <trkpt lat="49.79948" lon="2.3393">
        <ele>84.5</ele>
        <time>2022-07-27T08:23:48Z</time>
      </trkpt>
      <trkpt lat="49.79948" lon="2.3393">
        <ele>84.5</ele>
        <time>2022-07-27T08:23:49Z</time>
      </trkpt>
      <trkpt lat="49.79948" lon="2.3393">
        <ele>84.5</ele>
        <time>2022-07-27T08:23:50Z</time>
      </trkpt>
      <trkpt lat="49.79948" lon="2.3393">
        <ele>84.5</ele>
        <time>2022-07-27T08:23:51Z</time>
      </trkpt>
      <trkpt lat="49.79948" lon="2.3393">
        <ele>84.5</ele>
        <time>2022-07-27T08:23:52Z</time>
      </trkpt>
      <trkpt lat="49.79948" lon="2.3393">
        <ele>84.5</ele>
        <time>2022-07-27T08:23:53Z</time>
      </trkpt>
      <trkpt lat="49.79948" lon="2.3393">
        <ele>84.5</ele>
        <time>2022-07-27T08:23:54Z</time>
      </trkpt>
      <trkpt lat="49.79948" lon="2.33929">
        <ele>84.5</ele>
        <time>2022-07-27T08:23:55Z</time>
      </trkpt>
      <trkpt lat="49.79948" lon="2.33929">
        <ele>84.5</ele>
        <time>2022-07-27T08:23:56Z</time>
      </trkpt>
      <trkpt lat="49.79948" lon="2.33929">
        <ele>84.5</ele>
        <time>2022-07-27T08:23:57Z</time>
      </trkpt>
      <trkpt lat="49.79948" lon="2.33929">
        <ele>84.5</ele>
        <time>2022-07-27T08:23:58Z</time>
      </trkpt>
      <trkpt lat="49.79948" lon="2.33929">
        <ele>84.5</ele>
        <time>2022-07-27T08:23:59Z</time>
      </trkpt>
      <trkpt lat="49.79948" lon="2.33929">
        <ele>84.5</ele>
        <time>2022-07-27T08:24:00Z</time>
      </trkpt>
      <trkpt lat="49.79948" lon="2.33929">
        <ele>84.5</ele>
        <time>2022-07-27T08:24:01Z</time>
      </trkpt>
      <trkpt lat="49.79948" lon="2.33929">
        <ele>84.5</ele>
        <time>2022-07-27T08:24:02Z</time>
      </trkpt>
      <trkpt lat="49.79948" lon="2.33929">
        <ele>84.5</ele>
        <time>2022-07-27T08:24:03Z</time>
      </trkpt>
      <trkpt lat="49.79948" lon="2.33929">
        <ele>84.5</ele>
        <time>2022-07-27T08:24:04Z</time>
      </trkpt>
      <trkpt lat="49.79948" lon="2.33929">
        <ele>84.5</ele>
        <time>2022-07-27T08:24:05Z</time>
      </trkpt>
      <trkpt lat="49.79948" lon="2.33929">
        <ele>84.5</ele>
        <time>2022-07-27T08:24:06Z</time>
      </trkpt>
      <trkpt lat="49.79948" lon="2.33929">
        <ele>84.5</ele>
        <time>2022-07-27T08:24:07Z</time>
      </trkpt>
      <trkpt lat="49.79948" lon="2.33929">
        <ele>84.5</ele>
        <time>2022-07-27T08:24:08Z</time>
      </trkpt>
      <trkpt lat="49.79948" lon="2.33929">
        <ele>84.5</ele>
        <time>2022-07-27T08:24:09Z</time>
      </trkpt>
      <trkpt lat="49.79948" lon="2.33929">
        <ele>84.5</ele>
        <time>2022-07-27T08:24:10Z</time>
      </trkpt>
      <trkpt lat="49.79948" lon="2.33929">
        <ele>84.5</ele>
        <time>2022-07-27T08:24:11Z</time>
      </trkpt>
      <trkpt lat="49.79948" lon="2.33929">
        <ele>84.5</ele>
        <time>2022-07-27T08:24:12Z</time>
      </trkpt>
      <trkpt lat="49.79948" lon="2.33928">
        <ele>84.5</ele>
        <time>2022-07-27T08:24:13Z</time>
      </trkpt>
      <trkpt lat="49.79948" lon="2.33928">
        <ele>84.5</ele>
        <time>2022-07-27T08:24:14Z</time>
      </trkpt>
      <trkpt lat="49.79948" lon="2.33928">
        <ele>84.5</ele>
        <time>2022-07-27T08:24:15Z</time>
      </trkpt>
      <trkpt lat="49.79948" lon="2.33928">
        <ele>84.5</ele>
        <time>2022-07-27T08:24:16Z</time>
      </trkpt>
      <trkpt lat="49.79948" lon="2.33928">
        <ele>84.5</ele>
        <time>2022-07-27T08:24:17Z</time>
      </trkpt>
      <trkpt lat="49.79948" lon="2.33928">
        <ele>84.5</ele>
        <time>2022-07-27T08:24:18Z</time>
      </trkpt>
      <trkpt lat="49.79948" lon="2.33927">
        <ele>84.5</ele>
        <time>2022-07-27T08:24:19Z</time>
      </trkpt>
      <trkpt lat="49.79948" lon="2.33927">
        <ele>84.5</ele>
        <time>2022-07-27T08:24:20Z</time>
      </trkpt>
      <trkpt lat="49.79948" lon="2.33927">
        <ele>84.5</ele>
        <time>2022-07-27T08:24:21Z</time>
      </trkpt>
      <trkpt lat="49.79948" lon="2.33927">
        <ele>84.5</ele>
        <time>2022-07-27T08:24:22Z</time>
      </trkpt>
      <trkpt lat="49.79948" lon="2.33927">
        <ele>84.5</ele>
        <time>2022-07-27T08:24:23Z</time>
      </trkpt>
      <trkpt lat="49.79948" lon="2.33927">
        <ele>84.5</ele>
        <time>2022-07-27T08:24:24Z</time>
      </trkpt>
      <trkpt lat="49.79948" lon="2.33927">
        <ele>84.5</ele>
        <time>2022-07-27T08:24:25Z</time>
      </trkpt>
      <trkpt lat="49.79948" lon="2.33927">
        <ele>84.5</ele>
        <time>2022-07-27T08:24:26Z</time>
      </trkpt>
      <trkpt lat="49.79948" lon="2.33927">
        <ele>84.5</ele>
        <time>2022-07-27T08:24:27Z</time>
      </trkpt>
      <trkpt lat="49.79948" lon="2.33927">
        <ele>84.5</ele>
        <time>2022-07-27T08:24:28Z</time>
      </trkpt>
      <trkpt lat="49.79948" lon="2.33927">
        <ele>84.5</ele>
        <time>2022-07-27T08:24:29Z</time>
      </trkpt>
      <trkpt lat="49.79948" lon="2.33927">
        <ele>84.5</ele>
        <time>2022-07-27T08:24:30Z</time>
      </trkpt>
      <trkpt lat="49.79948" lon="2.33927">
        <ele>84.5</ele>
        <time>2022-07-27T08:24:31Z</time>
      </trkpt>
      <trkpt lat="49.79948" lon="2.33927">
        <ele>84.5</ele>
        <time>2022-07-27T08:24:32Z</time>
      </trkpt>
      <trkpt lat="49.79948" lon="2.33927">
        <ele>84.5</ele>
        <time>2022-07-27T08:24:33Z</time>
      </trkpt>
      <trkpt lat="49.79948" lon="2.33927">
        <ele>84.5</ele>
        <time>2022-07-27T08:24:34Z</time>
      </trkpt>
      <trkpt lat="49.79948" lon="2.33927">
        <ele>84.5</ele>
        <time>2022-07-27T08:24:35Z</time>
      </trkpt>
      <trkpt lat="49.79948" lon="2.33927">
        <ele>84.5</ele>
        <time>2022-07-27T08:24:36Z</time>
      </trkpt>
      <trkpt lat="49.79948" lon="2.33927">
        <ele>84.5</ele>
        <time>2022-07-27T08:24:37Z</time>
      </trkpt>
      <trkpt lat="49.79948" lon="2.33927">
        <ele>84.5</ele>
        <time>2022-07-27T08:24:38Z</time>
      </trkpt>
      <trkpt lat="49.79948" lon="2.33927">
        <ele>84.5</ele>
        <time>2022-07-27T08:24:39Z</time>
      </trkpt>
      <trkpt lat="49.79948" lon="2.33927">
        <ele>84.5</ele>
        <time>2022-07-27T08:24:40Z</time>
      </trkpt>
      <trkpt lat="49.79948" lon="2.33927">
        <ele>84.5</ele>
        <time>2022-07-27T08:24:41Z</time>
      </trkpt>
      <trkpt lat="49.79948" lon="2.33927">
        <ele>84.5</ele>
        <time>2022-07-27T08:24:42Z</time>
      </trkpt>
      <trkpt lat="49.79948" lon="2.33927">
        <ele>84.5</ele>
        <time>2022-07-27T08:24:43Z</time>
      </trkpt>
      <trkpt lat="49.79948" lon="2.33927">
        <ele>84.5</ele>
        <time>2022-07-27T08:24:44Z</time>
      </trkpt>
      <trkpt lat="49.79948" lon="2.33927">
        <ele>84.5</ele>
        <time>2022-07-27T08:24:45Z</time>
      </trkpt>
      <trkpt lat="49.79948" lon="2.33927">
        <ele>84.5</ele>
        <time>2022-07-27T08:24:46Z</time>
      </trkpt>
      <trkpt lat="49.79948" lon="2.33927">
        <ele>84.5</ele>
        <time>2022-07-27T08:24:47Z</time>
      </trkpt>
      <trkpt lat="49.79948" lon="2.33927">
        <ele>84.5</ele>
        <time>2022-07-27T08:24:48Z</time>
      </trkpt>
      <trkpt lat="49.79948" lon="2.33927">
        <ele>84.5</ele>
        <time>2022-07-27T08:24:49Z</time>
      </trkpt>
      <trkpt lat="49.79948" lon="2.33927">
        <ele>84.5</ele>
        <time>2022-07-27T08:24:50Z</time>
      </trkpt>
      <trkpt lat="49.79948" lon="2.33927">
        <ele>84.5</ele>
        <time>2022-07-27T08:24:51Z</time>
      </trkpt>
      <trkpt lat="49.79948" lon="2.33927">
        <ele>84.5</ele>
        <time>2022-07-27T08:24:52Z</time>
      </trkpt>
      <trkpt lat="49.79948" lon="2.33927">
        <ele>84.5</ele>
        <time>2022-07-27T08:24:53Z</time>
      </trkpt>
      <trkpt lat="49.79948" lon="2.33927">
        <ele>84.5</ele>
        <time>2022-07-27T08:24:54Z</time>
      </trkpt>
      <trkpt lat="49.79948" lon="2.33927">
        <ele>84.5</ele>
        <time>2022-07-27T08:24:55Z</time>
      </trkpt>
      <trkpt lat="49.79948" lon="2.33927">
        <ele>84.5</ele>
        <time>2022-07-27T08:24:56Z</time>
      </trkpt>
      <trkpt lat="49.79948" lon="2.33927">
        <ele>84.5</ele>
        <time>2022-07-27T08:24:57Z</time>
      </trkpt>
      <trkpt lat="49.79948" lon="2.33927">
        <ele>84.5</ele>
        <time>2022-07-27T08:24:58Z</time>
      </trkpt>
      <trkpt lat="49.79948" lon="2.33927">
        <ele>84.5</ele>
        <time>2022-07-27T08:24:59Z</time>
      </trkpt>
      <trkpt lat="49.79948" lon="2.33927">
        <ele>84.5</ele>
        <time>2022-07-27T08:25:00Z</time>
      </trkpt>
      <trkpt lat="49.79948" lon="2.33927">
        <ele>84.5</ele>
        <time>2022-07-27T08:25:01Z</time>
      </trkpt>
      <trkpt lat="49.79948" lon="2.33927">
        <ele>84.5</ele>
        <time>2022-07-27T08:25:02Z</time>
      </trkpt>
      <trkpt lat="49.79948" lon="2.33927">
        <ele>84.5</ele>
        <time>2022-07-27T08:25:03Z</time>
      </trkpt>
      <trkpt lat="49.79948" lon="2.33927">
        <ele>84.5</ele>
        <time>2022-07-27T08:25:04Z</time>
      </trkpt>
      <trkpt lat="49.79948" lon="2.33927">
        <ele>84.5</ele>
        <time>2022-07-27T08:25:05Z</time>
      </trkpt>
      <trkpt lat="49.79948" lon="2.33927">
        <ele>84.5</ele>
        <time>2022-07-27T08:25:06Z</time>
      </trkpt>
      <trkpt lat="49.79948" lon="2.33927">
        <ele>84.5</ele>
        <time>2022-07-27T08:25:07Z</time>
      </trkpt>
      <trkpt lat="49.79948" lon="2.33927">
        <ele>84.5</ele>
        <time>2022-07-27T08:25:08Z</time>
      </trkpt>
      <trkpt lat="49.79948" lon="2.33927">
        <ele>84.5</ele>
        <time>2022-07-27T08:25:09Z</time>
      </trkpt>
      <trkpt lat="49.79948" lon="2.33927">
        <ele>84.5</ele>
        <time>2022-07-27T08:25:10Z</time>
      </trkpt>
      <trkpt lat="49.79948" lon="2.33927">
        <ele>84.5</ele>
        <time>2022-07-27T08:25:11Z</time>
      </trkpt>
      <trkpt lat="49.79948" lon="2.33927">
        <ele>84.5</ele>
        <time>2022-07-27T08:25:12Z</time>
      </trkpt>
      <trkpt lat="49.79948" lon="2.33927">
        <ele>84.5</ele>
        <time>2022-07-27T08:25:13Z</time>
      </trkpt>
      <trkpt lat="49.79948" lon="2.33927">
        <ele>84.5</ele>
        <time>2022-07-27T08:25:14Z</time>
      </trkpt>
      <trkpt lat="49.79948" lon="2.33927">
        <ele>84.5</ele>
        <time>2022-07-27T08:25:15Z</time>
      </trkpt>
      <trkpt lat="49.79948" lon="2.33927">
        <ele>84.5</ele>
        <time>2022-07-27T08:25:16Z</time>
      </trkpt>
      <trkpt lat="49.79948" lon="2.33927">
        <ele>84.5</ele>
        <time>2022-07-27T08:25:17Z</time>
      </trkpt>
      <trkpt lat="49.79948" lon="2.33927">
        <ele>84.5</ele>
        <time>2022-07-27T08:25:18Z</time>
      </trkpt>
      <trkpt lat="49.79948" lon="2.33927">
        <ele>84.5</ele>
        <time>2022-07-27T08:25:19Z</time>
      </trkpt>
      <trkpt lat="49.79948" lon="2.33927">
        <ele>84.5</ele>
        <time>2022-07-27T08:25:20Z</time>
      </trkpt>
      <trkpt lat="49.79948" lon="2.33927">
        <ele>84.5</ele>
        <time>2022-07-27T08:25:21Z</time>
      </trkpt>
      <trkpt lat="49.79948" lon="2.33927">
        <ele>84.5</ele>
        <time>2022-07-27T08:25:22Z</time>
      </trkpt>
      <trkpt lat="49.79948" lon="2.33927">
        <ele>84.5</ele>
        <time>2022-07-27T08:25:23Z</time>
      </trkpt>
      <trkpt lat="49.79948" lon="2.33927">
        <ele>84.5</ele>
        <time>2022-07-27T08:25:24Z</time>
      </trkpt>
      <trkpt lat="49.79948" lon="2.33927">
        <ele>84.5</ele>
        <time>2022-07-27T08:25:25Z</time>
      </trkpt>
      <trkpt lat="49.79948" lon="2.33927">
        <ele>84.5</ele>
        <time>2022-07-27T08:25:26Z</time>
      </trkpt>
      <trkpt lat="49.79948" lon="2.33927">
        <ele>84.5</ele>
        <time>2022-07-27T08:25:27Z</time>
      </trkpt>
      <trkpt lat="49.79948" lon="2.33927">
        <ele>84.5</ele>
        <time>2022-07-27T08:25:28Z</time>
      </trkpt>
      <trkpt lat="49.79948" lon="2.33927">
        <ele>84.5</ele>
        <time>2022-07-27T08:25:29Z</time>
      </trkpt>
      <trkpt lat="49.79948" lon="2.33927">
        <ele>84.5</ele>
        <time>2022-07-27T08:25:30Z</time>
      </trkpt>
      <trkpt lat="49.79948" lon="2.33927">
        <ele>84.5</ele>
        <time>2022-07-27T08:25:31Z</time>
      </trkpt>
      <trkpt lat="49.79948" lon="2.33927">
        <ele>84.5</ele>
        <time>2022-07-27T08:25:32Z</time>
      </trkpt>
      <trkpt lat="49.79949" lon="2.33927">
        <ele>84.5</ele>
        <time>2022-07-27T08:25:33Z</time>
      </trkpt>
      <trkpt lat="49.79949" lon="2.33928">
        <ele>84.5</ele>
        <time>2022-07-27T08:25:34Z</time>
      </trkpt>
      <trkpt lat="49.79949" lon="2.33929">
        <ele>84.5</ele>
        <time>2022-07-27T08:25:35Z</time>
      </trkpt>
      <trkpt lat="49.79949" lon="2.33931">
        <ele>84.4</ele>
        <time>2022-07-27T08:25:36Z</time>
      </trkpt>
      <trkpt lat="49.79948" lon="2.33931">
        <ele>84.4</ele>
        <time>2022-07-27T08:25:37Z</time>
      </trkpt>
      <trkpt lat="49.79948" lon="2.33931">
        <ele>84.4</ele>
        <time>2022-07-27T08:25:38Z</time>
      </trkpt>
      <trkpt lat="49.79947" lon="2.33931">
        <ele>84.4</ele>
        <time>2022-07-27T08:25:39Z</time>
      </trkpt>
      <trkpt lat="49.79947" lon="2.33931">
        <ele>84.4</ele>
        <time>2022-07-27T08:25:40Z</time>
      </trkpt>
      <trkpt lat="49.79947" lon="2.33931">
        <ele>84.4</ele>
        <time>2022-07-27T08:25:41Z</time>
      </trkpt>
      <trkpt lat="49.79947" lon="2.33931">
        <ele>84.4</ele>
        <time>2022-07-27T08:25:42Z</time>
      </trkpt>
      <trkpt lat="49.79946" lon="2.33932">
        <ele>84.4</ele>
        <time>2022-07-27T08:25:43Z</time>
      </trkpt>
      <trkpt lat="49.79946" lon="2.33932">
        <ele>84.4</ele>
        <time>2022-07-27T08:25:44Z</time>
      </trkpt>
      <trkpt lat="49.79947" lon="2.33933">
        <ele>84.4</ele>
        <time>2022-07-27T08:25:45Z</time>
      </trkpt>
      <trkpt lat="49.79947" lon="2.33935">
        <ele>84.4</ele>
        <time>2022-07-27T08:25:46Z</time>
      </trkpt>
      <trkpt lat="49.79947" lon="2.33936">
        <ele>84.4</ele>
        <time>2022-07-27T08:25:47Z</time>
      </trkpt>
      <trkpt lat="49.79947" lon="2.33937">
        <ele>84.4</ele>
        <time>2022-07-27T08:25:48Z</time>
      </trkpt>
      <trkpt lat="49.79947" lon="2.33938">
        <ele>84.4</ele>
        <time>2022-07-27T08:25:49Z</time>
      </trkpt>
      <trkpt lat="49.79947" lon="2.33938">
        <ele>84.3</ele>
        <time>2022-07-27T08:25:50Z</time>
      </trkpt>
      <trkpt lat="49.79946" lon="2.33938">
        <ele>84.3</ele>
        <time>2022-07-27T08:25:51Z</time>
      </trkpt>
      <trkpt lat="49.79946" lon="2.33939">
        <ele>84.3</ele>
        <time>2022-07-27T08:25:52Z</time>
      </trkpt>
      <trkpt lat="49.79946" lon="2.3394">
        <ele>84.3</ele>
        <time>2022-07-27T08:25:53Z</time>
      </trkpt>
      <trkpt lat="49.79946" lon="2.33942">
        <ele>84.3</ele>
        <time>2022-07-27T08:25:54Z</time>
      </trkpt>
      <trkpt lat="49.79947" lon="2.33943">
        <ele>84.3</ele>
        <time>2022-07-27T08:25:55Z</time>
      </trkpt>
      <trkpt lat="49.79947" lon="2.33944">
        <ele>84.3</ele>
        <time>2022-07-27T08:25:56Z</time>
      </trkpt>
      <trkpt lat="49.79948" lon="2.33947">
        <ele>84.2</ele>
        <time>2022-07-27T08:25:57Z</time>
      </trkpt>
      <trkpt lat="49.79949" lon="2.33948">
        <ele>84.2</ele>
        <time>2022-07-27T08:25:58Z</time>
      </trkpt>
      <trkpt lat="49.79949" lon="2.33949">
        <ele>84.2</ele>
        <time>2022-07-27T08:25:59Z</time>
      </trkpt>
      <trkpt lat="49.7995" lon="2.33951">
        <ele>84.2</ele>
        <time>2022-07-27T08:26:00Z</time>
      </trkpt>
      <trkpt lat="49.7995" lon="2.33953">
        <ele>84.2</ele>
        <time>2022-07-27T08:26:01Z</time>
      </trkpt>
      <trkpt lat="49.7995" lon="2.33954">
        <ele>84.2</ele>
        <time>2022-07-27T08:26:02Z</time>
      </trkpt>
      <trkpt lat="49.79951" lon="2.33955">
        <ele>84.1</ele>
        <time>2022-07-27T08:26:03Z</time>
      </trkpt>
      <trkpt lat="49.79951" lon="2.33957">
        <ele>84.1</ele>
        <time>2022-07-27T08:26:04Z</time>
      </trkpt>
      <trkpt lat="49.79951" lon="2.33959">
        <ele>84.1</ele>
        <time>2022-07-27T08:26:05Z</time>
      </trkpt>
      <trkpt lat="49.79951" lon="2.33962">
        <ele>84.1</ele>
        <time>2022-07-27T08:26:06Z</time>
      </trkpt>
      <trkpt lat="49.79951" lon="2.33963">
        <ele>84.1</ele>
        <time>2022-07-27T08:26:07Z</time>
      </trkpt>
      <trkpt lat="49.79952" lon="2.33964">
        <ele>84</ele>
        <time>2022-07-27T08:26:08Z</time>
      </trkpt>
      <trkpt lat="49.79952" lon="2.33966">
        <ele>84</ele>
        <time>2022-07-27T08:26:09Z</time>
      </trkpt>
      <trkpt lat="49.79952" lon="2.33967">
        <ele>84</ele>
        <time>2022-07-27T08:26:10Z</time>
      </trkpt>
      <trkpt lat="49.79952" lon="2.33969">
        <ele>84</ele>
        <time>2022-07-27T08:26:11Z</time>
      </trkpt>
      <trkpt lat="49.79952" lon="2.33971">
        <ele>83.9</ele>
        <time>2022-07-27T08:26:12Z</time>
      </trkpt>
      <trkpt lat="49.79952" lon="2.33973">
        <ele>83.9</ele>
        <time>2022-07-27T08:26:13Z</time>
      </trkpt>
      <trkpt lat="49.79951" lon="2.33975">
        <ele>83.9</ele>
        <time>2022-07-27T08:26:14Z</time>
      </trkpt>
      <trkpt lat="49.79951" lon="2.33976">
        <ele>83.9</ele>
        <time>2022-07-27T08:26:15Z</time>
      </trkpt>
      <trkpt lat="49.79951" lon="2.33979">
        <ele>83.8</ele>
        <time>2022-07-27T08:26:16Z</time>
      </trkpt>
      <trkpt lat="49.79951" lon="2.3398">
        <ele>83.8</ele>
        <time>2022-07-27T08:26:17Z</time>
      </trkpt>
      <trkpt lat="49.79951" lon="2.33981">
        <ele>83.8</ele>
        <time>2022-07-27T08:26:18Z</time>
      </trkpt>
      <trkpt lat="49.79951" lon="2.33983">
        <ele>83.8</ele>
        <time>2022-07-27T08:26:19Z</time>
      </trkpt>
      <trkpt lat="49.79951" lon="2.33984">
        <ele>83.8</ele>
        <time>2022-07-27T08:26:20Z</time>
      </trkpt>
      <trkpt lat="49.7995" lon="2.33986">
        <ele>83.7</ele>
        <time>2022-07-27T08:26:21Z</time>
      </trkpt>
      <trkpt lat="49.7995" lon="2.33987">
        <ele>83.7</ele>
        <time>2022-07-27T08:26:22Z</time>
      </trkpt>
      <trkpt lat="49.7995" lon="2.33989">
        <ele>83.7</ele>
        <time>2022-07-27T08:26:23Z</time>
      </trkpt>
      <trkpt lat="49.7995" lon="2.33992">
        <ele>83.7</ele>
        <time>2022-07-27T08:26:24Z</time>
      </trkpt>
      <trkpt lat="49.7995" lon="2.33994">
        <ele>83.6</ele>
        <time>2022-07-27T08:26:25Z</time>
      </trkpt>
      <trkpt lat="49.7995" lon="2.33995">
        <ele>83.6</ele>
        <time>2022-07-27T08:26:26Z</time>
      </trkpt>
      <trkpt lat="49.7995" lon="2.33997">
        <ele>83.6</ele>
        <time>2022-07-27T08:26:27Z</time>
      </trkpt>
      <trkpt lat="49.7995" lon="2.33999">
        <ele>83.6</ele>
        <time>2022-07-27T08:26:28Z</time>
      </trkpt>
      <trkpt lat="49.79949" lon="2.34">
        <ele>83.6</ele>
        <time>2022-07-27T08:26:29Z</time>
      </trkpt>
      <trkpt lat="49.79949" lon="2.34001">
        <ele>83.5</ele>
        <time>2022-07-27T08:26:30Z</time>
      </trkpt>
      <trkpt lat="49.79949" lon="2.34003">
        <ele>83.5</ele>
        <time>2022-07-27T08:26:31Z</time>
      </trkpt>
      <trkpt lat="49.79949" lon="2.34005">
        <ele>83.5</ele>
        <time>2022-07-27T08:26:32Z</time>
      </trkpt>
      <trkpt lat="49.79949" lon="2.34006">
        <ele>83.5</ele>
        <time>2022-07-27T08:26:33Z</time>
      </trkpt>
      <trkpt lat="49.79949" lon="2.34008">
        <ele>83.5</ele>
        <time>2022-07-27T08:26:34Z</time>
      </trkpt>
      <trkpt lat="49.79949" lon="2.34009">
        <ele>83.5</ele>
        <time>2022-07-27T08:26:35Z</time>
      </trkpt>
      <trkpt lat="49.79949" lon="2.34012">
        <ele>83.4</ele>
        <time>2022-07-27T08:26:36Z</time>
      </trkpt>
      <trkpt lat="49.79949" lon="2.34013">
        <ele>83.4</ele>
        <time>2022-07-27T08:26:37Z</time>
      </trkpt>
      <trkpt lat="49.79948" lon="2.34015">
        <ele>83.4</ele>
        <time>2022-07-27T08:26:38Z</time>
      </trkpt>
      <trkpt lat="49.79948" lon="2.34018">
        <ele>83.4</ele>
        <time>2022-07-27T08:26:39Z</time>
      </trkpt>
      <trkpt lat="49.79948" lon="2.34019">
        <ele>83.4</ele>
        <time>2022-07-27T08:26:40Z</time>
      </trkpt>
      <trkpt lat="49.79948" lon="2.34021">
        <ele>83.4</ele>
        <time>2022-07-27T08:26:41Z</time>
      </trkpt>
      <trkpt lat="49.79948" lon="2.34022">
        <ele>83.3</ele>
        <time>2022-07-27T08:26:42Z</time>
      </trkpt>
      <trkpt lat="49.79948" lon="2.34024">
        <ele>83.3</ele>
        <time>2022-07-27T08:26:43Z</time>
      </trkpt>
      <trkpt lat="49.79948" lon="2.34025">
        <ele>83.3</ele>
        <time>2022-07-27T08:26:44Z</time>
      </trkpt>
      <trkpt lat="49.79948" lon="2.34026">
        <ele>83.3</ele>
        <time>2022-07-27T08:26:45Z</time>
      </trkpt>
      <trkpt lat="49.79948" lon="2.34029">
        <ele>83.3</ele>
        <time>2022-07-27T08:26:46Z</time>
      </trkpt>
      <trkpt lat="49.79948" lon="2.3403">
        <ele>83.3</ele>
        <time>2022-07-27T08:26:47Z</time>
      </trkpt>
      <trkpt lat="49.79947" lon="2.34033">
        <ele>83.3</ele>
        <time>2022-07-27T08:26:48Z</time>
      </trkpt>
      <trkpt lat="49.79947" lon="2.34035">
        <ele>83.3</ele>
        <time>2022-07-27T08:26:49Z</time>
      </trkpt>
      <trkpt lat="49.79947" lon="2.34036">
        <ele>83.3</ele>
        <time>2022-07-27T08:26:50Z</time>
      </trkpt>
      <trkpt lat="49.79947" lon="2.3404">
        <ele>83.2</ele>
        <time>2022-07-27T08:26:51Z</time>
      </trkpt>
      <trkpt lat="49.79947" lon="2.34041">
        <ele>83.2</ele>
        <time>2022-07-27T08:26:52Z</time>
      </trkpt>
      <trkpt lat="49.79947" lon="2.34042">
        <ele>83.2</ele>
        <time>2022-07-27T08:26:53Z</time>
      </trkpt>
      <trkpt lat="49.79947" lon="2.34045">
        <ele>83.2</ele>
        <time>2022-07-27T08:26:54Z</time>
      </trkpt>
      <trkpt lat="49.79948" lon="2.34046">
        <ele>83.2</ele>
        <time>2022-07-27T08:26:55Z</time>
      </trkpt>
      <trkpt lat="49.79948" lon="2.34048">
        <ele>83.2</ele>
        <time>2022-07-27T08:26:56Z</time>
      </trkpt>
      <trkpt lat="49.79948" lon="2.3405">
        <ele>83.2</ele>
        <time>2022-07-27T08:26:57Z</time>
      </trkpt>
      <trkpt lat="49.79948" lon="2.34051">
        <ele>83.2</ele>
        <time>2022-07-27T08:26:58Z</time>
      </trkpt>
      <trkpt lat="49.79948" lon="2.34053">
        <ele>83.2</ele>
        <time>2022-07-27T08:26:59Z</time>
      </trkpt>
      <trkpt lat="49.79948" lon="2.34054">
        <ele>83.2</ele>
        <time>2022-07-27T08:27:00Z</time>
      </trkpt>
      <trkpt lat="49.79948" lon="2.34056">
        <ele>83.2</ele>
        <time>2022-07-27T08:27:01Z</time>
      </trkpt>
      <trkpt lat="49.79948" lon="2.34057">
        <ele>83.2</ele>
        <time>2022-07-27T08:27:02Z</time>
      </trkpt>
      <trkpt lat="49.79948" lon="2.34059">
        <ele>83.1</ele>
        <time>2022-07-27T08:27:03Z</time>
      </trkpt>
      <trkpt lat="49.79948" lon="2.34061">
        <ele>83.1</ele>
        <time>2022-07-27T08:27:04Z</time>
      </trkpt>
      <trkpt lat="49.79948" lon="2.34062">
        <ele>83.1</ele>
        <time>2022-07-27T08:27:05Z</time>
      </trkpt>
      <trkpt lat="49.79949" lon="2.34064">
        <ele>83.1</ele>
        <time>2022-07-27T08:27:06Z</time>
      </trkpt>
      <trkpt lat="49.79949" lon="2.34066">
        <ele>83.1</ele>
        <time>2022-07-27T08:27:07Z</time>
      </trkpt>
      <trkpt lat="49.79949" lon="2.34067">
        <ele>83.1</ele>
        <time>2022-07-27T08:27:08Z</time>
      </trkpt>
      <trkpt lat="49.79949" lon="2.34071">
        <ele>83.1</ele>
        <time>2022-07-27T08:27:09Z</time>
      </trkpt>
      <trkpt lat="49.79949" lon="2.34072">
        <ele>83.1</ele>
        <time>2022-07-27T08:27:10Z</time>
      </trkpt>
      <trkpt lat="49.79949" lon="2.34074">
        <ele>83.1</ele>
        <time>2022-07-27T08:27:11Z</time>
      </trkpt>
      <trkpt lat="49.79949" lon="2.34075">
        <ele>83.1</ele>
        <time>2022-07-27T08:27:12Z</time>
      </trkpt>
      <trkpt lat="49.79949" lon="2.34077">
        <ele>83.1</ele>
        <time>2022-07-27T08:27:13Z</time>
      </trkpt>
      <trkpt lat="49.7995" lon="2.34078">
        <ele>83.1</ele>
        <time>2022-07-27T08:27:14Z</time>
      </trkpt>
      <trkpt lat="49.7995" lon="2.3408">
        <ele>83.1</ele>
        <time>2022-07-27T08:27:15Z</time>
      </trkpt>
      <trkpt lat="49.7995" lon="2.34082">
        <ele>83.1</ele>
        <time>2022-07-27T08:27:16Z</time>
      </trkpt>
      <trkpt lat="49.7995" lon="2.34083">
        <ele>83</ele>
        <time>2022-07-27T08:27:17Z</time>
      </trkpt>
      <trkpt lat="49.7995" lon="2.34085">
        <ele>83</ele>
        <time>2022-07-27T08:27:18Z</time>
      </trkpt>
      <trkpt lat="49.7995" lon="2.34086">
        <ele>83</ele>
        <time>2022-07-27T08:27:19Z</time>
      </trkpt>
      <trkpt lat="49.7995" lon="2.34088">
        <ele>83</ele>
        <time>2022-07-27T08:27:20Z</time>
      </trkpt>
      <trkpt lat="49.7995" lon="2.3409">
        <ele>83</ele>
        <time>2022-07-27T08:27:21Z</time>
      </trkpt>
      <trkpt lat="49.7995" lon="2.34091">
        <ele>83</ele>
        <time>2022-07-27T08:27:22Z</time>
      </trkpt>
      <trkpt lat="49.79951" lon="2.34093">
        <ele>83</ele>
        <time>2022-07-27T08:27:23Z</time>
      </trkpt>
      <trkpt lat="49.79951" lon="2.34094">
        <ele>83</ele>
        <time>2022-07-27T08:27:24Z</time>
      </trkpt>
      <trkpt lat="49.79951" lon="2.34096">
        <ele>83</ele>
        <time>2022-07-27T08:27:25Z</time>
      </trkpt>
      <trkpt lat="49.79951" lon="2.34098">
        <ele>83</ele>
        <time>2022-07-27T08:27:26Z</time>
      </trkpt>
      <trkpt lat="49.79951" lon="2.341">
        <ele>83</ele>
        <time>2022-07-27T08:27:27Z</time>
      </trkpt>
      <trkpt lat="49.79951" lon="2.34101">
        <ele>83</ele>
        <time>2022-07-27T08:27:28Z</time>
      </trkpt>
      <trkpt lat="49.79951" lon="2.34103">
        <ele>83</ele>
        <time>2022-07-27T08:27:29Z</time>
      </trkpt>
      <trkpt lat="49.79951" lon="2.34105">
        <ele>83</ele>
        <time>2022-07-27T08:27:30Z</time>
      </trkpt>
      <trkpt lat="49.79951" lon="2.34108">
        <ele>82.9</ele>
        <time>2022-07-27T08:27:31Z</time>
      </trkpt>
      <trkpt lat="49.79951" lon="2.34109">
        <ele>82.9</ele>
        <time>2022-07-27T08:27:32Z</time>
      </trkpt>
      <trkpt lat="49.79951" lon="2.34111">
        <ele>82.9</ele>
        <time>2022-07-27T08:27:33Z</time>
      </trkpt>
      <trkpt lat="49.7995" lon="2.34113">
        <ele>82.9</ele>
        <time>2022-07-27T08:27:34Z</time>
      </trkpt>
      <trkpt lat="49.7995" lon="2.34115">
        <ele>82.9</ele>
        <time>2022-07-27T08:27:35Z</time>
      </trkpt>
      <trkpt lat="49.7995" lon="2.34117">
        <ele>82.9</ele>
        <time>2022-07-27T08:27:36Z</time>
      </trkpt>
      <trkpt lat="49.7995" lon="2.34119">
        <ele>82.9</ele>
        <time>2022-07-27T08:27:37Z</time>
      </trkpt>
      <trkpt lat="49.7995" lon="2.3412">
        <ele>82.9</ele>
        <time>2022-07-27T08:27:38Z</time>
      </trkpt>
      <trkpt lat="49.7995" lon="2.34122">
        <ele>82.8</ele>
        <time>2022-07-27T08:27:39Z</time>
      </trkpt>
      <trkpt lat="49.7995" lon="2.34126">
        <ele>82.8</ele>
        <time>2022-07-27T08:27:40Z</time>
      </trkpt>
      <trkpt lat="49.7995" lon="2.34127">
        <ele>82.8</ele>
        <time>2022-07-27T08:27:41Z</time>
      </trkpt>
      <trkpt lat="49.7995" lon="2.34129">
        <ele>82.8</ele>
        <time>2022-07-27T08:27:42Z</time>
      </trkpt>
      <trkpt lat="49.7995" lon="2.3413">
        <ele>82.8</ele>
        <time>2022-07-27T08:27:43Z</time>
      </trkpt>
      <trkpt lat="49.7995" lon="2.34132">
        <ele>82.7</ele>
        <time>2022-07-27T08:27:44Z</time>
      </trkpt>
      <trkpt lat="49.79951" lon="2.34134">
        <ele>82.7</ele>
        <time>2022-07-27T08:27:45Z</time>
      </trkpt>
      <trkpt lat="49.79951" lon="2.34136">
        <ele>82.7</ele>
        <time>2022-07-27T08:27:46Z</time>
      </trkpt>
      <trkpt lat="49.79951" lon="2.34139">
        <ele>82.7</ele>
        <time>2022-07-27T08:27:47Z</time>
      </trkpt>
      <trkpt lat="49.79951" lon="2.3414">
        <ele>82.7</ele>
        <time>2022-07-27T08:27:48Z</time>
      </trkpt>
      <trkpt lat="49.79951" lon="2.34142">
        <ele>82.6</ele>
        <time>2022-07-27T08:27:49Z</time>
      </trkpt>
      <trkpt lat="49.79952" lon="2.34144">
        <ele>82.6</ele>
        <time>2022-07-27T08:27:50Z</time>
      </trkpt>
      <trkpt lat="49.79952" lon="2.34146">
        <ele>82.6</ele>
        <time>2022-07-27T08:27:51Z</time>
      </trkpt>
      <trkpt lat="49.79952" lon="2.34149">
        <ele>82.6</ele>
        <time>2022-07-27T08:27:52Z</time>
      </trkpt>
      <trkpt lat="49.79952" lon="2.3415">
        <ele>82.6</ele>
        <time>2022-07-27T08:27:53Z</time>
      </trkpt>
      <trkpt lat="49.79953" lon="2.34152">
        <ele>82.6</ele>
        <time>2022-07-27T08:27:54Z</time>
      </trkpt>
      <trkpt lat="49.79953" lon="2.34154">
        <ele>82.5</ele>
        <time>2022-07-27T08:27:55Z</time>
      </trkpt>
      <trkpt lat="49.79953" lon="2.34156">
        <ele>82.5</ele>
        <time>2022-07-27T08:27:56Z</time>
      </trkpt>
      <trkpt lat="49.79954" lon="2.34159">
        <ele>82.5</ele>
        <time>2022-07-27T08:27:57Z</time>
      </trkpt>
      <trkpt lat="49.79954" lon="2.3416">
        <ele>82.5</ele>
        <time>2022-07-27T08:27:58Z</time>
      </trkpt>
      <trkpt lat="49.79954" lon="2.34162">
        <ele>82.5</ele>
        <time>2022-07-27T08:27:59Z</time>
      </trkpt>
      <trkpt lat="49.79955" lon="2.34164">
        <ele>82.4</ele>
        <time>2022-07-27T08:28:00Z</time>
      </trkpt>
      <trkpt lat="49.79955" lon="2.34165">
        <ele>82.4</ele>
        <time>2022-07-27T08:28:01Z</time>
      </trkpt>
      <trkpt lat="49.79955" lon="2.34168">
        <ele>82.4</ele>
        <time>2022-07-27T08:28:02Z</time>
      </trkpt>
      <trkpt lat="49.79955" lon="2.34169">
        <ele>82.4</ele>
        <time>2022-07-27T08:28:03Z</time>
      </trkpt>
      <trkpt lat="49.79956" lon="2.34171">
        <ele>82.4</ele>
        <time>2022-07-27T08:28:04Z</time>
      </trkpt>
      <trkpt lat="49.79956" lon="2.34172">
        <ele>82.4</ele>
        <time>2022-07-27T08:28:05Z</time>
      </trkpt>
      <trkpt lat="49.79956" lon="2.34174">
        <ele>82.3</ele>
        <time>2022-07-27T08:28:06Z</time>
      </trkpt>
      <trkpt lat="49.79956" lon="2.34176">
        <ele>82.3</ele>
        <time>2022-07-27T08:28:07Z</time>
      </trkpt>
      <trkpt lat="49.79956" lon="2.34177">
        <ele>82.3</ele>
        <time>2022-07-27T08:28:08Z</time>
      </trkpt>
      <trkpt lat="49.79957" lon="2.34181">
        <ele>82.3</ele>
        <time>2022-07-27T08:28:09Z</time>
      </trkpt>
      <trkpt lat="49.79957" lon="2.34182">
        <ele>82.2</ele>
        <time>2022-07-27T08:28:10Z</time>
      </trkpt>
      <trkpt lat="49.79957" lon="2.34183">
        <ele>82.2</ele>
        <time>2022-07-27T08:28:11Z</time>
      </trkpt>
      <trkpt lat="49.79957" lon="2.34186">
        <ele>82.2</ele>
        <time>2022-07-27T08:28:12Z</time>
      </trkpt>
      <trkpt lat="49.79957" lon="2.34188">
        <ele>82.2</ele>
        <time>2022-07-27T08:28:13Z</time>
      </trkpt>
      <trkpt lat="49.79957" lon="2.34191">
        <ele>82.1</ele>
        <time>2022-07-27T08:28:14Z</time>
      </trkpt>
      <trkpt lat="49.79957" lon="2.34192">
        <ele>82.1</ele>
        <time>2022-07-27T08:28:15Z</time>
      </trkpt>
      <trkpt lat="49.79958" lon="2.34193">
        <ele>82.1</ele>
        <time>2022-07-27T08:28:16Z</time>
      </trkpt>
      <trkpt lat="49.79958" lon="2.34197">
        <ele>82.1</ele>
        <time>2022-07-27T08:28:17Z</time>
      </trkpt>
      <trkpt lat="49.79958" lon="2.34198">
        <ele>82.1</ele>
        <time>2022-07-27T08:28:18Z</time>
      </trkpt>
      <trkpt lat="49.79958" lon="2.342">
        <ele>82</ele>
        <time>2022-07-27T08:28:19Z</time>
      </trkpt>
      <trkpt lat="49.79958" lon="2.34201">
        <ele>82</ele>
        <time>2022-07-27T08:28:20Z</time>
      </trkpt>
      <trkpt lat="49.79958" lon="2.34203">
        <ele>82</ele>
        <time>2022-07-27T08:28:21Z</time>
      </trkpt>
      <trkpt lat="49.79959" lon="2.34207">
        <ele>81.9</ele>
        <time>2022-07-27T08:28:22Z</time>
      </trkpt>
      <trkpt lat="49.79959" lon="2.34208">
        <ele>81.9</ele>
        <time>2022-07-27T08:28:23Z</time>
      </trkpt>
      <trkpt lat="49.79959" lon="2.34209">
        <ele>81.9</ele>
        <time>2022-07-27T08:28:24Z</time>
      </trkpt>
      <trkpt lat="49.79959" lon="2.34212">
        <ele>81.9</ele>
        <time>2022-07-27T08:28:25Z</time>
      </trkpt>
      <trkpt lat="49.7996" lon="2.34214">
        <ele>81.8</ele>
        <time>2022-07-27T08:28:26Z</time>
      </trkpt>
      <trkpt lat="49.7996" lon="2.34215">
        <ele>81.8</ele>
        <time>2022-07-27T08:28:27Z</time>
      </trkpt>
      <trkpt lat="49.7996" lon="2.34217">
        <ele>81.8</ele>
        <time>2022-07-27T08:28:28Z</time>
      </trkpt>
      <trkpt lat="49.7996" lon="2.34219">
        <ele>81.8</ele>
        <time>2022-07-27T08:28:29Z</time>
      </trkpt>
      <trkpt lat="49.7996" lon="2.3422">
        <ele>81.8</ele>
        <time>2022-07-27T08:28:30Z</time>
      </trkpt>
      <trkpt lat="49.7996" lon="2.34222">
        <ele>81.7</ele>
        <time>2022-07-27T08:28:31Z</time>
      </trkpt>
      <trkpt lat="49.7996" lon="2.34224">
        <ele>81.7</ele>
        <time>2022-07-27T08:28:32Z</time>
      </trkpt>
      <trkpt lat="49.79961" lon="2.34225">
        <ele>81.7</ele>
        <time>2022-07-27T08:28:33Z</time>
      </trkpt>
      <trkpt lat="49.79961" lon="2.34226">
        <ele>81.7</ele>
        <time>2022-07-27T08:28:34Z</time>
      </trkpt>
      <trkpt lat="49.79961" lon="2.34228">
        <ele>81.6</ele>
        <time>2022-07-27T08:28:35Z</time>
      </trkpt>
      <trkpt lat="49.79961" lon="2.3423">
        <ele>81.6</ele>
        <time>2022-07-27T08:28:36Z</time>
      </trkpt>
      <trkpt lat="49.79961" lon="2.34232">
        <ele>81.6</ele>
        <time>2022-07-27T08:28:37Z</time>
      </trkpt>
      <trkpt lat="49.79962" lon="2.34233">
        <ele>81.6</ele>
        <time>2022-07-27T08:28:38Z</time>
      </trkpt>
      <trkpt lat="49.79962" lon="2.34235">
        <ele>81.5</ele>
        <time>2022-07-27T08:28:39Z</time>
      </trkpt>
      <trkpt lat="49.79962" lon="2.34238">
        <ele>81.5</ele>
        <time>2022-07-27T08:28:40Z</time>
      </trkpt>
      <trkpt lat="49.79962" lon="2.3424">
        <ele>81.5</ele>
        <time>2022-07-27T08:28:41Z</time>
      </trkpt>
      <trkpt lat="49.79962" lon="2.34241">
        <ele>81.4</ele>
        <time>2022-07-27T08:28:42Z</time>
      </trkpt>
      <trkpt lat="49.79963" lon="2.34243">
        <ele>81.4</ele>
        <time>2022-07-27T08:28:43Z</time>
      </trkpt>
      <trkpt lat="49.79963" lon="2.34244">
        <ele>81.4</ele>
        <time>2022-07-27T08:28:44Z</time>
      </trkpt>
      <trkpt lat="49.79963" lon="2.34246">
        <ele>81.4</ele>
        <time>2022-07-27T08:28:45Z</time>
      </trkpt>
      <trkpt lat="49.79963" lon="2.34248">
        <ele>81.3</ele>
        <time>2022-07-27T08:28:46Z</time>
      </trkpt>
      <trkpt lat="49.79964" lon="2.34251">
        <ele>81.3</ele>
        <time>2022-07-27T08:28:47Z</time>
      </trkpt>
      <trkpt lat="49.79964" lon="2.34252">
        <ele>81.3</ele>
        <time>2022-07-27T08:28:48Z</time>
      </trkpt>
      <trkpt lat="49.79964" lon="2.34254">
        <ele>81.2</ele>
        <time>2022-07-27T08:28:49Z</time>
      </trkpt>
      <trkpt lat="49.79964" lon="2.34256">
        <ele>81.2</ele>
        <time>2022-07-27T08:28:50Z</time>
      </trkpt>
      <trkpt lat="49.79965" lon="2.34258">
        <ele>81.2</ele>
        <time>2022-07-27T08:28:51Z</time>
      </trkpt>
      <trkpt lat="49.79965" lon="2.3426">
        <ele>81.1</ele>
        <time>2022-07-27T08:28:52Z</time>
      </trkpt>
      <trkpt lat="49.79965" lon="2.34263">
        <ele>81.1</ele>
        <time>2022-07-27T08:28:53Z</time>
      </trkpt>
      <trkpt lat="49.79965" lon="2.34265">
        <ele>81</ele>
        <time>2022-07-27T08:28:54Z</time>
      </trkpt>
      <trkpt lat="49.79965" lon="2.34266">
        <ele>81</ele>
        <time>2022-07-27T08:28:55Z</time>
      </trkpt>
      <trkpt lat="49.79966" lon="2.34268">
        <ele>81</ele>
        <time>2022-07-27T08:28:56Z</time>
      </trkpt>
      <trkpt lat="49.79966" lon="2.3427">
        <ele>80.9</ele>
        <time>2022-07-27T08:28:57Z</time>
      </trkpt>
      <trkpt lat="49.79966" lon="2.34272">
        <ele>80.9</ele>
        <time>2022-07-27T08:28:58Z</time>
      </trkpt>
      <trkpt lat="49.79966" lon="2.34273">
        <ele>80.9</ele>
        <time>2022-07-27T08:28:59Z</time>
      </trkpt>
      <trkpt lat="49.79966" lon="2.34274">
        <ele>80.9</ele>
        <time>2022-07-27T08:29:00Z</time>
      </trkpt>
      <trkpt lat="49.79966" lon="2.34276">
        <ele>80.8</ele>
        <time>2022-07-27T08:29:01Z</time>
      </trkpt>
      <trkpt lat="49.79966" lon="2.34278">
        <ele>80.8</ele>
        <time>2022-07-27T08:29:02Z</time>
      </trkpt>
      <trkpt lat="49.79967" lon="2.3428">
        <ele>80.8</ele>
        <time>2022-07-27T08:29:03Z</time>
      </trkpt>
      <trkpt lat="49.79967" lon="2.34281">
        <ele>80.7</ele>
        <time>2022-07-27T08:29:04Z</time>
      </trkpt>
      <trkpt lat="49.79968" lon="2.34284">
        <ele>80.7</ele>
        <time>2022-07-27T08:29:05Z</time>
      </trkpt>
      <trkpt lat="49.79968" lon="2.34286">
        <ele>80.7</ele>
        <time>2022-07-27T08:29:06Z</time>
      </trkpt>
      <trkpt lat="49.79968" lon="2.34288">
        <ele>80.6</ele>
        <time>2022-07-27T08:29:07Z</time>
      </trkpt>
      <trkpt lat="49.79968" lon="2.34289">
        <ele>80.6</ele>
        <time>2022-07-27T08:29:08Z</time>
      </trkpt>
      <trkpt lat="49.79969" lon="2.34291">
        <ele>80.6</ele>
        <time>2022-07-27T08:29:09Z</time>
      </trkpt>
      <trkpt lat="49.79969" lon="2.34293">
        <ele>80.5</ele>
        <time>2022-07-27T08:29:10Z</time>
      </trkpt>
      <trkpt lat="49.7997" lon="2.34295">
        <ele>80.5</ele>
        <time>2022-07-27T08:29:11Z</time>
      </trkpt>
      <trkpt lat="49.7997" lon="2.34297">
        <ele>80.4</ele>
        <time>2022-07-27T08:29:12Z</time>
      </trkpt>
      <trkpt lat="49.7997" lon="2.34299">
        <ele>80.4</ele>
        <time>2022-07-27T08:29:13Z</time>
      </trkpt>
      <trkpt lat="49.79971" lon="2.34301">
        <ele>80.4</ele>
        <time>2022-07-27T08:29:14Z</time>
      </trkpt>
      <trkpt lat="49.79971" lon="2.34303">
        <ele>80.3</ele>
        <time>2022-07-27T08:29:15Z</time>
      </trkpt>
      <trkpt lat="49.79971" lon="2.34304">
        <ele>80.3</ele>
        <time>2022-07-27T08:29:16Z</time>
      </trkpt>
      <trkpt lat="49.79972" lon="2.34307">
        <ele>80.2</ele>
        <time>2022-07-27T08:29:17Z</time>
      </trkpt>
      <trkpt lat="49.79972" lon="2.34308">
        <ele>80.2</ele>
        <time>2022-07-27T08:29:18Z</time>
      </trkpt>
      <trkpt lat="49.79972" lon="2.3431">
        <ele>80.2</ele>
        <time>2022-07-27T08:29:19Z</time>
      </trkpt>
      <trkpt lat="49.79972" lon="2.34312">
        <ele>80.1</ele>
        <time>2022-07-27T08:29:20Z</time>
      </trkpt>
      <trkpt lat="49.79972" lon="2.34313">
        <ele>80.1</ele>
        <time>2022-07-27T08:29:21Z</time>
      </trkpt>
      <trkpt lat="49.79973" lon="2.34316">
        <ele>80</ele>
        <time>2022-07-27T08:29:22Z</time>
      </trkpt>
      <trkpt lat="49.79973" lon="2.34317">
        <ele>80</ele>
        <time>2022-07-27T08:29:23Z</time>
      </trkpt>
      <trkpt lat="49.79973" lon="2.34319">
        <ele>80</ele>
        <time>2022-07-27T08:29:24Z</time>
      </trkpt>
      <trkpt lat="49.79973" lon="2.34321">
        <ele>79.9</ele>
        <time>2022-07-27T08:29:25Z</time>
      </trkpt>
      <trkpt lat="49.79973" lon="2.34323">
        <ele>79.9</ele>
        <time>2022-07-27T08:29:26Z</time>
      </trkpt>
      <trkpt lat="49.79974" lon="2.34324">
        <ele>79.9</ele>
        <time>2022-07-27T08:29:27Z</time>
      </trkpt>
      <trkpt lat="49.79974" lon="2.34326">
        <ele>79.8</ele>
        <time>2022-07-27T08:29:28Z</time>
      </trkpt>
      <trkpt lat="49.79974" lon="2.34328">
        <ele>79.8</ele>
        <time>2022-07-27T08:29:29Z</time>
      </trkpt>
      <trkpt lat="49.79974" lon="2.3433">
        <ele>79.7</ele>
        <time>2022-07-27T08:29:30Z</time>
      </trkpt>
      <trkpt lat="49.79975" lon="2.34331">
        <ele>79.7</ele>
        <time>2022-07-27T08:29:31Z</time>
      </trkpt>
      <trkpt lat="49.79975" lon="2.34332">
        <ele>79.7</ele>
        <time>2022-07-27T08:29:32Z</time>
      </trkpt>
      <trkpt lat="49.79975" lon="2.34334">
        <ele>79.6</ele>
        <time>2022-07-27T08:29:33Z</time>
      </trkpt>
      <trkpt lat="49.79975" lon="2.34336">
        <ele>79.6</ele>
        <time>2022-07-27T08:29:34Z</time>
      </trkpt>
      <trkpt lat="49.79975" lon="2.34337">
        <ele>79.6</ele>
        <time>2022-07-27T08:29:35Z</time>
      </trkpt>
      <trkpt lat="49.79976" lon="2.34339">
        <ele>79.5</ele>
        <time>2022-07-27T08:29:36Z</time>
      </trkpt>
      <trkpt lat="49.79976" lon="2.34341">
        <ele>79.5</ele>
        <time>2022-07-27T08:29:37Z</time>
      </trkpt>
      <trkpt lat="49.79976" lon="2.34343">
        <ele>79.5</ele>
        <time>2022-07-27T08:29:38Z</time>
      </trkpt>
      <trkpt lat="49.79977" lon="2.34345">
        <ele>79.4</ele>
        <time>2022-07-27T08:29:39Z</time>
      </trkpt>
      <trkpt lat="49.79977" lon="2.34347">
        <ele>79.4</ele>
        <time>2022-07-27T08:29:40Z</time>
      </trkpt>
      <trkpt lat="49.79977" lon="2.34348">
        <ele>79.3</ele>
        <time>2022-07-27T08:29:41Z</time>
      </trkpt>
      <trkpt lat="49.79977" lon="2.3435">
        <ele>79.3</ele>
        <time>2022-07-27T08:29:42Z</time>
      </trkpt>
      <trkpt lat="49.79978" lon="2.34354">
        <ele>79.2</ele>
        <time>2022-07-27T08:29:43Z</time>
      </trkpt>
      <trkpt lat="49.79978" lon="2.34355">
        <ele>79.2</ele>
        <time>2022-07-27T08:29:44Z</time>
      </trkpt>
      <trkpt lat="49.79978" lon="2.34356">
        <ele>79.2</ele>
        <time>2022-07-27T08:29:45Z</time>
      </trkpt>
      <trkpt lat="49.79978" lon="2.34359">
        <ele>79.1</ele>
        <time>2022-07-27T08:29:46Z</time>
      </trkpt>
      <trkpt lat="49.79978" lon="2.34361">
        <ele>79.1</ele>
        <time>2022-07-27T08:29:47Z</time>
      </trkpt>
      <trkpt lat="49.79978" lon="2.34362">
        <ele>79.1</ele>
        <time>2022-07-27T08:29:48Z</time>
      </trkpt>
      <trkpt lat="49.79978" lon="2.34365">
        <ele>79</ele>
        <time>2022-07-27T08:29:49Z</time>
      </trkpt>
      <trkpt lat="49.79978" lon="2.34367">
        <ele>79</ele>
        <time>2022-07-27T08:29:50Z</time>
      </trkpt>
      <trkpt lat="49.79978" lon="2.34368">
        <ele>79</ele>
        <time>2022-07-27T08:29:51Z</time>
      </trkpt>
      <trkpt lat="49.79978" lon="2.3437">
        <ele>78.9</ele>
        <time>2022-07-27T08:29:52Z</time>
      </trkpt>
      <trkpt lat="49.79978" lon="2.34373">
        <ele>78.9</ele>
        <time>2022-07-27T08:29:53Z</time>
      </trkpt>
      <trkpt lat="49.79979" lon="2.34374">
        <ele>78.9</ele>
        <time>2022-07-27T08:29:54Z</time>
      </trkpt>
      <trkpt lat="49.79979" lon="2.34376">
        <ele>78.8</ele>
        <time>2022-07-27T08:29:55Z</time>
      </trkpt>
      <trkpt lat="49.79979" lon="2.34377">
        <ele>78.8</ele>
        <time>2022-07-27T08:29:56Z</time>
      </trkpt>
      <trkpt lat="49.79979" lon="2.34379">
        <ele>78.8</ele>
        <time>2022-07-27T08:29:57Z</time>
      </trkpt>
      <trkpt lat="49.79979" lon="2.34381">
        <ele>78.8</ele>
        <time>2022-07-27T08:29:58Z</time>
      </trkpt>
      <trkpt lat="49.7998" lon="2.34382">
        <ele>78.7</ele>
        <time>2022-07-27T08:29:59Z</time>
      </trkpt>
      <trkpt lat="49.7998" lon="2.34385">
        <ele>78.7</ele>
        <time>2022-07-27T08:30:00Z</time>
      </trkpt>
      <trkpt lat="49.7998" lon="2.34386">
        <ele>78.7</ele>
        <time>2022-07-27T08:30:01Z</time>
      </trkpt>
      <trkpt lat="49.79981" lon="2.34388">
        <ele>78.7</ele>
        <time>2022-07-27T08:30:02Z</time>
      </trkpt>
      <trkpt lat="49.79981" lon="2.34389">
        <ele>78.6</ele>
        <time>2022-07-27T08:30:03Z</time>
      </trkpt>
      <trkpt lat="49.79981" lon="2.34391">
        <ele>78.6</ele>
        <time>2022-07-27T08:30:04Z</time>
      </trkpt>
      <trkpt lat="49.79982" lon="2.34392">
        <ele>78.6</ele>
        <time>2022-07-27T08:30:05Z</time>
      </trkpt>
      <trkpt lat="49.79982" lon="2.34394">
        <ele>78.5</ele>
        <time>2022-07-27T08:30:06Z</time>
      </trkpt>
      <trkpt lat="49.79982" lon="2.34396">
        <ele>78.5</ele>
        <time>2022-07-27T08:30:07Z</time>
      </trkpt>
      <trkpt lat="49.79983" lon="2.34399">
        <ele>78.5</ele>
        <time>2022-07-27T08:30:08Z</time>
      </trkpt>
      <trkpt lat="49.79983" lon="2.344">
        <ele>78.4</ele>
        <time>2022-07-27T08:30:09Z</time>
      </trkpt>
      <trkpt lat="49.79983" lon="2.34402">
        <ele>78.4</ele>
        <time>2022-07-27T08:30:10Z</time>
      </trkpt>
      <trkpt lat="49.79984" lon="2.34404">
        <ele>78.4</ele>
        <time>2022-07-27T08:30:11Z</time>
      </trkpt>
      <trkpt lat="49.79984" lon="2.34406">
        <ele>78.4</ele>
        <time>2022-07-27T08:30:12Z</time>
      </trkpt>
      <trkpt lat="49.79985" lon="2.34408">
        <ele>78.3</ele>
        <time>2022-07-27T08:30:13Z</time>
      </trkpt>
      <trkpt lat="49.79985" lon="2.3441">
        <ele>78.3</ele>
        <time>2022-07-27T08:30:14Z</time>
      </trkpt>
      <trkpt lat="49.79985" lon="2.34411">
        <ele>78.3</ele>
        <time>2022-07-27T08:30:15Z</time>
      </trkpt>
      <trkpt lat="49.79986" lon="2.34413">
        <ele>78.2</ele>
        <time>2022-07-27T08:30:16Z</time>
      </trkpt>
      <trkpt lat="49.79986" lon="2.34415">
        <ele>78.2</ele>
        <time>2022-07-27T08:30:17Z</time>
      </trkpt>
      <trkpt lat="49.79987" lon="2.34417">
        <ele>78.2</ele>
        <time>2022-07-27T08:30:18Z</time>
      </trkpt>
      <trkpt lat="49.79988" lon="2.3442">
        <ele>78.1</ele>
        <time>2022-07-27T08:30:19Z</time>
      </trkpt>
      <trkpt lat="49.79988" lon="2.34422">
        <ele>78.1</ele>
        <time>2022-07-27T08:30:20Z</time>
      </trkpt>
      <trkpt lat="49.79988" lon="2.34423">
        <ele>78.1</ele>
        <time>2022-07-27T08:30:21Z</time>
      </trkpt>
      <trkpt lat="49.79989" lon="2.34425">
        <ele>78</ele>
        <time>2022-07-27T08:30:22Z</time>
      </trkpt>
      <trkpt lat="49.79989" lon="2.34427">
        <ele>78</ele>
        <time>2022-07-27T08:30:23Z</time>
      </trkpt>
      <trkpt lat="49.7999" lon="2.3443">
        <ele>78</ele>
        <time>2022-07-27T08:30:24Z</time>
      </trkpt>
      <trkpt lat="49.7999" lon="2.34431">
        <ele>77.9</ele>
        <time>2022-07-27T08:30:25Z</time>
      </trkpt>
      <trkpt lat="49.79991" lon="2.34433">
        <ele>77.9</ele>
        <time>2022-07-27T08:30:26Z</time>
      </trkpt>
      <trkpt lat="49.79991" lon="2.34435">
        <ele>77.9</ele>
        <time>2022-07-27T08:30:27Z</time>
      </trkpt>
      <trkpt lat="49.79992" lon="2.34436">
        <ele>77.9</ele>
        <time>2022-07-27T08:30:28Z</time>
      </trkpt>
      <trkpt lat="49.79992" lon="2.34437">
        <ele>77.8</ele>
        <time>2022-07-27T08:30:29Z</time>
      </trkpt>
      <trkpt lat="49.79992" lon="2.34439">
        <ele>77.8</ele>
        <time>2022-07-27T08:30:30Z</time>
      </trkpt>
      <trkpt lat="49.79993" lon="2.3444">
        <ele>77.8</ele>
        <time>2022-07-27T08:30:31Z</time>
      </trkpt>
      <trkpt lat="49.79993" lon="2.34442">
        <ele>77.8</ele>
        <time>2022-07-27T08:30:32Z</time>
      </trkpt>
      <trkpt lat="49.79994" lon="2.34445">
        <ele>77.7</ele>
        <time>2022-07-27T08:30:33Z</time>
      </trkpt>
      <trkpt lat="49.79994" lon="2.34446">
        <ele>77.7</ele>
        <time>2022-07-27T08:30:34Z</time>
      </trkpt>
      <trkpt lat="49.79994" lon="2.34447">
        <ele>77.7</ele>
        <time>2022-07-27T08:30:35Z</time>
      </trkpt>
      <trkpt lat="49.79995" lon="2.34449">
        <ele>77.7</ele>
        <time>2022-07-27T08:30:36Z</time>
      </trkpt>
      <trkpt lat="49.79995" lon="2.34451">
        <ele>77.6</ele>
        <time>2022-07-27T08:30:37Z</time>
      </trkpt>
      <trkpt lat="49.79996" lon="2.34454">
        <ele>77.6</ele>
        <time>2022-07-27T08:30:38Z</time>
      </trkpt>
      <trkpt lat="49.79996" lon="2.34455">
        <ele>77.6</ele>
        <time>2022-07-27T08:30:39Z</time>
      </trkpt>
      <trkpt lat="49.79997" lon="2.34458">
        <ele>77.5</ele>
        <time>2022-07-27T08:30:40Z</time>
      </trkpt>
      <trkpt lat="49.79997" lon="2.34459">
        <ele>77.5</ele>
        <time>2022-07-27T08:30:41Z</time>
      </trkpt>
      <trkpt lat="49.79998" lon="2.34461">
        <ele>77.5</ele>
        <time>2022-07-27T08:30:42Z</time>
      </trkpt>
      <trkpt lat="49.79999" lon="2.34464">
        <ele>77.5</ele>
        <time>2022-07-27T08:30:43Z</time>
      </trkpt>
      <trkpt lat="49.79999" lon="2.34465">
        <ele>77.5</ele>
        <time>2022-07-27T08:30:44Z</time>
      </trkpt>
      <trkpt lat="49.79999" lon="2.34466">
        <ele>77.4</ele>
        <time>2022-07-27T08:30:45Z</time>
      </trkpt>
      <trkpt lat="49.8" lon="2.3447">
        <ele>77.4</ele>
        <time>2022-07-27T08:30:46Z</time>
      </trkpt>
      <trkpt lat="49.8" lon="2.34471">
        <ele>77.4</ele>
        <time>2022-07-27T08:30:47Z</time>
      </trkpt>
      <trkpt lat="49.80001" lon="2.34473">
        <ele>77.4</ele>
        <time>2022-07-27T08:30:48Z</time>
      </trkpt>
      <trkpt lat="49.80001" lon="2.34474">
        <ele>77.3</ele>
        <time>2022-07-27T08:30:49Z</time>
      </trkpt>
      <trkpt lat="49.80001" lon="2.34476">
        <ele>77.3</ele>
        <time>2022-07-27T08:30:50Z</time>
      </trkpt>
      <trkpt lat="49.80002" lon="2.34478">
        <ele>77.3</ele>
        <time>2022-07-27T08:30:51Z</time>
      </trkpt>
      <trkpt lat="49.80002" lon="2.3448">
        <ele>77.3</ele>
        <time>2022-07-27T08:30:52Z</time>
      </trkpt>
      <trkpt lat="49.80003" lon="2.34482">
        <ele>77.2</ele>
        <time>2022-07-27T08:30:53Z</time>
      </trkpt>
      <trkpt lat="49.80003" lon="2.34484">
        <ele>77.2</ele>
        <time>2022-07-27T08:30:54Z</time>
      </trkpt>
      <trkpt lat="49.80003" lon="2.34486">
        <ele>77.2</ele>
        <time>2022-07-27T08:30:55Z</time>
      </trkpt>
      <trkpt lat="49.80003" lon="2.34488">
        <ele>77.2</ele>
        <time>2022-07-27T08:30:56Z</time>
      </trkpt>
      <trkpt lat="49.80004" lon="2.34489">
        <ele>77.2</ele>
        <time>2022-07-27T08:30:57Z</time>
      </trkpt>
      <trkpt lat="49.80004" lon="2.34492">
        <ele>77.1</ele>
        <time>2022-07-27T08:30:58Z</time>
      </trkpt>
      <trkpt lat="49.80005" lon="2.34493">
        <ele>77.1</ele>
        <time>2022-07-27T08:30:59Z</time>
      </trkpt>
      <trkpt lat="49.80005" lon="2.34495">
        <ele>77.1</ele>
        <time>2022-07-27T08:31:00Z</time>
      </trkpt>
      <trkpt lat="49.80005" lon="2.34497">
        <ele>77.1</ele>
        <time>2022-07-27T08:31:01Z</time>
      </trkpt>
      <trkpt lat="49.80005" lon="2.34498">
        <ele>77.1</ele>
        <time>2022-07-27T08:31:02Z</time>
      </trkpt>
      <trkpt lat="49.80006" lon="2.345">
        <ele>77.1</ele>
        <time>2022-07-27T08:31:03Z</time>
      </trkpt>
      <trkpt lat="49.80006" lon="2.34501">
        <ele>77</ele>
        <time>2022-07-27T08:31:04Z</time>
      </trkpt>
      <trkpt lat="49.80006" lon="2.34502">
        <ele>77</ele>
        <time>2022-07-27T08:31:05Z</time>
      </trkpt>
      <trkpt lat="49.80007" lon="2.34504">
        <ele>77</ele>
        <time>2022-07-27T08:31:06Z</time>
      </trkpt>
      <trkpt lat="49.80007" lon="2.34505">
        <ele>77</ele>
        <time>2022-07-27T08:31:07Z</time>
      </trkpt>
      <trkpt lat="49.80007" lon="2.34507">
        <ele>77</ele>
        <time>2022-07-27T08:31:08Z</time>
      </trkpt>
      <trkpt lat="49.80008" lon="2.34508">
        <ele>77</ele>
        <time>2022-07-27T08:31:09Z</time>
      </trkpt>
      <trkpt lat="49.80008" lon="2.3451">
        <ele>77</ele>
        <time>2022-07-27T08:31:10Z</time>
      </trkpt>
      <trkpt lat="49.80008" lon="2.34513">
        <ele>76.9</ele>
        <time>2022-07-27T08:31:11Z</time>
      </trkpt>
      <trkpt lat="49.80008" lon="2.34514">
        <ele>76.9</ele>
        <time>2022-07-27T08:31:12Z</time>
      </trkpt>
      <trkpt lat="49.80009" lon="2.34516">
        <ele>76.9</ele>
        <time>2022-07-27T08:31:13Z</time>
      </trkpt>
      <trkpt lat="49.80009" lon="2.34519">
        <ele>76.9</ele>
        <time>2022-07-27T08:31:14Z</time>
      </trkpt>
      <trkpt lat="49.80009" lon="2.3452">
        <ele>76.9</ele>
        <time>2022-07-27T08:31:15Z</time>
      </trkpt>
      <trkpt lat="49.8001" lon="2.34522">
        <ele>76.8</ele>
        <time>2022-07-27T08:31:16Z</time>
      </trkpt>
      <trkpt lat="49.8001" lon="2.34524">
        <ele>76.8</ele>
        <time>2022-07-27T08:31:17Z</time>
      </trkpt>
      <trkpt lat="49.8001" lon="2.34527">
        <ele>76.8</ele>
        <time>2022-07-27T08:31:18Z</time>
      </trkpt>
      <trkpt lat="49.80011" lon="2.34528">
        <ele>76.8</ele>
        <time>2022-07-27T08:31:19Z</time>
      </trkpt>
      <trkpt lat="49.80011" lon="2.3453">
        <ele>76.8</ele>
        <time>2022-07-27T08:31:20Z</time>
      </trkpt>
      <trkpt lat="49.80011" lon="2.34531">
        <ele>76.8</ele>
        <time>2022-07-27T08:31:21Z</time>
      </trkpt>
      <trkpt lat="49.80012" lon="2.34535">
        <ele>76.7</ele>
        <time>2022-07-27T08:31:22Z</time>
      </trkpt>
      <trkpt lat="49.80012" lon="2.34536">
        <ele>76.7</ele>
        <time>2022-07-27T08:31:23Z</time>
      </trkpt>
      <trkpt lat="49.80013" lon="2.34537">
        <ele>76.7</ele>
        <time>2022-07-27T08:31:24Z</time>
      </trkpt>
      <trkpt lat="49.80013" lon="2.34539">
        <ele>76.7</ele>
        <time>2022-07-27T08:31:25Z</time>
      </trkpt>
      <trkpt lat="49.80013" lon="2.34541">
        <ele>76.7</ele>
        <time>2022-07-27T08:31:26Z</time>
      </trkpt>
      <trkpt lat="49.80014" lon="2.34542">
        <ele>76.7</ele>
        <time>2022-07-27T08:31:27Z</time>
      </trkpt>
      <trkpt lat="49.80014" lon="2.34545">
        <ele>76.7</ele>
        <time>2022-07-27T08:31:28Z</time>
      </trkpt>
      <trkpt lat="49.80015" lon="2.34547">
        <ele>76.7</ele>
        <time>2022-07-27T08:31:29Z</time>
      </trkpt>
      <trkpt lat="49.80015" lon="2.34548">
        <ele>76.6</ele>
        <time>2022-07-27T08:31:30Z</time>
      </trkpt>
      <trkpt lat="49.80015" lon="2.34549">
        <ele>76.6</ele>
        <time>2022-07-27T08:31:31Z</time>
      </trkpt>
      <trkpt lat="49.80016" lon="2.34551">
        <ele>76.6</ele>
        <time>2022-07-27T08:31:32Z</time>
      </trkpt>
      <trkpt lat="49.80016" lon="2.34553">
        <ele>76.6</ele>
        <time>2022-07-27T08:31:33Z</time>
      </trkpt>
      <trkpt lat="49.80017" lon="2.34555">
        <ele>76.6</ele>
        <time>2022-07-27T08:31:34Z</time>
      </trkpt>
      <trkpt lat="49.80017" lon="2.34556">
        <ele>76.6</ele>
        <time>2022-07-27T08:31:35Z</time>
      </trkpt>
      <trkpt lat="49.80018" lon="2.34557">
        <ele>76.6</ele>
        <time>2022-07-27T08:31:36Z</time>
      </trkpt>
      <trkpt lat="49.80018" lon="2.34559">
        <ele>76.6</ele>
        <time>2022-07-27T08:31:37Z</time>
      </trkpt>
      <trkpt lat="49.80018" lon="2.34561">
        <ele>76.5</ele>
        <time>2022-07-27T08:31:38Z</time>
      </trkpt>
      <trkpt lat="49.80019" lon="2.34562">
        <ele>76.5</ele>
        <time>2022-07-27T08:31:39Z</time>
      </trkpt>
      <trkpt lat="49.80019" lon="2.34565">
        <ele>76.5</ele>
        <time>2022-07-27T08:31:40Z</time>
      </trkpt>
      <trkpt lat="49.80019" lon="2.34566">
        <ele>76.5</ele>
        <time>2022-07-27T08:31:41Z</time>
      </trkpt>
      <trkpt lat="49.8002" lon="2.34568">
        <ele>76.5</ele>
        <time>2022-07-27T08:31:42Z</time>
      </trkpt>
      <trkpt lat="49.8002" lon="2.3457">
        <ele>76.5</ele>
        <time>2022-07-27T08:31:43Z</time>
      </trkpt>
      <trkpt lat="49.80021" lon="2.34571">
        <ele>76.5</ele>
        <time>2022-07-27T08:31:44Z</time>
      </trkpt>
      <trkpt lat="49.80021" lon="2.34573">
        <ele>76.4</ele>
        <time>2022-07-27T08:31:45Z</time>
      </trkpt>
      <trkpt lat="49.80021" lon="2.34576">
        <ele>76.4</ele>
        <time>2022-07-27T08:31:46Z</time>
      </trkpt>
      <trkpt lat="49.80022" lon="2.34578">
        <ele>76.4</ele>
        <time>2022-07-27T08:31:47Z</time>
      </trkpt>
      <trkpt lat="49.80022" lon="2.34579">
        <ele>76.4</ele>
        <time>2022-07-27T08:31:48Z</time>
      </trkpt>
      <trkpt lat="49.80022" lon="2.3458">
        <ele>76.4</ele>
        <time>2022-07-27T08:31:49Z</time>
      </trkpt>
      <trkpt lat="49.80022" lon="2.34582">
        <ele>76.4</ele>
        <time>2022-07-27T08:31:50Z</time>
      </trkpt>
      <trkpt lat="49.80023" lon="2.34584">
        <ele>76.3</ele>
        <time>2022-07-27T08:31:51Z</time>
      </trkpt>
      <trkpt lat="49.80023" lon="2.34586">
        <ele>76.3</ele>
        <time>2022-07-27T08:31:52Z</time>
      </trkpt>
      <trkpt lat="49.80023" lon="2.34589">
        <ele>76.3</ele>
        <time>2022-07-27T08:31:53Z</time>
      </trkpt>
      <trkpt lat="49.80024" lon="2.34591">
        <ele>76.3</ele>
        <time>2022-07-27T08:31:54Z</time>
      </trkpt>
      <trkpt lat="49.80024" lon="2.34592">
        <ele>76.3</ele>
        <time>2022-07-27T08:31:55Z</time>
      </trkpt>
      <trkpt lat="49.80024" lon="2.34593">
        <ele>76.2</ele>
        <time>2022-07-27T08:31:56Z</time>
      </trkpt>
      <trkpt lat="49.80024" lon="2.34594">
        <ele>76.2</ele>
        <time>2022-07-27T08:31:57Z</time>
      </trkpt>
      <trkpt lat="49.80024" lon="2.34596">
        <ele>76.2</ele>
        <time>2022-07-27T08:31:58Z</time>
      </trkpt>
      <trkpt lat="49.80025" lon="2.34598">
        <ele>76.2</ele>
        <time>2022-07-27T08:31:59Z</time>
      </trkpt>
      <trkpt lat="49.80025" lon="2.34599">
        <ele>76.2</ele>
        <time>2022-07-27T08:32:00Z</time>
      </trkpt>
      <trkpt lat="49.80025" lon="2.34602">
        <ele>76.2</ele>
        <time>2022-07-27T08:32:01Z</time>
      </trkpt>
      <trkpt lat="49.80025" lon="2.34604">
        <ele>76.1</ele>
        <time>2022-07-27T08:32:02Z</time>
      </trkpt>
      <trkpt lat="49.80026" lon="2.34607">
        <ele>76.1</ele>
        <time>2022-07-27T08:32:03Z</time>
      </trkpt>
      <trkpt lat="49.80026" lon="2.34608">
        <ele>76.1</ele>
        <time>2022-07-27T08:32:04Z</time>
      </trkpt>
      <trkpt lat="49.80026" lon="2.34609">
        <ele>76.1</ele>
        <time>2022-07-27T08:32:05Z</time>
      </trkpt>
      <trkpt lat="49.80027" lon="2.34613">
        <ele>76</ele>
        <time>2022-07-27T08:32:06Z</time>
      </trkpt>
      <trkpt lat="49.80027" lon="2.34614">
        <ele>76</ele>
        <time>2022-07-27T08:32:07Z</time>
      </trkpt>
      <trkpt lat="49.80027" lon="2.34616">
        <ele>76</ele>
        <time>2022-07-27T08:32:08Z</time>
      </trkpt>
      <trkpt lat="49.80027" lon="2.34617">
        <ele>76</ele>
        <time>2022-07-27T08:32:09Z</time>
      </trkpt>
      <trkpt lat="49.80028" lon="2.34619">
        <ele>76</ele>
        <time>2022-07-27T08:32:10Z</time>
      </trkpt>
      <trkpt lat="49.80028" lon="2.34621">
        <ele>75.9</ele>
        <time>2022-07-27T08:32:11Z</time>
      </trkpt>
      <trkpt lat="49.80028" lon="2.34623">
        <ele>75.9</ele>
        <time>2022-07-27T08:32:12Z</time>
      </trkpt>
      <trkpt lat="49.80029" lon="2.34625">
        <ele>75.9</ele>
        <time>2022-07-27T08:32:13Z</time>
      </trkpt>
      <trkpt lat="49.80029" lon="2.34626">
        <ele>75.9</ele>
        <time>2022-07-27T08:32:14Z</time>
      </trkpt>
      <trkpt lat="49.80029" lon="2.34628">
        <ele>75.9</ele>
        <time>2022-07-27T08:32:15Z</time>
      </trkpt>
      <trkpt lat="49.80029" lon="2.3463">
        <ele>75.9</ele>
        <time>2022-07-27T08:32:16Z</time>
      </trkpt>
      <trkpt lat="49.80029" lon="2.34632">
        <ele>75.8</ele>
        <time>2022-07-27T08:32:17Z</time>
      </trkpt>
      <trkpt lat="49.8003" lon="2.34635">
        <ele>75.8</ele>
        <time>2022-07-27T08:32:18Z</time>
      </trkpt>
      <trkpt lat="49.8003" lon="2.34636">
        <ele>75.8</ele>
        <time>2022-07-27T08:32:19Z</time>
      </trkpt>
      <trkpt lat="49.8003" lon="2.34638">
        <ele>75.8</ele>
        <time>2022-07-27T08:32:20Z</time>
      </trkpt>
      <trkpt lat="49.80031" lon="2.3464">
        <ele>75.8</ele>
        <time>2022-07-27T08:32:21Z</time>
      </trkpt>
      <trkpt lat="49.80031" lon="2.34641">
        <ele>75.8</ele>
        <time>2022-07-27T08:32:22Z</time>
      </trkpt>
      <trkpt lat="49.80031" lon="2.34643">
        <ele>75.7</ele>
        <time>2022-07-27T08:32:23Z</time>
      </trkpt>
      <trkpt lat="49.80031" lon="2.34645">
        <ele>75.7</ele>
        <time>2022-07-27T08:32:24Z</time>
      </trkpt>
      <trkpt lat="49.80031" lon="2.34646">
        <ele>75.7</ele>
        <time>2022-07-27T08:32:25Z</time>
      </trkpt>
      <trkpt lat="49.80032" lon="2.34648">
        <ele>75.7</ele>
        <time>2022-07-27T08:32:26Z</time>
      </trkpt>
      <trkpt lat="49.80032" lon="2.3465">
        <ele>75.7</ele>
        <time>2022-07-27T08:32:27Z</time>
      </trkpt>
      <trkpt lat="49.80033" lon="2.34652">
        <ele>75.7</ele>
        <time>2022-07-27T08:32:28Z</time>
      </trkpt>
      <trkpt lat="49.80033" lon="2.34654">
        <ele>75.6</ele>
        <time>2022-07-27T08:32:29Z</time>
      </trkpt>
      <trkpt lat="49.80034" lon="2.34657">
        <ele>75.6</ele>
        <time>2022-07-27T08:32:30Z</time>
      </trkpt>
      <trkpt lat="49.80034" lon="2.34658">
        <ele>75.6</ele>
        <time>2022-07-27T08:32:31Z</time>
      </trkpt>
      <trkpt lat="49.80034" lon="2.3466">
        <ele>75.6</ele>
        <time>2022-07-27T08:32:32Z</time>
      </trkpt>
      <trkpt lat="49.80035" lon="2.34663">
        <ele>75.5</ele>
        <time>2022-07-27T08:32:33Z</time>
      </trkpt>
      <trkpt lat="49.80035" lon="2.34664">
        <ele>75.5</ele>
        <time>2022-07-27T08:32:34Z</time>
      </trkpt>
      <trkpt lat="49.80035" lon="2.34666">
        <ele>75.5</ele>
        <time>2022-07-27T08:32:35Z</time>
      </trkpt>
      <trkpt lat="49.80036" lon="2.34668">
        <ele>75.5</ele>
        <time>2022-07-27T08:32:36Z</time>
      </trkpt>
      <trkpt lat="49.80036" lon="2.3467">
        <ele>75.4</ele>
        <time>2022-07-27T08:32:37Z</time>
      </trkpt>
      <trkpt lat="49.80037" lon="2.34673">
        <ele>75.4</ele>
        <time>2022-07-27T08:32:38Z</time>
      </trkpt>
      <trkpt lat="49.80037" lon="2.34675">
        <ele>75.4</ele>
        <time>2022-07-27T08:32:39Z</time>
      </trkpt>
      <trkpt lat="49.80037" lon="2.34677">
        <ele>75.3</ele>
        <time>2022-07-27T08:32:40Z</time>
      </trkpt>
      <trkpt lat="49.80038" lon="2.34679">
        <ele>75.3</ele>
        <time>2022-07-27T08:32:41Z</time>
      </trkpt>
      <trkpt lat="49.80038" lon="2.34681">
        <ele>75.2</ele>
        <time>2022-07-27T08:32:42Z</time>
      </trkpt>
      <trkpt lat="49.80038" lon="2.34684">
        <ele>75.2</ele>
        <time>2022-07-27T08:32:43Z</time>
      </trkpt>
      <trkpt lat="49.80039" lon="2.34686">
        <ele>75.2</ele>
        <time>2022-07-27T08:32:44Z</time>
      </trkpt>
      <trkpt lat="49.80039" lon="2.34688">
        <ele>75.1</ele>
        <time>2022-07-27T08:32:45Z</time>
      </trkpt>
      <trkpt lat="49.80039" lon="2.3469">
        <ele>75.1</ele>
        <time>2022-07-27T08:32:46Z</time>
      </trkpt>
      <trkpt lat="49.8004" lon="2.34692">
        <ele>75.1</ele>
        <time>2022-07-27T08:32:47Z</time>
      </trkpt>
      <trkpt lat="49.8004" lon="2.34693">
        <ele>75</ele>
        <time>2022-07-27T08:32:48Z</time>
      </trkpt>
      <trkpt lat="49.8004" lon="2.34695">
        <ele>75</ele>
        <time>2022-07-27T08:32:49Z</time>
      </trkpt>
      <trkpt lat="49.8004" lon="2.34697">
        <ele>75</ele>
        <time>2022-07-27T08:32:50Z</time>
      </trkpt>
      <trkpt lat="49.80041" lon="2.347">
        <ele>74.9</ele>
        <time>2022-07-27T08:32:51Z</time>
      </trkpt>
      <trkpt lat="49.80041" lon="2.34701">
        <ele>74.9</ele>
        <time>2022-07-27T08:32:52Z</time>
      </trkpt>
      <trkpt lat="49.80041" lon="2.34702">
        <ele>74.9</ele>
        <time>2022-07-27T08:32:53Z</time>
      </trkpt>
      <trkpt lat="49.80041" lon="2.34704">
        <ele>74.9</ele>
        <time>2022-07-27T08:32:54Z</time>
      </trkpt>
      <trkpt lat="49.80042" lon="2.34706">
        <ele>74.8</ele>
        <time>2022-07-27T08:32:55Z</time>
      </trkpt>
      <trkpt lat="49.80042" lon="2.34708">
        <ele>74.8</ele>
        <time>2022-07-27T08:32:56Z</time>
      </trkpt>
      <trkpt lat="49.80042" lon="2.34711">
        <ele>74.7</ele>
        <time>2022-07-27T08:32:57Z</time>
      </trkpt>
      <trkpt lat="49.80042" lon="2.34712">
        <ele>74.7</ele>
        <time>2022-07-27T08:32:58Z</time>
      </trkpt>
      <trkpt lat="49.80042" lon="2.34714">
        <ele>74.7</ele>
        <time>2022-07-27T08:32:59Z</time>
      </trkpt>
      <trkpt lat="49.80042" lon="2.34715">
        <ele>74.7</ele>
        <time>2022-07-27T08:33:00Z</time>
      </trkpt>
      <trkpt lat="49.80042" lon="2.34717">
        <ele>74.6</ele>
        <time>2022-07-27T08:33:01Z</time>
      </trkpt>
      <trkpt lat="49.80043" lon="2.34719">
        <ele>74.6</ele>
        <time>2022-07-27T08:33:02Z</time>
      </trkpt>
      <trkpt lat="49.80043" lon="2.3472">
        <ele>74.6</ele>
        <time>2022-07-27T08:33:03Z</time>
      </trkpt>
      <trkpt lat="49.80043" lon="2.34722">
        <ele>74.5</ele>
        <time>2022-07-27T08:33:04Z</time>
      </trkpt>
      <trkpt lat="49.80043" lon="2.34723">
        <ele>74.5</ele>
        <time>2022-07-27T08:33:05Z</time>
      </trkpt>
      <trkpt lat="49.80043" lon="2.34725">
        <ele>74.5</ele>
        <time>2022-07-27T08:33:06Z</time>
      </trkpt>
      <trkpt lat="49.80044" lon="2.34726">
        <ele>74.5</ele>
        <time>2022-07-27T08:33:07Z</time>
      </trkpt>
      <trkpt lat="49.80044" lon="2.34728">
        <ele>74.4</ele>
        <time>2022-07-27T08:33:08Z</time>
      </trkpt>
      <trkpt lat="49.80044" lon="2.34731">
        <ele>74.4</ele>
        <time>2022-07-27T08:33:09Z</time>
      </trkpt>
      <trkpt lat="49.80045" lon="2.34732">
        <ele>74.3</ele>
        <time>2022-07-27T08:33:10Z</time>
      </trkpt>
      <trkpt lat="49.80045" lon="2.34733">
        <ele>74.3</ele>
        <time>2022-07-27T08:33:11Z</time>
      </trkpt>
      <trkpt lat="49.80045" lon="2.34735">
        <ele>74.3</ele>
        <time>2022-07-27T08:33:12Z</time>
      </trkpt>
      <trkpt lat="49.80046" lon="2.34737">
        <ele>74.2</ele>
        <time>2022-07-27T08:33:13Z</time>
      </trkpt>
      <trkpt lat="49.80046" lon="2.34739">
        <ele>74.2</ele>
        <time>2022-07-27T08:33:14Z</time>
      </trkpt>
      <trkpt lat="49.80046" lon="2.3474">
        <ele>74.2</ele>
        <time>2022-07-27T08:33:15Z</time>
      </trkpt>
      <trkpt lat="49.80047" lon="2.34741">
        <ele>74.2</ele>
        <time>2022-07-27T08:33:16Z</time>
      </trkpt>
      <trkpt lat="49.80047" lon="2.34743">
        <ele>74.1</ele>
        <time>2022-07-27T08:33:17Z</time>
      </trkpt>
      <trkpt lat="49.80047" lon="2.34745">
        <ele>74.1</ele>
        <time>2022-07-27T08:33:18Z</time>
      </trkpt>
      <trkpt lat="49.80048" lon="2.34747">
        <ele>74</ele>
        <time>2022-07-27T08:33:19Z</time>
      </trkpt>
      <trkpt lat="49.80048" lon="2.3475">
        <ele>73.9</ele>
        <time>2022-07-27T08:33:20Z</time>
      </trkpt>
      <trkpt lat="49.80048" lon="2.34752">
        <ele>73.9</ele>
        <time>2022-07-27T08:33:21Z</time>
      </trkpt>
      <trkpt lat="49.80048" lon="2.34753">
        <ele>73.9</ele>
        <time>2022-07-27T08:33:22Z</time>
      </trkpt>
      <trkpt lat="49.80049" lon="2.34755">
        <ele>73.8</ele>
        <time>2022-07-27T08:33:23Z</time>
      </trkpt>
      <trkpt lat="49.80049" lon="2.34757">
        <ele>73.8</ele>
        <time>2022-07-27T08:33:24Z</time>
      </trkpt>
      <trkpt lat="49.8005" lon="2.34759">
        <ele>73.7</ele>
        <time>2022-07-27T08:33:25Z</time>
      </trkpt>
      <trkpt lat="49.8005" lon="2.3476">
        <ele>73.7</ele>
        <time>2022-07-27T08:33:26Z</time>
      </trkpt>
      <trkpt lat="49.8005" lon="2.34762">
        <ele>73.7</ele>
        <time>2022-07-27T08:33:27Z</time>
      </trkpt>
      <trkpt lat="49.8005" lon="2.34764">
        <ele>73.6</ele>
        <time>2022-07-27T08:33:28Z</time>
      </trkpt>
      <trkpt lat="49.80051" lon="2.34766">
        <ele>73.6</ele>
        <time>2022-07-27T08:33:29Z</time>
      </trkpt>
      <trkpt lat="49.80051" lon="2.34768">
        <ele>73.5</ele>
        <time>2022-07-27T08:33:30Z</time>
      </trkpt>
      <trkpt lat="49.80051" lon="2.3477">
        <ele>73.5</ele>
        <time>2022-07-27T08:33:31Z</time>
      </trkpt>
      <trkpt lat="49.80051" lon="2.34771">
        <ele>73.4</ele>
        <time>2022-07-27T08:33:32Z</time>
      </trkpt>
      <trkpt lat="49.80052" lon="2.34773">
        <ele>73.4</ele>
        <time>2022-07-27T08:33:33Z</time>
      </trkpt>
      <trkpt lat="49.80052" lon="2.34776">
        <ele>73.3</ele>
        <time>2022-07-27T08:33:34Z</time>
      </trkpt>
      <trkpt lat="49.80052" lon="2.34778">
        <ele>73.3</ele>
        <time>2022-07-27T08:33:35Z</time>
      </trkpt>
      <trkpt lat="49.80052" lon="2.3478">
        <ele>73.2</ele>
        <time>2022-07-27T08:33:36Z</time>
      </trkpt>
      <trkpt lat="49.80053" lon="2.34781">
        <ele>73.2</ele>
        <time>2022-07-27T08:33:37Z</time>
      </trkpt>
      <trkpt lat="49.80053" lon="2.34783">
        <ele>73.1</ele>
        <time>2022-07-27T08:33:38Z</time>
      </trkpt>
      <trkpt lat="49.80053" lon="2.34786">
        <ele>73.1</ele>
        <time>2022-07-27T08:33:39Z</time>
      </trkpt>
      <trkpt lat="49.80053" lon="2.34788">
        <ele>73</ele>
        <time>2022-07-27T08:33:40Z</time>
      </trkpt>
      <trkpt lat="49.80053" lon="2.34789">
        <ele>73</ele>
        <time>2022-07-27T08:33:41Z</time>
      </trkpt>
      <trkpt lat="49.80053" lon="2.3479">
        <ele>73</ele>
        <time>2022-07-27T08:33:42Z</time>
      </trkpt>
      <trkpt lat="49.80054" lon="2.34791">
        <ele>72.9</ele>
        <time>2022-07-27T08:33:43Z</time>
      </trkpt>
      <trkpt lat="49.80054" lon="2.34793">
        <ele>72.9</ele>
        <time>2022-07-27T08:33:44Z</time>
      </trkpt>
      <trkpt lat="49.80054" lon="2.34795">
        <ele>72.8</ele>
        <time>2022-07-27T08:33:45Z</time>
      </trkpt>
      <trkpt lat="49.80054" lon="2.34797">
        <ele>72.8</ele>
        <time>2022-07-27T08:33:46Z</time>
      </trkpt>
      <trkpt lat="49.80054" lon="2.348">
        <ele>72.7</ele>
        <time>2022-07-27T08:33:47Z</time>
      </trkpt>
      <trkpt lat="49.80054" lon="2.34801">
        <ele>72.7</ele>
        <time>2022-07-27T08:33:48Z</time>
      </trkpt>
      <trkpt lat="49.80054" lon="2.34803">
        <ele>72.6</ele>
        <time>2022-07-27T08:33:49Z</time>
      </trkpt>
      <trkpt lat="49.80054" lon="2.34806">
        <ele>72.6</ele>
        <time>2022-07-27T08:33:50Z</time>
      </trkpt>
      <trkpt lat="49.80054" lon="2.34807">
        <ele>72.5</ele>
        <time>2022-07-27T08:33:51Z</time>
      </trkpt>
      <trkpt lat="49.80055" lon="2.34808">
        <ele>72.5</ele>
        <time>2022-07-27T08:33:52Z</time>
      </trkpt>
      <trkpt lat="49.80055" lon="2.3481">
        <ele>72.4</ele>
        <time>2022-07-27T08:33:53Z</time>
      </trkpt>
      <trkpt lat="49.80055" lon="2.34813">
        <ele>72.4</ele>
        <time>2022-07-27T08:33:54Z</time>
      </trkpt>
      <trkpt lat="49.80055" lon="2.34816">
        <ele>72.3</ele>
        <time>2022-07-27T08:33:55Z</time>
      </trkpt>
      <trkpt lat="49.80055" lon="2.34817">
        <ele>72.3</ele>
        <time>2022-07-27T08:33:56Z</time>
      </trkpt>
      <trkpt lat="49.80056" lon="2.34818">
        <ele>72.2</ele>
        <time>2022-07-27T08:33:57Z</time>
      </trkpt>
      <trkpt lat="49.80056" lon="2.34821">
        <ele>72.2</ele>
        <time>2022-07-27T08:33:58Z</time>
      </trkpt>
      <trkpt lat="49.80056" lon="2.34823">
        <ele>72.1</ele>
        <time>2022-07-27T08:33:59Z</time>
      </trkpt>
      <trkpt lat="49.80056" lon="2.34824">
        <ele>72.1</ele>
        <time>2022-07-27T08:34:00Z</time>
      </trkpt>
      <trkpt lat="49.80056" lon="2.34825">
        <ele>72.1</ele>
        <time>2022-07-27T08:34:01Z</time>
      </trkpt>
      <trkpt lat="49.80056" lon="2.34827">
        <ele>72</ele>
        <time>2022-07-27T08:34:02Z</time>
      </trkpt>
      <trkpt lat="49.80056" lon="2.34829">
        <ele>72</ele>
        <time>2022-07-27T08:34:03Z</time>
      </trkpt>
      <trkpt lat="49.80056" lon="2.34833">
        <ele>71.9</ele>
        <time>2022-07-27T08:34:04Z</time>
      </trkpt>
      <trkpt lat="49.80056" lon="2.34834">
        <ele>71.9</ele>
        <time>2022-07-27T08:34:05Z</time>
      </trkpt>
      <trkpt lat="49.80056" lon="2.34835">
        <ele>71.8</ele>
        <time>2022-07-27T08:34:06Z</time>
      </trkpt>
      <trkpt lat="49.80056" lon="2.34838">
        <ele>71.8</ele>
        <time>2022-07-27T08:34:07Z</time>
      </trkpt>
      <trkpt lat="49.80056" lon="2.34839">
        <ele>71.7</ele>
        <time>2022-07-27T08:34:08Z</time>
      </trkpt>
      <trkpt lat="49.80056" lon="2.34841">
        <ele>71.7</ele>
        <time>2022-07-27T08:34:09Z</time>
      </trkpt>
      <trkpt lat="49.80056" lon="2.34842">
        <ele>71.7</ele>
        <time>2022-07-27T08:34:10Z</time>
      </trkpt>
      <trkpt lat="49.80056" lon="2.34844">
        <ele>71.6</ele>
        <time>2022-07-27T08:34:11Z</time>
      </trkpt>
      <trkpt lat="49.80057" lon="2.34846">
        <ele>71.6</ele>
        <time>2022-07-27T08:34:12Z</time>
      </trkpt>
      <trkpt lat="49.80057" lon="2.34849">
        <ele>71.5</ele>
        <time>2022-07-27T08:34:13Z</time>
      </trkpt>
      <trkpt lat="49.80057" lon="2.3485">
        <ele>71.5</ele>
        <time>2022-07-27T08:34:14Z</time>
      </trkpt>
      <trkpt lat="49.80057" lon="2.34852">
        <ele>71.4</ele>
        <time>2022-07-27T08:34:15Z</time>
      </trkpt>
      <trkpt lat="49.80057" lon="2.34855">
        <ele>71.4</ele>
        <time>2022-07-27T08:34:16Z</time>
      </trkpt>
      <trkpt lat="49.80058" lon="2.34856">
        <ele>71.3</ele>
        <time>2022-07-27T08:34:17Z</time>
      </trkpt>
      <trkpt lat="49.80058" lon="2.34857">
        <ele>71.3</ele>
        <time>2022-07-27T08:34:18Z</time>
      </trkpt>
      <trkpt lat="49.80058" lon="2.34861">
        <ele>71.2</ele>
        <time>2022-07-27T08:34:19Z</time>
      </trkpt>
      <trkpt lat="49.80058" lon="2.34862">
        <ele>71.2</ele>
        <time>2022-07-27T08:34:20Z</time>
      </trkpt>
      <trkpt lat="49.80058" lon="2.34863">
        <ele>71.2</ele>
        <time>2022-07-27T08:34:21Z</time>
      </trkpt>
      <trkpt lat="49.80059" lon="2.34866">
        <ele>71.1</ele>
        <time>2022-07-27T08:34:22Z</time>
      </trkpt>
      <trkpt lat="49.80059" lon="2.34867">
        <ele>71.1</ele>
        <time>2022-07-27T08:34:23Z</time>
      </trkpt>
      <trkpt lat="49.80059" lon="2.34869">
        <ele>71</ele>
        <time>2022-07-27T08:34:24Z</time>
      </trkpt>
      <trkpt lat="49.80059" lon="2.3487">
        <ele>71</ele>
        <time>2022-07-27T08:34:25Z</time>
      </trkpt>
      <trkpt lat="49.80059" lon="2.34871">
        <ele>71</ele>
        <time>2022-07-27T08:34:26Z</time>
      </trkpt>
      <trkpt lat="49.8006" lon="2.34873">
        <ele>71</ele>
        <time>2022-07-27T08:34:27Z</time>
      </trkpt>
      <trkpt lat="49.8006" lon="2.34875">
        <ele>70.9</ele>
        <time>2022-07-27T08:34:28Z</time>
      </trkpt>
      <trkpt lat="49.8006" lon="2.34877">
        <ele>70.9</ele>
        <time>2022-07-27T08:34:29Z</time>
      </trkpt>
      <trkpt lat="49.8006" lon="2.34878">
        <ele>70.8</ele>
        <time>2022-07-27T08:34:30Z</time>
      </trkpt>
      <trkpt lat="49.80061" lon="2.3488">
        <ele>70.8</ele>
        <time>2022-07-27T08:34:31Z</time>
      </trkpt>
      <trkpt lat="49.80061" lon="2.34881">
        <ele>70.8</ele>
        <time>2022-07-27T08:34:32Z</time>
      </trkpt>
      <trkpt lat="49.80061" lon="2.34883">
        <ele>70.7</ele>
        <time>2022-07-27T08:34:33Z</time>
      </trkpt>
      <trkpt lat="49.80062" lon="2.34886">
        <ele>70.7</ele>
        <time>2022-07-27T08:34:34Z</time>
      </trkpt>
      <trkpt lat="49.80062" lon="2.34887">
        <ele>70.7</ele>
        <time>2022-07-27T08:34:35Z</time>
      </trkpt>
      <trkpt lat="49.80062" lon="2.34889">
        <ele>70.6</ele>
        <time>2022-07-27T08:34:36Z</time>
      </trkpt>
      <trkpt lat="49.80063" lon="2.34891">
        <ele>70.6</ele>
        <time>2022-07-27T08:34:37Z</time>
      </trkpt>
      <trkpt lat="49.80063" lon="2.34893">
        <ele>70.6</ele>
        <time>2022-07-27T08:34:38Z</time>
      </trkpt>
      <trkpt lat="49.80063" lon="2.34895">
        <ele>70.5</ele>
        <time>2022-07-27T08:34:39Z</time>
      </trkpt>
      <trkpt lat="49.80064" lon="2.34897">
        <ele>70.5</ele>
        <time>2022-07-27T08:34:40Z</time>
      </trkpt>
      <trkpt lat="49.80064" lon="2.34898">
        <ele>70.5</ele>
        <time>2022-07-27T08:34:41Z</time>
      </trkpt>
      <trkpt lat="49.80064" lon="2.34899">
        <ele>70.4</ele>
        <time>2022-07-27T08:34:42Z</time>
      </trkpt>
      <trkpt lat="49.80065" lon="2.34901">
        <ele>70.4</ele>
        <time>2022-07-27T08:34:43Z</time>
      </trkpt>
      <trkpt lat="49.80065" lon="2.34903">
        <ele>70.4</ele>
        <time>2022-07-27T08:34:44Z</time>
      </trkpt>
      <trkpt lat="49.80065" lon="2.34904">
        <ele>70.3</ele>
        <time>2022-07-27T08:34:45Z</time>
      </trkpt>
      <trkpt lat="49.80066" lon="2.34905">
        <ele>70.3</ele>
        <time>2022-07-27T08:34:46Z</time>
      </trkpt>
      <trkpt lat="49.80066" lon="2.34907">
        <ele>70.3</ele>
        <time>2022-07-27T08:34:47Z</time>
      </trkpt>
      <trkpt lat="49.80066" lon="2.34909">
        <ele>70.2</ele>
        <time>2022-07-27T08:34:48Z</time>
      </trkpt>
      <trkpt lat="49.80067" lon="2.34912">
        <ele>70.2</ele>
        <time>2022-07-27T08:34:49Z</time>
      </trkpt>
      <trkpt lat="49.80067" lon="2.34913">
        <ele>70.2</ele>
        <time>2022-07-27T08:34:50Z</time>
      </trkpt>
      <trkpt lat="49.80068" lon="2.34914">
        <ele>70.1</ele>
        <time>2022-07-27T08:34:51Z</time>
      </trkpt>
      <trkpt lat="49.80068" lon="2.34917">
        <ele>70.1</ele>
        <time>2022-07-27T08:34:52Z</time>
      </trkpt>
      <trkpt lat="49.80069" lon="2.34919">
        <ele>70.1</ele>
        <time>2022-07-27T08:34:53Z</time>
      </trkpt>
      <trkpt lat="49.80069" lon="2.3492">
        <ele>70</ele>
        <time>2022-07-27T08:34:54Z</time>
      </trkpt>
      <trkpt lat="49.80069" lon="2.34922">
        <ele>70</ele>
        <time>2022-07-27T08:34:55Z</time>
      </trkpt>
      <trkpt lat="49.80069" lon="2.34923">
        <ele>70</ele>
        <time>2022-07-27T08:34:56Z</time>
      </trkpt>
      <trkpt lat="49.8007" lon="2.34925">
        <ele>69.9</ele>
        <time>2022-07-27T08:34:57Z</time>
      </trkpt>
      <trkpt lat="49.8007" lon="2.34927">
        <ele>69.9</ele>
        <time>2022-07-27T08:34:58Z</time>
      </trkpt>
      <trkpt lat="49.80071" lon="2.3493">
        <ele>69.9</ele>
        <time>2022-07-27T08:34:59Z</time>
      </trkpt>
      <trkpt lat="49.80071" lon="2.34931">
        <ele>69.8</ele>
        <time>2022-07-27T08:35:00Z</time>
      </trkpt>
      <trkpt lat="49.80071" lon="2.34932">
        <ele>69.8</ele>
        <time>2022-07-27T08:35:01Z</time>
      </trkpt>
      <trkpt lat="49.80071" lon="2.34934">
        <ele>69.8</ele>
        <time>2022-07-27T08:35:02Z</time>
      </trkpt>
      <trkpt lat="49.80072" lon="2.34936">
        <ele>69.7</ele>
        <time>2022-07-27T08:35:03Z</time>
      </trkpt>
      <trkpt lat="49.80072" lon="2.34938">
        <ele>69.7</ele>
        <time>2022-07-27T08:35:04Z</time>
      </trkpt>
      <trkpt lat="49.80073" lon="2.3494">
        <ele>69.7</ele>
        <time>2022-07-27T08:35:05Z</time>
      </trkpt>
      <trkpt lat="49.80073" lon="2.34942">
        <ele>69.7</ele>
        <time>2022-07-27T08:35:06Z</time>
      </trkpt>
      <trkpt lat="49.80074" lon="2.34943">
        <ele>69.6</ele>
        <time>2022-07-27T08:35:07Z</time>
      </trkpt>
      <trkpt lat="49.80074" lon="2.34944">
        <ele>69.6</ele>
        <time>2022-07-27T08:35:08Z</time>
      </trkpt>
      <trkpt lat="49.80075" lon="2.34946">
        <ele>69.6</ele>
        <time>2022-07-27T08:35:09Z</time>
      </trkpt>
      <trkpt lat="49.80075" lon="2.34948">
        <ele>69.6</ele>
        <time>2022-07-27T08:35:10Z</time>
      </trkpt>
      <trkpt lat="49.80076" lon="2.3495">
        <ele>69.5</ele>
        <time>2022-07-27T08:35:11Z</time>
      </trkpt>
      <trkpt lat="49.80076" lon="2.34951">
        <ele>69.5</ele>
        <time>2022-07-27T08:35:12Z</time>
      </trkpt>
      <trkpt lat="49.80077" lon="2.34953">
        <ele>69.5</ele>
        <time>2022-07-27T08:35:13Z</time>
      </trkpt>
      <trkpt lat="49.80077" lon="2.34956">
        <ele>69.4</ele>
        <time>2022-07-27T08:35:14Z</time>
      </trkpt>
      <trkpt lat="49.80078" lon="2.34958">
        <ele>69.4</ele>
        <time>2022-07-27T08:35:15Z</time>
      </trkpt>
      <trkpt lat="49.80078" lon="2.34959">
        <ele>69.4</ele>
        <time>2022-07-27T08:35:16Z</time>
      </trkpt>
      <trkpt lat="49.80079" lon="2.34961">
        <ele>69.4</ele>
        <time>2022-07-27T08:35:17Z</time>
      </trkpt>
      <trkpt lat="49.80079" lon="2.34963">
        <ele>69.3</ele>
        <time>2022-07-27T08:35:18Z</time>
      </trkpt>
      <trkpt lat="49.8008" lon="2.34965">
        <ele>69.3</ele>
        <time>2022-07-27T08:35:19Z</time>
      </trkpt>
      <trkpt lat="49.80081" lon="2.34968">
        <ele>69.3</ele>
        <time>2022-07-27T08:35:20Z</time>
      </trkpt>
      <trkpt lat="49.80081" lon="2.34969">
        <ele>69.2</ele>
        <time>2022-07-27T08:35:21Z</time>
      </trkpt>
      <trkpt lat="49.80082" lon="2.34971">
        <ele>69.2</ele>
        <time>2022-07-27T08:35:22Z</time>
      </trkpt>
      <trkpt lat="49.80082" lon="2.34974">
        <ele>69.2</ele>
        <time>2022-07-27T08:35:23Z</time>
      </trkpt>
      <trkpt lat="49.80083" lon="2.34975">
        <ele>69.1</ele>
        <time>2022-07-27T08:35:24Z</time>
      </trkpt>
      <trkpt lat="49.80083" lon="2.34976">
        <ele>69.1</ele>
        <time>2022-07-27T08:35:25Z</time>
      </trkpt>
      <trkpt lat="49.80084" lon="2.34978">
        <ele>69.1</ele>
        <time>2022-07-27T08:35:26Z</time>
      </trkpt>
      <trkpt lat="49.80084" lon="2.34979">
        <ele>69.1</ele>
        <time>2022-07-27T08:35:27Z</time>
      </trkpt>
      <trkpt lat="49.80085" lon="2.3498">
        <ele>69.1</ele>
        <time>2022-07-27T08:35:28Z</time>
      </trkpt>
      <trkpt lat="49.80085" lon="2.34981">
        <ele>69</ele>
        <time>2022-07-27T08:35:29Z</time>
      </trkpt>
      <trkpt lat="49.80086" lon="2.34984">
        <ele>69</ele>
        <time>2022-07-27T08:35:30Z</time>
      </trkpt>
      <trkpt lat="49.80086" lon="2.34985">
        <ele>69</ele>
        <time>2022-07-27T08:35:31Z</time>
      </trkpt>
      <trkpt lat="49.80087" lon="2.34986">
        <ele>69</ele>
        <time>2022-07-27T08:35:32Z</time>
      </trkpt>
      <trkpt lat="49.80088" lon="2.34989">
        <ele>68.9</ele>
        <time>2022-07-27T08:35:33Z</time>
      </trkpt>
      <trkpt lat="49.80088" lon="2.34991">
        <ele>68.9</ele>
        <time>2022-07-27T08:35:34Z</time>
      </trkpt>
      <trkpt lat="49.80088" lon="2.34992">
        <ele>68.9</ele>
        <time>2022-07-27T08:35:35Z</time>
      </trkpt>
      <trkpt lat="49.80089" lon="2.34994">
        <ele>68.8</ele>
        <time>2022-07-27T08:35:36Z</time>
      </trkpt>
      <trkpt lat="49.80089" lon="2.34995">
        <ele>68.8</ele>
        <time>2022-07-27T08:35:37Z</time>
      </trkpt>
      <trkpt lat="49.8009" lon="2.34997">
        <ele>68.8</ele>
        <time>2022-07-27T08:35:38Z</time>
      </trkpt>
      <trkpt lat="49.8009" lon="2.34999">
        <ele>68.8</ele>
        <time>2022-07-27T08:35:39Z</time>
      </trkpt>
      <trkpt lat="49.80091" lon="2.35001">
        <ele>68.7</ele>
        <time>2022-07-27T08:35:40Z</time>
      </trkpt>
      <trkpt lat="49.80092" lon="2.35004">
        <ele>68.7</ele>
        <time>2022-07-27T08:35:41Z</time>
      </trkpt>
      <trkpt lat="49.80092" lon="2.35005">
        <ele>68.7</ele>
        <time>2022-07-27T08:35:42Z</time>
      </trkpt>
      <trkpt lat="49.80093" lon="2.35006">
        <ele>68.6</ele>
        <time>2022-07-27T08:35:43Z</time>
      </trkpt>
      <trkpt lat="49.80093" lon="2.35008">
        <ele>68.6</ele>
        <time>2022-07-27T08:35:44Z</time>
      </trkpt>
      <trkpt lat="49.80094" lon="2.3501">
        <ele>68.6</ele>
        <time>2022-07-27T08:35:45Z</time>
      </trkpt>
      <trkpt lat="49.80094" lon="2.35011">
        <ele>68.6</ele>
        <time>2022-07-27T08:35:46Z</time>
      </trkpt>
      <trkpt lat="49.80095" lon="2.35013">
        <ele>68.5</ele>
        <time>2022-07-27T08:35:47Z</time>
      </trkpt>
      <trkpt lat="49.80095" lon="2.35014">
        <ele>68.5</ele>
        <time>2022-07-27T08:35:48Z</time>
      </trkpt>
      <trkpt lat="49.80095" lon="2.35015">
        <ele>68.5</ele>
        <time>2022-07-27T08:35:49Z</time>
      </trkpt>
      <trkpt lat="49.80095" lon="2.35016">
        <ele>68.5</ele>
        <time>2022-07-27T08:35:50Z</time>
      </trkpt>
      <trkpt lat="49.80096" lon="2.35017">
        <ele>68.5</ele>
        <time>2022-07-27T08:35:51Z</time>
      </trkpt>
      <trkpt lat="49.80096" lon="2.35018">
        <ele>68.5</ele>
        <time>2022-07-27T08:35:52Z</time>
      </trkpt>
      <trkpt lat="49.80097" lon="2.3502">
        <ele>68.5</ele>
        <time>2022-07-27T08:35:53Z</time>
      </trkpt>
      <trkpt lat="49.80097" lon="2.35022">
        <ele>68.4</ele>
        <time>2022-07-27T08:35:54Z</time>
      </trkpt>
      <trkpt lat="49.80098" lon="2.35024">
        <ele>68.4</ele>
        <time>2022-07-27T08:35:55Z</time>
      </trkpt>
      <trkpt lat="49.80098" lon="2.35026">
        <ele>68.4</ele>
        <time>2022-07-27T08:35:56Z</time>
      </trkpt>
      <trkpt lat="49.80099" lon="2.35027">
        <ele>68.4</ele>
        <time>2022-07-27T08:35:57Z</time>
      </trkpt>
      <trkpt lat="49.80099" lon="2.35029">
        <ele>68.4</ele>
        <time>2022-07-27T08:35:58Z</time>
      </trkpt>
      <trkpt lat="49.801" lon="2.35031">
        <ele>68.3</ele>
        <time>2022-07-27T08:35:59Z</time>
      </trkpt>
      <trkpt lat="49.801" lon="2.35033">
        <ele>68.3</ele>
        <time>2022-07-27T08:36:00Z</time>
      </trkpt>
      <trkpt lat="49.80101" lon="2.35035">
        <ele>68.3</ele>
        <time>2022-07-27T08:36:01Z</time>
      </trkpt>
      <trkpt lat="49.80101" lon="2.35036">
        <ele>68.3</ele>
        <time>2022-07-27T08:36:02Z</time>
      </trkpt>
      <trkpt lat="49.80102" lon="2.35038">
        <ele>68.3</ele>
        <time>2022-07-27T08:36:03Z</time>
      </trkpt>
      <trkpt lat="49.80102" lon="2.3504">
        <ele>68.3</ele>
        <time>2022-07-27T08:36:04Z</time>
      </trkpt>
      <trkpt lat="49.80103" lon="2.35042">
        <ele>68.2</ele>
        <time>2022-07-27T08:36:05Z</time>
      </trkpt>
      <trkpt lat="49.80104" lon="2.35045">
        <ele>68.2</ele>
        <time>2022-07-27T08:36:06Z</time>
      </trkpt>
      <trkpt lat="49.80104" lon="2.35046">
        <ele>68.2</ele>
        <time>2022-07-27T08:36:07Z</time>
      </trkpt>
      <trkpt lat="49.80105" lon="2.35047">
        <ele>68.2</ele>
        <time>2022-07-27T08:36:08Z</time>
      </trkpt>
      <trkpt lat="49.80105" lon="2.35049">
        <ele>68.2</ele>
        <time>2022-07-27T08:36:09Z</time>
      </trkpt>
      <trkpt lat="49.80106" lon="2.35051">
        <ele>68.1</ele>
        <time>2022-07-27T08:36:10Z</time>
      </trkpt>
      <trkpt lat="49.80106" lon="2.35052">
        <ele>68.1</ele>
        <time>2022-07-27T08:36:11Z</time>
      </trkpt>
      <trkpt lat="49.80107" lon="2.35054">
        <ele>68.1</ele>
        <time>2022-07-27T08:36:12Z</time>
      </trkpt>
      <trkpt lat="49.80107" lon="2.35055">
        <ele>68.1</ele>
        <time>2022-07-27T08:36:13Z</time>
      </trkpt>
      <trkpt lat="49.80108" lon="2.35057">
        <ele>68.1</ele>
        <time>2022-07-27T08:36:14Z</time>
      </trkpt>
      <trkpt lat="49.80108" lon="2.35058">
        <ele>68.1</ele>
        <time>2022-07-27T08:36:15Z</time>
      </trkpt>
      <trkpt lat="49.80108" lon="2.3506">
        <ele>68</ele>
        <time>2022-07-27T08:36:16Z</time>
      </trkpt>
      <trkpt lat="49.80109" lon="2.35061">
        <ele>68</ele>
        <time>2022-07-27T08:36:17Z</time>
      </trkpt>
      <trkpt lat="49.80109" lon="2.35062">
        <ele>68</ele>
        <time>2022-07-27T08:36:18Z</time>
      </trkpt>
      <trkpt lat="49.8011" lon="2.35064">
        <ele>68</ele>
        <time>2022-07-27T08:36:19Z</time>
      </trkpt>
      <trkpt lat="49.80111" lon="2.35068">
        <ele>68</ele>
        <time>2022-07-27T08:36:20Z</time>
      </trkpt>
      <trkpt lat="49.80111" lon="2.35069">
        <ele>67.9</ele>
        <time>2022-07-27T08:36:21Z</time>
      </trkpt>
      <trkpt lat="49.80111" lon="2.3507">
        <ele>67.9</ele>
        <time>2022-07-27T08:36:22Z</time>
      </trkpt>
      <trkpt lat="49.80112" lon="2.35073">
        <ele>67.9</ele>
        <time>2022-07-27T08:36:23Z</time>
      </trkpt>
      <trkpt lat="49.80112" lon="2.35074">
        <ele>67.9</ele>
        <time>2022-07-27T08:36:24Z</time>
      </trkpt>
      <trkpt lat="49.80113" lon="2.35076">
        <ele>67.9</ele>
        <time>2022-07-27T08:36:25Z</time>
      </trkpt>
      <trkpt lat="49.80114" lon="2.35078">
        <ele>67.8</ele>
        <time>2022-07-27T08:36:26Z</time>
      </trkpt>
      <trkpt lat="49.80114" lon="2.3508">
        <ele>67.8</ele>
        <time>2022-07-27T08:36:27Z</time>
      </trkpt>
      <trkpt lat="49.80114" lon="2.35081">
        <ele>67.8</ele>
        <time>2022-07-27T08:36:28Z</time>
      </trkpt>
      <trkpt lat="49.80115" lon="2.35083">
        <ele>67.8</ele>
        <time>2022-07-27T08:36:29Z</time>
      </trkpt>
      <trkpt lat="49.80115" lon="2.35085">
        <ele>67.8</ele>
        <time>2022-07-27T08:36:30Z</time>
      </trkpt>
      <trkpt lat="49.80116" lon="2.35088">
        <ele>67.7</ele>
        <time>2022-07-27T08:36:31Z</time>
      </trkpt>
      <trkpt lat="49.80116" lon="2.3509">
        <ele>67.7</ele>
        <time>2022-07-27T08:36:32Z</time>
      </trkpt>
      <trkpt lat="49.80117" lon="2.35091">
        <ele>67.7</ele>
        <time>2022-07-27T08:36:33Z</time>
      </trkpt>
      <trkpt lat="49.80117" lon="2.35093">
        <ele>67.7</ele>
        <time>2022-07-27T08:36:34Z</time>
      </trkpt>
      <trkpt lat="49.80118" lon="2.35095">
        <ele>67.7</ele>
        <time>2022-07-27T08:36:35Z</time>
      </trkpt>
      <trkpt lat="49.80118" lon="2.35097">
        <ele>67.6</ele>
        <time>2022-07-27T08:36:36Z</time>
      </trkpt>
      <trkpt lat="49.80118" lon="2.35098">
        <ele>67.6</ele>
        <time>2022-07-27T08:36:37Z</time>
      </trkpt>
      <trkpt lat="49.80119" lon="2.351">
        <ele>67.6</ele>
        <time>2022-07-27T08:36:38Z</time>
      </trkpt>
      <trkpt lat="49.80119" lon="2.35102">
        <ele>67.6</ele>
        <time>2022-07-27T08:36:39Z</time>
      </trkpt>
      <trkpt lat="49.8012" lon="2.35104">
        <ele>67.6</ele>
        <time>2022-07-27T08:36:40Z</time>
      </trkpt>
      <trkpt lat="49.8012" lon="2.35106">
        <ele>67.6</ele>
        <time>2022-07-27T08:36:41Z</time>
      </trkpt>
      <trkpt lat="49.8012" lon="2.35107">
        <ele>67.5</ele>
        <time>2022-07-27T08:36:42Z</time>
      </trkpt>
      <trkpt lat="49.80121" lon="2.35109">
        <ele>67.5</ele>
        <time>2022-07-27T08:36:43Z</time>
      </trkpt>
      <trkpt lat="49.80121" lon="2.35111">
        <ele>67.5</ele>
        <time>2022-07-27T08:36:44Z</time>
      </trkpt>
      <trkpt lat="49.80122" lon="2.35113">
        <ele>67.5</ele>
        <time>2022-07-27T08:36:45Z</time>
      </trkpt>
      <trkpt lat="49.80122" lon="2.35115">
        <ele>67.5</ele>
        <time>2022-07-27T08:36:46Z</time>
      </trkpt>
      <trkpt lat="49.80123" lon="2.35116">
        <ele>67.5</ele>
        <time>2022-07-27T08:36:47Z</time>
      </trkpt>
      <trkpt lat="49.80123" lon="2.35118">
        <ele>67.5</ele>
        <time>2022-07-27T08:36:48Z</time>
      </trkpt>
      <trkpt lat="49.80124" lon="2.3512">
        <ele>67.4</ele>
        <time>2022-07-27T08:36:49Z</time>
      </trkpt>
      <trkpt lat="49.80124" lon="2.35122">
        <ele>67.4</ele>
        <time>2022-07-27T08:36:50Z</time>
      </trkpt>
      <trkpt lat="49.80125" lon="2.35123">
        <ele>67.4</ele>
        <time>2022-07-27T08:36:51Z</time>
      </trkpt>
      <trkpt lat="49.80125" lon="2.35124">
        <ele>67.4</ele>
        <time>2022-07-27T08:36:52Z</time>
      </trkpt>
      <trkpt lat="49.80126" lon="2.35126">
        <ele>67.4</ele>
        <time>2022-07-27T08:36:53Z</time>
      </trkpt>
      <trkpt lat="49.80126" lon="2.35129">
        <ele>67.4</ele>
        <time>2022-07-27T08:36:54Z</time>
      </trkpt>
      <trkpt lat="49.80127" lon="2.3513">
        <ele>67.4</ele>
        <time>2022-07-27T08:36:55Z</time>
      </trkpt>
      <trkpt lat="49.80127" lon="2.35132">
        <ele>67.4</ele>
        <time>2022-07-27T08:36:56Z</time>
      </trkpt>
      <trkpt lat="49.80128" lon="2.35135">
        <ele>67.3</ele>
        <time>2022-07-27T08:36:57Z</time>
      </trkpt>
      <trkpt lat="49.80128" lon="2.35136">
        <ele>67.3</ele>
        <time>2022-07-27T08:36:58Z</time>
      </trkpt>
      <trkpt lat="49.80128" lon="2.35137">
        <ele>67.3</ele>
        <time>2022-07-27T08:36:59Z</time>
      </trkpt>
      <trkpt lat="49.80129" lon="2.35139">
        <ele>67.3</ele>
        <time>2022-07-27T08:37:00Z</time>
      </trkpt>
      <trkpt lat="49.80129" lon="2.3514">
        <ele>67.3</ele>
        <time>2022-07-27T08:37:01Z</time>
      </trkpt>
      <trkpt lat="49.8013" lon="2.35142">
        <ele>67.3</ele>
        <time>2022-07-27T08:37:02Z</time>
      </trkpt>
      <trkpt lat="49.8013" lon="2.35145">
        <ele>67.3</ele>
        <time>2022-07-27T08:37:03Z</time>
      </trkpt>
      <trkpt lat="49.80131" lon="2.35146">
        <ele>67.3</ele>
        <time>2022-07-27T08:37:04Z</time>
      </trkpt>
      <trkpt lat="49.80131" lon="2.35148">
        <ele>67.3</ele>
        <time>2022-07-27T08:37:05Z</time>
      </trkpt>
      <trkpt lat="49.80131" lon="2.35149">
        <ele>67.3</ele>
        <time>2022-07-27T08:37:06Z</time>
      </trkpt>
      <trkpt lat="49.80132" lon="2.3515">
        <ele>67.2</ele>
        <time>2022-07-27T08:37:07Z</time>
      </trkpt>
      <trkpt lat="49.80132" lon="2.35152">
        <ele>67.2</ele>
        <time>2022-07-27T08:37:08Z</time>
      </trkpt>
      <trkpt lat="49.80133" lon="2.35153">
        <ele>67.2</ele>
        <time>2022-07-27T08:37:09Z</time>
      </trkpt>
      <trkpt lat="49.80134" lon="2.35156">
        <ele>67.2</ele>
        <time>2022-07-27T08:37:10Z</time>
      </trkpt>
      <trkpt lat="49.80134" lon="2.35157">
        <ele>67.2</ele>
        <time>2022-07-27T08:37:11Z</time>
      </trkpt>
      <trkpt lat="49.80135" lon="2.35159">
        <ele>67.2</ele>
        <time>2022-07-27T08:37:12Z</time>
      </trkpt>
      <trkpt lat="49.80135" lon="2.3516">
        <ele>67.2</ele>
        <time>2022-07-27T08:37:13Z</time>
      </trkpt>
      <trkpt lat="49.80136" lon="2.35162">
        <ele>67.2</ele>
        <time>2022-07-27T08:37:14Z</time>
      </trkpt>
      <trkpt lat="49.80136" lon="2.35164">
        <ele>67.1</ele>
        <time>2022-07-27T08:37:15Z</time>
      </trkpt>
      <trkpt lat="49.80137" lon="2.35166">
        <ele>67.1</ele>
        <time>2022-07-27T08:37:16Z</time>
      </trkpt>
      <trkpt lat="49.80137" lon="2.35167">
        <ele>67.1</ele>
        <time>2022-07-27T08:37:17Z</time>
      </trkpt>
      <trkpt lat="49.80138" lon="2.35169">
        <ele>67.1</ele>
        <time>2022-07-27T08:37:18Z</time>
      </trkpt>
      <trkpt lat="49.80138" lon="2.35171">
        <ele>67.1</ele>
        <time>2022-07-27T08:37:19Z</time>
      </trkpt>
      <trkpt lat="49.80139" lon="2.35173">
        <ele>67.1</ele>
        <time>2022-07-27T08:37:20Z</time>
      </trkpt>
      <trkpt lat="49.8014" lon="2.35174">
        <ele>67.1</ele>
        <time>2022-07-27T08:37:21Z</time>
      </trkpt>
      <trkpt lat="49.8014" lon="2.35175">
        <ele>67.1</ele>
        <time>2022-07-27T08:37:22Z</time>
      </trkpt>
      <trkpt lat="49.80141" lon="2.35177">
        <ele>67.1</ele>
        <time>2022-07-27T08:37:23Z</time>
      </trkpt>
      <trkpt lat="49.80141" lon="2.35178">
        <ele>67.1</ele>
        <time>2022-07-27T08:37:24Z</time>
      </trkpt>
      <trkpt lat="49.80142" lon="2.3518">
        <ele>67.1</ele>
        <time>2022-07-27T08:37:25Z</time>
      </trkpt>
      <trkpt lat="49.80142" lon="2.35181">
        <ele>67.1</ele>
        <time>2022-07-27T08:37:26Z</time>
      </trkpt>
      <trkpt lat="49.80142" lon="2.35182">
        <ele>67.1</ele>
        <time>2022-07-27T08:37:27Z</time>
      </trkpt>
      <trkpt lat="49.80144" lon="2.35185">
        <ele>67.1</ele>
        <time>2022-07-27T08:37:28Z</time>
      </trkpt>
      <trkpt lat="49.80144" lon="2.35186">
        <ele>67.1</ele>
        <time>2022-07-27T08:37:29Z</time>
      </trkpt>
      <trkpt lat="49.80144" lon="2.35187">
        <ele>67.1</ele>
        <time>2022-07-27T08:37:30Z</time>
      </trkpt>
      <trkpt lat="49.80145" lon="2.35189">
        <ele>67.1</ele>
        <time>2022-07-27T08:37:31Z</time>
      </trkpt>
      <trkpt lat="49.80145" lon="2.3519">
        <ele>67.1</ele>
        <time>2022-07-27T08:37:32Z</time>
      </trkpt>
      <trkpt lat="49.80146" lon="2.35192">
        <ele>67.1</ele>
        <time>2022-07-27T08:37:33Z</time>
      </trkpt>
      <trkpt lat="49.80146" lon="2.35194">
        <ele>67.1</ele>
        <time>2022-07-27T08:37:34Z</time>
      </trkpt>
      <trkpt lat="49.80147" lon="2.35196">
        <ele>67.1</ele>
        <time>2022-07-27T08:37:35Z</time>
      </trkpt>
      <trkpt lat="49.80148" lon="2.35199">
        <ele>67.1</ele>
        <time>2022-07-27T08:37:36Z</time>
      </trkpt>
      <trkpt lat="49.80148" lon="2.352">
        <ele>67.1</ele>
        <time>2022-07-27T08:37:37Z</time>
      </trkpt>
      <trkpt lat="49.80149" lon="2.35201">
        <ele>67.1</ele>
        <time>2022-07-27T08:37:38Z</time>
      </trkpt>
      <trkpt lat="49.80149" lon="2.35203">
        <ele>67.1</ele>
        <time>2022-07-27T08:37:39Z</time>
      </trkpt>
      <trkpt lat="49.8015" lon="2.35205">
        <ele>67.1</ele>
        <time>2022-07-27T08:37:40Z</time>
      </trkpt>
      <trkpt lat="49.8015" lon="2.35207">
        <ele>67.1</ele>
        <time>2022-07-27T08:37:41Z</time>
      </trkpt>
      <trkpt lat="49.8015" lon="2.35208">
        <ele>67.1</ele>
        <time>2022-07-27T08:37:42Z</time>
      </trkpt>
      <trkpt lat="49.80151" lon="2.3521">
        <ele>67.1</ele>
        <time>2022-07-27T08:37:43Z</time>
      </trkpt>
      <trkpt lat="49.80151" lon="2.35212">
        <ele>67.1</ele>
        <time>2022-07-27T08:37:44Z</time>
      </trkpt>
      <trkpt lat="49.80152" lon="2.35213">
        <ele>67.1</ele>
        <time>2022-07-27T08:37:45Z</time>
      </trkpt>
      <trkpt lat="49.80152" lon="2.35214">
        <ele>67.1</ele>
        <time>2022-07-27T08:37:46Z</time>
      </trkpt>
      <trkpt lat="49.80152" lon="2.35216">
        <ele>67.1</ele>
        <time>2022-07-27T08:37:47Z</time>
      </trkpt>
      <trkpt lat="49.80153" lon="2.35217">
        <ele>67.1</ele>
        <time>2022-07-27T08:37:48Z</time>
      </trkpt>
      <trkpt lat="49.80153" lon="2.35219">
        <ele>67.1</ele>
        <time>2022-07-27T08:37:49Z</time>
      </trkpt>
      <trkpt lat="49.80154" lon="2.35222">
        <ele>67.1</ele>
        <time>2022-07-27T08:37:50Z</time>
      </trkpt>
      <trkpt lat="49.80154" lon="2.35223">
        <ele>67.1</ele>
        <time>2022-07-27T08:37:51Z</time>
      </trkpt>
      <trkpt lat="49.80154" lon="2.35224">
        <ele>67.1</ele>
        <time>2022-07-27T08:37:52Z</time>
      </trkpt>
      <trkpt lat="49.80155" lon="2.35227">
        <ele>67.1</ele>
        <time>2022-07-27T08:37:53Z</time>
      </trkpt>
      <trkpt lat="49.80156" lon="2.35229">
        <ele>67.1</ele>
        <time>2022-07-27T08:37:54Z</time>
      </trkpt>
      <trkpt lat="49.80156" lon="2.3523">
        <ele>67.1</ele>
        <time>2022-07-27T08:37:55Z</time>
      </trkpt>
      <trkpt lat="49.80156" lon="2.35231">
        <ele>67.1</ele>
        <time>2022-07-27T08:37:56Z</time>
      </trkpt>
      <trkpt lat="49.80157" lon="2.35233">
        <ele>67.1</ele>
        <time>2022-07-27T08:37:57Z</time>
      </trkpt>
      <trkpt lat="49.80157" lon="2.35235">
        <ele>67.1</ele>
        <time>2022-07-27T08:37:58Z</time>
      </trkpt>
      <trkpt lat="49.80158" lon="2.35237">
        <ele>67.1</ele>
        <time>2022-07-27T08:37:59Z</time>
      </trkpt>
      <trkpt lat="49.80158" lon="2.35239">
        <ele>67.1</ele>
        <time>2022-07-27T08:38:00Z</time>
      </trkpt>
      <trkpt lat="49.80159" lon="2.35241">
        <ele>67.1</ele>
        <time>2022-07-27T08:38:01Z</time>
      </trkpt>
      <trkpt lat="49.80159" lon="2.35242">
        <ele>67.1</ele>
        <time>2022-07-27T08:38:02Z</time>
      </trkpt>
      <trkpt lat="49.8016" lon="2.35244">
        <ele>67.1</ele>
        <time>2022-07-27T08:38:03Z</time>
      </trkpt>
      <trkpt lat="49.8016" lon="2.35245">
        <ele>67.1</ele>
        <time>2022-07-27T08:38:04Z</time>
      </trkpt>
      <trkpt lat="49.80161" lon="2.35248">
        <ele>67.1</ele>
        <time>2022-07-27T08:38:05Z</time>
      </trkpt>
      <trkpt lat="49.80161" lon="2.35248">
        <ele>67.1</ele>
        <time>2022-07-27T08:38:06Z</time>
      </trkpt>
      <trkpt lat="49.80161" lon="2.35249">
        <ele>67.1</ele>
        <time>2022-07-27T08:38:07Z</time>
      </trkpt>
      <trkpt lat="49.80162" lon="2.35251">
        <ele>67.1</ele>
        <time>2022-07-27T08:38:08Z</time>
      </trkpt>
      <trkpt lat="49.80162" lon="2.35253">
        <ele>67.1</ele>
        <time>2022-07-27T08:38:09Z</time>
      </trkpt>
      <trkpt lat="49.80163" lon="2.35255">
        <ele>67.1</ele>
        <time>2022-07-27T08:38:10Z</time>
      </trkpt>
      <trkpt lat="49.80163" lon="2.35256">
        <ele>67.1</ele>
        <time>2022-07-27T08:38:11Z</time>
      </trkpt>
      <trkpt lat="49.80164" lon="2.35257">
        <ele>67.1</ele>
        <time>2022-07-27T08:38:12Z</time>
      </trkpt>
      <trkpt lat="49.80164" lon="2.3526">
        <ele>67.1</ele>
        <time>2022-07-27T08:38:13Z</time>
      </trkpt>
      <trkpt lat="49.80165" lon="2.35262">
        <ele>67.1</ele>
        <time>2022-07-27T08:38:14Z</time>
      </trkpt>
      <trkpt lat="49.80165" lon="2.35263">
        <ele>67.1</ele>
        <time>2022-07-27T08:38:15Z</time>
      </trkpt>
      <trkpt lat="49.80166" lon="2.35266">
        <ele>67.1</ele>
        <time>2022-07-27T08:38:16Z</time>
      </trkpt>
      <trkpt lat="49.80166" lon="2.35267">
        <ele>67.1</ele>
        <time>2022-07-27T08:38:17Z</time>
      </trkpt>
      <trkpt lat="49.80167" lon="2.35268">
        <ele>67.1</ele>
        <time>2022-07-27T08:38:18Z</time>
      </trkpt>
      <trkpt lat="49.80167" lon="2.3527">
        <ele>67.1</ele>
        <time>2022-07-27T08:38:19Z</time>
      </trkpt>
      <trkpt lat="49.80168" lon="2.35273">
        <ele>67.1</ele>
        <time>2022-07-27T08:38:20Z</time>
      </trkpt>
      <trkpt lat="49.80168" lon="2.35275">
        <ele>67.1</ele>
        <time>2022-07-27T08:38:21Z</time>
      </trkpt>
      <trkpt lat="49.80168" lon="2.35276">
        <ele>67.1</ele>
        <time>2022-07-27T08:38:22Z</time>
      </trkpt>
      <trkpt lat="49.80169" lon="2.35277">
        <ele>67.1</ele>
        <time>2022-07-27T08:38:23Z</time>
      </trkpt>
      <trkpt lat="49.80169" lon="2.35278">
        <ele>67.1</ele>
        <time>2022-07-27T08:38:24Z</time>
      </trkpt>
      <trkpt lat="49.8017" lon="2.35282">
        <ele>67.1</ele>
        <time>2022-07-27T08:38:25Z</time>
      </trkpt>
      <trkpt lat="49.8017" lon="2.35283">
        <ele>67.1</ele>
        <time>2022-07-27T08:38:26Z</time>
      </trkpt>
      <trkpt lat="49.8017" lon="2.35284">
        <ele>67.1</ele>
        <time>2022-07-27T08:38:27Z</time>
      </trkpt>
      <trkpt lat="49.80171" lon="2.35287">
        <ele>67.1</ele>
        <time>2022-07-27T08:38:28Z</time>
      </trkpt>
      <trkpt lat="49.80171" lon="2.35289">
        <ele>67.1</ele>
        <time>2022-07-27T08:38:29Z</time>
      </trkpt>
      <trkpt lat="49.80172" lon="2.3529">
        <ele>67.1</ele>
        <time>2022-07-27T08:38:30Z</time>
      </trkpt>
      <trkpt lat="49.80172" lon="2.35291">
        <ele>67.1</ele>
        <time>2022-07-27T08:38:31Z</time>
      </trkpt>
      <trkpt lat="49.80172" lon="2.35293">
        <ele>67.1</ele>
        <time>2022-07-27T08:38:32Z</time>
      </trkpt>
      <trkpt lat="49.80173" lon="2.35295">
        <ele>67.1</ele>
        <time>2022-07-27T08:38:33Z</time>
      </trkpt>
      <trkpt lat="49.80173" lon="2.35297">
        <ele>67.1</ele>
        <time>2022-07-27T08:38:34Z</time>
      </trkpt>
      <trkpt lat="49.80174" lon="2.35299">
        <ele>67.1</ele>
        <time>2022-07-27T08:38:35Z</time>
      </trkpt>
      <trkpt lat="49.80174" lon="2.353">
        <ele>67.1</ele>
        <time>2022-07-27T08:38:36Z</time>
      </trkpt>
      <trkpt lat="49.80175" lon="2.35302">
        <ele>67.1</ele>
        <time>2022-07-27T08:38:37Z</time>
      </trkpt>
      <trkpt lat="49.80175" lon="2.35303">
        <ele>67.1</ele>
        <time>2022-07-27T08:38:38Z</time>
      </trkpt>
      <trkpt lat="49.80176" lon="2.35305">
        <ele>67.1</ele>
        <time>2022-07-27T08:38:39Z</time>
      </trkpt>
      <trkpt lat="49.80176" lon="2.35307">
        <ele>67</ele>
        <time>2022-07-27T08:38:40Z</time>
      </trkpt>
      <trkpt lat="49.80176" lon="2.35308">
        <ele>67</ele>
        <time>2022-07-27T08:38:41Z</time>
      </trkpt>
      <trkpt lat="49.80177" lon="2.35311">
        <ele>67</ele>
        <time>2022-07-27T08:38:42Z</time>
      </trkpt>
      <trkpt lat="49.80178" lon="2.35312">
        <ele>67</ele>
        <time>2022-07-27T08:38:43Z</time>
      </trkpt>
      <trkpt lat="49.80178" lon="2.35313">
        <ele>67</ele>
        <time>2022-07-27T08:38:44Z</time>
      </trkpt>
      <trkpt lat="49.80179" lon="2.35317">
        <ele>67</ele>
        <time>2022-07-27T08:38:45Z</time>
      </trkpt>
      <trkpt lat="49.80179" lon="2.35318">
        <ele>67</ele>
        <time>2022-07-27T08:38:46Z</time>
      </trkpt>
      <trkpt lat="49.80179" lon="2.35319">
        <ele>67</ele>
        <time>2022-07-27T08:38:47Z</time>
      </trkpt>
      <trkpt lat="49.8018" lon="2.35322">
        <ele>67</ele>
        <time>2022-07-27T08:38:48Z</time>
      </trkpt>
      <trkpt lat="49.80181" lon="2.35324">
        <ele>67</ele>
        <time>2022-07-27T08:38:49Z</time>
      </trkpt>
      <trkpt lat="49.80181" lon="2.35325">
        <ele>67</ele>
        <time>2022-07-27T08:38:50Z</time>
      </trkpt>
      <trkpt lat="49.80181" lon="2.35326">
        <ele>67</ele>
        <time>2022-07-27T08:38:51Z</time>
      </trkpt>
      <trkpt lat="49.80182" lon="2.35328">
        <ele>67</ele>
        <time>2022-07-27T08:38:52Z</time>
      </trkpt>
      <trkpt lat="49.80182" lon="2.3533">
        <ele>67</ele>
        <time>2022-07-27T08:38:53Z</time>
      </trkpt>
      <trkpt lat="49.80183" lon="2.35332">
        <ele>67</ele>
        <time>2022-07-27T08:38:54Z</time>
      </trkpt>
      <trkpt lat="49.80184" lon="2.35335">
        <ele>67</ele>
        <time>2022-07-27T08:38:55Z</time>
      </trkpt>
      <trkpt lat="49.80184" lon="2.35336">
        <ele>67</ele>
        <time>2022-07-27T08:38:56Z</time>
      </trkpt>
      <trkpt lat="49.80185" lon="2.35338">
        <ele>67</ele>
        <time>2022-07-27T08:38:57Z</time>
      </trkpt>
      <trkpt lat="49.80185" lon="2.35339">
        <ele>67</ele>
        <time>2022-07-27T08:38:58Z</time>
      </trkpt>
      <trkpt lat="49.80186" lon="2.35341">
        <ele>67</ele>
        <time>2022-07-27T08:38:59Z</time>
      </trkpt>
      <trkpt lat="49.80186" lon="2.35343">
        <ele>67</ele>
        <time>2022-07-27T08:39:00Z</time>
      </trkpt>
      <trkpt lat="49.80187" lon="2.35344">
        <ele>67</ele>
        <time>2022-07-27T08:39:01Z</time>
      </trkpt>
      <trkpt lat="49.80187" lon="2.35345">
        <ele>67</ele>
        <time>2022-07-27T08:39:02Z</time>
      </trkpt>
      <trkpt lat="49.80188" lon="2.35347">
        <ele>67</ele>
        <time>2022-07-27T08:39:03Z</time>
      </trkpt>
      <trkpt lat="49.80188" lon="2.35348">
        <ele>67.1</ele>
        <time>2022-07-27T08:39:04Z</time>
      </trkpt>
      <trkpt lat="49.80189" lon="2.35351">
        <ele>67.1</ele>
        <time>2022-07-27T08:39:05Z</time>
      </trkpt>
      <trkpt lat="49.8019" lon="2.35352">
        <ele>67.1</ele>
        <time>2022-07-27T08:39:06Z</time>
      </trkpt>
      <trkpt lat="49.8019" lon="2.35353">
        <ele>67.1</ele>
        <time>2022-07-27T08:39:07Z</time>
      </trkpt>
      <trkpt lat="49.8019" lon="2.35355">
        <ele>67.1</ele>
        <time>2022-07-27T08:39:08Z</time>
      </trkpt>
      <trkpt lat="49.80191" lon="2.35357">
        <ele>67.1</ele>
        <time>2022-07-27T08:39:09Z</time>
      </trkpt>
      <trkpt lat="49.80192" lon="2.35358">
        <ele>67.1</ele>
        <time>2022-07-27T08:39:10Z</time>
      </trkpt>
      <trkpt lat="49.80193" lon="2.35361">
        <ele>67.1</ele>
        <time>2022-07-27T08:39:11Z</time>
      </trkpt>
      <trkpt lat="49.80193" lon="2.35362">
        <ele>67.1</ele>
        <time>2022-07-27T08:39:12Z</time>
      </trkpt>
      <trkpt lat="49.80194" lon="2.35363">
        <ele>67.1</ele>
        <time>2022-07-27T08:39:13Z</time>
      </trkpt>
      <trkpt lat="49.80195" lon="2.35366">
        <ele>67.1</ele>
        <time>2022-07-27T08:39:14Z</time>
      </trkpt>
      <trkpt lat="49.80195" lon="2.35367">
        <ele>67.1</ele>
        <time>2022-07-27T08:39:15Z</time>
      </trkpt>
      <trkpt lat="49.80196" lon="2.35368">
        <ele>67.1</ele>
        <time>2022-07-27T08:39:16Z</time>
      </trkpt>
      <trkpt lat="49.80196" lon="2.35369">
        <ele>67.1</ele>
        <time>2022-07-27T08:39:17Z</time>
      </trkpt>
      <trkpt lat="49.80197" lon="2.35371">
        <ele>67.1</ele>
        <time>2022-07-27T08:39:18Z</time>
      </trkpt>
      <trkpt lat="49.80197" lon="2.35372">
        <ele>67.1</ele>
        <time>2022-07-27T08:39:19Z</time>
      </trkpt>
      <trkpt lat="49.80198" lon="2.35373">
        <ele>67</ele>
        <time>2022-07-27T08:39:20Z</time>
      </trkpt>
      <trkpt lat="49.80199" lon="2.35375">
        <ele>67</ele>
        <time>2022-07-27T08:39:21Z</time>
      </trkpt>
      <trkpt lat="49.80199" lon="2.35376">
        <ele>67</ele>
        <time>2022-07-27T08:39:22Z</time>
      </trkpt>
      <trkpt lat="49.802" lon="2.35378">
        <ele>67</ele>
        <time>2022-07-27T08:39:23Z</time>
      </trkpt>
      <trkpt lat="49.802" lon="2.35379">
        <ele>67</ele>
        <time>2022-07-27T08:39:24Z</time>
      </trkpt>
      <trkpt lat="49.80201" lon="2.35381">
        <ele>67</ele>
        <time>2022-07-27T08:39:25Z</time>
      </trkpt>
      <trkpt lat="49.80202" lon="2.35384">
        <ele>67</ele>
        <time>2022-07-27T08:39:26Z</time>
      </trkpt>
      <trkpt lat="49.80202" lon="2.35385">
        <ele>67</ele>
        <time>2022-07-27T08:39:27Z</time>
      </trkpt>
      <trkpt lat="49.80202" lon="2.35386">
        <ele>67</ele>
        <time>2022-07-27T08:39:28Z</time>
      </trkpt>
      <trkpt lat="49.80203" lon="2.35388">
        <ele>67</ele>
        <time>2022-07-27T08:39:29Z</time>
      </trkpt>
      <trkpt lat="49.80203" lon="2.3539">
        <ele>67</ele>
        <time>2022-07-27T08:39:30Z</time>
      </trkpt>
      <trkpt lat="49.80204" lon="2.35391">
        <ele>67</ele>
        <time>2022-07-27T08:39:31Z</time>
      </trkpt>
      <trkpt lat="49.80204" lon="2.35392">
        <ele>67</ele>
        <time>2022-07-27T08:39:32Z</time>
      </trkpt>
      <trkpt lat="49.80205" lon="2.35394">
        <ele>67</ele>
        <time>2022-07-27T08:39:33Z</time>
      </trkpt>
      <trkpt lat="49.80205" lon="2.35396">
        <ele>67</ele>
        <time>2022-07-27T08:39:34Z</time>
      </trkpt>
      <trkpt lat="49.80206" lon="2.35399">
        <ele>66.9</ele>
        <time>2022-07-27T08:39:35Z</time>
      </trkpt>
      <trkpt lat="49.80207" lon="2.354">
        <ele>66.9</ele>
        <time>2022-07-27T08:39:36Z</time>
      </trkpt>
      <trkpt lat="49.80207" lon="2.35401">
        <ele>66.9</ele>
        <time>2022-07-27T08:39:37Z</time>
      </trkpt>
      <trkpt lat="49.80208" lon="2.35404">
        <ele>66.9</ele>
        <time>2022-07-27T08:39:38Z</time>
      </trkpt>
      <trkpt lat="49.80209" lon="2.35405">
        <ele>66.9</ele>
        <time>2022-07-27T08:39:39Z</time>
      </trkpt>
      <trkpt lat="49.80209" lon="2.35406">
        <ele>66.9</ele>
        <time>2022-07-27T08:39:40Z</time>
      </trkpt>
      <trkpt lat="49.8021" lon="2.35408">
        <ele>66.9</ele>
        <time>2022-07-27T08:39:41Z</time>
      </trkpt>
      <trkpt lat="49.8021" lon="2.35409">
        <ele>66.9</ele>
        <time>2022-07-27T08:39:42Z</time>
      </trkpt>
      <trkpt lat="49.80211" lon="2.35411">
        <ele>66.9</ele>
        <time>2022-07-27T08:39:43Z</time>
      </trkpt>
      <trkpt lat="49.80211" lon="2.35412">
        <ele>66.9</ele>
        <time>2022-07-27T08:39:44Z</time>
      </trkpt>
      <trkpt lat="49.80212" lon="2.35413">
        <ele>66.9</ele>
        <time>2022-07-27T08:39:45Z</time>
      </trkpt>
      <trkpt lat="49.80212" lon="2.35415">
        <ele>66.8</ele>
        <time>2022-07-27T08:39:46Z</time>
      </trkpt>
      <trkpt lat="49.80213" lon="2.35416">
        <ele>66.8</ele>
        <time>2022-07-27T08:39:47Z</time>
      </trkpt>
      <trkpt lat="49.80213" lon="2.35417">
        <ele>66.8</ele>
        <time>2022-07-27T08:39:48Z</time>
      </trkpt>
      <trkpt lat="49.80214" lon="2.35419">
        <ele>66.8</ele>
        <time>2022-07-27T08:39:49Z</time>
      </trkpt>
      <trkpt lat="49.80214" lon="2.35421">
        <ele>66.8</ele>
        <time>2022-07-27T08:39:50Z</time>
      </trkpt>
      <trkpt lat="49.80215" lon="2.35423">
        <ele>66.8</ele>
        <time>2022-07-27T08:39:51Z</time>
      </trkpt>
      <trkpt lat="49.80216" lon="2.35424">
        <ele>66.8</ele>
        <time>2022-07-27T08:39:52Z</time>
      </trkpt>
      <trkpt lat="49.80216" lon="2.35426">
        <ele>66.8</ele>
        <time>2022-07-27T08:39:53Z</time>
      </trkpt>
      <trkpt lat="49.80217" lon="2.35428">
        <ele>66.8</ele>
        <time>2022-07-27T08:39:54Z</time>
      </trkpt>
      <trkpt lat="49.80217" lon="2.3543">
        <ele>66.8</ele>
        <time>2022-07-27T08:39:55Z</time>
      </trkpt>
      <trkpt lat="49.80218" lon="2.35432">
        <ele>66.8</ele>
        <time>2022-07-27T08:39:56Z</time>
      </trkpt>
      <trkpt lat="49.80219" lon="2.35434">
        <ele>66.7</ele>
        <time>2022-07-27T08:39:57Z</time>
      </trkpt>
      <trkpt lat="49.80219" lon="2.35435">
        <ele>66.7</ele>
        <time>2022-07-27T08:39:58Z</time>
      </trkpt>
      <trkpt lat="49.80219" lon="2.35437">
        <ele>66.7</ele>
        <time>2022-07-27T08:39:59Z</time>
      </trkpt>
      <trkpt lat="49.8022" lon="2.35439">
        <ele>66.7</ele>
        <time>2022-07-27T08:40:00Z</time>
      </trkpt>
      <trkpt lat="49.80221" lon="2.35442">
        <ele>66.7</ele>
        <time>2022-07-27T08:40:01Z</time>
      </trkpt>
      <trkpt lat="49.80221" lon="2.35443">
        <ele>66.7</ele>
        <time>2022-07-27T08:40:02Z</time>
      </trkpt>
      <trkpt lat="49.80222" lon="2.35444">
        <ele>66.7</ele>
        <time>2022-07-27T08:40:03Z</time>
      </trkpt>
      <trkpt lat="49.80222" lon="2.35446">
        <ele>66.7</ele>
        <time>2022-07-27T08:40:04Z</time>
      </trkpt>
      <trkpt lat="49.80223" lon="2.35448">
        <ele>66.7</ele>
        <time>2022-07-27T08:40:05Z</time>
      </trkpt>
      <trkpt lat="49.80224" lon="2.3545">
        <ele>66.7</ele>
        <time>2022-07-27T08:40:06Z</time>
      </trkpt>
      <trkpt lat="49.80224" lon="2.35451">
        <ele>66.7</ele>
        <time>2022-07-27T08:40:07Z</time>
      </trkpt>
      <trkpt lat="49.80224" lon="2.35452">
        <ele>66.7</ele>
        <time>2022-07-27T08:40:08Z</time>
      </trkpt>
      <trkpt lat="49.80225" lon="2.35453">
        <ele>66.7</ele>
        <time>2022-07-27T08:40:09Z</time>
      </trkpt>
      <trkpt lat="49.80225" lon="2.35455">
        <ele>66.6</ele>
        <time>2022-07-27T08:40:10Z</time>
      </trkpt>
      <trkpt lat="49.80226" lon="2.35457">
        <ele>66.6</ele>
        <time>2022-07-27T08:40:11Z</time>
      </trkpt>
      <trkpt lat="49.80226" lon="2.35458">
        <ele>66.6</ele>
        <time>2022-07-27T08:40:12Z</time>
      </trkpt>
      <trkpt lat="49.80227" lon="2.3546">
        <ele>66.6</ele>
        <time>2022-07-27T08:40:13Z</time>
      </trkpt>
      <trkpt lat="49.80228" lon="2.35463">
        <ele>66.6</ele>
        <time>2022-07-27T08:40:14Z</time>
      </trkpt>
      <trkpt lat="49.80228" lon="2.35464">
        <ele>66.6</ele>
        <time>2022-07-27T08:40:15Z</time>
      </trkpt>
      <trkpt lat="49.80229" lon="2.35466">
        <ele>66.6</ele>
        <time>2022-07-27T08:40:16Z</time>
      </trkpt>
      <trkpt lat="49.80229" lon="2.35467">
        <ele>66.6</ele>
        <time>2022-07-27T08:40:17Z</time>
      </trkpt>
      <trkpt lat="49.8023" lon="2.35469">
        <ele>66.6</ele>
        <time>2022-07-27T08:40:18Z</time>
      </trkpt>
      <trkpt lat="49.8023" lon="2.3547">
        <ele>66.6</ele>
        <time>2022-07-27T08:40:19Z</time>
      </trkpt>
      <trkpt lat="49.80231" lon="2.35472">
        <ele>66.6</ele>
        <time>2022-07-27T08:40:20Z</time>
      </trkpt>
      <trkpt lat="49.80232" lon="2.35474">
        <ele>66.5</ele>
        <time>2022-07-27T08:40:21Z</time>
      </trkpt>
      <trkpt lat="49.80232" lon="2.35476">
        <ele>66.5</ele>
        <time>2022-07-27T08:40:22Z</time>
      </trkpt>
      <trkpt lat="49.80233" lon="2.35477">
        <ele>66.5</ele>
        <time>2022-07-27T08:40:23Z</time>
      </trkpt>
      <trkpt lat="49.80234" lon="2.35479">
        <ele>66.5</ele>
        <time>2022-07-27T08:40:24Z</time>
      </trkpt>
      <trkpt lat="49.80234" lon="2.35481">
        <ele>66.5</ele>
        <time>2022-07-27T08:40:25Z</time>
      </trkpt>
      <trkpt lat="49.80235" lon="2.35483">
        <ele>66.5</ele>
        <time>2022-07-27T08:40:26Z</time>
      </trkpt>
      <trkpt lat="49.80235" lon="2.35484">
        <ele>66.5</ele>
        <time>2022-07-27T08:40:27Z</time>
      </trkpt>
      <trkpt lat="49.80236" lon="2.35486">
        <ele>66.5</ele>
        <time>2022-07-27T08:40:28Z</time>
      </trkpt>
      <trkpt lat="49.80236" lon="2.35487">
        <ele>66.4</ele>
        <time>2022-07-27T08:40:29Z</time>
      </trkpt>
      <trkpt lat="49.80237" lon="2.35489">
        <ele>66.4</ele>
        <time>2022-07-27T08:40:30Z</time>
      </trkpt>
      <trkpt lat="49.80237" lon="2.3549">
        <ele>66.4</ele>
        <time>2022-07-27T08:40:31Z</time>
      </trkpt>
      <trkpt lat="49.80238" lon="2.35492">
        <ele>66.4</ele>
        <time>2022-07-27T08:40:32Z</time>
      </trkpt>
      <trkpt lat="49.80238" lon="2.35493">
        <ele>66.4</ele>
        <time>2022-07-27T08:40:33Z</time>
      </trkpt>
      <trkpt lat="49.80239" lon="2.35495">
        <ele>66.4</ele>
        <time>2022-07-27T08:40:34Z</time>
      </trkpt>
      <trkpt lat="49.80239" lon="2.35497">
        <ele>66.4</ele>
        <time>2022-07-27T08:40:35Z</time>
      </trkpt>
      <trkpt lat="49.8024" lon="2.355">
        <ele>66.3</ele>
        <time>2022-07-27T08:40:36Z</time>
      </trkpt>
      <trkpt lat="49.80241" lon="2.35501">
        <ele>66.3</ele>
        <time>2022-07-27T08:40:37Z</time>
      </trkpt>
      <trkpt lat="49.80241" lon="2.35502">
        <ele>66.3</ele>
        <time>2022-07-27T08:40:38Z</time>
      </trkpt>
      <trkpt lat="49.80242" lon="2.35505">
        <ele>66.3</ele>
        <time>2022-07-27T08:40:39Z</time>
      </trkpt>
      <trkpt lat="49.80243" lon="2.35506">
        <ele>66.3</ele>
        <time>2022-07-27T08:40:40Z</time>
      </trkpt>
      <trkpt lat="49.80243" lon="2.35508">
        <ele>66.3</ele>
        <time>2022-07-27T08:40:41Z</time>
      </trkpt>
      <trkpt lat="49.80243" lon="2.35509">
        <ele>66.3</ele>
        <time>2022-07-27T08:40:42Z</time>
      </trkpt>
      <trkpt lat="49.80244" lon="2.35511">
        <ele>66.3</ele>
        <time>2022-07-27T08:40:43Z</time>
      </trkpt>
      <trkpt lat="49.80244" lon="2.35512">
        <ele>66.3</ele>
        <time>2022-07-27T08:40:44Z</time>
      </trkpt>
      <trkpt lat="49.80245" lon="2.35514">
        <ele>66.2</ele>
        <time>2022-07-27T08:40:45Z</time>
      </trkpt>
      <trkpt lat="49.80246" lon="2.35516">
        <ele>66.2</ele>
        <time>2022-07-27T08:40:46Z</time>
      </trkpt>
      <trkpt lat="49.80246" lon="2.35518">
        <ele>66.2</ele>
        <time>2022-07-27T08:40:47Z</time>
      </trkpt>
      <trkpt lat="49.80247" lon="2.3552">
        <ele>66.2</ele>
        <time>2022-07-27T08:40:48Z</time>
      </trkpt>
      <trkpt lat="49.80247" lon="2.35522">
        <ele>66.2</ele>
        <time>2022-07-27T08:40:49Z</time>
      </trkpt>
      <trkpt lat="49.80247" lon="2.35523">
        <ele>66.2</ele>
        <time>2022-07-27T08:40:50Z</time>
      </trkpt>
      <trkpt lat="49.80248" lon="2.35525">
        <ele>66.2</ele>
        <time>2022-07-27T08:40:51Z</time>
      </trkpt>
      <trkpt lat="49.80248" lon="2.35527">
        <ele>66.2</ele>
        <time>2022-07-27T08:40:52Z</time>
      </trkpt>
      <trkpt lat="49.80248" lon="2.35528">
        <ele>66.1</ele>
        <time>2022-07-27T08:40:53Z</time>
      </trkpt>
      <trkpt lat="49.80249" lon="2.3553">
        <ele>66.1</ele>
        <time>2022-07-27T08:40:54Z</time>
      </trkpt>
      <trkpt lat="49.80249" lon="2.35532">
        <ele>66.1</ele>
        <time>2022-07-27T08:40:55Z</time>
      </trkpt>
      <trkpt lat="49.80249" lon="2.35534">
        <ele>66.1</ele>
        <time>2022-07-27T08:40:56Z</time>
      </trkpt>
      <trkpt lat="49.80249" lon="2.35535">
        <ele>66.1</ele>
        <time>2022-07-27T08:40:57Z</time>
      </trkpt>
      <trkpt lat="49.8025" lon="2.35537">
        <ele>66.1</ele>
        <time>2022-07-27T08:40:58Z</time>
      </trkpt>
      <trkpt lat="49.8025" lon="2.35539">
        <ele>66.1</ele>
        <time>2022-07-27T08:40:59Z</time>
      </trkpt>
      <trkpt lat="49.8025" lon="2.35541">
        <ele>66</ele>
        <time>2022-07-27T08:41:00Z</time>
      </trkpt>
      <trkpt lat="49.80251" lon="2.35543">
        <ele>66</ele>
        <time>2022-07-27T08:41:01Z</time>
      </trkpt>
      <trkpt lat="49.80251" lon="2.35545">
        <ele>66</ele>
        <time>2022-07-27T08:41:02Z</time>
      </trkpt>
      <trkpt lat="49.80251" lon="2.35547">
        <ele>66</ele>
        <time>2022-07-27T08:41:03Z</time>
      </trkpt>
      <trkpt lat="49.80252" lon="2.35548">
        <ele>66</ele>
        <time>2022-07-27T08:41:04Z</time>
      </trkpt>
      <trkpt lat="49.80252" lon="2.3555">
        <ele>65.9</ele>
        <time>2022-07-27T08:41:05Z</time>
      </trkpt>
      <trkpt lat="49.80252" lon="2.35552">
        <ele>65.9</ele>
        <time>2022-07-27T08:41:06Z</time>
      </trkpt>
      <trkpt lat="49.80253" lon="2.35553">
        <ele>65.9</ele>
        <time>2022-07-27T08:41:07Z</time>
      </trkpt>
      <trkpt lat="49.80253" lon="2.35555">
        <ele>65.9</ele>
        <time>2022-07-27T08:41:08Z</time>
      </trkpt>
      <trkpt lat="49.80254" lon="2.35557">
        <ele>65.9</ele>
        <time>2022-07-27T08:41:09Z</time>
      </trkpt>
      <trkpt lat="49.80254" lon="2.35558">
        <ele>65.9</ele>
        <time>2022-07-27T08:41:10Z</time>
      </trkpt>
      <trkpt lat="49.80255" lon="2.35561">
        <ele>65.8</ele>
        <time>2022-07-27T08:41:11Z</time>
      </trkpt>
      <trkpt lat="49.80255" lon="2.35561">
        <ele>65.8</ele>
        <time>2022-07-27T08:41:12Z</time>
      </trkpt>
      <trkpt lat="49.80255" lon="2.35562">
        <ele>65.8</ele>
        <time>2022-07-27T08:41:13Z</time>
      </trkpt>
      <trkpt lat="49.80255" lon="2.35564">
        <ele>65.8</ele>
        <time>2022-07-27T08:41:14Z</time>
      </trkpt>
      <trkpt lat="49.80255" lon="2.35565">
        <ele>65.8</ele>
        <time>2022-07-27T08:41:15Z</time>
      </trkpt>
      <trkpt lat="49.80256" lon="2.35567">
        <ele>65.7</ele>
        <time>2022-07-27T08:41:16Z</time>
      </trkpt>
      <trkpt lat="49.80256" lon="2.35569">
        <ele>65.7</ele>
        <time>2022-07-27T08:41:17Z</time>
      </trkpt>
      <trkpt lat="49.80256" lon="2.3557">
        <ele>65.7</ele>
        <time>2022-07-27T08:41:18Z</time>
      </trkpt>
      <trkpt lat="49.80257" lon="2.35572">
        <ele>65.7</ele>
        <time>2022-07-27T08:41:19Z</time>
      </trkpt>
      <trkpt lat="49.80257" lon="2.35574">
        <ele>65.7</ele>
        <time>2022-07-27T08:41:20Z</time>
      </trkpt>
      <trkpt lat="49.80257" lon="2.35576">
        <ele>65.6</ele>
        <time>2022-07-27T08:41:21Z</time>
      </trkpt>
      <trkpt lat="49.80257" lon="2.35577">
        <ele>65.4</ele>
        <time>2022-07-27T08:41:22Z</time>
      </trkpt>
      <trkpt lat="49.80257" lon="2.3558">
        <ele>65.3</ele>
        <time>2022-07-27T08:41:23Z</time>
      </trkpt>
      <trkpt lat="49.80257" lon="2.35582">
        <ele>65.2</ele>
        <time>2022-07-27T08:41:24Z</time>
      </trkpt>
      <trkpt lat="49.80257" lon="2.35583">
        <ele>65.2</ele>
        <time>2022-07-27T08:41:25Z</time>
      </trkpt>
      <trkpt lat="49.80257" lon="2.35585">
        <ele>65.1</ele>
        <time>2022-07-27T08:41:26Z</time>
      </trkpt>
      <trkpt lat="49.80256" lon="2.35587">
        <ele>65.1</ele>
        <time>2022-07-27T08:41:27Z</time>
      </trkpt>
      <trkpt lat="49.80256" lon="2.35588">
        <ele>65.1</ele>
        <time>2022-07-27T08:41:28Z</time>
      </trkpt>
      <trkpt lat="49.80254" lon="2.3559">
        <ele>65</ele>
        <time>2022-07-27T08:41:29Z</time>
      </trkpt>
      <trkpt lat="49.80254" lon="2.35591">
        <ele>64.9</ele>
        <time>2022-07-27T08:41:30Z</time>
      </trkpt>
      <trkpt lat="49.80253" lon="2.35592">
        <ele>64.9</ele>
        <time>2022-07-27T08:41:31Z</time>
      </trkpt>
      <trkpt lat="49.80252" lon="2.35592">
        <ele>64.9</ele>
        <time>2022-07-27T08:41:32Z</time>
      </trkpt>
      <trkpt lat="49.80251" lon="2.35593">
        <ele>64.8</ele>
        <time>2022-07-27T08:41:33Z</time>
      </trkpt>
      <trkpt lat="49.8025" lon="2.35593">
        <ele>64.8</ele>
        <time>2022-07-27T08:41:34Z</time>
      </trkpt>
      <trkpt lat="49.80249" lon="2.35594">
        <ele>64.7</ele>
        <time>2022-07-27T08:41:35Z</time>
      </trkpt>
      <trkpt lat="49.80248" lon="2.35595">
        <ele>64.7</ele>
        <time>2022-07-27T08:41:36Z</time>
      </trkpt>
      <trkpt lat="49.80247" lon="2.35595">
        <ele>64.6</ele>
        <time>2022-07-27T08:41:37Z</time>
      </trkpt>
      <trkpt lat="49.80246" lon="2.35596">
        <ele>64.6</ele>
        <time>2022-07-27T08:41:38Z</time>
      </trkpt>
      <trkpt lat="49.80244" lon="2.35596">
        <ele>64.5</ele>
        <time>2022-07-27T08:41:39Z</time>
      </trkpt>
      <trkpt lat="49.80243" lon="2.35597">
        <ele>64.5</ele>
        <time>2022-07-27T08:41:40Z</time>
      </trkpt>
      <trkpt lat="49.80242" lon="2.35598">
        <ele>64.4</ele>
        <time>2022-07-27T08:41:41Z</time>
      </trkpt>
      <trkpt lat="49.80241" lon="2.35598">
        <ele>64.3</ele>
        <time>2022-07-27T08:41:42Z</time>
      </trkpt>
      <trkpt lat="49.8024" lon="2.35599">
        <ele>64.3</ele>
        <time>2022-07-27T08:41:43Z</time>
      </trkpt>
      <trkpt lat="49.80239" lon="2.356">
        <ele>64.2</ele>
        <time>2022-07-27T08:41:44Z</time>
      </trkpt>
      <trkpt lat="49.80238" lon="2.35601">
        <ele>64.2</ele>
        <time>2022-07-27T08:41:45Z</time>
      </trkpt>
      <trkpt lat="49.80237" lon="2.35602">
        <ele>64.1</ele>
        <time>2022-07-27T08:41:46Z</time>
      </trkpt>
      <trkpt lat="49.80236" lon="2.35602">
        <ele>64.1</ele>
        <time>2022-07-27T08:41:47Z</time>
      </trkpt>
      <trkpt lat="49.80235" lon="2.35603">
        <ele>64</ele>
        <time>2022-07-27T08:41:48Z</time>
      </trkpt>
      <trkpt lat="49.80234" lon="2.35604">
        <ele>64</ele>
        <time>2022-07-27T08:41:49Z</time>
      </trkpt>
      <trkpt lat="49.80232" lon="2.35605">
        <ele>63.9</ele>
        <time>2022-07-27T08:41:50Z</time>
      </trkpt>
      <trkpt lat="49.80231" lon="2.35606">
        <ele>63.8</ele>
        <time>2022-07-27T08:41:51Z</time>
      </trkpt>
      <trkpt lat="49.8023" lon="2.35607">
        <ele>63.7</ele>
        <time>2022-07-27T08:41:52Z</time>
      </trkpt>
      <trkpt lat="49.80229" lon="2.35608">
        <ele>63.7</ele>
        <time>2022-07-27T08:41:53Z</time>
      </trkpt>
      <trkpt lat="49.80228" lon="2.35609">
        <ele>63.6</ele>
        <time>2022-07-27T08:41:54Z</time>
      </trkpt>
      <trkpt lat="49.80227" lon="2.3561">
        <ele>63.6</ele>
        <time>2022-07-27T08:41:55Z</time>
      </trkpt>
      <trkpt lat="49.80226" lon="2.35611">
        <ele>63.5</ele>
        <time>2022-07-27T08:41:56Z</time>
      </trkpt>
      <trkpt lat="49.80224" lon="2.35612">
        <ele>63.4</ele>
        <time>2022-07-27T08:41:57Z</time>
      </trkpt>
      <trkpt lat="49.80224" lon="2.35612">
        <ele>63.4</ele>
        <time>2022-07-27T08:41:58Z</time>
      </trkpt>
      <trkpt lat="49.80223" lon="2.35613">
        <ele>63.3</ele>
        <time>2022-07-27T08:41:59Z</time>
      </trkpt>
      <trkpt lat="49.80222" lon="2.35613">
        <ele>63.3</ele>
        <time>2022-07-27T08:42:00Z</time>
      </trkpt>
      <trkpt lat="49.80221" lon="2.35614">
        <ele>63.2</ele>
        <time>2022-07-27T08:42:01Z</time>
      </trkpt>
      <trkpt lat="49.8022" lon="2.35615">
        <ele>63.2</ele>
        <time>2022-07-27T08:42:02Z</time>
      </trkpt>
      <trkpt lat="49.80219" lon="2.35615">
        <ele>63.1</ele>
        <time>2022-07-27T08:42:03Z</time>
      </trkpt>
      <trkpt lat="49.80217" lon="2.35617">
        <ele>63</ele>
        <time>2022-07-27T08:42:04Z</time>
      </trkpt>
      <trkpt lat="49.80216" lon="2.35617">
        <ele>63</ele>
        <time>2022-07-27T08:42:05Z</time>
      </trkpt>
      <trkpt lat="49.80216" lon="2.35617">
        <ele>63</ele>
        <time>2022-07-27T08:42:06Z</time>
      </trkpt>
      <trkpt lat="49.80214" lon="2.35619">
        <ele>62.9</ele>
        <time>2022-07-27T08:42:07Z</time>
      </trkpt>
      <trkpt lat="49.80213" lon="2.35619">
        <ele>62.8</ele>
        <time>2022-07-27T08:42:08Z</time>
      </trkpt>
      <trkpt lat="49.80212" lon="2.35619">
        <ele>62.8</ele>
        <time>2022-07-27T08:42:09Z</time>
      </trkpt>
      <trkpt lat="49.80211" lon="2.3562">
        <ele>62.7</ele>
        <time>2022-07-27T08:42:10Z</time>
      </trkpt>
      <trkpt lat="49.80209" lon="2.35621">
        <ele>62.6</ele>
        <time>2022-07-27T08:42:11Z</time>
      </trkpt>
      <trkpt lat="49.80208" lon="2.35621">
        <ele>62.6</ele>
        <time>2022-07-27T08:42:12Z</time>
      </trkpt>
      <trkpt lat="49.80207" lon="2.35622">
        <ele>62.6</ele>
        <time>2022-07-27T08:42:13Z</time>
      </trkpt>
      <trkpt lat="49.80207" lon="2.35622">
        <ele>62.5</ele>
        <time>2022-07-27T08:42:14Z</time>
      </trkpt>
      <trkpt lat="49.80205" lon="2.35623">
        <ele>62.5</ele>
        <time>2022-07-27T08:42:15Z</time>
      </trkpt>
      <trkpt lat="49.80204" lon="2.35624">
        <ele>62.4</ele>
        <time>2022-07-27T08:42:16Z</time>
      </trkpt>
      <trkpt lat="49.80203" lon="2.35624">
        <ele>62.4</ele>
        <time>2022-07-27T08:42:17Z</time>
      </trkpt>
      <trkpt lat="49.80202" lon="2.35624">
        <ele>62.3</ele>
        <time>2022-07-27T08:42:18Z</time>
      </trkpt>
      <trkpt lat="49.80201" lon="2.35625">
        <ele>62.3</ele>
        <time>2022-07-27T08:42:19Z</time>
      </trkpt>
      <trkpt lat="49.80199" lon="2.35626">
        <ele>62.2</ele>
        <time>2022-07-27T08:42:20Z</time>
      </trkpt>
      <trkpt lat="49.80197" lon="2.35626">
        <ele>62.1</ele>
        <time>2022-07-27T08:42:21Z</time>
      </trkpt>
      <trkpt lat="49.80197" lon="2.35627">
        <ele>62.1</ele>
        <time>2022-07-27T08:42:22Z</time>
      </trkpt>
      <trkpt lat="49.80196" lon="2.35627">
        <ele>62.1</ele>
        <time>2022-07-27T08:42:23Z</time>
      </trkpt>
      <trkpt lat="49.80195" lon="2.35628">
        <ele>62</ele>
        <time>2022-07-27T08:42:24Z</time>
      </trkpt>
      <trkpt lat="49.80193" lon="2.35628">
        <ele>62</ele>
        <time>2022-07-27T08:42:25Z</time>
      </trkpt>
      <trkpt lat="49.80192" lon="2.35629">
        <ele>61.9</ele>
        <time>2022-07-27T08:42:26Z</time>
      </trkpt>
      <trkpt lat="49.80191" lon="2.35629">
        <ele>61.9</ele>
        <time>2022-07-27T08:42:27Z</time>
      </trkpt>
      <trkpt lat="49.8019" lon="2.3563">
        <ele>61.9</ele>
        <time>2022-07-27T08:42:28Z</time>
      </trkpt>
      <trkpt lat="49.80189" lon="2.3563">
        <ele>61.9</ele>
        <time>2022-07-27T08:42:29Z</time>
      </trkpt>
      <trkpt lat="49.80188" lon="2.35631">
        <ele>61.8</ele>
        <time>2022-07-27T08:42:30Z</time>
      </trkpt>
      <trkpt lat="49.80187" lon="2.35631">
        <ele>61.8</ele>
        <time>2022-07-27T08:42:31Z</time>
      </trkpt>
      <trkpt lat="49.80186" lon="2.35632">
        <ele>61.8</ele>
        <time>2022-07-27T08:42:32Z</time>
      </trkpt>
      <trkpt lat="49.80186" lon="2.35632">
        <ele>61.8</ele>
        <time>2022-07-27T08:42:33Z</time>
      </trkpt>
      <trkpt lat="49.80184" lon="2.35633">
        <ele>61.7</ele>
        <time>2022-07-27T08:42:34Z</time>
      </trkpt>
      <trkpt lat="49.80183" lon="2.35633">
        <ele>61.7</ele>
        <time>2022-07-27T08:42:35Z</time>
      </trkpt>
      <trkpt lat="49.80182" lon="2.35634">
        <ele>61.7</ele>
        <time>2022-07-27T08:42:36Z</time>
      </trkpt>
      <trkpt lat="49.80181" lon="2.35634">
        <ele>61.7</ele>
        <time>2022-07-27T08:42:37Z</time>
      </trkpt>
      <trkpt lat="49.8018" lon="2.35635">
        <ele>61.6</ele>
        <time>2022-07-27T08:42:38Z</time>
      </trkpt>
      <trkpt lat="49.80179" lon="2.35635">
        <ele>61.6</ele>
        <time>2022-07-27T08:42:39Z</time>
      </trkpt>
      <trkpt lat="49.80178" lon="2.35636">
        <ele>61.6</ele>
        <time>2022-07-27T08:42:40Z</time>
      </trkpt>
      <trkpt lat="49.80176" lon="2.35637">
        <ele>61.6</ele>
        <time>2022-07-27T08:42:41Z</time>
      </trkpt>
      <trkpt lat="49.80176" lon="2.35637">
        <ele>61.6</ele>
        <time>2022-07-27T08:42:42Z</time>
      </trkpt>
      <trkpt lat="49.80175" lon="2.35638">
        <ele>61.5</ele>
        <time>2022-07-27T08:42:43Z</time>
      </trkpt>
      <trkpt lat="49.80173" lon="2.35638">
        <ele>61.5</ele>
        <time>2022-07-27T08:42:44Z</time>
      </trkpt>
      <trkpt lat="49.80173" lon="2.35639">
        <ele>61.5</ele>
        <time>2022-07-27T08:42:45Z</time>
      </trkpt>
      <trkpt lat="49.80171" lon="2.35639">
        <ele>61.5</ele>
        <time>2022-07-27T08:42:46Z</time>
      </trkpt>
      <trkpt lat="49.8017" lon="2.3564">
        <ele>61.5</ele>
        <time>2022-07-27T08:42:47Z</time>
      </trkpt>
      <trkpt lat="49.80169" lon="2.35641">
        <ele>61.5</ele>
        <time>2022-07-27T08:42:48Z</time>
      </trkpt>
      <trkpt lat="49.80168" lon="2.35641">
        <ele>61.4</ele>
        <time>2022-07-27T08:42:49Z</time>
      </trkpt>
      <trkpt lat="49.80167" lon="2.35641">
        <ele>61.4</ele>
        <time>2022-07-27T08:42:50Z</time>
      </trkpt>
      <trkpt lat="49.80167" lon="2.35642">
        <ele>61.4</ele>
        <time>2022-07-27T08:42:51Z</time>
      </trkpt>
      <trkpt lat="49.80164" lon="2.35643">
        <ele>61.4</ele>
        <time>2022-07-27T08:42:52Z</time>
      </trkpt>
      <trkpt lat="49.80164" lon="2.35643">
        <ele>61.4</ele>
        <time>2022-07-27T08:42:53Z</time>
      </trkpt>
      <trkpt lat="49.80163" lon="2.35643">
        <ele>61.4</ele>
        <time>2022-07-27T08:42:54Z</time>
      </trkpt>
      <trkpt lat="49.80161" lon="2.35645">
        <ele>61.4</ele>
        <time>2022-07-27T08:42:55Z</time>
      </trkpt>
      <trkpt lat="49.8016" lon="2.35645">
        <ele>61.4</ele>
        <time>2022-07-27T08:42:56Z</time>
      </trkpt>
      <trkpt lat="49.80159" lon="2.35646">
        <ele>61.4</ele>
        <time>2022-07-27T08:42:57Z</time>
      </trkpt>
      <trkpt lat="49.80158" lon="2.35646">
        <ele>61.4</ele>
        <time>2022-07-27T08:42:58Z</time>
      </trkpt>
      <trkpt lat="49.80157" lon="2.35647">
        <ele>61.4</ele>
        <time>2022-07-27T08:42:59Z</time>
      </trkpt>
      <trkpt lat="49.80157" lon="2.35647">
        <ele>61.4</ele>
        <time>2022-07-27T08:43:00Z</time>
      </trkpt>
      <trkpt lat="49.80156" lon="2.35648">
        <ele>61.4</ele>
        <time>2022-07-27T08:43:01Z</time>
      </trkpt>
      <trkpt lat="49.80155" lon="2.35649">
        <ele>61.4</ele>
        <time>2022-07-27T08:43:02Z</time>
      </trkpt>
      <trkpt lat="49.80154" lon="2.3565">
        <ele>61.4</ele>
        <time>2022-07-27T08:43:03Z</time>
      </trkpt>
      <trkpt lat="49.80153" lon="2.3565">
        <ele>61.4</ele>
        <time>2022-07-27T08:43:04Z</time>
      </trkpt>
      <trkpt lat="49.80152" lon="2.35651">
        <ele>61.4</ele>
        <time>2022-07-27T08:43:05Z</time>
      </trkpt>
      <trkpt lat="49.80151" lon="2.35652">
        <ele>61.4</ele>
        <time>2022-07-27T08:43:06Z</time>
      </trkpt>
      <trkpt lat="49.80149" lon="2.35653">
        <ele>61.4</ele>
        <time>2022-07-27T08:43:07Z</time>
      </trkpt>
      <trkpt lat="49.80149" lon="2.35654">
        <ele>61.4</ele>
        <time>2022-07-27T08:43:08Z</time>
      </trkpt>
      <trkpt lat="49.80148" lon="2.35655">
        <ele>61.4</ele>
        <time>2022-07-27T08:43:09Z</time>
      </trkpt>
      <trkpt lat="49.80146" lon="2.35656">
        <ele>61.4</ele>
        <time>2022-07-27T08:43:10Z</time>
      </trkpt>
      <trkpt lat="49.80145" lon="2.35656">
        <ele>61.4</ele>
        <time>2022-07-27T08:43:11Z</time>
      </trkpt>
      <trkpt lat="49.80144" lon="2.35657">
        <ele>61.4</ele>
        <time>2022-07-27T08:43:12Z</time>
      </trkpt>
      <trkpt lat="49.80143" lon="2.35657">
        <ele>61.5</ele>
        <time>2022-07-27T08:43:13Z</time>
      </trkpt>
      <trkpt lat="49.80142" lon="2.35658">
        <ele>61.5</ele>
        <time>2022-07-27T08:43:14Z</time>
      </trkpt>
      <trkpt lat="49.80141" lon="2.35659">
        <ele>61.5</ele>
        <time>2022-07-27T08:43:15Z</time>
      </trkpt>
      <trkpt lat="49.80139" lon="2.35659">
        <ele>61.5</ele>
        <time>2022-07-27T08:43:16Z</time>
      </trkpt>
      <trkpt lat="49.80138" lon="2.3566">
        <ele>61.6</ele>
        <time>2022-07-27T08:43:17Z</time>
      </trkpt>
      <trkpt lat="49.80137" lon="2.3566">
        <ele>61.6</ele>
        <time>2022-07-27T08:43:18Z</time>
      </trkpt>
      <trkpt lat="49.80136" lon="2.35661">
        <ele>61.6</ele>
        <time>2022-07-27T08:43:19Z</time>
      </trkpt>
      <trkpt lat="49.80135" lon="2.35662">
        <ele>61.7</ele>
        <time>2022-07-27T08:43:20Z</time>
      </trkpt>
      <trkpt lat="49.80134" lon="2.35662">
        <ele>61.7</ele>
        <time>2022-07-27T08:43:21Z</time>
      </trkpt>
      <trkpt lat="49.80133" lon="2.35663">
        <ele>61.7</ele>
        <time>2022-07-27T08:43:22Z</time>
      </trkpt>
      <trkpt lat="49.80132" lon="2.35663">
        <ele>61.7</ele>
        <time>2022-07-27T08:43:23Z</time>
      </trkpt>
      <trkpt lat="49.80131" lon="2.35664">
        <ele>61.8</ele>
        <time>2022-07-27T08:43:24Z</time>
      </trkpt>
      <trkpt lat="49.8013" lon="2.35664">
        <ele>61.8</ele>
        <time>2022-07-27T08:43:25Z</time>
      </trkpt>
      <trkpt lat="49.80129" lon="2.35665">
        <ele>61.9</ele>
        <time>2022-07-27T08:43:26Z</time>
      </trkpt>
      <trkpt lat="49.80127" lon="2.35666">
        <ele>62</ele>
        <time>2022-07-27T08:43:27Z</time>
      </trkpt>
      <trkpt lat="49.80127" lon="2.35666">
        <ele>62</ele>
        <time>2022-07-27T08:43:28Z</time>
      </trkpt>
      <trkpt lat="49.80126" lon="2.35667">
        <ele>62</ele>
        <time>2022-07-27T08:43:29Z</time>
      </trkpt>
      <trkpt lat="49.80124" lon="2.35668">
        <ele>62.1</ele>
        <time>2022-07-27T08:43:30Z</time>
      </trkpt>
      <trkpt lat="49.80123" lon="2.35668">
        <ele>62.2</ele>
        <time>2022-07-27T08:43:31Z</time>
      </trkpt>
      <trkpt lat="49.80122" lon="2.35669">
        <ele>62.2</ele>
        <time>2022-07-27T08:43:32Z</time>
      </trkpt>
      <trkpt lat="49.80121" lon="2.35669">
        <ele>62.3</ele>
        <time>2022-07-27T08:43:33Z</time>
      </trkpt>
      <trkpt lat="49.8012" lon="2.3567">
        <ele>62.3</ele>
        <time>2022-07-27T08:43:34Z</time>
      </trkpt>
      <trkpt lat="49.80119" lon="2.35671">
        <ele>62.4</ele>
        <time>2022-07-27T08:43:35Z</time>
      </trkpt>
      <trkpt lat="49.80118" lon="2.35671">
        <ele>62.5</ele>
        <time>2022-07-27T08:43:36Z</time>
      </trkpt>
      <trkpt lat="49.80116" lon="2.35672">
        <ele>62.5</ele>
        <time>2022-07-27T08:43:37Z</time>
      </trkpt>
      <trkpt lat="49.80115" lon="2.35673">
        <ele>62.6</ele>
        <time>2022-07-27T08:43:38Z</time>
      </trkpt>
      <trkpt lat="49.80114" lon="2.35673">
        <ele>62.7</ele>
        <time>2022-07-27T08:43:39Z</time>
      </trkpt>
      <trkpt lat="49.80113" lon="2.35673">
        <ele>62.7</ele>
        <time>2022-07-27T08:43:40Z</time>
      </trkpt>
      <trkpt lat="49.80112" lon="2.35674">
        <ele>62.8</ele>
        <time>2022-07-27T08:43:41Z</time>
      </trkpt>
      <trkpt lat="49.80111" lon="2.35675">
        <ele>62.9</ele>
        <time>2022-07-27T08:43:42Z</time>
      </trkpt>
      <trkpt lat="49.8011" lon="2.35675">
        <ele>62.9</ele>
        <time>2022-07-27T08:43:43Z</time>
      </trkpt>
      <trkpt lat="49.80109" lon="2.35675">
        <ele>63</ele>
        <time>2022-07-27T08:43:44Z</time>
      </trkpt>
      <trkpt lat="49.80107" lon="2.35677">
        <ele>63.1</ele>
        <time>2022-07-27T08:43:45Z</time>
      </trkpt>
      <trkpt lat="49.80106" lon="2.35677">
        <ele>63.2</ele>
        <time>2022-07-27T08:43:46Z</time>
      </trkpt>
      <trkpt lat="49.80105" lon="2.35678">
        <ele>63.3</ele>
        <time>2022-07-27T08:43:47Z</time>
      </trkpt>
      <trkpt lat="49.80105" lon="2.35678">
        <ele>63.4</ele>
        <time>2022-07-27T08:43:48Z</time>
      </trkpt>
      <trkpt lat="49.80104" lon="2.35679">
        <ele>63.4</ele>
        <time>2022-07-27T08:43:49Z</time>
      </trkpt>
      <trkpt lat="49.80103" lon="2.35679">
        <ele>63.5</ele>
        <time>2022-07-27T08:43:50Z</time>
      </trkpt>
      <trkpt lat="49.80102" lon="2.3568">
        <ele>63.6</ele>
        <time>2022-07-27T08:43:51Z</time>
      </trkpt>
      <trkpt lat="49.80101" lon="2.3568">
        <ele>63.7</ele>
        <time>2022-07-27T08:43:52Z</time>
      </trkpt>
      <trkpt lat="49.801" lon="2.35681">
        <ele>63.8</ele>
        <time>2022-07-27T08:43:53Z</time>
      </trkpt>
      <trkpt lat="49.80099" lon="2.35681">
        <ele>63.8</ele>
        <time>2022-07-27T08:43:54Z</time>
      </trkpt>
      <trkpt lat="49.80099" lon="2.35682">
        <ele>63.9</ele>
        <time>2022-07-27T08:43:55Z</time>
      </trkpt>
      <trkpt lat="49.80097" lon="2.35682">
        <ele>64</ele>
        <time>2022-07-27T08:43:56Z</time>
      </trkpt>
      <trkpt lat="49.80096" lon="2.35683">
        <ele>64.1</ele>
        <time>2022-07-27T08:43:57Z</time>
      </trkpt>
      <trkpt lat="49.80095" lon="2.35683">
        <ele>64.2</ele>
        <time>2022-07-27T08:43:58Z</time>
      </trkpt>
      <trkpt lat="49.80095" lon="2.35684">
        <ele>64.3</ele>
        <time>2022-07-27T08:43:59Z</time>
      </trkpt>
      <trkpt lat="49.80093" lon="2.35685">
        <ele>64.4</ele>
        <time>2022-07-27T08:44:00Z</time>
      </trkpt>
      <trkpt lat="49.80092" lon="2.35685">
        <ele>64.5</ele>
        <time>2022-07-27T08:44:01Z</time>
      </trkpt>
      <trkpt lat="49.80092" lon="2.35685">
        <ele>64.6</ele>
        <time>2022-07-27T08:44:02Z</time>
      </trkpt>
      <trkpt lat="49.80091" lon="2.35686">
        <ele>64.6</ele>
        <time>2022-07-27T08:44:03Z</time>
      </trkpt>
      <trkpt lat="49.8009" lon="2.35686">
        <ele>64.7</ele>
        <time>2022-07-27T08:44:04Z</time>
      </trkpt>
      <trkpt lat="49.80089" lon="2.35687">
        <ele>64.8</ele>
        <time>2022-07-27T08:44:05Z</time>
      </trkpt>
      <trkpt lat="49.80088" lon="2.35687">
        <ele>64.9</ele>
        <time>2022-07-27T08:44:06Z</time>
      </trkpt>
      <trkpt lat="49.80087" lon="2.35687">
        <ele>65</ele>
        <time>2022-07-27T08:44:07Z</time>
      </trkpt>
      <trkpt lat="49.80086" lon="2.35688">
        <ele>65.1</ele>
        <time>2022-07-27T08:44:08Z</time>
      </trkpt>
      <trkpt lat="49.80085" lon="2.35688">
        <ele>65.2</ele>
        <time>2022-07-27T08:44:09Z</time>
      </trkpt>
      <trkpt lat="49.80084" lon="2.35689">
        <ele>65.3</ele>
        <time>2022-07-27T08:44:10Z</time>
      </trkpt>
      <trkpt lat="49.80083" lon="2.35689">
        <ele>65.4</ele>
        <time>2022-07-27T08:44:11Z</time>
      </trkpt>
      <trkpt lat="49.80082" lon="2.35689">
        <ele>65.4</ele>
        <time>2022-07-27T08:44:12Z</time>
      </trkpt>
      <trkpt lat="49.80081" lon="2.3569">
        <ele>65.6</ele>
        <time>2022-07-27T08:44:13Z</time>
      </trkpt>
      <trkpt lat="49.8008" lon="2.35691">
        <ele>65.7</ele>
        <time>2022-07-27T08:44:14Z</time>
      </trkpt>
      <trkpt lat="49.80079" lon="2.35691">
        <ele>65.8</ele>
        <time>2022-07-27T08:44:15Z</time>
      </trkpt>
      <trkpt lat="49.80078" lon="2.35692">
        <ele>65.8</ele>
        <time>2022-07-27T08:44:16Z</time>
      </trkpt>
      <trkpt lat="49.80077" lon="2.35692">
        <ele>65.9</ele>
        <time>2022-07-27T08:44:17Z</time>
      </trkpt>
      <trkpt lat="49.80076" lon="2.35693">
        <ele>66.1</ele>
        <time>2022-07-27T08:44:18Z</time>
      </trkpt>
      <trkpt lat="49.80076" lon="2.35693">
        <ele>66.1</ele>
        <time>2022-07-27T08:44:19Z</time>
      </trkpt>
      <trkpt lat="49.80075" lon="2.35694">
        <ele>66.2</ele>
        <time>2022-07-27T08:44:20Z</time>
      </trkpt>
      <trkpt lat="49.80074" lon="2.35694">
        <ele>66.3</ele>
        <time>2022-07-27T08:44:21Z</time>
      </trkpt>
      <trkpt lat="49.80073" lon="2.35695">
        <ele>66.4</ele>
        <time>2022-07-27T08:44:22Z</time>
      </trkpt>
      <trkpt lat="49.80072" lon="2.35695">
        <ele>66.5</ele>
        <time>2022-07-27T08:44:23Z</time>
      </trkpt>
      <trkpt lat="49.80071" lon="2.35695">
        <ele>66.6</ele>
        <time>2022-07-27T08:44:24Z</time>
      </trkpt>
      <trkpt lat="49.8007" lon="2.35696">
        <ele>66.7</ele>
        <time>2022-07-27T08:44:25Z</time>
      </trkpt>
      <trkpt lat="49.8007" lon="2.35697">
        <ele>66.8</ele>
        <time>2022-07-27T08:44:26Z</time>
      </trkpt>
      <trkpt lat="49.80069" lon="2.35697">
        <ele>66.8</ele>
        <time>2022-07-27T08:44:27Z</time>
      </trkpt>
      <trkpt lat="49.80068" lon="2.35698">
        <ele>67</ele>
        <time>2022-07-27T08:44:28Z</time>
      </trkpt>
      <trkpt lat="49.80067" lon="2.35699">
        <ele>67.1</ele>
        <time>2022-07-27T08:44:29Z</time>
      </trkpt>
      <trkpt lat="49.80066" lon="2.35699">
        <ele>67.1</ele>
        <time>2022-07-27T08:44:30Z</time>
      </trkpt>
      <trkpt lat="49.80066" lon="2.357">
        <ele>67.2</ele>
        <time>2022-07-27T08:44:31Z</time>
      </trkpt>
      <trkpt lat="49.80065" lon="2.35701">
        <ele>67.3</ele>
        <time>2022-07-27T08:44:32Z</time>
      </trkpt>
      <trkpt lat="49.80064" lon="2.35701">
        <ele>67.4</ele>
        <time>2022-07-27T08:44:33Z</time>
      </trkpt>
      <trkpt lat="49.80063" lon="2.35702">
        <ele>67.5</ele>
        <time>2022-07-27T08:44:34Z</time>
      </trkpt>
      <trkpt lat="49.80063" lon="2.35703">
        <ele>67.6</ele>
        <time>2022-07-27T08:44:35Z</time>
      </trkpt>
      <trkpt lat="49.80062" lon="2.35704">
        <ele>67.7</ele>
        <time>2022-07-27T08:44:36Z</time>
      </trkpt>
      <trkpt lat="49.80061" lon="2.35704">
        <ele>67.8</ele>
        <time>2022-07-27T08:44:37Z</time>
      </trkpt>
      <trkpt lat="49.8006" lon="2.35705">
        <ele>67.9</ele>
        <time>2022-07-27T08:44:38Z</time>
      </trkpt>
      <trkpt lat="49.8006" lon="2.35705">
        <ele>67.9</ele>
        <time>2022-07-27T08:44:39Z</time>
      </trkpt>
      <trkpt lat="49.80059" lon="2.35706">
        <ele>68</ele>
        <time>2022-07-27T08:44:40Z</time>
      </trkpt>
      <trkpt lat="49.80058" lon="2.35707">
        <ele>68.1</ele>
        <time>2022-07-27T08:44:41Z</time>
      </trkpt>
      <trkpt lat="49.80057" lon="2.35707">
        <ele>68.2</ele>
        <time>2022-07-27T08:44:42Z</time>
      </trkpt>
      <trkpt lat="49.80056" lon="2.35708">
        <ele>68.3</ele>
        <time>2022-07-27T08:44:43Z</time>
      </trkpt>
      <trkpt lat="49.80055" lon="2.35708">
        <ele>68.4</ele>
        <time>2022-07-27T08:44:44Z</time>
      </trkpt>
      <trkpt lat="49.80055" lon="2.35708">
        <ele>68.4</ele>
        <time>2022-07-27T08:44:45Z</time>
      </trkpt>
      <trkpt lat="49.80054" lon="2.35709">
        <ele>68.5</ele>
        <time>2022-07-27T08:44:46Z</time>
      </trkpt>
      <trkpt lat="49.80053" lon="2.35709">
        <ele>68.7</ele>
        <time>2022-07-27T08:44:47Z</time>
      </trkpt>
      <trkpt lat="49.80052" lon="2.3571">
        <ele>68.8</ele>
        <time>2022-07-27T08:44:48Z</time>
      </trkpt>
      <trkpt lat="49.80051" lon="2.3571">
        <ele>68.8</ele>
        <time>2022-07-27T08:44:49Z</time>
      </trkpt>
      <trkpt lat="49.8005" lon="2.35711">
        <ele>68.9</ele>
        <time>2022-07-27T08:44:50Z</time>
      </trkpt>
      <trkpt lat="49.8005" lon="2.35711">
        <ele>69</ele>
        <time>2022-07-27T08:44:51Z</time>
      </trkpt>
      <trkpt lat="49.80049" lon="2.35711">
        <ele>69.1</ele>
        <time>2022-07-27T08:44:52Z</time>
      </trkpt>
      <trkpt lat="49.80048" lon="2.35711">
        <ele>69.2</ele>
        <time>2022-07-27T08:44:53Z</time>
      </trkpt>
      <trkpt lat="49.80047" lon="2.35711">
        <ele>69.3</ele>
        <time>2022-07-27T08:44:54Z</time>
      </trkpt>
      <trkpt lat="49.80046" lon="2.35712">
        <ele>69.3</ele>
        <time>2022-07-27T08:44:55Z</time>
      </trkpt>
      <trkpt lat="49.80045" lon="2.35712">
        <ele>69.4</ele>
        <time>2022-07-27T08:44:56Z</time>
      </trkpt>
      <trkpt lat="49.80045" lon="2.35712">
        <ele>69.5</ele>
        <time>2022-07-27T08:44:57Z</time>
      </trkpt>
      <trkpt lat="49.80044" lon="2.35712">
        <ele>69.6</ele>
        <time>2022-07-27T08:44:58Z</time>
      </trkpt>
      <trkpt lat="49.80043" lon="2.35713">
        <ele>69.6</ele>
        <time>2022-07-27T08:44:59Z</time>
      </trkpt>
      <trkpt lat="49.80042" lon="2.35713">
        <ele>69.7</ele>
        <time>2022-07-27T08:45:00Z</time>
      </trkpt>
      <trkpt lat="49.80042" lon="2.35713">
        <ele>69.8</ele>
        <time>2022-07-27T08:45:01Z</time>
      </trkpt>
      <trkpt lat="49.80041" lon="2.35713">
        <ele>69.9</ele>
        <time>2022-07-27T08:45:02Z</time>
      </trkpt>
      <trkpt lat="49.8004" lon="2.35713">
        <ele>70</ele>
        <time>2022-07-27T08:45:03Z</time>
      </trkpt>
      <trkpt lat="49.80039" lon="2.35714">
        <ele>70.1</ele>
        <time>2022-07-27T08:45:04Z</time>
      </trkpt>
      <trkpt lat="49.80038" lon="2.35714">
        <ele>70.2</ele>
        <time>2022-07-27T08:45:05Z</time>
      </trkpt>
      <trkpt lat="49.80037" lon="2.35714">
        <ele>70.2</ele>
        <time>2022-07-27T08:45:06Z</time>
      </trkpt>
      <trkpt lat="49.80036" lon="2.35714">
        <ele>70.3</ele>
        <time>2022-07-27T08:45:07Z</time>
      </trkpt>
      <trkpt lat="49.80035" lon="2.35714">
        <ele>70.4</ele>
        <time>2022-07-27T08:45:08Z</time>
      </trkpt>
      <trkpt lat="49.80035" lon="2.35715">
        <ele>70.5</ele>
        <time>2022-07-27T08:45:09Z</time>
      </trkpt>
      <trkpt lat="49.80034" lon="2.35715">
        <ele>70.6</ele>
        <time>2022-07-27T08:45:10Z</time>
      </trkpt>
      <trkpt lat="49.80033" lon="2.35715">
        <ele>70.7</ele>
        <time>2022-07-27T08:45:11Z</time>
      </trkpt>
      <trkpt lat="49.80032" lon="2.35716">
        <ele>70.8</ele>
        <time>2022-07-27T08:45:12Z</time>
      </trkpt>
      <trkpt lat="49.80031" lon="2.35716">
        <ele>70.9</ele>
        <time>2022-07-27T08:45:13Z</time>
      </trkpt>
      <trkpt lat="49.80031" lon="2.35716">
        <ele>70.9</ele>
        <time>2022-07-27T08:45:14Z</time>
      </trkpt>
      <trkpt lat="49.8003" lon="2.35716">
        <ele>71</ele>
        <time>2022-07-27T08:45:15Z</time>
      </trkpt>
      <trkpt lat="49.80029" lon="2.35716">
        <ele>71.1</ele>
        <time>2022-07-27T08:45:16Z</time>
      </trkpt>
      <trkpt lat="49.80028" lon="2.35717">
        <ele>71.2</ele>
        <time>2022-07-27T08:45:17Z</time>
      </trkpt>
      <trkpt lat="49.80027" lon="2.35717">
        <ele>71.3</ele>
        <time>2022-07-27T08:45:18Z</time>
      </trkpt>
      <trkpt lat="49.80026" lon="2.35717">
        <ele>71.4</ele>
        <time>2022-07-27T08:45:19Z</time>
      </trkpt>
      <trkpt lat="49.80026" lon="2.35718">
        <ele>71.4</ele>
        <time>2022-07-27T08:45:20Z</time>
      </trkpt>
      <trkpt lat="49.80025" lon="2.35719">
        <ele>71.5</ele>
        <time>2022-07-27T08:45:21Z</time>
      </trkpt>
      <trkpt lat="49.80024" lon="2.35719">
        <ele>71.6</ele>
        <time>2022-07-27T08:45:22Z</time>
      </trkpt>
      <trkpt lat="49.80023" lon="2.3572">
        <ele>71.7</ele>
        <time>2022-07-27T08:45:23Z</time>
      </trkpt>
      <trkpt lat="49.80023" lon="2.3572">
        <ele>71.8</ele>
        <time>2022-07-27T08:45:24Z</time>
      </trkpt>
      <trkpt lat="49.80022" lon="2.3572">
        <ele>71.8</ele>
        <time>2022-07-27T08:45:25Z</time>
      </trkpt>
      <trkpt lat="49.80021" lon="2.3572">
        <ele>71.9</ele>
        <time>2022-07-27T08:45:26Z</time>
      </trkpt>
      <trkpt lat="49.80021" lon="2.35721">
        <ele>72</ele>
        <time>2022-07-27T08:45:27Z</time>
      </trkpt>
      <trkpt lat="49.8002" lon="2.35721">
        <ele>72</ele>
        <time>2022-07-27T08:45:28Z</time>
      </trkpt>
      <trkpt lat="49.80019" lon="2.35721">
        <ele>72.1</ele>
        <time>2022-07-27T08:45:29Z</time>
      </trkpt>
      <trkpt lat="49.80019" lon="2.35722">
        <ele>72.1</ele>
        <time>2022-07-27T08:45:30Z</time>
      </trkpt>
      <trkpt lat="49.80019" lon="2.35723">
        <ele>72.2</ele>
        <time>2022-07-27T08:45:31Z</time>
      </trkpt>
      <trkpt lat="49.80019" lon="2.35724">
        <ele>72.3</ele>
        <time>2022-07-27T08:45:32Z</time>
      </trkpt>
      <trkpt lat="49.80018" lon="2.35725">
        <ele>72.3</ele>
        <time>2022-07-27T08:45:33Z</time>
      </trkpt>
      <trkpt lat="49.80018" lon="2.35726">
        <ele>72.4</ele>
        <time>2022-07-27T08:45:34Z</time>
      </trkpt>
      <trkpt lat="49.80018" lon="2.35727">
        <ele>72.5</ele>
        <time>2022-07-27T08:45:35Z</time>
      </trkpt>
      <trkpt lat="49.80018" lon="2.35728">
        <ele>72.5</ele>
        <time>2022-07-27T08:45:36Z</time>
      </trkpt>
      <trkpt lat="49.80018" lon="2.35729">
        <ele>72.6</ele>
        <time>2022-07-27T08:45:37Z</time>
      </trkpt>
      <trkpt lat="49.80018" lon="2.3573">
        <ele>72.6</ele>
        <time>2022-07-27T08:45:38Z</time>
      </trkpt>
      <trkpt lat="49.80018" lon="2.3573">
        <ele>72.7</ele>
        <time>2022-07-27T08:45:39Z</time>
      </trkpt>
      <trkpt lat="49.80017" lon="2.3573">
        <ele>72.7</ele>
        <time>2022-07-27T08:45:40Z</time>
      </trkpt>
      <trkpt lat="49.80017" lon="2.3573">
        <ele>72.7</ele>
        <time>2022-07-27T08:45:41Z</time>
      </trkpt>
      <trkpt lat="49.80017" lon="2.35729">
        <ele>72.8</ele>
        <time>2022-07-27T08:45:42Z</time>
      </trkpt>
      <trkpt lat="49.80017" lon="2.35728">
        <ele>72.8</ele>
        <time>2022-07-27T08:45:43Z</time>
      </trkpt>
      <trkpt lat="49.80017" lon="2.35727">
        <ele>72.9</ele>
        <time>2022-07-27T08:45:44Z</time>
      </trkpt>
      <trkpt lat="49.80017" lon="2.35727">
        <ele>72.9</ele>
        <time>2022-07-27T08:45:45Z</time>
      </trkpt>
      <trkpt lat="49.80018" lon="2.35726">
        <ele>72.9</ele>
        <time>2022-07-27T08:45:46Z</time>
      </trkpt>
      <trkpt lat="49.80018" lon="2.35726">
        <ele>72.9</ele>
        <time>2022-07-27T08:45:47Z</time>
      </trkpt>
      <trkpt lat="49.80018" lon="2.35726">
        <ele>73</ele>
        <time>2022-07-27T08:45:48Z</time>
      </trkpt>
      <trkpt lat="49.80018" lon="2.35726">
        <ele>73</ele>
        <time>2022-07-27T08:45:49Z</time>
      </trkpt>
      <trkpt lat="49.80018" lon="2.35726">
        <ele>73</ele>
        <time>2022-07-27T08:45:50Z</time>
      </trkpt>
      <trkpt lat="49.80018" lon="2.35725">
        <ele>73</ele>
        <time>2022-07-27T08:45:51Z</time>
      </trkpt>
      <trkpt lat="49.80018" lon="2.35725">
        <ele>73</ele>
        <time>2022-07-27T08:45:52Z</time>
      </trkpt>
      <trkpt lat="49.80018" lon="2.35725">
        <ele>73</ele>
        <time>2022-07-27T08:45:53Z</time>
      </trkpt>
      <trkpt lat="49.80018" lon="2.35725">
        <ele>73</ele>
        <time>2022-07-27T08:45:54Z</time>
      </trkpt>
      <trkpt lat="49.80018" lon="2.35725">
        <ele>73</ele>
        <time>2022-07-27T08:45:55Z</time>
      </trkpt>
      <trkpt lat="49.80018" lon="2.35725">
        <ele>73</ele>
        <time>2022-07-27T08:45:56Z</time>
      </trkpt>
      <trkpt lat="49.80018" lon="2.35725">
        <ele>73</ele>
        <time>2022-07-27T08:45:57Z</time>
      </trkpt>
      <trkpt lat="49.80018" lon="2.35725">
        <ele>73</ele>
        <time>2022-07-27T08:45:58Z</time>
      </trkpt>
      <trkpt lat="49.80018" lon="2.35725">
        <ele>73</ele>
        <time>2022-07-27T08:45:59Z</time>
      </trkpt>
      <trkpt lat="49.80018" lon="2.35725">
        <ele>73</ele>
        <time>2022-07-27T08:46:00Z</time>
      </trkpt>
      <trkpt lat="49.80018" lon="2.35725">
        <ele>73</ele>
        <time>2022-07-27T08:46:01Z</time>
      </trkpt>
      <trkpt lat="49.80018" lon="2.35725">
        <ele>73</ele>
        <time>2022-07-27T08:46:02Z</time>
      </trkpt>
      <trkpt lat="49.80018" lon="2.35725">
        <ele>73</ele>
        <time>2022-07-27T08:46:03Z</time>
      </trkpt>
      <trkpt lat="49.80018" lon="2.35725">
        <ele>73</ele>
        <time>2022-07-27T08:46:04Z</time>
      </trkpt>
      <trkpt lat="49.80018" lon="2.35725">
        <ele>73</ele>
        <time>2022-07-27T08:46:05Z</time>
      </trkpt>
      <trkpt lat="49.80018" lon="2.35725">
        <ele>73</ele>
        <time>2022-07-27T08:46:06Z</time>
      </trkpt>
      <trkpt lat="49.80018" lon="2.35725">
        <ele>73</ele>
        <time>2022-07-27T08:46:07Z</time>
      </trkpt>
      <trkpt lat="49.80018" lon="2.35725">
        <ele>73</ele>
        <time>2022-07-27T08:46:08Z</time>
      </trkpt>
      <trkpt lat="49.80018" lon="2.35725">
        <ele>73</ele>
        <time>2022-07-27T08:46:09Z</time>
      </trkpt>
      <trkpt lat="49.80018" lon="2.35725">
        <ele>73</ele>
        <time>2022-07-27T08:46:10Z</time>
      </trkpt>
      <trkpt lat="49.80018" lon="2.35725">
        <ele>73</ele>
        <time>2022-07-27T08:46:11Z</time>
      </trkpt>
      <trkpt lat="49.80018" lon="2.35725">
        <ele>73</ele>
        <time>2022-07-27T08:46:12Z</time>
      </trkpt>
      <trkpt lat="49.80018" lon="2.35725">
        <ele>73</ele>
        <time>2022-07-27T08:46:13Z</time>
      </trkpt>
      <trkpt lat="49.80018" lon="2.35725">
        <ele>73</ele>
        <time>2022-07-27T08:46:14Z</time>
      </trkpt>
      <trkpt lat="49.80018" lon="2.35725">
        <ele>73</ele>
        <time>2022-07-27T08:46:15Z</time>
      </trkpt>
      <trkpt lat="49.80018" lon="2.35725">
        <ele>73</ele>
        <time>2022-07-27T08:46:16Z</time>
      </trkpt>
      <trkpt lat="49.80018" lon="2.35725">
        <ele>73</ele>
        <time>2022-07-27T08:46:17Z</time>
      </trkpt>
      <trkpt lat="49.80018" lon="2.35725">
        <ele>73</ele>
        <time>2022-07-27T08:46:18Z</time>
      </trkpt>
      <trkpt lat="49.80018" lon="2.35725">
        <ele>73</ele>
        <time>2022-07-27T08:46:19Z</time>
      </trkpt>
      <trkpt lat="49.80018" lon="2.35725">
        <ele>73</ele>
        <time>2022-07-27T08:46:20Z</time>
      </trkpt>
      <trkpt lat="49.80018" lon="2.35725">
        <ele>73</ele>
        <time>2022-07-27T08:46:21Z</time>
      </trkpt>
      <trkpt lat="49.80018" lon="2.35725">
        <ele>73</ele>
        <time>2022-07-27T08:46:22Z</time>
      </trkpt>
      <trkpt lat="49.80018" lon="2.35725">
        <ele>73</ele>
        <time>2022-07-27T08:46:23Z</time>
      </trkpt>
      <trkpt lat="49.80018" lon="2.35725">
        <ele>73</ele>
        <time>2022-07-27T08:46:24Z</time>
      </trkpt>
      <trkpt lat="49.80018" lon="2.35725">
        <ele>73</ele>
        <time>2022-07-27T08:46:25Z</time>
      </trkpt>
      <trkpt lat="49.80018" lon="2.35725">
        <ele>73</ele>
        <time>2022-07-27T08:46:26Z</time>
      </trkpt>
      <trkpt lat="49.80018" lon="2.35725">
        <ele>73</ele>
        <time>2022-07-27T08:46:27Z</time>
      </trkpt>
      <trkpt lat="49.80018" lon="2.35725">
        <ele>73</ele>
        <time>2022-07-27T08:46:28Z</time>
      </trkpt>
      <trkpt lat="49.80018" lon="2.35725">
        <ele>73</ele>
        <time>2022-07-27T08:46:29Z</time>
      </trkpt>
      <trkpt lat="49.80018" lon="2.35725">
        <ele>73</ele>
        <time>2022-07-27T08:46:30Z</time>
      </trkpt>
      <trkpt lat="49.80018" lon="2.35725">
        <ele>73</ele>
        <time>2022-07-27T08:46:31Z</time>
      </trkpt>
      <trkpt lat="49.80018" lon="2.35725">
        <ele>73</ele>
        <time>2022-07-27T08:46:32Z</time>
      </trkpt>
      <trkpt lat="49.80018" lon="2.35725">
        <ele>73</ele>
        <time>2022-07-27T08:46:33Z</time>
      </trkpt>
      <trkpt lat="49.80018" lon="2.35725">
        <ele>73</ele>
        <time>2022-07-27T08:46:34Z</time>
      </trkpt>
      <trkpt lat="49.80018" lon="2.35725">
        <ele>73</ele>
        <time>2022-07-27T08:46:35Z</time>
      </trkpt>
      <trkpt lat="49.80018" lon="2.35725">
        <ele>73</ele>
        <time>2022-07-27T08:46:36Z</time>
      </trkpt>
      <trkpt lat="49.80018" lon="2.35725">
        <ele>73</ele>
        <time>2022-07-27T08:46:37Z</time>
      </trkpt>
      <trkpt lat="49.80018" lon="2.35725">
        <ele>73</ele>
        <time>2022-07-27T08:46:38Z</time>
      </trkpt>
      <trkpt lat="49.80018" lon="2.35725">
        <ele>73</ele>
        <time>2022-07-27T08:46:39Z</time>
      </trkpt>
      <trkpt lat="49.80018" lon="2.35725">
        <ele>73</ele>
        <time>2022-07-27T08:46:40Z</time>
      </trkpt>
      <trkpt lat="49.80018" lon="2.35725">
        <ele>73</ele>
        <time>2022-07-27T08:46:41Z</time>
      </trkpt>
      <trkpt lat="49.80018" lon="2.35725">
        <ele>73</ele>
        <time>2022-07-27T08:46:42Z</time>
      </trkpt>
      <trkpt lat="49.80018" lon="2.35725">
        <ele>73</ele>
        <time>2022-07-27T08:46:43Z</time>
      </trkpt>
      <trkpt lat="49.80018" lon="2.35725">
        <ele>73</ele>
        <time>2022-07-27T08:46:44Z</time>
      </trkpt>
      <trkpt lat="49.80018" lon="2.35725">
        <ele>73</ele>
        <time>2022-07-27T08:46:45Z</time>
      </trkpt>
      <trkpt lat="49.80018" lon="2.35725">
        <ele>73</ele>
        <time>2022-07-27T08:46:46Z</time>
      </trkpt>
      <trkpt lat="49.80018" lon="2.35725">
        <ele>73</ele>
        <time>2022-07-27T08:46:47Z</time>
      </trkpt>
      <trkpt lat="49.80018" lon="2.35725">
        <ele>73</ele>
        <time>2022-07-27T08:46:48Z</time>
      </trkpt>
      <trkpt lat="49.80018" lon="2.35725">
        <ele>73</ele>
        <time>2022-07-27T08:46:49Z</time>
      </trkpt>
      <trkpt lat="49.80018" lon="2.35725">
        <ele>73</ele>
        <time>2022-07-27T08:46:50Z</time>
      </trkpt>
      <trkpt lat="49.80018" lon="2.35725">
        <ele>73</ele>
        <time>2022-07-27T08:46:51Z</time>
      </trkpt>
      <trkpt lat="49.80018" lon="2.35725">
        <ele>73</ele>
        <time>2022-07-27T08:46:52Z</time>
      </trkpt>
      <trkpt lat="49.80018" lon="2.35725">
        <ele>73</ele>
        <time>2022-07-27T08:46:53Z</time>
      </trkpt>
      <trkpt lat="49.80018" lon="2.35725">
        <ele>73</ele>
        <time>2022-07-27T08:46:54Z</time>
      </trkpt>
      <trkpt lat="49.80018" lon="2.35725">
        <ele>73</ele>
        <time>2022-07-27T08:46:55Z</time>
      </trkpt>
      <trkpt lat="49.80018" lon="2.35725">
        <ele>73</ele>
        <time>2022-07-27T08:46:56Z</time>
      </trkpt>
      <trkpt lat="49.80018" lon="2.35725">
        <ele>73</ele>
        <time>2022-07-27T08:46:57Z</time>
      </trkpt>
      <trkpt lat="49.80018" lon="2.35725">
        <ele>73</ele>
        <time>2022-07-27T08:46:58Z</time>
      </trkpt>
      <trkpt lat="49.80018" lon="2.35725">
        <ele>73</ele>
        <time>2022-07-27T08:46:59Z</time>
      </trkpt>
      <trkpt lat="49.80018" lon="2.35725">
        <ele>73</ele>
        <time>2022-07-27T08:47:00Z</time>
      </trkpt>
      <trkpt lat="49.80018" lon="2.35725">
        <ele>73</ele>
        <time>2022-07-27T08:47:01Z</time>
      </trkpt>
      <trkpt lat="49.80018" lon="2.35725">
        <ele>73</ele>
        <time>2022-07-27T08:47:02Z</time>
      </trkpt>
      <trkpt lat="49.80018" lon="2.35725">
        <ele>73</ele>
        <time>2022-07-27T08:47:03Z</time>
      </trkpt>
      <trkpt lat="49.80018" lon="2.35725">
        <ele>73</ele>
        <time>2022-07-27T08:47:04Z</time>
      </trkpt>
      <trkpt lat="49.80018" lon="2.35725">
        <ele>73</ele>
        <time>2022-07-27T08:47:05Z</time>
      </trkpt>
      <trkpt lat="49.80018" lon="2.35725">
        <ele>73</ele>
        <time>2022-07-27T08:47:06Z</time>
      </trkpt>
      <trkpt lat="49.80018" lon="2.35725">
        <ele>73</ele>
        <time>2022-07-27T08:47:07Z</time>
      </trkpt>
      <trkpt lat="49.80018" lon="2.35725">
        <ele>73</ele>
        <time>2022-07-27T08:47:08Z</time>
      </trkpt>
      <trkpt lat="49.80018" lon="2.35725">
        <ele>73</ele>
        <time>2022-07-27T08:47:09Z</time>
      </trkpt>
      <trkpt lat="49.80018" lon="2.35725">
        <ele>73</ele>
        <time>2022-07-27T08:47:10Z</time>
      </trkpt>
      <trkpt lat="49.80018" lon="2.35725">
        <ele>73</ele>
        <time>2022-07-27T08:47:11Z</time>
      </trkpt>
      <trkpt lat="49.80018" lon="2.35725">
        <ele>73</ele>
        <time>2022-07-27T08:47:12Z</time>
      </trkpt>
      <trkpt lat="49.80018" lon="2.35725">
        <ele>73</ele>
        <time>2022-07-27T08:47:13Z</time>
      </trkpt>
      <trkpt lat="49.80018" lon="2.35725">
        <ele>73</ele>
        <time>2022-07-27T08:47:14Z</time>
      </trkpt>
      <trkpt lat="49.80018" lon="2.35725">
        <ele>73</ele>
        <time>2022-07-27T08:47:15Z</time>
      </trkpt>
      <trkpt lat="49.80018" lon="2.35725">
        <ele>73</ele>
        <time>2022-07-27T08:47:16Z</time>
      </trkpt>
      <trkpt lat="49.80018" lon="2.35725">
        <ele>73</ele>
        <time>2022-07-27T08:47:17Z</time>
      </trkpt>
      <trkpt lat="49.80018" lon="2.35725">
        <ele>73</ele>
        <time>2022-07-27T08:47:18Z</time>
      </trkpt>
      <trkpt lat="49.80018" lon="2.35725">
        <ele>73</ele>
        <time>2022-07-27T08:47:19Z</time>
      </trkpt>
      <trkpt lat="49.80018" lon="2.35725">
        <ele>73</ele>
        <time>2022-07-27T08:47:20Z</time>
      </trkpt>
      <trkpt lat="49.80018" lon="2.35725">
        <ele>73</ele>
        <time>2022-07-27T08:47:21Z</time>
      </trkpt>
      <trkpt lat="49.80018" lon="2.35725">
        <ele>73</ele>
        <time>2022-07-27T08:47:22Z</time>
      </trkpt>
      <trkpt lat="49.80018" lon="2.35725">
        <ele>73</ele>
        <time>2022-07-27T08:47:23Z</time>
      </trkpt>
      <trkpt lat="49.80018" lon="2.35725">
        <ele>73</ele>
        <time>2022-07-27T08:47:24Z</time>
      </trkpt>
      <trkpt lat="49.80018" lon="2.35725">
        <ele>73</ele>
        <time>2022-07-27T08:47:25Z</time>
      </trkpt>
      <trkpt lat="49.80018" lon="2.35725">
        <ele>73</ele>
        <time>2022-07-27T08:47:26Z</time>
      </trkpt>
      <trkpt lat="49.80018" lon="2.35725">
        <ele>73</ele>
        <time>2022-07-27T08:47:27Z</time>
      </trkpt>
      <trkpt lat="49.80018" lon="2.35725">
        <ele>73</ele>
        <time>2022-07-27T08:47:28Z</time>
      </trkpt>
      <trkpt lat="49.80018" lon="2.35725">
        <ele>73</ele>
        <time>2022-07-27T08:47:29Z</time>
      </trkpt>
      <trkpt lat="49.80018" lon="2.35725">
        <ele>73</ele>
        <time>2022-07-27T08:47:30Z</time>
      </trkpt>
      <trkpt lat="49.80018" lon="2.35725">
        <ele>73</ele>
        <time>2022-07-27T08:47:31Z</time>
      </trkpt>
      <trkpt lat="49.80018" lon="2.35725">
        <ele>73</ele>
        <time>2022-07-27T08:47:32Z</time>
      </trkpt>
      <trkpt lat="49.80018" lon="2.35725">
        <ele>73</ele>
        <time>2022-07-27T08:47:33Z</time>
      </trkpt>
      <trkpt lat="49.80018" lon="2.35725">
        <ele>73</ele>
        <time>2022-07-27T08:47:34Z</time>
      </trkpt>
      <trkpt lat="49.80018" lon="2.35725">
        <ele>73</ele>
        <time>2022-07-27T08:47:35Z</time>
      </trkpt>
      <trkpt lat="49.80018" lon="2.35725">
        <ele>73</ele>
        <time>2022-07-27T08:47:36Z</time>
      </trkpt>
      <trkpt lat="49.80018" lon="2.35725">
        <ele>73</ele>
        <time>2022-07-27T08:47:37Z</time>
      </trkpt>
      <trkpt lat="49.80018" lon="2.35725">
        <ele>73</ele>
        <time>2022-07-27T08:47:38Z</time>
      </trkpt>
      <trkpt lat="49.80018" lon="2.35725">
        <ele>73</ele>
        <time>2022-07-27T08:47:39Z</time>
      </trkpt>
      <trkpt lat="49.80018" lon="2.35725">
        <ele>73</ele>
        <time>2022-07-27T08:47:40Z</time>
      </trkpt>
      <trkpt lat="49.80018" lon="2.35725">
        <ele>73</ele>
        <time>2022-07-27T08:47:41Z</time>
      </trkpt>
      <trkpt lat="49.80018" lon="2.35725">
        <ele>73</ele>
        <time>2022-07-27T08:47:42Z</time>
      </trkpt>
      <trkpt lat="49.80018" lon="2.35725">
        <ele>73</ele>
        <time>2022-07-27T08:47:43Z</time>
      </trkpt>
      <trkpt lat="49.80018" lon="2.35725">
        <ele>73</ele>
        <time>2022-07-27T08:47:44Z</time>
      </trkpt>
      <trkpt lat="49.80018" lon="2.35725">
        <ele>73</ele>
        <time>2022-07-27T08:47:45Z</time>
      </trkpt>
      <trkpt lat="49.80018" lon="2.35725">
        <ele>73</ele>
        <time>2022-07-27T08:47:46Z</time>
      </trkpt>
      <trkpt lat="49.80018" lon="2.35725">
        <ele>73</ele>
        <time>2022-07-27T08:47:47Z</time>
      </trkpt>
      <trkpt lat="49.80018" lon="2.35725">
        <ele>73</ele>
        <time>2022-07-27T08:47:48Z</time>
      </trkpt>
      <trkpt lat="49.80018" lon="2.35725">
        <ele>73</ele>
        <time>2022-07-27T08:47:49Z</time>
      </trkpt>
      <trkpt lat="49.80018" lon="2.35725">
        <ele>73</ele>
        <time>2022-07-27T08:47:50Z</time>
      </trkpt>
      <trkpt lat="49.80018" lon="2.35725">
        <ele>73</ele>
        <time>2022-07-27T08:47:51Z</time>
      </trkpt>
      <trkpt lat="49.80018" lon="2.35725">
        <ele>73</ele>
        <time>2022-07-27T08:47:52Z</time>
      </trkpt>
      <trkpt lat="49.80018" lon="2.35725">
        <ele>73</ele>
        <time>2022-07-27T08:47:53Z</time>
      </trkpt>
      <trkpt lat="49.80018" lon="2.35725">
        <ele>73</ele>
        <time>2022-07-27T08:47:54Z</time>
      </trkpt>
      <trkpt lat="49.80018" lon="2.35725">
        <ele>73</ele>
        <time>2022-07-27T08:47:55Z</time>
      </trkpt>
      <trkpt lat="49.80018" lon="2.35725">
        <ele>73</ele>
        <time>2022-07-27T08:47:56Z</time>
      </trkpt>
      <trkpt lat="49.80018" lon="2.35725">
        <ele>73</ele>
        <time>2022-07-27T08:47:57Z</time>
      </trkpt>
      <trkpt lat="49.80018" lon="2.35725">
        <ele>73</ele>
        <time>2022-07-27T08:47:58Z</time>
      </trkpt>
      <trkpt lat="49.80018" lon="2.35725">
        <ele>73</ele>
        <time>2022-07-27T08:47:59Z</time>
      </trkpt>
      <trkpt lat="49.80018" lon="2.35725">
        <ele>73</ele>
        <time>2022-07-27T08:48:00Z</time>
      </trkpt>
      <trkpt lat="49.80018" lon="2.35725">
        <ele>73</ele>
        <time>2022-07-27T08:48:01Z</time>
      </trkpt>
      <trkpt lat="49.80018" lon="2.35725">
        <ele>73</ele>
        <time>2022-07-27T08:48:02Z</time>
      </trkpt>
      <trkpt lat="49.80018" lon="2.35725">
        <ele>73</ele>
        <time>2022-07-27T08:48:03Z</time>
      </trkpt>
      <trkpt lat="49.80018" lon="2.35725">
        <ele>73</ele>
        <time>2022-07-27T08:48:04Z</time>
      </trkpt>
      <trkpt lat="49.80018" lon="2.35725">
        <ele>73</ele>
        <time>2022-07-27T08:48:05Z</time>
      </trkpt>
      <trkpt lat="49.80018" lon="2.35725">
        <ele>73</ele>
        <time>2022-07-27T08:48:06Z</time>
      </trkpt>
      <trkpt lat="49.80018" lon="2.35725">
        <ele>73</ele>
        <time>2022-07-27T08:48:07Z</time>
      </trkpt>
      <trkpt lat="49.80018" lon="2.35725">
        <ele>73</ele>
        <time>2022-07-27T08:48:08Z</time>
      </trkpt>
      <trkpt lat="49.80018" lon="2.35725">
        <ele>73</ele>
        <time>2022-07-27T08:48:09Z</time>
      </trkpt>
      <trkpt lat="49.80018" lon="2.35725">
        <ele>73</ele>
        <time>2022-07-27T08:48:10Z</time>
      </trkpt>
      <trkpt lat="49.80018" lon="2.35725">
        <ele>73</ele>
        <time>2022-07-27T08:48:11Z</time>
      </trkpt>
      <trkpt lat="49.80018" lon="2.35725">
        <ele>73</ele>
        <time>2022-07-27T08:48:12Z</time>
      </trkpt>
      <trkpt lat="49.80018" lon="2.35725">
        <ele>73</ele>
        <time>2022-07-27T08:48:13Z</time>
      </trkpt>
      <trkpt lat="49.80018" lon="2.35725">
        <ele>73</ele>
        <time>2022-07-27T08:48:14Z</time>
      </trkpt>
      <trkpt lat="49.80018" lon="2.35725">
        <ele>73</ele>
        <time>2022-07-27T08:48:15Z</time>
      </trkpt>
      <trkpt lat="49.80018" lon="2.35725">
        <ele>73</ele>
        <time>2022-07-27T08:48:16Z</time>
      </trkpt>
      <trkpt lat="49.80018" lon="2.35725">
        <ele>73</ele>
        <time>2022-07-27T08:48:17Z</time>
      </trkpt>
      <trkpt lat="49.80018" lon="2.35725">
        <ele>73</ele>
        <time>2022-07-27T08:48:18Z</time>
      </trkpt>
      <trkpt lat="49.80018" lon="2.35725">
        <ele>73</ele>
        <time>2022-07-27T08:48:19Z</time>
      </trkpt>
      <trkpt lat="49.80018" lon="2.35725">
        <ele>73</ele>
        <time>2022-07-27T08:48:20Z</time>
      </trkpt>
      <trkpt lat="49.80018" lon="2.35725">
        <ele>73</ele>
        <time>2022-07-27T08:48:21Z</time>
      </trkpt>
      <trkpt lat="49.80018" lon="2.35725">
        <ele>73</ele>
        <time>2022-07-27T08:48:22Z</time>
      </trkpt>
      <trkpt lat="49.80018" lon="2.35725">
        <ele>73</ele>
        <time>2022-07-27T08:48:23Z</time>
      </trkpt>
      <trkpt lat="49.80018" lon="2.35725">
        <ele>73</ele>
        <time>2022-07-27T08:48:24Z</time>
      </trkpt>
      <trkpt lat="49.80018" lon="2.35725">
        <ele>73</ele>
        <time>2022-07-27T08:48:25Z</time>
      </trkpt>
      <trkpt lat="49.80018" lon="2.35725">
        <ele>73</ele>
        <time>2022-07-27T08:48:26Z</time>
      </trkpt>
      <trkpt lat="49.80018" lon="2.35725">
        <ele>73</ele>
        <time>2022-07-27T08:48:27Z</time>
      </trkpt>
      <trkpt lat="49.80018" lon="2.35725">
        <ele>73</ele>
        <time>2022-07-27T08:48:28Z</time>
      </trkpt>
      <trkpt lat="49.80018" lon="2.35725">
        <ele>73</ele>
        <time>2022-07-27T08:48:29Z</time>
      </trkpt>
      <trkpt lat="49.80018" lon="2.35725">
        <ele>73</ele>
        <time>2022-07-27T08:48:30Z</time>
      </trkpt>
      <trkpt lat="49.80018" lon="2.35725">
        <ele>73</ele>
        <time>2022-07-27T08:48:31Z</time>
      </trkpt>
      <trkpt lat="49.80018" lon="2.35725">
        <ele>73</ele>
        <time>2022-07-27T08:48:32Z</time>
      </trkpt>
      <trkpt lat="49.80018" lon="2.35725">
        <ele>73</ele>
        <time>2022-07-27T08:48:33Z</time>
      </trkpt>
      <trkpt lat="49.80018" lon="2.35725">
        <ele>73</ele>
        <time>2022-07-27T08:48:34Z</time>
      </trkpt>
      <trkpt lat="49.80018" lon="2.35725">
        <ele>73</ele>
        <time>2022-07-27T08:48:35Z</time>
      </trkpt>
      <trkpt lat="49.80018" lon="2.35725">
        <ele>73</ele>
        <time>2022-07-27T08:48:36Z</time>
      </trkpt>
      <trkpt lat="49.80018" lon="2.35725">
        <ele>73</ele>
        <time>2022-07-27T08:48:37Z</time>
      </trkpt>
      <trkpt lat="49.80018" lon="2.35725">
        <ele>73</ele>
        <time>2022-07-27T08:48:38Z</time>
      </trkpt>
      <trkpt lat="49.80018" lon="2.35725">
        <ele>73</ele>
        <time>2022-07-27T08:48:39Z</time>
      </trkpt>
      <trkpt lat="49.80018" lon="2.35725">
        <ele>73</ele>
        <time>2022-07-27T08:48:40Z</time>
      </trkpt>
      <trkpt lat="49.80018" lon="2.35725">
        <ele>73</ele>
        <time>2022-07-27T08:48:41Z</time>
      </trkpt>
      <trkpt lat="49.80018" lon="2.35725">
        <ele>73</ele>
        <time>2022-07-27T08:48:42Z</time>
      </trkpt>
      <trkpt lat="49.80018" lon="2.35725">
        <ele>73</ele>
        <time>2022-07-27T08:48:43Z</time>
      </trkpt>
      <trkpt lat="49.80018" lon="2.35725">
        <ele>73</ele>
        <time>2022-07-27T08:48:44Z</time>
      </trkpt>
      <trkpt lat="49.80018" lon="2.35725">
        <ele>73</ele>
        <time>2022-07-27T08:48:45Z</time>
      </trkpt>
      <trkpt lat="49.80018" lon="2.35725">
        <ele>73</ele>
        <time>2022-07-27T08:48:46Z</time>
      </trkpt>
      <trkpt lat="49.80018" lon="2.35725">
        <ele>73</ele>
        <time>2022-07-27T08:48:47Z</time>
      </trkpt>
      <trkpt lat="49.80018" lon="2.35725">
        <ele>73</ele>
        <time>2022-07-27T08:48:48Z</time>
      </trkpt>
      <trkpt lat="49.80018" lon="2.35725">
        <ele>73</ele>
        <time>2022-07-27T08:48:49Z</time>
      </trkpt>
      <trkpt lat="49.80018" lon="2.35725">
        <ele>73</ele>
        <time>2022-07-27T08:48:50Z</time>
      </trkpt>
      <trkpt lat="49.80018" lon="2.35725">
        <ele>73</ele>
        <time>2022-07-27T08:48:51Z</time>
      </trkpt>
      <trkpt lat="49.80018" lon="2.35725">
        <ele>73</ele>
        <time>2022-07-27T08:48:52Z</time>
      </trkpt>
      <trkpt lat="49.80018" lon="2.35725">
        <ele>73</ele>
        <time>2022-07-27T08:48:53Z</time>
      </trkpt>
      <trkpt lat="49.80018" lon="2.35725">
        <ele>73</ele>
        <time>2022-07-27T08:48:54Z</time>
      </trkpt>
      <trkpt lat="49.80018" lon="2.35725">
        <ele>73</ele>
        <time>2022-07-27T08:48:55Z</time>
      </trkpt>
      <trkpt lat="49.80018" lon="2.35725">
        <ele>73</ele>
        <time>2022-07-27T08:48:56Z</time>
      </trkpt>
      <trkpt lat="49.80018" lon="2.35725">
        <ele>73</ele>
        <time>2022-07-27T08:48:57Z</time>
      </trkpt>
      <trkpt lat="49.80018" lon="2.35725">
        <ele>73</ele>
        <time>2022-07-27T08:48:58Z</time>
      </trkpt>
      <trkpt lat="49.80018" lon="2.35725">
        <ele>73</ele>
        <time>2022-07-27T08:48:59Z</time>
      </trkpt>
      <trkpt lat="49.80018" lon="2.35725">
        <ele>73</ele>
        <time>2022-07-27T08:49:00Z</time>
      </trkpt>
      <trkpt lat="49.80018" lon="2.35725">
        <ele>73</ele>
        <time>2022-07-27T08:49:01Z</time>
      </trkpt>
      <trkpt lat="49.80018" lon="2.35725">
        <ele>73</ele>
        <time>2022-07-27T08:49:02Z</time>
      </trkpt>
      <trkpt lat="49.80018" lon="2.35725">
        <ele>73</ele>
        <time>2022-07-27T08:49:03Z</time>
      </trkpt>
      <trkpt lat="49.80018" lon="2.35725">
        <ele>73</ele>
        <time>2022-07-27T08:49:04Z</time>
      </trkpt>
      <trkpt lat="49.80018" lon="2.35725">
        <ele>73</ele>
        <time>2022-07-27T08:49:05Z</time>
      </trkpt>
      <trkpt lat="49.80018" lon="2.35725">
        <ele>73</ele>
        <time>2022-07-27T08:49:06Z</time>
      </trkpt>
      <trkpt lat="49.80018" lon="2.35725">
        <ele>73</ele>
        <time>2022-07-27T08:49:07Z</time>
      </trkpt>
      <trkpt lat="49.80018" lon="2.35725">
        <ele>73</ele>
        <time>2022-07-27T08:49:08Z</time>
      </trkpt>
      <trkpt lat="49.80018" lon="2.35725">
        <ele>73</ele>
        <time>2022-07-27T08:49:09Z</time>
      </trkpt>
      <trkpt lat="49.80018" lon="2.35725">
        <ele>73</ele>
        <time>2022-07-27T08:49:10Z</time>
      </trkpt>
      <trkpt lat="49.80018" lon="2.35725">
        <ele>73</ele>
        <time>2022-07-27T08:49:11Z</time>
      </trkpt>
      <trkpt lat="49.80018" lon="2.35725">
        <ele>73</ele>
        <time>2022-07-27T08:49:12Z</time>
      </trkpt>
      <trkpt lat="49.80018" lon="2.35725">
        <ele>73</ele>
        <time>2022-07-27T08:49:13Z</time>
      </trkpt>
      <trkpt lat="49.80018" lon="2.35725">
        <ele>73</ele>
        <time>2022-07-27T08:49:14Z</time>
      </trkpt>
      <trkpt lat="49.80018" lon="2.35725">
        <ele>73</ele>
        <time>2022-07-27T08:49:15Z</time>
      </trkpt>
      <trkpt lat="49.80018" lon="2.35725">
        <ele>73</ele>
        <time>2022-07-27T08:49:16Z</time>
      </trkpt>
      <trkpt lat="49.80018" lon="2.35725">
        <ele>73</ele>
        <time>2022-07-27T08:49:17Z</time>
      </trkpt>
      <trkpt lat="49.80018" lon="2.35725">
        <ele>73</ele>
        <time>2022-07-27T08:49:18Z</time>
      </trkpt>
      <trkpt lat="49.80018" lon="2.35725">
        <ele>73</ele>
        <time>2022-07-27T08:49:19Z</time>
      </trkpt>
      <trkpt lat="49.80018" lon="2.35725">
        <ele>73</ele>
        <time>2022-07-27T08:49:20Z</time>
      </trkpt>
      <trkpt lat="49.80018" lon="2.35725">
        <ele>73</ele>
        <time>2022-07-27T08:49:21Z</time>
      </trkpt>
      <trkpt lat="49.80018" lon="2.35725">
        <ele>73</ele>
        <time>2022-07-27T08:49:22Z</time>
      </trkpt>
      <trkpt lat="49.80018" lon="2.35725">
        <ele>73</ele>
        <time>2022-07-27T08:49:23Z</time>
      </trkpt>
      <trkpt lat="49.80018" lon="2.35725">
        <ele>73</ele>
        <time>2022-07-27T08:49:24Z</time>
      </trkpt>
      <trkpt lat="49.80018" lon="2.35725">
        <ele>73</ele>
        <time>2022-07-27T08:49:25Z</time>
      </trkpt>
      <trkpt lat="49.8002" lon="2.35728">
        <ele>73.2</ele>
        <time>2022-07-27T08:49:26Z</time>
      </trkpt>
      <trkpt lat="49.80022" lon="2.35732">
        <ele>73.4</ele>
        <time>2022-07-27T08:49:27Z</time>
      </trkpt>
      <trkpt lat="49.80022" lon="2.35733">
        <ele>73.5</ele>
        <time>2022-07-27T08:49:28Z</time>
      </trkpt>
      <trkpt lat="49.80022" lon="2.35734">
        <ele>73.6</ele>
        <time>2022-07-27T08:49:29Z</time>
      </trkpt>
      <trkpt lat="49.80023" lon="2.35736">
        <ele>73.7</ele>
        <time>2022-07-27T08:49:30Z</time>
      </trkpt>
      <trkpt lat="49.80023" lon="2.35737">
        <ele>73.7</ele>
        <time>2022-07-27T08:49:31Z</time>
      </trkpt>
      <trkpt lat="49.80023" lon="2.35737">
        <ele>73.7</ele>
        <time>2022-07-27T08:49:32Z</time>
      </trkpt>
      <trkpt lat="49.80023" lon="2.35738">
        <ele>73.7</ele>
        <time>2022-07-27T08:49:33Z</time>
      </trkpt>
      <trkpt lat="49.80023" lon="2.35739">
        <ele>73.7</ele>
        <time>2022-07-27T08:49:34Z</time>
      </trkpt>
      <trkpt lat="49.80023" lon="2.3574">
        <ele>73.7</ele>
        <time>2022-07-27T08:49:35Z</time>
      </trkpt>
      <trkpt lat="49.80024" lon="2.35741">
        <ele>73.8</ele>
        <time>2022-07-27T08:49:36Z</time>
      </trkpt>
      <trkpt lat="49.80024" lon="2.35742">
        <ele>73.8</ele>
        <time>2022-07-27T08:49:37Z</time>
      </trkpt>
      <trkpt lat="49.80024" lon="2.35743">
        <ele>73.8</ele>
        <time>2022-07-27T08:49:38Z</time>
      </trkpt>
      <trkpt lat="49.80024" lon="2.35743">
        <ele>73.8</ele>
        <time>2022-07-27T08:49:39Z</time>
      </trkpt>
      <trkpt lat="49.80025" lon="2.35743">
        <ele>73.8</ele>
        <time>2022-07-27T08:49:40Z</time>
      </trkpt>
      <trkpt lat="49.80025" lon="2.35742">
        <ele>73.8</ele>
        <time>2022-07-27T08:49:41Z</time>
      </trkpt>
      <trkpt lat="49.80025" lon="2.35742">
        <ele>73.8</ele>
        <time>2022-07-27T08:49:42Z</time>
      </trkpt>
      <trkpt lat="49.80025" lon="2.35742">
        <ele>73.8</ele>
        <time>2022-07-27T08:49:43Z</time>
      </trkpt>
      <trkpt lat="49.80024" lon="2.35742">
        <ele>73.8</ele>
        <time>2022-07-27T08:49:44Z</time>
      </trkpt>
      <trkpt lat="49.80024" lon="2.35742">
        <ele>73.8</ele>
        <time>2022-07-27T08:49:45Z</time>
      </trkpt>
      <trkpt lat="49.80024" lon="2.35742">
        <ele>73.8</ele>
        <time>2022-07-27T08:49:46Z</time>
      </trkpt>
      <trkpt lat="49.80024" lon="2.35742">
        <ele>73.8</ele>
        <time>2022-07-27T08:49:47Z</time>
      </trkpt>
      <trkpt lat="49.80024" lon="2.35742">
        <ele>73.8</ele>
        <time>2022-07-27T08:49:48Z</time>
      </trkpt>
      <trkpt lat="49.80024" lon="2.35742">
        <ele>73.8</ele>
        <time>2022-07-27T08:49:49Z</time>
      </trkpt>
      <trkpt lat="49.80024" lon="2.35742">
        <ele>73.8</ele>
        <time>2022-07-27T08:49:50Z</time>
      </trkpt>
      <trkpt lat="49.80024" lon="2.35742">
        <ele>73.8</ele>
        <time>2022-07-27T08:49:51Z</time>
      </trkpt>
      <trkpt lat="49.80024" lon="2.35742">
        <ele>73.8</ele>
        <time>2022-07-27T08:49:52Z</time>
      </trkpt>
      <trkpt lat="49.80024" lon="2.35742">
        <ele>73.8</ele>
        <time>2022-07-27T08:49:53Z</time>
      </trkpt>
      <trkpt lat="49.80024" lon="2.35742">
        <ele>73.8</ele>
        <time>2022-07-27T08:49:54Z</time>
      </trkpt>
      <trkpt lat="49.80024" lon="2.35742">
        <ele>73.8</ele>
        <time>2022-07-27T08:49:55Z</time>
      </trkpt>
      <trkpt lat="49.80024" lon="2.35742">
        <ele>73.8</ele>
        <time>2022-07-27T08:49:56Z</time>
      </trkpt>
      <trkpt lat="49.80024" lon="2.35742">
        <ele>73.8</ele>
        <time>2022-07-27T08:49:57Z</time>
      </trkpt>
      <trkpt lat="49.80024" lon="2.35742">
        <ele>73.8</ele>
        <time>2022-07-27T08:49:58Z</time>
      </trkpt>
      <trkpt lat="49.80024" lon="2.35742">
        <ele>73.8</ele>
        <time>2022-07-27T08:49:59Z</time>
      </trkpt>
      <trkpt lat="49.80024" lon="2.35742">
        <ele>73.8</ele>
        <time>2022-07-27T08:50:00Z</time>
      </trkpt>
      <trkpt lat="49.80024" lon="2.35742">
        <ele>73.8</ele>
        <time>2022-07-27T08:50:01Z</time>
      </trkpt>
      <trkpt lat="49.80024" lon="2.35742">
        <ele>73.8</ele>
        <time>2022-07-27T08:50:02Z</time>
      </trkpt>
      <trkpt lat="49.80024" lon="2.35742">
        <ele>73.8</ele>
        <time>2022-07-27T08:50:03Z</time>
      </trkpt>
      <trkpt lat="49.80024" lon="2.35742">
        <ele>73.8</ele>
        <time>2022-07-27T08:50:04Z</time>
      </trkpt>
      <trkpt lat="49.80024" lon="2.35742">
        <ele>73.8</ele>
        <time>2022-07-27T08:50:05Z</time>
      </trkpt>
      <trkpt lat="49.80024" lon="2.35742">
        <ele>73.8</ele>
        <time>2022-07-27T08:50:06Z</time>
      </trkpt>
      <trkpt lat="49.80024" lon="2.35742">
        <ele>73.8</ele>
        <time>2022-07-27T08:50:07Z</time>
      </trkpt>
      <trkpt lat="49.80024" lon="2.35742">
        <ele>73.8</ele>
        <time>2022-07-27T08:50:08Z</time>
      </trkpt>
      <trkpt lat="49.80024" lon="2.35742">
        <ele>73.8</ele>
        <time>2022-07-27T08:50:09Z</time>
      </trkpt>
      <trkpt lat="49.80024" lon="2.35742">
        <ele>73.8</ele>
        <time>2022-07-27T08:50:10Z</time>
      </trkpt>
      <trkpt lat="49.80024" lon="2.35742">
        <ele>73.8</ele>
        <time>2022-07-27T08:50:11Z</time>
      </trkpt>
      <trkpt lat="49.80024" lon="2.35742">
        <ele>73.8</ele>
        <time>2022-07-27T08:50:12Z</time>
      </trkpt>
      <trkpt lat="49.80024" lon="2.35742">
        <ele>73.8</ele>
        <time>2022-07-27T08:50:13Z</time>
      </trkpt>
      <trkpt lat="49.80024" lon="2.35742">
        <ele>73.8</ele>
        <time>2022-07-27T08:50:14Z</time>
      </trkpt>
      <trkpt lat="49.80024" lon="2.35742">
        <ele>73.8</ele>
        <time>2022-07-27T08:50:15Z</time>
      </trkpt>
      <trkpt lat="49.80024" lon="2.35742">
        <ele>73.8</ele>
        <time>2022-07-27T08:50:16Z</time>
      </trkpt>
      <trkpt lat="49.80024" lon="2.35742">
        <ele>73.8</ele>
        <time>2022-07-27T08:50:17Z</time>
      </trkpt>
      <trkpt lat="49.80024" lon="2.35742">
        <ele>73.8</ele>
        <time>2022-07-27T08:50:18Z</time>
      </trkpt>
      <trkpt lat="49.80024" lon="2.35742">
        <ele>73.8</ele>
        <time>2022-07-27T08:50:19Z</time>
      </trkpt>
      <trkpt lat="49.80024" lon="2.35742">
        <ele>73.8</ele>
        <time>2022-07-27T08:50:20Z</time>
      </trkpt>
      <trkpt lat="49.80024" lon="2.35742">
        <ele>73.8</ele>
        <time>2022-07-27T08:50:21Z</time>
      </trkpt>
      <trkpt lat="49.80024" lon="2.35742">
        <ele>73.8</ele>
        <time>2022-07-27T08:50:22Z</time>
      </trkpt>
      <trkpt lat="49.80024" lon="2.35742">
        <ele>73.8</ele>
        <time>2022-07-27T08:50:23Z</time>
      </trkpt>
      <trkpt lat="49.80024" lon="2.35742">
        <ele>73.8</ele>
        <time>2022-07-27T08:50:24Z</time>
      </trkpt>
      <trkpt lat="49.80024" lon="2.35741">
        <ele>73.8</ele>
        <time>2022-07-27T08:50:25Z</time>
      </trkpt>
      <trkpt lat="49.80023" lon="2.3574">
        <ele>73.9</ele>
        <time>2022-07-27T08:50:26Z</time>
      </trkpt>
      <trkpt lat="49.80023" lon="2.3574">
        <ele>73.9</ele>
        <time>2022-07-27T08:50:27Z</time>
      </trkpt>
      <trkpt lat="49.80023" lon="2.35741">
        <ele>73.9</ele>
        <time>2022-07-27T08:50:28Z</time>
      </trkpt>
      <trkpt lat="49.80023" lon="2.35742">
        <ele>73.9</ele>
        <time>2022-07-27T08:50:29Z</time>
      </trkpt>
      <trkpt lat="49.80024" lon="2.35743">
        <ele>73.9</ele>
        <time>2022-07-27T08:50:30Z</time>
      </trkpt>
      <trkpt lat="49.80024" lon="2.35743">
        <ele>74</ele>
        <time>2022-07-27T08:50:31Z</time>
      </trkpt>
      <trkpt lat="49.80024" lon="2.35744">
        <ele>74</ele>
        <time>2022-07-27T08:50:32Z</time>
      </trkpt>
      <trkpt lat="49.80024" lon="2.35746">
        <ele>74</ele>
        <time>2022-07-27T08:50:33Z</time>
      </trkpt>
      <trkpt lat="49.80024" lon="2.35747">
        <ele>74</ele>
        <time>2022-07-27T08:50:34Z</time>
      </trkpt>
      <trkpt lat="49.80024" lon="2.35748">
        <ele>74</ele>
        <time>2022-07-27T08:50:35Z</time>
      </trkpt>
      <trkpt lat="49.80024" lon="2.35749">
        <ele>74</ele>
        <time>2022-07-27T08:50:36Z</time>
      </trkpt>
      <trkpt lat="49.80025" lon="2.3575">
        <ele>74.1</ele>
        <time>2022-07-27T08:50:37Z</time>
      </trkpt>
      <trkpt lat="49.80025" lon="2.35751">
        <ele>74.1</ele>
        <time>2022-07-27T08:50:38Z</time>
      </trkpt>
      <trkpt lat="49.80026" lon="2.35752">
        <ele>74.1</ele>
        <time>2022-07-27T08:50:39Z</time>
      </trkpt>
      <trkpt lat="49.80027" lon="2.35753">
        <ele>74.1</ele>
        <time>2022-07-27T08:50:40Z</time>
      </trkpt>
      <trkpt lat="49.80027" lon="2.35754">
        <ele>74.1</ele>
        <time>2022-07-27T08:50:41Z</time>
      </trkpt>
      <trkpt lat="49.80028" lon="2.35755">
        <ele>74.1</ele>
        <time>2022-07-27T08:50:42Z</time>
      </trkpt>
      <trkpt lat="49.80028" lon="2.35757">
        <ele>74.2</ele>
        <time>2022-07-27T08:50:43Z</time>
      </trkpt>
      <trkpt lat="49.80029" lon="2.35758">
        <ele>74.2</ele>
        <time>2022-07-27T08:50:44Z</time>
      </trkpt>
      <trkpt lat="49.80029" lon="2.35759">
        <ele>74.2</ele>
        <time>2022-07-27T08:50:45Z</time>
      </trkpt>
      <trkpt lat="49.80029" lon="2.35761">
        <ele>74.2</ele>
        <time>2022-07-27T08:50:46Z</time>
      </trkpt>
      <trkpt lat="49.80029" lon="2.35762">
        <ele>74.2</ele>
        <time>2022-07-27T08:50:47Z</time>
      </trkpt>
      <trkpt lat="49.8003" lon="2.35763">
        <ele>74.2</ele>
        <time>2022-07-27T08:50:48Z</time>
      </trkpt>
      <trkpt lat="49.8003" lon="2.35765">
        <ele>74.2</ele>
        <time>2022-07-27T08:50:49Z</time>
      </trkpt>
      <trkpt lat="49.8003" lon="2.35767">
        <ele>74.3</ele>
        <time>2022-07-27T08:50:50Z</time>
      </trkpt>
      <trkpt lat="49.80031" lon="2.35768">
        <ele>74.3</ele>
        <time>2022-07-27T08:50:51Z</time>
      </trkpt>
      <trkpt lat="49.80031" lon="2.3577">
        <ele>74.3</ele>
        <time>2022-07-27T08:50:52Z</time>
      </trkpt>
      <trkpt lat="49.80031" lon="2.35771">
        <ele>74.3</ele>
        <time>2022-07-27T08:50:53Z</time>
      </trkpt>
      <trkpt lat="49.80032" lon="2.35773">
        <ele>74.3</ele>
        <time>2022-07-27T08:50:54Z</time>
      </trkpt>
      <trkpt lat="49.80032" lon="2.35774">
        <ele>74.3</ele>
        <time>2022-07-27T08:50:55Z</time>
      </trkpt>
      <trkpt lat="49.80033" lon="2.35776">
        <ele>74.3</ele>
        <time>2022-07-27T08:50:56Z</time>
      </trkpt>
      <trkpt lat="49.80033" lon="2.35778">
        <ele>74.3</ele>
        <time>2022-07-27T08:50:57Z</time>
      </trkpt>
      <trkpt lat="49.80034" lon="2.35779">
        <ele>74.3</ele>
        <time>2022-07-27T08:50:58Z</time>
      </trkpt>
      <trkpt lat="49.80034" lon="2.3578">
        <ele>74.3</ele>
        <time>2022-07-27T08:50:59Z</time>
      </trkpt>
      <trkpt lat="49.80035" lon="2.35782">
        <ele>74.3</ele>
        <time>2022-07-27T08:51:00Z</time>
      </trkpt>
      <trkpt lat="49.80035" lon="2.35783">
        <ele>74.3</ele>
        <time>2022-07-27T08:51:01Z</time>
      </trkpt>
      <trkpt lat="49.80036" lon="2.35785">
        <ele>74.4</ele>
        <time>2022-07-27T08:51:02Z</time>
      </trkpt>
      <trkpt lat="49.80037" lon="2.35788">
        <ele>74.4</ele>
        <time>2022-07-27T08:51:03Z</time>
      </trkpt>
      <trkpt lat="49.80037" lon="2.35789">
        <ele>74.4</ele>
        <time>2022-07-27T08:51:04Z</time>
      </trkpt>
      <trkpt lat="49.80038" lon="2.3579">
        <ele>74.4</ele>
        <time>2022-07-27T08:51:05Z</time>
      </trkpt>
      <trkpt lat="49.80038" lon="2.35791">
        <ele>74.4</ele>
        <time>2022-07-27T08:51:06Z</time>
      </trkpt>
      <trkpt lat="49.80039" lon="2.35792">
        <ele>74.4</ele>
        <time>2022-07-27T08:51:07Z</time>
      </trkpt>
      <trkpt lat="49.80039" lon="2.35794">
        <ele>74.4</ele>
        <time>2022-07-27T08:51:08Z</time>
      </trkpt>
      <trkpt lat="49.8004" lon="2.35795">
        <ele>74.4</ele>
        <time>2022-07-27T08:51:09Z</time>
      </trkpt>
      <trkpt lat="49.8004" lon="2.35796">
        <ele>74.4</ele>
        <time>2022-07-27T08:51:10Z</time>
      </trkpt>
      <trkpt lat="49.8004" lon="2.35798">
        <ele>74.4</ele>
        <time>2022-07-27T08:51:11Z</time>
      </trkpt>
      <trkpt lat="49.80041" lon="2.35799">
        <ele>74.4</ele>
        <time>2022-07-27T08:51:12Z</time>
      </trkpt>
      <trkpt lat="49.80042" lon="2.35801">
        <ele>74.4</ele>
        <time>2022-07-27T08:51:13Z</time>
      </trkpt>
      <trkpt lat="49.80042" lon="2.35802">
        <ele>74.4</ele>
        <time>2022-07-27T08:51:14Z</time>
      </trkpt>
      <trkpt lat="49.80043" lon="2.35804">
        <ele>74.5</ele>
        <time>2022-07-27T08:51:15Z</time>
      </trkpt>
      <trkpt lat="49.80043" lon="2.35805">
        <ele>74.5</ele>
        <time>2022-07-27T08:51:16Z</time>
      </trkpt>
      <trkpt lat="49.80044" lon="2.35806">
        <ele>74.5</ele>
        <time>2022-07-27T08:51:17Z</time>
      </trkpt>
      <trkpt lat="49.80044" lon="2.35808">
        <ele>74.5</ele>
        <time>2022-07-27T08:51:18Z</time>
      </trkpt>
      <trkpt lat="49.80045" lon="2.35809">
        <ele>74.5</ele>
        <time>2022-07-27T08:51:19Z</time>
      </trkpt>
      <trkpt lat="49.80046" lon="2.35811">
        <ele>74.5</ele>
        <time>2022-07-27T08:51:20Z</time>
      </trkpt>
      <trkpt lat="49.80046" lon="2.35812">
        <ele>74.5</ele>
        <time>2022-07-27T08:51:21Z</time>
      </trkpt>
      <trkpt lat="49.80047" lon="2.35814">
        <ele>74.5</ele>
        <time>2022-07-27T08:51:22Z</time>
      </trkpt>
      <trkpt lat="49.80048" lon="2.35815">
        <ele>74.5</ele>
        <time>2022-07-27T08:51:23Z</time>
      </trkpt>
      <trkpt lat="49.80048" lon="2.35816">
        <ele>74.5</ele>
        <time>2022-07-27T08:51:24Z</time>
      </trkpt>
      <trkpt lat="49.80049" lon="2.35817">
        <ele>74.5</ele>
        <time>2022-07-27T08:51:25Z</time>
      </trkpt>
      <trkpt lat="49.8005" lon="2.35818">
        <ele>74.5</ele>
        <time>2022-07-27T08:51:26Z</time>
      </trkpt>
      <trkpt lat="49.8005" lon="2.3582">
        <ele>74.5</ele>
        <time>2022-07-27T08:51:27Z</time>
      </trkpt>
      <trkpt lat="49.80051" lon="2.35821">
        <ele>74.5</ele>
        <time>2022-07-27T08:51:28Z</time>
      </trkpt>
      <trkpt lat="49.80051" lon="2.35822">
        <ele>74.5</ele>
        <time>2022-07-27T08:51:29Z</time>
      </trkpt>
      <trkpt lat="49.80052" lon="2.35824">
        <ele>74.5</ele>
        <time>2022-07-27T08:51:30Z</time>
      </trkpt>
      <trkpt lat="49.80052" lon="2.35825">
        <ele>74.5</ele>
        <time>2022-07-27T08:51:31Z</time>
      </trkpt>
      <trkpt lat="49.80052" lon="2.35827">
        <ele>74.5</ele>
        <time>2022-07-27T08:51:32Z</time>
      </trkpt>
      <trkpt lat="49.80053" lon="2.35828">
        <ele>74.5</ele>
        <time>2022-07-27T08:51:33Z</time>
      </trkpt>
      <trkpt lat="49.80054" lon="2.35829">
        <ele>74.5</ele>
        <time>2022-07-27T08:51:34Z</time>
      </trkpt>
      <trkpt lat="49.80054" lon="2.3583">
        <ele>74.5</ele>
        <time>2022-07-27T08:51:35Z</time>
      </trkpt>
      <trkpt lat="49.80054" lon="2.35831">
        <ele>74.5</ele>
        <time>2022-07-27T08:51:36Z</time>
      </trkpt>
      <trkpt lat="49.80055" lon="2.35832">
        <ele>74.5</ele>
        <time>2022-07-27T08:51:37Z</time>
      </trkpt>
      <trkpt lat="49.80055" lon="2.35834">
        <ele>74.5</ele>
        <time>2022-07-27T08:51:38Z</time>
      </trkpt>
      <trkpt lat="49.80056" lon="2.35835">
        <ele>74.5</ele>
        <time>2022-07-27T08:51:39Z</time>
      </trkpt>
      <trkpt lat="49.80056" lon="2.35837">
        <ele>74.5</ele>
        <time>2022-07-27T08:51:40Z</time>
      </trkpt>
      <trkpt lat="49.80056" lon="2.35838">
        <ele>74.5</ele>
        <time>2022-07-27T08:51:41Z</time>
      </trkpt>
      <trkpt lat="49.80057" lon="2.35839">
        <ele>74.5</ele>
        <time>2022-07-27T08:51:42Z</time>
      </trkpt>
      <trkpt lat="49.80057" lon="2.35841">
        <ele>74.5</ele>
        <time>2022-07-27T08:51:43Z</time>
      </trkpt>
      <trkpt lat="49.80058" lon="2.35843">
        <ele>74.5</ele>
        <time>2022-07-27T08:51:44Z</time>
      </trkpt>
      <trkpt lat="49.80058" lon="2.35845">
        <ele>74.5</ele>
        <time>2022-07-27T08:51:45Z</time>
      </trkpt>
      <trkpt lat="49.80059" lon="2.35846">
        <ele>74.5</ele>
        <time>2022-07-27T08:51:46Z</time>
      </trkpt>
      <trkpt lat="49.80059" lon="2.35847">
        <ele>74.5</ele>
        <time>2022-07-27T08:51:47Z</time>
      </trkpt>
      <trkpt lat="49.8006" lon="2.35848">
        <ele>74.5</ele>
        <time>2022-07-27T08:51:48Z</time>
      </trkpt>
      <trkpt lat="49.8006" lon="2.3585">
        <ele>74.5</ele>
        <time>2022-07-27T08:51:49Z</time>
      </trkpt>
      <trkpt lat="49.80061" lon="2.35853">
        <ele>74.5</ele>
        <time>2022-07-27T08:51:50Z</time>
      </trkpt>
      <trkpt lat="49.80062" lon="2.35854">
        <ele>74.5</ele>
        <time>2022-07-27T08:51:51Z</time>
      </trkpt>
      <trkpt lat="49.80062" lon="2.35855">
        <ele>74.5</ele>
        <time>2022-07-27T08:51:52Z</time>
      </trkpt>
      <trkpt lat="49.80062" lon="2.35857">
        <ele>74.5</ele>
        <time>2022-07-27T08:51:53Z</time>
      </trkpt>
      <trkpt lat="49.80063" lon="2.35859">
        <ele>74.5</ele>
        <time>2022-07-27T08:51:54Z</time>
      </trkpt>
      <trkpt lat="49.80064" lon="2.35862">
        <ele>74.5</ele>
        <time>2022-07-27T08:51:55Z</time>
      </trkpt>
      <trkpt lat="49.80064" lon="2.35864">
        <ele>74.5</ele>
        <time>2022-07-27T08:51:56Z</time>
      </trkpt>
      <trkpt lat="49.80065" lon="2.35865">
        <ele>74.5</ele>
        <time>2022-07-27T08:51:57Z</time>
      </trkpt>
      <trkpt lat="49.80065" lon="2.35866">
        <ele>74.5</ele>
        <time>2022-07-27T08:51:58Z</time>
      </trkpt>
      <trkpt lat="49.80065" lon="2.35868">
        <ele>74.5</ele>
        <time>2022-07-27T08:51:59Z</time>
      </trkpt>
      <trkpt lat="49.80066" lon="2.35869">
        <ele>74.4</ele>
        <time>2022-07-27T08:52:00Z</time>
      </trkpt>
      <trkpt lat="49.80067" lon="2.35871">
        <ele>74.4</ele>
        <time>2022-07-27T08:52:01Z</time>
      </trkpt>
      <trkpt lat="49.80067" lon="2.35873">
        <ele>74.4</ele>
        <time>2022-07-27T08:52:02Z</time>
      </trkpt>
      <trkpt lat="49.80069" lon="2.35876">
        <ele>74.4</ele>
        <time>2022-07-27T08:52:03Z</time>
      </trkpt>
      <trkpt lat="49.80069" lon="2.35877">
        <ele>74.4</ele>
        <time>2022-07-27T08:52:04Z</time>
      </trkpt>
      <trkpt lat="49.80069" lon="2.35878">
        <ele>74.4</ele>
        <time>2022-07-27T08:52:05Z</time>
      </trkpt>
      <trkpt lat="49.8007" lon="2.3588">
        <ele>74.4</ele>
        <time>2022-07-27T08:52:06Z</time>
      </trkpt>
      <trkpt lat="49.80071" lon="2.35882">
        <ele>74.3</ele>
        <time>2022-07-27T08:52:07Z</time>
      </trkpt>
      <trkpt lat="49.80071" lon="2.35883">
        <ele>74.3</ele>
        <time>2022-07-27T08:52:08Z</time>
      </trkpt>
      <trkpt lat="49.80072" lon="2.35884">
        <ele>74.3</ele>
        <time>2022-07-27T08:52:09Z</time>
      </trkpt>
      <trkpt lat="49.80072" lon="2.35886">
        <ele>74.3</ele>
        <time>2022-07-27T08:52:10Z</time>
      </trkpt>
      <trkpt lat="49.80073" lon="2.35887">
        <ele>74.3</ele>
        <time>2022-07-27T08:52:11Z</time>
      </trkpt>
      <trkpt lat="49.80073" lon="2.35889">
        <ele>74.3</ele>
        <time>2022-07-27T08:52:12Z</time>
      </trkpt>
      <trkpt lat="49.80074" lon="2.3589">
        <ele>74.3</ele>
        <time>2022-07-27T08:52:13Z</time>
      </trkpt>
      <trkpt lat="49.80074" lon="2.35892">
        <ele>74.2</ele>
        <time>2022-07-27T08:52:14Z</time>
      </trkpt>
      <trkpt lat="49.80075" lon="2.35894">
        <ele>74.2</ele>
        <time>2022-07-27T08:52:15Z</time>
      </trkpt>
      <trkpt lat="49.80076" lon="2.35895">
        <ele>74.2</ele>
        <time>2022-07-27T08:52:16Z</time>
      </trkpt>
      <trkpt lat="49.80076" lon="2.35897">
        <ele>74.2</ele>
        <time>2022-07-27T08:52:17Z</time>
      </trkpt>
      <trkpt lat="49.80077" lon="2.35898">
        <ele>74.2</ele>
        <time>2022-07-27T08:52:18Z</time>
      </trkpt>
      <trkpt lat="49.80078" lon="2.35901">
        <ele>74.1</ele>
        <time>2022-07-27T08:52:19Z</time>
      </trkpt>
      <trkpt lat="49.80078" lon="2.35902">
        <ele>74.1</ele>
        <time>2022-07-27T08:52:20Z</time>
      </trkpt>
      <trkpt lat="49.80078" lon="2.35903">
        <ele>74.1</ele>
        <time>2022-07-27T08:52:21Z</time>
      </trkpt>
      <trkpt lat="49.80079" lon="2.35904">
        <ele>74.1</ele>
        <time>2022-07-27T08:52:22Z</time>
      </trkpt>
      <trkpt lat="49.8008" lon="2.35906">
        <ele>74.1</ele>
        <time>2022-07-27T08:52:23Z</time>
      </trkpt>
      <trkpt lat="49.8008" lon="2.35907">
        <ele>74.1</ele>
        <time>2022-07-27T08:52:24Z</time>
      </trkpt>
      <trkpt lat="49.80081" lon="2.35909">
        <ele>74</ele>
        <time>2022-07-27T08:52:25Z</time>
      </trkpt>
      <trkpt lat="49.80081" lon="2.3591">
        <ele>74</ele>
        <time>2022-07-27T08:52:26Z</time>
      </trkpt>
      <trkpt lat="49.80081" lon="2.35911">
        <ele>74</ele>
        <time>2022-07-27T08:52:27Z</time>
      </trkpt>
      <trkpt lat="49.80082" lon="2.35912">
        <ele>74</ele>
        <time>2022-07-27T08:52:28Z</time>
      </trkpt>
      <trkpt lat="49.80082" lon="2.35913">
        <ele>74</ele>
        <time>2022-07-27T08:52:29Z</time>
      </trkpt>
      <trkpt lat="49.80083" lon="2.35915">
        <ele>74</ele>
        <time>2022-07-27T08:52:30Z</time>
      </trkpt>
      <trkpt lat="49.80084" lon="2.35918">
        <ele>73.9</ele>
        <time>2022-07-27T08:52:31Z</time>
      </trkpt>
      <trkpt lat="49.80085" lon="2.35919">
        <ele>73.9</ele>
        <time>2022-07-27T08:52:32Z</time>
      </trkpt>
      <trkpt lat="49.80085" lon="2.3592">
        <ele>73.9</ele>
        <time>2022-07-27T08:52:33Z</time>
      </trkpt>
      <trkpt lat="49.80086" lon="2.35923">
        <ele>73.8</ele>
        <time>2022-07-27T08:52:34Z</time>
      </trkpt>
      <trkpt lat="49.80087" lon="2.35924">
        <ele>73.8</ele>
        <time>2022-07-27T08:52:35Z</time>
      </trkpt>
      <trkpt lat="49.80087" lon="2.35925">
        <ele>73.8</ele>
        <time>2022-07-27T08:52:36Z</time>
      </trkpt>
      <trkpt lat="49.80088" lon="2.35928">
        <ele>73.7</ele>
        <time>2022-07-27T08:52:37Z</time>
      </trkpt>
      <trkpt lat="49.80088" lon="2.35929">
        <ele>73.7</ele>
        <time>2022-07-27T08:52:38Z</time>
      </trkpt>
      <trkpt lat="49.80089" lon="2.35931">
        <ele>73.7</ele>
        <time>2022-07-27T08:52:39Z</time>
      </trkpt>
      <trkpt lat="49.80089" lon="2.35932">
        <ele>73.6</ele>
        <time>2022-07-27T08:52:40Z</time>
      </trkpt>
      <trkpt lat="49.8009" lon="2.35933">
        <ele>73.6</ele>
        <time>2022-07-27T08:52:41Z</time>
      </trkpt>
      <trkpt lat="49.8009" lon="2.35935">
        <ele>73.6</ele>
        <time>2022-07-27T08:52:42Z</time>
      </trkpt>
      <trkpt lat="49.80091" lon="2.35938">
        <ele>73.5</ele>
        <time>2022-07-27T08:52:43Z</time>
      </trkpt>
      <trkpt lat="49.80091" lon="2.35939">
        <ele>73.5</ele>
        <time>2022-07-27T08:52:44Z</time>
      </trkpt>
      <trkpt lat="49.80091" lon="2.35941">
        <ele>73.5</ele>
        <time>2022-07-27T08:52:45Z</time>
      </trkpt>
      <trkpt lat="49.80092" lon="2.35942">
        <ele>73.4</ele>
        <time>2022-07-27T08:52:46Z</time>
      </trkpt>
      <trkpt lat="49.80092" lon="2.35944">
        <ele>73.4</ele>
        <time>2022-07-27T08:52:47Z</time>
      </trkpt>
      <trkpt lat="49.80093" lon="2.35945">
        <ele>73.3</ele>
        <time>2022-07-27T08:52:48Z</time>
      </trkpt>
      <trkpt lat="49.80093" lon="2.35948">
        <ele>73.3</ele>
        <time>2022-07-27T08:52:49Z</time>
      </trkpt>
      <trkpt lat="49.80094" lon="2.3595">
        <ele>73.2</ele>
        <time>2022-07-27T08:52:50Z</time>
      </trkpt>
      <trkpt lat="49.80094" lon="2.35951">
        <ele>73.2</ele>
        <time>2022-07-27T08:52:51Z</time>
      </trkpt>
      <trkpt lat="49.80095" lon="2.35954">
        <ele>73.1</ele>
        <time>2022-07-27T08:52:52Z</time>
      </trkpt>
      <trkpt lat="49.80095" lon="2.35955">
        <ele>73.1</ele>
        <time>2022-07-27T08:52:53Z</time>
      </trkpt>
      <trkpt lat="49.80096" lon="2.35956">
        <ele>73.1</ele>
        <time>2022-07-27T08:52:54Z</time>
      </trkpt>
      <trkpt lat="49.80096" lon="2.35957">
        <ele>73</ele>
        <time>2022-07-27T08:52:55Z</time>
      </trkpt>
      <trkpt lat="49.80097" lon="2.35959">
        <ele>73</ele>
        <time>2022-07-27T08:52:56Z</time>
      </trkpt>
      <trkpt lat="49.80097" lon="2.3596">
        <ele>73</ele>
        <time>2022-07-27T08:52:57Z</time>
      </trkpt>
      <trkpt lat="49.80098" lon="2.35963">
        <ele>72.9</ele>
        <time>2022-07-27T08:52:58Z</time>
      </trkpt>
      <trkpt lat="49.80099" lon="2.35964">
        <ele>72.9</ele>
        <time>2022-07-27T08:52:59Z</time>
      </trkpt>
      <trkpt lat="49.80099" lon="2.35965">
        <ele>72.9</ele>
        <time>2022-07-27T08:53:00Z</time>
      </trkpt>
      <trkpt lat="49.801" lon="2.35967">
        <ele>72.8</ele>
        <time>2022-07-27T08:53:01Z</time>
      </trkpt>
      <trkpt lat="49.801" lon="2.35969">
        <ele>72.8</ele>
        <time>2022-07-27T08:53:02Z</time>
      </trkpt>
      <trkpt lat="49.80101" lon="2.35972">
        <ele>72.7</ele>
        <time>2022-07-27T08:53:03Z</time>
      </trkpt>
      <trkpt lat="49.80102" lon="2.35973">
        <ele>72.7</ele>
        <time>2022-07-27T08:53:04Z</time>
      </trkpt>
      <trkpt lat="49.80102" lon="2.35974">
        <ele>72.6</ele>
        <time>2022-07-27T08:53:05Z</time>
      </trkpt>
      <trkpt lat="49.80103" lon="2.35977">
        <ele>72.6</ele>
        <time>2022-07-27T08:53:06Z</time>
      </trkpt>
      <trkpt lat="49.80103" lon="2.35978">
        <ele>72.5</ele>
        <time>2022-07-27T08:53:07Z</time>
      </trkpt>
      <trkpt lat="49.80104" lon="2.3598">
        <ele>72.5</ele>
        <time>2022-07-27T08:53:08Z</time>
      </trkpt>
      <trkpt lat="49.80104" lon="2.35981">
        <ele>72.5</ele>
        <time>2022-07-27T08:53:09Z</time>
      </trkpt>
      <trkpt lat="49.80105" lon="2.35982">
        <ele>72.4</ele>
        <time>2022-07-27T08:53:10Z</time>
      </trkpt>
      <trkpt lat="49.80105" lon="2.35984">
        <ele>72.4</ele>
        <time>2022-07-27T08:53:11Z</time>
      </trkpt>
      <trkpt lat="49.80106" lon="2.35985">
        <ele>72.4</ele>
        <time>2022-07-27T08:53:12Z</time>
      </trkpt>
      <trkpt lat="49.80106" lon="2.35987">
        <ele>72.3</ele>
        <time>2022-07-27T08:53:13Z</time>
      </trkpt>
      <trkpt lat="49.80107" lon="2.35988">
        <ele>72.3</ele>
        <time>2022-07-27T08:53:14Z</time>
      </trkpt>
      <trkpt lat="49.80107" lon="2.3599">
        <ele>72.3</ele>
        <time>2022-07-27T08:53:15Z</time>
      </trkpt>
      <trkpt lat="49.80108" lon="2.35992">
        <ele>72.2</ele>
        <time>2022-07-27T08:53:16Z</time>
      </trkpt>
      <trkpt lat="49.80108" lon="2.35993">
        <ele>72.2</ele>
        <time>2022-07-27T08:53:17Z</time>
      </trkpt>
      <trkpt lat="49.80109" lon="2.35995">
        <ele>72.2</ele>
        <time>2022-07-27T08:53:18Z</time>
      </trkpt>
      <trkpt lat="49.80109" lon="2.35996">
        <ele>72.1</ele>
        <time>2022-07-27T08:53:19Z</time>
      </trkpt>
      <trkpt lat="49.8011" lon="2.35998">
        <ele>72.1</ele>
        <time>2022-07-27T08:53:20Z</time>
      </trkpt>
      <trkpt lat="49.8011" lon="2.36">
        <ele>72</ele>
        <time>2022-07-27T08:53:21Z</time>
      </trkpt>
      <trkpt lat="49.8011" lon="2.36001">
        <ele>72</ele>
        <time>2022-07-27T08:53:22Z</time>
      </trkpt>
      <trkpt lat="49.80111" lon="2.36003">
        <ele>72</ele>
        <time>2022-07-27T08:53:23Z</time>
      </trkpt>
      <trkpt lat="49.80111" lon="2.36004">
        <ele>71.9</ele>
        <time>2022-07-27T08:53:24Z</time>
      </trkpt>
      <trkpt lat="49.80112" lon="2.36006">
        <ele>71.9</ele>
        <time>2022-07-27T08:53:25Z</time>
      </trkpt>
      <trkpt lat="49.80112" lon="2.36007">
        <ele>71.9</ele>
        <time>2022-07-27T08:53:26Z</time>
      </trkpt>
      <trkpt lat="49.80112" lon="2.36009">
        <ele>71.8</ele>
        <time>2022-07-27T08:53:27Z</time>
      </trkpt>
      <trkpt lat="49.80113" lon="2.3601">
        <ele>71.8</ele>
        <time>2022-07-27T08:53:28Z</time>
      </trkpt>
      <trkpt lat="49.80113" lon="2.36012">
        <ele>71.7</ele>
        <time>2022-07-27T08:53:29Z</time>
      </trkpt>
      <trkpt lat="49.80113" lon="2.36014">
        <ele>71.7</ele>
        <time>2022-07-27T08:53:30Z</time>
      </trkpt>
      <trkpt lat="49.80113" lon="2.36015">
        <ele>71.7</ele>
        <time>2022-07-27T08:53:31Z</time>
      </trkpt>
      <trkpt lat="49.80114" lon="2.36017">
        <ele>71.6</ele>
        <time>2022-07-27T08:53:32Z</time>
      </trkpt>
      <trkpt lat="49.80114" lon="2.3602">
        <ele>71.5</ele>
        <time>2022-07-27T08:53:33Z</time>
      </trkpt>
      <trkpt lat="49.80115" lon="2.36021">
        <ele>71.5</ele>
        <time>2022-07-27T08:53:34Z</time>
      </trkpt>
      <trkpt lat="49.80115" lon="2.36023">
        <ele>71.5</ele>
        <time>2022-07-27T08:53:35Z</time>
      </trkpt>
      <trkpt lat="49.80116" lon="2.36025">
        <ele>71.4</ele>
        <time>2022-07-27T08:53:36Z</time>
      </trkpt>
      <trkpt lat="49.80116" lon="2.36027">
        <ele>71.4</ele>
        <time>2022-07-27T08:53:37Z</time>
      </trkpt>
      <trkpt lat="49.80117" lon="2.3603">
        <ele>71.3</ele>
        <time>2022-07-27T08:53:38Z</time>
      </trkpt>
      <trkpt lat="49.80117" lon="2.36031">
        <ele>71.3</ele>
        <time>2022-07-27T08:53:39Z</time>
      </trkpt>
      <trkpt lat="49.80117" lon="2.36032">
        <ele>71.3</ele>
        <time>2022-07-27T08:53:40Z</time>
      </trkpt>
      <trkpt lat="49.80117" lon="2.36034">
        <ele>71.2</ele>
        <time>2022-07-27T08:53:41Z</time>
      </trkpt>
      <trkpt lat="49.80118" lon="2.36036">
        <ele>71.2</ele>
        <time>2022-07-27T08:53:42Z</time>
      </trkpt>
      <trkpt lat="49.80118" lon="2.36037">
        <ele>71.2</ele>
        <time>2022-07-27T08:53:43Z</time>
      </trkpt>
      <trkpt lat="49.80118" lon="2.36039">
        <ele>71.1</ele>
        <time>2022-07-27T08:53:44Z</time>
      </trkpt>
      <trkpt lat="49.80119" lon="2.36041">
        <ele>71.1</ele>
        <time>2022-07-27T08:53:45Z</time>
      </trkpt>
      <trkpt lat="49.80119" lon="2.36042">
        <ele>71</ele>
        <time>2022-07-27T08:53:46Z</time>
      </trkpt>
      <trkpt lat="49.80119" lon="2.36044">
        <ele>71</ele>
        <time>2022-07-27T08:53:47Z</time>
      </trkpt>
      <trkpt lat="49.8012" lon="2.36046">
        <ele>71</ele>
        <time>2022-07-27T08:53:48Z</time>
      </trkpt>
      <trkpt lat="49.8012" lon="2.36047">
        <ele>70.9</ele>
        <time>2022-07-27T08:53:49Z</time>
      </trkpt>
      <trkpt lat="49.8012" lon="2.36049">
        <ele>70.9</ele>
        <time>2022-07-27T08:53:50Z</time>
      </trkpt>
      <trkpt lat="49.80121" lon="2.36051">
        <ele>70.9</ele>
        <time>2022-07-27T08:53:51Z</time>
      </trkpt>
      <trkpt lat="49.80121" lon="2.36052">
        <ele>70.8</ele>
        <time>2022-07-27T08:53:52Z</time>
      </trkpt>
      <trkpt lat="49.80122" lon="2.36054">
        <ele>70.8</ele>
        <time>2022-07-27T08:53:53Z</time>
      </trkpt>
      <trkpt lat="49.80122" lon="2.36056">
        <ele>70.7</ele>
        <time>2022-07-27T08:53:54Z</time>
      </trkpt>
      <trkpt lat="49.80122" lon="2.36057">
        <ele>70.7</ele>
        <time>2022-07-27T08:53:55Z</time>
      </trkpt>
      <trkpt lat="49.80123" lon="2.36059">
        <ele>70.7</ele>
        <time>2022-07-27T08:53:56Z</time>
      </trkpt>
      <trkpt lat="49.80123" lon="2.3606">
        <ele>70.6</ele>
        <time>2022-07-27T08:53:57Z</time>
      </trkpt>
      <trkpt lat="49.80124" lon="2.36062">
        <ele>70.6</ele>
        <time>2022-07-27T08:53:58Z</time>
      </trkpt>
      <trkpt lat="49.80124" lon="2.36063">
        <ele>70.6</ele>
        <time>2022-07-27T08:53:59Z</time>
      </trkpt>
      <trkpt lat="49.80125" lon="2.36064">
        <ele>70.6</ele>
        <time>2022-07-27T08:54:00Z</time>
      </trkpt>
      <trkpt lat="49.80125" lon="2.36065">
        <ele>70.5</ele>
        <time>2022-07-27T08:54:01Z</time>
      </trkpt>
      <trkpt lat="49.80126" lon="2.36067">
        <ele>70.5</ele>
        <time>2022-07-27T08:54:02Z</time>
      </trkpt>
      <trkpt lat="49.80126" lon="2.36068">
        <ele>70.5</ele>
        <time>2022-07-27T08:54:03Z</time>
      </trkpt>
      <trkpt lat="49.80127" lon="2.3607">
        <ele>70.4</ele>
        <time>2022-07-27T08:54:04Z</time>
      </trkpt>
      <trkpt lat="49.80127" lon="2.36072">
        <ele>70.4</ele>
        <time>2022-07-27T08:54:05Z</time>
      </trkpt>
      <trkpt lat="49.80128" lon="2.36073">
        <ele>70.4</ele>
        <time>2022-07-27T08:54:06Z</time>
      </trkpt>
      <trkpt lat="49.80129" lon="2.36075">
        <ele>70.3</ele>
        <time>2022-07-27T08:54:07Z</time>
      </trkpt>
      <trkpt lat="49.80129" lon="2.36077">
        <ele>70.3</ele>
        <time>2022-07-27T08:54:08Z</time>
      </trkpt>
      <trkpt lat="49.8013" lon="2.36079">
        <ele>70.3</ele>
        <time>2022-07-27T08:54:09Z</time>
      </trkpt>
      <trkpt lat="49.80131" lon="2.36082">
        <ele>70.2</ele>
        <time>2022-07-27T08:54:10Z</time>
      </trkpt>
      <trkpt lat="49.80131" lon="2.36083">
        <ele>70.2</ele>
        <time>2022-07-27T08:54:11Z</time>
      </trkpt>
      <trkpt lat="49.80132" lon="2.36084">
        <ele>70.2</ele>
        <time>2022-07-27T08:54:12Z</time>
      </trkpt>
      <trkpt lat="49.80132" lon="2.36086">
        <ele>70.1</ele>
        <time>2022-07-27T08:54:13Z</time>
      </trkpt>
      <trkpt lat="49.80132" lon="2.36087">
        <ele>70.1</ele>
        <time>2022-07-27T08:54:14Z</time>
      </trkpt>
      <trkpt lat="49.80133" lon="2.36088">
        <ele>70.1</ele>
        <time>2022-07-27T08:54:15Z</time>
      </trkpt>
      <trkpt lat="49.80134" lon="2.36091">
        <ele>70</ele>
        <time>2022-07-27T08:54:16Z</time>
      </trkpt>
      <trkpt lat="49.80134" lon="2.36092">
        <ele>70</ele>
        <time>2022-07-27T08:54:17Z</time>
      </trkpt>
      <trkpt lat="49.80134" lon="2.36094">
        <ele>70</ele>
        <time>2022-07-27T08:54:18Z</time>
      </trkpt>
      <trkpt lat="49.80135" lon="2.36097">
        <ele>69.9</ele>
        <time>2022-07-27T08:54:19Z</time>
      </trkpt>
      <trkpt lat="49.80136" lon="2.36098">
        <ele>69.9</ele>
        <time>2022-07-27T08:54:20Z</time>
      </trkpt>
      <trkpt lat="49.80136" lon="2.36099">
        <ele>69.9</ele>
        <time>2022-07-27T08:54:21Z</time>
      </trkpt>
      <trkpt lat="49.80137" lon="2.36102">
        <ele>69.9</ele>
        <time>2022-07-27T08:54:22Z</time>
      </trkpt>
      <trkpt lat="49.80137" lon="2.36103">
        <ele>69.8</ele>
        <time>2022-07-27T08:54:23Z</time>
      </trkpt>
      <trkpt lat="49.80137" lon="2.36105">
        <ele>69.8</ele>
        <time>2022-07-27T08:54:24Z</time>
      </trkpt>
      <trkpt lat="49.80138" lon="2.36106">
        <ele>69.8</ele>
        <time>2022-07-27T08:54:25Z</time>
      </trkpt>
      <trkpt lat="49.80138" lon="2.36108">
        <ele>69.8</ele>
        <time>2022-07-27T08:54:26Z</time>
      </trkpt>
      <trkpt lat="49.80139" lon="2.36109">
        <ele>69.8</ele>
        <time>2022-07-27T08:54:27Z</time>
      </trkpt>
      <trkpt lat="49.80139" lon="2.36111">
        <ele>69.7</ele>
        <time>2022-07-27T08:54:28Z</time>
      </trkpt>
      <trkpt lat="49.8014" lon="2.36111">
        <ele>69.7</ele>
        <time>2022-07-27T08:54:29Z</time>
      </trkpt>
      <trkpt lat="49.80141" lon="2.36112">
        <ele>69.7</ele>
        <time>2022-07-27T08:54:30Z</time>
      </trkpt>
      <trkpt lat="49.80141" lon="2.36112">
        <ele>69.7</ele>
        <time>2022-07-27T08:54:31Z</time>
      </trkpt>
      <trkpt lat="49.80142" lon="2.36113">
        <ele>69.7</ele>
        <time>2022-07-27T08:54:32Z</time>
      </trkpt>
      <trkpt lat="49.80142" lon="2.36114">
        <ele>69.7</ele>
        <time>2022-07-27T08:54:33Z</time>
      </trkpt>
      <trkpt lat="49.80142" lon="2.36115">
        <ele>69.6</ele>
        <time>2022-07-27T08:54:34Z</time>
      </trkpt>
      <trkpt lat="49.80142" lon="2.36116">
        <ele>69.6</ele>
        <time>2022-07-27T08:54:35Z</time>
      </trkpt>
      <trkpt lat="49.80142" lon="2.36116">
        <ele>69.6</ele>
        <time>2022-07-27T08:54:36Z</time>
      </trkpt>
      <trkpt lat="49.80142" lon="2.36117">
        <ele>69.6</ele>
        <time>2022-07-27T08:54:37Z</time>
      </trkpt>
      <trkpt lat="49.80142" lon="2.36118">
        <ele>69.6</ele>
        <time>2022-07-27T08:54:38Z</time>
      </trkpt>
      <trkpt lat="49.80142" lon="2.36119">
        <ele>69.6</ele>
        <time>2022-07-27T08:54:39Z</time>
      </trkpt>
      <trkpt lat="49.80143" lon="2.3612">
        <ele>69.6</ele>
        <time>2022-07-27T08:54:40Z</time>
      </trkpt>
      <trkpt lat="49.80143" lon="2.36121">
        <ele>69.6</ele>
        <time>2022-07-27T08:54:41Z</time>
      </trkpt>
      <trkpt lat="49.80143" lon="2.36122">
        <ele>69.6</ele>
        <time>2022-07-27T08:54:42Z</time>
      </trkpt>
      <trkpt lat="49.80143" lon="2.36123">
        <ele>69.6</ele>
        <time>2022-07-27T08:54:43Z</time>
      </trkpt>
      <trkpt lat="49.80143" lon="2.36125">
        <ele>69.5</ele>
        <time>2022-07-27T08:54:44Z</time>
      </trkpt>
      <trkpt lat="49.80144" lon="2.36126">
        <ele>69.5</ele>
        <time>2022-07-27T08:54:45Z</time>
      </trkpt>
      <trkpt lat="49.80144" lon="2.36128">
        <ele>69.5</ele>
        <time>2022-07-27T08:54:46Z</time>
      </trkpt>
      <trkpt lat="49.80144" lon="2.36129">
        <ele>69.5</ele>
        <time>2022-07-27T08:54:47Z</time>
      </trkpt>
      <trkpt lat="49.80145" lon="2.36131">
        <ele>69.5</ele>
        <time>2022-07-27T08:54:48Z</time>
      </trkpt>
      <trkpt lat="49.80145" lon="2.36132">
        <ele>69.4</ele>
        <time>2022-07-27T08:54:49Z</time>
      </trkpt>
      <trkpt lat="49.80145" lon="2.36134">
        <ele>69.4</ele>
        <time>2022-07-27T08:54:50Z</time>
      </trkpt>
      <trkpt lat="49.80146" lon="2.36135">
        <ele>69.4</ele>
        <time>2022-07-27T08:54:51Z</time>
      </trkpt>
      <trkpt lat="49.80146" lon="2.36137">
        <ele>69.4</ele>
        <time>2022-07-27T08:54:52Z</time>
      </trkpt>
      <trkpt lat="49.80146" lon="2.36139">
        <ele>69.3</ele>
        <time>2022-07-27T08:54:53Z</time>
      </trkpt>
      <trkpt lat="49.80147" lon="2.3614">
        <ele>69.3</ele>
        <time>2022-07-27T08:54:54Z</time>
      </trkpt>
      <trkpt lat="49.80147" lon="2.36142">
        <ele>69.3</ele>
        <time>2022-07-27T08:54:55Z</time>
      </trkpt>
      <trkpt lat="49.80147" lon="2.36143">
        <ele>69.3</ele>
        <time>2022-07-27T08:54:56Z</time>
      </trkpt>
      <trkpt lat="49.80147" lon="2.36144">
        <ele>69.3</ele>
        <time>2022-07-27T08:54:57Z</time>
      </trkpt>
      <trkpt lat="49.80148" lon="2.36146">
        <ele>69.2</ele>
        <time>2022-07-27T08:54:58Z</time>
      </trkpt>
      <trkpt lat="49.80148" lon="2.36147">
        <ele>69.2</ele>
        <time>2022-07-27T08:54:59Z</time>
      </trkpt>
      <trkpt lat="49.80149" lon="2.36149">
        <ele>69.2</ele>
        <time>2022-07-27T08:55:00Z</time>
      </trkpt>
      <trkpt lat="49.80149" lon="2.36151">
        <ele>69.2</ele>
        <time>2022-07-27T08:55:01Z</time>
      </trkpt>
      <trkpt lat="49.8015" lon="2.36152">
        <ele>69.1</ele>
        <time>2022-07-27T08:55:02Z</time>
      </trkpt>
      <trkpt lat="49.8015" lon="2.36155">
        <ele>69.1</ele>
        <time>2022-07-27T08:55:03Z</time>
      </trkpt>
      <trkpt lat="49.80151" lon="2.36156">
        <ele>69.1</ele>
        <time>2022-07-27T08:55:04Z</time>
      </trkpt>
      <trkpt lat="49.80151" lon="2.36158">
        <ele>69.1</ele>
        <time>2022-07-27T08:55:05Z</time>
      </trkpt>
      <trkpt lat="49.80152" lon="2.36161">
        <ele>69</ele>
        <time>2022-07-27T08:55:06Z</time>
      </trkpt>
      <trkpt lat="49.80152" lon="2.36162">
        <ele>69</ele>
        <time>2022-07-27T08:55:07Z</time>
      </trkpt>
      <trkpt lat="49.80152" lon="2.36163">
        <ele>69</ele>
        <time>2022-07-27T08:55:08Z</time>
      </trkpt>
      <trkpt lat="49.80153" lon="2.36165">
        <ele>68.9</ele>
        <time>2022-07-27T08:55:09Z</time>
      </trkpt>
      <trkpt lat="49.80153" lon="2.36166">
        <ele>68.9</ele>
        <time>2022-07-27T08:55:10Z</time>
      </trkpt>
      <trkpt lat="49.80153" lon="2.36168">
        <ele>68.9</ele>
        <time>2022-07-27T08:55:11Z</time>
      </trkpt>
      <trkpt lat="49.80154" lon="2.3617">
        <ele>68.9</ele>
        <time>2022-07-27T08:55:12Z</time>
      </trkpt>
      <trkpt lat="49.80154" lon="2.36172">
        <ele>68.8</ele>
        <time>2022-07-27T08:55:13Z</time>
      </trkpt>
      <trkpt lat="49.80155" lon="2.36173">
        <ele>68.8</ele>
        <time>2022-07-27T08:55:14Z</time>
      </trkpt>
      <trkpt lat="49.80156" lon="2.36176">
        <ele>68.8</ele>
        <time>2022-07-27T08:55:15Z</time>
      </trkpt>
      <trkpt lat="49.80156" lon="2.36177">
        <ele>68.8</ele>
        <time>2022-07-27T08:55:16Z</time>
      </trkpt>
      <trkpt lat="49.80156" lon="2.36178">
        <ele>68.7</ele>
        <time>2022-07-27T08:55:17Z</time>
      </trkpt>
      <trkpt lat="49.80157" lon="2.36181">
        <ele>68.7</ele>
        <time>2022-07-27T08:55:18Z</time>
      </trkpt>
      <trkpt lat="49.80157" lon="2.36183">
        <ele>68.7</ele>
        <time>2022-07-27T08:55:19Z</time>
      </trkpt>
      <trkpt lat="49.80157" lon="2.36184">
        <ele>68.7</ele>
        <time>2022-07-27T08:55:20Z</time>
      </trkpt>
      <trkpt lat="49.80158" lon="2.36187">
        <ele>68.6</ele>
        <time>2022-07-27T08:55:21Z</time>
      </trkpt>
      <trkpt lat="49.80159" lon="2.36188">
        <ele>68.6</ele>
        <time>2022-07-27T08:55:22Z</time>
      </trkpt>
      <trkpt lat="49.80159" lon="2.36189">
        <ele>68.6</ele>
        <time>2022-07-27T08:55:23Z</time>
      </trkpt>
      <trkpt lat="49.80159" lon="2.36191">
        <ele>68.6</ele>
        <time>2022-07-27T08:55:24Z</time>
      </trkpt>
      <trkpt lat="49.8016" lon="2.36192">
        <ele>68.5</ele>
        <time>2022-07-27T08:55:25Z</time>
      </trkpt>
      <trkpt lat="49.8016" lon="2.36194">
        <ele>68.5</ele>
        <time>2022-07-27T08:55:26Z</time>
      </trkpt>
      <trkpt lat="49.8016" lon="2.36195">
        <ele>68.5</ele>
        <time>2022-07-27T08:55:27Z</time>
      </trkpt>
      <trkpt lat="49.80161" lon="2.36196">
        <ele>68.5</ele>
        <time>2022-07-27T08:55:28Z</time>
      </trkpt>
      <trkpt lat="49.80161" lon="2.36198">
        <ele>68.5</ele>
        <time>2022-07-27T08:55:29Z</time>
      </trkpt>
      <trkpt lat="49.80162" lon="2.36199">
        <ele>68.4</ele>
        <time>2022-07-27T08:55:30Z</time>
      </trkpt>
      <trkpt lat="49.80162" lon="2.36201">
        <ele>68.4</ele>
        <time>2022-07-27T08:55:31Z</time>
      </trkpt>
      <trkpt lat="49.80162" lon="2.36203">
        <ele>68.4</ele>
        <time>2022-07-27T08:55:32Z</time>
      </trkpt>
      <trkpt lat="49.80163" lon="2.36204">
        <ele>68.4</ele>
        <time>2022-07-27T08:55:33Z</time>
      </trkpt>
      <trkpt lat="49.80163" lon="2.36206">
        <ele>68.4</ele>
        <time>2022-07-27T08:55:34Z</time>
      </trkpt>
      <trkpt lat="49.80164" lon="2.36208">
        <ele>68.3</ele>
        <time>2022-07-27T08:55:35Z</time>
      </trkpt>
      <trkpt lat="49.80164" lon="2.3621">
        <ele>68.3</ele>
        <time>2022-07-27T08:55:36Z</time>
      </trkpt>
      <trkpt lat="49.80165" lon="2.36211">
        <ele>68.3</ele>
        <time>2022-07-27T08:55:37Z</time>
      </trkpt>
      <trkpt lat="49.80165" lon="2.36213">
        <ele>68.3</ele>
        <time>2022-07-27T08:55:38Z</time>
      </trkpt>
      <trkpt lat="49.80166" lon="2.36215">
        <ele>68.2</ele>
        <time>2022-07-27T08:55:39Z</time>
      </trkpt>
      <trkpt lat="49.80166" lon="2.36216">
        <ele>68.2</ele>
        <time>2022-07-27T08:55:40Z</time>
      </trkpt>
      <trkpt lat="49.80166" lon="2.36217">
        <ele>68.2</ele>
        <time>2022-07-27T08:55:41Z</time>
      </trkpt>
      <trkpt lat="49.80166" lon="2.36219">
        <ele>68.2</ele>
        <time>2022-07-27T08:55:42Z</time>
      </trkpt>
      <trkpt lat="49.80167" lon="2.36221">
        <ele>68.2</ele>
        <time>2022-07-27T08:55:43Z</time>
      </trkpt>
      <trkpt lat="49.80167" lon="2.36222">
        <ele>68.1</ele>
        <time>2022-07-27T08:55:44Z</time>
      </trkpt>
      <trkpt lat="49.80168" lon="2.36224">
        <ele>68.1</ele>
        <time>2022-07-27T08:55:45Z</time>
      </trkpt>
      <trkpt lat="49.80168" lon="2.36225">
        <ele>68.1</ele>
        <time>2022-07-27T08:55:46Z</time>
      </trkpt>
      <trkpt lat="49.80168" lon="2.36227">
        <ele>68.1</ele>
        <time>2022-07-27T08:55:47Z</time>
      </trkpt>
      <trkpt lat="49.80169" lon="2.36229">
        <ele>68</ele>
        <time>2022-07-27T08:55:48Z</time>
      </trkpt>
      <trkpt lat="49.80169" lon="2.36231">
        <ele>68</ele>
        <time>2022-07-27T08:55:49Z</time>
      </trkpt>
      <trkpt lat="49.8017" lon="2.36233">
        <ele>68</ele>
        <time>2022-07-27T08:55:50Z</time>
      </trkpt>
      <trkpt lat="49.8017" lon="2.36234">
        <ele>68</ele>
        <time>2022-07-27T08:55:51Z</time>
      </trkpt>
      <trkpt lat="49.8017" lon="2.36235">
        <ele>68</ele>
        <time>2022-07-27T08:55:52Z</time>
      </trkpt>
      <trkpt lat="49.80171" lon="2.36237">
        <ele>67.9</ele>
        <time>2022-07-27T08:55:53Z</time>
      </trkpt>
      <trkpt lat="49.80171" lon="2.36238">
        <ele>67.9</ele>
        <time>2022-07-27T08:55:54Z</time>
      </trkpt>
      <trkpt lat="49.80171" lon="2.36239">
        <ele>67.9</ele>
        <time>2022-07-27T08:55:55Z</time>
      </trkpt>
      <trkpt lat="49.80172" lon="2.36241">
        <ele>67.9</ele>
        <time>2022-07-27T08:55:56Z</time>
      </trkpt>
      <trkpt lat="49.80173" lon="2.36243">
        <ele>67.8</ele>
        <time>2022-07-27T08:55:57Z</time>
      </trkpt>
      <trkpt lat="49.80173" lon="2.36245">
        <ele>67.8</ele>
        <time>2022-07-27T08:55:58Z</time>
      </trkpt>
      <trkpt lat="49.80174" lon="2.36246">
        <ele>67.8</ele>
        <time>2022-07-27T08:55:59Z</time>
      </trkpt>
      <trkpt lat="49.80174" lon="2.36247">
        <ele>67.8</ele>
        <time>2022-07-27T08:56:00Z</time>
      </trkpt>
      <trkpt lat="49.80175" lon="2.36249">
        <ele>67.7</ele>
        <time>2022-07-27T08:56:01Z</time>
      </trkpt>
      <trkpt lat="49.80175" lon="2.3625">
        <ele>67.7</ele>
        <time>2022-07-27T08:56:02Z</time>
      </trkpt>
      <trkpt lat="49.80176" lon="2.36252">
        <ele>67.7</ele>
        <time>2022-07-27T08:56:03Z</time>
      </trkpt>
      <trkpt lat="49.80176" lon="2.36253">
        <ele>67.7</ele>
        <time>2022-07-27T08:56:04Z</time>
      </trkpt>
      <trkpt lat="49.80177" lon="2.36255">
        <ele>67.7</ele>
        <time>2022-07-27T08:56:05Z</time>
      </trkpt>
      <trkpt lat="49.80177" lon="2.36256">
        <ele>67.6</ele>
        <time>2022-07-27T08:56:06Z</time>
      </trkpt>
      <trkpt lat="49.80178" lon="2.36257">
        <ele>67.6</ele>
        <time>2022-07-27T08:56:07Z</time>
      </trkpt>
      <trkpt lat="49.80178" lon="2.36259">
        <ele>67.6</ele>
        <time>2022-07-27T08:56:08Z</time>
      </trkpt>
      <trkpt lat="49.80179" lon="2.3626">
        <ele>67.6</ele>
        <time>2022-07-27T08:56:09Z</time>
      </trkpt>
      <trkpt lat="49.80179" lon="2.36262">
        <ele>67.6</ele>
        <time>2022-07-27T08:56:10Z</time>
      </trkpt>
      <trkpt lat="49.8018" lon="2.36263">
        <ele>67.5</ele>
        <time>2022-07-27T08:56:11Z</time>
      </trkpt>
      <trkpt lat="49.8018" lon="2.36265">
        <ele>67.5</ele>
        <time>2022-07-27T08:56:12Z</time>
      </trkpt>
      <trkpt lat="49.80181" lon="2.36266">
        <ele>67.5</ele>
        <time>2022-07-27T08:56:13Z</time>
      </trkpt>
      <trkpt lat="49.80181" lon="2.36268">
        <ele>67.5</ele>
        <time>2022-07-27T08:56:14Z</time>
      </trkpt>
      <trkpt lat="49.80182" lon="2.3627">
        <ele>67.5</ele>
        <time>2022-07-27T08:56:15Z</time>
      </trkpt>
      <trkpt lat="49.80182" lon="2.36271">
        <ele>67.4</ele>
        <time>2022-07-27T08:56:16Z</time>
      </trkpt>
      <trkpt lat="49.80183" lon="2.36273">
        <ele>67.4</ele>
        <time>2022-07-27T08:56:17Z</time>
      </trkpt>
      <trkpt lat="49.80184" lon="2.36276">
        <ele>67.4</ele>
        <time>2022-07-27T08:56:18Z</time>
      </trkpt>
      <trkpt lat="49.80184" lon="2.36277">
        <ele>67.4</ele>
        <time>2022-07-27T08:56:19Z</time>
      </trkpt>
      <trkpt lat="49.80185" lon="2.36278">
        <ele>67.3</ele>
        <time>2022-07-27T08:56:20Z</time>
      </trkpt>
      <trkpt lat="49.80185" lon="2.36279">
        <ele>67.3</ele>
        <time>2022-07-27T08:56:21Z</time>
      </trkpt>
      <trkpt lat="49.80186" lon="2.36281">
        <ele>67.3</ele>
        <time>2022-07-27T08:56:22Z</time>
      </trkpt>
      <trkpt lat="49.80186" lon="2.36282">
        <ele>67.3</ele>
        <time>2022-07-27T08:56:23Z</time>
      </trkpt>
      <trkpt lat="49.80187" lon="2.36285">
        <ele>67.3</ele>
        <time>2022-07-27T08:56:24Z</time>
      </trkpt>
      <trkpt lat="49.80187" lon="2.36286">
        <ele>67.2</ele>
        <time>2022-07-27T08:56:25Z</time>
      </trkpt>
      <trkpt lat="49.80188" lon="2.36287">
        <ele>67.2</ele>
        <time>2022-07-27T08:56:26Z</time>
      </trkpt>
      <trkpt lat="49.80189" lon="2.36289">
        <ele>67.2</ele>
        <time>2022-07-27T08:56:27Z</time>
      </trkpt>
      <trkpt lat="49.80189" lon="2.3629">
        <ele>67.2</ele>
        <time>2022-07-27T08:56:28Z</time>
      </trkpt>
      <trkpt lat="49.8019" lon="2.36292">
        <ele>67.2</ele>
        <time>2022-07-27T08:56:29Z</time>
      </trkpt>
      <trkpt lat="49.8019" lon="2.36293">
        <ele>67.2</ele>
        <time>2022-07-27T08:56:30Z</time>
      </trkpt>
      <trkpt lat="49.80191" lon="2.36295">
        <ele>67.1</ele>
        <time>2022-07-27T08:56:31Z</time>
      </trkpt>
      <trkpt lat="49.80191" lon="2.36296">
        <ele>67.1</ele>
        <time>2022-07-27T08:56:32Z</time>
      </trkpt>
      <trkpt lat="49.80192" lon="2.36298">
        <ele>67.1</ele>
        <time>2022-07-27T08:56:33Z</time>
      </trkpt>
      <trkpt lat="49.80192" lon="2.363">
        <ele>67.1</ele>
        <time>2022-07-27T08:56:34Z</time>
      </trkpt>
      <trkpt lat="49.80193" lon="2.36301">
        <ele>67.1</ele>
        <time>2022-07-27T08:56:35Z</time>
      </trkpt>
      <trkpt lat="49.80193" lon="2.36302">
        <ele>67.1</ele>
        <time>2022-07-27T08:56:36Z</time>
      </trkpt>
      <trkpt lat="49.80194" lon="2.36304">
        <ele>67</ele>
        <time>2022-07-27T08:56:37Z</time>
      </trkpt>
      <trkpt lat="49.80194" lon="2.36305">
        <ele>67</ele>
        <time>2022-07-27T08:56:38Z</time>
      </trkpt>
      <trkpt lat="49.80195" lon="2.36306">
        <ele>67</ele>
        <time>2022-07-27T08:56:39Z</time>
      </trkpt>
      <trkpt lat="49.80195" lon="2.36308">
        <ele>67</ele>
        <time>2022-07-27T08:56:40Z</time>
      </trkpt>
      <trkpt lat="49.80196" lon="2.36309">
        <ele>67</ele>
        <time>2022-07-27T08:56:41Z</time>
      </trkpt>
      <trkpt lat="49.80196" lon="2.36311">
        <ele>67</ele>
        <time>2022-07-27T08:56:42Z</time>
      </trkpt>
      <trkpt lat="49.80197" lon="2.36312">
        <ele>66.9</ele>
        <time>2022-07-27T08:56:43Z</time>
      </trkpt>
      <trkpt lat="49.80197" lon="2.36314">
        <ele>66.9</ele>
        <time>2022-07-27T08:56:44Z</time>
      </trkpt>
      <trkpt lat="49.80199" lon="2.36317">
        <ele>66.9</ele>
        <time>2022-07-27T08:56:45Z</time>
      </trkpt>
      <trkpt lat="49.80199" lon="2.36318">
        <ele>66.9</ele>
        <time>2022-07-27T08:56:46Z</time>
      </trkpt>
      <trkpt lat="49.80199" lon="2.36319">
        <ele>66.9</ele>
        <time>2022-07-27T08:56:47Z</time>
      </trkpt>
      <trkpt lat="49.80201" lon="2.36322">
        <ele>66.8</ele>
        <time>2022-07-27T08:56:48Z</time>
      </trkpt>
      <trkpt lat="49.80201" lon="2.36323">
        <ele>66.8</ele>
        <time>2022-07-27T08:56:49Z</time>
      </trkpt>
      <trkpt lat="49.80201" lon="2.36324">
        <ele>66.8</ele>
        <time>2022-07-27T08:56:50Z</time>
      </trkpt>
      <trkpt lat="49.80202" lon="2.36325">
        <ele>66.8</ele>
        <time>2022-07-27T08:56:51Z</time>
      </trkpt>
      <trkpt lat="49.80203" lon="2.36326">
        <ele>66.8</ele>
        <time>2022-07-27T08:56:52Z</time>
      </trkpt>
      <trkpt lat="49.80203" lon="2.36327">
        <ele>66.8</ele>
        <time>2022-07-27T08:56:53Z</time>
      </trkpt>
      <trkpt lat="49.80204" lon="2.3633">
        <ele>66.7</ele>
        <time>2022-07-27T08:56:54Z</time>
      </trkpt>
      <trkpt lat="49.80205" lon="2.36331">
        <ele>66.7</ele>
        <time>2022-07-27T08:56:55Z</time>
      </trkpt>
      <trkpt lat="49.80205" lon="2.36333">
        <ele>66.7</ele>
        <time>2022-07-27T08:56:56Z</time>
      </trkpt>
      <trkpt lat="49.80206" lon="2.36335">
        <ele>66.7</ele>
        <time>2022-07-27T08:56:57Z</time>
      </trkpt>
      <trkpt lat="49.80206" lon="2.36337">
        <ele>66.7</ele>
        <time>2022-07-27T08:56:58Z</time>
      </trkpt>
      <trkpt lat="49.80207" lon="2.3634">
        <ele>66.7</ele>
        <time>2022-07-27T08:56:59Z</time>
      </trkpt>
      <trkpt lat="49.80207" lon="2.36341">
        <ele>66.6</ele>
        <time>2022-07-27T08:57:00Z</time>
      </trkpt>
      <trkpt lat="49.80208" lon="2.36342">
        <ele>66.6</ele>
        <time>2022-07-27T08:57:01Z</time>
      </trkpt>
      <trkpt lat="49.80209" lon="2.36345">
        <ele>66.6</ele>
        <time>2022-07-27T08:57:02Z</time>
      </trkpt>
      <trkpt lat="49.80209" lon="2.36347">
        <ele>66.6</ele>
        <time>2022-07-27T08:57:03Z</time>
      </trkpt>
      <trkpt lat="49.80209" lon="2.36348">
        <ele>66.6</ele>
        <time>2022-07-27T08:57:04Z</time>
      </trkpt>
      <trkpt lat="49.8021" lon="2.36349">
        <ele>66.6</ele>
        <time>2022-07-27T08:57:05Z</time>
      </trkpt>
      <trkpt lat="49.8021" lon="2.36351">
        <ele>66.6</ele>
        <time>2022-07-27T08:57:06Z</time>
      </trkpt>
      <trkpt lat="49.80211" lon="2.36353">
        <ele>66.5</ele>
        <time>2022-07-27T08:57:07Z</time>
      </trkpt>
      <trkpt lat="49.80211" lon="2.36354">
        <ele>66.5</ele>
        <time>2022-07-27T08:57:08Z</time>
      </trkpt>
      <trkpt lat="49.80212" lon="2.36356">
        <ele>66.5</ele>
        <time>2022-07-27T08:57:09Z</time>
      </trkpt>
      <trkpt lat="49.80212" lon="2.36358">
        <ele>66.5</ele>
        <time>2022-07-27T08:57:10Z</time>
      </trkpt>
      <trkpt lat="49.80213" lon="2.3636">
        <ele>66.5</ele>
        <time>2022-07-27T08:57:11Z</time>
      </trkpt>
      <trkpt lat="49.80214" lon="2.36362">
        <ele>66.5</ele>
        <time>2022-07-27T08:57:12Z</time>
      </trkpt>
      <trkpt lat="49.80214" lon="2.36363">
        <ele>66.4</ele>
        <time>2022-07-27T08:57:13Z</time>
      </trkpt>
      <trkpt lat="49.80215" lon="2.36365">
        <ele>66.4</ele>
        <time>2022-07-27T08:57:14Z</time>
      </trkpt>
      <trkpt lat="49.80215" lon="2.36367">
        <ele>66.4</ele>
        <time>2022-07-27T08:57:15Z</time>
      </trkpt>
      <trkpt lat="49.80216" lon="2.36368">
        <ele>66.4</ele>
        <time>2022-07-27T08:57:16Z</time>
      </trkpt>
      <trkpt lat="49.80217" lon="2.36369">
        <ele>66.4</ele>
        <time>2022-07-27T08:57:17Z</time>
      </trkpt>
      <trkpt lat="49.80217" lon="2.36371">
        <ele>66.4</ele>
        <time>2022-07-27T08:57:18Z</time>
      </trkpt>
      <trkpt lat="49.80218" lon="2.36374">
        <ele>66.3</ele>
        <time>2022-07-27T08:57:19Z</time>
      </trkpt>
      <trkpt lat="49.80219" lon="2.36375">
        <ele>66.3</ele>
        <time>2022-07-27T08:57:20Z</time>
      </trkpt>
      <trkpt lat="49.80219" lon="2.36376">
        <ele>66.3</ele>
        <time>2022-07-27T08:57:21Z</time>
      </trkpt>
      <trkpt lat="49.8022" lon="2.36377">
        <ele>66.3</ele>
        <time>2022-07-27T08:57:22Z</time>
      </trkpt>
      <trkpt lat="49.8022" lon="2.36378">
        <ele>66.3</ele>
        <time>2022-07-27T08:57:23Z</time>
      </trkpt>
      <trkpt lat="49.80221" lon="2.3638">
        <ele>66.3</ele>
        <time>2022-07-27T08:57:24Z</time>
      </trkpt>
      <trkpt lat="49.80221" lon="2.36381">
        <ele>66.3</ele>
        <time>2022-07-27T08:57:25Z</time>
      </trkpt>
      <trkpt lat="49.80222" lon="2.36382">
        <ele>66.3</ele>
        <time>2022-07-27T08:57:26Z</time>
      </trkpt>
      <trkpt lat="49.80223" lon="2.36384">
        <ele>66.2</ele>
        <time>2022-07-27T08:57:27Z</time>
      </trkpt>
      <trkpt lat="49.80223" lon="2.36385">
        <ele>66.2</ele>
        <time>2022-07-27T08:57:28Z</time>
      </trkpt>
      <trkpt lat="49.80224" lon="2.36386">
        <ele>66.2</ele>
        <time>2022-07-27T08:57:29Z</time>
      </trkpt>
      <trkpt lat="49.80224" lon="2.36388">
        <ele>66.2</ele>
        <time>2022-07-27T08:57:30Z</time>
      </trkpt>
      <trkpt lat="49.80226" lon="2.36391">
        <ele>66.2</ele>
        <time>2022-07-27T08:57:31Z</time>
      </trkpt>
      <trkpt lat="49.80226" lon="2.36392">
        <ele>66.2</ele>
        <time>2022-07-27T08:57:32Z</time>
      </trkpt>
      <trkpt lat="49.80226" lon="2.36393">
        <ele>66.1</ele>
        <time>2022-07-27T08:57:33Z</time>
      </trkpt>
      <trkpt lat="49.80227" lon="2.36394">
        <ele>66.1</ele>
        <time>2022-07-27T08:57:34Z</time>
      </trkpt>
      <trkpt lat="49.80228" lon="2.36396">
        <ele>66.1</ele>
        <time>2022-07-27T08:57:35Z</time>
      </trkpt>
      <trkpt lat="49.80228" lon="2.36397">
        <ele>66.1</ele>
        <time>2022-07-27T08:57:36Z</time>
      </trkpt>
      <trkpt lat="49.80229" lon="2.36398">
        <ele>66.1</ele>
        <time>2022-07-27T08:57:37Z</time>
      </trkpt>
      <trkpt lat="49.80229" lon="2.364">
        <ele>66.1</ele>
        <time>2022-07-27T08:57:38Z</time>
      </trkpt>
      <trkpt lat="49.8023" lon="2.36401">
        <ele>66</ele>
        <time>2022-07-27T08:57:39Z</time>
      </trkpt>
      <trkpt lat="49.8023" lon="2.36402">
        <ele>66</ele>
        <time>2022-07-27T08:57:40Z</time>
      </trkpt>
      <trkpt lat="49.80231" lon="2.36403">
        <ele>66</ele>
        <time>2022-07-27T08:57:41Z</time>
      </trkpt>
      <trkpt lat="49.80232" lon="2.36405">
        <ele>66</ele>
        <time>2022-07-27T08:57:42Z</time>
      </trkpt>
      <trkpt lat="49.80233" lon="2.36408">
        <ele>66</ele>
        <time>2022-07-27T08:57:43Z</time>
      </trkpt>
      <trkpt lat="49.80233" lon="2.36409">
        <ele>66</ele>
        <time>2022-07-27T08:57:44Z</time>
      </trkpt>
      <trkpt lat="49.80234" lon="2.3641">
        <ele>65.9</ele>
        <time>2022-07-27T08:57:45Z</time>
      </trkpt>
      <trkpt lat="49.80235" lon="2.36413">
        <ele>65.9</ele>
        <time>2022-07-27T08:57:46Z</time>
      </trkpt>
      <trkpt lat="49.80235" lon="2.36414">
        <ele>65.9</ele>
        <time>2022-07-27T08:57:47Z</time>
      </trkpt>
      <trkpt lat="49.80236" lon="2.36415">
        <ele>65.9</ele>
        <time>2022-07-27T08:57:48Z</time>
      </trkpt>
      <trkpt lat="49.80237" lon="2.36417">
        <ele>65.9</ele>
        <time>2022-07-27T08:57:49Z</time>
      </trkpt>
      <trkpt lat="49.80238" lon="2.36418">
        <ele>65.8</ele>
        <time>2022-07-27T08:57:50Z</time>
      </trkpt>
      <trkpt lat="49.80238" lon="2.3642">
        <ele>65.8</ele>
        <time>2022-07-27T08:57:51Z</time>
      </trkpt>
      <trkpt lat="49.80239" lon="2.36421">
        <ele>65.8</ele>
        <time>2022-07-27T08:57:52Z</time>
      </trkpt>
      <trkpt lat="49.8024" lon="2.36423">
        <ele>65.8</ele>
        <time>2022-07-27T08:57:53Z</time>
      </trkpt>
      <trkpt lat="49.80241" lon="2.36426">
        <ele>65.7</ele>
        <time>2022-07-27T08:57:54Z</time>
      </trkpt>
      <trkpt lat="49.80241" lon="2.36427">
        <ele>65.7</ele>
        <time>2022-07-27T08:57:55Z</time>
      </trkpt>
      <trkpt lat="49.80242" lon="2.36428">
        <ele>65.7</ele>
        <time>2022-07-27T08:57:56Z</time>
      </trkpt>
      <trkpt lat="49.80243" lon="2.3643">
        <ele>65.7</ele>
        <time>2022-07-27T08:57:57Z</time>
      </trkpt>
      <trkpt lat="49.80243" lon="2.36431">
        <ele>65.6</ele>
        <time>2022-07-27T08:57:58Z</time>
      </trkpt>
      <trkpt lat="49.80244" lon="2.36433">
        <ele>65.6</ele>
        <time>2022-07-27T08:57:59Z</time>
      </trkpt>
      <trkpt lat="49.80244" lon="2.36434">
        <ele>65.6</ele>
        <time>2022-07-27T08:58:00Z</time>
      </trkpt>
      <trkpt lat="49.80244" lon="2.36435">
        <ele>65.6</ele>
        <time>2022-07-27T08:58:01Z</time>
      </trkpt>
      <trkpt lat="49.80245" lon="2.36437">
        <ele>65.6</ele>
        <time>2022-07-27T08:58:02Z</time>
      </trkpt>
      <trkpt lat="49.80245" lon="2.36438">
        <ele>65.5</ele>
        <time>2022-07-27T08:58:03Z</time>
      </trkpt>
      <trkpt lat="49.80246" lon="2.36439">
        <ele>65.5</ele>
        <time>2022-07-27T08:58:04Z</time>
      </trkpt>
      <trkpt lat="49.80247" lon="2.36441">
        <ele>65.5</ele>
        <time>2022-07-27T08:58:05Z</time>
      </trkpt>
      <trkpt lat="49.80247" lon="2.36443">
        <ele>65.5</ele>
        <time>2022-07-27T08:58:06Z</time>
      </trkpt>
      <trkpt lat="49.80248" lon="2.36444">
        <ele>65.4</ele>
        <time>2022-07-27T08:58:07Z</time>
      </trkpt>
      <trkpt lat="49.80248" lon="2.36446">
        <ele>65.4</ele>
        <time>2022-07-27T08:58:08Z</time>
      </trkpt>
      <trkpt lat="49.80249" lon="2.36447">
        <ele>65.4</ele>
        <time>2022-07-27T08:58:09Z</time>
      </trkpt>
      <trkpt lat="49.8025" lon="2.36449">
        <ele>65.3</ele>
        <time>2022-07-27T08:58:10Z</time>
      </trkpt>
      <trkpt lat="49.8025" lon="2.3645">
        <ele>65.3</ele>
        <time>2022-07-27T08:58:11Z</time>
      </trkpt>
      <trkpt lat="49.80251" lon="2.36452">
        <ele>65.3</ele>
        <time>2022-07-27T08:58:12Z</time>
      </trkpt>
      <trkpt lat="49.80251" lon="2.36453">
        <ele>65.3</ele>
        <time>2022-07-27T08:58:13Z</time>
      </trkpt>
      <trkpt lat="49.80252" lon="2.36454">
        <ele>65.2</ele>
        <time>2022-07-27T08:58:14Z</time>
      </trkpt>
      <trkpt lat="49.80253" lon="2.36457">
        <ele>65.2</ele>
        <time>2022-07-27T08:58:15Z</time>
      </trkpt>
      <trkpt lat="49.80254" lon="2.36458">
        <ele>65.1</ele>
        <time>2022-07-27T08:58:16Z</time>
      </trkpt>
      <trkpt lat="49.80254" lon="2.36459">
        <ele>65.1</ele>
        <time>2022-07-27T08:58:17Z</time>
      </trkpt>
      <trkpt lat="49.80254" lon="2.3646">
        <ele>65.1</ele>
        <time>2022-07-27T08:58:18Z</time>
      </trkpt>
      <trkpt lat="49.80255" lon="2.36461">
        <ele>65.1</ele>
        <time>2022-07-27T08:58:19Z</time>
      </trkpt>
      <trkpt lat="49.80255" lon="2.36462">
        <ele>65</ele>
        <time>2022-07-27T08:58:20Z</time>
      </trkpt>
      <trkpt lat="49.80256" lon="2.36463">
        <ele>65</ele>
        <time>2022-07-27T08:58:21Z</time>
      </trkpt>
      <trkpt lat="49.80256" lon="2.36465">
        <ele>65</ele>
        <time>2022-07-27T08:58:22Z</time>
      </trkpt>
      <trkpt lat="49.80257" lon="2.36466">
        <ele>64.9</ele>
        <time>2022-07-27T08:58:23Z</time>
      </trkpt>
      <trkpt lat="49.80258" lon="2.36467">
        <ele>64.9</ele>
        <time>2022-07-27T08:58:24Z</time>
      </trkpt>
      <trkpt lat="49.80258" lon="2.36469">
        <ele>64.9</ele>
        <time>2022-07-27T08:58:25Z</time>
      </trkpt>
      <trkpt lat="49.80259" lon="2.3647">
        <ele>64.8</ele>
        <time>2022-07-27T08:58:26Z</time>
      </trkpt>
      <trkpt lat="49.80259" lon="2.36471">
        <ele>64.8</ele>
        <time>2022-07-27T08:58:27Z</time>
      </trkpt>
      <trkpt lat="49.8026" lon="2.36473">
        <ele>64.7</ele>
        <time>2022-07-27T08:58:28Z</time>
      </trkpt>
      <trkpt lat="49.80261" lon="2.36474">
        <ele>64.7</ele>
        <time>2022-07-27T08:58:29Z</time>
      </trkpt>
      <trkpt lat="49.80261" lon="2.36476">
        <ele>64.6</ele>
        <time>2022-07-27T08:58:30Z</time>
      </trkpt>
      <trkpt lat="49.80262" lon="2.36478">
        <ele>64.6</ele>
        <time>2022-07-27T08:58:31Z</time>
      </trkpt>
      <trkpt lat="49.80263" lon="2.36479">
        <ele>64.5</ele>
        <time>2022-07-27T08:58:32Z</time>
      </trkpt>
      <trkpt lat="49.80263" lon="2.3648">
        <ele>64.5</ele>
        <time>2022-07-27T08:58:33Z</time>
      </trkpt>
      <trkpt lat="49.80264" lon="2.36483">
        <ele>64.4</ele>
        <time>2022-07-27T08:58:34Z</time>
      </trkpt>
      <trkpt lat="49.80265" lon="2.36484">
        <ele>64.4</ele>
        <time>2022-07-27T08:58:35Z</time>
      </trkpt>
      <trkpt lat="49.80265" lon="2.36485">
        <ele>64.4</ele>
        <time>2022-07-27T08:58:36Z</time>
      </trkpt>
      <trkpt lat="49.80266" lon="2.36487">
        <ele>64.3</ele>
        <time>2022-07-27T08:58:37Z</time>
      </trkpt>
      <trkpt lat="49.80267" lon="2.36488">
        <ele>64.3</ele>
        <time>2022-07-27T08:58:38Z</time>
      </trkpt>
      <trkpt lat="49.80267" lon="2.3649">
        <ele>64.2</ele>
        <time>2022-07-27T08:58:39Z</time>
      </trkpt>
      <trkpt lat="49.80268" lon="2.36491">
        <ele>64.2</ele>
        <time>2022-07-27T08:58:40Z</time>
      </trkpt>
      <trkpt lat="49.80268" lon="2.36492">
        <ele>64.1</ele>
        <time>2022-07-27T08:58:41Z</time>
      </trkpt>
      <trkpt lat="49.80269" lon="2.36494">
        <ele>64.1</ele>
        <time>2022-07-27T08:58:42Z</time>
      </trkpt>
      <trkpt lat="49.80269" lon="2.36495">
        <ele>64</ele>
        <time>2022-07-27T08:58:43Z</time>
      </trkpt>
      <trkpt lat="49.8027" lon="2.36497">
        <ele>64</ele>
        <time>2022-07-27T08:58:44Z</time>
      </trkpt>
      <trkpt lat="49.8027" lon="2.36498">
        <ele>63.9</ele>
        <time>2022-07-27T08:58:45Z</time>
      </trkpt>
      <trkpt lat="49.80271" lon="2.36501">
        <ele>63.8</ele>
        <time>2022-07-27T08:58:46Z</time>
      </trkpt>
      <trkpt lat="49.80271" lon="2.36502">
        <ele>63.8</ele>
        <time>2022-07-27T08:58:47Z</time>
      </trkpt>
      <trkpt lat="49.80272" lon="2.36503">
        <ele>63.8</ele>
        <time>2022-07-27T08:58:48Z</time>
      </trkpt>
      <trkpt lat="49.80273" lon="2.36507">
        <ele>63.7</ele>
        <time>2022-07-27T08:58:49Z</time>
      </trkpt>
      <trkpt lat="49.80273" lon="2.36508">
        <ele>63.6</ele>
        <time>2022-07-27T08:58:50Z</time>
      </trkpt>
      <trkpt lat="49.80273" lon="2.36509">
        <ele>63.6</ele>
        <time>2022-07-27T08:58:51Z</time>
      </trkpt>
      <trkpt lat="49.80274" lon="2.36511">
        <ele>63.5</ele>
        <time>2022-07-27T08:58:52Z</time>
      </trkpt>
      <trkpt lat="49.80274" lon="2.36513">
        <ele>63.4</ele>
        <time>2022-07-27T08:58:53Z</time>
      </trkpt>
      <trkpt lat="49.80275" lon="2.36516">
        <ele>63.3</ele>
        <time>2022-07-27T08:58:54Z</time>
      </trkpt>
      <trkpt lat="49.80276" lon="2.36517">
        <ele>63.3</ele>
        <time>2022-07-27T08:58:55Z</time>
      </trkpt>
      <trkpt lat="49.80276" lon="2.36519">
        <ele>63.2</ele>
        <time>2022-07-27T08:58:56Z</time>
      </trkpt>
      <trkpt lat="49.80276" lon="2.3652">
        <ele>63.2</ele>
        <time>2022-07-27T08:58:57Z</time>
      </trkpt>
      <trkpt lat="49.80276" lon="2.36522">
        <ele>63.1</ele>
        <time>2022-07-27T08:58:58Z</time>
      </trkpt>
      <trkpt lat="49.80277" lon="2.36523">
        <ele>63</ele>
        <time>2022-07-27T08:58:59Z</time>
      </trkpt>
      <trkpt lat="49.80277" lon="2.36525">
        <ele>63</ele>
        <time>2022-07-27T08:59:00Z</time>
      </trkpt>
      <trkpt lat="49.80278" lon="2.36526">
        <ele>62.9</ele>
        <time>2022-07-27T08:59:01Z</time>
      </trkpt>
      <trkpt lat="49.80279" lon="2.36529">
        <ele>62.8</ele>
        <time>2022-07-27T08:59:02Z</time>
      </trkpt>
      <trkpt lat="49.80279" lon="2.3653">
        <ele>62.7</ele>
        <time>2022-07-27T08:59:03Z</time>
      </trkpt>
      <trkpt lat="49.8028" lon="2.36531">
        <ele>62.7</ele>
        <time>2022-07-27T08:59:04Z</time>
      </trkpt>
      <trkpt lat="49.8028" lon="2.36533">
        <ele>62.6</ele>
        <time>2022-07-27T08:59:05Z</time>
      </trkpt>
      <trkpt lat="49.80281" lon="2.36534">
        <ele>62.5</ele>
        <time>2022-07-27T08:59:06Z</time>
      </trkpt>
      <trkpt lat="49.80281" lon="2.36536">
        <ele>62.5</ele>
        <time>2022-07-27T08:59:07Z</time>
      </trkpt>
      <trkpt lat="49.80282" lon="2.36539">
        <ele>62.3</ele>
        <time>2022-07-27T08:59:08Z</time>
      </trkpt>
      <trkpt lat="49.80283" lon="2.3654">
        <ele>62.3</ele>
        <time>2022-07-27T08:59:09Z</time>
      </trkpt>
      <trkpt lat="49.80283" lon="2.36541">
        <ele>62.2</ele>
        <time>2022-07-27T08:59:10Z</time>
      </trkpt>
      <trkpt lat="49.80283" lon="2.36542">
        <ele>62.2</ele>
        <time>2022-07-27T08:59:11Z</time>
      </trkpt>
      <trkpt lat="49.80284" lon="2.36544">
        <ele>62.1</ele>
        <time>2022-07-27T08:59:12Z</time>
      </trkpt>
      <trkpt lat="49.80285" lon="2.36545">
        <ele>62</ele>
        <time>2022-07-27T08:59:13Z</time>
      </trkpt>
      <trkpt lat="49.80285" lon="2.36546">
        <ele>62</ele>
        <time>2022-07-27T08:59:14Z</time>
      </trkpt>
      <trkpt lat="49.80286" lon="2.36547">
        <ele>61.9</ele>
        <time>2022-07-27T08:59:15Z</time>
      </trkpt>
      <trkpt lat="49.80286" lon="2.36549">
        <ele>61.9</ele>
        <time>2022-07-27T08:59:16Z</time>
      </trkpt>
      <trkpt lat="49.80287" lon="2.3655">
        <ele>61.8</ele>
        <time>2022-07-27T08:59:17Z</time>
      </trkpt>
      <trkpt lat="49.80287" lon="2.36551">
        <ele>61.7</ele>
        <time>2022-07-27T08:59:18Z</time>
      </trkpt>
      <trkpt lat="49.80287" lon="2.36553">
        <ele>61.7</ele>
        <time>2022-07-27T08:59:19Z</time>
      </trkpt>
      <trkpt lat="49.80288" lon="2.36554">
        <ele>61.6</ele>
        <time>2022-07-27T08:59:20Z</time>
      </trkpt>
      <trkpt lat="49.80288" lon="2.36556">
        <ele>61.5</ele>
        <time>2022-07-27T08:59:21Z</time>
      </trkpt>
      <trkpt lat="49.80289" lon="2.36557">
        <ele>61.5</ele>
        <time>2022-07-27T08:59:22Z</time>
      </trkpt>
      <trkpt lat="49.80289" lon="2.36559">
        <ele>61.4</ele>
        <time>2022-07-27T08:59:23Z</time>
      </trkpt>
      <trkpt lat="49.8029" lon="2.3656">
        <ele>61.3</ele>
        <time>2022-07-27T08:59:24Z</time>
      </trkpt>
      <trkpt lat="49.8029" lon="2.36561">
        <ele>61.3</ele>
        <time>2022-07-27T08:59:25Z</time>
      </trkpt>
      <trkpt lat="49.80291" lon="2.36562">
        <ele>61.2</ele>
        <time>2022-07-27T08:59:26Z</time>
      </trkpt>
      <trkpt lat="49.80291" lon="2.36563">
        <ele>61.2</ele>
        <time>2022-07-27T08:59:27Z</time>
      </trkpt>
      <trkpt lat="49.80291" lon="2.36563">
        <ele>61.2</ele>
        <time>2022-07-27T08:59:28Z</time>
      </trkpt>
      <trkpt lat="49.80291" lon="2.36564">
        <ele>61.2</ele>
        <time>2022-07-27T08:59:29Z</time>
      </trkpt>
      <trkpt lat="49.80291" lon="2.36564">
        <ele>61.1</ele>
        <time>2022-07-27T08:59:30Z</time>
      </trkpt>
      <trkpt lat="49.8029" lon="2.36563">
        <ele>61.1</ele>
        <time>2022-07-27T08:59:32Z</time>
      </trkpt>
      <trkpt lat="49.8029" lon="2.36563">
        <ele>61.1</ele>
        <time>2022-07-27T08:59:33Z</time>
      </trkpt>
      <trkpt lat="49.8029" lon="2.36563">
        <ele>61.1</ele>
        <time>2022-07-27T08:59:35Z</time>
      </trkpt>
      <trkpt lat="49.80291" lon="2.36564">
        <ele>61</ele>
        <time>2022-07-27T08:59:36Z</time>
      </trkpt>
      <trkpt lat="49.80291" lon="2.36564">
        <ele>61</ele>
        <time>2022-07-27T08:59:37Z</time>
      </trkpt>
      <trkpt lat="49.80292" lon="2.36565">
        <ele>61</ele>
        <time>2022-07-27T08:59:38Z</time>
      </trkpt>
      <trkpt lat="49.80292" lon="2.36565">
        <ele>60.9</ele>
        <time>2022-07-27T08:59:39Z</time>
      </trkpt>
      <trkpt lat="49.80293" lon="2.36566">
        <ele>60.9</ele>
        <time>2022-07-27T08:59:40Z</time>
      </trkpt>
      <trkpt lat="49.80293" lon="2.36567">
        <ele>60.9</ele>
        <time>2022-07-27T08:59:41Z</time>
      </trkpt>
      <trkpt lat="49.80294" lon="2.36568">
        <ele>60.8</ele>
        <time>2022-07-27T08:59:42Z</time>
      </trkpt>
      <trkpt lat="49.80295" lon="2.36569">
        <ele>60.8</ele>
        <time>2022-07-27T08:59:43Z</time>
      </trkpt>
      <trkpt lat="49.80295" lon="2.3657">
        <ele>60.7</ele>
        <time>2022-07-27T08:59:44Z</time>
      </trkpt>
      <trkpt lat="49.80296" lon="2.36571">
        <ele>60.7</ele>
        <time>2022-07-27T08:59:45Z</time>
      </trkpt>
      <trkpt lat="49.80297" lon="2.36572">
        <ele>60.6</ele>
        <time>2022-07-27T08:59:46Z</time>
      </trkpt>
      <trkpt lat="49.80298" lon="2.36573">
        <ele>60.6</ele>
        <time>2022-07-27T08:59:47Z</time>
      </trkpt>
      <trkpt lat="49.80299" lon="2.36573">
        <ele>60.5</ele>
        <time>2022-07-27T08:59:48Z</time>
      </trkpt>
      <trkpt lat="49.803" lon="2.36575">
        <ele>60.5</ele>
        <time>2022-07-27T08:59:49Z</time>
      </trkpt>
      <trkpt lat="49.80302" lon="2.36578">
        <ele>60.3</ele>
        <time>2022-07-27T08:59:50Z</time>
      </trkpt>
      <trkpt lat="49.80303" lon="2.36579">
        <ele>60.3</ele>
        <time>2022-07-27T08:59:51Z</time>
      </trkpt>
      <trkpt lat="49.80305" lon="2.36581">
        <ele>60.2</ele>
        <time>2022-07-27T08:59:52Z</time>
      </trkpt>
      <trkpt lat="49.80305" lon="2.36582">
        <ele>60.2</ele>
        <time>2022-07-27T08:59:53Z</time>
      </trkpt>
      <trkpt lat="49.80306" lon="2.36582">
        <ele>60.1</ele>
        <time>2022-07-27T08:59:54Z</time>
      </trkpt>
      <trkpt lat="49.80308" lon="2.36584">
        <ele>60.1</ele>
        <time>2022-07-27T08:59:55Z</time>
      </trkpt>
      <trkpt lat="49.80309" lon="2.36584">
        <ele>60</ele>
        <time>2022-07-27T08:59:56Z</time>
      </trkpt>
      <trkpt lat="49.8031" lon="2.36585">
        <ele>60</ele>
        <time>2022-07-27T08:59:57Z</time>
      </trkpt>
      <trkpt lat="49.80311" lon="2.36586">
        <ele>59.9</ele>
        <time>2022-07-27T08:59:58Z</time>
      </trkpt>
      <trkpt lat="49.80312" lon="2.36587">
        <ele>59.9</ele>
        <time>2022-07-27T08:59:59Z</time>
      </trkpt>
      <trkpt lat="49.80313" lon="2.36587">
        <ele>59.9</ele>
        <time>2022-07-27T09:00:00Z</time>
      </trkpt>
      <trkpt lat="49.80314" lon="2.36588">
        <ele>59.8</ele>
        <time>2022-07-27T09:00:01Z</time>
      </trkpt>
      <trkpt lat="49.80315" lon="2.36589">
        <ele>59.8</ele>
        <time>2022-07-27T09:00:02Z</time>
      </trkpt>
      <trkpt lat="49.80317" lon="2.36591">
        <ele>59.7</ele>
        <time>2022-07-27T09:00:03Z</time>
      </trkpt>
      <trkpt lat="49.80318" lon="2.36592">
        <ele>59.6</ele>
        <time>2022-07-27T09:00:04Z</time>
      </trkpt>
      <trkpt lat="49.80318" lon="2.36592">
        <ele>59.6</ele>
        <time>2022-07-27T09:00:05Z</time>
      </trkpt>
      <trkpt lat="49.80319" lon="2.36593">
        <ele>59.6</ele>
        <time>2022-07-27T09:00:06Z</time>
      </trkpt>
      <trkpt lat="49.80321" lon="2.36594">
        <ele>59.5</ele>
        <time>2022-07-27T09:00:07Z</time>
      </trkpt>
      <trkpt lat="49.80321" lon="2.36594">
        <ele>59.5</ele>
        <time>2022-07-27T09:00:08Z</time>
      </trkpt>
      <trkpt lat="49.80322" lon="2.36595">
        <ele>59.5</ele>
        <time>2022-07-27T09:00:09Z</time>
      </trkpt>
      <trkpt lat="49.80323" lon="2.36596">
        <ele>59.4</ele>
        <time>2022-07-27T09:00:10Z</time>
      </trkpt>
      <trkpt lat="49.80325" lon="2.36598">
        <ele>59.3</ele>
        <time>2022-07-27T09:00:12Z</time>
      </trkpt>
      <trkpt lat="49.80326" lon="2.36599">
        <ele>59.3</ele>
        <time>2022-07-27T09:00:13Z</time>
      </trkpt>
      <trkpt lat="49.80327" lon="2.366">
        <ele>59.2</ele>
        <time>2022-07-27T09:00:14Z</time>
      </trkpt>
      <trkpt lat="49.80328" lon="2.366">
        <ele>59.2</ele>
        <time>2022-07-27T09:00:15Z</time>
      </trkpt>
      <trkpt lat="49.80328" lon="2.366">
        <ele>59.2</ele>
        <time>2022-07-27T09:00:16Z</time>
      </trkpt>
      <trkpt lat="49.80329" lon="2.366">
        <ele>59.2</ele>
        <time>2022-07-27T09:00:17Z</time>
      </trkpt>
      <trkpt lat="49.80329" lon="2.366">
        <ele>59.2</ele>
        <time>2022-07-27T09:00:18Z</time>
      </trkpt>
      <trkpt lat="49.8033" lon="2.36601">
        <ele>59.1</ele>
        <time>2022-07-27T09:00:19Z</time>
      </trkpt>
      <trkpt lat="49.8033" lon="2.36601">
        <ele>59.1</ele>
        <time>2022-07-27T09:00:20Z</time>
      </trkpt>
      <trkpt lat="49.80331" lon="2.36602">
        <ele>59.1</ele>
        <time>2022-07-27T09:00:21Z</time>
      </trkpt>
      <trkpt lat="49.80331" lon="2.36602">
        <ele>59.1</ele>
        <time>2022-07-27T09:00:22Z</time>
      </trkpt>
      <trkpt lat="49.80332" lon="2.36603">
        <ele>59</ele>
        <time>2022-07-27T09:00:23Z</time>
      </trkpt>
      <trkpt lat="49.80333" lon="2.36604">
        <ele>59</ele>
        <time>2022-07-27T09:00:24Z</time>
      </trkpt>
      <trkpt lat="49.80334" lon="2.36604">
        <ele>59</ele>
        <time>2022-07-27T09:00:25Z</time>
      </trkpt>
      <trkpt lat="49.80335" lon="2.36605">
        <ele>58.9</ele>
        <time>2022-07-27T09:00:26Z</time>
      </trkpt>
      <trkpt lat="49.80335" lon="2.36606">
        <ele>58.9</ele>
        <time>2022-07-27T09:00:27Z</time>
      </trkpt>
      <trkpt lat="49.80337" lon="2.36608">
        <ele>58.8</ele>
        <time>2022-07-27T09:00:28Z</time>
      </trkpt>
      <trkpt lat="49.80338" lon="2.36609">
        <ele>58.8</ele>
        <time>2022-07-27T09:00:29Z</time>
      </trkpt>
      <trkpt lat="49.80339" lon="2.3661">
        <ele>58.8</ele>
        <time>2022-07-27T09:00:30Z</time>
      </trkpt>
      <trkpt lat="49.8034" lon="2.36611">
        <ele>58.7</ele>
        <time>2022-07-27T09:00:31Z</time>
      </trkpt>
      <trkpt lat="49.80341" lon="2.36612">
        <ele>58.7</ele>
        <time>2022-07-27T09:00:32Z</time>
      </trkpt>
      <trkpt lat="49.80343" lon="2.36613">
        <ele>58.6</ele>
        <time>2022-07-27T09:00:33Z</time>
      </trkpt>
      <trkpt lat="49.80343" lon="2.36614">
        <ele>58.5</ele>
        <time>2022-07-27T09:00:34Z</time>
      </trkpt>
      <trkpt lat="49.80345" lon="2.36617">
        <ele>58.5</ele>
        <time>2022-07-27T09:00:35Z</time>
      </trkpt>
      <trkpt lat="49.80346" lon="2.36618">
        <ele>58.4</ele>
        <time>2022-07-27T09:00:36Z</time>
      </trkpt>
      <trkpt lat="49.80347" lon="2.36619">
        <ele>58.4</ele>
        <time>2022-07-27T09:00:37Z</time>
      </trkpt>
      <trkpt lat="49.80349" lon="2.36622">
        <ele>58.3</ele>
        <time>2022-07-27T09:00:38Z</time>
      </trkpt>
      <trkpt lat="49.8035" lon="2.36623">
        <ele>58.2</ele>
        <time>2022-07-27T09:00:39Z</time>
      </trkpt>
      <trkpt lat="49.80353" lon="2.36625">
        <ele>58.1</ele>
        <time>2022-07-27T09:00:40Z</time>
      </trkpt>
      <trkpt lat="49.80353" lon="2.36626">
        <ele>58.1</ele>
        <time>2022-07-27T09:00:41Z</time>
      </trkpt>
      <trkpt lat="49.80355" lon="2.36627">
        <ele>58.1</ele>
        <time>2022-07-27T09:00:42Z</time>
      </trkpt>
      <trkpt lat="49.80356" lon="2.36628">
        <ele>58</ele>
        <time>2022-07-27T09:00:43Z</time>
      </trkpt>
      <trkpt lat="49.80357" lon="2.3663">
        <ele>58</ele>
        <time>2022-07-27T09:00:44Z</time>
      </trkpt>
      <trkpt lat="49.80358" lon="2.36631">
        <ele>57.9</ele>
        <time>2022-07-27T09:00:45Z</time>
      </trkpt>
      <trkpt lat="49.80359" lon="2.36633">
        <ele>57.9</ele>
        <time>2022-07-27T09:00:46Z</time>
      </trkpt>
      <trkpt lat="49.8036" lon="2.36634">
        <ele>57.8</ele>
        <time>2022-07-27T09:00:47Z</time>
      </trkpt>
      <trkpt lat="49.80362" lon="2.36635">
        <ele>57.7</ele>
        <time>2022-07-27T09:00:48Z</time>
      </trkpt>
      <trkpt lat="49.80363" lon="2.36636">
        <ele>57.7</ele>
        <time>2022-07-27T09:00:49Z</time>
      </trkpt>
      <trkpt lat="49.80364" lon="2.36637">
        <ele>57.7</ele>
        <time>2022-07-27T09:00:50Z</time>
      </trkpt>
      <trkpt lat="49.80366" lon="2.36638">
        <ele>57.6</ele>
        <time>2022-07-27T09:00:51Z</time>
      </trkpt>
      <trkpt lat="49.80367" lon="2.36638">
        <ele>57.6</ele>
        <time>2022-07-27T09:00:52Z</time>
      </trkpt>
      <trkpt lat="49.80368" lon="2.36639">
        <ele>57.5</ele>
        <time>2022-07-27T09:00:53Z</time>
      </trkpt>
      <trkpt lat="49.80369" lon="2.36639">
        <ele>57.5</ele>
        <time>2022-07-27T09:00:54Z</time>
      </trkpt>
      <trkpt lat="49.8037" lon="2.3664">
        <ele>57.4</ele>
        <time>2022-07-27T09:00:55Z</time>
      </trkpt>
      <trkpt lat="49.80371" lon="2.36641">
        <ele>57.4</ele>
        <time>2022-07-27T09:00:56Z</time>
      </trkpt>
      <trkpt lat="49.80373" lon="2.36643">
        <ele>57.3</ele>
        <time>2022-07-27T09:00:57Z</time>
      </trkpt>
      <trkpt lat="49.80374" lon="2.36643">
        <ele>57.3</ele>
        <time>2022-07-27T09:00:58Z</time>
      </trkpt>
      <trkpt lat="49.80375" lon="2.36644">
        <ele>57.3</ele>
        <time>2022-07-27T09:00:59Z</time>
      </trkpt>
      <trkpt lat="49.80376" lon="2.36645">
        <ele>57.2</ele>
        <time>2022-07-27T09:01:00Z</time>
      </trkpt>
      <trkpt lat="49.80377" lon="2.36647">
        <ele>57.2</ele>
        <time>2022-07-27T09:01:01Z</time>
      </trkpt>
      <trkpt lat="49.80378" lon="2.36648">
        <ele>57.1</ele>
        <time>2022-07-27T09:01:02Z</time>
      </trkpt>
      <trkpt lat="49.80379" lon="2.36649">
        <ele>57.1</ele>
        <time>2022-07-27T09:01:03Z</time>
      </trkpt>
      <trkpt lat="49.8038" lon="2.36649">
        <ele>57.1</ele>
        <time>2022-07-27T09:01:04Z</time>
      </trkpt>
      <trkpt lat="49.80381" lon="2.3665">
        <ele>57</ele>
        <time>2022-07-27T09:01:05Z</time>
      </trkpt>
      <trkpt lat="49.80382" lon="2.3665">
        <ele>57</ele>
        <time>2022-07-27T09:01:06Z</time>
      </trkpt>
      <trkpt lat="49.80383" lon="2.36652">
        <ele>56.9</ele>
        <time>2022-07-27T09:01:07Z</time>
      </trkpt>
      <trkpt lat="49.80384" lon="2.36653">
        <ele>56.9</ele>
        <time>2022-07-27T09:01:08Z</time>
      </trkpt>
      <trkpt lat="49.80385" lon="2.36654">
        <ele>56.9</ele>
        <time>2022-07-27T09:01:09Z</time>
      </trkpt>
      <trkpt lat="49.80386" lon="2.36655">
        <ele>56.8</ele>
        <time>2022-07-27T09:01:10Z</time>
      </trkpt>
      <trkpt lat="49.80387" lon="2.36656">
        <ele>56.8</ele>
        <time>2022-07-27T09:01:11Z</time>
      </trkpt>
      <trkpt lat="49.80388" lon="2.36657">
        <ele>56.7</ele>
        <time>2022-07-27T09:01:12Z</time>
      </trkpt>
      <trkpt lat="49.80389" lon="2.36658">
        <ele>56.7</ele>
        <time>2022-07-27T09:01:13Z</time>
      </trkpt>
      <trkpt lat="49.8039" lon="2.36659">
        <ele>56.7</ele>
        <time>2022-07-27T09:01:14Z</time>
      </trkpt>
      <trkpt lat="49.80391" lon="2.3666">
        <ele>56.6</ele>
        <time>2022-07-27T09:01:15Z</time>
      </trkpt>
      <trkpt lat="49.80392" lon="2.36661">
        <ele>56.6</ele>
        <time>2022-07-27T09:01:16Z</time>
      </trkpt>
      <trkpt lat="49.80393" lon="2.36663">
        <ele>56.5</ele>
        <time>2022-07-27T09:01:17Z</time>
      </trkpt>
      <trkpt lat="49.80393" lon="2.36664">
        <ele>56.5</ele>
        <time>2022-07-27T09:01:18Z</time>
      </trkpt>
      <trkpt lat="49.80395" lon="2.36666">
        <ele>56.5</ele>
        <time>2022-07-27T09:01:19Z</time>
      </trkpt>
      <trkpt lat="49.80396" lon="2.36667">
        <ele>56.4</ele>
        <time>2022-07-27T09:01:20Z</time>
      </trkpt>
      <trkpt lat="49.80396" lon="2.36668">
        <ele>56.4</ele>
        <time>2022-07-27T09:01:21Z</time>
      </trkpt>
      <trkpt lat="49.80398" lon="2.3667">
        <ele>56.3</ele>
        <time>2022-07-27T09:01:22Z</time>
      </trkpt>
      <trkpt lat="49.80398" lon="2.36671">
        <ele>56.3</ele>
        <time>2022-07-27T09:01:23Z</time>
      </trkpt>
      <trkpt lat="49.80399" lon="2.36672">
        <ele>56.3</ele>
        <time>2022-07-27T09:01:24Z</time>
      </trkpt>
      <trkpt lat="49.804" lon="2.36673">
        <ele>56.3</ele>
        <time>2022-07-27T09:01:25Z</time>
      </trkpt>
      <trkpt lat="49.80401" lon="2.36674">
        <ele>56.2</ele>
        <time>2022-07-27T09:01:26Z</time>
      </trkpt>
      <trkpt lat="49.80402" lon="2.36675">
        <ele>56.2</ele>
        <time>2022-07-27T09:01:27Z</time>
      </trkpt>
      <trkpt lat="49.80402" lon="2.36676">
        <ele>56.2</ele>
        <time>2022-07-27T09:01:28Z</time>
      </trkpt>
      <trkpt lat="49.80403" lon="2.36677">
        <ele>56.1</ele>
        <time>2022-07-27T09:01:29Z</time>
      </trkpt>
      <trkpt lat="49.80404" lon="2.36679">
        <ele>56.1</ele>
        <time>2022-07-27T09:01:30Z</time>
      </trkpt>
      <trkpt lat="49.80405" lon="2.3668">
        <ele>56</ele>
        <time>2022-07-27T09:01:31Z</time>
      </trkpt>
      <trkpt lat="49.80406" lon="2.36681">
        <ele>56</ele>
        <time>2022-07-27T09:01:32Z</time>
      </trkpt>
      <trkpt lat="49.80407" lon="2.36682">
        <ele>56</ele>
        <time>2022-07-27T09:01:33Z</time>
      </trkpt>
      <trkpt lat="49.80408" lon="2.36683">
        <ele>55.9</ele>
        <time>2022-07-27T09:01:34Z</time>
      </trkpt>
      <trkpt lat="49.80409" lon="2.36684">
        <ele>55.9</ele>
        <time>2022-07-27T09:01:35Z</time>
      </trkpt>
      <trkpt lat="49.8041" lon="2.36686">
        <ele>55.8</ele>
        <time>2022-07-27T09:01:36Z</time>
      </trkpt>
      <trkpt lat="49.80411" lon="2.36687">
        <ele>55.8</ele>
        <time>2022-07-27T09:01:37Z</time>
      </trkpt>
      <trkpt lat="49.80412" lon="2.36687">
        <ele>55.8</ele>
        <time>2022-07-27T09:01:38Z</time>
      </trkpt>
      <trkpt lat="49.80414" lon="2.36689">
        <ele>55.7</ele>
        <time>2022-07-27T09:01:39Z</time>
      </trkpt>
      <trkpt lat="49.80414" lon="2.3669">
        <ele>55.7</ele>
        <time>2022-07-27T09:01:40Z</time>
      </trkpt>
      <trkpt lat="49.80415" lon="2.36691">
        <ele>55.7</ele>
        <time>2022-07-27T09:01:41Z</time>
      </trkpt>
      <trkpt lat="49.80417" lon="2.36693">
        <ele>55.6</ele>
        <time>2022-07-27T09:01:42Z</time>
      </trkpt>
      <trkpt lat="49.80417" lon="2.36694">
        <ele>55.6</ele>
        <time>2022-07-27T09:01:43Z</time>
      </trkpt>
      <trkpt lat="49.80418" lon="2.36695">
        <ele>55.6</ele>
        <time>2022-07-27T09:01:44Z</time>
      </trkpt>
      <trkpt lat="49.80418" lon="2.36696">
        <ele>55.5</ele>
        <time>2022-07-27T09:01:45Z</time>
      </trkpt>
      <trkpt lat="49.80419" lon="2.36697">
        <ele>55.5</ele>
        <time>2022-07-27T09:01:46Z</time>
      </trkpt>
      <trkpt lat="49.8042" lon="2.36698">
        <ele>55.5</ele>
        <time>2022-07-27T09:01:47Z</time>
      </trkpt>
      <trkpt lat="49.8042" lon="2.36698">
        <ele>55.5</ele>
        <time>2022-07-27T09:01:48Z</time>
      </trkpt>
      <trkpt lat="49.80421" lon="2.36699">
        <ele>55.4</ele>
        <time>2022-07-27T09:01:49Z</time>
      </trkpt>
      <trkpt lat="49.80422" lon="2.36701">
        <ele>55.4</ele>
        <time>2022-07-27T09:01:50Z</time>
      </trkpt>
      <trkpt lat="49.80423" lon="2.36702">
        <ele>55.3</ele>
        <time>2022-07-27T09:01:51Z</time>
      </trkpt>
      <trkpt lat="49.80424" lon="2.36703">
        <ele>55.3</ele>
        <time>2022-07-27T09:01:52Z</time>
      </trkpt>
      <trkpt lat="49.80425" lon="2.36704">
        <ele>55.3</ele>
        <time>2022-07-27T09:01:53Z</time>
      </trkpt>
      <trkpt lat="49.80426" lon="2.36705">
        <ele>55.2</ele>
        <time>2022-07-27T09:01:54Z</time>
      </trkpt>
      <trkpt lat="49.80427" lon="2.36706">
        <ele>55.2</ele>
        <time>2022-07-27T09:01:55Z</time>
      </trkpt>
      <trkpt lat="49.80428" lon="2.36707">
        <ele>55.2</ele>
        <time>2022-07-27T09:01:56Z</time>
      </trkpt>
      <trkpt lat="49.80429" lon="2.36709">
        <ele>55.1</ele>
        <time>2022-07-27T09:01:57Z</time>
      </trkpt>
      <trkpt lat="49.8043" lon="2.36711">
        <ele>55.1</ele>
        <time>2022-07-27T09:01:58Z</time>
      </trkpt>
      <trkpt lat="49.80431" lon="2.36711">
        <ele>55.1</ele>
        <time>2022-07-27T09:01:59Z</time>
      </trkpt>
      <trkpt lat="49.80432" lon="2.36712">
        <ele>55</ele>
        <time>2022-07-27T09:02:00Z</time>
      </trkpt>
      <trkpt lat="49.80432" lon="2.36712">
        <ele>55</ele>
        <time>2022-07-27T09:02:01Z</time>
      </trkpt>
      <trkpt lat="49.80433" lon="2.36713">
        <ele>55</ele>
        <time>2022-07-27T09:02:02Z</time>
      </trkpt>
      <trkpt lat="49.80434" lon="2.36714">
        <ele>55</ele>
        <time>2022-07-27T09:02:03Z</time>
      </trkpt>
      <trkpt lat="49.80435" lon="2.36715">
        <ele>54.9</ele>
        <time>2022-07-27T09:02:04Z</time>
      </trkpt>
      <trkpt lat="49.80437" lon="2.36717">
        <ele>54.9</ele>
        <time>2022-07-27T09:02:05Z</time>
      </trkpt>
      <trkpt lat="49.80437" lon="2.36718">
        <ele>54.8</ele>
        <time>2022-07-27T09:02:06Z</time>
      </trkpt>
      <trkpt lat="49.80438" lon="2.36719">
        <ele>54.8</ele>
        <time>2022-07-27T09:02:07Z</time>
      </trkpt>
      <trkpt lat="49.80439" lon="2.3672">
        <ele>54.8</ele>
        <time>2022-07-27T09:02:08Z</time>
      </trkpt>
      <trkpt lat="49.8044" lon="2.36721">
        <ele>54.8</ele>
        <time>2022-07-27T09:02:09Z</time>
      </trkpt>
      <trkpt lat="49.80441" lon="2.36722">
        <ele>54.7</ele>
        <time>2022-07-27T09:02:10Z</time>
      </trkpt>
      <trkpt lat="49.80442" lon="2.36723">
        <ele>54.7</ele>
        <time>2022-07-27T09:02:11Z</time>
      </trkpt>
      <trkpt lat="49.80443" lon="2.36724">
        <ele>54.6</ele>
        <time>2022-07-27T09:02:12Z</time>
      </trkpt>
      <trkpt lat="49.80445" lon="2.36725">
        <ele>54.6</ele>
        <time>2022-07-27T09:02:13Z</time>
      </trkpt>
      <trkpt lat="49.80446" lon="2.36726">
        <ele>54.6</ele>
        <time>2022-07-27T09:02:14Z</time>
      </trkpt>
      <trkpt lat="49.80447" lon="2.36727">
        <ele>54.6</ele>
        <time>2022-07-27T09:02:15Z</time>
      </trkpt>
      <trkpt lat="49.80448" lon="2.36727">
        <ele>54.5</ele>
        <time>2022-07-27T09:02:16Z</time>
      </trkpt>
      <trkpt lat="49.80449" lon="2.36729">
        <ele>54.5</ele>
        <time>2022-07-27T09:02:17Z</time>
      </trkpt>
      <trkpt lat="49.8045" lon="2.36729">
        <ele>54.5</ele>
        <time>2022-07-27T09:02:18Z</time>
      </trkpt>
      <trkpt lat="49.8045" lon="2.3673">
        <ele>54.4</ele>
        <time>2022-07-27T09:02:19Z</time>
      </trkpt>
      <trkpt lat="49.80451" lon="2.36731">
        <ele>54.4</ele>
        <time>2022-07-27T09:02:20Z</time>
      </trkpt>
      <trkpt lat="49.80452" lon="2.36731">
        <ele>54.4</ele>
        <time>2022-07-27T09:02:21Z</time>
      </trkpt>
      <trkpt lat="49.80453" lon="2.36732">
        <ele>54.4</ele>
        <time>2022-07-27T09:02:22Z</time>
      </trkpt>
      <trkpt lat="49.80454" lon="2.36733">
        <ele>54.4</ele>
        <time>2022-07-27T09:02:23Z</time>
      </trkpt>
      <trkpt lat="49.80454" lon="2.36733">
        <ele>54.3</ele>
        <time>2022-07-27T09:02:24Z</time>
      </trkpt>
      <trkpt lat="49.80455" lon="2.36734">
        <ele>54.3</ele>
        <time>2022-07-27T09:02:25Z</time>
      </trkpt>
      <trkpt lat="49.80457" lon="2.36735">
        <ele>54.3</ele>
        <time>2022-07-27T09:02:26Z</time>
      </trkpt>
      <trkpt lat="49.80457" lon="2.36735">
        <ele>54.3</ele>
        <time>2022-07-27T09:02:27Z</time>
      </trkpt>
      <trkpt lat="49.80458" lon="2.36736">
        <ele>54.2</ele>
        <time>2022-07-27T09:02:28Z</time>
      </trkpt>
      <trkpt lat="49.80458" lon="2.36736">
        <ele>54.2</ele>
        <time>2022-07-27T09:02:29Z</time>
      </trkpt>
      <trkpt lat="49.8046" lon="2.36738">
        <ele>54.2</ele>
        <time>2022-07-27T09:02:30Z</time>
      </trkpt>
      <trkpt lat="49.80461" lon="2.36738">
        <ele>54.2</ele>
        <time>2022-07-27T09:02:31Z</time>
      </trkpt>
      <trkpt lat="49.80462" lon="2.36739">
        <ele>54.1</ele>
        <time>2022-07-27T09:02:32Z</time>
      </trkpt>
      <trkpt lat="49.80463" lon="2.36739">
        <ele>54.1</ele>
        <time>2022-07-27T09:02:33Z</time>
      </trkpt>
      <trkpt lat="49.80464" lon="2.3674">
        <ele>54.1</ele>
        <time>2022-07-27T09:02:34Z</time>
      </trkpt>
      <trkpt lat="49.80465" lon="2.36741">
        <ele>54</ele>
        <time>2022-07-27T09:02:35Z</time>
      </trkpt>
      <trkpt lat="49.80466" lon="2.36742">
        <ele>54</ele>
        <time>2022-07-27T09:02:36Z</time>
      </trkpt>
      <trkpt lat="49.80467" lon="2.36743">
        <ele>54</ele>
        <time>2022-07-27T09:02:37Z</time>
      </trkpt>
      <trkpt lat="49.80468" lon="2.36744">
        <ele>54</ele>
        <time>2022-07-27T09:02:38Z</time>
      </trkpt>
      <trkpt lat="49.80469" lon="2.36745">
        <ele>53.9</ele>
        <time>2022-07-27T09:02:39Z</time>
      </trkpt>
      <trkpt lat="49.8047" lon="2.36746">
        <ele>53.9</ele>
        <time>2022-07-27T09:02:40Z</time>
      </trkpt>
      <trkpt lat="49.8047" lon="2.36747">
        <ele>53.9</ele>
        <time>2022-07-27T09:02:41Z</time>
      </trkpt>
      <trkpt lat="49.80471" lon="2.36748">
        <ele>53.9</ele>
        <time>2022-07-27T09:02:42Z</time>
      </trkpt>
      <trkpt lat="49.80472" lon="2.36749">
        <ele>53.9</ele>
        <time>2022-07-27T09:02:43Z</time>
      </trkpt>
      <trkpt lat="49.80473" lon="2.3675">
        <ele>53.8</ele>
        <time>2022-07-27T09:02:44Z</time>
      </trkpt>
      <trkpt lat="49.80474" lon="2.36751">
        <ele>53.8</ele>
        <time>2022-07-27T09:02:45Z</time>
      </trkpt>
      <trkpt lat="49.80475" lon="2.36752">
        <ele>53.8</ele>
        <time>2022-07-27T09:02:46Z</time>
      </trkpt>
      <trkpt lat="49.80477" lon="2.36753">
        <ele>53.7</ele>
        <time>2022-07-27T09:02:47Z</time>
      </trkpt>
      <trkpt lat="49.80478" lon="2.36754">
        <ele>53.7</ele>
        <time>2022-07-27T09:02:48Z</time>
      </trkpt>
      <trkpt lat="49.80478" lon="2.36755">
        <ele>53.7</ele>
        <time>2022-07-27T09:02:49Z</time>
      </trkpt>
      <trkpt lat="49.8048" lon="2.36756">
        <ele>53.6</ele>
        <time>2022-07-27T09:02:50Z</time>
      </trkpt>
      <trkpt lat="49.80481" lon="2.36757">
        <ele>53.6</ele>
        <time>2022-07-27T09:02:51Z</time>
      </trkpt>
      <trkpt lat="49.80482" lon="2.36758">
        <ele>53.6</ele>
        <time>2022-07-27T09:02:52Z</time>
      </trkpt>
      <trkpt lat="49.80483" lon="2.36759">
        <ele>53.6</ele>
        <time>2022-07-27T09:02:53Z</time>
      </trkpt>
      <trkpt lat="49.80484" lon="2.3676">
        <ele>53.6</ele>
        <time>2022-07-27T09:02:54Z</time>
      </trkpt>
      <trkpt lat="49.80485" lon="2.36761">
        <ele>53.5</ele>
        <time>2022-07-27T09:02:55Z</time>
      </trkpt>
      <trkpt lat="49.80486" lon="2.36762">
        <ele>53.5</ele>
        <time>2022-07-27T09:02:56Z</time>
      </trkpt>
      <trkpt lat="49.80487" lon="2.36764">
        <ele>53.5</ele>
        <time>2022-07-27T09:02:57Z</time>
      </trkpt>
      <trkpt lat="49.80488" lon="2.36765">
        <ele>53.5</ele>
        <time>2022-07-27T09:02:58Z</time>
      </trkpt>
      <trkpt lat="49.80489" lon="2.36766">
        <ele>53.5</ele>
        <time>2022-07-27T09:02:59Z</time>
      </trkpt>
      <trkpt lat="49.80489" lon="2.36766">
        <ele>53.4</ele>
        <time>2022-07-27T09:03:00Z</time>
      </trkpt>
      <trkpt lat="49.8049" lon="2.36767">
        <ele>53.4</ele>
        <time>2022-07-27T09:03:01Z</time>
      </trkpt>
      <trkpt lat="49.80492" lon="2.36769">
        <ele>53.4</ele>
        <time>2022-07-27T09:03:02Z</time>
      </trkpt>
      <trkpt lat="49.80493" lon="2.3677">
        <ele>53.4</ele>
        <time>2022-07-27T09:03:03Z</time>
      </trkpt>
      <trkpt lat="49.80493" lon="2.36771">
        <ele>53.4</ele>
        <time>2022-07-27T09:03:04Z</time>
      </trkpt>
      <trkpt lat="49.80495" lon="2.36773">
        <ele>53.3</ele>
        <time>2022-07-27T09:03:05Z</time>
      </trkpt>
      <trkpt lat="49.80496" lon="2.36774">
        <ele>53.3</ele>
        <time>2022-07-27T09:03:06Z</time>
      </trkpt>
      <trkpt lat="49.80496" lon="2.36775">
        <ele>53.3</ele>
        <time>2022-07-27T09:03:07Z</time>
      </trkpt>
      <trkpt lat="49.80497" lon="2.36776">
        <ele>53.3</ele>
        <time>2022-07-27T09:03:08Z</time>
      </trkpt>
      <trkpt lat="49.80498" lon="2.36777">
        <ele>53.2</ele>
        <time>2022-07-27T09:03:09Z</time>
      </trkpt>
      <trkpt lat="49.80499" lon="2.36778">
        <ele>53.2</ele>
        <time>2022-07-27T09:03:10Z</time>
      </trkpt>
      <trkpt lat="49.80501" lon="2.3678">
        <ele>53.2</ele>
        <time>2022-07-27T09:03:11Z</time>
      </trkpt>
      <trkpt lat="49.80502" lon="2.36781">
        <ele>53.2</ele>
        <time>2022-07-27T09:03:12Z</time>
      </trkpt>
      <trkpt lat="49.80502" lon="2.36781">
        <ele>53.1</ele>
        <time>2022-07-27T09:03:13Z</time>
      </trkpt>
      <trkpt lat="49.80503" lon="2.36782">
        <ele>53.1</ele>
        <time>2022-07-27T09:03:14Z</time>
      </trkpt>
      <trkpt lat="49.80504" lon="2.36783">
        <ele>53.1</ele>
        <time>2022-07-27T09:03:15Z</time>
      </trkpt>
      <trkpt lat="49.80505" lon="2.36783">
        <ele>53.1</ele>
        <time>2022-07-27T09:03:16Z</time>
      </trkpt>
      <trkpt lat="49.80506" lon="2.36784">
        <ele>53.1</ele>
        <time>2022-07-27T09:03:17Z</time>
      </trkpt>
      <trkpt lat="49.80507" lon="2.36785">
        <ele>53</ele>
        <time>2022-07-27T09:03:18Z</time>
      </trkpt>
      <trkpt lat="49.80508" lon="2.36786">
        <ele>53</ele>
        <time>2022-07-27T09:03:19Z</time>
      </trkpt>
      <trkpt lat="49.80509" lon="2.36787">
        <ele>53</ele>
        <time>2022-07-27T09:03:20Z</time>
      </trkpt>
      <trkpt lat="49.8051" lon="2.36788">
        <ele>53</ele>
        <time>2022-07-27T09:03:21Z</time>
      </trkpt>
      <trkpt lat="49.80512" lon="2.36789">
        <ele>53</ele>
        <time>2022-07-27T09:03:22Z</time>
      </trkpt>
      <trkpt lat="49.80513" lon="2.3679">
        <ele>52.9</ele>
        <time>2022-07-27T09:03:23Z</time>
      </trkpt>
      <trkpt lat="49.80514" lon="2.36791">
        <ele>52.9</ele>
        <time>2022-07-27T09:03:24Z</time>
      </trkpt>
      <trkpt lat="49.80515" lon="2.36792">
        <ele>52.9</ele>
        <time>2022-07-27T09:03:25Z</time>
      </trkpt>
      <trkpt lat="49.80516" lon="2.36792">
        <ele>52.9</ele>
        <time>2022-07-27T09:03:26Z</time>
      </trkpt>
      <trkpt lat="49.80517" lon="2.36793">
        <ele>52.9</ele>
        <time>2022-07-27T09:03:27Z</time>
      </trkpt>
      <trkpt lat="49.80519" lon="2.36795">
        <ele>52.8</ele>
        <time>2022-07-27T09:03:28Z</time>
      </trkpt>
      <trkpt lat="49.80519" lon="2.36795">
        <ele>52.8</ele>
        <time>2022-07-27T09:03:29Z</time>
      </trkpt>
      <trkpt lat="49.8052" lon="2.36796">
        <ele>52.8</ele>
        <time>2022-07-27T09:03:30Z</time>
      </trkpt>
      <trkpt lat="49.80521" lon="2.36797">
        <ele>52.8</ele>
        <time>2022-07-27T09:03:31Z</time>
      </trkpt>
      <trkpt lat="49.80522" lon="2.36798">
        <ele>52.8</ele>
        <time>2022-07-27T09:03:32Z</time>
      </trkpt>
      <trkpt lat="49.80523" lon="2.36799">
        <ele>52.8</ele>
        <time>2022-07-27T09:03:33Z</time>
      </trkpt>
      <trkpt lat="49.80524" lon="2.36799">
        <ele>52.8</ele>
        <time>2022-07-27T09:03:34Z</time>
      </trkpt>
      <trkpt lat="49.80525" lon="2.368">
        <ele>52.7</ele>
        <time>2022-07-27T09:03:35Z</time>
      </trkpt>
      <trkpt lat="49.80526" lon="2.368">
        <ele>52.7</ele>
        <time>2022-07-27T09:03:36Z</time>
      </trkpt>
      <trkpt lat="49.80527" lon="2.36801">
        <ele>52.7</ele>
        <time>2022-07-27T09:03:37Z</time>
      </trkpt>
      <trkpt lat="49.80528" lon="2.36802">
        <ele>52.7</ele>
        <time>2022-07-27T09:03:38Z</time>
      </trkpt>
      <trkpt lat="49.80529" lon="2.36803">
        <ele>52.7</ele>
        <time>2022-07-27T09:03:39Z</time>
      </trkpt>
      <trkpt lat="49.8053" lon="2.36804">
        <ele>52.7</ele>
        <time>2022-07-27T09:03:40Z</time>
      </trkpt>
      <trkpt lat="49.80531" lon="2.36805">
        <ele>52.7</ele>
        <time>2022-07-27T09:03:41Z</time>
      </trkpt>
      <trkpt lat="49.80532" lon="2.36806">
        <ele>52.6</ele>
        <time>2022-07-27T09:03:42Z</time>
      </trkpt>
      <trkpt lat="49.80534" lon="2.36807">
        <ele>52.6</ele>
        <time>2022-07-27T09:03:43Z</time>
      </trkpt>
      <trkpt lat="49.80534" lon="2.36808">
        <ele>52.6</ele>
        <time>2022-07-27T09:03:44Z</time>
      </trkpt>
      <trkpt lat="49.80535" lon="2.36809">
        <ele>52.6</ele>
        <time>2022-07-27T09:03:45Z</time>
      </trkpt>
      <trkpt lat="49.80537" lon="2.3681">
        <ele>52.6</ele>
        <time>2022-07-27T09:03:46Z</time>
      </trkpt>
      <trkpt lat="49.80538" lon="2.36811">
        <ele>52.6</ele>
        <time>2022-07-27T09:03:47Z</time>
      </trkpt>
      <trkpt lat="49.80538" lon="2.36812">
        <ele>52.6</ele>
        <time>2022-07-27T09:03:48Z</time>
      </trkpt>
      <trkpt lat="49.8054" lon="2.36813">
        <ele>52.5</ele>
        <time>2022-07-27T09:03:49Z</time>
      </trkpt>
      <trkpt lat="49.8054" lon="2.36814">
        <ele>52.5</ele>
        <time>2022-07-27T09:03:50Z</time>
      </trkpt>
      <trkpt lat="49.80541" lon="2.36814">
        <ele>52.5</ele>
        <time>2022-07-27T09:03:51Z</time>
      </trkpt>
      <trkpt lat="49.80542" lon="2.36815">
        <ele>52.5</ele>
        <time>2022-07-27T09:03:52Z</time>
      </trkpt>
      <trkpt lat="49.80543" lon="2.36816">
        <ele>52.5</ele>
        <time>2022-07-27T09:03:53Z</time>
      </trkpt>
      <trkpt lat="49.80544" lon="2.36817">
        <ele>52.5</ele>
        <time>2022-07-27T09:03:54Z</time>
      </trkpt>
      <trkpt lat="49.80545" lon="2.36818">
        <ele>52.5</ele>
        <time>2022-07-27T09:03:55Z</time>
      </trkpt>
      <trkpt lat="49.80547" lon="2.3682">
        <ele>52.4</ele>
        <time>2022-07-27T09:03:56Z</time>
      </trkpt>
      <trkpt lat="49.80547" lon="2.3682">
        <ele>52.4</ele>
        <time>2022-07-27T09:03:57Z</time>
      </trkpt>
      <trkpt lat="49.80548" lon="2.36821">
        <ele>52.4</ele>
        <time>2022-07-27T09:03:58Z</time>
      </trkpt>
      <trkpt lat="49.80549" lon="2.36822">
        <ele>52.4</ele>
        <time>2022-07-27T09:03:59Z</time>
      </trkpt>
      <trkpt lat="49.8055" lon="2.36823">
        <ele>52.4</ele>
        <time>2022-07-27T09:04:00Z</time>
      </trkpt>
      <trkpt lat="49.80551" lon="2.36824">
        <ele>52.4</ele>
        <time>2022-07-27T09:04:01Z</time>
      </trkpt>
      <trkpt lat="49.80552" lon="2.36825">
        <ele>52.4</ele>
        <time>2022-07-27T09:04:02Z</time>
      </trkpt>
      <trkpt lat="49.80553" lon="2.36827">
        <ele>52.4</ele>
        <time>2022-07-27T09:04:03Z</time>
      </trkpt>
      <trkpt lat="49.80554" lon="2.36828">
        <ele>52.3</ele>
        <time>2022-07-27T09:04:04Z</time>
      </trkpt>
      <trkpt lat="49.80555" lon="2.36829">
        <ele>52.3</ele>
        <time>2022-07-27T09:04:05Z</time>
      </trkpt>
      <trkpt lat="49.80556" lon="2.3683">
        <ele>52.3</ele>
        <time>2022-07-27T09:04:06Z</time>
      </trkpt>
      <trkpt lat="49.80557" lon="2.36831">
        <ele>52.3</ele>
        <time>2022-07-27T09:04:07Z</time>
      </trkpt>
      <trkpt lat="49.80558" lon="2.36832">
        <ele>52.3</ele>
        <time>2022-07-27T09:04:08Z</time>
      </trkpt>
      <trkpt lat="49.80559" lon="2.36833">
        <ele>52.3</ele>
        <time>2022-07-27T09:04:09Z</time>
      </trkpt>
      <trkpt lat="49.8056" lon="2.36833">
        <ele>52.3</ele>
        <time>2022-07-27T09:04:10Z</time>
      </trkpt>
      <trkpt lat="49.80561" lon="2.36834">
        <ele>52.3</ele>
        <time>2022-07-27T09:04:11Z</time>
      </trkpt>
      <trkpt lat="49.80562" lon="2.36835">
        <ele>52.3</ele>
        <time>2022-07-27T09:04:12Z</time>
      </trkpt>
      <trkpt lat="49.80563" lon="2.36837">
        <ele>52.3</ele>
        <time>2022-07-27T09:04:13Z</time>
      </trkpt>
      <trkpt lat="49.80564" lon="2.36838">
        <ele>52.3</ele>
        <time>2022-07-27T09:04:14Z</time>
      </trkpt>
      <trkpt lat="49.80565" lon="2.36839">
        <ele>52.2</ele>
        <time>2022-07-27T09:04:15Z</time>
      </trkpt>
      <trkpt lat="49.80567" lon="2.3684">
        <ele>52.2</ele>
        <time>2022-07-27T09:04:16Z</time>
      </trkpt>
      <trkpt lat="49.80568" lon="2.36841">
        <ele>52.2</ele>
        <time>2022-07-27T09:04:17Z</time>
      </trkpt>
      <trkpt lat="49.80569" lon="2.36842">
        <ele>52.2</ele>
        <time>2022-07-27T09:04:18Z</time>
      </trkpt>
      <trkpt lat="49.8057" lon="2.36843">
        <ele>52.2</ele>
        <time>2022-07-27T09:04:19Z</time>
      </trkpt>
      <trkpt lat="49.80571" lon="2.36843">
        <ele>52.2</ele>
        <time>2022-07-27T09:04:20Z</time>
      </trkpt>
      <trkpt lat="49.80572" lon="2.36844">
        <ele>52.2</ele>
        <time>2022-07-27T09:04:21Z</time>
      </trkpt>
      <trkpt lat="49.80573" lon="2.36845">
        <ele>52.2</ele>
        <time>2022-07-27T09:04:22Z</time>
      </trkpt>
      <trkpt lat="49.80575" lon="2.36847">
        <ele>52.2</ele>
        <time>2022-07-27T09:04:23Z</time>
      </trkpt>
      <trkpt lat="49.80575" lon="2.36847">
        <ele>52.2</ele>
        <time>2022-07-27T09:04:24Z</time>
      </trkpt>
      <trkpt lat="49.80576" lon="2.36848">
        <ele>52.2</ele>
        <time>2022-07-27T09:04:25Z</time>
      </trkpt>
      <trkpt lat="49.80577" lon="2.36849">
        <ele>52.2</ele>
        <time>2022-07-27T09:04:26Z</time>
      </trkpt>
      <trkpt lat="49.80578" lon="2.36849">
        <ele>52.2</ele>
        <time>2022-07-27T09:04:27Z</time>
      </trkpt>
      <trkpt lat="49.80579" lon="2.3685">
        <ele>52.2</ele>
        <time>2022-07-27T09:04:28Z</time>
      </trkpt>
      <trkpt lat="49.8058" lon="2.36851">
        <ele>52.2</ele>
        <time>2022-07-27T09:04:29Z</time>
      </trkpt>
      <trkpt lat="49.80581" lon="2.36852">
        <ele>52.2</ele>
        <time>2022-07-27T09:04:30Z</time>
      </trkpt>
      <trkpt lat="49.80582" lon="2.36853">
        <ele>52.2</ele>
        <time>2022-07-27T09:04:31Z</time>
      </trkpt>
      <trkpt lat="49.80583" lon="2.36854">
        <ele>52.2</ele>
        <time>2022-07-27T09:04:32Z</time>
      </trkpt>
      <trkpt lat="49.80584" lon="2.36855">
        <ele>52.2</ele>
        <time>2022-07-27T09:04:33Z</time>
      </trkpt>
      <trkpt lat="49.80585" lon="2.36856">
        <ele>52.2</ele>
        <time>2022-07-27T09:04:34Z</time>
      </trkpt>
      <trkpt lat="49.80585" lon="2.36857">
        <ele>52.2</ele>
        <time>2022-07-27T09:04:35Z</time>
      </trkpt>
      <trkpt lat="49.80587" lon="2.36859">
        <ele>52.2</ele>
        <time>2022-07-27T09:04:36Z</time>
      </trkpt>
      <trkpt lat="49.80588" lon="2.3686">
        <ele>52.2</ele>
        <time>2022-07-27T09:04:37Z</time>
      </trkpt>
      <trkpt lat="49.80589" lon="2.36861">
        <ele>52.2</ele>
        <time>2022-07-27T09:04:38Z</time>
      </trkpt>
      <trkpt lat="49.80589" lon="2.36862">
        <ele>52.3</ele>
        <time>2022-07-27T09:04:39Z</time>
      </trkpt>
      <trkpt lat="49.8059" lon="2.36863">
        <ele>52.3</ele>
        <time>2022-07-27T09:04:40Z</time>
      </trkpt>
      <trkpt lat="49.80591" lon="2.36864">
        <ele>52.3</ele>
        <time>2022-07-27T09:04:41Z</time>
      </trkpt>
      <trkpt lat="49.80592" lon="2.36865">
        <ele>52.3</ele>
        <time>2022-07-27T09:04:42Z</time>
      </trkpt>
      <trkpt lat="49.80593" lon="2.36866">
        <ele>52.3</ele>
        <time>2022-07-27T09:04:43Z</time>
      </trkpt>
      <trkpt lat="49.80594" lon="2.36866">
        <ele>52.3</ele>
        <time>2022-07-27T09:04:44Z</time>
      </trkpt>
      <trkpt lat="49.80594" lon="2.36867">
        <ele>52.3</ele>
        <time>2022-07-27T09:04:45Z</time>
      </trkpt>
      <trkpt lat="49.80595" lon="2.36868">
        <ele>52.4</ele>
        <time>2022-07-27T09:04:46Z</time>
      </trkpt>
      <trkpt lat="49.80596" lon="2.36869">
        <ele>52.4</ele>
        <time>2022-07-27T09:04:47Z</time>
      </trkpt>
      <trkpt lat="49.80597" lon="2.3687">
        <ele>52.4</ele>
        <time>2022-07-27T09:04:48Z</time>
      </trkpt>
      <trkpt lat="49.80598" lon="2.36871">
        <ele>52.4</ele>
        <time>2022-07-27T09:04:49Z</time>
      </trkpt>
      <trkpt lat="49.80599" lon="2.36872">
        <ele>52.4</ele>
        <time>2022-07-27T09:04:50Z</time>
      </trkpt>
      <trkpt lat="49.806" lon="2.36874">
        <ele>52.5</ele>
        <time>2022-07-27T09:04:51Z</time>
      </trkpt>
      <trkpt lat="49.80601" lon="2.36875">
        <ele>52.5</ele>
        <time>2022-07-27T09:04:52Z</time>
      </trkpt>
      <trkpt lat="49.80602" lon="2.36876">
        <ele>52.5</ele>
        <time>2022-07-27T09:04:53Z</time>
      </trkpt>
      <trkpt lat="49.80602" lon="2.36878">
        <ele>52.5</ele>
        <time>2022-07-27T09:04:54Z</time>
      </trkpt>
      <trkpt lat="49.80603" lon="2.36879">
        <ele>52.6</ele>
        <time>2022-07-27T09:04:55Z</time>
      </trkpt>
      <trkpt lat="49.80604" lon="2.3688">
        <ele>52.6</ele>
        <time>2022-07-27T09:04:56Z</time>
      </trkpt>
      <trkpt lat="49.80605" lon="2.36882">
        <ele>52.6</ele>
        <time>2022-07-27T09:04:57Z</time>
      </trkpt>
      <trkpt lat="49.80605" lon="2.36883">
        <ele>52.6</ele>
        <time>2022-07-27T09:04:58Z</time>
      </trkpt>
      <trkpt lat="49.80606" lon="2.36884">
        <ele>52.6</ele>
        <time>2022-07-27T09:04:59Z</time>
      </trkpt>
      <trkpt lat="49.80607" lon="2.36885">
        <ele>52.7</ele>
        <time>2022-07-27T09:05:00Z</time>
      </trkpt>
      <trkpt lat="49.80607" lon="2.36886">
        <ele>52.7</ele>
        <time>2022-07-27T09:05:01Z</time>
      </trkpt>
      <trkpt lat="49.80608" lon="2.36887">
        <ele>52.7</ele>
        <time>2022-07-27T09:05:02Z</time>
      </trkpt>
      <trkpt lat="49.80609" lon="2.36889">
        <ele>52.8</ele>
        <time>2022-07-27T09:05:03Z</time>
      </trkpt>
      <trkpt lat="49.8061" lon="2.3689">
        <ele>52.8</ele>
        <time>2022-07-27T09:05:04Z</time>
      </trkpt>
      <trkpt lat="49.80611" lon="2.36893">
        <ele>52.9</ele>
        <time>2022-07-27T09:05:05Z</time>
      </trkpt>
      <trkpt lat="49.80612" lon="2.36894">
        <ele>52.9</ele>
        <time>2022-07-27T09:05:06Z</time>
      </trkpt>
      <trkpt lat="49.80612" lon="2.36895">
        <ele>52.9</ele>
        <time>2022-07-27T09:05:07Z</time>
      </trkpt>
      <trkpt lat="49.80613" lon="2.36898">
        <ele>53</ele>
        <time>2022-07-27T09:05:08Z</time>
      </trkpt>
      <trkpt lat="49.80614" lon="2.36899">
        <ele>53</ele>
        <time>2022-07-27T09:05:09Z</time>
      </trkpt>
      <trkpt lat="49.80614" lon="2.369">
        <ele>53</ele>
        <time>2022-07-27T09:05:10Z</time>
      </trkpt>
      <trkpt lat="49.80615" lon="2.36901">
        <ele>53.1</ele>
        <time>2022-07-27T09:05:11Z</time>
      </trkpt>
      <trkpt lat="49.80615" lon="2.36903">
        <ele>53.1</ele>
        <time>2022-07-27T09:05:12Z</time>
      </trkpt>
      <trkpt lat="49.80616" lon="2.36904">
        <ele>53.1</ele>
        <time>2022-07-27T09:05:13Z</time>
      </trkpt>
      <trkpt lat="49.80616" lon="2.36905">
        <ele>53.2</ele>
        <time>2022-07-27T09:05:14Z</time>
      </trkpt>
      <trkpt lat="49.80617" lon="2.36907">
        <ele>53.2</ele>
        <time>2022-07-27T09:05:15Z</time>
      </trkpt>
      <trkpt lat="49.80617" lon="2.36908">
        <ele>53.2</ele>
        <time>2022-07-27T09:05:16Z</time>
      </trkpt>
      <trkpt lat="49.80617" lon="2.3691">
        <ele>53.2</ele>
        <time>2022-07-27T09:05:17Z</time>
      </trkpt>
      <trkpt lat="49.80618" lon="2.36912">
        <ele>53.2</ele>
        <time>2022-07-27T09:05:18Z</time>
      </trkpt>
      <trkpt lat="49.80618" lon="2.36913">
        <ele>53.2</ele>
        <time>2022-07-27T09:05:19Z</time>
      </trkpt>
      <trkpt lat="49.80618" lon="2.36916">
        <ele>53.3</ele>
        <time>2022-07-27T09:05:20Z</time>
      </trkpt>
      <trkpt lat="49.80618" lon="2.36918">
        <ele>53.3</ele>
        <time>2022-07-27T09:05:21Z</time>
      </trkpt>
      <trkpt lat="49.80619" lon="2.36919">
        <ele>53.3</ele>
        <time>2022-07-27T09:05:22Z</time>
      </trkpt>
      <trkpt lat="49.80619" lon="2.36921">
        <ele>53.3</ele>
        <time>2022-07-27T09:05:23Z</time>
      </trkpt>
      <trkpt lat="49.80619" lon="2.36922">
        <ele>53.3</ele>
        <time>2022-07-27T09:05:24Z</time>
      </trkpt>
      <trkpt lat="49.80619" lon="2.36924">
        <ele>53.3</ele>
        <time>2022-07-27T09:05:25Z</time>
      </trkpt>
      <trkpt lat="49.80619" lon="2.36927">
        <ele>53.4</ele>
        <time>2022-07-27T09:05:26Z</time>
      </trkpt>
      <trkpt lat="49.80618" lon="2.36929">
        <ele>53.4</ele>
        <time>2022-07-27T09:05:27Z</time>
      </trkpt>
      <trkpt lat="49.80618" lon="2.3693">
        <ele>53.4</ele>
        <time>2022-07-27T09:05:28Z</time>
      </trkpt>
      <trkpt lat="49.80618" lon="2.36932">
        <ele>53.4</ele>
        <time>2022-07-27T09:05:29Z</time>
      </trkpt>
      <trkpt lat="49.80618" lon="2.36933">
        <ele>53.4</ele>
        <time>2022-07-27T09:05:30Z</time>
      </trkpt>
      <trkpt lat="49.80618" lon="2.36935">
        <ele>53.5</ele>
        <time>2022-07-27T09:05:31Z</time>
      </trkpt>
      <trkpt lat="49.80618" lon="2.36937">
        <ele>53.5</ele>
        <time>2022-07-27T09:05:32Z</time>
      </trkpt>
      <trkpt lat="49.80618" lon="2.36939">
        <ele>53.5</ele>
        <time>2022-07-27T09:05:33Z</time>
      </trkpt>
      <trkpt lat="49.80618" lon="2.36941">
        <ele>53.5</ele>
        <time>2022-07-27T09:05:34Z</time>
      </trkpt>
      <trkpt lat="49.80618" lon="2.36943">
        <ele>53.5</ele>
        <time>2022-07-27T09:05:35Z</time>
      </trkpt>
      <trkpt lat="49.80618" lon="2.36945">
        <ele>53.6</ele>
        <time>2022-07-27T09:05:36Z</time>
      </trkpt>
      <trkpt lat="49.80617" lon="2.36946">
        <ele>53.6</ele>
        <time>2022-07-27T09:05:37Z</time>
      </trkpt>
      <trkpt lat="49.80617" lon="2.36948">
        <ele>53.6</ele>
        <time>2022-07-27T09:05:38Z</time>
      </trkpt>
      <trkpt lat="49.80617" lon="2.36949">
        <ele>53.6</ele>
        <time>2022-07-27T09:05:39Z</time>
      </trkpt>
      <trkpt lat="49.80617" lon="2.3695">
        <ele>53.6</ele>
        <time>2022-07-27T09:05:40Z</time>
      </trkpt>
      <trkpt lat="49.80617" lon="2.36952">
        <ele>53.6</ele>
        <time>2022-07-27T09:05:41Z</time>
      </trkpt>
      <trkpt lat="49.80617" lon="2.36954">
        <ele>53.7</ele>
        <time>2022-07-27T09:05:42Z</time>
      </trkpt>
      <trkpt lat="49.80617" lon="2.36956">
        <ele>53.7</ele>
        <time>2022-07-27T09:05:43Z</time>
      </trkpt>
      <trkpt lat="49.80617" lon="2.36957">
        <ele>53.7</ele>
        <time>2022-07-27T09:05:44Z</time>
      </trkpt>
      <trkpt lat="49.80617" lon="2.36959">
        <ele>53.7</ele>
        <time>2022-07-27T09:05:45Z</time>
      </trkpt>
      <trkpt lat="49.80617" lon="2.36962">
        <ele>53.8</ele>
        <time>2022-07-27T09:05:46Z</time>
      </trkpt>
      <trkpt lat="49.80617" lon="2.36963">
        <ele>53.8</ele>
        <time>2022-07-27T09:05:47Z</time>
      </trkpt>
      <trkpt lat="49.80617" lon="2.36965">
        <ele>53.8</ele>
        <time>2022-07-27T09:05:48Z</time>
      </trkpt>
      <trkpt lat="49.80617" lon="2.36966">
        <ele>53.8</ele>
        <time>2022-07-27T09:05:49Z</time>
      </trkpt>
      <trkpt lat="49.80617" lon="2.36968">
        <ele>53.8</ele>
        <time>2022-07-27T09:05:50Z</time>
      </trkpt>
      <trkpt lat="49.80617" lon="2.36969">
        <ele>53.9</ele>
        <time>2022-07-27T09:05:51Z</time>
      </trkpt>
      <trkpt lat="49.80617" lon="2.36971">
        <ele>53.9</ele>
        <time>2022-07-27T09:05:52Z</time>
      </trkpt>
      <trkpt lat="49.80617" lon="2.36973">
        <ele>53.9</ele>
        <time>2022-07-27T09:05:53Z</time>
      </trkpt>
      <trkpt lat="49.80617" lon="2.36974">
        <ele>53.9</ele>
        <time>2022-07-27T09:05:54Z</time>
      </trkpt>
      <trkpt lat="49.80618" lon="2.36977">
        <ele>54</ele>
        <time>2022-07-27T09:05:55Z</time>
      </trkpt>
      <trkpt lat="49.80618" lon="2.36978">
        <ele>54</ele>
        <time>2022-07-27T09:05:56Z</time>
      </trkpt>
      <trkpt lat="49.80618" lon="2.3698">
        <ele>54</ele>
        <time>2022-07-27T09:05:57Z</time>
      </trkpt>
      <trkpt lat="49.80618" lon="2.36984">
        <ele>54.1</ele>
        <time>2022-07-27T09:05:58Z</time>
      </trkpt>
      <trkpt lat="49.80618" lon="2.36984">
        <ele>54.1</ele>
        <time>2022-07-27T09:05:59Z</time>
      </trkpt>
      <trkpt lat="49.80618" lon="2.36985">
        <ele>54.1</ele>
        <time>2022-07-27T09:06:00Z</time>
      </trkpt>
      <trkpt lat="49.80618" lon="2.36989">
        <ele>54.1</ele>
        <time>2022-07-27T09:06:01Z</time>
      </trkpt>
      <trkpt lat="49.80618" lon="2.36991">
        <ele>54.1</ele>
        <time>2022-07-27T09:06:02Z</time>
      </trkpt>
      <trkpt lat="49.80618" lon="2.36992">
        <ele>54.2</ele>
        <time>2022-07-27T09:06:03Z</time>
      </trkpt>
      <trkpt lat="49.80618" lon="2.36994">
        <ele>54.2</ele>
        <time>2022-07-27T09:06:04Z</time>
      </trkpt>
      <trkpt lat="49.80618" lon="2.36995">
        <ele>54.2</ele>
        <time>2022-07-27T09:06:05Z</time>
      </trkpt>
      <trkpt lat="49.80618" lon="2.36997">
        <ele>54.2</ele>
        <time>2022-07-27T09:06:06Z</time>
      </trkpt>
      <trkpt lat="49.80618" lon="2.36998">
        <ele>54.2</ele>
        <time>2022-07-27T09:06:07Z</time>
      </trkpt>
      <trkpt lat="49.80619" lon="2.37001">
        <ele>54.3</ele>
        <time>2022-07-27T09:06:08Z</time>
      </trkpt>
      <trkpt lat="49.80619" lon="2.37002">
        <ele>54.3</ele>
        <time>2022-07-27T09:06:09Z</time>
      </trkpt>
      <trkpt lat="49.80619" lon="2.37003">
        <ele>54.3</ele>
        <time>2022-07-27T09:06:10Z</time>
      </trkpt>
      <trkpt lat="49.80619" lon="2.37007">
        <ele>54.4</ele>
        <time>2022-07-27T09:06:11Z</time>
      </trkpt>
      <trkpt lat="49.80619" lon="2.37008">
        <ele>54.4</ele>
        <time>2022-07-27T09:06:12Z</time>
      </trkpt>
      <trkpt lat="49.80619" lon="2.37009">
        <ele>54.4</ele>
        <time>2022-07-27T09:06:13Z</time>
      </trkpt>
      <trkpt lat="49.80619" lon="2.37013">
        <ele>54.4</ele>
        <time>2022-07-27T09:06:14Z</time>
      </trkpt>
      <trkpt lat="49.80619" lon="2.37014">
        <ele>54.5</ele>
        <time>2022-07-27T09:06:15Z</time>
      </trkpt>
      <trkpt lat="49.80619" lon="2.37015">
        <ele>54.5</ele>
        <time>2022-07-27T09:06:16Z</time>
      </trkpt>
      <trkpt lat="49.8062" lon="2.37017">
        <ele>54.5</ele>
        <time>2022-07-27T09:06:17Z</time>
      </trkpt>
      <trkpt lat="49.8062" lon="2.37019">
        <ele>54.5</ele>
        <time>2022-07-27T09:06:18Z</time>
      </trkpt>
      <trkpt lat="49.8062" lon="2.37021">
        <ele>54.6</ele>
        <time>2022-07-27T09:06:19Z</time>
      </trkpt>
      <trkpt lat="49.8062" lon="2.37024">
        <ele>54.6</ele>
        <time>2022-07-27T09:06:20Z</time>
      </trkpt>
      <trkpt lat="49.8062" lon="2.37025">
        <ele>54.6</ele>
        <time>2022-07-27T09:06:21Z</time>
      </trkpt>
      <trkpt lat="49.8062" lon="2.37026">
        <ele>54.6</ele>
        <time>2022-07-27T09:06:22Z</time>
      </trkpt>
      <trkpt lat="49.8062" lon="2.37029">
        <ele>54.7</ele>
        <time>2022-07-27T09:06:23Z</time>
      </trkpt>
      <trkpt lat="49.8062" lon="2.3703">
        <ele>54.7</ele>
        <time>2022-07-27T09:06:24Z</time>
      </trkpt>
      <trkpt lat="49.8062" lon="2.37032">
        <ele>54.7</ele>
        <time>2022-07-27T09:06:25Z</time>
      </trkpt>
      <trkpt lat="49.80621" lon="2.37035">
        <ele>54.7</ele>
        <time>2022-07-27T09:06:26Z</time>
      </trkpt>
      <trkpt lat="49.80621" lon="2.37037">
        <ele>54.8</ele>
        <time>2022-07-27T09:06:27Z</time>
      </trkpt>
      <trkpt lat="49.80621" lon="2.37038">
        <ele>54.8</ele>
        <time>2022-07-27T09:06:28Z</time>
      </trkpt>
      <trkpt lat="49.80621" lon="2.37039">
        <ele>54.8</ele>
        <time>2022-07-27T09:06:29Z</time>
      </trkpt>
      <trkpt lat="49.80621" lon="2.37041">
        <ele>54.8</ele>
        <time>2022-07-27T09:06:30Z</time>
      </trkpt>
      <trkpt lat="49.80621" lon="2.37042">
        <ele>54.8</ele>
        <time>2022-07-27T09:06:31Z</time>
      </trkpt>
      <trkpt lat="49.80621" lon="2.37043">
        <ele>54.9</ele>
        <time>2022-07-27T09:06:32Z</time>
      </trkpt>
      <trkpt lat="49.80621" lon="2.37046">
        <ele>54.9</ele>
        <time>2022-07-27T09:06:33Z</time>
      </trkpt>
      <trkpt lat="49.80621" lon="2.37047">
        <ele>54.9</ele>
        <time>2022-07-27T09:06:34Z</time>
      </trkpt>
      <trkpt lat="49.80621" lon="2.37049">
        <ele>54.9</ele>
        <time>2022-07-27T09:06:35Z</time>
      </trkpt>
      <trkpt lat="49.80622" lon="2.37052">
        <ele>55</ele>
        <time>2022-07-27T09:06:36Z</time>
      </trkpt>
      <trkpt lat="49.80622" lon="2.37054">
        <ele>55</ele>
        <time>2022-07-27T09:06:37Z</time>
      </trkpt>
      <trkpt lat="49.80622" lon="2.37055">
        <ele>55</ele>
        <time>2022-07-27T09:06:38Z</time>
      </trkpt>
      <trkpt lat="49.80622" lon="2.37057">
        <ele>55</ele>
        <time>2022-07-27T09:06:39Z</time>
      </trkpt>
      <trkpt lat="49.80622" lon="2.37058">
        <ele>55</ele>
        <time>2022-07-27T09:06:40Z</time>
      </trkpt>
      <trkpt lat="49.80622" lon="2.37059">
        <ele>55.1</ele>
        <time>2022-07-27T09:06:41Z</time>
      </trkpt>
      <trkpt lat="49.80622" lon="2.37061">
        <ele>55.1</ele>
        <time>2022-07-27T09:06:42Z</time>
      </trkpt>
      <trkpt lat="49.80623" lon="2.37063">
        <ele>55.1</ele>
        <time>2022-07-27T09:06:43Z</time>
      </trkpt>
      <trkpt lat="49.80623" lon="2.37064">
        <ele>55.1</ele>
        <time>2022-07-27T09:06:44Z</time>
      </trkpt>
      <trkpt lat="49.80623" lon="2.37066">
        <ele>55.1</ele>
        <time>2022-07-27T09:06:45Z</time>
      </trkpt>
      <trkpt lat="49.80623" lon="2.37067">
        <ele>55.2</ele>
        <time>2022-07-27T09:06:46Z</time>
      </trkpt>
      <trkpt lat="49.80624" lon="2.37069">
        <ele>55.2</ele>
        <time>2022-07-27T09:06:47Z</time>
      </trkpt>
      <trkpt lat="49.80624" lon="2.37071">
        <ele>55.2</ele>
        <time>2022-07-27T09:06:48Z</time>
      </trkpt>
      <trkpt lat="49.80624" lon="2.37073">
        <ele>55.2</ele>
        <time>2022-07-27T09:06:49Z</time>
      </trkpt>
      <trkpt lat="49.80625" lon="2.37075">
        <ele>55.3</ele>
        <time>2022-07-27T09:06:50Z</time>
      </trkpt>
      <trkpt lat="49.80625" lon="2.37076">
        <ele>55.3</ele>
        <time>2022-07-27T09:06:51Z</time>
      </trkpt>
      <trkpt lat="49.80625" lon="2.37077">
        <ele>55.3</ele>
        <time>2022-07-27T09:06:52Z</time>
      </trkpt>
      <trkpt lat="49.80625" lon="2.37079">
        <ele>55.3</ele>
        <time>2022-07-27T09:06:53Z</time>
      </trkpt>
      <trkpt lat="49.80626" lon="2.3708">
        <ele>55.3</ele>
        <time>2022-07-27T09:06:54Z</time>
      </trkpt>
      <trkpt lat="49.80626" lon="2.37082">
        <ele>55.3</ele>
        <time>2022-07-27T09:06:55Z</time>
      </trkpt>
      <trkpt lat="49.80626" lon="2.37083">
        <ele>55.4</ele>
        <time>2022-07-27T09:06:56Z</time>
      </trkpt>
      <trkpt lat="49.80626" lon="2.37087">
        <ele>55.4</ele>
        <time>2022-07-27T09:06:57Z</time>
      </trkpt>
      <trkpt lat="49.80627" lon="2.37088">
        <ele>55.4</ele>
        <time>2022-07-27T09:06:58Z</time>
      </trkpt>
      <trkpt lat="49.80627" lon="2.37089">
        <ele>55.4</ele>
        <time>2022-07-27T09:06:59Z</time>
      </trkpt>
      <trkpt lat="49.80627" lon="2.37091">
        <ele>55.4</ele>
        <time>2022-07-27T09:07:00Z</time>
      </trkpt>
      <trkpt lat="49.80627" lon="2.37093">
        <ele>55.5</ele>
        <time>2022-07-27T09:07:01Z</time>
      </trkpt>
      <trkpt lat="49.80628" lon="2.37094">
        <ele>55.5</ele>
        <time>2022-07-27T09:07:02Z</time>
      </trkpt>
      <trkpt lat="49.80628" lon="2.37096">
        <ele>55.5</ele>
        <time>2022-07-27T09:07:03Z</time>
      </trkpt>
      <trkpt lat="49.80628" lon="2.37098">
        <ele>55.5</ele>
        <time>2022-07-27T09:07:04Z</time>
      </trkpt>
      <trkpt lat="49.80629" lon="2.37099">
        <ele>55.5</ele>
        <time>2022-07-27T09:07:05Z</time>
      </trkpt>
      <trkpt lat="49.80629" lon="2.37102">
        <ele>55.6</ele>
        <time>2022-07-27T09:07:06Z</time>
      </trkpt>
      <trkpt lat="49.80629" lon="2.37103">
        <ele>55.6</ele>
        <time>2022-07-27T09:07:07Z</time>
      </trkpt>
      <trkpt lat="49.8063" lon="2.37105">
        <ele>55.6</ele>
        <time>2022-07-27T09:07:08Z</time>
      </trkpt>
      <trkpt lat="49.8063" lon="2.37108">
        <ele>55.6</ele>
        <time>2022-07-27T09:07:09Z</time>
      </trkpt>
      <trkpt lat="49.8063" lon="2.37109">
        <ele>55.7</ele>
        <time>2022-07-27T09:07:10Z</time>
      </trkpt>
      <trkpt lat="49.8063" lon="2.37111">
        <ele>55.7</ele>
        <time>2022-07-27T09:07:11Z</time>
      </trkpt>
      <trkpt lat="49.80631" lon="2.37114">
        <ele>55.7</ele>
        <time>2022-07-27T09:07:12Z</time>
      </trkpt>
      <trkpt lat="49.80631" lon="2.37115">
        <ele>55.7</ele>
        <time>2022-07-27T09:07:13Z</time>
      </trkpt>
      <trkpt lat="49.80631" lon="2.37117">
        <ele>55.7</ele>
        <time>2022-07-27T09:07:14Z</time>
      </trkpt>
      <trkpt lat="49.80632" lon="2.37118">
        <ele>55.7</ele>
        <time>2022-07-27T09:07:15Z</time>
      </trkpt>
      <trkpt lat="49.80632" lon="2.37119">
        <ele>55.8</ele>
        <time>2022-07-27T09:07:16Z</time>
      </trkpt>
      <trkpt lat="49.80632" lon="2.37121">
        <ele>55.8</ele>
        <time>2022-07-27T09:07:17Z</time>
      </trkpt>
      <trkpt lat="49.80633" lon="2.37123">
        <ele>55.8</ele>
        <time>2022-07-27T09:07:18Z</time>
      </trkpt>
      <trkpt lat="49.80633" lon="2.37125">
        <ele>55.8</ele>
        <time>2022-07-27T09:07:19Z</time>
      </trkpt>
      <trkpt lat="49.80633" lon="2.37126">
        <ele>55.8</ele>
        <time>2022-07-27T09:07:20Z</time>
      </trkpt>
      <trkpt lat="49.80633" lon="2.37128">
        <ele>55.9</ele>
        <time>2022-07-27T09:07:21Z</time>
      </trkpt>
      <trkpt lat="49.80634" lon="2.3713">
        <ele>55.9</ele>
        <time>2022-07-27T09:07:22Z</time>
      </trkpt>
      <trkpt lat="49.80634" lon="2.37131">
        <ele>55.9</ele>
        <time>2022-07-27T09:07:23Z</time>
      </trkpt>
      <trkpt lat="49.80634" lon="2.37134">
        <ele>55.9</ele>
        <time>2022-07-27T09:07:24Z</time>
      </trkpt>
      <trkpt lat="49.80634" lon="2.37136">
        <ele>55.9</ele>
        <time>2022-07-27T09:07:25Z</time>
      </trkpt>
      <trkpt lat="49.80634" lon="2.37138">
        <ele>56</ele>
        <time>2022-07-27T09:07:26Z</time>
      </trkpt>
      <trkpt lat="49.80635" lon="2.37139">
        <ele>56</ele>
        <time>2022-07-27T09:07:27Z</time>
      </trkpt>
      <trkpt lat="49.80635" lon="2.37141">
        <ele>56</ele>
        <time>2022-07-27T09:07:28Z</time>
      </trkpt>
      <trkpt lat="49.80635" lon="2.37142">
        <ele>56</ele>
        <time>2022-07-27T09:07:29Z</time>
      </trkpt>
      <trkpt lat="49.80635" lon="2.37144">
        <ele>56</ele>
        <time>2022-07-27T09:07:30Z</time>
      </trkpt>
      <trkpt lat="49.80635" lon="2.37146">
        <ele>56.1</ele>
        <time>2022-07-27T09:07:31Z</time>
      </trkpt>
      <trkpt lat="49.80636" lon="2.37149">
        <ele>56.1</ele>
        <time>2022-07-27T09:07:32Z</time>
      </trkpt>
      <trkpt lat="49.80636" lon="2.3715">
        <ele>56.1</ele>
        <time>2022-07-27T09:07:33Z</time>
      </trkpt>
      <trkpt lat="49.80636" lon="2.37151">
        <ele>56.1</ele>
        <time>2022-07-27T09:07:34Z</time>
      </trkpt>
      <trkpt lat="49.80636" lon="2.37154">
        <ele>56.2</ele>
        <time>2022-07-27T09:07:35Z</time>
      </trkpt>
      <trkpt lat="49.80636" lon="2.37156">
        <ele>56.2</ele>
        <time>2022-07-27T09:07:36Z</time>
      </trkpt>
      <trkpt lat="49.80637" lon="2.37157">
        <ele>56.2</ele>
        <time>2022-07-27T09:07:37Z</time>
      </trkpt>
      <trkpt lat="49.80637" lon="2.37159">
        <ele>56.2</ele>
        <time>2022-07-27T09:07:38Z</time>
      </trkpt>
      <trkpt lat="49.80637" lon="2.37161">
        <ele>56.2</ele>
        <time>2022-07-27T09:07:39Z</time>
      </trkpt>
      <trkpt lat="49.80637" lon="2.37162">
        <ele>56.2</ele>
        <time>2022-07-27T09:07:40Z</time>
      </trkpt>
      <trkpt lat="49.80637" lon="2.37164">
        <ele>56.3</ele>
        <time>2022-07-27T09:07:41Z</time>
      </trkpt>
      <trkpt lat="49.80637" lon="2.37166">
        <ele>56.3</ele>
        <time>2022-07-27T09:07:42Z</time>
      </trkpt>
      <trkpt lat="49.80637" lon="2.37167">
        <ele>56.3</ele>
        <time>2022-07-27T09:07:43Z</time>
      </trkpt>
      <trkpt lat="49.80637" lon="2.3717">
        <ele>56.3</ele>
        <time>2022-07-27T09:07:44Z</time>
      </trkpt>
      <trkpt lat="49.80637" lon="2.37171">
        <ele>56.3</ele>
        <time>2022-07-27T09:07:45Z</time>
      </trkpt>
      <trkpt lat="49.80637" lon="2.37173">
        <ele>56.4</ele>
        <time>2022-07-27T09:07:46Z</time>
      </trkpt>
      <trkpt lat="49.80637" lon="2.37176">
        <ele>56.4</ele>
        <time>2022-07-27T09:07:47Z</time>
      </trkpt>
      <trkpt lat="49.80637" lon="2.37177">
        <ele>56.4</ele>
        <time>2022-07-27T09:07:48Z</time>
      </trkpt>
      <trkpt lat="49.80637" lon="2.37179">
        <ele>56.4</ele>
        <time>2022-07-27T09:07:49Z</time>
      </trkpt>
      <trkpt lat="49.80638" lon="2.37181">
        <ele>56.5</ele>
        <time>2022-07-27T09:07:50Z</time>
      </trkpt>
      <trkpt lat="49.80638" lon="2.37182">
        <ele>56.5</ele>
        <time>2022-07-27T09:07:51Z</time>
      </trkpt>
      <trkpt lat="49.80638" lon="2.37183">
        <ele>56.5</ele>
        <time>2022-07-27T09:07:52Z</time>
      </trkpt>
      <trkpt lat="49.80638" lon="2.37184">
        <ele>56.5</ele>
        <time>2022-07-27T09:07:53Z</time>
      </trkpt>
      <trkpt lat="49.80638" lon="2.37186">
        <ele>56.5</ele>
        <time>2022-07-27T09:07:54Z</time>
      </trkpt>
      <trkpt lat="49.80638" lon="2.37188">
        <ele>56.5</ele>
        <time>2022-07-27T09:07:55Z</time>
      </trkpt>
      <trkpt lat="49.80639" lon="2.37189">
        <ele>56.6</ele>
        <time>2022-07-27T09:07:56Z</time>
      </trkpt>
      <trkpt lat="49.80639" lon="2.37192">
        <ele>56.6</ele>
        <time>2022-07-27T09:07:57Z</time>
      </trkpt>
      <trkpt lat="49.80639" lon="2.37194">
        <ele>56.6</ele>
        <time>2022-07-27T09:07:58Z</time>
      </trkpt>
      <trkpt lat="49.80639" lon="2.37195">
        <ele>56.6</ele>
        <time>2022-07-27T09:07:59Z</time>
      </trkpt>
      <trkpt lat="49.8064" lon="2.37198">
        <ele>56.7</ele>
        <time>2022-07-27T09:08:00Z</time>
      </trkpt>
      <trkpt lat="49.8064" lon="2.37199">
        <ele>56.7</ele>
        <time>2022-07-27T09:08:01Z</time>
      </trkpt>
      <trkpt lat="49.8064" lon="2.37201">
        <ele>56.7</ele>
        <time>2022-07-27T09:08:02Z</time>
      </trkpt>
      <trkpt lat="49.8064" lon="2.37203">
        <ele>56.8</ele>
        <time>2022-07-27T09:08:03Z</time>
      </trkpt>
      <trkpt lat="49.8064" lon="2.37205">
        <ele>56.8</ele>
        <time>2022-07-27T09:08:04Z</time>
      </trkpt>
      <trkpt lat="49.8064" lon="2.37206">
        <ele>56.8</ele>
        <time>2022-07-27T09:08:05Z</time>
      </trkpt>
      <trkpt lat="49.80641" lon="2.37207">
        <ele>56.8</ele>
        <time>2022-07-27T09:08:06Z</time>
      </trkpt>
      <trkpt lat="49.80641" lon="2.37209">
        <ele>56.9</ele>
        <time>2022-07-27T09:08:07Z</time>
      </trkpt>
      <trkpt lat="49.80641" lon="2.3721">
        <ele>56.9</ele>
        <time>2022-07-27T09:08:08Z</time>
      </trkpt>
      <trkpt lat="49.80642" lon="2.37212">
        <ele>56.9</ele>
        <time>2022-07-27T09:08:09Z</time>
      </trkpt>
      <trkpt lat="49.80642" lon="2.37214">
        <ele>56.9</ele>
        <time>2022-07-27T09:08:10Z</time>
      </trkpt>
      <trkpt lat="49.80642" lon="2.37215">
        <ele>57</ele>
        <time>2022-07-27T09:08:11Z</time>
      </trkpt>
      <trkpt lat="49.80643" lon="2.37219">
        <ele>57</ele>
        <time>2022-07-27T09:08:12Z</time>
      </trkpt>
      <trkpt lat="49.80643" lon="2.3722">
        <ele>57</ele>
        <time>2022-07-27T09:08:13Z</time>
      </trkpt>
      <trkpt lat="49.80643" lon="2.37222">
        <ele>57.1</ele>
        <time>2022-07-27T09:08:14Z</time>
      </trkpt>
      <trkpt lat="49.80644" lon="2.37223">
        <ele>57.1</ele>
        <time>2022-07-27T09:08:15Z</time>
      </trkpt>
      <trkpt lat="49.80644" lon="2.37225">
        <ele>57.1</ele>
        <time>2022-07-27T09:08:16Z</time>
      </trkpt>
      <trkpt lat="49.80644" lon="2.37226">
        <ele>57.1</ele>
        <time>2022-07-27T09:08:17Z</time>
      </trkpt>
      <trkpt lat="49.80644" lon="2.37228">
        <ele>57.1</ele>
        <time>2022-07-27T09:08:18Z</time>
      </trkpt>
      <trkpt lat="49.80644" lon="2.3723">
        <ele>57.2</ele>
        <time>2022-07-27T09:08:19Z</time>
      </trkpt>
      <trkpt lat="49.80645" lon="2.37232">
        <ele>57.2</ele>
        <time>2022-07-27T09:08:20Z</time>
      </trkpt>
      <trkpt lat="49.80645" lon="2.37235">
        <ele>57.2</ele>
        <time>2022-07-27T09:08:21Z</time>
      </trkpt>
      <trkpt lat="49.80645" lon="2.37236">
        <ele>57.2</ele>
        <time>2022-07-27T09:08:22Z</time>
      </trkpt>
      <trkpt lat="49.80645" lon="2.37237">
        <ele>57.2</ele>
        <time>2022-07-27T09:08:23Z</time>
      </trkpt>
      <trkpt lat="49.80646" lon="2.37241">
        <ele>57.3</ele>
        <time>2022-07-27T09:08:24Z</time>
      </trkpt>
      <trkpt lat="49.80646" lon="2.37242">
        <ele>57.3</ele>
        <time>2022-07-27T09:08:25Z</time>
      </trkpt>
      <trkpt lat="49.80646" lon="2.37243">
        <ele>57.3</ele>
        <time>2022-07-27T09:08:26Z</time>
      </trkpt>
      <trkpt lat="49.80646" lon="2.37245">
        <ele>57.3</ele>
        <time>2022-07-27T09:08:27Z</time>
      </trkpt>
      <trkpt lat="49.80646" lon="2.37247">
        <ele>57.3</ele>
        <time>2022-07-27T09:08:28Z</time>
      </trkpt>
      <trkpt lat="49.80647" lon="2.37249">
        <ele>57.3</ele>
        <time>2022-07-27T09:08:29Z</time>
      </trkpt>
      <trkpt lat="49.80647" lon="2.37251">
        <ele>57.3</ele>
        <time>2022-07-27T09:08:30Z</time>
      </trkpt>
      <trkpt lat="49.80647" lon="2.37252">
        <ele>57.3</ele>
        <time>2022-07-27T09:08:31Z</time>
      </trkpt>
      <trkpt lat="49.80648" lon="2.37254">
        <ele>57.3</ele>
        <time>2022-07-27T09:08:32Z</time>
      </trkpt>
      <trkpt lat="49.80648" lon="2.37255">
        <ele>57.3</ele>
        <time>2022-07-27T09:08:33Z</time>
      </trkpt>
      <trkpt lat="49.80648" lon="2.37257">
        <ele>57.3</ele>
        <time>2022-07-27T09:08:34Z</time>
      </trkpt>
      <trkpt lat="49.80648" lon="2.37259">
        <ele>57.3</ele>
        <time>2022-07-27T09:08:35Z</time>
      </trkpt>
      <trkpt lat="49.80649" lon="2.37261">
        <ele>57.3</ele>
        <time>2022-07-27T09:08:36Z</time>
      </trkpt>
      <trkpt lat="49.80649" lon="2.37262">
        <ele>57.3</ele>
        <time>2022-07-27T09:08:37Z</time>
      </trkpt>
      <trkpt lat="49.80649" lon="2.37264">
        <ele>57.3</ele>
        <time>2022-07-27T09:08:38Z</time>
      </trkpt>
      <trkpt lat="49.8065" lon="2.37267">
        <ele>57.3</ele>
        <time>2022-07-27T09:08:39Z</time>
      </trkpt>
      <trkpt lat="49.8065" lon="2.37268">
        <ele>57.3</ele>
        <time>2022-07-27T09:08:40Z</time>
      </trkpt>
      <trkpt lat="49.80651" lon="2.3727">
        <ele>57.3</ele>
        <time>2022-07-27T09:08:41Z</time>
      </trkpt>
      <trkpt lat="49.80651" lon="2.37272">
        <ele>57.3</ele>
        <time>2022-07-27T09:08:42Z</time>
      </trkpt>
      <trkpt lat="49.80652" lon="2.37274">
        <ele>57.3</ele>
        <time>2022-07-27T09:08:43Z</time>
      </trkpt>
      <trkpt lat="49.80652" lon="2.37276">
        <ele>57.3</ele>
        <time>2022-07-27T09:08:44Z</time>
      </trkpt>
      <trkpt lat="49.80652" lon="2.37277">
        <ele>57.3</ele>
        <time>2022-07-27T09:08:45Z</time>
      </trkpt>
      <trkpt lat="49.80653" lon="2.37279">
        <ele>57.3</ele>
        <time>2022-07-27T09:08:46Z</time>
      </trkpt>
      <trkpt lat="49.80653" lon="2.3728">
        <ele>57.3</ele>
        <time>2022-07-27T09:08:47Z</time>
      </trkpt>
      <trkpt lat="49.80653" lon="2.37282">
        <ele>57.3</ele>
        <time>2022-07-27T09:08:48Z</time>
      </trkpt>
      <trkpt lat="49.80654" lon="2.37284">
        <ele>57.3</ele>
        <time>2022-07-27T09:08:49Z</time>
      </trkpt>
      <trkpt lat="49.80654" lon="2.37286">
        <ele>57.3</ele>
        <time>2022-07-27T09:08:50Z</time>
      </trkpt>
      <trkpt lat="49.80655" lon="2.37289">
        <ele>57.3</ele>
        <time>2022-07-27T09:08:51Z</time>
      </trkpt>
      <trkpt lat="49.80655" lon="2.3729">
        <ele>57.3</ele>
        <time>2022-07-27T09:08:52Z</time>
      </trkpt>
      <trkpt lat="49.80655" lon="2.37291">
        <ele>57.3</ele>
        <time>2022-07-27T09:08:53Z</time>
      </trkpt>
      <trkpt lat="49.80656" lon="2.37295">
        <ele>57.3</ele>
        <time>2022-07-27T09:08:54Z</time>
      </trkpt>
      <trkpt lat="49.80656" lon="2.37296">
        <ele>57.3</ele>
        <time>2022-07-27T09:08:55Z</time>
      </trkpt>
      <trkpt lat="49.80656" lon="2.37297">
        <ele>57.3</ele>
        <time>2022-07-27T09:08:56Z</time>
      </trkpt>
      <trkpt lat="49.80657" lon="2.373">
        <ele>57.2</ele>
        <time>2022-07-27T09:08:57Z</time>
      </trkpt>
      <trkpt lat="49.80657" lon="2.37302">
        <ele>57.2</ele>
        <time>2022-07-27T09:08:58Z</time>
      </trkpt>
      <trkpt lat="49.80657" lon="2.37303">
        <ele>57.2</ele>
        <time>2022-07-27T09:08:59Z</time>
      </trkpt>
      <trkpt lat="49.80657" lon="2.37304">
        <ele>57.2</ele>
        <time>2022-07-27T09:09:00Z</time>
      </trkpt>
      <trkpt lat="49.80657" lon="2.37305">
        <ele>57.2</ele>
        <time>2022-07-27T09:09:01Z</time>
      </trkpt>
      <trkpt lat="49.80658" lon="2.37307">
        <ele>57.2</ele>
        <time>2022-07-27T09:09:02Z</time>
      </trkpt>
      <trkpt lat="49.80658" lon="2.37309">
        <ele>57.2</ele>
        <time>2022-07-27T09:09:03Z</time>
      </trkpt>
      <trkpt lat="49.80659" lon="2.37312">
        <ele>57.2</ele>
        <time>2022-07-27T09:09:04Z</time>
      </trkpt>
      <trkpt lat="49.80659" lon="2.37313">
        <ele>57.2</ele>
        <time>2022-07-27T09:09:05Z</time>
      </trkpt>
      <trkpt lat="49.80659" lon="2.37315">
        <ele>57.2</ele>
        <time>2022-07-27T09:09:06Z</time>
      </trkpt>
      <trkpt lat="49.80659" lon="2.37317">
        <ele>57.1</ele>
        <time>2022-07-27T09:09:07Z</time>
      </trkpt>
      <trkpt lat="49.8066" lon="2.37319">
        <ele>57.1</ele>
        <time>2022-07-27T09:09:08Z</time>
      </trkpt>
      <trkpt lat="49.8066" lon="2.37322">
        <ele>57.1</ele>
        <time>2022-07-27T09:09:09Z</time>
      </trkpt>
      <trkpt lat="49.80661" lon="2.37323">
        <ele>57.1</ele>
        <time>2022-07-27T09:09:10Z</time>
      </trkpt>
      <trkpt lat="49.80661" lon="2.37325">
        <ele>57.1</ele>
        <time>2022-07-27T09:09:11Z</time>
      </trkpt>
      <trkpt lat="49.80661" lon="2.37327">
        <ele>57.1</ele>
        <time>2022-07-27T09:09:12Z</time>
      </trkpt>
      <trkpt lat="49.80662" lon="2.37328">
        <ele>57.1</ele>
        <time>2022-07-27T09:09:13Z</time>
      </trkpt>
      <trkpt lat="49.80663" lon="2.3733">
        <ele>57.1</ele>
        <time>2022-07-27T09:09:14Z</time>
      </trkpt>
      <trkpt lat="49.80663" lon="2.37331">
        <ele>57</ele>
        <time>2022-07-27T09:09:15Z</time>
      </trkpt>
      <trkpt lat="49.80663" lon="2.37332">
        <ele>57</ele>
        <time>2022-07-27T09:09:16Z</time>
      </trkpt>
      <trkpt lat="49.80664" lon="2.37334">
        <ele>57</ele>
        <time>2022-07-27T09:09:17Z</time>
      </trkpt>
      <trkpt lat="49.80664" lon="2.37335">
        <ele>57</ele>
        <time>2022-07-27T09:09:18Z</time>
      </trkpt>
      <trkpt lat="49.80665" lon="2.37339">
        <ele>57</ele>
        <time>2022-07-27T09:09:19Z</time>
      </trkpt>
      <trkpt lat="49.80665" lon="2.37339">
        <ele>57</ele>
        <time>2022-07-27T09:09:20Z</time>
      </trkpt>
      <trkpt lat="49.80665" lon="2.3734">
        <ele>57</ele>
        <time>2022-07-27T09:09:21Z</time>
      </trkpt>
      <trkpt lat="49.80666" lon="2.37343">
        <ele>57</ele>
        <time>2022-07-27T09:09:22Z</time>
      </trkpt>
      <trkpt lat="49.80667" lon="2.37345">
        <ele>57</ele>
        <time>2022-07-27T09:09:23Z</time>
      </trkpt>
      <trkpt lat="49.80667" lon="2.37346">
        <ele>56.9</ele>
        <time>2022-07-27T09:09:24Z</time>
      </trkpt>
      <trkpt lat="49.80667" lon="2.37347">
        <ele>56.9</ele>
        <time>2022-07-27T09:09:25Z</time>
      </trkpt>
      <trkpt lat="49.80668" lon="2.37349">
        <ele>56.9</ele>
        <time>2022-07-27T09:09:26Z</time>
      </trkpt>
      <trkpt lat="49.80668" lon="2.3735">
        <ele>56.9</ele>
        <time>2022-07-27T09:09:27Z</time>
      </trkpt>
      <trkpt lat="49.80669" lon="2.37352">
        <ele>56.9</ele>
        <time>2022-07-27T09:09:28Z</time>
      </trkpt>
      <trkpt lat="49.8067" lon="2.37355">
        <ele>56.9</ele>
        <time>2022-07-27T09:09:29Z</time>
      </trkpt>
      <trkpt lat="49.8067" lon="2.37356">
        <ele>56.9</ele>
        <time>2022-07-27T09:09:30Z</time>
      </trkpt>
      <trkpt lat="49.80671" lon="2.37357">
        <ele>56.9</ele>
        <time>2022-07-27T09:09:31Z</time>
      </trkpt>
      <trkpt lat="49.80671" lon="2.37359">
        <ele>56.8</ele>
        <time>2022-07-27T09:09:32Z</time>
      </trkpt>
      <trkpt lat="49.80672" lon="2.37361">
        <ele>56.8</ele>
        <time>2022-07-27T09:09:33Z</time>
      </trkpt>
      <trkpt lat="49.80672" lon="2.37363">
        <ele>56.8</ele>
        <time>2022-07-27T09:09:34Z</time>
      </trkpt>
      <trkpt lat="49.80672" lon="2.37363">
        <ele>56.8</ele>
        <time>2022-07-27T09:09:35Z</time>
      </trkpt>
      <trkpt lat="49.80673" lon="2.37365">
        <ele>56.8</ele>
        <time>2022-07-27T09:09:36Z</time>
      </trkpt>
      <trkpt lat="49.80673" lon="2.37366">
        <ele>56.8</ele>
        <time>2022-07-27T09:09:37Z</time>
      </trkpt>
      <trkpt lat="49.80674" lon="2.37368">
        <ele>56.8</ele>
        <time>2022-07-27T09:09:38Z</time>
      </trkpt>
      <trkpt lat="49.80675" lon="2.3737">
        <ele>56.8</ele>
        <time>2022-07-27T09:09:39Z</time>
      </trkpt>
      <trkpt lat="49.80675" lon="2.37372">
        <ele>56.8</ele>
        <time>2022-07-27T09:09:40Z</time>
      </trkpt>
      <trkpt lat="49.80676" lon="2.37374">
        <ele>56.7</ele>
        <time>2022-07-27T09:09:41Z</time>
      </trkpt>
      <trkpt lat="49.80677" lon="2.37375">
        <ele>56.7</ele>
        <time>2022-07-27T09:09:42Z</time>
      </trkpt>
      <trkpt lat="49.80677" lon="2.37377">
        <ele>56.7</ele>
        <time>2022-07-27T09:09:43Z</time>
      </trkpt>
      <trkpt lat="49.80678" lon="2.37379">
        <ele>56.7</ele>
        <time>2022-07-27T09:09:44Z</time>
      </trkpt>
      <trkpt lat="49.80679" lon="2.37382">
        <ele>56.7</ele>
        <time>2022-07-27T09:09:45Z</time>
      </trkpt>
      <trkpt lat="49.80679" lon="2.37383">
        <ele>56.7</ele>
        <time>2022-07-27T09:09:46Z</time>
      </trkpt>
      <trkpt lat="49.8068" lon="2.37386">
        <ele>56.7</ele>
        <time>2022-07-27T09:09:47Z</time>
      </trkpt>
      <trkpt lat="49.8068" lon="2.37388">
        <ele>56.7</ele>
        <time>2022-07-27T09:09:48Z</time>
      </trkpt>
      <trkpt lat="49.8068" lon="2.37389">
        <ele>56.7</ele>
        <time>2022-07-27T09:09:49Z</time>
      </trkpt>
      <trkpt lat="49.80681" lon="2.37392">
        <ele>56.6</ele>
        <time>2022-07-27T09:09:50Z</time>
      </trkpt>
      <trkpt lat="49.80681" lon="2.37393">
        <ele>56.6</ele>
        <time>2022-07-27T09:09:51Z</time>
      </trkpt>
      <trkpt lat="49.80681" lon="2.37395">
        <ele>56.6</ele>
        <time>2022-07-27T09:09:52Z</time>
      </trkpt>
      <trkpt lat="49.80682" lon="2.37398">
        <ele>56.6</ele>
        <time>2022-07-27T09:09:53Z</time>
      </trkpt>
      <trkpt lat="49.80683" lon="2.37399">
        <ele>56.6</ele>
        <time>2022-07-27T09:09:54Z</time>
      </trkpt>
      <trkpt lat="49.80683" lon="2.37401">
        <ele>56.6</ele>
        <time>2022-07-27T09:09:55Z</time>
      </trkpt>
      <trkpt lat="49.80683" lon="2.37402">
        <ele>56.6</ele>
        <time>2022-07-27T09:09:56Z</time>
      </trkpt>
      <trkpt lat="49.80684" lon="2.37404">
        <ele>56.5</ele>
        <time>2022-07-27T09:09:57Z</time>
      </trkpt>
      <trkpt lat="49.80684" lon="2.37406">
        <ele>56.5</ele>
        <time>2022-07-27T09:09:58Z</time>
      </trkpt>
      <trkpt lat="49.80685" lon="2.37408">
        <ele>56.5</ele>
        <time>2022-07-27T09:09:59Z</time>
      </trkpt>
      <trkpt lat="49.80685" lon="2.3741">
        <ele>56.5</ele>
        <time>2022-07-27T09:10:00Z</time>
      </trkpt>
      <trkpt lat="49.80685" lon="2.37411">
        <ele>56.5</ele>
        <time>2022-07-27T09:10:01Z</time>
      </trkpt>
      <trkpt lat="49.80686" lon="2.37413">
        <ele>56.5</ele>
        <time>2022-07-27T09:10:02Z</time>
      </trkpt>
      <trkpt lat="49.80686" lon="2.37414">
        <ele>56.5</ele>
        <time>2022-07-27T09:10:03Z</time>
      </trkpt>
      <trkpt lat="49.80687" lon="2.37415">
        <ele>56.5</ele>
        <time>2022-07-27T09:10:04Z</time>
      </trkpt>
      <trkpt lat="49.80687" lon="2.37417">
        <ele>56.4</ele>
        <time>2022-07-27T09:10:05Z</time>
      </trkpt>
      <trkpt lat="49.80687" lon="2.37418">
        <ele>56.4</ele>
        <time>2022-07-27T09:10:06Z</time>
      </trkpt>
      <trkpt lat="49.80688" lon="2.3742">
        <ele>56.4</ele>
        <time>2022-07-27T09:10:07Z</time>
      </trkpt>
      <trkpt lat="49.80688" lon="2.37423">
        <ele>56.4</ele>
        <time>2022-07-27T09:10:08Z</time>
      </trkpt>
      <trkpt lat="49.80689" lon="2.37424">
        <ele>56.4</ele>
        <time>2022-07-27T09:10:09Z</time>
      </trkpt>
      <trkpt lat="49.80689" lon="2.37426">
        <ele>56.4</ele>
        <time>2022-07-27T09:10:10Z</time>
      </trkpt>
      <trkpt lat="49.8069" lon="2.37429">
        <ele>56.4</ele>
        <time>2022-07-27T09:10:11Z</time>
      </trkpt>
      <trkpt lat="49.8069" lon="2.3743">
        <ele>56.3</ele>
        <time>2022-07-27T09:10:12Z</time>
      </trkpt>
      <trkpt lat="49.8069" lon="2.37432">
        <ele>56.3</ele>
        <time>2022-07-27T09:10:13Z</time>
      </trkpt>
      <trkpt lat="49.80691" lon="2.37434">
        <ele>56.3</ele>
        <time>2022-07-27T09:10:14Z</time>
      </trkpt>
      <trkpt lat="49.80691" lon="2.37436">
        <ele>56.3</ele>
        <time>2022-07-27T09:10:15Z</time>
      </trkpt>
      <trkpt lat="49.80691" lon="2.37438">
        <ele>56.3</ele>
        <time>2022-07-27T09:10:16Z</time>
      </trkpt>
      <trkpt lat="49.80692" lon="2.37439">
        <ele>56.3</ele>
        <time>2022-07-27T09:10:17Z</time>
      </trkpt>
      <trkpt lat="49.80692" lon="2.37441">
        <ele>56.3</ele>
        <time>2022-07-27T09:10:18Z</time>
      </trkpt>
      <trkpt lat="49.80692" lon="2.37443">
        <ele>56.2</ele>
        <time>2022-07-27T09:10:19Z</time>
      </trkpt>
      <trkpt lat="49.80692" lon="2.37446">
        <ele>56.2</ele>
        <time>2022-07-27T09:10:20Z</time>
      </trkpt>
      <trkpt lat="49.80693" lon="2.37448">
        <ele>56.2</ele>
        <time>2022-07-27T09:10:21Z</time>
      </trkpt>
      <trkpt lat="49.80692" lon="2.37449">
        <ele>56.2</ele>
        <time>2022-07-27T09:10:22Z</time>
      </trkpt>
      <trkpt lat="49.80693" lon="2.3745">
        <ele>56.2</ele>
        <time>2022-07-27T09:10:23Z</time>
      </trkpt>
      <trkpt lat="49.80693" lon="2.37452">
        <ele>56.2</ele>
        <time>2022-07-27T09:10:24Z</time>
      </trkpt>
      <trkpt lat="49.80694" lon="2.37454">
        <ele>56.2</ele>
        <time>2022-07-27T09:10:25Z</time>
      </trkpt>
      <trkpt lat="49.80694" lon="2.37455">
        <ele>56.2</ele>
        <time>2022-07-27T09:10:26Z</time>
      </trkpt>
      <trkpt lat="49.80695" lon="2.37457">
        <ele>56.2</ele>
        <time>2022-07-27T09:10:27Z</time>
      </trkpt>
      <trkpt lat="49.80695" lon="2.37459">
        <ele>56.2</ele>
        <time>2022-07-27T09:10:28Z</time>
      </trkpt>
      <trkpt lat="49.80696" lon="2.3746">
        <ele>56.1</ele>
        <time>2022-07-27T09:10:29Z</time>
      </trkpt>
      <trkpt lat="49.80696" lon="2.37463">
        <ele>56.1</ele>
        <time>2022-07-27T09:10:30Z</time>
      </trkpt>
      <trkpt lat="49.80697" lon="2.37464">
        <ele>56.1</ele>
        <time>2022-07-27T09:10:31Z</time>
      </trkpt>
      <trkpt lat="49.80697" lon="2.37466">
        <ele>56.1</ele>
        <time>2022-07-27T09:10:32Z</time>
      </trkpt>
      <trkpt lat="49.80698" lon="2.37468">
        <ele>56.1</ele>
        <time>2022-07-27T09:10:33Z</time>
      </trkpt>
      <trkpt lat="49.80698" lon="2.37469">
        <ele>56.1</ele>
        <time>2022-07-27T09:10:34Z</time>
      </trkpt>
      <trkpt lat="49.80699" lon="2.37471">
        <ele>56.1</ele>
        <time>2022-07-27T09:10:35Z</time>
      </trkpt>
      <trkpt lat="49.80699" lon="2.37473">
        <ele>56.1</ele>
        <time>2022-07-27T09:10:36Z</time>
      </trkpt>
      <trkpt lat="49.807" lon="2.37474">
        <ele>56.1</ele>
        <time>2022-07-27T09:10:37Z</time>
      </trkpt>
      <trkpt lat="49.807" lon="2.37478">
        <ele>56</ele>
        <time>2022-07-27T09:10:38Z</time>
      </trkpt>
      <trkpt lat="49.80701" lon="2.37479">
        <ele>56</ele>
        <time>2022-07-27T09:10:39Z</time>
      </trkpt>
      <trkpt lat="49.80701" lon="2.3748">
        <ele>56</ele>
        <time>2022-07-27T09:10:40Z</time>
      </trkpt>
      <trkpt lat="49.80701" lon="2.37482">
        <ele>56</ele>
        <time>2022-07-27T09:10:41Z</time>
      </trkpt>
      <trkpt lat="49.80702" lon="2.37484">
        <ele>56</ele>
        <time>2022-07-27T09:10:42Z</time>
      </trkpt>
      <trkpt lat="49.80702" lon="2.37485">
        <ele>56</ele>
        <time>2022-07-27T09:10:43Z</time>
      </trkpt>
      <trkpt lat="49.80702" lon="2.37487">
        <ele>56</ele>
        <time>2022-07-27T09:10:44Z</time>
      </trkpt>
      <trkpt lat="49.80703" lon="2.37489">
        <ele>56</ele>
        <time>2022-07-27T09:10:45Z</time>
      </trkpt>
      <trkpt lat="49.80703" lon="2.37491">
        <ele>56</ele>
        <time>2022-07-27T09:10:46Z</time>
      </trkpt>
      <trkpt lat="49.80703" lon="2.37493">
        <ele>56</ele>
        <time>2022-07-27T09:10:47Z</time>
      </trkpt>
      <trkpt lat="49.80704" lon="2.37494">
        <ele>56</ele>
        <time>2022-07-27T09:10:48Z</time>
      </trkpt>
      <trkpt lat="49.80704" lon="2.37496">
        <ele>56</ele>
        <time>2022-07-27T09:10:49Z</time>
      </trkpt>
      <trkpt lat="49.80705" lon="2.37498">
        <ele>56</ele>
        <time>2022-07-27T09:10:50Z</time>
      </trkpt>
      <trkpt lat="49.80705" lon="2.375">
        <ele>56</ele>
        <time>2022-07-27T09:10:51Z</time>
      </trkpt>
      <trkpt lat="49.80705" lon="2.37501">
        <ele>56</ele>
        <time>2022-07-27T09:10:52Z</time>
      </trkpt>
      <trkpt lat="49.80704" lon="2.37502">
        <ele>56</ele>
        <time>2022-07-27T09:10:53Z</time>
      </trkpt>
      <trkpt lat="49.80704" lon="2.37504">
        <ele>56</ele>
        <time>2022-07-27T09:10:54Z</time>
      </trkpt>
      <trkpt lat="49.80704" lon="2.37507">
        <ele>56</ele>
        <time>2022-07-27T09:10:55Z</time>
      </trkpt>
      <trkpt lat="49.80705" lon="2.37508">
        <ele>56</ele>
        <time>2022-07-27T09:10:56Z</time>
      </trkpt>
      <trkpt lat="49.80705" lon="2.37509">
        <ele>56</ele>
        <time>2022-07-27T09:10:57Z</time>
      </trkpt>
      <trkpt lat="49.80705" lon="2.3751">
        <ele>56</ele>
        <time>2022-07-27T09:10:58Z</time>
      </trkpt>
      <trkpt lat="49.80705" lon="2.37511">
        <ele>56</ele>
        <time>2022-07-27T09:10:59Z</time>
      </trkpt>
      <trkpt lat="49.80706" lon="2.37513">
        <ele>56</ele>
        <time>2022-07-27T09:11:00Z</time>
      </trkpt>
      <trkpt lat="49.80706" lon="2.37514">
        <ele>56</ele>
        <time>2022-07-27T09:11:01Z</time>
      </trkpt>
      <trkpt lat="49.80706" lon="2.37515">
        <ele>56</ele>
        <time>2022-07-27T09:11:02Z</time>
      </trkpt>
      <trkpt lat="49.80706" lon="2.37516">
        <ele>56</ele>
        <time>2022-07-27T09:11:03Z</time>
      </trkpt>
      <trkpt lat="49.80707" lon="2.37517">
        <ele>56</ele>
        <time>2022-07-27T09:11:04Z</time>
      </trkpt>
      <trkpt lat="49.80707" lon="2.37519">
        <ele>56</ele>
        <time>2022-07-27T09:11:05Z</time>
      </trkpt>
      <trkpt lat="49.80707" lon="2.3752">
        <ele>56</ele>
        <time>2022-07-27T09:11:06Z</time>
      </trkpt>
      <trkpt lat="49.80707" lon="2.37521">
        <ele>56</ele>
        <time>2022-07-27T09:11:07Z</time>
      </trkpt>
      <trkpt lat="49.80708" lon="2.37523">
        <ele>56</ele>
        <time>2022-07-27T09:11:08Z</time>
      </trkpt>
      <trkpt lat="49.80708" lon="2.37524">
        <ele>56</ele>
        <time>2022-07-27T09:11:09Z</time>
      </trkpt>
      <trkpt lat="49.80708" lon="2.37526">
        <ele>56</ele>
        <time>2022-07-27T09:11:10Z</time>
      </trkpt>
      <trkpt lat="49.80709" lon="2.37528">
        <ele>56</ele>
        <time>2022-07-27T09:11:11Z</time>
      </trkpt>
      <trkpt lat="49.80709" lon="2.37529">
        <ele>56</ele>
        <time>2022-07-27T09:11:12Z</time>
      </trkpt>
      <trkpt lat="49.8071" lon="2.37531">
        <ele>56</ele>
        <time>2022-07-27T09:11:13Z</time>
      </trkpt>
      <trkpt lat="49.8071" lon="2.37532">
        <ele>56</ele>
        <time>2022-07-27T09:11:14Z</time>
      </trkpt>
      <trkpt lat="49.8071" lon="2.37533">
        <ele>56</ele>
        <time>2022-07-27T09:11:15Z</time>
      </trkpt>
      <trkpt lat="49.8071" lon="2.37534">
        <ele>56</ele>
        <time>2022-07-27T09:11:16Z</time>
      </trkpt>
      <trkpt lat="49.80711" lon="2.37536">
        <ele>56</ele>
        <time>2022-07-27T09:11:17Z</time>
      </trkpt>
      <trkpt lat="49.80711" lon="2.37537">
        <ele>56</ele>
        <time>2022-07-27T09:11:18Z</time>
      </trkpt>
      <trkpt lat="49.80711" lon="2.37539">
        <ele>56</ele>
        <time>2022-07-27T09:11:19Z</time>
      </trkpt>
      <trkpt lat="49.80712" lon="2.37541">
        <ele>56</ele>
        <time>2022-07-27T09:11:20Z</time>
      </trkpt>
      <trkpt lat="49.80712" lon="2.37542">
        <ele>56</ele>
        <time>2022-07-27T09:11:21Z</time>
      </trkpt>
      <trkpt lat="49.80712" lon="2.37544">
        <ele>56.1</ele>
        <time>2022-07-27T09:11:22Z</time>
      </trkpt>
      <trkpt lat="49.80712" lon="2.37546">
        <ele>56.1</ele>
        <time>2022-07-27T09:11:23Z</time>
      </trkpt>
      <trkpt lat="49.80713" lon="2.37547">
        <ele>56.1</ele>
        <time>2022-07-27T09:11:24Z</time>
      </trkpt>
      <trkpt lat="49.80713" lon="2.37549">
        <ele>56.1</ele>
        <time>2022-07-27T09:11:25Z</time>
      </trkpt>
      <trkpt lat="49.80713" lon="2.3755">
        <ele>56.1</ele>
        <time>2022-07-27T09:11:26Z</time>
      </trkpt>
      <trkpt lat="49.80713" lon="2.37551">
        <ele>56.1</ele>
        <time>2022-07-27T09:11:27Z</time>
      </trkpt>
      <trkpt lat="49.80713" lon="2.37553">
        <ele>56.1</ele>
        <time>2022-07-27T09:11:28Z</time>
      </trkpt>
      <trkpt lat="49.80713" lon="2.37554">
        <ele>56.1</ele>
        <time>2022-07-27T09:11:29Z</time>
      </trkpt>
      <trkpt lat="49.80714" lon="2.37558">
        <ele>56.1</ele>
        <time>2022-07-27T09:11:30Z</time>
      </trkpt>
      <trkpt lat="49.80714" lon="2.37559">
        <ele>56.1</ele>
        <time>2022-07-27T09:11:31Z</time>
      </trkpt>
      <trkpt lat="49.80714" lon="2.3756">
        <ele>56.1</ele>
        <time>2022-07-27T09:11:32Z</time>
      </trkpt>
      <trkpt lat="49.80714" lon="2.37563">
        <ele>56.1</ele>
        <time>2022-07-27T09:11:33Z</time>
      </trkpt>
      <trkpt lat="49.80715" lon="2.37565">
        <ele>56.1</ele>
        <time>2022-07-27T09:11:34Z</time>
      </trkpt>
      <trkpt lat="49.80715" lon="2.37566">
        <ele>56.1</ele>
        <time>2022-07-27T09:11:35Z</time>
      </trkpt>
      <trkpt lat="49.80715" lon="2.37567">
        <ele>56.1</ele>
        <time>2022-07-27T09:11:36Z</time>
      </trkpt>
      <trkpt lat="49.80715" lon="2.37569">
        <ele>56.1</ele>
        <time>2022-07-27T09:11:37Z</time>
      </trkpt>
      <trkpt lat="49.80715" lon="2.37571">
        <ele>56.1</ele>
        <time>2022-07-27T09:11:38Z</time>
      </trkpt>
      <trkpt lat="49.80715" lon="2.37573">
        <ele>56.2</ele>
        <time>2022-07-27T09:11:39Z</time>
      </trkpt>
      <trkpt lat="49.80715" lon="2.37575">
        <ele>56.2</ele>
        <time>2022-07-27T09:11:40Z</time>
      </trkpt>
      <trkpt lat="49.80715" lon="2.37576">
        <ele>56.2</ele>
        <time>2022-07-27T09:11:41Z</time>
      </trkpt>
      <trkpt lat="49.80715" lon="2.37578">
        <ele>56.2</ele>
        <time>2022-07-27T09:11:42Z</time>
      </trkpt>
      <trkpt lat="49.80716" lon="2.37579">
        <ele>56.2</ele>
        <time>2022-07-27T09:11:43Z</time>
      </trkpt>
      <trkpt lat="49.80716" lon="2.37581">
        <ele>56.2</ele>
        <time>2022-07-27T09:11:44Z</time>
      </trkpt>
      <trkpt lat="49.80716" lon="2.37582">
        <ele>56.2</ele>
        <time>2022-07-27T09:11:45Z</time>
      </trkpt>
      <trkpt lat="49.80716" lon="2.37584">
        <ele>56.2</ele>
        <time>2022-07-27T09:11:46Z</time>
      </trkpt>
      <trkpt lat="49.80716" lon="2.37585">
        <ele>56.2</ele>
        <time>2022-07-27T09:11:47Z</time>
      </trkpt>
      <trkpt lat="49.80717" lon="2.37588">
        <ele>56.2</ele>
        <time>2022-07-27T09:11:48Z</time>
      </trkpt>
      <trkpt lat="49.80717" lon="2.3759">
        <ele>56.2</ele>
        <time>2022-07-27T09:11:49Z</time>
      </trkpt>
      <trkpt lat="49.80717" lon="2.37591">
        <ele>56.2</ele>
        <time>2022-07-27T09:11:50Z</time>
      </trkpt>
      <trkpt lat="49.80717" lon="2.37592">
        <ele>56.2</ele>
        <time>2022-07-27T09:11:51Z</time>
      </trkpt>
      <trkpt lat="49.80718" lon="2.37594">
        <ele>56.2</ele>
        <time>2022-07-27T09:11:52Z</time>
      </trkpt>
      <trkpt lat="49.80718" lon="2.37596">
        <ele>56.2</ele>
        <time>2022-07-27T09:11:53Z</time>
      </trkpt>
      <trkpt lat="49.80718" lon="2.37598">
        <ele>56.3</ele>
        <time>2022-07-27T09:11:54Z</time>
      </trkpt>
      <trkpt lat="49.80718" lon="2.37601">
        <ele>56.3</ele>
        <time>2022-07-27T09:11:55Z</time>
      </trkpt>
      <trkpt lat="49.80718" lon="2.37602">
        <ele>56.3</ele>
        <time>2022-07-27T09:11:56Z</time>
      </trkpt>
      <trkpt lat="49.80719" lon="2.37604">
        <ele>56.3</ele>
        <time>2022-07-27T09:11:57Z</time>
      </trkpt>
      <trkpt lat="49.80719" lon="2.37605">
        <ele>56.3</ele>
        <time>2022-07-27T09:11:58Z</time>
      </trkpt>
      <trkpt lat="49.80719" lon="2.37607">
        <ele>56.3</ele>
        <time>2022-07-27T09:11:59Z</time>
      </trkpt>
      <trkpt lat="49.8072" lon="2.37609">
        <ele>56.3</ele>
        <time>2022-07-27T09:12:00Z</time>
      </trkpt>
      <trkpt lat="49.8072" lon="2.3761">
        <ele>56.3</ele>
        <time>2022-07-27T09:12:01Z</time>
      </trkpt>
      <trkpt lat="49.80721" lon="2.37612">
        <ele>56.3</ele>
        <time>2022-07-27T09:12:02Z</time>
      </trkpt>
      <trkpt lat="49.80721" lon="2.37614">
        <ele>56.3</ele>
        <time>2022-07-27T09:12:03Z</time>
      </trkpt>
      <trkpt lat="49.80721" lon="2.37615">
        <ele>56.3</ele>
        <time>2022-07-27T09:12:04Z</time>
      </trkpt>
      <trkpt lat="49.80722" lon="2.37619">
        <ele>56.3</ele>
        <time>2022-07-27T09:12:05Z</time>
      </trkpt>
      <trkpt lat="49.80722" lon="2.3762">
        <ele>56.3</ele>
        <time>2022-07-27T09:12:06Z</time>
      </trkpt>
      <trkpt lat="49.80722" lon="2.37621">
        <ele>56.3</ele>
        <time>2022-07-27T09:12:07Z</time>
      </trkpt>
      <trkpt lat="49.80723" lon="2.37624">
        <ele>56.4</ele>
        <time>2022-07-27T09:12:08Z</time>
      </trkpt>
      <trkpt lat="49.80723" lon="2.37625">
        <ele>56.4</ele>
        <time>2022-07-27T09:12:09Z</time>
      </trkpt>
      <trkpt lat="49.80724" lon="2.37626">
        <ele>56.4</ele>
        <time>2022-07-27T09:12:10Z</time>
      </trkpt>
      <trkpt lat="49.80724" lon="2.37628">
        <ele>56.4</ele>
        <time>2022-07-27T09:12:11Z</time>
      </trkpt>
      <trkpt lat="49.80724" lon="2.37629">
        <ele>56.4</ele>
        <time>2022-07-27T09:12:12Z</time>
      </trkpt>
      <trkpt lat="49.80725" lon="2.37631">
        <ele>56.4</ele>
        <time>2022-07-27T09:12:13Z</time>
      </trkpt>
      <trkpt lat="49.80726" lon="2.37633">
        <ele>56.4</ele>
        <time>2022-07-27T09:12:14Z</time>
      </trkpt>
      <trkpt lat="49.80726" lon="2.37635">
        <ele>56.4</ele>
        <time>2022-07-27T09:12:15Z</time>
      </trkpt>
      <trkpt lat="49.80727" lon="2.37637">
        <ele>56.4</ele>
        <time>2022-07-27T09:12:16Z</time>
      </trkpt>
      <trkpt lat="49.80727" lon="2.37638">
        <ele>56.4</ele>
        <time>2022-07-27T09:12:17Z</time>
      </trkpt>
      <trkpt lat="49.80728" lon="2.3764">
        <ele>56.4</ele>
        <time>2022-07-27T09:12:18Z</time>
      </trkpt>
      <trkpt lat="49.80728" lon="2.37641">
        <ele>56.4</ele>
        <time>2022-07-27T09:12:19Z</time>
      </trkpt>
      <trkpt lat="49.80729" lon="2.37644">
        <ele>56.4</ele>
        <time>2022-07-27T09:12:20Z</time>
      </trkpt>
      <trkpt lat="49.80729" lon="2.37645">
        <ele>56.4</ele>
        <time>2022-07-27T09:12:21Z</time>
      </trkpt>
      <trkpt lat="49.8073" lon="2.37646">
        <ele>56.4</ele>
        <time>2022-07-27T09:12:22Z</time>
      </trkpt>
      <trkpt lat="49.8073" lon="2.37647">
        <ele>56.4</ele>
        <time>2022-07-27T09:12:23Z</time>
      </trkpt>
      <trkpt lat="49.8073" lon="2.37648">
        <ele>56.4</ele>
        <time>2022-07-27T09:12:24Z</time>
      </trkpt>
      <trkpt lat="49.80731" lon="2.3765">
        <ele>56.4</ele>
        <time>2022-07-27T09:12:25Z</time>
      </trkpt>
      <trkpt lat="49.80731" lon="2.37651">
        <ele>56.4</ele>
        <time>2022-07-27T09:12:26Z</time>
      </trkpt>
      <trkpt lat="49.80732" lon="2.37653">
        <ele>56.4</ele>
        <time>2022-07-27T09:12:27Z</time>
      </trkpt>
      <trkpt lat="49.80733" lon="2.37656">
        <ele>56.3</ele>
        <time>2022-07-27T09:12:28Z</time>
      </trkpt>
      <trkpt lat="49.80733" lon="2.37657">
        <ele>56.3</ele>
        <time>2022-07-27T09:12:29Z</time>
      </trkpt>
      <trkpt lat="49.80733" lon="2.37658">
        <ele>56.3</ele>
        <time>2022-07-27T09:12:30Z</time>
      </trkpt>
      <trkpt lat="49.80734" lon="2.37661">
        <ele>56.3</ele>
        <time>2022-07-27T09:12:31Z</time>
      </trkpt>
      <trkpt lat="49.80734" lon="2.37662">
        <ele>56.3</ele>
        <time>2022-07-27T09:12:32Z</time>
      </trkpt>
      <trkpt lat="49.80735" lon="2.37663">
        <ele>56.3</ele>
        <time>2022-07-27T09:12:33Z</time>
      </trkpt>
      <trkpt lat="49.80735" lon="2.37665">
        <ele>56.3</ele>
        <time>2022-07-27T09:12:34Z</time>
      </trkpt>
      <trkpt lat="49.80736" lon="2.37668">
        <ele>56.3</ele>
        <time>2022-07-27T09:12:35Z</time>
      </trkpt>
      <trkpt lat="49.80736" lon="2.37669">
        <ele>56.3</ele>
        <time>2022-07-27T09:12:36Z</time>
      </trkpt>
      <trkpt lat="49.80736" lon="2.3767">
        <ele>56.3</ele>
        <time>2022-07-27T09:12:37Z</time>
      </trkpt>
      <trkpt lat="49.80737" lon="2.37672">
        <ele>56.3</ele>
        <time>2022-07-27T09:12:38Z</time>
      </trkpt>
      <trkpt lat="49.80737" lon="2.37673">
        <ele>56.3</ele>
        <time>2022-07-27T09:12:39Z</time>
      </trkpt>
      <trkpt lat="49.80738" lon="2.37676">
        <ele>56.3</ele>
        <time>2022-07-27T09:12:40Z</time>
      </trkpt>
      <trkpt lat="49.80739" lon="2.37677">
        <ele>56.3</ele>
        <time>2022-07-27T09:12:41Z</time>
      </trkpt>
      <trkpt lat="49.80739" lon="2.37679">
        <ele>56.3</ele>
        <time>2022-07-27T09:12:42Z</time>
      </trkpt>
      <trkpt lat="49.8074" lon="2.37681">
        <ele>56.3</ele>
        <time>2022-07-27T09:12:43Z</time>
      </trkpt>
      <trkpt lat="49.8074" lon="2.37682">
        <ele>56.3</ele>
        <time>2022-07-27T09:12:44Z</time>
      </trkpt>
      <trkpt lat="49.80741" lon="2.37685">
        <ele>56.2</ele>
        <time>2022-07-27T09:12:45Z</time>
      </trkpt>
      <trkpt lat="49.80741" lon="2.37686">
        <ele>56.2</ele>
        <time>2022-07-27T09:12:46Z</time>
      </trkpt>
      <trkpt lat="49.80741" lon="2.37687">
        <ele>56.2</ele>
        <time>2022-07-27T09:12:47Z</time>
      </trkpt>
      <trkpt lat="49.80742" lon="2.37688">
        <ele>56.2</ele>
        <time>2022-07-27T09:12:48Z</time>
      </trkpt>
      <trkpt lat="49.80742" lon="2.37689">
        <ele>56.2</ele>
        <time>2022-07-27T09:12:49Z</time>
      </trkpt>
      <trkpt lat="49.80743" lon="2.37692">
        <ele>56.2</ele>
        <time>2022-07-27T09:12:50Z</time>
      </trkpt>
      <trkpt lat="49.80743" lon="2.37694">
        <ele>56.2</ele>
        <time>2022-07-27T09:12:51Z</time>
      </trkpt>
      <trkpt lat="49.80744" lon="2.37695">
        <ele>56.2</ele>
        <time>2022-07-27T09:12:52Z</time>
      </trkpt>
      <trkpt lat="49.80744" lon="2.37698">
        <ele>56.1</ele>
        <time>2022-07-27T09:12:53Z</time>
      </trkpt>
      <trkpt lat="49.80745" lon="2.37699">
        <ele>56.1</ele>
        <time>2022-07-27T09:12:54Z</time>
      </trkpt>
      <trkpt lat="49.80745" lon="2.377">
        <ele>56.1</ele>
        <time>2022-07-27T09:12:55Z</time>
      </trkpt>
      <trkpt lat="49.80746" lon="2.37702">
        <ele>56.1</ele>
        <time>2022-07-27T09:12:56Z</time>
      </trkpt>
      <trkpt lat="49.80746" lon="2.37703">
        <ele>56.1</ele>
        <time>2022-07-27T09:12:57Z</time>
      </trkpt>
      <trkpt lat="49.80746" lon="2.37705">
        <ele>56.1</ele>
        <time>2022-07-27T09:12:58Z</time>
      </trkpt>
      <trkpt lat="49.80747" lon="2.37707">
        <ele>56.1</ele>
        <time>2022-07-27T09:12:59Z</time>
      </trkpt>
      <trkpt lat="49.80747" lon="2.3771">
        <ele>56.1</ele>
        <time>2022-07-27T09:13:00Z</time>
      </trkpt>
      <trkpt lat="49.80748" lon="2.37711">
        <ele>56</ele>
        <time>2022-07-27T09:13:01Z</time>
      </trkpt>
      <trkpt lat="49.80748" lon="2.37713">
        <ele>56</ele>
        <time>2022-07-27T09:13:02Z</time>
      </trkpt>
      <trkpt lat="49.80749" lon="2.37714">
        <ele>56</ele>
        <time>2022-07-27T09:13:03Z</time>
      </trkpt>
      <trkpt lat="49.80749" lon="2.37716">
        <ele>56</ele>
        <time>2022-07-27T09:13:04Z</time>
      </trkpt>
      <trkpt lat="49.8075" lon="2.37718">
        <ele>56</ele>
        <time>2022-07-27T09:13:05Z</time>
      </trkpt>
      <trkpt lat="49.8075" lon="2.3772">
        <ele>56</ele>
        <time>2022-07-27T09:13:06Z</time>
      </trkpt>
      <trkpt lat="49.80751" lon="2.37721">
        <ele>56</ele>
        <time>2022-07-27T09:13:07Z</time>
      </trkpt>
      <trkpt lat="49.80751" lon="2.37723">
        <ele>55.9</ele>
        <time>2022-07-27T09:13:08Z</time>
      </trkpt>
      <trkpt lat="49.80752" lon="2.37725">
        <ele>55.9</ele>
        <time>2022-07-27T09:13:09Z</time>
      </trkpt>
      <trkpt lat="49.80753" lon="2.37727">
        <ele>55.9</ele>
        <time>2022-07-27T09:13:10Z</time>
      </trkpt>
      <trkpt lat="49.80753" lon="2.37728">
        <ele>55.9</ele>
        <time>2022-07-27T09:13:11Z</time>
      </trkpt>
      <trkpt lat="49.80754" lon="2.37729">
        <ele>55.9</ele>
        <time>2022-07-27T09:13:12Z</time>
      </trkpt>
      <trkpt lat="49.80754" lon="2.37731">
        <ele>55.9</ele>
        <time>2022-07-27T09:13:13Z</time>
      </trkpt>
      <trkpt lat="49.80755" lon="2.37732">
        <ele>55.8</ele>
        <time>2022-07-27T09:13:14Z</time>
      </trkpt>
      <trkpt lat="49.80756" lon="2.37734">
        <ele>55.8</ele>
        <time>2022-07-27T09:13:15Z</time>
      </trkpt>
      <trkpt lat="49.80756" lon="2.37735">
        <ele>55.8</ele>
        <time>2022-07-27T09:13:16Z</time>
      </trkpt>
      <trkpt lat="49.80757" lon="2.37737">
        <ele>55.8</ele>
        <time>2022-07-27T09:13:17Z</time>
      </trkpt>
      <trkpt lat="49.80758" lon="2.37738">
        <ele>55.8</ele>
        <time>2022-07-27T09:13:18Z</time>
      </trkpt>
      <trkpt lat="49.80758" lon="2.37739">
        <ele>55.8</ele>
        <time>2022-07-27T09:13:19Z</time>
      </trkpt>
      <trkpt lat="49.80759" lon="2.3774">
        <ele>55.8</ele>
        <time>2022-07-27T09:13:20Z</time>
      </trkpt>
      <trkpt lat="49.8076" lon="2.37741">
        <ele>55.7</ele>
        <time>2022-07-27T09:13:21Z</time>
      </trkpt>
      <trkpt lat="49.80761" lon="2.37742">
        <ele>55.7</ele>
        <time>2022-07-27T09:13:22Z</time>
      </trkpt>
      <trkpt lat="49.80762" lon="2.37745">
        <ele>55.7</ele>
        <time>2022-07-27T09:13:23Z</time>
      </trkpt>
      <trkpt lat="49.80763" lon="2.37746">
        <ele>55.7</ele>
        <time>2022-07-27T09:13:24Z</time>
      </trkpt>
      <trkpt lat="49.80763" lon="2.37747">
        <ele>55.7</ele>
        <time>2022-07-27T09:13:25Z</time>
      </trkpt>
      <trkpt lat="49.80764" lon="2.37748">
        <ele>55.7</ele>
        <time>2022-07-27T09:13:26Z</time>
      </trkpt>
      <trkpt lat="49.80765" lon="2.37749">
        <ele>55.6</ele>
        <time>2022-07-27T09:13:27Z</time>
      </trkpt>
      <trkpt lat="49.80766" lon="2.37751">
        <ele>55.6</ele>
        <time>2022-07-27T09:13:28Z</time>
      </trkpt>
      <trkpt lat="49.80767" lon="2.37753">
        <ele>55.6</ele>
        <time>2022-07-27T09:13:29Z</time>
      </trkpt>
      <trkpt lat="49.80768" lon="2.37753">
        <ele>55.6</ele>
        <time>2022-07-27T09:13:30Z</time>
      </trkpt>
      <trkpt lat="49.80769" lon="2.37754">
        <ele>55.6</ele>
        <time>2022-07-27T09:13:31Z</time>
      </trkpt>
      <trkpt lat="49.80769" lon="2.37755">
        <ele>55.6</ele>
        <time>2022-07-27T09:13:32Z</time>
      </trkpt>
      <trkpt lat="49.8077" lon="2.37756">
        <ele>55.6</ele>
        <time>2022-07-27T09:13:33Z</time>
      </trkpt>
      <trkpt lat="49.80771" lon="2.37757">
        <ele>55.6</ele>
        <time>2022-07-27T09:13:34Z</time>
      </trkpt>
      <trkpt lat="49.80772" lon="2.37758">
        <ele>55.6</ele>
        <time>2022-07-27T09:13:35Z</time>
      </trkpt>
      <trkpt lat="49.80773" lon="2.37759">
        <ele>55.5</ele>
        <time>2022-07-27T09:13:36Z</time>
      </trkpt>
      <trkpt lat="49.80774" lon="2.3776">
        <ele>55.5</ele>
        <time>2022-07-27T09:13:37Z</time>
      </trkpt>
      <trkpt lat="49.80774" lon="2.37761">
        <ele>55.5</ele>
        <time>2022-07-27T09:13:38Z</time>
      </trkpt>
      <trkpt lat="49.80775" lon="2.37762">
        <ele>55.5</ele>
        <time>2022-07-27T09:13:39Z</time>
      </trkpt>
      <trkpt lat="49.80776" lon="2.37763">
        <ele>55.5</ele>
        <time>2022-07-27T09:13:40Z</time>
      </trkpt>
      <trkpt lat="49.80777" lon="2.37764">
        <ele>55.5</ele>
        <time>2022-07-27T09:13:41Z</time>
      </trkpt>
      <trkpt lat="49.80778" lon="2.37765">
        <ele>55.5</ele>
        <time>2022-07-27T09:13:42Z</time>
      </trkpt>
      <trkpt lat="49.80779" lon="2.37766">
        <ele>55.5</ele>
        <time>2022-07-27T09:13:43Z</time>
      </trkpt>
      <trkpt lat="49.80781" lon="2.37768">
        <ele>55.5</ele>
        <time>2022-07-27T09:13:44Z</time>
      </trkpt>
      <trkpt lat="49.80782" lon="2.37768">
        <ele>55.4</ele>
        <time>2022-07-27T09:13:45Z</time>
      </trkpt>
      <trkpt lat="49.80782" lon="2.37769">
        <ele>55.4</ele>
        <time>2022-07-27T09:13:46Z</time>
      </trkpt>
      <trkpt lat="49.80784" lon="2.37771">
        <ele>55.4</ele>
        <time>2022-07-27T09:13:47Z</time>
      </trkpt>
      <trkpt lat="49.80785" lon="2.37771">
        <ele>55.4</ele>
        <time>2022-07-27T09:13:48Z</time>
      </trkpt>
      <trkpt lat="49.80786" lon="2.37772">
        <ele>55.4</ele>
        <time>2022-07-27T09:13:49Z</time>
      </trkpt>
      <trkpt lat="49.80787" lon="2.37773">
        <ele>55.4</ele>
        <time>2022-07-27T09:13:50Z</time>
      </trkpt>
      <trkpt lat="49.80788" lon="2.37775">
        <ele>55.4</ele>
        <time>2022-07-27T09:13:51Z</time>
      </trkpt>
      <trkpt lat="49.80789" lon="2.37776">
        <ele>55.4</ele>
        <time>2022-07-27T09:13:52Z</time>
      </trkpt>
      <trkpt lat="49.8079" lon="2.37777">
        <ele>55.3</ele>
        <time>2022-07-27T09:13:53Z</time>
      </trkpt>
      <trkpt lat="49.80791" lon="2.37778">
        <ele>55.3</ele>
        <time>2022-07-27T09:13:54Z</time>
      </trkpt>
      <trkpt lat="49.80792" lon="2.37779">
        <ele>55.3</ele>
        <time>2022-07-27T09:13:55Z</time>
      </trkpt>
      <trkpt lat="49.80793" lon="2.3778">
        <ele>55.3</ele>
        <time>2022-07-27T09:13:56Z</time>
      </trkpt>
      <trkpt lat="49.80794" lon="2.37781">
        <ele>55.3</ele>
        <time>2022-07-27T09:13:57Z</time>
      </trkpt>
      <trkpt lat="49.80795" lon="2.37782">
        <ele>55.3</ele>
        <time>2022-07-27T09:13:58Z</time>
      </trkpt>
      <trkpt lat="49.80796" lon="2.37783">
        <ele>55.3</ele>
        <time>2022-07-27T09:13:59Z</time>
      </trkpt>
      <trkpt lat="49.80797" lon="2.37784">
        <ele>55.2</ele>
        <time>2022-07-27T09:14:00Z</time>
      </trkpt>
      <trkpt lat="49.80798" lon="2.37785">
        <ele>55.2</ele>
        <time>2022-07-27T09:14:01Z</time>
      </trkpt>
      <trkpt lat="49.80799" lon="2.37787">
        <ele>55.2</ele>
        <time>2022-07-27T09:14:02Z</time>
      </trkpt>
      <trkpt lat="49.80799" lon="2.37788">
        <ele>55.2</ele>
        <time>2022-07-27T09:14:03Z</time>
      </trkpt>
      <trkpt lat="49.80801" lon="2.3779">
        <ele>55.2</ele>
        <time>2022-07-27T09:14:04Z</time>
      </trkpt>
      <trkpt lat="49.80802" lon="2.37791">
        <ele>55.2</ele>
        <time>2022-07-27T09:14:05Z</time>
      </trkpt>
      <trkpt lat="49.80802" lon="2.37792">
        <ele>55.2</ele>
        <time>2022-07-27T09:14:06Z</time>
      </trkpt>
      <trkpt lat="49.80803" lon="2.37793">
        <ele>55.2</ele>
        <time>2022-07-27T09:14:07Z</time>
      </trkpt>
      <trkpt lat="49.80804" lon="2.37794">
        <ele>55.2</ele>
        <time>2022-07-27T09:14:08Z</time>
      </trkpt>
      <trkpt lat="49.80805" lon="2.37795">
        <ele>55.2</ele>
        <time>2022-07-27T09:14:09Z</time>
      </trkpt>
      <trkpt lat="49.80806" lon="2.37796">
        <ele>55.2</ele>
        <time>2022-07-27T09:14:10Z</time>
      </trkpt>
      <trkpt lat="49.80807" lon="2.37797">
        <ele>55.2</ele>
        <time>2022-07-27T09:14:11Z</time>
      </trkpt>
      <trkpt lat="49.80808" lon="2.37798">
        <ele>55.2</ele>
        <time>2022-07-27T09:14:12Z</time>
      </trkpt>
      <trkpt lat="49.80809" lon="2.37799">
        <ele>55.2</ele>
        <time>2022-07-27T09:14:13Z</time>
      </trkpt>
      <trkpt lat="49.8081" lon="2.378">
        <ele>55.2</ele>
        <time>2022-07-27T09:14:14Z</time>
      </trkpt>
      <trkpt lat="49.80811" lon="2.37801">
        <ele>55.2</ele>
        <time>2022-07-27T09:14:15Z</time>
      </trkpt>
      <trkpt lat="49.80812" lon="2.37802">
        <ele>55.2</ele>
        <time>2022-07-27T09:14:16Z</time>
      </trkpt>
      <trkpt lat="49.80812" lon="2.37802">
        <ele>55.2</ele>
        <time>2022-07-27T09:14:17Z</time>
      </trkpt>
      <trkpt lat="49.80813" lon="2.37803">
        <ele>55.2</ele>
        <time>2022-07-27T09:14:18Z</time>
      </trkpt>
      <trkpt lat="49.80814" lon="2.37804">
        <ele>55.2</ele>
        <time>2022-07-27T09:14:19Z</time>
      </trkpt>
      <trkpt lat="49.80815" lon="2.37805">
        <ele>55.2</ele>
        <time>2022-07-27T09:14:20Z</time>
      </trkpt>
      <trkpt lat="49.80816" lon="2.37806">
        <ele>55.2</ele>
        <time>2022-07-27T09:14:21Z</time>
      </trkpt>
      <trkpt lat="49.80817" lon="2.37807">
        <ele>55.2</ele>
        <time>2022-07-27T09:14:22Z</time>
      </trkpt>
      <trkpt lat="49.80818" lon="2.37808">
        <ele>55.2</ele>
        <time>2022-07-27T09:14:23Z</time>
      </trkpt>
      <trkpt lat="49.80819" lon="2.37809">
        <ele>55.2</ele>
        <time>2022-07-27T09:14:24Z</time>
      </trkpt>
      <trkpt lat="49.80821" lon="2.37811">
        <ele>55.2</ele>
        <time>2022-07-27T09:14:25Z</time>
      </trkpt>
      <trkpt lat="49.80821" lon="2.37811">
        <ele>55.2</ele>
        <time>2022-07-27T09:14:26Z</time>
      </trkpt>
      <trkpt lat="49.80822" lon="2.37812">
        <ele>55.2</ele>
        <time>2022-07-27T09:14:27Z</time>
      </trkpt>
      <trkpt lat="49.80823" lon="2.37813">
        <ele>55.2</ele>
        <time>2022-07-27T09:14:28Z</time>
      </trkpt>
      <trkpt lat="49.80824" lon="2.37814">
        <ele>55.2</ele>
        <time>2022-07-27T09:14:29Z</time>
      </trkpt>
      <trkpt lat="49.80825" lon="2.37815">
        <ele>55.2</ele>
        <time>2022-07-27T09:14:30Z</time>
      </trkpt>
      <trkpt lat="49.80826" lon="2.37816">
        <ele>55.2</ele>
        <time>2022-07-27T09:14:31Z</time>
      </trkpt>
      <trkpt lat="49.80827" lon="2.37817">
        <ele>55.2</ele>
        <time>2022-07-27T09:14:32Z</time>
      </trkpt>
      <trkpt lat="49.80828" lon="2.37818">
        <ele>55.2</ele>
        <time>2022-07-27T09:14:33Z</time>
      </trkpt>
      <trkpt lat="49.8083" lon="2.3782">
        <ele>55.2</ele>
        <time>2022-07-27T09:14:34Z</time>
      </trkpt>
      <trkpt lat="49.80831" lon="2.37821">
        <ele>55.2</ele>
        <time>2022-07-27T09:14:35Z</time>
      </trkpt>
      <trkpt lat="49.80831" lon="2.37822">
        <ele>55.2</ele>
        <time>2022-07-27T09:14:36Z</time>
      </trkpt>
      <trkpt lat="49.80832" lon="2.37823">
        <ele>55.2</ele>
        <time>2022-07-27T09:14:37Z</time>
      </trkpt>
      <trkpt lat="49.80833" lon="2.37824">
        <ele>55.2</ele>
        <time>2022-07-27T09:14:38Z</time>
      </trkpt>
      <trkpt lat="49.80834" lon="2.37825">
        <ele>55.2</ele>
        <time>2022-07-27T09:14:39Z</time>
      </trkpt>
      <trkpt lat="49.80836" lon="2.37827">
        <ele>55.3</ele>
        <time>2022-07-27T09:14:40Z</time>
      </trkpt>
      <trkpt lat="49.80836" lon="2.37828">
        <ele>55.3</ele>
        <time>2022-07-27T09:14:41Z</time>
      </trkpt>
      <trkpt lat="49.80837" lon="2.37828">
        <ele>55.3</ele>
        <time>2022-07-27T09:14:42Z</time>
      </trkpt>
      <trkpt lat="49.80839" lon="2.3783">
        <ele>55.3</ele>
        <time>2022-07-27T09:14:43Z</time>
      </trkpt>
      <trkpt lat="49.8084" lon="2.37831">
        <ele>55.3</ele>
        <time>2022-07-27T09:14:44Z</time>
      </trkpt>
      <trkpt lat="49.8084" lon="2.37831">
        <ele>55.3</ele>
        <time>2022-07-27T09:14:45Z</time>
      </trkpt>
      <trkpt lat="49.80841" lon="2.37832">
        <ele>55.3</ele>
        <time>2022-07-27T09:14:46Z</time>
      </trkpt>
      <trkpt lat="49.80842" lon="2.37833">
        <ele>55.4</ele>
        <time>2022-07-27T09:14:47Z</time>
      </trkpt>
      <trkpt lat="49.80843" lon="2.37834">
        <ele>55.4</ele>
        <time>2022-07-27T09:14:48Z</time>
      </trkpt>
      <trkpt lat="49.80844" lon="2.37835">
        <ele>55.4</ele>
        <time>2022-07-27T09:14:49Z</time>
      </trkpt>
      <trkpt lat="49.80845" lon="2.37835">
        <ele>55.4</ele>
        <time>2022-07-27T09:14:50Z</time>
      </trkpt>
      <trkpt lat="49.80846" lon="2.37836">
        <ele>55.4</ele>
        <time>2022-07-27T09:14:51Z</time>
      </trkpt>
      <trkpt lat="49.80847" lon="2.37837">
        <ele>55.4</ele>
        <time>2022-07-27T09:14:52Z</time>
      </trkpt>
      <trkpt lat="49.80848" lon="2.37838">
        <ele>55.5</ele>
        <time>2022-07-27T09:14:53Z</time>
      </trkpt>
      <trkpt lat="49.80849" lon="2.37839">
        <ele>55.5</ele>
        <time>2022-07-27T09:14:54Z</time>
      </trkpt>
      <trkpt lat="49.8085" lon="2.3784">
        <ele>55.5</ele>
        <time>2022-07-27T09:14:55Z</time>
      </trkpt>
      <trkpt lat="49.80852" lon="2.37841">
        <ele>55.5</ele>
        <time>2022-07-27T09:14:56Z</time>
      </trkpt>
      <trkpt lat="49.80854" lon="2.37842">
        <ele>55.6</ele>
        <time>2022-07-27T09:14:57Z</time>
      </trkpt>
      <trkpt lat="49.80854" lon="2.37843">
        <ele>55.6</ele>
        <time>2022-07-27T09:14:58Z</time>
      </trkpt>
      <trkpt lat="49.80855" lon="2.37844">
        <ele>55.6</ele>
        <time>2022-07-27T09:14:59Z</time>
      </trkpt>
      <trkpt lat="49.80856" lon="2.37845">
        <ele>55.6</ele>
        <time>2022-07-27T09:15:00Z</time>
      </trkpt>
      <trkpt lat="49.80857" lon="2.37846">
        <ele>55.6</ele>
        <time>2022-07-27T09:15:01Z</time>
      </trkpt>
      <trkpt lat="49.80858" lon="2.37846">
        <ele>55.7</ele>
        <time>2022-07-27T09:15:02Z</time>
      </trkpt>
      <trkpt lat="49.80859" lon="2.37847">
        <ele>55.7</ele>
        <time>2022-07-27T09:15:03Z</time>
      </trkpt>
      <trkpt lat="49.8086" lon="2.37848">
        <ele>55.7</ele>
        <time>2022-07-27T09:15:04Z</time>
      </trkpt>
      <trkpt lat="49.80862" lon="2.37849">
        <ele>55.7</ele>
        <time>2022-07-27T09:15:05Z</time>
      </trkpt>
      <trkpt lat="49.80863" lon="2.3785">
        <ele>55.8</ele>
        <time>2022-07-27T09:15:06Z</time>
      </trkpt>
      <trkpt lat="49.80864" lon="2.3785">
        <ele>55.8</ele>
        <time>2022-07-27T09:15:07Z</time>
      </trkpt>
      <trkpt lat="49.80865" lon="2.37851">
        <ele>55.8</ele>
        <time>2022-07-27T09:15:08Z</time>
      </trkpt>
      <trkpt lat="49.80866" lon="2.37852">
        <ele>55.8</ele>
        <time>2022-07-27T09:15:09Z</time>
      </trkpt>
      <trkpt lat="49.80867" lon="2.37853">
        <ele>55.8</ele>
        <time>2022-07-27T09:15:10Z</time>
      </trkpt>
      <trkpt lat="49.80868" lon="2.37854">
        <ele>55.9</ele>
        <time>2022-07-27T09:15:11Z</time>
      </trkpt>
      <trkpt lat="49.80869" lon="2.37854">
        <ele>55.9</ele>
        <time>2022-07-27T09:15:12Z</time>
      </trkpt>
      <trkpt lat="49.8087" lon="2.37855">
        <ele>55.9</ele>
        <time>2022-07-27T09:15:13Z</time>
      </trkpt>
      <trkpt lat="49.80871" lon="2.37855">
        <ele>55.9</ele>
        <time>2022-07-27T09:15:14Z</time>
      </trkpt>
      <trkpt lat="49.80872" lon="2.37856">
        <ele>56</ele>
        <time>2022-07-27T09:15:15Z</time>
      </trkpt>
      <trkpt lat="49.80873" lon="2.37856">
        <ele>56</ele>
        <time>2022-07-27T09:15:16Z</time>
      </trkpt>
      <trkpt lat="49.80874" lon="2.37857">
        <ele>56</ele>
        <time>2022-07-27T09:15:17Z</time>
      </trkpt>
      <trkpt lat="49.80875" lon="2.37857">
        <ele>56</ele>
        <time>2022-07-27T09:15:18Z</time>
      </trkpt>
      <trkpt lat="49.80876" lon="2.37858">
        <ele>56.1</ele>
        <time>2022-07-27T09:15:19Z</time>
      </trkpt>
      <trkpt lat="49.80878" lon="2.37859">
        <ele>56.1</ele>
        <time>2022-07-27T09:15:20Z</time>
      </trkpt>
      <trkpt lat="49.80879" lon="2.37859">
        <ele>56.1</ele>
        <time>2022-07-27T09:15:21Z</time>
      </trkpt>
      <trkpt lat="49.8088" lon="2.3786">
        <ele>56.1</ele>
        <time>2022-07-27T09:15:22Z</time>
      </trkpt>
      <trkpt lat="49.80881" lon="2.37861">
        <ele>56.2</ele>
        <time>2022-07-27T09:15:23Z</time>
      </trkpt>
      <trkpt lat="49.80882" lon="2.37862">
        <ele>56.2</ele>
        <time>2022-07-27T09:15:24Z</time>
      </trkpt>
      <trkpt lat="49.80884" lon="2.37863">
        <ele>56.2</ele>
        <time>2022-07-27T09:15:25Z</time>
      </trkpt>
      <trkpt lat="49.80884" lon="2.37863">
        <ele>56.3</ele>
        <time>2022-07-27T09:15:26Z</time>
      </trkpt>
      <trkpt lat="49.80885" lon="2.37864">
        <ele>56.3</ele>
        <time>2022-07-27T09:15:27Z</time>
      </trkpt>
      <trkpt lat="49.80886" lon="2.37865">
        <ele>56.3</ele>
        <time>2022-07-27T09:15:28Z</time>
      </trkpt>
      <trkpt lat="49.80887" lon="2.37865">
        <ele>56.3</ele>
        <time>2022-07-27T09:15:29Z</time>
      </trkpt>
      <trkpt lat="49.80888" lon="2.37866">
        <ele>56.4</ele>
        <time>2022-07-27T09:15:30Z</time>
      </trkpt>
      <trkpt lat="49.8089" lon="2.37867">
        <ele>56.4</ele>
        <time>2022-07-27T09:15:31Z</time>
      </trkpt>
      <trkpt lat="49.8089" lon="2.37867">
        <ele>56.4</ele>
        <time>2022-07-27T09:15:32Z</time>
      </trkpt>
      <trkpt lat="49.80891" lon="2.37867">
        <ele>56.4</ele>
        <time>2022-07-27T09:15:33Z</time>
      </trkpt>
      <trkpt lat="49.80892" lon="2.37868">
        <ele>56.4</ele>
        <time>2022-07-27T09:15:34Z</time>
      </trkpt>
      <trkpt lat="49.80893" lon="2.37868">
        <ele>56.4</ele>
        <time>2022-07-27T09:15:35Z</time>
      </trkpt>
      <trkpt lat="49.80895" lon="2.3787">
        <ele>56.5</ele>
        <time>2022-07-27T09:15:36Z</time>
      </trkpt>
      <trkpt lat="49.80895" lon="2.3787">
        <ele>56.5</ele>
        <time>2022-07-27T09:15:37Z</time>
      </trkpt>
      <trkpt lat="49.80896" lon="2.3787">
        <ele>56.5</ele>
        <time>2022-07-27T09:15:38Z</time>
      </trkpt>
      <trkpt lat="49.80898" lon="2.37871">
        <ele>56.5</ele>
        <time>2022-07-27T09:15:39Z</time>
      </trkpt>
      <trkpt lat="49.80899" lon="2.37872">
        <ele>56.5</ele>
        <time>2022-07-27T09:15:40Z</time>
      </trkpt>
      <trkpt lat="49.809" lon="2.37872">
        <ele>56.5</ele>
        <time>2022-07-27T09:15:41Z</time>
      </trkpt>
      <trkpt lat="49.80901" lon="2.37873">
        <ele>56.5</ele>
        <time>2022-07-27T09:15:42Z</time>
      </trkpt>
      <trkpt lat="49.80903" lon="2.37874">
        <ele>56.5</ele>
        <time>2022-07-27T09:15:43Z</time>
      </trkpt>
      <trkpt lat="49.80904" lon="2.37875">
        <ele>56.5</ele>
        <time>2022-07-27T09:15:44Z</time>
      </trkpt>
      <trkpt lat="49.80905" lon="2.37875">
        <ele>56.5</ele>
        <time>2022-07-27T09:15:45Z</time>
      </trkpt>
      <trkpt lat="49.80907" lon="2.37877">
        <ele>56.5</ele>
        <time>2022-07-27T09:15:46Z</time>
      </trkpt>
      <trkpt lat="49.80908" lon="2.37877">
        <ele>56.5</ele>
        <time>2022-07-27T09:15:47Z</time>
      </trkpt>
      <trkpt lat="49.80908" lon="2.37877">
        <ele>56.5</ele>
        <time>2022-07-27T09:15:48Z</time>
      </trkpt>
      <trkpt lat="49.80909" lon="2.37878">
        <ele>56.5</ele>
        <time>2022-07-27T09:15:49Z</time>
      </trkpt>
      <trkpt lat="49.8091" lon="2.37878">
        <ele>56.5</ele>
        <time>2022-07-27T09:15:50Z</time>
      </trkpt>
      <trkpt lat="49.80911" lon="2.37879">
        <ele>56.5</ele>
        <time>2022-07-27T09:15:51Z</time>
      </trkpt>
      <trkpt lat="49.80912" lon="2.3788">
        <ele>56.5</ele>
        <time>2022-07-27T09:15:52Z</time>
      </trkpt>
      <trkpt lat="49.80913" lon="2.3788">
        <ele>56.5</ele>
        <time>2022-07-27T09:15:53Z</time>
      </trkpt>
      <trkpt lat="49.80914" lon="2.37881">
        <ele>56.5</ele>
        <time>2022-07-27T09:15:54Z</time>
      </trkpt>
      <trkpt lat="49.80915" lon="2.37882">
        <ele>56.5</ele>
        <time>2022-07-27T09:15:55Z</time>
      </trkpt>
      <trkpt lat="49.80917" lon="2.37884">
        <ele>56.5</ele>
        <time>2022-07-27T09:15:56Z</time>
      </trkpt>
      <trkpt lat="49.80917" lon="2.37884">
        <ele>56.5</ele>
        <time>2022-07-27T09:15:57Z</time>
      </trkpt>
      <trkpt lat="49.80918" lon="2.37885">
        <ele>56.5</ele>
        <time>2022-07-27T09:15:58Z</time>
      </trkpt>
      <trkpt lat="49.80919" lon="2.37886">
        <ele>56.5</ele>
        <time>2022-07-27T09:15:59Z</time>
      </trkpt>
      <trkpt lat="49.80919" lon="2.37887">
        <ele>56.5</ele>
        <time>2022-07-27T09:16:00Z</time>
      </trkpt>
      <trkpt lat="49.8092" lon="2.37889">
        <ele>56.5</ele>
        <time>2022-07-27T09:16:01Z</time>
      </trkpt>
      <trkpt lat="49.80921" lon="2.3789">
        <ele>56.5</ele>
        <time>2022-07-27T09:16:02Z</time>
      </trkpt>
      <trkpt lat="49.80922" lon="2.37891">
        <ele>56.5</ele>
        <time>2022-07-27T09:16:03Z</time>
      </trkpt>
      <trkpt lat="49.80923" lon="2.37892">
        <ele>56.5</ele>
        <time>2022-07-27T09:16:04Z</time>
      </trkpt>
      <trkpt lat="49.80923" lon="2.37892">
        <ele>56.5</ele>
        <time>2022-07-27T09:16:05Z</time>
      </trkpt>
      <trkpt lat="49.80924" lon="2.37893">
        <ele>56.5</ele>
        <time>2022-07-27T09:16:06Z</time>
      </trkpt>
      <trkpt lat="49.80925" lon="2.37894">
        <ele>56.5</ele>
        <time>2022-07-27T09:16:07Z</time>
      </trkpt>
      <trkpt lat="49.80925" lon="2.37894">
        <ele>56.5</ele>
        <time>2022-07-27T09:16:08Z</time>
      </trkpt>
      <trkpt lat="49.80926" lon="2.37895">
        <ele>56.5</ele>
        <time>2022-07-27T09:16:09Z</time>
      </trkpt>
      <trkpt lat="49.80926" lon="2.37895">
        <ele>56.5</ele>
        <time>2022-07-27T09:16:10Z</time>
      </trkpt>
      <trkpt lat="49.80927" lon="2.37896">
        <ele>56.5</ele>
        <time>2022-07-27T09:16:11Z</time>
      </trkpt>
      <trkpt lat="49.80928" lon="2.37896">
        <ele>56.5</ele>
        <time>2022-07-27T09:16:12Z</time>
      </trkpt>
      <trkpt lat="49.80928" lon="2.37896">
        <ele>56.5</ele>
        <time>2022-07-27T09:16:13Z</time>
      </trkpt>
      <trkpt lat="49.80928" lon="2.37896">
        <ele>56.5</ele>
        <time>2022-07-27T09:16:14Z</time>
      </trkpt>
      <trkpt lat="49.80928" lon="2.37896">
        <ele>56.5</ele>
        <time>2022-07-27T09:16:15Z</time>
      </trkpt>
      <trkpt lat="49.80929" lon="2.37896">
        <ele>56.5</ele>
        <time>2022-07-27T09:16:16Z</time>
      </trkpt>
      <trkpt lat="49.80929" lon="2.37896">
        <ele>56.5</ele>
        <time>2022-07-27T09:16:17Z</time>
      </trkpt>
      <trkpt lat="49.80929" lon="2.37897">
        <ele>56.5</ele>
        <time>2022-07-27T09:16:18Z</time>
      </trkpt>
      <trkpt lat="49.8093" lon="2.37897">
        <ele>56.5</ele>
        <time>2022-07-27T09:16:19Z</time>
      </trkpt>
      <trkpt lat="49.8093" lon="2.37898">
        <ele>56.5</ele>
        <time>2022-07-27T09:16:20Z</time>
      </trkpt>
      <trkpt lat="49.8093" lon="2.37899">
        <ele>56.5</ele>
        <time>2022-07-27T09:16:21Z</time>
      </trkpt>
      <trkpt lat="49.8093" lon="2.379">
        <ele>56.5</ele>
        <time>2022-07-27T09:16:22Z</time>
      </trkpt>
      <trkpt lat="49.8093" lon="2.37901">
        <ele>56.5</ele>
        <time>2022-07-27T09:16:23Z</time>
      </trkpt>
      <trkpt lat="49.80931" lon="2.37902">
        <ele>56.5</ele>
        <time>2022-07-27T09:16:24Z</time>
      </trkpt>
      <trkpt lat="49.8093" lon="2.37902">
        <ele>56.5</ele>
        <time>2022-07-27T09:16:25Z</time>
      </trkpt>
      <trkpt lat="49.8093" lon="2.37903">
        <ele>56.5</ele>
        <time>2022-07-27T09:16:26Z</time>
      </trkpt>
      <trkpt lat="49.8093" lon="2.37904">
        <ele>56.5</ele>
        <time>2022-07-27T09:16:27Z</time>
      </trkpt>
      <trkpt lat="49.8093" lon="2.37904">
        <ele>56.5</ele>
        <time>2022-07-27T09:16:28Z</time>
      </trkpt>
      <trkpt lat="49.8093" lon="2.37904">
        <ele>56.5</ele>
        <time>2022-07-27T09:16:29Z</time>
      </trkpt>
      <trkpt lat="49.8093" lon="2.37905">
        <ele>56.5</ele>
        <time>2022-07-27T09:16:30Z</time>
      </trkpt>
      <trkpt lat="49.80931" lon="2.37905">
        <ele>56.5</ele>
        <time>2022-07-27T09:16:31Z</time>
      </trkpt>
      <trkpt lat="49.80931" lon="2.37906">
        <ele>56.5</ele>
        <time>2022-07-27T09:16:32Z</time>
      </trkpt>
      <trkpt lat="49.80932" lon="2.37906">
        <ele>56.5</ele>
        <time>2022-07-27T09:16:33Z</time>
      </trkpt>
      <trkpt lat="49.80932" lon="2.37908">
        <ele>56.5</ele>
        <time>2022-07-27T09:16:34Z</time>
      </trkpt>
      <trkpt lat="49.80933" lon="2.37909">
        <ele>56.5</ele>
        <time>2022-07-27T09:16:35Z</time>
      </trkpt>
      <trkpt lat="49.80933" lon="2.37911">
        <ele>56.5</ele>
        <time>2022-07-27T09:16:36Z</time>
      </trkpt>
      <trkpt lat="49.80934" lon="2.37913">
        <ele>56.5</ele>
        <time>2022-07-27T09:16:37Z</time>
      </trkpt>
      <trkpt lat="49.80935" lon="2.37915">
        <ele>56.6</ele>
        <time>2022-07-27T09:16:38Z</time>
      </trkpt>
      <trkpt lat="49.80935" lon="2.37916">
        <ele>56.6</ele>
        <time>2022-07-27T09:16:39Z</time>
      </trkpt>
      <trkpt lat="49.80936" lon="2.37919">
        <ele>56.6</ele>
        <time>2022-07-27T09:16:40Z</time>
      </trkpt>
      <trkpt lat="49.80937" lon="2.37921">
        <ele>56.7</ele>
        <time>2022-07-27T09:16:41Z</time>
      </trkpt>
      <trkpt lat="49.80937" lon="2.37922">
        <ele>56.7</ele>
        <time>2022-07-27T09:16:42Z</time>
      </trkpt>
      <trkpt lat="49.80937" lon="2.37923">
        <ele>56.7</ele>
        <time>2022-07-27T09:16:43Z</time>
      </trkpt>
      <trkpt lat="49.80938" lon="2.37925">
        <ele>56.7</ele>
        <time>2022-07-27T09:16:44Z</time>
      </trkpt>
      <trkpt lat="49.80938" lon="2.37926">
        <ele>56.8</ele>
        <time>2022-07-27T09:16:45Z</time>
      </trkpt>
      <trkpt lat="49.80938" lon="2.37927">
        <ele>56.8</ele>
        <time>2022-07-27T09:16:46Z</time>
      </trkpt>
      <trkpt lat="49.80938" lon="2.37929">
        <ele>56.8</ele>
        <time>2022-07-27T09:16:47Z</time>
      </trkpt>
      <trkpt lat="49.80938" lon="2.3793">
        <ele>56.8</ele>
        <time>2022-07-27T09:16:48Z</time>
      </trkpt>
      <trkpt lat="49.80939" lon="2.37932">
        <ele>56.9</ele>
        <time>2022-07-27T09:16:49Z</time>
      </trkpt>
      <trkpt lat="49.80939" lon="2.37933">
        <ele>56.9</ele>
        <time>2022-07-27T09:16:50Z</time>
      </trkpt>
      <trkpt lat="49.80939" lon="2.37935">
        <ele>57</ele>
        <time>2022-07-27T09:16:51Z</time>
      </trkpt>
      <trkpt lat="49.8094" lon="2.37937">
        <ele>57</ele>
        <time>2022-07-27T09:16:52Z</time>
      </trkpt>
      <trkpt lat="49.8094" lon="2.37938">
        <ele>57</ele>
        <time>2022-07-27T09:16:53Z</time>
      </trkpt>
      <trkpt lat="49.8094" lon="2.37939">
        <ele>57.1</ele>
        <time>2022-07-27T09:16:54Z</time>
      </trkpt>
      <trkpt lat="49.80941" lon="2.37941">
        <ele>57.1</ele>
        <time>2022-07-27T09:16:55Z</time>
      </trkpt>
      <trkpt lat="49.80941" lon="2.37942">
        <ele>57.2</ele>
        <time>2022-07-27T09:16:56Z</time>
      </trkpt>
      <trkpt lat="49.80942" lon="2.37943">
        <ele>57.2</ele>
        <time>2022-07-27T09:16:57Z</time>
      </trkpt>
      <trkpt lat="49.80942" lon="2.37945">
        <ele>57.2</ele>
        <time>2022-07-27T09:16:58Z</time>
      </trkpt>
      <trkpt lat="49.80943" lon="2.37946">
        <ele>57.3</ele>
        <time>2022-07-27T09:16:59Z</time>
      </trkpt>
      <trkpt lat="49.80943" lon="2.37948">
        <ele>57.3</ele>
        <time>2022-07-27T09:17:00Z</time>
      </trkpt>
      <trkpt lat="49.80943" lon="2.37949">
        <ele>57.4</ele>
        <time>2022-07-27T09:17:01Z</time>
      </trkpt>
      <trkpt lat="49.80944" lon="2.37951">
        <ele>57.4</ele>
        <time>2022-07-27T09:17:02Z</time>
      </trkpt>
      <trkpt lat="49.80944" lon="2.37952">
        <ele>57.5</ele>
        <time>2022-07-27T09:17:03Z</time>
      </trkpt>
      <trkpt lat="49.80944" lon="2.37953">
        <ele>57.5</ele>
        <time>2022-07-27T09:17:04Z</time>
      </trkpt>
      <trkpt lat="49.80945" lon="2.37955">
        <ele>57.6</ele>
        <time>2022-07-27T09:17:05Z</time>
      </trkpt>
      <trkpt lat="49.80945" lon="2.37957">
        <ele>57.6</ele>
        <time>2022-07-27T09:17:06Z</time>
      </trkpt>
      <trkpt lat="49.80945" lon="2.37959">
        <ele>57.7</ele>
        <time>2022-07-27T09:17:07Z</time>
      </trkpt>
      <trkpt lat="49.80946" lon="2.3796">
        <ele>57.7</ele>
        <time>2022-07-27T09:17:08Z</time>
      </trkpt>
      <trkpt lat="49.80946" lon="2.37961">
        <ele>57.8</ele>
        <time>2022-07-27T09:17:09Z</time>
      </trkpt>
      <trkpt lat="49.80946" lon="2.37963">
        <ele>57.8</ele>
        <time>2022-07-27T09:17:10Z</time>
      </trkpt>
      <trkpt lat="49.80947" lon="2.37964">
        <ele>57.9</ele>
        <time>2022-07-27T09:17:11Z</time>
      </trkpt>
      <trkpt lat="49.80947" lon="2.37966">
        <ele>57.9</ele>
        <time>2022-07-27T09:17:12Z</time>
      </trkpt>
      <trkpt lat="49.80948" lon="2.37967">
        <ele>58</ele>
        <time>2022-07-27T09:17:13Z</time>
      </trkpt>
      <trkpt lat="49.80948" lon="2.37968">
        <ele>58</ele>
        <time>2022-07-27T09:17:14Z</time>
      </trkpt>
      <trkpt lat="49.80949" lon="2.3797">
        <ele>58.1</ele>
        <time>2022-07-27T09:17:15Z</time>
      </trkpt>
      <trkpt lat="49.8095" lon="2.37972">
        <ele>58.1</ele>
        <time>2022-07-27T09:17:16Z</time>
      </trkpt>
      <trkpt lat="49.8095" lon="2.37973">
        <ele>58.2</ele>
        <time>2022-07-27T09:17:17Z</time>
      </trkpt>
      <trkpt lat="49.80951" lon="2.37974">
        <ele>58.2</ele>
        <time>2022-07-27T09:17:18Z</time>
      </trkpt>
      <trkpt lat="49.80951" lon="2.37975">
        <ele>58.2</ele>
        <time>2022-07-27T09:17:19Z</time>
      </trkpt>
      <trkpt lat="49.80952" lon="2.37976">
        <ele>58.3</ele>
        <time>2022-07-27T09:17:20Z</time>
      </trkpt>
      <trkpt lat="49.80953" lon="2.37977">
        <ele>58.3</ele>
        <time>2022-07-27T09:17:21Z</time>
      </trkpt>
      <trkpt lat="49.80954" lon="2.37978">
        <ele>58.4</ele>
        <time>2022-07-27T09:17:22Z</time>
      </trkpt>
      <trkpt lat="49.80955" lon="2.37978">
        <ele>58.4</ele>
        <time>2022-07-27T09:17:23Z</time>
      </trkpt>
      <trkpt lat="49.80956" lon="2.37979">
        <ele>58.5</ele>
        <time>2022-07-27T09:17:24Z</time>
      </trkpt>
      <trkpt lat="49.80957" lon="2.3798">
        <ele>58.5</ele>
        <time>2022-07-27T09:17:25Z</time>
      </trkpt>
      <trkpt lat="49.80959" lon="2.37981">
        <ele>58.6</ele>
        <time>2022-07-27T09:17:26Z</time>
      </trkpt>
      <trkpt lat="49.80961" lon="2.37983">
        <ele>58.7</ele>
        <time>2022-07-27T09:17:27Z</time>
      </trkpt>
      <trkpt lat="49.80961" lon="2.37983">
        <ele>58.7</ele>
        <time>2022-07-27T09:17:28Z</time>
      </trkpt>
      <trkpt lat="49.80962" lon="2.37984">
        <ele>58.7</ele>
        <time>2022-07-27T09:17:29Z</time>
      </trkpt>
      <trkpt lat="49.80964" lon="2.37985">
        <ele>58.8</ele>
        <time>2022-07-27T09:17:30Z</time>
      </trkpt>
      <trkpt lat="49.80965" lon="2.37986">
        <ele>58.8</ele>
        <time>2022-07-27T09:17:31Z</time>
      </trkpt>
      <trkpt lat="49.80966" lon="2.37987">
        <ele>58.9</ele>
        <time>2022-07-27T09:17:32Z</time>
      </trkpt>
      <trkpt lat="49.80968" lon="2.37988">
        <ele>58.9</ele>
        <time>2022-07-27T09:17:33Z</time>
      </trkpt>
      <trkpt lat="49.80968" lon="2.37988">
        <ele>58.9</ele>
        <time>2022-07-27T09:17:34Z</time>
      </trkpt>
      <trkpt lat="49.80969" lon="2.37989">
        <ele>59</ele>
        <time>2022-07-27T09:17:35Z</time>
      </trkpt>
      <trkpt lat="49.8097" lon="2.3799">
        <ele>59</ele>
        <time>2022-07-27T09:17:36Z</time>
      </trkpt>
      <trkpt lat="49.80972" lon="2.37991">
        <ele>59.1</ele>
        <time>2022-07-27T09:17:37Z</time>
      </trkpt>
      <trkpt lat="49.80974" lon="2.37992">
        <ele>59.1</ele>
        <time>2022-07-27T09:17:38Z</time>
      </trkpt>
      <trkpt lat="49.80975" lon="2.37993">
        <ele>59.1</ele>
        <time>2022-07-27T09:17:39Z</time>
      </trkpt>
      <trkpt lat="49.80975" lon="2.37993">
        <ele>59.2</ele>
        <time>2022-07-27T09:17:40Z</time>
      </trkpt>
      <trkpt lat="49.80976" lon="2.37994">
        <ele>59.2</ele>
        <time>2022-07-27T09:17:41Z</time>
      </trkpt>
      <trkpt lat="49.80978" lon="2.37995">
        <ele>59.2</ele>
        <time>2022-07-27T09:17:42Z</time>
      </trkpt>
      <trkpt lat="49.80979" lon="2.37995">
        <ele>59.3</ele>
        <time>2022-07-27T09:17:43Z</time>
      </trkpt>
      <trkpt lat="49.8098" lon="2.37996">
        <ele>59.3</ele>
        <time>2022-07-27T09:17:44Z</time>
      </trkpt>
      <trkpt lat="49.80981" lon="2.37997">
        <ele>59.3</ele>
        <time>2022-07-27T09:17:45Z</time>
      </trkpt>
      <trkpt lat="49.80982" lon="2.37998">
        <ele>59.3</ele>
        <time>2022-07-27T09:17:46Z</time>
      </trkpt>
      <trkpt lat="49.80982" lon="2.37998">
        <ele>59.4</ele>
        <time>2022-07-27T09:17:47Z</time>
      </trkpt>
      <trkpt lat="49.80983" lon="2.37999">
        <ele>59.4</ele>
        <time>2022-07-27T09:17:48Z</time>
      </trkpt>
      <trkpt lat="49.80984" lon="2.38">
        <ele>59.4</ele>
        <time>2022-07-27T09:17:49Z</time>
      </trkpt>
      <trkpt lat="49.80985" lon="2.38001">
        <ele>59.4</ele>
        <time>2022-07-27T09:17:50Z</time>
      </trkpt>
      <trkpt lat="49.80986" lon="2.38003">
        <ele>59.5</ele>
        <time>2022-07-27T09:17:51Z</time>
      </trkpt>
      <trkpt lat="49.80987" lon="2.38004">
        <ele>59.5</ele>
        <time>2022-07-27T09:17:52Z</time>
      </trkpt>
      <trkpt lat="49.80988" lon="2.38005">
        <ele>59.5</ele>
        <time>2022-07-27T09:17:53Z</time>
      </trkpt>
      <trkpt lat="49.80989" lon="2.38005">
        <ele>59.5</ele>
        <time>2022-07-27T09:17:54Z</time>
      </trkpt>
      <trkpt lat="49.8099" lon="2.38007">
        <ele>59.5</ele>
        <time>2022-07-27T09:17:55Z</time>
      </trkpt>
      <trkpt lat="49.80991" lon="2.38008">
        <ele>59.5</ele>
        <time>2022-07-27T09:17:56Z</time>
      </trkpt>
      <trkpt lat="49.80993" lon="2.38009">
        <ele>59.5</ele>
        <time>2022-07-27T09:17:57Z</time>
      </trkpt>
      <trkpt lat="49.80994" lon="2.3801">
        <ele>59.5</ele>
        <time>2022-07-27T09:17:58Z</time>
      </trkpt>
      <trkpt lat="49.80995" lon="2.38011">
        <ele>59.5</ele>
        <time>2022-07-27T09:17:59Z</time>
      </trkpt>
      <trkpt lat="49.80995" lon="2.38012">
        <ele>59.5</ele>
        <time>2022-07-27T09:18:00Z</time>
      </trkpt>
      <trkpt lat="49.80996" lon="2.38013">
        <ele>59.6</ele>
        <time>2022-07-27T09:18:01Z</time>
      </trkpt>
      <trkpt lat="49.80997" lon="2.38014">
        <ele>59.6</ele>
        <time>2022-07-27T09:18:02Z</time>
      </trkpt>
      <trkpt lat="49.80998" lon="2.38015">
        <ele>59.6</ele>
        <time>2022-07-27T09:18:03Z</time>
      </trkpt>
      <trkpt lat="49.81" lon="2.38016">
        <ele>59.6</ele>
        <time>2022-07-27T09:18:04Z</time>
      </trkpt>
      <trkpt lat="49.81001" lon="2.38017">
        <ele>59.6</ele>
        <time>2022-07-27T09:18:05Z</time>
      </trkpt>
      <trkpt lat="49.81002" lon="2.38018">
        <ele>59.6</ele>
        <time>2022-07-27T09:18:06Z</time>
      </trkpt>
      <trkpt lat="49.81003" lon="2.38019">
        <ele>59.6</ele>
        <time>2022-07-27T09:18:07Z</time>
      </trkpt>
      <trkpt lat="49.81004" lon="2.3802">
        <ele>59.6</ele>
        <time>2022-07-27T09:18:08Z</time>
      </trkpt>
      <trkpt lat="49.81006" lon="2.38022">
        <ele>59.6</ele>
        <time>2022-07-27T09:18:09Z</time>
      </trkpt>
      <trkpt lat="49.81007" lon="2.38023">
        <ele>59.6</ele>
        <time>2022-07-27T09:18:10Z</time>
      </trkpt>
      <trkpt lat="49.81007" lon="2.38023">
        <ele>59.6</ele>
        <time>2022-07-27T09:18:11Z</time>
      </trkpt>
      <trkpt lat="49.81009" lon="2.38025">
        <ele>59.6</ele>
        <time>2022-07-27T09:18:12Z</time>
      </trkpt>
      <trkpt lat="49.8101" lon="2.38026">
        <ele>59.6</ele>
        <time>2022-07-27T09:18:13Z</time>
      </trkpt>
      <trkpt lat="49.81011" lon="2.38026">
        <ele>59.6</ele>
        <time>2022-07-27T09:18:14Z</time>
      </trkpt>
      <trkpt lat="49.81012" lon="2.38027">
        <ele>59.6</ele>
        <time>2022-07-27T09:18:15Z</time>
      </trkpt>
      <trkpt lat="49.81013" lon="2.38028">
        <ele>59.6</ele>
        <time>2022-07-27T09:18:16Z</time>
      </trkpt>
      <trkpt lat="49.81013" lon="2.38029">
        <ele>59.6</ele>
        <time>2022-07-27T09:18:17Z</time>
      </trkpt>
      <trkpt lat="49.81014" lon="2.3803">
        <ele>59.6</ele>
        <time>2022-07-27T09:18:18Z</time>
      </trkpt>
      <trkpt lat="49.81015" lon="2.38031">
        <ele>59.6</ele>
        <time>2022-07-27T09:18:19Z</time>
      </trkpt>
      <trkpt lat="49.81016" lon="2.38031">
        <ele>59.6</ele>
        <time>2022-07-27T09:18:20Z</time>
      </trkpt>
      <trkpt lat="49.81017" lon="2.38032">
        <ele>59.6</ele>
        <time>2022-07-27T09:18:21Z</time>
      </trkpt>
      <trkpt lat="49.81018" lon="2.38033">
        <ele>59.6</ele>
        <time>2022-07-27T09:18:22Z</time>
      </trkpt>
      <trkpt lat="49.81019" lon="2.38034">
        <ele>59.6</ele>
        <time>2022-07-27T09:18:23Z</time>
      </trkpt>
      <trkpt lat="49.8102" lon="2.38034">
        <ele>59.6</ele>
        <time>2022-07-27T09:18:24Z</time>
      </trkpt>
      <trkpt lat="49.81021" lon="2.38035">
        <ele>59.6</ele>
        <time>2022-07-27T09:18:25Z</time>
      </trkpt>
      <trkpt lat="49.81022" lon="2.38035">
        <ele>59.6</ele>
        <time>2022-07-27T09:18:26Z</time>
      </trkpt>
      <trkpt lat="49.81024" lon="2.38036">
        <ele>59.6</ele>
        <time>2022-07-27T09:18:27Z</time>
      </trkpt>
      <trkpt lat="49.81024" lon="2.38037">
        <ele>59.6</ele>
        <time>2022-07-27T09:18:28Z</time>
      </trkpt>
      <trkpt lat="49.81025" lon="2.38037">
        <ele>59.6</ele>
        <time>2022-07-27T09:18:29Z</time>
      </trkpt>
      <trkpt lat="49.81027" lon="2.38039">
        <ele>59.6</ele>
        <time>2022-07-27T09:18:30Z</time>
      </trkpt>
      <trkpt lat="49.81027" lon="2.3804">
        <ele>59.6</ele>
        <time>2022-07-27T09:18:31Z</time>
      </trkpt>
      <trkpt lat="49.81028" lon="2.3804">
        <ele>59.6</ele>
        <time>2022-07-27T09:18:32Z</time>
      </trkpt>
      <trkpt lat="49.81029" lon="2.38041">
        <ele>59.6</ele>
        <time>2022-07-27T09:18:33Z</time>
      </trkpt>
      <trkpt lat="49.8103" lon="2.38042">
        <ele>59.6</ele>
        <time>2022-07-27T09:18:34Z</time>
      </trkpt>
      <trkpt lat="49.81031" lon="2.38043">
        <ele>59.6</ele>
        <time>2022-07-27T09:18:35Z</time>
      </trkpt>
      <trkpt lat="49.81032" lon="2.38044">
        <ele>59.6</ele>
        <time>2022-07-27T09:18:36Z</time>
      </trkpt>
      <trkpt lat="49.81034" lon="2.38045">
        <ele>59.6</ele>
        <time>2022-07-27T09:18:37Z</time>
      </trkpt>
      <trkpt lat="49.81035" lon="2.38046">
        <ele>59.6</ele>
        <time>2022-07-27T09:18:38Z</time>
      </trkpt>
      <trkpt lat="49.81036" lon="2.38046">
        <ele>59.6</ele>
        <time>2022-07-27T09:18:39Z</time>
      </trkpt>
      <trkpt lat="49.81037" lon="2.38047">
        <ele>59.6</ele>
        <time>2022-07-27T09:18:40Z</time>
      </trkpt>
      <trkpt lat="49.81038" lon="2.38048">
        <ele>59.6</ele>
        <time>2022-07-27T09:18:41Z</time>
      </trkpt>
      <trkpt lat="49.81039" lon="2.38049">
        <ele>59.6</ele>
        <time>2022-07-27T09:18:42Z</time>
      </trkpt>
      <trkpt lat="49.8104" lon="2.3805">
        <ele>59.6</ele>
        <time>2022-07-27T09:18:43Z</time>
      </trkpt>
      <trkpt lat="49.81041" lon="2.3805">
        <ele>59.6</ele>
        <time>2022-07-27T09:18:44Z</time>
      </trkpt>
      <trkpt lat="49.81042" lon="2.38051">
        <ele>59.6</ele>
        <time>2022-07-27T09:18:45Z</time>
      </trkpt>
      <trkpt lat="49.81043" lon="2.38052">
        <ele>59.6</ele>
        <time>2022-07-27T09:18:46Z</time>
      </trkpt>
      <trkpt lat="49.81045" lon="2.38054">
        <ele>59.7</ele>
        <time>2022-07-27T09:18:47Z</time>
      </trkpt>
      <trkpt lat="49.81045" lon="2.38054">
        <ele>59.7</ele>
        <time>2022-07-27T09:18:48Z</time>
      </trkpt>
      <trkpt lat="49.81046" lon="2.38055">
        <ele>59.7</ele>
        <time>2022-07-27T09:18:49Z</time>
      </trkpt>
      <trkpt lat="49.81047" lon="2.38057">
        <ele>59.7</ele>
        <time>2022-07-27T09:18:50Z</time>
      </trkpt>
      <trkpt lat="49.81047" lon="2.38058">
        <ele>59.7</ele>
        <time>2022-07-27T09:18:51Z</time>
      </trkpt>
      <trkpt lat="49.81048" lon="2.38059">
        <ele>59.7</ele>
        <time>2022-07-27T09:18:52Z</time>
      </trkpt>
      <trkpt lat="49.81049" lon="2.3806">
        <ele>59.7</ele>
        <time>2022-07-27T09:18:53Z</time>
      </trkpt>
      <trkpt lat="49.8105" lon="2.38061">
        <ele>59.7</ele>
        <time>2022-07-27T09:18:54Z</time>
      </trkpt>
      <trkpt lat="49.81051" lon="2.38062">
        <ele>59.8</ele>
        <time>2022-07-27T09:18:55Z</time>
      </trkpt>
      <trkpt lat="49.81053" lon="2.38064">
        <ele>59.8</ele>
        <time>2022-07-27T09:18:56Z</time>
      </trkpt>
      <trkpt lat="49.81054" lon="2.38064">
        <ele>59.8</ele>
        <time>2022-07-27T09:18:57Z</time>
      </trkpt>
      <trkpt lat="49.81054" lon="2.38065">
        <ele>59.8</ele>
        <time>2022-07-27T09:18:58Z</time>
      </trkpt>
      <trkpt lat="49.81056" lon="2.38067">
        <ele>59.8</ele>
        <time>2022-07-27T09:18:59Z</time>
      </trkpt>
      <trkpt lat="49.81056" lon="2.38068">
        <ele>59.8</ele>
        <time>2022-07-27T09:19:00Z</time>
      </trkpt>
      <trkpt lat="49.81057" lon="2.38069">
        <ele>59.8</ele>
        <time>2022-07-27T09:19:01Z</time>
      </trkpt>
      <trkpt lat="49.81059" lon="2.38071">
        <ele>59.9</ele>
        <time>2022-07-27T09:19:02Z</time>
      </trkpt>
      <trkpt lat="49.81059" lon="2.38072">
        <ele>59.9</ele>
        <time>2022-07-27T09:19:03Z</time>
      </trkpt>
      <trkpt lat="49.8106" lon="2.38073">
        <ele>59.9</ele>
        <time>2022-07-27T09:19:04Z</time>
      </trkpt>
      <trkpt lat="49.8106" lon="2.38074">
        <ele>59.9</ele>
        <time>2022-07-27T09:19:05Z</time>
      </trkpt>
      <trkpt lat="49.81061" lon="2.38075">
        <ele>59.9</ele>
        <time>2022-07-27T09:19:06Z</time>
      </trkpt>
      <trkpt lat="49.81062" lon="2.38076">
        <ele>59.9</ele>
        <time>2022-07-27T09:19:07Z</time>
      </trkpt>
      <trkpt lat="49.81062" lon="2.38078">
        <ele>59.9</ele>
        <time>2022-07-27T09:19:08Z</time>
      </trkpt>
      <trkpt lat="49.81063" lon="2.38079">
        <ele>60</ele>
        <time>2022-07-27T09:19:09Z</time>
      </trkpt>
      <trkpt lat="49.81064" lon="2.38081">
        <ele>60</ele>
        <time>2022-07-27T09:19:10Z</time>
      </trkpt>
      <trkpt lat="49.81065" lon="2.38082">
        <ele>60</ele>
        <time>2022-07-27T09:19:11Z</time>
      </trkpt>
      <trkpt lat="49.81066" lon="2.38083">
        <ele>60</ele>
        <time>2022-07-27T09:19:12Z</time>
      </trkpt>
      <trkpt lat="49.81067" lon="2.38085">
        <ele>60</ele>
        <time>2022-07-27T09:19:13Z</time>
      </trkpt>
      <trkpt lat="49.81068" lon="2.38086">
        <ele>60</ele>
        <time>2022-07-27T09:19:14Z</time>
      </trkpt>
      <trkpt lat="49.81068" lon="2.38087">
        <ele>59.9</ele>
        <time>2022-07-27T09:19:15Z</time>
      </trkpt>
      <trkpt lat="49.81069" lon="2.38088">
        <ele>59.9</ele>
        <time>2022-07-27T09:19:16Z</time>
      </trkpt>
      <trkpt lat="49.8107" lon="2.38089">
        <ele>59.9</ele>
        <time>2022-07-27T09:19:17Z</time>
      </trkpt>
      <trkpt lat="49.81071" lon="2.3809">
        <ele>59.9</ele>
        <time>2022-07-27T09:19:18Z</time>
      </trkpt>
      <trkpt lat="49.81071" lon="2.38091">
        <ele>59.9</ele>
        <time>2022-07-27T09:19:19Z</time>
      </trkpt>
      <trkpt lat="49.81072" lon="2.38092">
        <ele>59.9</ele>
        <time>2022-07-27T09:19:20Z</time>
      </trkpt>
      <trkpt lat="49.81073" lon="2.38093">
        <ele>59.9</ele>
        <time>2022-07-27T09:19:21Z</time>
      </trkpt>
      <trkpt lat="49.81075" lon="2.38095">
        <ele>59.9</ele>
        <time>2022-07-27T09:19:22Z</time>
      </trkpt>
      <trkpt lat="49.81075" lon="2.38096">
        <ele>59.9</ele>
        <time>2022-07-27T09:19:23Z</time>
      </trkpt>
      <trkpt lat="49.81076" lon="2.38096">
        <ele>59.9</ele>
        <time>2022-07-27T09:19:24Z</time>
      </trkpt>
      <trkpt lat="49.81078" lon="2.38098">
        <ele>59.9</ele>
        <time>2022-07-27T09:19:25Z</time>
      </trkpt>
      <trkpt lat="49.81078" lon="2.38099">
        <ele>59.9</ele>
        <time>2022-07-27T09:19:26Z</time>
      </trkpt>
      <trkpt lat="49.81079" lon="2.381">
        <ele>59.9</ele>
        <time>2022-07-27T09:19:27Z</time>
      </trkpt>
      <trkpt lat="49.8108" lon="2.381">
        <ele>59.9</ele>
        <time>2022-07-27T09:19:28Z</time>
      </trkpt>
      <trkpt lat="49.81081" lon="2.38101">
        <ele>59.9</ele>
        <time>2022-07-27T09:19:29Z</time>
      </trkpt>
      <trkpt lat="49.81082" lon="2.38102">
        <ele>60</ele>
        <time>2022-07-27T09:19:30Z</time>
      </trkpt>
      <trkpt lat="49.81083" lon="2.38103">
        <ele>60</ele>
        <time>2022-07-27T09:19:31Z</time>
      </trkpt>
      <trkpt lat="49.81085" lon="2.38105">
        <ele>60</ele>
        <time>2022-07-27T09:19:32Z</time>
      </trkpt>
      <trkpt lat="49.81086" lon="2.38105">
        <ele>60</ele>
        <time>2022-07-27T09:19:33Z</time>
      </trkpt>
      <trkpt lat="49.81087" lon="2.38106">
        <ele>60</ele>
        <time>2022-07-27T09:19:34Z</time>
      </trkpt>
      <trkpt lat="49.81087" lon="2.38106">
        <ele>60</ele>
        <time>2022-07-27T09:19:35Z</time>
      </trkpt>
      <trkpt lat="49.81088" lon="2.38107">
        <ele>60</ele>
        <time>2022-07-27T09:19:36Z</time>
      </trkpt>
      <trkpt lat="49.8109" lon="2.38109">
        <ele>60</ele>
        <time>2022-07-27T09:19:37Z</time>
      </trkpt>
      <trkpt lat="49.81091" lon="2.3811">
        <ele>60</ele>
        <time>2022-07-27T09:19:38Z</time>
      </trkpt>
      <trkpt lat="49.81091" lon="2.38111">
        <ele>60</ele>
        <time>2022-07-27T09:19:39Z</time>
      </trkpt>
      <trkpt lat="49.81092" lon="2.38112">
        <ele>60</ele>
        <time>2022-07-27T09:19:40Z</time>
      </trkpt>
      <trkpt lat="49.81093" lon="2.38113">
        <ele>60</ele>
        <time>2022-07-27T09:19:41Z</time>
      </trkpt>
      <trkpt lat="49.81094" lon="2.38114">
        <ele>60.1</ele>
        <time>2022-07-27T09:19:42Z</time>
      </trkpt>
      <trkpt lat="49.81095" lon="2.38114">
        <ele>60.1</ele>
        <time>2022-07-27T09:19:43Z</time>
      </trkpt>
      <trkpt lat="49.81096" lon="2.38115">
        <ele>60.1</ele>
        <time>2022-07-27T09:19:44Z</time>
      </trkpt>
      <trkpt lat="49.81097" lon="2.38116">
        <ele>60.1</ele>
        <time>2022-07-27T09:19:45Z</time>
      </trkpt>
      <trkpt lat="49.81098" lon="2.38117">
        <ele>60.1</ele>
        <time>2022-07-27T09:19:46Z</time>
      </trkpt>
      <trkpt lat="49.81099" lon="2.38117">
        <ele>60.1</ele>
        <time>2022-07-27T09:19:47Z</time>
      </trkpt>
      <trkpt lat="49.811" lon="2.38118">
        <ele>60.1</ele>
        <time>2022-07-27T09:19:48Z</time>
      </trkpt>
      <trkpt lat="49.81101" lon="2.38119">
        <ele>60.2</ele>
        <time>2022-07-27T09:19:49Z</time>
      </trkpt>
      <trkpt lat="49.81102" lon="2.38119">
        <ele>60.2</ele>
        <time>2022-07-27T09:19:50Z</time>
      </trkpt>
      <trkpt lat="49.81103" lon="2.3812">
        <ele>60.2</ele>
        <time>2022-07-27T09:19:51Z</time>
      </trkpt>
      <trkpt lat="49.81105" lon="2.38122">
        <ele>60.2</ele>
        <time>2022-07-27T09:19:52Z</time>
      </trkpt>
      <trkpt lat="49.81106" lon="2.38122">
        <ele>60.2</ele>
        <time>2022-07-27T09:19:53Z</time>
      </trkpt>
      <trkpt lat="49.81106" lon="2.38123">
        <ele>60.2</ele>
        <time>2022-07-27T09:19:54Z</time>
      </trkpt>
      <trkpt lat="49.81108" lon="2.38125">
        <ele>60.2</ele>
        <time>2022-07-27T09:19:55Z</time>
      </trkpt>
      <trkpt lat="49.81109" lon="2.38125">
        <ele>60.3</ele>
        <time>2022-07-27T09:19:56Z</time>
      </trkpt>
      <trkpt lat="49.8111" lon="2.38126">
        <ele>60.3</ele>
        <time>2022-07-27T09:19:57Z</time>
      </trkpt>
      <trkpt lat="49.8111" lon="2.38127">
        <ele>60.3</ele>
        <time>2022-07-27T09:19:58Z</time>
      </trkpt>
      <trkpt lat="49.81111" lon="2.38128">
        <ele>60.3</ele>
        <time>2022-07-27T09:19:59Z</time>
      </trkpt>
      <trkpt lat="49.81112" lon="2.38129">
        <ele>60.3</ele>
        <time>2022-07-27T09:20:00Z</time>
      </trkpt>
      <trkpt lat="49.81113" lon="2.3813">
        <ele>60.3</ele>
        <time>2022-07-27T09:20:01Z</time>
      </trkpt>
      <trkpt lat="49.81114" lon="2.38131">
        <ele>60.4</ele>
        <time>2022-07-27T09:20:02Z</time>
      </trkpt>
      <trkpt lat="49.81116" lon="2.38133">
        <ele>60.4</ele>
        <time>2022-07-27T09:20:03Z</time>
      </trkpt>
      <trkpt lat="49.81117" lon="2.38134">
        <ele>60.4</ele>
        <time>2022-07-27T09:20:04Z</time>
      </trkpt>
      <trkpt lat="49.81117" lon="2.38134">
        <ele>60.4</ele>
        <time>2022-07-27T09:20:05Z</time>
      </trkpt>
      <trkpt lat="49.81118" lon="2.38135">
        <ele>60.4</ele>
        <time>2022-07-27T09:20:06Z</time>
      </trkpt>
      <trkpt lat="49.8112" lon="2.38138">
        <ele>60.5</ele>
        <time>2022-07-27T09:20:07Z</time>
      </trkpt>
      <trkpt lat="49.8112" lon="2.38138">
        <ele>60.5</ele>
        <time>2022-07-27T09:20:08Z</time>
      </trkpt>
      <trkpt lat="49.81121" lon="2.38139">
        <ele>60.5</ele>
        <time>2022-07-27T09:20:09Z</time>
      </trkpt>
      <trkpt lat="49.81122" lon="2.3814">
        <ele>60.5</ele>
        <time>2022-07-27T09:20:10Z</time>
      </trkpt>
      <trkpt lat="49.81123" lon="2.38142">
        <ele>60.6</ele>
        <time>2022-07-27T09:20:11Z</time>
      </trkpt>
      <trkpt lat="49.81124" lon="2.38144">
        <ele>60.6</ele>
        <time>2022-07-27T09:20:12Z</time>
      </trkpt>
      <trkpt lat="49.81124" lon="2.38144">
        <ele>60.6</ele>
        <time>2022-07-27T09:20:13Z</time>
      </trkpt>
      <trkpt lat="49.81125" lon="2.38145">
        <ele>60.6</ele>
        <time>2022-07-27T09:20:14Z</time>
      </trkpt>
      <trkpt lat="49.81126" lon="2.38146">
        <ele>60.6</ele>
        <time>2022-07-27T09:20:15Z</time>
      </trkpt>
      <trkpt lat="49.81126" lon="2.38147">
        <ele>60.7</ele>
        <time>2022-07-27T09:20:16Z</time>
      </trkpt>
      <trkpt lat="49.81127" lon="2.38147">
        <ele>60.7</ele>
        <time>2022-07-27T09:20:17Z</time>
      </trkpt>
      <trkpt lat="49.81128" lon="2.38149">
        <ele>60.7</ele>
        <time>2022-07-27T09:20:18Z</time>
      </trkpt>
      <trkpt lat="49.81129" lon="2.3815">
        <ele>60.7</ele>
        <time>2022-07-27T09:20:19Z</time>
      </trkpt>
      <trkpt lat="49.8113" lon="2.38151">
        <ele>60.8</ele>
        <time>2022-07-27T09:20:20Z</time>
      </trkpt>
      <trkpt lat="49.81131" lon="2.38152">
        <ele>60.8</ele>
        <time>2022-07-27T09:20:21Z</time>
      </trkpt>
      <trkpt lat="49.81131" lon="2.38153">
        <ele>60.8</ele>
        <time>2022-07-27T09:20:22Z</time>
      </trkpt>
      <trkpt lat="49.81132" lon="2.38154">
        <ele>60.9</ele>
        <time>2022-07-27T09:20:23Z</time>
      </trkpt>
      <trkpt lat="49.81133" lon="2.38154">
        <ele>60.9</ele>
        <time>2022-07-27T09:20:24Z</time>
      </trkpt>
      <trkpt lat="49.81135" lon="2.38155">
        <ele>60.9</ele>
        <time>2022-07-27T09:20:25Z</time>
      </trkpt>
      <trkpt lat="49.81136" lon="2.38157">
        <ele>61</ele>
        <time>2022-07-27T09:20:26Z</time>
      </trkpt>
      <trkpt lat="49.81137" lon="2.38157">
        <ele>61</ele>
        <time>2022-07-27T09:20:27Z</time>
      </trkpt>
      <trkpt lat="49.81138" lon="2.38158">
        <ele>61</ele>
        <time>2022-07-27T09:20:28Z</time>
      </trkpt>
      <trkpt lat="49.81139" lon="2.38159">
        <ele>61.1</ele>
        <time>2022-07-27T09:20:29Z</time>
      </trkpt>
      <trkpt lat="49.8114" lon="2.38159">
        <ele>61.1</ele>
        <time>2022-07-27T09:20:30Z</time>
      </trkpt>
      <trkpt lat="49.81141" lon="2.3816">
        <ele>61.1</ele>
        <time>2022-07-27T09:20:31Z</time>
      </trkpt>
      <trkpt lat="49.81141" lon="2.3816">
        <ele>61.1</ele>
        <time>2022-07-27T09:20:32Z</time>
      </trkpt>
      <trkpt lat="49.81142" lon="2.38161">
        <ele>61.2</ele>
        <time>2022-07-27T09:20:33Z</time>
      </trkpt>
      <trkpt lat="49.81143" lon="2.38162">
        <ele>61.2</ele>
        <time>2022-07-27T09:20:34Z</time>
      </trkpt>
      <trkpt lat="49.81144" lon="2.38163">
        <ele>61.2</ele>
        <time>2022-07-27T09:20:35Z</time>
      </trkpt>
      <trkpt lat="49.81145" lon="2.38163">
        <ele>61.2</ele>
        <time>2022-07-27T09:20:36Z</time>
      </trkpt>
      <trkpt lat="49.81146" lon="2.38164">
        <ele>61.3</ele>
        <time>2022-07-27T09:20:37Z</time>
      </trkpt>
      <trkpt lat="49.81147" lon="2.38165">
        <ele>61.3</ele>
        <time>2022-07-27T09:20:38Z</time>
      </trkpt>
      <trkpt lat="49.81148" lon="2.38166">
        <ele>61.3</ele>
        <time>2022-07-27T09:20:39Z</time>
      </trkpt>
      <trkpt lat="49.81149" lon="2.38166">
        <ele>61.4</ele>
        <time>2022-07-27T09:20:40Z</time>
      </trkpt>
      <trkpt lat="49.81151" lon="2.38168">
        <ele>61.4</ele>
        <time>2022-07-27T09:20:41Z</time>
      </trkpt>
      <trkpt lat="49.81152" lon="2.38169">
        <ele>61.4</ele>
        <time>2022-07-27T09:20:42Z</time>
      </trkpt>
      <trkpt lat="49.81152" lon="2.38169">
        <ele>61.4</ele>
        <time>2022-07-27T09:20:43Z</time>
      </trkpt>
      <trkpt lat="49.81153" lon="2.3817">
        <ele>61.5</ele>
        <time>2022-07-27T09:20:44Z</time>
      </trkpt>
      <trkpt lat="49.81154" lon="2.38171">
        <ele>61.5</ele>
        <time>2022-07-27T09:20:45Z</time>
      </trkpt>
      <trkpt lat="49.81155" lon="2.38171">
        <ele>61.5</ele>
        <time>2022-07-27T09:20:46Z</time>
      </trkpt>
      <trkpt lat="49.81156" lon="2.38172">
        <ele>61.5</ele>
        <time>2022-07-27T09:20:47Z</time>
      </trkpt>
      <trkpt lat="49.81157" lon="2.38173">
        <ele>61.5</ele>
        <time>2022-07-27T09:20:48Z</time>
      </trkpt>
      <trkpt lat="49.81158" lon="2.38174">
        <ele>61.6</ele>
        <time>2022-07-27T09:20:49Z</time>
      </trkpt>
      <trkpt lat="49.81159" lon="2.38176">
        <ele>61.6</ele>
        <time>2022-07-27T09:20:50Z</time>
      </trkpt>
      <trkpt lat="49.8116" lon="2.38177">
        <ele>61.6</ele>
        <time>2022-07-27T09:20:51Z</time>
      </trkpt>
      <trkpt lat="49.81162" lon="2.38178">
        <ele>61.6</ele>
        <time>2022-07-27T09:20:52Z</time>
      </trkpt>
      <trkpt lat="49.81162" lon="2.38179">
        <ele>61.6</ele>
        <time>2022-07-27T09:20:53Z</time>
      </trkpt>
      <trkpt lat="49.81163" lon="2.38179">
        <ele>61.6</ele>
        <time>2022-07-27T09:20:54Z</time>
      </trkpt>
      <trkpt lat="49.81164" lon="2.3818">
        <ele>61.6</ele>
        <time>2022-07-27T09:20:55Z</time>
      </trkpt>
      <trkpt lat="49.81165" lon="2.38181">
        <ele>61.6</ele>
        <time>2022-07-27T09:20:56Z</time>
      </trkpt>
      <trkpt lat="49.81166" lon="2.38182">
        <ele>61.5</ele>
        <time>2022-07-27T09:20:57Z</time>
      </trkpt>
      <trkpt lat="49.81168" lon="2.38183">
        <ele>61.5</ele>
        <time>2022-07-27T09:20:58Z</time>
      </trkpt>
      <trkpt lat="49.81168" lon="2.38183">
        <ele>61.5</ele>
        <time>2022-07-27T09:20:59Z</time>
      </trkpt>
      <trkpt lat="49.81169" lon="2.38184">
        <ele>61.5</ele>
        <time>2022-07-27T09:21:00Z</time>
      </trkpt>
      <trkpt lat="49.8117" lon="2.38184">
        <ele>61.5</ele>
        <time>2022-07-27T09:21:01Z</time>
      </trkpt>
      <trkpt lat="49.81171" lon="2.38185">
        <ele>61.4</ele>
        <time>2022-07-27T09:21:02Z</time>
      </trkpt>
      <trkpt lat="49.81172" lon="2.38186">
        <ele>61.4</ele>
        <time>2022-07-27T09:21:03Z</time>
      </trkpt>
      <trkpt lat="49.81173" lon="2.38188">
        <ele>61.4</ele>
        <time>2022-07-27T09:21:04Z</time>
      </trkpt>
      <trkpt lat="49.81174" lon="2.38188">
        <ele>61.3</ele>
        <time>2022-07-27T09:21:05Z</time>
      </trkpt>
      <trkpt lat="49.81175" lon="2.38189">
        <ele>61.3</ele>
        <time>2022-07-27T09:21:06Z</time>
      </trkpt>
      <trkpt lat="49.81176" lon="2.3819">
        <ele>61.3</ele>
        <time>2022-07-27T09:21:07Z</time>
      </trkpt>
      <trkpt lat="49.81177" lon="2.38192">
        <ele>61.2</ele>
        <time>2022-07-27T09:21:08Z</time>
      </trkpt>
      <trkpt lat="49.81178" lon="2.38192">
        <ele>61.2</ele>
        <time>2022-07-27T09:21:09Z</time>
      </trkpt>
      <trkpt lat="49.81178" lon="2.38194">
        <ele>61.1</ele>
        <time>2022-07-27T09:21:10Z</time>
      </trkpt>
      <trkpt lat="49.81179" lon="2.38194">
        <ele>61.1</ele>
        <time>2022-07-27T09:21:11Z</time>
      </trkpt>
      <trkpt lat="49.8118" lon="2.38195">
        <ele>61.1</ele>
        <time>2022-07-27T09:21:12Z</time>
      </trkpt>
      <trkpt lat="49.8118" lon="2.38196">
        <ele>61</ele>
        <time>2022-07-27T09:21:13Z</time>
      </trkpt>
      <trkpt lat="49.81181" lon="2.38197">
        <ele>61</ele>
        <time>2022-07-27T09:21:14Z</time>
      </trkpt>
      <trkpt lat="49.81182" lon="2.38198">
        <ele>60.9</ele>
        <time>2022-07-27T09:21:15Z</time>
      </trkpt>
      <trkpt lat="49.81182" lon="2.38199">
        <ele>60.9</ele>
        <time>2022-07-27T09:21:16Z</time>
      </trkpt>
      <trkpt lat="49.81183" lon="2.382">
        <ele>60.8</ele>
        <time>2022-07-27T09:21:17Z</time>
      </trkpt>
      <trkpt lat="49.81185" lon="2.38202">
        <ele>60.7</ele>
        <time>2022-07-27T09:21:18Z</time>
      </trkpt>
      <trkpt lat="49.81185" lon="2.38202">
        <ele>60.7</ele>
        <time>2022-07-27T09:21:19Z</time>
      </trkpt>
      <trkpt lat="49.81186" lon="2.38203">
        <ele>60.6</ele>
        <time>2022-07-27T09:21:20Z</time>
      </trkpt>
      <trkpt lat="49.81187" lon="2.38203">
        <ele>60.3</ele>
        <time>2022-07-27T09:21:21Z</time>
      </trkpt>
      <trkpt lat="49.81187" lon="2.38203">
        <ele>60.2</ele>
        <time>2022-07-27T09:21:22Z</time>
      </trkpt>
      <trkpt lat="49.81188" lon="2.38203">
        <ele>60.2</ele>
        <time>2022-07-27T09:21:23Z</time>
      </trkpt>
      <trkpt lat="49.81189" lon="2.38203">
        <ele>60.2</ele>
        <time>2022-07-27T09:21:24Z</time>
      </trkpt>
      <trkpt lat="49.81189" lon="2.38203">
        <ele>60.2</ele>
        <time>2022-07-27T09:21:25Z</time>
      </trkpt>
      <trkpt lat="49.8119" lon="2.38203">
        <ele>60.2</ele>
        <time>2022-07-27T09:21:26Z</time>
      </trkpt>
      <trkpt lat="49.8119" lon="2.38204">
        <ele>60.1</ele>
        <time>2022-07-27T09:21:27Z</time>
      </trkpt>
      <trkpt lat="49.81191" lon="2.38205">
        <ele>60.1</ele>
        <time>2022-07-27T09:21:28Z</time>
      </trkpt>
      <trkpt lat="49.81191" lon="2.38205">
        <ele>60.1</ele>
        <time>2022-07-27T09:21:29Z</time>
      </trkpt>
      <trkpt lat="49.81192" lon="2.38206">
        <ele>60.1</ele>
        <time>2022-07-27T09:21:30Z</time>
      </trkpt>
      <trkpt lat="49.81192" lon="2.38207">
        <ele>60</ele>
        <time>2022-07-27T09:21:31Z</time>
      </trkpt>
      <trkpt lat="49.81192" lon="2.38207">
        <ele>60</ele>
        <time>2022-07-27T09:21:32Z</time>
      </trkpt>
      <trkpt lat="49.81192" lon="2.38207">
        <ele>60</ele>
        <time>2022-07-27T09:21:33Z</time>
      </trkpt>
      <trkpt lat="49.81192" lon="2.38207">
        <ele>60</ele>
        <time>2022-07-27T09:21:34Z</time>
      </trkpt>
      <trkpt lat="49.81192" lon="2.38207">
        <ele>60</ele>
        <time>2022-07-27T09:21:35Z</time>
      </trkpt>
      <trkpt lat="49.81192" lon="2.38207">
        <ele>60</ele>
        <time>2022-07-27T09:21:36Z</time>
      </trkpt>
      <trkpt lat="49.81192" lon="2.38207">
        <ele>60</ele>
        <time>2022-07-27T09:21:37Z</time>
      </trkpt>
      <trkpt lat="49.81192" lon="2.38207">
        <ele>60</ele>
        <time>2022-07-27T09:21:38Z</time>
      </trkpt>
      <trkpt lat="49.81192" lon="2.38207">
        <ele>60</ele>
        <time>2022-07-27T09:21:39Z</time>
      </trkpt>
      <trkpt lat="49.81192" lon="2.38207">
        <ele>60</ele>
        <time>2022-07-27T09:21:40Z</time>
      </trkpt>
      <trkpt lat="49.81192" lon="2.38207">
        <ele>60</ele>
        <time>2022-07-27T09:21:41Z</time>
      </trkpt>
      <trkpt lat="49.81192" lon="2.38207">
        <ele>60</ele>
        <time>2022-07-27T09:21:42Z</time>
      </trkpt>
      <trkpt lat="49.81191" lon="2.38207">
        <ele>60</ele>
        <time>2022-07-27T09:21:43Z</time>
      </trkpt>
      <trkpt lat="49.81191" lon="2.38207">
        <ele>60</ele>
        <time>2022-07-27T09:21:44Z</time>
      </trkpt>
      <trkpt lat="49.81191" lon="2.38207">
        <ele>60</ele>
        <time>2022-07-27T09:21:45Z</time>
      </trkpt>
      <trkpt lat="49.81191" lon="2.38207">
        <ele>60</ele>
        <time>2022-07-27T09:21:46Z</time>
      </trkpt>
      <trkpt lat="49.81191" lon="2.38207">
        <ele>60</ele>
        <time>2022-07-27T09:21:47Z</time>
      </trkpt>
      <trkpt lat="49.81191" lon="2.38207">
        <ele>60</ele>
        <time>2022-07-27T09:21:48Z</time>
      </trkpt>
      <trkpt lat="49.8119" lon="2.38203">
        <ele>59.9</ele>
        <time>2022-07-27T09:21:49Z</time>
      </trkpt>
      <trkpt lat="49.8119" lon="2.38201">
        <ele>59.9</ele>
        <time>2022-07-27T09:21:50Z</time>
      </trkpt>
      <trkpt lat="49.81189" lon="2.38201">
        <ele>59.9</ele>
        <time>2022-07-27T09:21:51Z</time>
      </trkpt>
      <trkpt lat="49.81189" lon="2.38201">
        <ele>59.8</ele>
        <time>2022-07-27T09:21:52Z</time>
      </trkpt>
      <trkpt lat="49.81189" lon="2.38201">
        <ele>59.8</ele>
        <time>2022-07-27T09:21:53Z</time>
      </trkpt>
      <trkpt lat="49.81189" lon="2.38201">
        <ele>59.8</ele>
        <time>2022-07-27T09:21:54Z</time>
      </trkpt>
      <trkpt lat="49.81189" lon="2.38201">
        <ele>59.8</ele>
        <time>2022-07-27T09:21:55Z</time>
      </trkpt>
      <trkpt lat="49.81189" lon="2.38201">
        <ele>59.8</ele>
        <time>2022-07-27T09:21:56Z</time>
      </trkpt>
      <trkpt lat="49.81189" lon="2.38201">
        <ele>59.8</ele>
        <time>2022-07-27T09:21:57Z</time>
      </trkpt>
      <trkpt lat="49.81189" lon="2.38201">
        <ele>59.8</ele>
        <time>2022-07-27T09:21:58Z</time>
      </trkpt>
      <trkpt lat="49.81189" lon="2.38201">
        <ele>59.8</ele>
        <time>2022-07-27T09:21:59Z</time>
      </trkpt>
      <trkpt lat="49.81189" lon="2.38201">
        <ele>59.8</ele>
        <time>2022-07-27T09:22:00Z</time>
      </trkpt>
      <trkpt lat="49.81189" lon="2.38201">
        <ele>59.8</ele>
        <time>2022-07-27T09:22:01Z</time>
      </trkpt>
      <trkpt lat="49.81189" lon="2.38201">
        <ele>59.8</ele>
        <time>2022-07-27T09:22:02Z</time>
      </trkpt>
      <trkpt lat="49.81189" lon="2.38201">
        <ele>59.8</ele>
        <time>2022-07-27T09:22:03Z</time>
      </trkpt>
      <trkpt lat="49.81189" lon="2.38201">
        <ele>59.8</ele>
        <time>2022-07-27T09:22:04Z</time>
      </trkpt>
      <trkpt lat="49.81189" lon="2.382">
        <ele>59.8</ele>
        <time>2022-07-27T09:22:05Z</time>
      </trkpt>
      <trkpt lat="49.81189" lon="2.38199">
        <ele>59.8</ele>
        <time>2022-07-27T09:22:06Z</time>
      </trkpt>
      <trkpt lat="49.81189" lon="2.38199">
        <ele>59.8</ele>
        <time>2022-07-27T09:22:07Z</time>
      </trkpt>
      <trkpt lat="49.81188" lon="2.382">
        <ele>59.8</ele>
        <time>2022-07-27T09:22:08Z</time>
      </trkpt>
      <trkpt lat="49.81188" lon="2.38202">
        <ele>59.7</ele>
        <time>2022-07-27T09:22:09Z</time>
      </trkpt>
      <trkpt lat="49.81188" lon="2.38202">
        <ele>59.7</ele>
        <time>2022-07-27T09:22:10Z</time>
      </trkpt>
      <trkpt lat="49.81188" lon="2.38204">
        <ele>59.7</ele>
        <time>2022-07-27T09:22:11Z</time>
      </trkpt>
      <trkpt lat="49.81187" lon="2.38205">
        <ele>59.6</ele>
        <time>2022-07-27T09:22:12Z</time>
      </trkpt>
      <trkpt lat="49.81187" lon="2.38207">
        <ele>59.6</ele>
        <time>2022-07-27T09:22:13Z</time>
      </trkpt>
      <trkpt lat="49.81187" lon="2.38208">
        <ele>59.6</ele>
        <time>2022-07-27T09:22:14Z</time>
      </trkpt>
      <trkpt lat="49.81187" lon="2.3821">
        <ele>59.5</ele>
        <time>2022-07-27T09:22:15Z</time>
      </trkpt>
      <trkpt lat="49.81186" lon="2.38211">
        <ele>59.5</ele>
        <time>2022-07-27T09:22:16Z</time>
      </trkpt>
      <trkpt lat="49.81186" lon="2.38212">
        <ele>59.5</ele>
        <time>2022-07-27T09:22:17Z</time>
      </trkpt>
      <trkpt lat="49.81186" lon="2.38214">
        <ele>59.5</ele>
        <time>2022-07-27T09:22:18Z</time>
      </trkpt>
      <trkpt lat="49.81185" lon="2.38216">
        <ele>59.4</ele>
        <time>2022-07-27T09:22:19Z</time>
      </trkpt>
      <trkpt lat="49.81185" lon="2.38217">
        <ele>59.4</ele>
        <time>2022-07-27T09:22:20Z</time>
      </trkpt>
      <trkpt lat="49.81185" lon="2.38218">
        <ele>59.4</ele>
        <time>2022-07-27T09:22:21Z</time>
      </trkpt>
      <trkpt lat="49.81184" lon="2.38221">
        <ele>59.3</ele>
        <time>2022-07-27T09:22:22Z</time>
      </trkpt>
      <trkpt lat="49.81183" lon="2.38223">
        <ele>59.3</ele>
        <time>2022-07-27T09:22:23Z</time>
      </trkpt>
      <trkpt lat="49.81183" lon="2.38224">
        <ele>59.2</ele>
        <time>2022-07-27T09:22:24Z</time>
      </trkpt>
      <trkpt lat="49.81183" lon="2.38226">
        <ele>59.2</ele>
        <time>2022-07-27T09:22:25Z</time>
      </trkpt>
      <trkpt lat="49.81182" lon="2.38227">
        <ele>59.2</ele>
        <time>2022-07-27T09:22:26Z</time>
      </trkpt>
      <trkpt lat="49.81182" lon="2.38229">
        <ele>59.1</ele>
        <time>2022-07-27T09:22:27Z</time>
      </trkpt>
      <trkpt lat="49.81181" lon="2.3823">
        <ele>59.1</ele>
        <time>2022-07-27T09:22:28Z</time>
      </trkpt>
      <trkpt lat="49.8118" lon="2.38232">
        <ele>59.1</ele>
        <time>2022-07-27T09:22:29Z</time>
      </trkpt>
      <trkpt lat="49.8118" lon="2.38234">
        <ele>59</ele>
        <time>2022-07-27T09:22:30Z</time>
      </trkpt>
      <trkpt lat="49.81179" lon="2.38235">
        <ele>59</ele>
        <time>2022-07-27T09:22:31Z</time>
      </trkpt>
      <trkpt lat="49.81178" lon="2.38237">
        <ele>59</ele>
        <time>2022-07-27T09:22:32Z</time>
      </trkpt>
      <trkpt lat="49.81178" lon="2.3824">
        <ele>58.9</ele>
        <time>2022-07-27T09:22:33Z</time>
      </trkpt>
      <trkpt lat="49.81177" lon="2.38242">
        <ele>58.9</ele>
        <time>2022-07-27T09:22:34Z</time>
      </trkpt>
      <trkpt lat="49.81176" lon="2.38245">
        <ele>58.8</ele>
        <time>2022-07-27T09:22:35Z</time>
      </trkpt>
      <trkpt lat="49.81175" lon="2.38246">
        <ele>58.8</ele>
        <time>2022-07-27T09:22:36Z</time>
      </trkpt>
      <trkpt lat="49.81175" lon="2.38247">
        <ele>58.7</ele>
        <time>2022-07-27T09:22:37Z</time>
      </trkpt>
      <trkpt lat="49.81174" lon="2.3825">
        <ele>58.6</ele>
        <time>2022-07-27T09:22:38Z</time>
      </trkpt>
      <trkpt lat="49.81174" lon="2.38251">
        <ele>58.6</ele>
        <time>2022-07-27T09:22:39Z</time>
      </trkpt>
      <trkpt lat="49.81173" lon="2.38253">
        <ele>58.5</ele>
        <time>2022-07-27T09:22:40Z</time>
      </trkpt>
      <trkpt lat="49.81173" lon="2.38254">
        <ele>58.5</ele>
        <time>2022-07-27T09:22:41Z</time>
      </trkpt>
      <trkpt lat="49.81172" lon="2.38256">
        <ele>58.4</ele>
        <time>2022-07-27T09:22:42Z</time>
      </trkpt>
      <trkpt lat="49.81172" lon="2.38258">
        <ele>58.3</ele>
        <time>2022-07-27T09:22:43Z</time>
      </trkpt>
      <trkpt lat="49.81172" lon="2.3826">
        <ele>58.3</ele>
        <time>2022-07-27T09:22:44Z</time>
      </trkpt>
      <trkpt lat="49.81171" lon="2.38262">
        <ele>58.2</ele>
        <time>2022-07-27T09:22:45Z</time>
      </trkpt>
      <trkpt lat="49.81171" lon="2.38263">
        <ele>58.1</ele>
        <time>2022-07-27T09:22:46Z</time>
      </trkpt>
      <trkpt lat="49.8117" lon="2.38265">
        <ele>58.1</ele>
        <time>2022-07-27T09:22:47Z</time>
      </trkpt>
      <trkpt lat="49.8117" lon="2.38266">
        <ele>58</ele>
        <time>2022-07-27T09:22:48Z</time>
      </trkpt>
      <trkpt lat="49.81169" lon="2.38268">
        <ele>57.9</ele>
        <time>2022-07-27T09:22:49Z</time>
      </trkpt>
      <trkpt lat="49.81169" lon="2.3827">
        <ele>57.9</ele>
        <time>2022-07-27T09:22:50Z</time>
      </trkpt>
      <trkpt lat="49.81169" lon="2.38271">
        <ele>57.8</ele>
        <time>2022-07-27T09:22:51Z</time>
      </trkpt>
      <trkpt lat="49.81169" lon="2.38272">
        <ele>57.8</ele>
        <time>2022-07-27T09:22:52Z</time>
      </trkpt>
      <trkpt lat="49.81168" lon="2.38274">
        <ele>57.7</ele>
        <time>2022-07-27T09:22:53Z</time>
      </trkpt>
      <trkpt lat="49.81168" lon="2.38277">
        <ele>57.6</ele>
        <time>2022-07-27T09:22:54Z</time>
      </trkpt>
      <trkpt lat="49.81168" lon="2.38278">
        <ele>57.6</ele>
        <time>2022-07-27T09:22:55Z</time>
      </trkpt>
      <trkpt lat="49.81167" lon="2.38279">
        <ele>57.5</ele>
        <time>2022-07-27T09:22:56Z</time>
      </trkpt>
      <trkpt lat="49.81167" lon="2.38283">
        <ele>57.4</ele>
        <time>2022-07-27T09:22:57Z</time>
      </trkpt>
      <trkpt lat="49.81167" lon="2.38285">
        <ele>57.3</ele>
        <time>2022-07-27T09:22:58Z</time>
      </trkpt>
      <trkpt lat="49.81166" lon="2.38287">
        <ele>57.3</ele>
        <time>2022-07-27T09:22:59Z</time>
      </trkpt>
      <trkpt lat="49.81166" lon="2.38288">
        <ele>57.2</ele>
        <time>2022-07-27T09:23:00Z</time>
      </trkpt>
      <trkpt lat="49.81166" lon="2.38289">
        <ele>57.2</ele>
        <time>2022-07-27T09:23:01Z</time>
      </trkpt>
      <trkpt lat="49.81165" lon="2.38291">
        <ele>57.1</ele>
        <time>2022-07-27T09:23:02Z</time>
      </trkpt>
      <trkpt lat="49.81165" lon="2.38293">
        <ele>57.1</ele>
        <time>2022-07-27T09:23:03Z</time>
      </trkpt>
      <trkpt lat="49.81164" lon="2.38295">
        <ele>57</ele>
        <time>2022-07-27T09:23:04Z</time>
      </trkpt>
      <trkpt lat="49.81164" lon="2.38296">
        <ele>56.9</ele>
        <time>2022-07-27T09:23:05Z</time>
      </trkpt>
      <trkpt lat="49.81164" lon="2.38297">
        <ele>56.9</ele>
        <time>2022-07-27T09:23:06Z</time>
      </trkpt>
      <trkpt lat="49.81163" lon="2.38299">
        <ele>56.8</ele>
        <time>2022-07-27T09:23:07Z</time>
      </trkpt>
      <trkpt lat="49.81163" lon="2.383">
        <ele>56.8</ele>
        <time>2022-07-27T09:23:08Z</time>
      </trkpt>
      <trkpt lat="49.81163" lon="2.38302">
        <ele>56.7</ele>
        <time>2022-07-27T09:23:09Z</time>
      </trkpt>
      <trkpt lat="49.81162" lon="2.38303">
        <ele>56.7</ele>
        <time>2022-07-27T09:23:10Z</time>
      </trkpt>
      <trkpt lat="49.81162" lon="2.38305">
        <ele>56.6</ele>
        <time>2022-07-27T09:23:11Z</time>
      </trkpt>
      <trkpt lat="49.81162" lon="2.38306">
        <ele>56.6</ele>
        <time>2022-07-27T09:23:12Z</time>
      </trkpt>
      <trkpt lat="49.81162" lon="2.38308">
        <ele>56.5</ele>
        <time>2022-07-27T09:23:13Z</time>
      </trkpt>
      <trkpt lat="49.81162" lon="2.38309">
        <ele>56.5</ele>
        <time>2022-07-27T09:23:14Z</time>
      </trkpt>
      <trkpt lat="49.81161" lon="2.38312">
        <ele>56.4</ele>
        <time>2022-07-27T09:23:15Z</time>
      </trkpt>
      <trkpt lat="49.81161" lon="2.38313">
        <ele>56.3</ele>
        <time>2022-07-27T09:23:16Z</time>
      </trkpt>
      <trkpt lat="49.81161" lon="2.38314">
        <ele>56.3</ele>
        <time>2022-07-27T09:23:17Z</time>
      </trkpt>
      <trkpt lat="49.81161" lon="2.38315">
        <ele>56.3</ele>
        <time>2022-07-27T09:23:18Z</time>
      </trkpt>
      <trkpt lat="49.81161" lon="2.38317">
        <ele>56.2</ele>
        <time>2022-07-27T09:23:19Z</time>
      </trkpt>
      <trkpt lat="49.8116" lon="2.38318">
        <ele>56.2</ele>
        <time>2022-07-27T09:23:20Z</time>
      </trkpt>
      <trkpt lat="49.8116" lon="2.3832">
        <ele>56.1</ele>
        <time>2022-07-27T09:23:21Z</time>
      </trkpt>
      <trkpt lat="49.81159" lon="2.38323">
        <ele>56</ele>
        <time>2022-07-27T09:23:22Z</time>
      </trkpt>
      <trkpt lat="49.81159" lon="2.38325">
        <ele>55.9</ele>
        <time>2022-07-27T09:23:23Z</time>
      </trkpt>
      <trkpt lat="49.81159" lon="2.38327">
        <ele>55.8</ele>
        <time>2022-07-27T09:23:24Z</time>
      </trkpt>
      <trkpt lat="49.81159" lon="2.38328">
        <ele>55.8</ele>
        <time>2022-07-27T09:23:25Z</time>
      </trkpt>
      <trkpt lat="49.81158" lon="2.38329">
        <ele>55.7</ele>
        <time>2022-07-27T09:23:26Z</time>
      </trkpt>
      <trkpt lat="49.81158" lon="2.38331">
        <ele>55.7</ele>
        <time>2022-07-27T09:23:27Z</time>
      </trkpt>
      <trkpt lat="49.81158" lon="2.38333">
        <ele>55.6</ele>
        <time>2022-07-27T09:23:28Z</time>
      </trkpt>
      <trkpt lat="49.81157" lon="2.38334">
        <ele>55.6</ele>
        <time>2022-07-27T09:23:29Z</time>
      </trkpt>
      <trkpt lat="49.81157" lon="2.38336">
        <ele>55.5</ele>
        <time>2022-07-27T09:23:30Z</time>
      </trkpt>
      <trkpt lat="49.81157" lon="2.38338">
        <ele>55.5</ele>
        <time>2022-07-27T09:23:31Z</time>
      </trkpt>
      <trkpt lat="49.81157" lon="2.38339">
        <ele>55.4</ele>
        <time>2022-07-27T09:23:32Z</time>
      </trkpt>
      <trkpt lat="49.81156" lon="2.38341">
        <ele>55.3</ele>
        <time>2022-07-27T09:23:33Z</time>
      </trkpt>
      <trkpt lat="49.81156" lon="2.38343">
        <ele>55.3</ele>
        <time>2022-07-27T09:23:34Z</time>
      </trkpt>
      <trkpt lat="49.81156" lon="2.38344">
        <ele>55.2</ele>
        <time>2022-07-27T09:23:35Z</time>
      </trkpt>
      <trkpt lat="49.81156" lon="2.38345">
        <ele>55.2</ele>
        <time>2022-07-27T09:23:36Z</time>
      </trkpt>
      <trkpt lat="49.81156" lon="2.38349">
        <ele>55.1</ele>
        <time>2022-07-27T09:23:37Z</time>
      </trkpt>
      <trkpt lat="49.81156" lon="2.38351">
        <ele>55</ele>
        <time>2022-07-27T09:23:38Z</time>
      </trkpt>
      <trkpt lat="49.81156" lon="2.38352">
        <ele>54.9</ele>
        <time>2022-07-27T09:23:39Z</time>
      </trkpt>
      <trkpt lat="49.81156" lon="2.38353">
        <ele>54.9</ele>
        <time>2022-07-27T09:23:40Z</time>
      </trkpt>
      <trkpt lat="49.81156" lon="2.38355">
        <ele>54.9</ele>
        <time>2022-07-27T09:23:41Z</time>
      </trkpt>
      <trkpt lat="49.81156" lon="2.38357">
        <ele>54.8</ele>
        <time>2022-07-27T09:23:42Z</time>
      </trkpt>
      <trkpt lat="49.81155" lon="2.3836">
        <ele>54.7</ele>
        <time>2022-07-27T09:23:43Z</time>
      </trkpt>
      <trkpt lat="49.81155" lon="2.38362">
        <ele>54.6</ele>
        <time>2022-07-27T09:23:44Z</time>
      </trkpt>
      <trkpt lat="49.81155" lon="2.38363">
        <ele>54.6</ele>
        <time>2022-07-27T09:23:45Z</time>
      </trkpt>
      <trkpt lat="49.81155" lon="2.38365">
        <ele>54.5</ele>
        <time>2022-07-27T09:23:46Z</time>
      </trkpt>
      <trkpt lat="49.81155" lon="2.38366">
        <ele>54.5</ele>
        <time>2022-07-27T09:23:47Z</time>
      </trkpt>
      <trkpt lat="49.81155" lon="2.38368">
        <ele>54.4</ele>
        <time>2022-07-27T09:23:48Z</time>
      </trkpt>
      <trkpt lat="49.81155" lon="2.3837">
        <ele>54.4</ele>
        <time>2022-07-27T09:23:49Z</time>
      </trkpt>
      <trkpt lat="49.81155" lon="2.38371">
        <ele>54.3</ele>
        <time>2022-07-27T09:23:50Z</time>
      </trkpt>
      <trkpt lat="49.81155" lon="2.38372">
        <ele>54.3</ele>
        <time>2022-07-27T09:23:51Z</time>
      </trkpt>
      <trkpt lat="49.81154" lon="2.38376">
        <ele>54.2</ele>
        <time>2022-07-27T09:23:52Z</time>
      </trkpt>
      <trkpt lat="49.81154" lon="2.38377">
        <ele>54.1</ele>
        <time>2022-07-27T09:23:53Z</time>
      </trkpt>
      <trkpt lat="49.81153" lon="2.38378">
        <ele>54.1</ele>
        <time>2022-07-27T09:23:54Z</time>
      </trkpt>
      <trkpt lat="49.81153" lon="2.38381">
        <ele>54</ele>
        <time>2022-07-27T09:23:55Z</time>
      </trkpt>
      <trkpt lat="49.81152" lon="2.38382">
        <ele>54</ele>
        <time>2022-07-27T09:23:56Z</time>
      </trkpt>
      <trkpt lat="49.81152" lon="2.38383">
        <ele>53.9</ele>
        <time>2022-07-27T09:23:57Z</time>
      </trkpt>
      <trkpt lat="49.8115" lon="2.38386">
        <ele>53.8</ele>
        <time>2022-07-27T09:23:58Z</time>
      </trkpt>
      <trkpt lat="49.81149" lon="2.38387">
        <ele>53.8</ele>
        <time>2022-07-27T09:23:59Z</time>
      </trkpt>
      <trkpt lat="49.81149" lon="2.38388">
        <ele>53.8</ele>
        <time>2022-07-27T09:24:00Z</time>
      </trkpt>
      <trkpt lat="49.81148" lon="2.38389">
        <ele>53.7</ele>
        <time>2022-07-27T09:24:01Z</time>
      </trkpt>
      <trkpt lat="49.81147" lon="2.3839">
        <ele>53.6</ele>
        <time>2022-07-27T09:24:02Z</time>
      </trkpt>
      <trkpt lat="49.81146" lon="2.38391">
        <ele>53.6</ele>
        <time>2022-07-27T09:24:03Z</time>
      </trkpt>
      <trkpt lat="49.81145" lon="2.38392">
        <ele>53.5</ele>
        <time>2022-07-27T09:24:04Z</time>
      </trkpt>
      <trkpt lat="49.81145" lon="2.38393">
        <ele>53.5</ele>
        <time>2022-07-27T09:24:05Z</time>
      </trkpt>
      <trkpt lat="49.81144" lon="2.38394">
        <ele>53.5</ele>
        <time>2022-07-27T09:24:06Z</time>
      </trkpt>
      <trkpt lat="49.81143" lon="2.38395">
        <ele>53.4</ele>
        <time>2022-07-27T09:24:07Z</time>
      </trkpt>
      <trkpt lat="49.81142" lon="2.38396">
        <ele>53.4</ele>
        <time>2022-07-27T09:24:08Z</time>
      </trkpt>
      <trkpt lat="49.81141" lon="2.38399">
        <ele>53.2</ele>
        <time>2022-07-27T09:24:09Z</time>
      </trkpt>
      <trkpt lat="49.8114" lon="2.38399">
        <ele>53.2</ele>
        <time>2022-07-27T09:24:10Z</time>
      </trkpt>
      <trkpt lat="49.8114" lon="2.384">
        <ele>53.1</ele>
        <time>2022-07-27T09:24:11Z</time>
      </trkpt>
      <trkpt lat="49.81139" lon="2.38402">
        <ele>53.1</ele>
        <time>2022-07-27T09:24:12Z</time>
      </trkpt>
      <trkpt lat="49.81138" lon="2.38403">
        <ele>53</ele>
        <time>2022-07-27T09:24:13Z</time>
      </trkpt>
      <trkpt lat="49.81137" lon="2.38404">
        <ele>52.9</ele>
        <time>2022-07-27T09:24:14Z</time>
      </trkpt>
      <trkpt lat="49.81137" lon="2.38405">
        <ele>52.9</ele>
        <time>2022-07-27T09:24:15Z</time>
      </trkpt>
      <trkpt lat="49.81136" lon="2.38407">
        <ele>52.8</ele>
        <time>2022-07-27T09:24:16Z</time>
      </trkpt>
      <trkpt lat="49.81136" lon="2.38409">
        <ele>52.7</ele>
        <time>2022-07-27T09:24:17Z</time>
      </trkpt>
      <trkpt lat="49.81135" lon="2.3841">
        <ele>52.6</ele>
        <time>2022-07-27T09:24:18Z</time>
      </trkpt>
      <trkpt lat="49.81135" lon="2.38413">
        <ele>52.5</ele>
        <time>2022-07-27T09:24:19Z</time>
      </trkpt>
      <trkpt lat="49.81135" lon="2.38413">
        <ele>52.5</ele>
        <time>2022-07-27T09:24:20Z</time>
      </trkpt>
      <trkpt lat="49.81135" lon="2.38414">
        <ele>52.4</ele>
        <time>2022-07-27T09:24:21Z</time>
      </trkpt>
      <trkpt lat="49.81134" lon="2.38416">
        <ele>52.4</ele>
        <time>2022-07-27T09:24:22Z</time>
      </trkpt>
      <trkpt lat="49.81134" lon="2.38417">
        <ele>52.3</ele>
        <time>2022-07-27T09:24:23Z</time>
      </trkpt>
      <trkpt lat="49.81134" lon="2.38419">
        <ele>52.2</ele>
        <time>2022-07-27T09:24:24Z</time>
      </trkpt>
      <trkpt lat="49.81133" lon="2.3842">
        <ele>52.2</ele>
        <time>2022-07-27T09:24:25Z</time>
      </trkpt>
      <trkpt lat="49.81133" lon="2.38422">
        <ele>52.1</ele>
        <time>2022-07-27T09:24:26Z</time>
      </trkpt>
      <trkpt lat="49.81132" lon="2.38425">
        <ele>51.9</ele>
        <time>2022-07-27T09:24:27Z</time>
      </trkpt>
      <trkpt lat="49.81132" lon="2.38427">
        <ele>51.8</ele>
        <time>2022-07-27T09:24:28Z</time>
      </trkpt>
      <trkpt lat="49.81132" lon="2.38428">
        <ele>51.8</ele>
        <time>2022-07-27T09:24:29Z</time>
      </trkpt>
      <trkpt lat="49.81131" lon="2.3843">
        <ele>51.7</ele>
        <time>2022-07-27T09:24:30Z</time>
      </trkpt>
      <trkpt lat="49.81131" lon="2.38432">
        <ele>51.6</ele>
        <time>2022-07-27T09:24:31Z</time>
      </trkpt>
      <trkpt lat="49.81131" lon="2.38433">
        <ele>51.5</ele>
        <time>2022-07-27T09:24:32Z</time>
      </trkpt>
      <trkpt lat="49.8113" lon="2.38435">
        <ele>51.4</ele>
        <time>2022-07-27T09:24:33Z</time>
      </trkpt>
      <trkpt lat="49.8113" lon="2.38438">
        <ele>51.3</ele>
        <time>2022-07-27T09:24:34Z</time>
      </trkpt>
      <trkpt lat="49.8113" lon="2.38439">
        <ele>51.3</ele>
        <time>2022-07-27T09:24:35Z</time>
      </trkpt>
      <trkpt lat="49.81129" lon="2.38441">
        <ele>51.2</ele>
        <time>2022-07-27T09:24:36Z</time>
      </trkpt>
      <trkpt lat="49.81129" lon="2.38442">
        <ele>51.1</ele>
        <time>2022-07-27T09:24:37Z</time>
      </trkpt>
      <trkpt lat="49.81129" lon="2.38444">
        <ele>51</ele>
        <time>2022-07-27T09:24:38Z</time>
      </trkpt>
      <trkpt lat="49.81129" lon="2.38445">
        <ele>51</ele>
        <time>2022-07-27T09:24:39Z</time>
      </trkpt>
      <trkpt lat="49.81128" lon="2.38446">
        <ele>50.9</ele>
        <time>2022-07-27T09:24:40Z</time>
      </trkpt>
      <trkpt lat="49.81127" lon="2.38449">
        <ele>50.8</ele>
        <time>2022-07-27T09:24:41Z</time>
      </trkpt>
      <trkpt lat="49.81127" lon="2.3845">
        <ele>50.7</ele>
        <time>2022-07-27T09:24:42Z</time>
      </trkpt>
      <trkpt lat="49.81127" lon="2.38451">
        <ele>50.6</ele>
        <time>2022-07-27T09:24:43Z</time>
      </trkpt>
      <trkpt lat="49.81125" lon="2.38455">
        <ele>50.4</ele>
        <time>2022-07-27T09:24:44Z</time>
      </trkpt>
      <trkpt lat="49.81125" lon="2.38456">
        <ele>50.4</ele>
        <time>2022-07-27T09:24:45Z</time>
      </trkpt>
      <trkpt lat="49.81125" lon="2.38458">
        <ele>50.3</ele>
        <time>2022-07-27T09:24:46Z</time>
      </trkpt>
      <trkpt lat="49.81124" lon="2.38459">
        <ele>50.2</ele>
        <time>2022-07-27T09:24:47Z</time>
      </trkpt>
      <trkpt lat="49.81124" lon="2.38461">
        <ele>50.1</ele>
        <time>2022-07-27T09:24:48Z</time>
      </trkpt>
      <trkpt lat="49.81123" lon="2.38463">
        <ele>50</ele>
        <time>2022-07-27T09:24:49Z</time>
      </trkpt>
      <trkpt lat="49.81123" lon="2.38465">
        <ele>49.9</ele>
        <time>2022-07-27T09:24:50Z</time>
      </trkpt>
      <trkpt lat="49.81122" lon="2.38467">
        <ele>49.8</ele>
        <time>2022-07-27T09:24:51Z</time>
      </trkpt>
      <trkpt lat="49.81122" lon="2.38468">
        <ele>49.7</ele>
        <time>2022-07-27T09:24:52Z</time>
      </trkpt>
      <trkpt lat="49.81122" lon="2.3847">
        <ele>49.6</ele>
        <time>2022-07-27T09:24:53Z</time>
      </trkpt>
      <trkpt lat="49.81121" lon="2.38472">
        <ele>49.5</ele>
        <time>2022-07-27T09:24:54Z</time>
      </trkpt>
      <trkpt lat="49.81121" lon="2.38473">
        <ele>49.5</ele>
        <time>2022-07-27T09:24:55Z</time>
      </trkpt>
      <trkpt lat="49.8112" lon="2.38474">
        <ele>49.4</ele>
        <time>2022-07-27T09:24:56Z</time>
      </trkpt>
      <trkpt lat="49.8112" lon="2.38475">
        <ele>49.3</ele>
        <time>2022-07-27T09:24:57Z</time>
      </trkpt>
      <trkpt lat="49.8112" lon="2.38476">
        <ele>49.3</ele>
        <time>2022-07-27T09:24:58Z</time>
      </trkpt>
      <trkpt lat="49.81119" lon="2.38478">
        <ele>49.2</ele>
        <time>2022-07-27T09:24:59Z</time>
      </trkpt>
      <trkpt lat="49.81119" lon="2.38479">
        <ele>49.1</ele>
        <time>2022-07-27T09:25:00Z</time>
      </trkpt>
      <trkpt lat="49.81118" lon="2.3848">
        <ele>49.1</ele>
        <time>2022-07-27T09:25:01Z</time>
      </trkpt>
      <trkpt lat="49.81118" lon="2.38481">
        <ele>49</ele>
        <time>2022-07-27T09:25:02Z</time>
      </trkpt>
      <trkpt lat="49.81117" lon="2.38482">
        <ele>48.9</ele>
        <time>2022-07-27T09:25:03Z</time>
      </trkpt>
      <trkpt lat="49.81116" lon="2.38484">
        <ele>48.8</ele>
        <time>2022-07-27T09:25:04Z</time>
      </trkpt>
      <trkpt lat="49.81116" lon="2.38485">
        <ele>48.8</ele>
        <time>2022-07-27T09:25:05Z</time>
      </trkpt>
      <trkpt lat="49.81116" lon="2.38486">
        <ele>48.7</ele>
        <time>2022-07-27T09:25:06Z</time>
      </trkpt>
      <trkpt lat="49.81115" lon="2.38488">
        <ele>48.6</ele>
        <time>2022-07-27T09:25:07Z</time>
      </trkpt>
      <trkpt lat="49.81115" lon="2.38489">
        <ele>48.5</ele>
        <time>2022-07-27T09:25:08Z</time>
      </trkpt>
      <trkpt lat="49.81114" lon="2.38491">
        <ele>48.4</ele>
        <time>2022-07-27T09:25:09Z</time>
      </trkpt>
      <trkpt lat="49.81114" lon="2.38492">
        <ele>48.3</ele>
        <time>2022-07-27T09:25:10Z</time>
      </trkpt>
      <trkpt lat="49.81113" lon="2.38494">
        <ele>48.2</ele>
        <time>2022-07-27T09:25:11Z</time>
      </trkpt>
      <trkpt lat="49.81113" lon="2.38495">
        <ele>48.2</ele>
        <time>2022-07-27T09:25:12Z</time>
      </trkpt>
      <trkpt lat="49.81113" lon="2.38497">
        <ele>48.1</ele>
        <time>2022-07-27T09:25:13Z</time>
      </trkpt>
      <trkpt lat="49.81112" lon="2.38499">
        <ele>48</ele>
        <time>2022-07-27T09:25:14Z</time>
      </trkpt>
      <trkpt lat="49.81112" lon="2.385">
        <ele>47.9</ele>
        <time>2022-07-27T09:25:15Z</time>
      </trkpt>
      <trkpt lat="49.81111" lon="2.38502">
        <ele>47.8</ele>
        <time>2022-07-27T09:25:16Z</time>
      </trkpt>
      <trkpt lat="49.81111" lon="2.38503">
        <ele>47.7</ele>
        <time>2022-07-27T09:25:17Z</time>
      </trkpt>
      <trkpt lat="49.81111" lon="2.38505">
        <ele>47.7</ele>
        <time>2022-07-27T09:25:18Z</time>
      </trkpt>
      <trkpt lat="49.8111" lon="2.38507">
        <ele>47.5</ele>
        <time>2022-07-27T09:25:19Z</time>
      </trkpt>
      <trkpt lat="49.8111" lon="2.38508">
        <ele>47.5</ele>
        <time>2022-07-27T09:25:20Z</time>
      </trkpt>
      <trkpt lat="49.81109" lon="2.3851">
        <ele>47.4</ele>
        <time>2022-07-27T09:25:21Z</time>
      </trkpt>
      <trkpt lat="49.81109" lon="2.38511">
        <ele>47.3</ele>
        <time>2022-07-27T09:25:22Z</time>
      </trkpt>
      <trkpt lat="49.81108" lon="2.38513">
        <ele>47.3</ele>
        <time>2022-07-27T09:25:23Z</time>
      </trkpt>
      <trkpt lat="49.81108" lon="2.38514">
        <ele>47.2</ele>
        <time>2022-07-27T09:25:24Z</time>
      </trkpt>
      <trkpt lat="49.81107" lon="2.38516">
        <ele>47.1</ele>
        <time>2022-07-27T09:25:25Z</time>
      </trkpt>
      <trkpt lat="49.81107" lon="2.38518">
        <ele>47</ele>
        <time>2022-07-27T09:25:26Z</time>
      </trkpt>
      <trkpt lat="49.81106" lon="2.38521">
        <ele>46.8</ele>
        <time>2022-07-27T09:25:27Z</time>
      </trkpt>
      <trkpt lat="49.81105" lon="2.38522">
        <ele>46.8</ele>
        <time>2022-07-27T09:25:28Z</time>
      </trkpt>
      <trkpt lat="49.81105" lon="2.38523">
        <ele>46.7</ele>
        <time>2022-07-27T09:25:29Z</time>
      </trkpt>
      <trkpt lat="49.81105" lon="2.38525">
        <ele>46.6</ele>
        <time>2022-07-27T09:25:30Z</time>
      </trkpt>
      <trkpt lat="49.81104" lon="2.38527">
        <ele>46.5</ele>
        <time>2022-07-27T09:25:31Z</time>
      </trkpt>
      <trkpt lat="49.81104" lon="2.38528">
        <ele>46.5</ele>
        <time>2022-07-27T09:25:32Z</time>
      </trkpt>
      <trkpt lat="49.81104" lon="2.3853">
        <ele>46.4</ele>
        <time>2022-07-27T09:25:33Z</time>
      </trkpt>
      <trkpt lat="49.81103" lon="2.38533">
        <ele>46.3</ele>
        <time>2022-07-27T09:25:34Z</time>
      </trkpt>
      <trkpt lat="49.81103" lon="2.38534">
        <ele>46.2</ele>
        <time>2022-07-27T09:25:35Z</time>
      </trkpt>
      <trkpt lat="49.81103" lon="2.38535">
        <ele>46.1</ele>
        <time>2022-07-27T09:25:36Z</time>
      </trkpt>
      <trkpt lat="49.81103" lon="2.38537">
        <ele>46.1</ele>
        <time>2022-07-27T09:25:37Z</time>
      </trkpt>
      <trkpt lat="49.81102" lon="2.38538">
        <ele>46</ele>
        <time>2022-07-27T09:25:38Z</time>
      </trkpt>
      <trkpt lat="49.81102" lon="2.3854">
        <ele>45.9</ele>
        <time>2022-07-27T09:25:39Z</time>
      </trkpt>
      <trkpt lat="49.81101" lon="2.38542">
        <ele>45.8</ele>
        <time>2022-07-27T09:25:40Z</time>
      </trkpt>
      <trkpt lat="49.81101" lon="2.38544">
        <ele>45.7</ele>
        <time>2022-07-27T09:25:41Z</time>
      </trkpt>
      <trkpt lat="49.81101" lon="2.38545">
        <ele>45.7</ele>
        <time>2022-07-27T09:25:42Z</time>
      </trkpt>
      <trkpt lat="49.81101" lon="2.38547">
        <ele>45.6</ele>
        <time>2022-07-27T09:25:43Z</time>
      </trkpt>
      <trkpt lat="49.81101" lon="2.38548">
        <ele>45.6</ele>
        <time>2022-07-27T09:25:44Z</time>
      </trkpt>
      <trkpt lat="49.811" lon="2.38549">
        <ele>45.5</ele>
        <time>2022-07-27T09:25:45Z</time>
      </trkpt>
      <trkpt lat="49.811" lon="2.38551">
        <ele>45.4</ele>
        <time>2022-07-27T09:25:46Z</time>
      </trkpt>
      <trkpt lat="49.81099" lon="2.38552">
        <ele>45.3</ele>
        <time>2022-07-27T09:25:47Z</time>
      </trkpt>
      <trkpt lat="49.81098" lon="2.38555">
        <ele>45.2</ele>
        <time>2022-07-27T09:25:48Z</time>
      </trkpt>
      <trkpt lat="49.81097" lon="2.38557">
        <ele>45.1</ele>
        <time>2022-07-27T09:25:49Z</time>
      </trkpt>
      <trkpt lat="49.81097" lon="2.38558">
        <ele>45.1</ele>
        <time>2022-07-27T09:25:50Z</time>
      </trkpt>
      <trkpt lat="49.81096" lon="2.38561">
        <ele>44.9</ele>
        <time>2022-07-27T09:25:51Z</time>
      </trkpt>
      <trkpt lat="49.81095" lon="2.38562">
        <ele>44.9</ele>
        <time>2022-07-27T09:25:52Z</time>
      </trkpt>
      <trkpt lat="49.81095" lon="2.38563">
        <ele>44.8</ele>
        <time>2022-07-27T09:25:53Z</time>
      </trkpt>
      <trkpt lat="49.81094" lon="2.38566">
        <ele>44.7</ele>
        <time>2022-07-27T09:25:54Z</time>
      </trkpt>
      <trkpt lat="49.81093" lon="2.38567">
        <ele>44.6</ele>
        <time>2022-07-27T09:25:55Z</time>
      </trkpt>
      <trkpt lat="49.81093" lon="2.38568">
        <ele>44.5</ele>
        <time>2022-07-27T09:25:56Z</time>
      </trkpt>
      <trkpt lat="49.81092" lon="2.38571">
        <ele>44.4</ele>
        <time>2022-07-27T09:25:57Z</time>
      </trkpt>
      <trkpt lat="49.81091" lon="2.38572">
        <ele>44.3</ele>
        <time>2022-07-27T09:25:58Z</time>
      </trkpt>
      <trkpt lat="49.81091" lon="2.38573">
        <ele>44.3</ele>
        <time>2022-07-27T09:25:59Z</time>
      </trkpt>
      <trkpt lat="49.81089" lon="2.38576">
        <ele>44.1</ele>
        <time>2022-07-27T09:26:00Z</time>
      </trkpt>
      <trkpt lat="49.81089" lon="2.38577">
        <ele>44.1</ele>
        <time>2022-07-27T09:26:01Z</time>
      </trkpt>
      <trkpt lat="49.81088" lon="2.38578">
        <ele>44</ele>
        <time>2022-07-27T09:26:02Z</time>
      </trkpt>
      <trkpt lat="49.81088" lon="2.38579">
        <ele>43.9</ele>
        <time>2022-07-27T09:26:03Z</time>
      </trkpt>
      <trkpt lat="49.81087" lon="2.3858">
        <ele>43.8</ele>
        <time>2022-07-27T09:26:04Z</time>
      </trkpt>
      <trkpt lat="49.81086" lon="2.38582">
        <ele>43.8</ele>
        <time>2022-07-27T09:26:05Z</time>
      </trkpt>
      <trkpt lat="49.81086" lon="2.38583">
        <ele>43.7</ele>
        <time>2022-07-27T09:26:06Z</time>
      </trkpt>
      <trkpt lat="49.81085" lon="2.38584">
        <ele>43.6</ele>
        <time>2022-07-27T09:26:07Z</time>
      </trkpt>
      <trkpt lat="49.81084" lon="2.38585">
        <ele>43.5</ele>
        <time>2022-07-27T09:26:08Z</time>
      </trkpt>
      <trkpt lat="49.81084" lon="2.38587">
        <ele>43.5</ele>
        <time>2022-07-27T09:26:09Z</time>
      </trkpt>
      <trkpt lat="49.81083" lon="2.38588">
        <ele>43.4</ele>
        <time>2022-07-27T09:26:10Z</time>
      </trkpt>
      <trkpt lat="49.81082" lon="2.38589">
        <ele>43.3</ele>
        <time>2022-07-27T09:26:11Z</time>
      </trkpt>
      <trkpt lat="49.81081" lon="2.38592">
        <ele>43.1</ele>
        <time>2022-07-27T09:26:12Z</time>
      </trkpt>
      <trkpt lat="49.8108" lon="2.38593">
        <ele>43.1</ele>
        <time>2022-07-27T09:26:13Z</time>
      </trkpt>
      <trkpt lat="49.8108" lon="2.38594">
        <ele>43</ele>
        <time>2022-07-27T09:26:14Z</time>
      </trkpt>
      <trkpt lat="49.81079" lon="2.38595">
        <ele>42.9</ele>
        <time>2022-07-27T09:26:15Z</time>
      </trkpt>
      <trkpt lat="49.81078" lon="2.38596">
        <ele>42.9</ele>
        <time>2022-07-27T09:26:16Z</time>
      </trkpt>
      <trkpt lat="49.81077" lon="2.38598">
        <ele>42.8</ele>
        <time>2022-07-27T09:26:17Z</time>
      </trkpt>
      <trkpt lat="49.81076" lon="2.386">
        <ele>42.6</ele>
        <time>2022-07-27T09:26:18Z</time>
      </trkpt>
      <trkpt lat="49.81075" lon="2.38601">
        <ele>42.6</ele>
        <time>2022-07-27T09:26:19Z</time>
      </trkpt>
      <trkpt lat="49.81075" lon="2.38602">
        <ele>42.5</ele>
        <time>2022-07-27T09:26:20Z</time>
      </trkpt>
      <trkpt lat="49.81074" lon="2.38604">
        <ele>42.3</ele>
        <time>2022-07-27T09:26:21Z</time>
      </trkpt>
      <trkpt lat="49.81073" lon="2.38605">
        <ele>42.3</ele>
        <time>2022-07-27T09:26:22Z</time>
      </trkpt>
      <trkpt lat="49.81072" lon="2.38606">
        <ele>42.2</ele>
        <time>2022-07-27T09:26:23Z</time>
      </trkpt>
      <trkpt lat="49.81072" lon="2.38607">
        <ele>42.1</ele>
        <time>2022-07-27T09:26:24Z</time>
      </trkpt>
      <trkpt lat="49.81071" lon="2.38609">
        <ele>42.1</ele>
        <time>2022-07-27T09:26:25Z</time>
      </trkpt>
      <trkpt lat="49.81071" lon="2.38609">
        <ele>42</ele>
        <time>2022-07-27T09:26:26Z</time>
      </trkpt>
      <trkpt lat="49.8107" lon="2.3861">
        <ele>42</ele>
        <time>2022-07-27T09:26:27Z</time>
      </trkpt>
      <trkpt lat="49.8107" lon="2.38612">
        <ele>41.9</ele>
        <time>2022-07-27T09:26:28Z</time>
      </trkpt>
      <trkpt lat="49.8107" lon="2.38613">
        <ele>41.8</ele>
        <time>2022-07-27T09:26:29Z</time>
      </trkpt>
      <trkpt lat="49.81069" lon="2.38614">
        <ele>41.7</ele>
        <time>2022-07-27T09:26:30Z</time>
      </trkpt>
      <trkpt lat="49.81068" lon="2.38615">
        <ele>41.7</ele>
        <time>2022-07-27T09:26:31Z</time>
      </trkpt>
      <trkpt lat="49.81067" lon="2.38614">
        <ele>41.6</ele>
        <time>2022-07-27T09:26:32Z</time>
      </trkpt>
      <trkpt lat="49.81066" lon="2.38614">
        <ele>41.5</ele>
        <time>2022-07-27T09:26:33Z</time>
      </trkpt>
      <trkpt lat="49.81065" lon="2.38614">
        <ele>41.4</ele>
        <time>2022-07-27T09:26:34Z</time>
      </trkpt>
      <trkpt lat="49.81064" lon="2.38615">
        <ele>41.5</ele>
        <time>2022-07-27T09:26:35Z</time>
      </trkpt>
      <trkpt lat="49.81063" lon="2.38615">
        <ele>41.5</ele>
        <time>2022-07-27T09:26:36Z</time>
      </trkpt>
      <trkpt lat="49.81063" lon="2.38615">
        <ele>41.5</ele>
        <time>2022-07-27T09:26:37Z</time>
      </trkpt>
      <trkpt lat="49.81063" lon="2.38615">
        <ele>41.5</ele>
        <time>2022-07-27T09:26:38Z</time>
      </trkpt>
      <trkpt lat="49.81063" lon="2.38614">
        <ele>41.5</ele>
        <time>2022-07-27T09:26:39Z</time>
      </trkpt>
      <trkpt lat="49.81064" lon="2.38613">
        <ele>41.5</ele>
        <time>2022-07-27T09:26:40Z</time>
      </trkpt>
      <trkpt lat="49.81064" lon="2.38612">
        <ele>41.5</ele>
        <time>2022-07-27T09:26:41Z</time>
      </trkpt>
      <trkpt lat="49.81063" lon="2.38612">
        <ele>41.5</ele>
        <time>2022-07-27T09:26:42Z</time>
      </trkpt>
      <trkpt lat="49.81063" lon="2.38611">
        <ele>41.5</ele>
        <time>2022-07-27T09:26:43Z</time>
      </trkpt>
      <trkpt lat="49.81062" lon="2.3861">
        <ele>41.5</ele>
        <time>2022-07-27T09:26:44Z</time>
      </trkpt>
      <trkpt lat="49.81062" lon="2.3861">
        <ele>41.5</ele>
        <time>2022-07-27T09:26:45Z</time>
      </trkpt>
      <trkpt lat="49.81061" lon="2.38609">
        <ele>41.5</ele>
        <time>2022-07-27T09:26:46Z</time>
      </trkpt>
      <trkpt lat="49.81061" lon="2.38607">
        <ele>41.5</ele>
        <time>2022-07-27T09:26:47Z</time>
      </trkpt>
      <trkpt lat="49.8106" lon="2.38606">
        <ele>41.5</ele>
        <time>2022-07-27T09:26:48Z</time>
      </trkpt>
      <trkpt lat="49.8106" lon="2.38605">
        <ele>41.5</ele>
        <time>2022-07-27T09:26:49Z</time>
      </trkpt>
      <trkpt lat="49.8106" lon="2.38604">
        <ele>41.5</ele>
        <time>2022-07-27T09:26:50Z</time>
      </trkpt>
      <trkpt lat="49.8106" lon="2.38603">
        <ele>41.5</ele>
        <time>2022-07-27T09:26:51Z</time>
      </trkpt>
      <trkpt lat="49.81059" lon="2.38602">
        <ele>41.5</ele>
        <time>2022-07-27T09:26:52Z</time>
      </trkpt>
      <trkpt lat="49.81059" lon="2.386">
        <ele>41.5</ele>
        <time>2022-07-27T09:26:53Z</time>
      </trkpt>
      <trkpt lat="49.81059" lon="2.38599">
        <ele>41.5</ele>
        <time>2022-07-27T09:26:54Z</time>
      </trkpt>
      <trkpt lat="49.81059" lon="2.38597">
        <ele>41.5</ele>
        <time>2022-07-27T09:26:55Z</time>
      </trkpt>
      <trkpt lat="49.81059" lon="2.38596">
        <ele>41.5</ele>
        <time>2022-07-27T09:26:56Z</time>
      </trkpt>
      <trkpt lat="49.81059" lon="2.38595">
        <ele>41.5</ele>
        <time>2022-07-27T09:26:57Z</time>
      </trkpt>
      <trkpt lat="49.81059" lon="2.38594">
        <ele>41.5</ele>
        <time>2022-07-27T09:26:58Z</time>
      </trkpt>
      <trkpt lat="49.81058" lon="2.38593">
        <ele>41.5</ele>
        <time>2022-07-27T09:26:59Z</time>
      </trkpt>
      <trkpt lat="49.81058" lon="2.38592">
        <ele>41.5</ele>
        <time>2022-07-27T09:27:00Z</time>
      </trkpt>
      <trkpt lat="49.81057" lon="2.38591">
        <ele>41.5</ele>
        <time>2022-07-27T09:27:01Z</time>
      </trkpt>
      <trkpt lat="49.81057" lon="2.3859">
        <ele>41.5</ele>
        <time>2022-07-27T09:27:02Z</time>
      </trkpt>
      <trkpt lat="49.81056" lon="2.38589">
        <ele>41.5</ele>
        <time>2022-07-27T09:27:03Z</time>
      </trkpt>
      <trkpt lat="49.81055" lon="2.38588">
        <ele>41.5</ele>
        <time>2022-07-27T09:27:04Z</time>
      </trkpt>
      <trkpt lat="49.81054" lon="2.38587">
        <ele>41.5</ele>
        <time>2022-07-27T09:27:05Z</time>
      </trkpt>
      <trkpt lat="49.81054" lon="2.38586">
        <ele>41.5</ele>
        <time>2022-07-27T09:27:06Z</time>
      </trkpt>
      <trkpt lat="49.81053" lon="2.38586">
        <ele>41.5</ele>
        <time>2022-07-27T09:27:07Z</time>
      </trkpt>
      <trkpt lat="49.81052" lon="2.38584">
        <ele>41.5</ele>
        <time>2022-07-27T09:27:08Z</time>
      </trkpt>
      <trkpt lat="49.81051" lon="2.38583">
        <ele>41.5</ele>
        <time>2022-07-27T09:27:09Z</time>
      </trkpt>
      <trkpt lat="49.8105" lon="2.38582">
        <ele>41.5</ele>
        <time>2022-07-27T09:27:10Z</time>
      </trkpt>
      <trkpt lat="49.81049" lon="2.38581">
        <ele>41.5</ele>
        <time>2022-07-27T09:27:11Z</time>
      </trkpt>
      <trkpt lat="49.81048" lon="2.3858">
        <ele>41.5</ele>
        <time>2022-07-27T09:27:12Z</time>
      </trkpt>
      <trkpt lat="49.81047" lon="2.38578">
        <ele>41.5</ele>
        <time>2022-07-27T09:27:13Z</time>
      </trkpt>
      <trkpt lat="49.81046" lon="2.38577">
        <ele>41.5</ele>
        <time>2022-07-27T09:27:14Z</time>
      </trkpt>
      <trkpt lat="49.81045" lon="2.38576">
        <ele>41.4</ele>
        <time>2022-07-27T09:27:15Z</time>
      </trkpt>
      <trkpt lat="49.81045" lon="2.38575">
        <ele>41.4</ele>
        <time>2022-07-27T09:27:16Z</time>
      </trkpt>
      <trkpt lat="49.81044" lon="2.38574">
        <ele>41.4</ele>
        <time>2022-07-27T09:27:17Z</time>
      </trkpt>
      <trkpt lat="49.81043" lon="2.38573">
        <ele>41.4</ele>
        <time>2022-07-27T09:27:18Z</time>
      </trkpt>
      <trkpt lat="49.81043" lon="2.38572">
        <ele>41.4</ele>
        <time>2022-07-27T09:27:19Z</time>
      </trkpt>
      <trkpt lat="49.81042" lon="2.38571">
        <ele>41.4</ele>
        <time>2022-07-27T09:27:20Z</time>
      </trkpt>
      <trkpt lat="49.81041" lon="2.3857">
        <ele>41.4</ele>
        <time>2022-07-27T09:27:21Z</time>
      </trkpt>
      <trkpt lat="49.8104" lon="2.38569">
        <ele>41.4</ele>
        <time>2022-07-27T09:27:22Z</time>
      </trkpt>
      <trkpt lat="49.81039" lon="2.38567">
        <ele>41.3</ele>
        <time>2022-07-27T09:27:23Z</time>
      </trkpt>
      <trkpt lat="49.81038" lon="2.38566">
        <ele>41.3</ele>
        <time>2022-07-27T09:27:24Z</time>
      </trkpt>
      <trkpt lat="49.81038" lon="2.38565">
        <ele>41.3</ele>
        <time>2022-07-27T09:27:25Z</time>
      </trkpt>
      <trkpt lat="49.81037" lon="2.38564">
        <ele>41.3</ele>
        <time>2022-07-27T09:27:26Z</time>
      </trkpt>
      <trkpt lat="49.81036" lon="2.38563">
        <ele>41.3</ele>
        <time>2022-07-27T09:27:27Z</time>
      </trkpt>
      <trkpt lat="49.81035" lon="2.38562">
        <ele>41.3</ele>
        <time>2022-07-27T09:27:28Z</time>
      </trkpt>
      <trkpt lat="49.81035" lon="2.38562">
        <ele>41.3</ele>
        <time>2022-07-27T09:27:29Z</time>
      </trkpt>
      <trkpt lat="49.81034" lon="2.3856">
        <ele>41.2</ele>
        <time>2022-07-27T09:27:30Z</time>
      </trkpt>
      <trkpt lat="49.81033" lon="2.38559">
        <ele>41.2</ele>
        <time>2022-07-27T09:27:31Z</time>
      </trkpt>
      <trkpt lat="49.81033" lon="2.38558">
        <ele>41.2</ele>
        <time>2022-07-27T09:27:32Z</time>
      </trkpt>
      <trkpt lat="49.81031" lon="2.38556">
        <ele>41.2</ele>
        <time>2022-07-27T09:27:33Z</time>
      </trkpt>
      <trkpt lat="49.8103" lon="2.38555">
        <ele>41.2</ele>
        <time>2022-07-27T09:27:34Z</time>
      </trkpt>
      <trkpt lat="49.8103" lon="2.38554">
        <ele>41.1</ele>
        <time>2022-07-27T09:27:35Z</time>
      </trkpt>
      <trkpt lat="49.81029" lon="2.38553">
        <ele>41.1</ele>
        <time>2022-07-27T09:27:36Z</time>
      </trkpt>
      <trkpt lat="49.81028" lon="2.38553">
        <ele>41.1</ele>
        <time>2022-07-27T09:27:37Z</time>
      </trkpt>
      <trkpt lat="49.81028" lon="2.38552">
        <ele>41.1</ele>
        <time>2022-07-27T09:27:38Z</time>
      </trkpt>
      <trkpt lat="49.81027" lon="2.38551">
        <ele>41.1</ele>
        <time>2022-07-27T09:27:39Z</time>
      </trkpt>
      <trkpt lat="49.81026" lon="2.3855">
        <ele>41.1</ele>
        <time>2022-07-27T09:27:40Z</time>
      </trkpt>
      <trkpt lat="49.81025" lon="2.3855">
        <ele>41</ele>
        <time>2022-07-27T09:27:41Z</time>
      </trkpt>
      <trkpt lat="49.81024" lon="2.38549">
        <ele>41</ele>
        <time>2022-07-27T09:27:42Z</time>
      </trkpt>
      <trkpt lat="49.81022" lon="2.38547">
        <ele>41</ele>
        <time>2022-07-27T09:27:43Z</time>
      </trkpt>
      <trkpt lat="49.81022" lon="2.38546">
        <ele>41</ele>
        <time>2022-07-27T09:27:44Z</time>
      </trkpt>
      <trkpt lat="49.81021" lon="2.38545">
        <ele>40.9</ele>
        <time>2022-07-27T09:27:45Z</time>
      </trkpt>
      <trkpt lat="49.81019" lon="2.38545">
        <ele>40.9</ele>
        <time>2022-07-27T09:27:46Z</time>
      </trkpt>
      <trkpt lat="49.81019" lon="2.38544">
        <ele>40.9</ele>
        <time>2022-07-27T09:27:47Z</time>
      </trkpt>
      <trkpt lat="49.81018" lon="2.38544">
        <ele>40.9</ele>
        <time>2022-07-27T09:27:48Z</time>
      </trkpt>
      <trkpt lat="49.81017" lon="2.38543">
        <ele>40.9</ele>
        <time>2022-07-27T09:27:49Z</time>
      </trkpt>
      <trkpt lat="49.81015" lon="2.38542">
        <ele>40.8</ele>
        <time>2022-07-27T09:27:50Z</time>
      </trkpt>
      <trkpt lat="49.81015" lon="2.38541">
        <ele>40.8</ele>
        <time>2022-07-27T09:27:51Z</time>
      </trkpt>
      <trkpt lat="49.81014" lon="2.3854">
        <ele>40.8</ele>
        <time>2022-07-27T09:27:52Z</time>
      </trkpt>
      <trkpt lat="49.81013" lon="2.38539">
        <ele>40.8</ele>
        <time>2022-07-27T09:27:53Z</time>
      </trkpt>
      <trkpt lat="49.81011" lon="2.38538">
        <ele>40.8</ele>
        <time>2022-07-27T09:27:54Z</time>
      </trkpt>
      <trkpt lat="49.81009" lon="2.38536">
        <ele>40.7</ele>
        <time>2022-07-27T09:27:55Z</time>
      </trkpt>
      <trkpt lat="49.81008" lon="2.38536">
        <ele>40.7</ele>
        <time>2022-07-27T09:27:56Z</time>
      </trkpt>
      <trkpt lat="49.81007" lon="2.38535">
        <ele>40.7</ele>
        <time>2022-07-27T09:27:57Z</time>
      </trkpt>
      <trkpt lat="49.81006" lon="2.38535">
        <ele>40.7</ele>
        <time>2022-07-27T09:27:58Z</time>
      </trkpt>
      <trkpt lat="49.81006" lon="2.38534">
        <ele>40.7</ele>
        <time>2022-07-27T09:27:59Z</time>
      </trkpt>
      <trkpt lat="49.81004" lon="2.38533">
        <ele>40.7</ele>
        <time>2022-07-27T09:28:00Z</time>
      </trkpt>
      <trkpt lat="49.81004" lon="2.38532">
        <ele>40.7</ele>
        <time>2022-07-27T09:28:01Z</time>
      </trkpt>
      <trkpt lat="49.81003" lon="2.38531">
        <ele>40.6</ele>
        <time>2022-07-27T09:28:02Z</time>
      </trkpt>
      <trkpt lat="49.81001" lon="2.38529">
        <ele>40.6</ele>
        <time>2022-07-27T09:28:03Z</time>
      </trkpt>
      <trkpt lat="49.81" lon="2.38528">
        <ele>40.6</ele>
        <time>2022-07-27T09:28:04Z</time>
      </trkpt>
      <trkpt lat="49.81" lon="2.38528">
        <ele>40.6</ele>
        <time>2022-07-27T09:28:05Z</time>
      </trkpt>
      <trkpt lat="49.80999" lon="2.38526">
        <ele>40.6</ele>
        <time>2022-07-27T09:28:06Z</time>
      </trkpt>
      <trkpt lat="49.80998" lon="2.38525">
        <ele>40.6</ele>
        <time>2022-07-27T09:28:07Z</time>
      </trkpt>
      <trkpt lat="49.80997" lon="2.38524">
        <ele>40.5</ele>
        <time>2022-07-27T09:28:08Z</time>
      </trkpt>
      <trkpt lat="49.80996" lon="2.38521">
        <ele>40.5</ele>
        <time>2022-07-27T09:28:09Z</time>
      </trkpt>
      <trkpt lat="49.80995" lon="2.3852">
        <ele>40.5</ele>
        <time>2022-07-27T09:28:10Z</time>
      </trkpt>
      <trkpt lat="49.80995" lon="2.38519">
        <ele>40.5</ele>
        <time>2022-07-27T09:28:11Z</time>
      </trkpt>
      <trkpt lat="49.80994" lon="2.38518">
        <ele>40.5</ele>
        <time>2022-07-27T09:28:12Z</time>
      </trkpt>
      <trkpt lat="49.80993" lon="2.38516">
        <ele>40.5</ele>
        <time>2022-07-27T09:28:13Z</time>
      </trkpt>
      <trkpt lat="49.80993" lon="2.38515">
        <ele>40.5</ele>
        <time>2022-07-27T09:28:14Z</time>
      </trkpt>
      <trkpt lat="49.80992" lon="2.38514">
        <ele>40.4</ele>
        <time>2022-07-27T09:28:15Z</time>
      </trkpt>
      <trkpt lat="49.80991" lon="2.38513">
        <ele>40.4</ele>
        <time>2022-07-27T09:28:16Z</time>
      </trkpt>
      <trkpt lat="49.80991" lon="2.38512">
        <ele>40.4</ele>
        <time>2022-07-27T09:28:17Z</time>
      </trkpt>
      <trkpt lat="49.8099" lon="2.3851">
        <ele>40.4</ele>
        <time>2022-07-27T09:28:18Z</time>
      </trkpt>
      <trkpt lat="49.80989" lon="2.38509">
        <ele>40.4</ele>
        <time>2022-07-27T09:28:19Z</time>
      </trkpt>
      <trkpt lat="49.80989" lon="2.38507">
        <ele>40.4</ele>
        <time>2022-07-27T09:28:20Z</time>
      </trkpt>
      <trkpt lat="49.80988" lon="2.38506">
        <ele>40.4</ele>
        <time>2022-07-27T09:28:21Z</time>
      </trkpt>
      <trkpt lat="49.80987" lon="2.38505">
        <ele>40.4</ele>
        <time>2022-07-27T09:28:22Z</time>
      </trkpt>
      <trkpt lat="49.80987" lon="2.38503">
        <ele>40.4</ele>
        <time>2022-07-27T09:28:23Z</time>
      </trkpt>
      <trkpt lat="49.80986" lon="2.38502">
        <ele>40.4</ele>
        <time>2022-07-27T09:28:24Z</time>
      </trkpt>
      <trkpt lat="49.80985" lon="2.38501">
        <ele>40.4</ele>
        <time>2022-07-27T09:28:25Z</time>
      </trkpt>
      <trkpt lat="49.80984" lon="2.38499">
        <ele>40.4</ele>
        <time>2022-07-27T09:28:26Z</time>
      </trkpt>
      <trkpt lat="49.80984" lon="2.38498">
        <ele>40.4</ele>
        <time>2022-07-27T09:28:27Z</time>
      </trkpt>
      <trkpt lat="49.80983" lon="2.38497">
        <ele>40.4</ele>
        <time>2022-07-27T09:28:28Z</time>
      </trkpt>
      <trkpt lat="49.80982" lon="2.38495">
        <ele>40.4</ele>
        <time>2022-07-27T09:28:29Z</time>
      </trkpt>
      <trkpt lat="49.80981" lon="2.38493">
        <ele>40.4</ele>
        <time>2022-07-27T09:28:30Z</time>
      </trkpt>
      <trkpt lat="49.80981" lon="2.38492">
        <ele>40.4</ele>
        <time>2022-07-27T09:28:31Z</time>
      </trkpt>
      <trkpt lat="49.80981" lon="2.38491">
        <ele>40.4</ele>
        <time>2022-07-27T09:28:32Z</time>
      </trkpt>
      <trkpt lat="49.8098" lon="2.3849">
        <ele>40.4</ele>
        <time>2022-07-27T09:28:33Z</time>
      </trkpt>
      <trkpt lat="49.80979" lon="2.38487">
        <ele>40.4</ele>
        <time>2022-07-27T09:28:34Z</time>
      </trkpt>
      <trkpt lat="49.80978" lon="2.38486">
        <ele>40.4</ele>
        <time>2022-07-27T09:28:35Z</time>
      </trkpt>
      <trkpt lat="49.80978" lon="2.38485">
        <ele>40.4</ele>
        <time>2022-07-27T09:28:36Z</time>
      </trkpt>
      <trkpt lat="49.80977" lon="2.38484">
        <ele>40.4</ele>
        <time>2022-07-27T09:28:37Z</time>
      </trkpt>
      <trkpt lat="49.80977" lon="2.38483">
        <ele>40.4</ele>
        <time>2022-07-27T09:28:38Z</time>
      </trkpt>
      <trkpt lat="49.80976" lon="2.38482">
        <ele>40.4</ele>
        <time>2022-07-27T09:28:39Z</time>
      </trkpt>
      <trkpt lat="49.80975" lon="2.38479">
        <ele>40.4</ele>
        <time>2022-07-27T09:28:40Z</time>
      </trkpt>
      <trkpt lat="49.80974" lon="2.38478">
        <ele>40.4</ele>
        <time>2022-07-27T09:28:41Z</time>
      </trkpt>
      <trkpt lat="49.80973" lon="2.38477">
        <ele>40.4</ele>
        <time>2022-07-27T09:28:42Z</time>
      </trkpt>
      <trkpt lat="49.80973" lon="2.38476">
        <ele>40.4</ele>
        <time>2022-07-27T09:28:43Z</time>
      </trkpt>
      <trkpt lat="49.80972" lon="2.38475">
        <ele>40.4</ele>
        <time>2022-07-27T09:28:44Z</time>
      </trkpt>
      <trkpt lat="49.80971" lon="2.38474">
        <ele>40.5</ele>
        <time>2022-07-27T09:28:45Z</time>
      </trkpt>
      <trkpt lat="49.80971" lon="2.38473">
        <ele>40.5</ele>
        <time>2022-07-27T09:28:46Z</time>
      </trkpt>
      <trkpt lat="49.80969" lon="2.38472">
        <ele>40.5</ele>
        <time>2022-07-27T09:28:47Z</time>
      </trkpt>
      <trkpt lat="49.80969" lon="2.3847">
        <ele>40.5</ele>
        <time>2022-07-27T09:28:48Z</time>
      </trkpt>
      <trkpt lat="49.80968" lon="2.38469">
        <ele>40.5</ele>
        <time>2022-07-27T09:28:49Z</time>
      </trkpt>
      <trkpt lat="49.80967" lon="2.38468">
        <ele>40.5</ele>
        <time>2022-07-27T09:28:50Z</time>
      </trkpt>
      <trkpt lat="49.80966" lon="2.38467">
        <ele>40.5</ele>
        <time>2022-07-27T09:28:51Z</time>
      </trkpt>
      <trkpt lat="49.80966" lon="2.38465">
        <ele>40.5</ele>
        <time>2022-07-27T09:28:52Z</time>
      </trkpt>
      <trkpt lat="49.80965" lon="2.38464">
        <ele>40.5</ele>
        <time>2022-07-27T09:28:53Z</time>
      </trkpt>
      <trkpt lat="49.80964" lon="2.38462">
        <ele>40.5</ele>
        <time>2022-07-27T09:28:54Z</time>
      </trkpt>
      <trkpt lat="49.80963" lon="2.38461">
        <ele>40.5</ele>
        <time>2022-07-27T09:28:55Z</time>
      </trkpt>
      <trkpt lat="49.80962" lon="2.3846">
        <ele>40.5</ele>
        <time>2022-07-27T09:28:56Z</time>
      </trkpt>
      <trkpt lat="49.80961" lon="2.38459">
        <ele>40.5</ele>
        <time>2022-07-27T09:28:57Z</time>
      </trkpt>
      <trkpt lat="49.8096" lon="2.38458">
        <ele>40.5</ele>
        <time>2022-07-27T09:28:58Z</time>
      </trkpt>
      <trkpt lat="49.80959" lon="2.38457">
        <ele>40.6</ele>
        <time>2022-07-27T09:28:59Z</time>
      </trkpt>
      <trkpt lat="49.80958" lon="2.38456">
        <ele>40.6</ele>
        <time>2022-07-27T09:29:00Z</time>
      </trkpt>
      <trkpt lat="49.80957" lon="2.38456">
        <ele>40.6</ele>
        <time>2022-07-27T09:29:01Z</time>
      </trkpt>
      <trkpt lat="49.80957" lon="2.38454">
        <ele>40.6</ele>
        <time>2022-07-27T09:29:02Z</time>
      </trkpt>
      <trkpt lat="49.80955" lon="2.38453">
        <ele>40.6</ele>
        <time>2022-07-27T09:29:03Z</time>
      </trkpt>
      <trkpt lat="49.80954" lon="2.38452">
        <ele>40.6</ele>
        <time>2022-07-27T09:29:04Z</time>
      </trkpt>
      <trkpt lat="49.80953" lon="2.38451">
        <ele>40.6</ele>
        <time>2022-07-27T09:29:05Z</time>
      </trkpt>
      <trkpt lat="49.80952" lon="2.38449">
        <ele>40.6</ele>
        <time>2022-07-27T09:29:06Z</time>
      </trkpt>
      <trkpt lat="49.80951" lon="2.38449">
        <ele>40.7</ele>
        <time>2022-07-27T09:29:07Z</time>
      </trkpt>
      <trkpt lat="49.8095" lon="2.38448">
        <ele>40.7</ele>
        <time>2022-07-27T09:29:08Z</time>
      </trkpt>
      <trkpt lat="49.80948" lon="2.38446">
        <ele>40.7</ele>
        <time>2022-07-27T09:29:09Z</time>
      </trkpt>
      <trkpt lat="49.80948" lon="2.38445">
        <ele>40.7</ele>
        <time>2022-07-27T09:29:10Z</time>
      </trkpt>
      <trkpt lat="49.80947" lon="2.38444">
        <ele>40.7</ele>
        <time>2022-07-27T09:29:11Z</time>
      </trkpt>
      <trkpt lat="49.80946" lon="2.38443">
        <ele>40.7</ele>
        <time>2022-07-27T09:29:12Z</time>
      </trkpt>
      <trkpt lat="49.80946" lon="2.38443">
        <ele>40.7</ele>
        <time>2022-07-27T09:29:13Z</time>
      </trkpt>
      <trkpt lat="49.80945" lon="2.38442">
        <ele>40.7</ele>
        <time>2022-07-27T09:29:14Z</time>
      </trkpt>
      <trkpt lat="49.80944" lon="2.3844">
        <ele>40.7</ele>
        <time>2022-07-27T09:29:15Z</time>
      </trkpt>
      <trkpt lat="49.80943" lon="2.38439">
        <ele>40.7</ele>
        <time>2022-07-27T09:29:16Z</time>
      </trkpt>
      <trkpt lat="49.80943" lon="2.38438">
        <ele>40.7</ele>
        <time>2022-07-27T09:29:17Z</time>
      </trkpt>
      <trkpt lat="49.80941" lon="2.38437">
        <ele>40.8</ele>
        <time>2022-07-27T09:29:18Z</time>
      </trkpt>
      <trkpt lat="49.80941" lon="2.38437">
        <ele>40.8</ele>
        <time>2022-07-27T09:29:19Z</time>
      </trkpt>
      <trkpt lat="49.8094" lon="2.38436">
        <ele>40.8</ele>
        <time>2022-07-27T09:29:20Z</time>
      </trkpt>
      <trkpt lat="49.80939" lon="2.38436">
        <ele>40.8</ele>
        <time>2022-07-27T09:29:21Z</time>
      </trkpt>
      <trkpt lat="49.80939" lon="2.38436">
        <ele>40.8</ele>
        <time>2022-07-27T09:29:22Z</time>
      </trkpt>
      <trkpt lat="49.80938" lon="2.38435">
        <ele>40.8</ele>
        <time>2022-07-27T09:29:23Z</time>
      </trkpt>
      <trkpt lat="49.80937" lon="2.38434">
        <ele>40.7</ele>
        <time>2022-07-27T09:29:24Z</time>
      </trkpt>
      <trkpt lat="49.80936" lon="2.38433">
        <ele>40.7</ele>
        <time>2022-07-27T09:29:25Z</time>
      </trkpt>
      <trkpt lat="49.80935" lon="2.38432">
        <ele>40.7</ele>
        <time>2022-07-27T09:29:26Z</time>
      </trkpt>
      <trkpt lat="49.80934" lon="2.38432">
        <ele>40.7</ele>
        <time>2022-07-27T09:29:27Z</time>
      </trkpt>
      <trkpt lat="49.80934" lon="2.38431">
        <ele>40.7</ele>
        <time>2022-07-27T09:29:28Z</time>
      </trkpt>
      <trkpt lat="49.80933" lon="2.3843">
        <ele>40.7</ele>
        <time>2022-07-27T09:29:29Z</time>
      </trkpt>
      <trkpt lat="49.80932" lon="2.38429">
        <ele>40.7</ele>
        <time>2022-07-27T09:29:30Z</time>
      </trkpt>
      <trkpt lat="49.80931" lon="2.38428">
        <ele>40.7</ele>
        <time>2022-07-27T09:29:31Z</time>
      </trkpt>
      <trkpt lat="49.8093" lon="2.38428">
        <ele>40.7</ele>
        <time>2022-07-27T09:29:32Z</time>
      </trkpt>
      <trkpt lat="49.8093" lon="2.38428">
        <ele>40.7</ele>
        <time>2022-07-27T09:29:33Z</time>
      </trkpt>
      <trkpt lat="49.8093" lon="2.38427">
        <ele>40.6</ele>
        <time>2022-07-27T09:29:34Z</time>
      </trkpt>
      <trkpt lat="49.80929" lon="2.38427">
        <ele>40.6</ele>
        <time>2022-07-27T09:29:35Z</time>
      </trkpt>
      <trkpt lat="49.8093" lon="2.38427">
        <ele>40.6</ele>
        <time>2022-07-27T09:29:36Z</time>
      </trkpt>
      <trkpt lat="49.80929" lon="2.38426">
        <ele>40.6</ele>
        <time>2022-07-27T09:29:37Z</time>
      </trkpt>
      <trkpt lat="49.80929" lon="2.38426">
        <ele>40.6</ele>
        <time>2022-07-27T09:29:38Z</time>
      </trkpt>
      <trkpt lat="49.80929" lon="2.38425">
        <ele>40.6</ele>
        <time>2022-07-27T09:29:39Z</time>
      </trkpt>
      <trkpt lat="49.80929" lon="2.38425">
        <ele>40.6</ele>
        <time>2022-07-27T09:29:40Z</time>
      </trkpt>
      <trkpt lat="49.80928" lon="2.38424">
        <ele>40.6</ele>
        <time>2022-07-27T09:29:41Z</time>
      </trkpt>
      <trkpt lat="49.80928" lon="2.38424">
        <ele>40.6</ele>
        <time>2022-07-27T09:29:42Z</time>
      </trkpt>
      <trkpt lat="49.80927" lon="2.38423">
        <ele>40.6</ele>
        <time>2022-07-27T09:29:43Z</time>
      </trkpt>
      <trkpt lat="49.80926" lon="2.38422">
        <ele>40.6</ele>
        <time>2022-07-27T09:29:44Z</time>
      </trkpt>
      <trkpt lat="49.80926" lon="2.38421">
        <ele>40.6</ele>
        <time>2022-07-27T09:29:45Z</time>
      </trkpt>
      <trkpt lat="49.80925" lon="2.38419">
        <ele>40.6</ele>
        <time>2022-07-27T09:29:47Z</time>
      </trkpt>
      <trkpt lat="49.80924" lon="2.38419">
        <ele>40.6</ele>
        <time>2022-07-27T09:29:48Z</time>
      </trkpt>
      <trkpt lat="49.80923" lon="2.38418">
        <ele>39.6</ele>
        <time>2022-07-27T09:29:49Z</time>
      </trkpt>
      <trkpt lat="49.80922" lon="2.38418">
        <ele>39.5</ele>
        <time>2022-07-27T09:29:50Z</time>
      </trkpt>
      <trkpt lat="49.80921" lon="2.38417">
        <ele>39.5</ele>
        <time>2022-07-27T09:29:51Z</time>
      </trkpt>
      <trkpt lat="49.80921" lon="2.38417">
        <ele>39.4</ele>
        <time>2022-07-27T09:29:52Z</time>
      </trkpt>
      <trkpt lat="49.8092" lon="2.38417">
        <ele>39.4</ele>
        <time>2022-07-27T09:29:53Z</time>
      </trkpt>
      <trkpt lat="49.8092" lon="2.38418">
        <ele>39.4</ele>
        <time>2022-07-27T09:29:54Z</time>
      </trkpt>
      <trkpt lat="49.80919" lon="2.38418">
        <ele>39.4</ele>
        <time>2022-07-27T09:29:55Z</time>
      </trkpt>
      <trkpt lat="49.80919" lon="2.3842">
        <ele>39.3</ele>
        <time>2022-07-27T09:29:56Z</time>
      </trkpt>
      <trkpt lat="49.80919" lon="2.3842">
        <ele>39.3</ele>
        <time>2022-07-27T09:29:57Z</time>
      </trkpt>
      <trkpt lat="49.80918" lon="2.3842">
        <ele>39.3</ele>
        <time>2022-07-27T09:29:58Z</time>
      </trkpt>
      <trkpt lat="49.80918" lon="2.3842">
        <ele>39.3</ele>
        <time>2022-07-27T09:30:00Z</time>
      </trkpt>
      <trkpt lat="49.80918" lon="2.3842">
        <ele>39.2</ele>
        <time>2022-07-27T09:30:01Z</time>
      </trkpt>
      <trkpt lat="49.80917" lon="2.3842">
        <ele>39.2</ele>
        <time>2022-07-27T09:30:02Z</time>
      </trkpt>
      <trkpt lat="49.80917" lon="2.38421">
        <ele>39.2</ele>
        <time>2022-07-27T09:30:03Z</time>
      </trkpt>
      <trkpt lat="49.80916" lon="2.38422">
        <ele>39.1</ele>
        <time>2022-07-27T09:30:04Z</time>
      </trkpt>
      <trkpt lat="49.80915" lon="2.38422">
        <ele>39.1</ele>
        <time>2022-07-27T09:30:05Z</time>
      </trkpt>
      <trkpt lat="49.80914" lon="2.38423">
        <ele>39</ele>
        <time>2022-07-27T09:30:06Z</time>
      </trkpt>
      <trkpt lat="49.80913" lon="2.38424">
        <ele>39</ele>
        <time>2022-07-27T09:30:07Z</time>
      </trkpt>
      <trkpt lat="49.80912" lon="2.38425">
        <ele>39</ele>
        <time>2022-07-27T09:30:08Z</time>
      </trkpt>
      <trkpt lat="49.80911" lon="2.38427">
        <ele>38.9</ele>
        <time>2022-07-27T09:30:09Z</time>
      </trkpt>
      <trkpt lat="49.80911" lon="2.38428">
        <ele>38.9</ele>
        <time>2022-07-27T09:30:10Z</time>
      </trkpt>
      <trkpt lat="49.8091" lon="2.38428">
        <ele>38.8</ele>
        <time>2022-07-27T09:30:11Z</time>
      </trkpt>
      <trkpt lat="49.8091" lon="2.38429">
        <ele>38.8</ele>
        <time>2022-07-27T09:30:12Z</time>
      </trkpt>
      <trkpt lat="49.80909" lon="2.3843">
        <ele>38.8</ele>
        <time>2022-07-27T09:30:13Z</time>
      </trkpt>
      <trkpt lat="49.80908" lon="2.38431">
        <ele>38.7</ele>
        <time>2022-07-27T09:30:14Z</time>
      </trkpt>
      <trkpt lat="49.80907" lon="2.38432">
        <ele>38.7</ele>
        <time>2022-07-27T09:30:15Z</time>
      </trkpt>
      <trkpt lat="49.80906" lon="2.38433">
        <ele>38.6</ele>
        <time>2022-07-27T09:30:16Z</time>
      </trkpt>
      <trkpt lat="49.80906" lon="2.38434">
        <ele>38.6</ele>
        <time>2022-07-27T09:30:17Z</time>
      </trkpt>
      <trkpt lat="49.80905" lon="2.38435">
        <ele>38.6</ele>
        <time>2022-07-27T09:30:18Z</time>
      </trkpt>
      <trkpt lat="49.80905" lon="2.38436">
        <ele>38.5</ele>
        <time>2022-07-27T09:30:19Z</time>
      </trkpt>
      <trkpt lat="49.80903" lon="2.38438">
        <ele>38.5</ele>
        <time>2022-07-27T09:30:20Z</time>
      </trkpt>
      <trkpt lat="49.80903" lon="2.38439">
        <ele>38.4</ele>
        <time>2022-07-27T09:30:21Z</time>
      </trkpt>
      <trkpt lat="49.80902" lon="2.3844">
        <ele>38.4</ele>
        <time>2022-07-27T09:30:22Z</time>
      </trkpt>
      <trkpt lat="49.80901" lon="2.38442">
        <ele>38.4</ele>
        <time>2022-07-27T09:30:23Z</time>
      </trkpt>
      <trkpt lat="49.809" lon="2.38443">
        <ele>38.3</ele>
        <time>2022-07-27T09:30:24Z</time>
      </trkpt>
      <trkpt lat="49.809" lon="2.38444">
        <ele>38.3</ele>
        <time>2022-07-27T09:30:25Z</time>
      </trkpt>
      <trkpt lat="49.809" lon="2.38444">
        <ele>38.3</ele>
        <time>2022-07-27T09:30:26Z</time>
      </trkpt>
      <trkpt lat="49.80898" lon="2.38447">
        <ele>38.2</ele>
        <time>2022-07-27T09:30:27Z</time>
      </trkpt>
      <trkpt lat="49.80897" lon="2.38448">
        <ele>38.2</ele>
        <time>2022-07-27T09:30:28Z</time>
      </trkpt>
      <trkpt lat="49.80897" lon="2.38448">
        <ele>38.2</ele>
        <time>2022-07-27T09:30:29Z</time>
      </trkpt>
      <trkpt lat="49.80895" lon="2.38451">
        <ele>38.1</ele>
        <time>2022-07-27T09:30:30Z</time>
      </trkpt>
      <trkpt lat="49.80895" lon="2.38452">
        <ele>38.1</ele>
        <time>2022-07-27T09:30:31Z</time>
      </trkpt>
      <trkpt lat="49.80894" lon="2.38453">
        <ele>38.1</ele>
        <time>2022-07-27T09:30:32Z</time>
      </trkpt>
      <trkpt lat="49.80893" lon="2.38454">
        <ele>38</ele>
        <time>2022-07-27T09:30:33Z</time>
      </trkpt>
      <trkpt lat="49.80893" lon="2.38455">
        <ele>38</ele>
        <time>2022-07-27T09:30:34Z</time>
      </trkpt>
      <trkpt lat="49.80892" lon="2.38456">
        <ele>38</ele>
        <time>2022-07-27T09:30:35Z</time>
      </trkpt>
      <trkpt lat="49.80892" lon="2.38457">
        <ele>38</ele>
        <time>2022-07-27T09:30:36Z</time>
      </trkpt>
      <trkpt lat="49.80891" lon="2.3846">
        <ele>37.9</ele>
        <time>2022-07-27T09:30:37Z</time>
      </trkpt>
      <trkpt lat="49.80891" lon="2.38461">
        <ele>37.9</ele>
        <time>2022-07-27T09:30:38Z</time>
      </trkpt>
      <trkpt lat="49.8089" lon="2.38462">
        <ele>37.9</ele>
        <time>2022-07-27T09:30:39Z</time>
      </trkpt>
      <trkpt lat="49.8089" lon="2.38463">
        <ele>37.9</ele>
        <time>2022-07-27T09:30:40Z</time>
      </trkpt>
      <trkpt lat="49.80889" lon="2.38464">
        <ele>37.8</ele>
        <time>2022-07-27T09:30:41Z</time>
      </trkpt>
      <trkpt lat="49.80888" lon="2.38465">
        <ele>37.8</ele>
        <time>2022-07-27T09:30:42Z</time>
      </trkpt>
      <trkpt lat="49.80888" lon="2.38466">
        <ele>37.8</ele>
        <time>2022-07-27T09:30:43Z</time>
      </trkpt>
      <trkpt lat="49.80887" lon="2.38466">
        <ele>37.8</ele>
        <time>2022-07-27T09:30:44Z</time>
      </trkpt>
      <trkpt lat="49.80887" lon="2.38466">
        <ele>37.8</ele>
        <time>2022-07-27T09:30:45Z</time>
      </trkpt>
      <trkpt lat="49.80887" lon="2.38467">
        <ele>37.8</ele>
        <time>2022-07-27T09:30:46Z</time>
      </trkpt>
      <trkpt lat="49.80887" lon="2.38468">
        <ele>37.7</ele>
        <time>2022-07-27T09:30:48Z</time>
      </trkpt>
      <trkpt lat="49.80886" lon="2.38468">
        <ele>37.7</ele>
        <time>2022-07-27T09:30:49Z</time>
      </trkpt>
      <trkpt lat="49.80886" lon="2.38469">
        <ele>37.7</ele>
        <time>2022-07-27T09:30:50Z</time>
      </trkpt>
      <trkpt lat="49.80886" lon="2.38469">
        <ele>37.7</ele>
        <time>2022-07-27T09:30:51Z</time>
      </trkpt>
      <trkpt lat="49.80886" lon="2.38469">
        <ele>37.7</ele>
        <time>2022-07-27T09:30:52Z</time>
      </trkpt>
      <trkpt lat="49.80885" lon="2.38469">
        <ele>37.7</ele>
        <time>2022-07-27T09:30:53Z</time>
      </trkpt>
      <trkpt lat="49.80885" lon="2.38469">
        <ele>37.7</ele>
        <time>2022-07-27T09:30:54Z</time>
      </trkpt>
      <trkpt lat="49.80886" lon="2.38468">
        <ele>37.7</ele>
        <time>2022-07-27T09:30:55Z</time>
      </trkpt>
      <trkpt lat="49.80886" lon="2.38468">
        <ele>37.7</ele>
        <time>2022-07-27T09:30:56Z</time>
      </trkpt>
      <trkpt lat="49.80886" lon="2.38468">
        <ele>37.7</ele>
        <time>2022-07-27T09:30:57Z</time>
      </trkpt>
      <trkpt lat="49.80886" lon="2.38468">
        <ele>37.7</ele>
        <time>2022-07-27T09:30:58Z</time>
      </trkpt>
      <trkpt lat="49.80886" lon="2.38468">
        <ele>37.7</ele>
        <time>2022-07-27T09:30:59Z</time>
      </trkpt>
      <trkpt lat="49.80886" lon="2.38468">
        <ele>37.7</ele>
        <time>2022-07-27T09:31:00Z</time>
      </trkpt>
      <trkpt lat="49.80886" lon="2.38468">
        <ele>37.7</ele>
        <time>2022-07-27T09:31:01Z</time>
      </trkpt>
      <trkpt lat="49.80886" lon="2.38468">
        <ele>37.7</ele>
        <time>2022-07-27T09:31:02Z</time>
      </trkpt>
      <trkpt lat="49.80886" lon="2.38468">
        <ele>37.7</ele>
        <time>2022-07-27T09:31:03Z</time>
      </trkpt>
      <trkpt lat="49.80886" lon="2.38468">
        <ele>37.7</ele>
        <time>2022-07-27T09:31:04Z</time>
      </trkpt>
      <trkpt lat="49.80886" lon="2.38468">
        <ele>37.7</ele>
        <time>2022-07-27T09:31:05Z</time>
      </trkpt>
      <trkpt lat="49.80886" lon="2.38468">
        <ele>37.7</ele>
        <time>2022-07-27T09:31:06Z</time>
      </trkpt>
      <trkpt lat="49.80886" lon="2.38468">
        <ele>37.7</ele>
        <time>2022-07-27T09:31:07Z</time>
      </trkpt>
      <trkpt lat="49.80886" lon="2.38468">
        <ele>37.7</ele>
        <time>2022-07-27T09:31:08Z</time>
      </trkpt>
      <trkpt lat="49.80886" lon="2.38468">
        <ele>37.7</ele>
        <time>2022-07-27T09:31:09Z</time>
      </trkpt>
      <trkpt lat="49.80886" lon="2.38468">
        <ele>37.7</ele>
        <time>2022-07-27T09:31:10Z</time>
      </trkpt>
      <trkpt lat="49.80886" lon="2.38468">
        <ele>37.7</ele>
        <time>2022-07-27T09:31:11Z</time>
      </trkpt>
      <trkpt lat="49.80886" lon="2.38468">
        <ele>37.7</ele>
        <time>2022-07-27T09:31:12Z</time>
      </trkpt>
      <trkpt lat="49.80886" lon="2.38468">
        <ele>37.7</ele>
        <time>2022-07-27T09:31:13Z</time>
      </trkpt>
      <trkpt lat="49.80886" lon="2.38468">
        <ele>37.7</ele>
        <time>2022-07-27T09:31:14Z</time>
      </trkpt>
      <trkpt lat="49.80886" lon="2.38468">
        <ele>37.7</ele>
        <time>2022-07-27T09:31:15Z</time>
      </trkpt>
      <trkpt lat="49.80886" lon="2.38468">
        <ele>37.7</ele>
        <time>2022-07-27T09:31:16Z</time>
      </trkpt>
      <trkpt lat="49.80886" lon="2.38468">
        <ele>37.7</ele>
        <time>2022-07-27T09:31:17Z</time>
      </trkpt>
      <trkpt lat="49.80886" lon="2.38468">
        <ele>37.7</ele>
        <time>2022-07-27T09:31:18Z</time>
      </trkpt>
      <trkpt lat="49.80886" lon="2.38468">
        <ele>37.7</ele>
        <time>2022-07-27T09:31:19Z</time>
      </trkpt>
    </trkseg>
  </trk>
</gpx>